<?xml version='1.0' encoding='UTF-8'?><gpx version="1.1" creator="JPX - https://github.com/jenetics/jpx" xmlns="http://www.topografix.com/GPX/1/1"><trk><trkseg><trkpt lat="41.64586205161523" lon="-0.8916395709546013"><ele>225.99999999999997</ele><time>2026-05-04T09:27:16Z</time></trkpt><trkpt lat="41.64584397636095" lon="-0.8915445245790349"><ele>226.0</ele><time>2026-05-04T09:27:28Z</time></trkpt><trkpt lat="41.64579233193447" lon="-0.8914440733048279"><ele>226.0</ele><time>2026-05-04T09:27:31Z</time></trkpt><trkpt lat="41.64575615697646" lon="-0.8913426976064106"><ele>226.0</ele><time>2026-05-04T09:27:33Z</time></trkpt><trkpt lat="41.64573340286304" lon="-0.8912501740463696"><ele>225.99999999999997</ele><time>2026-05-04T09:27:35Z</time></trkpt><trkpt lat="41.645677657632284" lon="-0.891156551451398"><ele>226.0</ele><time>2026-05-04T09:27:37Z</time></trkpt><trkpt lat="41.645631043825105" lon="-0.8910690395737787"><ele>226.0</ele><time>2026-05-04T09:27:39Z</time></trkpt><trkpt lat="41.64557419505249" lon="-0.8909615842137072"><ele>226.00000000000003</ele><time>2026-05-04T09:27:41Z</time></trkpt><trkpt lat="41.64550898307237" lon="-0.8908411795216201"><ele>226.00000000000003</ele><time>2026-05-04T09:27:43Z</time></trkpt><trkpt lat="41.645462483356" lon="-0.8907553243612467"><ele>226.0</ele><time>2026-05-04T09:27:45Z</time></trkpt><trkpt lat="41.645449589314495" lon="-0.8906578862496525"><ele>226.0</ele><time>2026-05-04T09:27:51Z</time></trkpt><trkpt lat="41.64552140260545" lon="-0.8905901388667754"><ele>226.66666666666666</ele><time>2026-05-04T09:27:53Z</time></trkpt><trkpt lat="41.64557886066923" lon="-0.8905295997891023"><ele>227.33333333333331</ele><time>2026-05-04T09:27:54Z</time></trkpt><trkpt lat="41.645628133931886" lon="-0.8904639969423299"><ele>228.0</ele><time>2026-05-04T09:27:55Z</time></trkpt><trkpt lat="41.64569408602907" lon="-0.8904305312657508"><ele>228.66666666666669</ele><time>2026-05-04T09:27:56Z</time></trkpt><trkpt lat="41.64578502613861" lon="-0.8903398492541426"><ele>229.33333333333334</ele><time>2026-05-04T09:27:58Z</time></trkpt><trkpt lat="41.645853902147444" lon="-0.8902851940500388"><ele>230.0</ele><time>2026-05-04T09:28:00Z</time></trkpt><trkpt lat="41.6459496635215" lon="-0.8902312656629346"><ele>230.00000000000003</ele><time>2026-05-04T09:28:02Z</time></trkpt><trkpt lat="41.64600739197315" lon="-0.890147548712234"><ele>230.0</ele><time>2026-05-04T09:28:04Z</time></trkpt><trkpt lat="41.646075652344" lon="-0.8900872872153056"><ele>230.0</ele><time>2026-05-04T09:28:07Z</time></trkpt><trkpt lat="41.64614095583561" lon="-0.890030881518897"><ele>230.0</ele><time>2026-05-04T09:28:08.998Z</time></trkpt><trkpt lat="41.64620691281669" lon="-0.8899690696540875"><ele>230.00000000000003</ele><time>2026-05-04T09:28:10.998Z</time></trkpt><trkpt lat="41.64626376439731" lon="-0.8899145447878241"><ele>230.0</ele><time>2026-05-04T09:28:12.998Z</time></trkpt><trkpt lat="41.64633725926776" lon="-0.8898559812744189"><ele>229.83333333333334</ele><time>2026-05-04T09:28:14.998Z</time></trkpt><trkpt lat="41.64640508307438" lon="-0.8897782628407127"><ele>229.66666666666669</ele><time>2026-05-04T09:28:16.998Z</time></trkpt><trkpt lat="41.64645866018203" lon="-0.889721304672276"><ele>229.5</ele><time>2026-05-04T09:28:19.998Z</time></trkpt><trkpt lat="41.64651971325838" lon="-0.8896399841642346"><ele>229.33333333333331</ele><time>2026-05-04T09:28:22.998Z</time></trkpt><trkpt lat="41.64657725259317" lon="-0.889604408166953"><ele>229.16666666666666</ele><time>2026-05-04T09:28:25.999Z</time></trkpt><trkpt lat="41.6466368774807" lon="-0.8895388243634915"><ele>229.0</ele><time>2026-05-04T09:28:27.999Z</time></trkpt><trkpt lat="41.64671963193744" lon="-0.8894471575249775"><ele>229.0</ele><time>2026-05-04T09:28:29.999Z</time></trkpt><trkpt lat="41.646810547969785" lon="-0.8893423983837758"><ele>228.99999999999997</ele><time>2026-05-04T09:28:31.999Z</time></trkpt><trkpt lat="41.64690971347717" lon="-0.8892325513885317"><ele>228.99999999999997</ele><time>2026-05-04T09:28:33.999Z</time></trkpt><trkpt lat="41.64696263159947" lon="-0.8891730557670745"><ele>229.0</ele><time>2026-05-04T09:28:34.999Z</time></trkpt><trkpt lat="41.647015287764646" lon="-0.8891011824878072"><ele>229.0</ele><time>2026-05-04T09:28:35.999Z</time></trkpt><trkpt lat="41.64706741605747" lon="-0.8890377232401854"><ele>228.14285714285714</ele><time>2026-05-04T09:28:36.999Z</time></trkpt><trkpt lat="41.64712300848473" lon="-0.8889653182170878"><ele>227.2857142857143</ele><time>2026-05-04T09:28:37.999Z</time></trkpt><trkpt lat="41.64719031802062" lon="-0.8889023543693141"><ele>226.42857142857144</ele><time>2026-05-04T09:28:38.999Z</time></trkpt><trkpt lat="41.647248805333604" lon="-0.8888400260120325"><ele>225.57142857142856</ele><time>2026-05-04T09:28:39.999Z</time></trkpt><trkpt lat="41.64730295107315" lon="-0.8887816700501788"><ele>224.71428571428572</ele><time>2026-05-04T09:28:40.999Z</time></trkpt><trkpt lat="41.647346841596494" lon="-0.8887204893235608"><ele>223.85714285714286</ele><time>2026-05-04T09:28:41.999Z</time></trkpt><trkpt lat="41.64740313048466" lon="-0.8886525269234626"><ele>223.0</ele><time>2026-05-04T09:28:42.999Z</time></trkpt><trkpt lat="41.64748014004098" lon="-0.8885073154644862"><ele>223.0</ele><time>2026-05-04T09:28:44.999Z</time></trkpt><trkpt lat="41.64752568329981" lon="-0.8884326376692606"><ele>223.0</ele><time>2026-05-04T09:28:45.999Z</time></trkpt><trkpt lat="41.64753995881466" lon="-0.8883350779162893"><ele>223.0</ele><time>2026-05-04T09:28:46.999Z</time></trkpt><trkpt lat="41.64758458398698" lon="-0.8882511491066596"><ele>223.0</ele><time>2026-05-04T09:28:47.999Z</time></trkpt><trkpt lat="41.64761014801104" lon="-0.8881576071748449"><ele>223.0</ele><time>2026-05-04T09:28:48.999Z</time></trkpt><trkpt lat="41.64763641890144" lon="-0.888062288156822"><ele>223.0</ele><time>2026-05-04T09:28:49.999Z</time></trkpt><trkpt lat="41.64766948080528" lon="-0.887974174859345"><ele>223.0</ele><time>2026-05-04T09:28:50.999Z</time></trkpt><trkpt lat="41.64770787366624" lon="-0.8879010710143818"><ele>222.99999999999997</ele><time>2026-05-04T09:28:51.999Z</time></trkpt><trkpt lat="41.64773530238582" lon="-0.8878222788059655"><ele>223.0</ele><time>2026-05-04T09:28:52.999Z</time></trkpt><trkpt lat="41.64778320721397" lon="-0.8876996004757631"><ele>223.0</ele><time>2026-05-04T09:28:54.999Z</time></trkpt><trkpt lat="41.64780391881706" lon="-0.8876135163974223"><ele>223.0</ele><time>2026-05-04T09:28:56.999Z</time></trkpt><trkpt lat="41.64784934446184" lon="-0.8875102321375565"><ele>222.99999999999997</ele><time>2026-05-04T09:29:05.999Z</time></trkpt><trkpt lat="41.64784676548247" lon="-0.8873791173643625"><ele>223.0</ele><time>2026-05-04T09:29:07.999Z</time></trkpt><trkpt lat="41.647851168031295" lon="-0.8872406309937637"><ele>222.83333333333331</ele><time>2026-05-04T09:29:09.999Z</time></trkpt><trkpt lat="41.647859779510966" lon="-0.8870983996823821"><ele>222.66666666666666</ele><time>2026-05-04T09:29:12Z</time></trkpt><trkpt lat="41.647842730293036" lon="-0.8870136146408449"><ele>222.5</ele><time>2026-05-04T09:29:14Z</time></trkpt><trkpt lat="41.6478524268515" lon="-0.8869156336191163"><ele>222.33333333333331</ele><time>2026-05-04T09:29:17Z</time></trkpt><trkpt lat="41.64785554134092" lon="-0.8868085057850921"><ele>222.16666666666666</ele><time>2026-05-04T09:29:21Z</time></trkpt><trkpt lat="41.64787421730619" lon="-0.8867192580672352"><ele>222.0</ele><time>2026-05-04T09:30:56.999Z</time></trkpt><trkpt lat="41.64786978926141" lon="-0.8866016271673198"><ele>222.0</ele><time>2026-05-04T09:31:00Z</time></trkpt><trkpt lat="41.647871320099924" lon="-0.8865025228206584"><ele>222.0</ele><time>2026-05-04T09:31:03Z</time></trkpt><trkpt lat="41.64787259243882" lon="-0.8864069862773524"><ele>222.0</ele><time>2026-05-04T09:31:06Z</time></trkpt><trkpt lat="41.6477239956099" lon="-0.8862970506730856"><ele>222.0</ele><time>2026-05-04T09:31:29Z</time></trkpt><trkpt lat="41.647634455258896" lon="-0.8862477996786198"><ele>222.0</ele><time>2026-05-04T09:31:31Z</time></trkpt><trkpt lat="41.647528016420374" lon="-0.8861900148620784"><ele>222.0</ele><time>2026-05-04T09:31:33Z</time></trkpt><trkpt lat="41.64746460670009" lon="-0.8861476862206791"><ele>222.0</ele><time>2026-05-04T09:31:34Z</time></trkpt><trkpt lat="41.64740061746054" lon="-0.8860913615846029"><ele>222.0</ele><time>2026-05-04T09:31:35Z</time></trkpt><trkpt lat="41.6473334504327" lon="-0.8860352536505688"><ele>222.0</ele><time>2026-05-04T09:31:36Z</time></trkpt><trkpt lat="41.64726300220756" lon="-0.8859805445889141"><ele>222.0</ele><time>2026-05-04T09:31:37Z</time></trkpt><trkpt lat="41.64720040621152" lon="-0.8859334883127757"><ele>222.0</ele><time>2026-05-04T09:31:38Z</time></trkpt><trkpt lat="41.64710297996361" lon="-0.8858903421366419"><ele>220.66666666666666</ele><time>2026-05-04T09:31:40Z</time></trkpt><trkpt lat="41.64703589983741" lon="-0.8858461532386774"><ele>219.33333333333331</ele><time>2026-05-04T09:31:43Z</time></trkpt><trkpt lat="41.64697180308302" lon="-0.8857975165959334"><ele>218.0</ele><time>2026-05-04T09:31:47Z</time></trkpt><trkpt lat="41.646912215628774" lon="-0.8857247256962544"><ele>216.66666666666666</ele><time>2026-05-04T09:31:49Z</time></trkpt><trkpt lat="41.64690366541957" lon="-0.8856348972988747"><ele>215.33333333333331</ele><time>2026-05-04T09:31:51Z</time></trkpt><trkpt lat="41.646877415915256" lon="-0.8855442261779186"><ele>214.0</ele><time>2026-05-04T09:31:53Z</time></trkpt><trkpt lat="41.64691977378032" lon="-0.8854258716451094"><ele>213.99999999999997</ele><time>2026-05-04T09:31:55Z</time></trkpt><trkpt lat="41.64697318759648" lon="-0.8852913160771751"><ele>214.0</ele><time>2026-05-04T09:31:57Z</time></trkpt><trkpt lat="41.647008161272645" lon="-0.8852128683761836"><ele>214.0</ele><time>2026-05-04T09:31:58Z</time></trkpt><trkpt lat="41.64704459795819" lon="-0.8851272086238297"><ele>214.0</ele><time>2026-05-04T09:31:59Z</time></trkpt><trkpt lat="41.647082497904044" lon="-0.8850415684849592"><ele>213.99999999999997</ele><time>2026-05-04T09:32:00.001Z</time></trkpt><trkpt lat="41.64712460358572" lon="-0.8849535274802759"><ele>214.0</ele><time>2026-05-04T09:32:01.001Z</time></trkpt><trkpt lat="41.64716556849991" lon="-0.884857956716339"><ele>214.6</ele><time>2026-05-04T09:32:02.001Z</time></trkpt><trkpt lat="41.64720248036894" lon="-0.8847635453498108"><ele>215.2</ele><time>2026-05-04T09:32:03.001Z</time></trkpt><trkpt lat="41.64723567555336" lon="-0.8846770232770378"><ele>215.79999999999998</ele><time>2026-05-04T09:32:04.001Z</time></trkpt><trkpt lat="41.64729478348306" lon="-0.8845424512873489"><ele>216.39999999999998</ele><time>2026-05-04T09:32:06.001Z</time></trkpt><trkpt lat="41.64736270336012" lon="-0.8843921372051791"><ele>217.0</ele><time>2026-05-04T09:32:08.001Z</time></trkpt><trkpt lat="41.64738977315603" lon="-0.8843007647867654"><ele>217.66666666666666</ele><time>2026-05-04T09:32:09.001Z</time></trkpt><trkpt lat="41.647413503136235" lon="-0.8842013837336847"><ele>218.33333333333331</ele><time>2026-05-04T09:32:10.001Z</time></trkpt><trkpt lat="41.64745019398029" lon="-0.884103349456036"><ele>219.0</ele><time>2026-05-04T09:32:11.001Z</time></trkpt><trkpt lat="41.64749969965216" lon="-0.8840091893265744"><ele>219.66666666666669</ele><time>2026-05-04T09:32:12.001Z</time></trkpt><trkpt lat="41.647546013603645" lon="-0.8839085528225672"><ele>220.33333333333334</ele><time>2026-05-04T09:32:13.001Z</time></trkpt><trkpt lat="41.647599116502946" lon="-0.8838058771688088"><ele>221.0</ele><time>2026-05-04T09:32:14.001Z</time></trkpt><trkpt lat="41.64765941000235" lon="-0.8836971831835273"><ele>221.0</ele><time>2026-05-04T09:32:15.001Z</time></trkpt><trkpt lat="41.64771416872251" lon="-0.8835901346413721"><ele>221.00000000000003</ele><time>2026-05-04T09:32:16.001Z</time></trkpt><trkpt lat="41.6477675492369" lon="-0.8834812736726865"><ele>221.00000000000003</ele><time>2026-05-04T09:32:17.001Z</time></trkpt><trkpt lat="41.64782905707362" lon="-0.8833686663371043"><ele>221.0</ele><time>2026-05-04T09:32:18.001Z</time></trkpt><trkpt lat="41.64788512341027" lon="-0.8832587845917343"><ele>221.0</ele><time>2026-05-04T09:32:19.001Z</time></trkpt><trkpt lat="41.64792932705256" lon="-0.883136393658354"><ele>221.20000000000002</ele><time>2026-05-04T09:32:20.001Z</time></trkpt><trkpt lat="41.64795864571002" lon="-0.8830066944125672"><ele>221.40000000000003</ele><time>2026-05-04T09:32:20.999Z</time></trkpt><trkpt lat="41.647975919663914" lon="-0.8828884666008615"><ele>221.6</ele><time>2026-05-04T09:32:21.999Z</time></trkpt><trkpt lat="41.64798252215197" lon="-0.8827693344204336"><ele>221.8</ele><time>2026-05-04T09:32:22.999Z</time></trkpt><trkpt lat="41.6479819753922" lon="-0.8826559027555583"><ele>222.0</ele><time>2026-05-04T09:32:23.999Z</time></trkpt><trkpt lat="41.64797473285101" lon="-0.88253067767471"><ele>222.0</ele><time>2026-05-04T09:32:24.999Z</time></trkpt><trkpt lat="41.64796718855653" lon="-0.8824042040466893"><ele>222.0</ele><time>2026-05-04T09:32:25.999Z</time></trkpt><trkpt lat="41.64795583240753" lon="-0.8822774418565809"><ele>222.0</ele><time>2026-05-04T09:32:26.999Z</time></trkpt><trkpt lat="41.64792840473998" lon="-0.8821473905727277"><ele>222.0</ele><time>2026-05-04T09:32:27.999Z</time></trkpt><trkpt lat="41.64789142507185" lon="-0.8820227162028873"><ele>222.0</ele><time>2026-05-04T09:32:28.999Z</time></trkpt><trkpt lat="41.64784979914555" lon="-0.8818916323072533"><ele>222.0</ele><time>2026-05-04T09:32:29.999Z</time></trkpt><trkpt lat="41.64781171183625" lon="-0.8817654815451993"><ele>222.0</ele><time>2026-05-04T09:32:30.999Z</time></trkpt><trkpt lat="41.6477755306088" lon="-0.8816307405714995"><ele>222.0</ele><time>2026-05-04T09:32:31.999Z</time></trkpt><trkpt lat="41.64772721451975" lon="-0.8815011297201062"><ele>222.0</ele><time>2026-05-04T09:32:32.999Z</time></trkpt><trkpt lat="41.647683458333375" lon="-0.8813813375377005"><ele>222.0</ele><time>2026-05-04T09:32:33.999Z</time></trkpt><trkpt lat="41.647640482535024" lon="-0.8812680879399397"><ele>222.39999999999998</ele><time>2026-05-04T09:32:34.999Z</time></trkpt><trkpt lat="41.64760609800127" lon="-0.8811742581669709"><ele>222.79999999999998</ele><time>2026-05-04T09:32:35.999Z</time></trkpt><trkpt lat="41.64755587534152" lon="-0.8810414650522163"><ele>223.2</ele><time>2026-05-04T09:32:37.999Z</time></trkpt><trkpt lat="41.64749848646999" lon="-0.880952706668382"><ele>223.6</ele><time>2026-05-04T09:33:27Z</time></trkpt><trkpt lat="41.64742496264854" lon="-0.8808519223757058"><ele>224.0</ele><time>2026-05-04T09:33:29Z</time></trkpt><trkpt lat="41.647365847365265" lon="-0.8806905496903831"><ele>224.00000000000003</ele><time>2026-05-04T09:33:31Z</time></trkpt><trkpt lat="41.64732508684584" lon="-0.8806069460596362"><ele>224.0</ele><time>2026-05-04T09:33:32Z</time></trkpt><trkpt lat="41.64727943543049" lon="-0.8805163016948515"><ele>224.0</ele><time>2026-05-04T09:33:33.001Z</time></trkpt><trkpt lat="41.64722815783026" lon="-0.8804304287721579"><ele>224.0</ele><time>2026-05-04T09:33:34.001Z</time></trkpt><trkpt lat="41.647178951124836" lon="-0.8803454479674687"><ele>224.00000000000003</ele><time>2026-05-04T09:33:35.001Z</time></trkpt><trkpt lat="41.6471236268075" lon="-0.880249934979654"><ele>224.0</ele><time>2026-05-04T09:33:36.001Z</time></trkpt><trkpt lat="41.64707322277043" lon="-0.8801513146575419"><ele>224.39999999999998</ele><time>2026-05-04T09:33:37.001Z</time></trkpt><trkpt lat="41.64702124465019" lon="-0.880047205791686"><ele>224.79999999999998</ele><time>2026-05-04T09:33:38.001Z</time></trkpt><trkpt lat="41.6469646001837" lon="-0.8799427850455595"><ele>225.20000000000002</ele><time>2026-05-04T09:33:39.001Z</time></trkpt><trkpt lat="41.64690934225849" lon="-0.8798419249122712"><ele>225.60000000000002</ele><time>2026-05-04T09:33:40.001Z</time></trkpt><trkpt lat="41.64684748951604" lon="-0.8797367652575031"><ele>226.0</ele><time>2026-05-04T09:33:41.001Z</time></trkpt><trkpt lat="41.6467856041064" lon="-0.8796346942814297"><ele>226.0</ele><time>2026-05-04T09:33:42.001Z</time></trkpt><trkpt lat="41.64672382308136" lon="-0.8795340484518208"><ele>226.00000000000003</ele><time>2026-05-04T09:33:43.001Z</time></trkpt><trkpt lat="41.64665905734602" lon="-0.8794283592096473"><ele>226.00000000000003</ele><time>2026-05-04T09:33:44.001Z</time></trkpt><trkpt lat="41.64659158474441" lon="-0.8793309315376913"><ele>226.0</ele><time>2026-05-04T09:33:45.001Z</time></trkpt><trkpt lat="41.64652419650071" lon="-0.8792318575998082"><ele>226.0</ele><time>2026-05-04T09:33:46.001Z</time></trkpt><trkpt lat="41.646453631677545" lon="-0.8791388753455885"><ele>226.60000000000002</ele><time>2026-05-04T09:33:47.001Z</time></trkpt><trkpt lat="41.64637726826028" lon="-0.879054603797815"><ele>227.20000000000002</ele><time>2026-05-04T09:33:48.001Z</time></trkpt><trkpt lat="41.646298642091764" lon="-0.8789708977271549"><ele>227.79999999999998</ele><time>2026-05-04T09:33:49.001Z</time></trkpt><trkpt lat="41.64622054282284" lon="-0.8788913164120139"><ele>228.39999999999998</ele><time>2026-05-04T09:33:50.001Z</time></trkpt><trkpt lat="41.64614208821495" lon="-0.8788051405423888"><ele>229.0</ele><time>2026-05-04T09:33:51.001Z</time></trkpt><trkpt lat="41.646058340515516" lon="-0.8787242307287249"><ele>229.0</ele><time>2026-05-04T09:33:52.001Z</time></trkpt><trkpt lat="41.64597565987358" lon="-0.8786448211900219"><ele>228.99999999999997</ele><time>2026-05-04T09:33:53.001Z</time></trkpt><trkpt lat="41.645892046552035" lon="-0.8785684832445467"><ele>228.99999999999997</ele><time>2026-05-04T09:33:54.001Z</time></trkpt><trkpt lat="41.64580636542682" lon="-0.8784944867762663"><ele>229.0</ele><time>2026-05-04T09:33:55.001Z</time></trkpt><trkpt lat="41.645721841297636" lon="-0.8784188607016441"><ele>229.0</ele><time>2026-05-04T09:33:56.001Z</time></trkpt><trkpt lat="41.645635553620025" lon="-0.8783481177387473"><ele>228.33333333333331</ele><time>2026-05-04T09:33:57.001Z</time></trkpt><trkpt lat="41.64555287939548" lon="-0.8782714528076031"><ele>227.66666666666666</ele><time>2026-05-04T09:33:58.001Z</time></trkpt><trkpt lat="41.64547500598707" lon="-0.8782045311375448"><ele>227.0</ele><time>2026-05-04T09:33:59.001Z</time></trkpt><trkpt lat="41.64540210358729" lon="-0.8781400948456555"><ele>226.33333333333331</ele><time>2026-05-04T09:34:00.001Z</time></trkpt><trkpt lat="41.64533797721057" lon="-0.8780813652854639"><ele>225.66666666666666</ele><time>2026-05-04T09:34:01.001Z</time></trkpt><trkpt lat="41.64527725403277" lon="-0.8780317631130116"><ele>225.0</ele><time>2026-05-04T09:34:02.001Z</time></trkpt><trkpt lat="41.64518532847932" lon="-0.8779577487157032"><ele>225.0</ele><time>2026-05-04T09:34:04.001Z</time></trkpt><trkpt lat="41.64512863534852" lon="-0.8779137500453127"><ele>225.0</ele><time>2026-05-04T09:34:08.001Z</time></trkpt><trkpt lat="41.64501608706999" lon="-0.8778252365567918"><ele>225.0</ele><time>2026-05-04T09:34:36.999Z</time></trkpt><trkpt lat="41.644911324944246" lon="-0.8777767469314568"><ele>225.0</ele><time>2026-05-04T09:34:38.999Z</time></trkpt><trkpt lat="41.6448244151552" lon="-0.8777037220733037"><ele>225.0</ele><time>2026-05-04T09:34:40.999Z</time></trkpt><trkpt lat="41.64479603323296" lon="-0.8775947862475367"><ele>223.4</ele><time>2026-05-04T09:34:42.999Z</time></trkpt><trkpt lat="41.64479500979939" lon="-0.8774899045162906"><ele>221.8</ele><time>2026-05-04T09:34:44.999Z</time></trkpt><trkpt lat="41.644910701457576" lon="-0.87725991407752"><ele>220.2</ele><time>2026-05-04T09:35:15Z</time></trkpt><trkpt lat="41.64494947228793" lon="-0.877191421651592"><ele>218.6</ele><time>2026-05-04T09:35:16Z</time></trkpt><trkpt lat="41.64499478056195" lon="-0.8771119288882161"><ele>217.0</ele><time>2026-05-04T09:35:17Z</time></trkpt><trkpt lat="41.64504000527465" lon="-0.8770242233309969"><ele>217.0</ele><time>2026-05-04T09:35:18Z</time></trkpt><trkpt lat="41.64508948861938" lon="-0.8769296799587631"><ele>217.0</ele><time>2026-05-04T09:35:19Z</time></trkpt><trkpt lat="41.645142495853094" lon="-0.8768310958540594"><ele>217.0</ele><time>2026-05-04T09:35:20Z</time></trkpt><trkpt lat="41.645195069422186" lon="-0.8767264072665089"><ele>217.0</ele><time>2026-05-04T09:35:21Z</time></trkpt><trkpt lat="41.64524693632299" lon="-0.8766181403591821"><ele>217.0</ele><time>2026-05-04T09:35:22Z</time></trkpt><trkpt lat="41.64529940382269" lon="-0.8765100978957813"><ele>218.0</ele><time>2026-05-04T09:35:23Z</time></trkpt><trkpt lat="41.64535564180636" lon="-0.8764004581874996"><ele>219.0</ele><time>2026-05-04T09:35:24Z</time></trkpt><trkpt lat="41.64541609247184" lon="-0.87628568632313"><ele>220.0</ele><time>2026-05-04T09:35:25Z</time></trkpt><trkpt lat="41.64547030765794" lon="-0.8761774729295846"><ele>221.0</ele><time>2026-05-04T09:35:26Z</time></trkpt><trkpt lat="41.64551403650458" lon="-0.8760677396458373"><ele>222.0</ele><time>2026-05-04T09:35:27Z</time></trkpt><trkpt lat="41.64555432196352" lon="-0.8759594487757365"><ele>223.16666666666666</ele><time>2026-05-04T09:35:28Z</time></trkpt><trkpt lat="41.64559738210615" lon="-0.8758554579658815"><ele>224.33333333333331</ele><time>2026-05-04T09:35:29Z</time></trkpt><trkpt lat="41.64564027372114" lon="-0.8757553712297924"><ele>225.5</ele><time>2026-05-04T09:35:30.001Z</time></trkpt><trkpt lat="41.645685168821196" lon="-0.8756501694826472"><ele>226.66666666666666</ele><time>2026-05-04T09:35:31.001Z</time></trkpt><trkpt lat="41.64573542865975" lon="-0.8755460000128271"><ele>227.83333333333331</ele><time>2026-05-04T09:35:32.001Z</time></trkpt><trkpt lat="41.6457830229808" lon="-0.8754425611377921"><ele>229.0</ele><time>2026-05-04T09:35:33.001Z</time></trkpt><trkpt lat="41.64582153997089" lon="-0.8753353615758227"><ele>228.99999999999997</ele><time>2026-05-04T09:35:34.001Z</time></trkpt><trkpt lat="41.64586706625039" lon="-0.875238580560377"><ele>229.0</ele><time>2026-05-04T09:35:35.001Z</time></trkpt><trkpt lat="41.64591230428623" lon="-0.8751387916405462"><ele>229.0</ele><time>2026-05-04T09:35:36.001Z</time></trkpt><trkpt lat="41.64595809549071" lon="-0.875042578722613"><ele>229.0</ele><time>2026-05-04T09:35:37.001Z</time></trkpt><trkpt lat="41.646005557698544" lon="-0.8749450037723957"><ele>228.99999999999997</ele><time>2026-05-04T09:35:38.001Z</time></trkpt><trkpt lat="41.64605067059736" lon="-0.8748465347240418"><ele>229.0</ele><time>2026-05-04T09:35:39.001Z</time></trkpt><trkpt lat="41.64609502972508" lon="-0.8747588036809939"><ele>227.42857142857142</ele><time>2026-05-04T09:35:40.001Z</time></trkpt><trkpt lat="41.646136329922705" lon="-0.8746757812815943"><ele>225.85714285714286</ele><time>2026-05-04T09:35:41.001Z</time></trkpt><trkpt lat="41.64617185214267" lon="-0.8745996387255711"><ele>224.28571428571428</ele><time>2026-05-04T09:35:42.001Z</time></trkpt><trkpt lat="41.646204294502716" lon="-0.8745250873388987"><ele>222.71428571428572</ele><time>2026-05-04T09:35:43.001Z</time></trkpt><trkpt lat="41.64624402314681" lon="-0.8744451523425879"><ele>221.14285714285717</ele><time>2026-05-04T09:35:44.001Z</time></trkpt><trkpt lat="41.64628369594221" lon="-0.87435837280723"><ele>219.57142857142858</ele><time>2026-05-04T09:35:45.001Z</time></trkpt><trkpt lat="41.6463252938449" lon="-0.8742661333522026"><ele>218.0</ele><time>2026-05-04T09:35:46.001Z</time></trkpt><trkpt lat="41.64637087275269" lon="-0.874165179858274"><ele>218.0</ele><time>2026-05-04T09:35:47.001Z</time></trkpt><trkpt lat="41.646412047282915" lon="-0.8740537311400977"><ele>218.0</ele><time>2026-05-04T09:35:48.001Z</time></trkpt><trkpt lat="41.646463427881315" lon="-0.8739391590503006"><ele>218.0</ele><time>2026-05-04T09:35:49.001Z</time></trkpt><trkpt lat="41.64651596518546" lon="-0.8738222251530521"><ele>218.0</ele><time>2026-05-04T09:35:50.001Z</time></trkpt><trkpt lat="41.646566851545444" lon="-0.8736943341760054"><ele>218.0</ele><time>2026-05-04T09:35:51.001Z</time></trkpt><trkpt lat="41.6466205494371" lon="-0.8735845681799083"><ele>218.0</ele><time>2026-05-04T09:35:52.001Z</time></trkpt><trkpt lat="41.6466711009915" lon="-0.8734782896526733"><ele>218.0</ele><time>2026-05-04T09:35:53.001Z</time></trkpt><trkpt lat="41.64671611173518" lon="-0.8733725876153616"><ele>218.0</ele><time>2026-05-04T09:35:54.001Z</time></trkpt><trkpt lat="41.64676451929076" lon="-0.8732685399529936"><ele>218.0</ele><time>2026-05-04T09:35:55.001Z</time></trkpt><trkpt lat="41.64681099152932" lon="-0.8731613008226257"><ele>218.0</ele><time>2026-05-04T09:35:56.001Z</time></trkpt><trkpt lat="41.64686278659765" lon="-0.8730511901345367"><ele>218.2</ele><time>2026-05-04T09:35:57.001Z</time></trkpt><trkpt lat="41.64691596366705" lon="-0.8729414238650575"><ele>218.4</ele><time>2026-05-04T09:35:58.001Z</time></trkpt><trkpt lat="41.64697213025135" lon="-0.8728279323619373"><ele>218.59999999999997</ele><time>2026-05-04T09:35:59.001Z</time></trkpt><trkpt lat="41.64702898169429" lon="-0.8727146412141361"><ele>218.79999999999998</ele><time>2026-05-04T09:36:00.001Z</time></trkpt><trkpt lat="41.64708623988414" lon="-0.8726044881293615"><ele>219.0</ele><time>2026-05-04T09:36:01.001Z</time></trkpt><trkpt lat="41.647136750561195" lon="-0.8724843520807093"><ele>217.39999999999998</ele><time>2026-05-04T09:36:02.001Z</time></trkpt><trkpt lat="41.64718453367571" lon="-0.8723603755566375"><ele>215.79999999999998</ele><time>2026-05-04T09:36:03.001Z</time></trkpt><trkpt lat="41.647231427942685" lon="-0.8722364446933946"><ele>214.2</ele><time>2026-05-04T09:36:04.001Z</time></trkpt><trkpt lat="41.647276984745965" lon="-0.8721089464508466"><ele>212.60000000000002</ele><time>2026-05-04T09:36:05.001Z</time></trkpt><trkpt lat="41.64731822524498" lon="-0.8719763895373028"><ele>211.0</ele><time>2026-05-04T09:36:06.001Z</time></trkpt><trkpt lat="41.647352003848965" lon="-0.8718371433104751"><ele>210.4</ele><time>2026-05-04T09:36:07.001Z</time></trkpt><trkpt lat="41.6473852795776" lon="-0.8717024017624216"><ele>209.8</ele><time>2026-05-04T09:36:08.001Z</time></trkpt><trkpt lat="41.64741763585629" lon="-0.8715654924436751"><ele>209.20000000000002</ele><time>2026-05-04T09:36:09.001Z</time></trkpt><trkpt lat="41.64744801626978" lon="-0.8714277470384291"><ele>208.60000000000002</ele><time>2026-05-04T09:36:10.001Z</time></trkpt><trkpt lat="41.647468750770955" lon="-0.8712842249504417"><ele>208.0</ele><time>2026-05-04T09:36:11.001Z</time></trkpt><trkpt lat="41.64748495280561" lon="-0.8711478034462283"><ele>208.0</ele><time>2026-05-04T09:36:12.001Z</time></trkpt><trkpt lat="41.647517162279975" lon="-0.8710130795120093"><ele>208.0</ele><time>2026-05-04T09:36:13.001Z</time></trkpt><trkpt lat="41.647538736098575" lon="-0.8708769038300973"><ele>208.0</ele><time>2026-05-04T09:36:14.001Z</time></trkpt><trkpt lat="41.64756045900719" lon="-0.8707362958599952"><ele>208.0</ele><time>2026-05-04T09:36:15.001Z</time></trkpt><trkpt lat="41.64758033945652" lon="-0.8705974182136997"><ele>208.0</ele><time>2026-05-04T09:36:16.001Z</time></trkpt><trkpt lat="41.6476017864275" lon="-0.870456201489864"><ele>208.0</ele><time>2026-05-04T09:36:17.002Z</time></trkpt><trkpt lat="41.647624915282165" lon="-0.8703177489998059"><ele>208.0</ele><time>2026-05-04T09:36:18.002Z</time></trkpt><trkpt lat="41.64765722881696" lon="-0.870180024036788"><ele>208.0</ele><time>2026-05-04T09:36:19.002Z</time></trkpt><trkpt lat="41.64769577542002" lon="-0.8700442928916444"><ele>208.0</ele><time>2026-05-04T09:36:20.002Z</time></trkpt><trkpt lat="41.64773615517438" lon="-0.8699080810685689"><ele>208.0</ele><time>2026-05-04T09:36:21.002Z</time></trkpt><trkpt lat="41.64778626348042" lon="-0.8697775428798409"><ele>207.2</ele><time>2026-05-04T09:36:22.002Z</time></trkpt><trkpt lat="41.64784526789948" lon="-0.869655583694513"><ele>206.4</ele><time>2026-05-04T09:36:23.002Z</time></trkpt><trkpt lat="41.64790883182371" lon="-0.8695345069295073"><ele>205.6</ele><time>2026-05-04T09:36:24.002Z</time></trkpt><trkpt lat="41.64797183261036" lon="-0.8694084109384028"><ele>204.79999999999998</ele><time>2026-05-04T09:36:25.002Z</time></trkpt><trkpt lat="41.64802892130298" lon="-0.8692836383739266"><ele>204.0</ele><time>2026-05-04T09:36:26.002Z</time></trkpt><trkpt lat="41.64808693333086" lon="-0.8691565228903372"><ele>203.6</ele><time>2026-05-04T09:36:27.002Z</time></trkpt><trkpt lat="41.648136785763164" lon="-0.8690223158152237"><ele>203.2</ele><time>2026-05-04T09:36:28.002Z</time></trkpt><trkpt lat="41.64818489486801" lon="-0.8688877990466154"><ele>202.79999999999998</ele><time>2026-05-04T09:36:29.002Z</time></trkpt><trkpt lat="41.64822046164593" lon="-0.8687471524318919"><ele>202.39999999999998</ele><time>2026-05-04T09:36:30.002Z</time></trkpt><trkpt lat="41.64826080745415" lon="-0.8686107697985211"><ele>202.0</ele><time>2026-05-04T09:36:31.002Z</time></trkpt><trkpt lat="41.64829613674504" lon="-0.8684702934905939"><ele>201.2</ele><time>2026-05-04T09:36:32.002Z</time></trkpt><trkpt lat="41.648329415964966" lon="-0.8683322156161573"><ele>200.39999999999998</ele><time>2026-05-04T09:36:33Z</time></trkpt><trkpt lat="41.648366471059454" lon="-0.8681940784148323"><ele>199.60000000000002</ele><time>2026-05-04T09:36:34Z</time></trkpt><trkpt lat="41.64839545231463" lon="-0.8680518649745513"><ele>198.8</ele><time>2026-05-04T09:36:35Z</time></trkpt><trkpt lat="41.64843049361022" lon="-0.8679151011000055"><ele>198.0</ele><time>2026-05-04T09:36:36Z</time></trkpt><trkpt lat="41.64843731397511" lon="-0.8677716232580203"><ele>198.0</ele><time>2026-05-04T09:36:37Z</time></trkpt><trkpt lat="41.64846588584469" lon="-0.8676316960905898"><ele>198.0</ele><time>2026-05-04T09:36:38Z</time></trkpt><trkpt lat="41.64851117022777" lon="-0.8675018364053139"><ele>198.0</ele><time>2026-05-04T09:36:39Z</time></trkpt><trkpt lat="41.64854787806002" lon="-0.8673656206805247"><ele>198.0</ele><time>2026-05-04T09:36:40Z</time></trkpt><trkpt lat="41.64858321878569" lon="-0.8672236097954399"><ele>198.0</ele><time>2026-05-04T09:36:41Z</time></trkpt><trkpt lat="41.64861596403363" lon="-0.867080828492519"><ele>198.0</ele><time>2026-05-04T09:36:42Z</time></trkpt><trkpt lat="41.648647331112656" lon="-0.8669386713588139"><ele>198.0</ele><time>2026-05-04T09:36:43Z</time></trkpt><trkpt lat="41.64867737750808" lon="-0.8667950060849802"><ele>198.0</ele><time>2026-05-04T09:36:44Z</time></trkpt><trkpt lat="41.6487120080884" lon="-0.8666558114421341"><ele>198.0</ele><time>2026-05-04T09:36:45Z</time></trkpt><trkpt lat="41.64874737802583" lon="-0.8665232877091523"><ele>198.0</ele><time>2026-05-04T09:36:46Z</time></trkpt><trkpt lat="41.64878048098779" lon="-0.8663865134728079"><ele>197.8</ele><time>2026-05-04T09:36:47Z</time></trkpt><trkpt lat="41.648814339872416" lon="-0.8662450186816698"><ele>197.60000000000002</ele><time>2026-05-04T09:36:48Z</time></trkpt><trkpt lat="41.64884993059557" lon="-0.8661067712031979"><ele>197.39999999999998</ele><time>2026-05-04T09:36:49Z</time></trkpt><trkpt lat="41.648881576765206" lon="-0.8659661755754285"><ele>197.2</ele><time>2026-05-04T09:36:50Z</time></trkpt><trkpt lat="41.64891615394529" lon="-0.8658247188536666"><ele>197.0</ele><time>2026-05-04T09:36:51Z</time></trkpt><trkpt lat="41.64895285952174" lon="-0.8656875748876727"><ele>197.39999999999998</ele><time>2026-05-04T09:36:52Z</time></trkpt><trkpt lat="41.64899214615993" lon="-0.8655523291013523"><ele>197.79999999999998</ele><time>2026-05-04T09:36:53Z</time></trkpt><trkpt lat="41.64903889217115" lon="-0.8654224547320845"><ele>198.2</ele><time>2026-05-04T09:36:54Z</time></trkpt><trkpt lat="41.64909021990938" lon="-0.8652963030850197"><ele>198.6</ele><time>2026-05-04T09:36:55Z</time></trkpt><trkpt lat="41.649149045226544" lon="-0.8651711937071497"><ele>199.0</ele><time>2026-05-04T09:36:56Z</time></trkpt><trkpt lat="41.649207149993046" lon="-0.865047714156675"><ele>199.0</ele><time>2026-05-04T09:36:57Z</time></trkpt><trkpt lat="41.6492715449071" lon="-0.8649277685957846"><ele>199.0</ele><time>2026-05-04T09:36:58Z</time></trkpt><trkpt lat="41.649340255867195" lon="-0.8648123279209345"><ele>199.0</ele><time>2026-05-04T09:36:59Z</time></trkpt><trkpt lat="41.64940868056343" lon="-0.8646965606799509"><ele>199.0</ele><time>2026-05-04T09:37:00Z</time></trkpt><trkpt lat="41.649484151372086" lon="-0.864587845964881"><ele>199.0</ele><time>2026-05-04T09:37:01Z</time></trkpt><trkpt lat="41.64956722042834" lon="-0.8644880898176744"><ele>199.0</ele><time>2026-05-04T09:37:02Z</time></trkpt><trkpt lat="41.6496538795126" lon="-0.864393372666239"><ele>199.0</ele><time>2026-05-04T09:37:03Z</time></trkpt><trkpt lat="41.64974043749713" lon="-0.8643043885365527"><ele>199.0</ele><time>2026-05-04T09:37:04Z</time></trkpt><trkpt lat="41.64983277043774" lon="-0.8642231935281739"><ele>199.0</ele><time>2026-05-04T09:37:05Z</time></trkpt><trkpt lat="41.64992796705043" lon="-0.8641477703462631"><ele>199.0</ele><time>2026-05-04T09:37:06Z</time></trkpt><trkpt lat="41.65002050233665" lon="-0.8640745892103032"><ele>199.0</ele><time>2026-05-04T09:37:07Z</time></trkpt><trkpt lat="41.65011699024776" lon="-0.8640076851909605"><ele>199.0</ele><time>2026-05-04T09:37:08Z</time></trkpt><trkpt lat="41.65021492182867" lon="-0.8639512172274156"><ele>199.0</ele><time>2026-05-04T09:37:09Z</time></trkpt><trkpt lat="41.65030912012618" lon="-0.8638886853992752"><ele>199.0</ele><time>2026-05-04T09:37:10Z</time></trkpt><trkpt lat="41.65040488193655" lon="-0.8638188718453197"><ele>199.0</ele><time>2026-05-04T09:37:11Z</time></trkpt><trkpt lat="41.650501728580004" lon="-0.8637502506671425"><ele>198.79999999999998</ele><time>2026-05-04T09:37:12Z</time></trkpt><trkpt lat="41.6505986068587" lon="-0.863684001692662"><ele>198.6</ele><time>2026-05-04T09:37:13Z</time></trkpt><trkpt lat="41.6506964419202" lon="-0.8636182164155347"><ele>198.4</ele><time>2026-05-04T09:37:14Z</time></trkpt><trkpt lat="41.65079287664458" lon="-0.8635514899331701"><ele>198.2</ele><time>2026-05-04T09:37:15Z</time></trkpt><trkpt lat="41.65088770662933" lon="-0.8634847939817215"><ele>198.0</ele><time>2026-05-04T09:37:16Z</time></trkpt><trkpt lat="41.65098508297976" lon="-0.8634185878845496"><ele>197.8</ele><time>2026-05-04T09:37:17Z</time></trkpt><trkpt lat="41.65108005922576" lon="-0.8633524041978399"><ele>197.60000000000002</ele><time>2026-05-04T09:37:18.001Z</time></trkpt><trkpt lat="41.651175679358346" lon="-0.8632862268195804"><ele>197.39999999999998</ele><time>2026-05-04T09:37:19.001Z</time></trkpt><trkpt lat="41.65127315562039" lon="-0.8632198172699221"><ele>197.2</ele><time>2026-05-04T09:37:20.001Z</time></trkpt><trkpt lat="41.65137060037174" lon="-0.8631595758631662"><ele>197.0</ele><time>2026-05-04T09:37:21.001Z</time></trkpt><trkpt lat="41.651463947980346" lon="-0.8630987005654331"><ele>197.0</ele><time>2026-05-04T09:37:22.001Z</time></trkpt><trkpt lat="41.65155942478954" lon="-0.8630374551710251"><ele>197.0</ele><time>2026-05-04T09:37:23.001Z</time></trkpt><trkpt lat="41.651653820990575" lon="-0.8629737113736072"><ele>197.0</ele><time>2026-05-04T09:37:24.001Z</time></trkpt><trkpt lat="41.65174668831426" lon="-0.862909603753753"><ele>197.0</ele><time>2026-05-04T09:37:25.001Z</time></trkpt><trkpt lat="41.651841918271785" lon="-0.862846669991903"><ele>197.0</ele><time>2026-05-04T09:37:26.001Z</time></trkpt><trkpt lat="41.651937330581106" lon="-0.8627845553164999"><ele>195.6</ele><time>2026-05-04T09:37:27.001Z</time></trkpt><trkpt lat="41.65203317854298" lon="-0.8627232268852628"><ele>194.2</ele><time>2026-05-04T09:37:28.001Z</time></trkpt><trkpt lat="41.65212689751089" lon="-0.862658289466587"><ele>192.8</ele><time>2026-05-04T09:37:29.001Z</time></trkpt><trkpt lat="41.65222225673634" lon="-0.8625930411227757"><ele>191.4</ele><time>2026-05-04T09:37:30.001Z</time></trkpt><trkpt lat="41.65232013638735" lon="-0.8625280369438845"><ele>190.0</ele><time>2026-05-04T09:37:31.001Z</time></trkpt><trkpt lat="41.652417823115876" lon="-0.8624606072814025"><ele>190.0</ele><time>2026-05-04T09:37:32.001Z</time></trkpt><trkpt lat="41.65251430225062" lon="-0.8623970971489756"><ele>190.0</ele><time>2026-05-04T09:37:33.001Z</time></trkpt><trkpt lat="41.65261099791666" lon="-0.8623322430071745"><ele>190.0</ele><time>2026-05-04T09:37:34.001Z</time></trkpt><trkpt lat="41.65270857974408" lon="-0.8622640178125278"><ele>190.0</ele><time>2026-05-04T09:37:35.001Z</time></trkpt><trkpt lat="41.652805142648425" lon="-0.8621970877032027"><ele>190.0</ele><time>2026-05-04T09:37:36.001Z</time></trkpt><trkpt lat="41.65290416691444" lon="-0.8621301126037524"><ele>190.2</ele><time>2026-05-04T09:37:37.001Z</time></trkpt><trkpt lat="41.65300200807307" lon="-0.8620607337848555"><ele>190.4</ele><time>2026-05-04T09:37:38.001Z</time></trkpt><trkpt lat="41.65310057020234" lon="-0.861994317215015"><ele>190.60000000000002</ele><time>2026-05-04T09:37:39.001Z</time></trkpt><trkpt lat="41.6531990687132" lon="-0.8619317142762226"><ele>190.8</ele><time>2026-05-04T09:37:40.001Z</time></trkpt><trkpt lat="41.653295917129064" lon="-0.8618673123787398"><ele>191.0</ele><time>2026-05-04T09:37:41.001Z</time></trkpt><trkpt lat="41.65339256031181" lon="-0.8618014818436427"><ele>190.4</ele><time>2026-05-04T09:37:42.001Z</time></trkpt><trkpt lat="41.653488057489824" lon="-0.8617401067456874"><ele>189.8</ele><time>2026-05-04T09:37:43.001Z</time></trkpt><trkpt lat="41.65357751421532" lon="-0.8616902872453314"><ele>189.20000000000002</ele><time>2026-05-04T09:37:44.001Z</time></trkpt><trkpt lat="41.653659157162025" lon="-0.8616396488840685"><ele>188.60000000000002</ele><time>2026-05-04T09:37:45.001Z</time></trkpt><trkpt lat="41.65373564563849" lon="-0.861587871858089"><ele>188.0</ele><time>2026-05-04T09:37:46.001Z</time></trkpt><trkpt lat="41.65380883072747" lon="-0.8615389390219012"><ele>189.16666666666666</ele><time>2026-05-04T09:37:47.001Z</time></trkpt><trkpt lat="41.65387766541603" lon="-0.8614920510626817"><ele>190.33333333333331</ele><time>2026-05-04T09:37:48.001Z</time></trkpt><trkpt lat="41.65394355306822" lon="-0.8614456711212108"><ele>191.5</ele><time>2026-05-04T09:37:49.001Z</time></trkpt><trkpt lat="41.654007492662245" lon="-0.8614028692163858"><ele>192.66666666666666</ele><time>2026-05-04T09:37:50.001Z</time></trkpt><trkpt lat="41.65406833964708" lon="-0.861360813096161"><ele>193.83333333333334</ele><time>2026-05-04T09:37:51.001Z</time></trkpt><trkpt lat="41.65417182294071" lon="-0.8612923030019232"><ele>195.0</ele><time>2026-05-04T09:37:53.001Z</time></trkpt><trkpt lat="41.65424622583226" lon="-0.8612442236227139"><ele>195.0</ele><time>2026-05-04T09:37:55.001Z</time></trkpt><trkpt lat="41.65433304067076" lon="-0.8611830160023668"><ele>195.0</ele><time>2026-05-04T09:37:59.001Z</time></trkpt><trkpt lat="41.654433835769716" lon="-0.8611112996781092"><ele>195.0</ele><time>2026-05-04T09:38:01.001Z</time></trkpt><trkpt lat="41.65449822994274" lon="-0.8610686814446336"><ele>195.0</ele><time>2026-05-04T09:38:02.001Z</time></trkpt><trkpt lat="41.6545689112845" lon="-0.8610239202144918"><ele>195.0</ele><time>2026-05-04T09:38:03.002Z</time></trkpt><trkpt lat="41.654646344909835" lon="-0.8609726796751619"><ele>195.0</ele><time>2026-05-04T09:38:04.002Z</time></trkpt><trkpt lat="41.65473010761606" lon="-0.8609154733976075"><ele>195.4</ele><time>2026-05-04T09:38:05.002Z</time></trkpt><trkpt lat="41.654818453320274" lon="-0.8608606931137311"><ele>195.8</ele><time>2026-05-04T09:38:06.002Z</time></trkpt><trkpt lat="41.65491149407957" lon="-0.8608014618932829"><ele>196.2</ele><time>2026-05-04T09:38:07.002Z</time></trkpt><trkpt lat="41.65500646324018" lon="-0.8607413329375984"><ele>196.6</ele><time>2026-05-04T09:38:08.002Z</time></trkpt><trkpt lat="41.65510489893301" lon="-0.8606756482333646"><ele>197.0</ele><time>2026-05-04T09:38:09.002Z</time></trkpt><trkpt lat="41.65520660592218" lon="-0.8606054763940129"><ele>197.0</ele><time>2026-05-04T09:38:10.002Z</time></trkpt><trkpt lat="41.65531991118661" lon="-0.8605111622277274"><ele>197.0</ele><time>2026-05-04T09:38:11.002Z</time></trkpt><trkpt lat="41.65547261994948" lon="-0.8604380268188442"><ele>197.0</ele><time>2026-05-04T09:38:12.002Z</time></trkpt><trkpt lat="41.65562793682902" lon="-0.8603669448353286"><ele>197.0</ele><time>2026-05-04T09:38:14.002Z</time></trkpt><trkpt lat="41.65574036573627" lon="-0.8603188778735088"><ele>197.0</ele><time>2026-05-04T09:38:15.002Z</time></trkpt><trkpt lat="41.655852912678434" lon="-0.8602809182504485"><ele>197.0</ele><time>2026-05-04T09:38:16.002Z</time></trkpt><trkpt lat="41.65596557408387" lon="-0.8602468036185935"><ele>197.0</ele><time>2026-05-04T09:38:17.002Z</time></trkpt><trkpt lat="41.65608492493587" lon="-0.8602213536098521"><ele>196.25</ele><time>2026-05-04T09:38:18.002Z</time></trkpt><trkpt lat="41.65620011003149" lon="-0.8602083573641983"><ele>195.5</ele><time>2026-05-04T09:38:19.002Z</time></trkpt><trkpt lat="41.656319171400696" lon="-0.8602008113511929"><ele>194.75</ele><time>2026-05-04T09:38:20.002Z</time></trkpt><trkpt lat="41.656436286842066" lon="-0.8602064101833363"><ele>194.0</ele><time>2026-05-04T09:38:21.002Z</time></trkpt><trkpt lat="41.6565548830522" lon="-0.8602152385383101"><ele>194.0</ele><time>2026-05-04T09:38:22.002Z</time></trkpt><trkpt lat="41.65667091647303" lon="-0.8602328812594046"><ele>194.0</ele><time>2026-05-04T09:38:23.002Z</time></trkpt><trkpt lat="41.65679077519752" lon="-0.8602637962605147"><ele>194.0</ele><time>2026-05-04T09:38:24.002Z</time></trkpt><trkpt lat="41.65689966693991" lon="-0.8602934832340421"><ele>194.0</ele><time>2026-05-04T09:38:25.002Z</time></trkpt><trkpt lat="41.657012366794326" lon="-0.8603256870039554"><ele>193.75</ele><time>2026-05-04T09:38:26.002Z</time></trkpt><trkpt lat="41.65712017091636" lon="-0.8603679337784604"><ele>193.5</ele><time>2026-05-04T09:38:27.002Z</time></trkpt><trkpt lat="41.65723082768268" lon="-0.8604207051803607"><ele>193.25</ele><time>2026-05-04T09:38:28.002Z</time></trkpt><trkpt lat="41.657333706277775" lon="-0.8604838841962783"><ele>193.0</ele><time>2026-05-04T09:38:29.002Z</time></trkpt><trkpt lat="41.65743698046727" lon="-0.860542868335041"><ele>193.0</ele><time>2026-05-04T09:38:30.002Z</time></trkpt><trkpt lat="41.657526662671536" lon="-0.8606217953402603"><ele>193.0</ele><time>2026-05-04T09:38:31.002Z</time></trkpt><trkpt lat="41.65760895127724" lon="-0.8606964767324891"><ele>193.0</ele><time>2026-05-04T09:38:32.002Z</time></trkpt><trkpt lat="41.65768539122453" lon="-0.8607691034357289"><ele>193.0</ele><time>2026-05-04T09:38:33.002Z</time></trkpt><trkpt lat="41.65775273237209" lon="-0.8608422326507429"><ele>193.0</ele><time>2026-05-04T09:38:34.002Z</time></trkpt><trkpt lat="41.65781731211938" lon="-0.8609068975587567"><ele>193.4</ele><time>2026-05-04T09:38:35.002Z</time></trkpt><trkpt lat="41.65790427741706" lon="-0.8610169114877186"><ele>193.8</ele><time>2026-05-04T09:38:37.002Z</time></trkpt><trkpt lat="41.65796128404755" lon="-0.8610814887216336"><ele>194.2</ele><time>2026-05-04T09:38:39.001Z</time></trkpt><trkpt lat="41.65800378731648" lon="-0.8611438389932311"><ele>194.6</ele><time>2026-05-04T09:39:06.001Z</time></trkpt><trkpt lat="41.65806603540834" lon="-0.8612164740096288"><ele>195.0</ele><time>2026-05-04T09:39:08.001Z</time></trkpt><trkpt lat="41.658161033167396" lon="-0.8613302501268659"><ele>195.0</ele><time>2026-05-04T09:39:10.001Z</time></trkpt><trkpt lat="41.65821812785937" lon="-0.8613989931731129"><ele>195.0</ele><time>2026-05-04T09:39:11.001Z</time></trkpt><trkpt lat="41.65827598569482" lon="-0.8614755705576451"><ele>195.0</ele><time>2026-05-04T09:39:12.001Z</time></trkpt><trkpt lat="41.65834449898081" lon="-0.8615538187351546"><ele>195.0</ele><time>2026-05-04T09:39:13.001Z</time></trkpt><trkpt lat="41.65841683816219" lon="-0.8616349623265082"><ele>195.0</ele><time>2026-05-04T09:39:14.001Z</time></trkpt><trkpt lat="41.6584858165091" lon="-0.8617185450282088"><ele>195.0</ele><time>2026-05-04T09:39:15.001Z</time></trkpt><trkpt lat="41.65856490886265" lon="-0.8618112808021506"><ele>195.2</ele><time>2026-05-04T09:39:16.001Z</time></trkpt><trkpt lat="41.658642609944266" lon="-0.861907578962428"><ele>195.4</ele><time>2026-05-04T09:39:17.001Z</time></trkpt><trkpt lat="41.65872075608351" lon="-0.8620009569870344"><ele>195.60000000000002</ele><time>2026-05-04T09:39:18.001Z</time></trkpt><trkpt lat="41.65880491995635" lon="-0.8621012845575812"><ele>195.8</ele><time>2026-05-04T09:39:19.001Z</time></trkpt><trkpt lat="41.658888135031745" lon="-0.8622020420576537"><ele>196.0</ele><time>2026-05-04T09:39:20.001Z</time></trkpt><trkpt lat="41.658966932695485" lon="-0.862301986582882"><ele>196.0</ele><time>2026-05-04T09:39:21.001Z</time></trkpt><trkpt lat="41.65905021346559" lon="-0.8624009063967891"><ele>196.0</ele><time>2026-05-04T09:39:22.001Z</time></trkpt><trkpt lat="41.659138413535885" lon="-0.8624972657791968"><ele>196.0</ele><time>2026-05-04T09:39:23.001Z</time></trkpt><trkpt lat="41.65921911914956" lon="-0.8625891458514429"><ele>196.0</ele><time>2026-05-04T09:39:24.001Z</time></trkpt><trkpt lat="41.65930644170624" lon="-0.86269363698123"><ele>196.0</ele><time>2026-05-04T09:39:25.001Z</time></trkpt><trkpt lat="41.6593980500458" lon="-0.8627802386501524"><ele>197.0</ele><time>2026-05-04T09:39:26.001Z</time></trkpt><trkpt lat="41.65948823015854" lon="-0.8628667898690057"><ele>198.0</ele><time>2026-05-04T09:39:27.001Z</time></trkpt><trkpt lat="41.65957674776152" lon="-0.8629581167689591"><ele>199.0</ele><time>2026-05-04T09:39:28.001Z</time></trkpt><trkpt lat="41.65966886644897" lon="-0.8630370387785454"><ele>200.0</ele><time>2026-05-04T09:39:29.001Z</time></trkpt><trkpt lat="41.659752886198305" lon="-0.863115054230255"><ele>201.0</ele><time>2026-05-04T09:39:30.001Z</time></trkpt><trkpt lat="41.65983269993122" lon="-0.8631785933196932"><ele>201.0</ele><time>2026-05-04T09:39:31.001Z</time></trkpt><trkpt lat="41.659909286811654" lon="-0.8632421016880291"><ele>201.0</ele><time>2026-05-04T09:39:32.001Z</time></trkpt><trkpt lat="41.659981312148574" lon="-0.8632988912053678"><ele>201.0</ele><time>2026-05-04T09:39:33.001Z</time></trkpt><trkpt lat="41.66010836485274" lon="-0.863391666542949"><ele>201.0</ele><time>2026-05-04T09:39:35.001Z</time></trkpt><trkpt lat="41.660191170068224" lon="-0.8634678583232044"><ele>201.0</ele><time>2026-05-04T09:39:37.001Z</time></trkpt><trkpt lat="41.660247899477866" lon="-0.8635215583804611"><ele>202.33333333333334</ele><time>2026-05-04T09:40:19.002Z</time></trkpt><trkpt lat="41.660333122613046" lon="-0.8635878814468988"><ele>203.66666666666669</ele><time>2026-05-04T09:40:21.002Z</time></trkpt><trkpt lat="41.66039054272951" lon="-0.8636237804493185"><ele>205.0</ele><time>2026-05-04T09:40:22.002Z</time></trkpt><trkpt lat="41.66044999377745" lon="-0.8636682023752382"><ele>206.33333333333334</ele><time>2026-05-04T09:40:23.002Z</time></trkpt><trkpt lat="41.66051224872724" lon="-0.8637148119524762"><ele>207.66666666666669</ele><time>2026-05-04T09:40:24.002Z</time></trkpt><trkpt lat="41.660584813249855" lon="-0.8637706060917337"><ele>209.0</ele><time>2026-05-04T09:40:25.002Z</time></trkpt><trkpt lat="41.66066393581349" lon="-0.8638337617857085"><ele>209.0</ele><time>2026-05-04T09:40:26.002Z</time></trkpt><trkpt lat="41.66074380807078" lon="-0.8638971152358839"><ele>209.0</ele><time>2026-05-04T09:40:27.002Z</time></trkpt><trkpt lat="41.66082541957968" lon="-0.8639633596118854"><ele>209.0</ele><time>2026-05-04T09:40:28.002Z</time></trkpt><trkpt lat="41.66091329878835" lon="-0.8640283299769708"><ele>209.0</ele><time>2026-05-04T09:40:29.002Z</time></trkpt><trkpt lat="41.66100359697022" lon="-0.8640968290582794"><ele>209.0</ele><time>2026-05-04T09:40:30.002Z</time></trkpt><trkpt lat="41.6610948970089" lon="-0.8641686764500407"><ele>209.0</ele><time>2026-05-04T09:40:31.002Z</time></trkpt><trkpt lat="41.66117799066405" lon="-0.8642376877223958"><ele>209.0</ele><time>2026-05-04T09:40:32.002Z</time></trkpt><trkpt lat="41.66125620624088" lon="-0.8643048623801399"><ele>209.0</ele><time>2026-05-04T09:40:33.002Z</time></trkpt><trkpt lat="41.661340201243476" lon="-0.8643751670091944"><ele>209.0</ele><time>2026-05-04T09:40:34.002Z</time></trkpt><trkpt lat="41.661421501890615" lon="-0.8644441740511004"><ele>209.0</ele><time>2026-05-04T09:40:35.002Z</time></trkpt><trkpt lat="41.66150132596449" lon="-0.8644997782108512"><ele>207.0</ele><time>2026-05-04T09:40:36.002Z</time></trkpt><trkpt lat="41.66155536102411" lon="-0.8645696879573102"><ele>205.0</ele><time>2026-05-04T09:40:37.002Z</time></trkpt><trkpt lat="41.66163375427469" lon="-0.8645929213012142"><ele>203.0</ele><time>2026-05-04T09:40:39.002Z</time></trkpt><trkpt lat="41.6617004143877" lon="-0.8646521541549025"><ele>201.0</ele><time>2026-05-04T09:40:46.001Z</time></trkpt><trkpt lat="41.66178192984798" lon="-0.8647139853150647"><ele>199.0</ele><time>2026-05-04T09:40:48.001Z</time></trkpt><trkpt lat="41.66189528718602" lon="-0.8647949571517856"><ele>198.66666666666666</ele><time>2026-05-04T09:40:50.001Z</time></trkpt><trkpt lat="41.6619597363856" lon="-0.8648357393730589"><ele>198.33333333333331</ele><time>2026-05-04T09:40:51.001Z</time></trkpt><trkpt lat="41.662051162451725" lon="-0.864797613037353"><ele>198.0</ele><time>2026-05-04T09:40:52.001Z</time></trkpt><trkpt lat="41.66212160772937" lon="-0.864769291200138"><ele>197.66666666666669</ele><time>2026-05-04T09:40:53.001Z</time></trkpt><trkpt lat="41.66218054858072" lon="-0.8647359570625331"><ele>197.33333333333334</ele><time>2026-05-04T09:40:54.001Z</time></trkpt><trkpt lat="41.66226772186414" lon="-0.864726756808419"><ele>197.0</ele><time>2026-05-04T09:40:56.001Z</time></trkpt><trkpt lat="41.66231963201222" lon="-0.8645568497632109"><ele>197.00000000000003</ele><time>2026-05-04T09:41:09.001Z</time></trkpt><trkpt lat="41.66237409137825" lon="-0.8644453180277306"><ele>197.0</ele><time>2026-05-04T09:41:11.001Z</time></trkpt><trkpt lat="41.662435358906706" lon="-0.864393542973092"><ele>197.0</ele><time>2026-05-04T09:41:13.001Z</time></trkpt><trkpt lat="41.6624518431096" lon="-0.8642705075288216"><ele>197.0</ele><time>2026-05-04T09:41:15.001Z</time></trkpt><trkpt lat="41.662484596076716" lon="-0.8641870137581849"><ele>197.00000000000003</ele><time>2026-05-04T09:41:18.001Z</time></trkpt><trkpt lat="41.662515002176576" lon="-0.8641114171835595"><ele>197.0</ele><time>2026-05-04T09:41:22.001Z</time></trkpt><trkpt lat="41.6625544854635" lon="-0.8640145046397562"><ele>197.83333333333334</ele><time>2026-05-04T09:41:28.001Z</time></trkpt><trkpt lat="41.66259027291655" lon="-0.8638709317019758"><ele>198.66666666666669</ele><time>2026-05-04T09:41:30.001Z</time></trkpt><trkpt lat="41.66261811770488" lon="-0.8637871030648416"><ele>199.5</ele><time>2026-05-04T09:41:31.001Z</time></trkpt><trkpt lat="41.662647490938745" lon="-0.8636945367970736"><ele>200.33333333333331</ele><time>2026-05-04T09:41:32.001Z</time></trkpt><trkpt lat="41.66270697947067" lon="-0.8636079761520368"><ele>201.16666666666666</ele><time>2026-05-04T09:41:33.001Z</time></trkpt><trkpt lat="41.66275046848177" lon="-0.8635040311214287"><ele>202.0</ele><time>2026-05-04T09:41:34.001Z</time></trkpt><trkpt lat="41.66277999299904" lon="-0.8633862201969026"><ele>201.6</ele><time>2026-05-04T09:41:35.001Z</time></trkpt><trkpt lat="41.66283840677503" lon="-0.8632830057543318"><ele>201.2</ele><time>2026-05-04T09:41:36.001Z</time></trkpt><trkpt lat="41.6628740982544" lon="-0.8631581042737585"><ele>200.8</ele><time>2026-05-04T09:41:37.001Z</time></trkpt><trkpt lat="41.662919907034585" lon="-0.8630342254771718"><ele>200.4</ele><time>2026-05-04T09:41:38.001Z</time></trkpt><trkpt lat="41.662964060856226" lon="-0.8629070883705379"><ele>200.0</ele><time>2026-05-04T09:41:39.001Z</time></trkpt><trkpt lat="41.66301031387023" lon="-0.8627890302661116"><ele>200.0</ele><time>2026-05-04T09:41:40.001Z</time></trkpt><trkpt lat="41.663054505969804" lon="-0.8626703739271598"><ele>200.0</ele><time>2026-05-04T09:41:41.001Z</time></trkpt><trkpt lat="41.66309911702789" lon="-0.8625573264885545"><ele>200.0</ele><time>2026-05-04T09:41:42.001Z</time></trkpt><trkpt lat="41.6631428352703" lon="-0.8624472810731902"><ele>200.0</ele><time>2026-05-04T09:41:43.001Z</time></trkpt><trkpt lat="41.66318676113826" lon="-0.8623415240151057"><ele>200.0</ele><time>2026-05-04T09:41:44.001Z</time></trkpt><trkpt lat="41.66322738437639" lon="-0.8622425230449451"><ele>200.33333333333334</ele><time>2026-05-04T09:41:45.001Z</time></trkpt><trkpt lat="41.66326716819576" lon="-0.8621490559701097"><ele>200.66666666666669</ele><time>2026-05-04T09:41:46.001Z</time></trkpt><trkpt lat="41.66330285185246" lon="-0.8620614096385003"><ele>201.0</ele><time>2026-05-04T09:41:47.001Z</time></trkpt><trkpt lat="41.66333658539505" lon="-0.861981271473584"><ele>201.33333333333331</ele><time>2026-05-04T09:41:48.001Z</time></trkpt><trkpt lat="41.66339258746178" lon="-0.8618458655747708"><ele>201.66666666666666</ele><time>2026-05-04T09:41:50.001Z</time></trkpt><trkpt lat="41.66343134897721" lon="-0.8617433466021345"><ele>202.0</ele><time>2026-05-04T09:41:52.001Z</time></trkpt><trkpt lat="41.66347046126993" lon="-0.8616475255308783"><ele>202.49999999999997</ele><time>2026-05-04T09:41:54.002Z</time></trkpt><trkpt lat="41.663509550648655" lon="-0.8615620053953766"><ele>203.0</ele><time>2026-05-04T09:41:56.002Z</time></trkpt><trkpt lat="41.663563628105024" lon="-0.8614577465837532"><ele>203.5</ele><time>2026-05-04T09:42:14.002Z</time></trkpt><trkpt lat="41.66361460628903" lon="-0.8613342487573566"><ele>204.0</ele><time>2026-05-04T09:42:16.002Z</time></trkpt><trkpt lat="41.663651471622046" lon="-0.8612601498155449"><ele>204.49999999999997</ele><time>2026-05-04T09:42:17.002Z</time></trkpt><trkpt lat="41.66368863969827" lon="-0.8611755705365028"><ele>205.0</ele><time>2026-05-04T09:42:18.002Z</time></trkpt><trkpt lat="41.663728504367576" lon="-0.8610811779327879"><ele>203.6</ele><time>2026-05-04T09:42:19.002Z</time></trkpt><trkpt lat="41.66377155848034" lon="-0.8609828887004873"><ele>202.2</ele><time>2026-05-04T09:42:20.002Z</time></trkpt><trkpt lat="41.663814459316576" lon="-0.8608838049179459"><ele>200.8</ele><time>2026-05-04T09:42:21.002Z</time></trkpt><trkpt lat="41.66385737216778" lon="-0.8607725633624779"><ele>199.4</ele><time>2026-05-04T09:42:22.002Z</time></trkpt><trkpt lat="41.66390033254999" lon="-0.8606563387202316"><ele>198.0</ele><time>2026-05-04T09:42:23.002Z</time></trkpt><trkpt lat="41.66394624991593" lon="-0.8605411258967836"><ele>198.0</ele><time>2026-05-04T09:42:24.002Z</time></trkpt><trkpt lat="41.66399728063639" lon="-0.8604190437480209"><ele>198.0</ele><time>2026-05-04T09:42:25.002Z</time></trkpt><trkpt lat="41.664050183987754" lon="-0.8602986050823366"><ele>198.0</ele><time>2026-05-04T09:42:26.002Z</time></trkpt><trkpt lat="41.66409641743989" lon="-0.8601722183211061"><ele>198.0</ele><time>2026-05-04T09:42:27.002Z</time></trkpt><trkpt lat="41.66415458046203" lon="-0.860050668304574"><ele>198.0</ele><time>2026-05-04T09:42:28.002Z</time></trkpt><trkpt lat="41.66420495008843" lon="-0.8599235417849926"><ele>198.60000000000002</ele><time>2026-05-04T09:42:29.002Z</time></trkpt><trkpt lat="41.66425561585402" lon="-0.8598044191911444"><ele>199.20000000000002</ele><time>2026-05-04T09:42:30.002Z</time></trkpt><trkpt lat="41.66430475011446" lon="-0.8596869254477184"><ele>199.8</ele><time>2026-05-04T09:42:31.002Z</time></trkpt><trkpt lat="41.66435030005512" lon="-0.8595690034240205"><ele>200.4</ele><time>2026-05-04T09:42:32.002Z</time></trkpt><trkpt lat="41.66440512330368" lon="-0.8594531286396788"><ele>201.0</ele><time>2026-05-04T09:42:33.002Z</time></trkpt><trkpt lat="41.66445344879384" lon="-0.8593412650919656"><ele>200.20000000000002</ele><time>2026-05-04T09:42:34.002Z</time></trkpt><trkpt lat="41.66450204544521" lon="-0.8592321509153701"><ele>199.4</ele><time>2026-05-04T09:42:35.002Z</time></trkpt><trkpt lat="41.664541196714545" lon="-0.859120776445875"><ele>198.6</ele><time>2026-05-04T09:42:36.002Z</time></trkpt><trkpt lat="41.66458701940168" lon="-0.8590108192872499"><ele>197.8</ele><time>2026-05-04T09:42:37.002Z</time></trkpt><trkpt lat="41.664618764794476" lon="-0.8588966674234845"><ele>197.0</ele><time>2026-05-04T09:42:38.002Z</time></trkpt><trkpt lat="41.66463679730817" lon="-0.8587793392922531"><ele>197.00000000000003</ele><time>2026-05-04T09:42:39.002Z</time></trkpt><trkpt lat="41.6646374987597" lon="-0.8586585287633935"><ele>197.0</ele><time>2026-05-04T09:42:40.002Z</time></trkpt><trkpt lat="41.66463179160616" lon="-0.8585383128403775"><ele>197.0</ele><time>2026-05-04T09:42:41.002Z</time></trkpt><trkpt lat="41.66462276188404" lon="-0.8584183979291848"><ele>197.0</ele><time>2026-05-04T09:42:42.002Z</time></trkpt><trkpt lat="41.664616439504805" lon="-0.8583058890752658"><ele>197.00000000000003</ele><time>2026-05-04T09:42:43.002Z</time></trkpt><trkpt lat="41.66460908555718" lon="-0.858200931197475"><ele>197.0</ele><time>2026-05-04T09:42:44.002Z</time></trkpt><trkpt lat="41.664609487737614" lon="-0.8580973617572617"><ele>197.16666666666669</ele><time>2026-05-04T09:42:45.002Z</time></trkpt><trkpt lat="41.66461727826427" lon="-0.8580016368839812"><ele>197.33333333333334</ele><time>2026-05-04T09:42:46.002Z</time></trkpt><trkpt lat="41.66463199148218" lon="-0.8579067386060909"><ele>197.5</ele><time>2026-05-04T09:42:47.002Z</time></trkpt><trkpt lat="41.66466441726708" lon="-0.8578151521692573"><ele>197.66666666666669</ele><time>2026-05-04T09:42:48.002Z</time></trkpt><trkpt lat="41.66470908805468" lon="-0.8577255681020718"><ele>197.83333333333334</ele><time>2026-05-04T09:42:49.002Z</time></trkpt><trkpt lat="41.66476079293061" lon="-0.8576385113079159"><ele>198.0</ele><time>2026-05-04T09:42:50.001Z</time></trkpt><trkpt lat="41.6648262138309" lon="-0.8575598477384335"><ele>198.0</ele><time>2026-05-04T09:42:51.001Z</time></trkpt><trkpt lat="41.664903824473186" lon="-0.857495668131874"><ele>198.0</ele><time>2026-05-04T09:42:52.001Z</time></trkpt><trkpt lat="41.6649893459254" lon="-0.8574418578691381"><ele>198.0</ele><time>2026-05-04T09:42:53.001Z</time></trkpt><trkpt lat="41.66507815715973" lon="-0.8573915913942844"><ele>198.0</ele><time>2026-05-04T09:42:54.001Z</time></trkpt><trkpt lat="41.66516884082068" lon="-0.8573344350538902"><ele>198.0</ele><time>2026-05-04T09:42:55.001Z</time></trkpt><trkpt lat="41.66525552477797" lon="-0.8572604927604591"><ele>198.4</ele><time>2026-05-04T09:42:56.001Z</time></trkpt><trkpt lat="41.66533256805354" lon="-0.8571719064404615"><ele>198.8</ele><time>2026-05-04T09:42:57.001Z</time></trkpt><trkpt lat="41.665397015782744" lon="-0.8570598458181435"><ele>199.2</ele><time>2026-05-04T09:42:58.001Z</time></trkpt><trkpt lat="41.665446326436395" lon="-0.8569372971531293"><ele>199.6</ele><time>2026-05-04T09:42:59.001Z</time></trkpt><trkpt lat="41.66549632349818" lon="-0.8568128109820715"><ele>200.0</ele><time>2026-05-04T09:43:00.001Z</time></trkpt><trkpt lat="41.66554552970346" lon="-0.8566876590896969"><ele>200.0</ele><time>2026-05-04T09:43:01.001Z</time></trkpt><trkpt lat="41.66559698077994" lon="-0.8565622884983423"><ele>200.0</ele><time>2026-05-04T09:43:02.001Z</time></trkpt><trkpt lat="41.66565063631159" lon="-0.8564373850836311"><ele>200.0</ele><time>2026-05-04T09:43:03.001Z</time></trkpt><trkpt lat="41.66570477333698" lon="-0.8563110898675281"><ele>200.0</ele><time>2026-05-04T09:43:04.001Z</time></trkpt><trkpt lat="41.665759838672216" lon="-0.8561823911914028"><ele>200.0</ele><time>2026-05-04T09:43:05.001Z</time></trkpt><trkpt lat="41.6658176217543" lon="-0.8560572289323147"><ele>200.0</ele><time>2026-05-04T09:43:06.001Z</time></trkpt><trkpt lat="41.665867430752826" lon="-0.8559209782784133"><ele>200.0</ele><time>2026-05-04T09:43:07.001Z</time></trkpt><trkpt lat="41.665924576059204" lon="-0.8557993806765667"><ele>200.0</ele><time>2026-05-04T09:43:08.001Z</time></trkpt><trkpt lat="41.665973206834586" lon="-0.8556674574091548"><ele>200.0</ele><time>2026-05-04T09:43:09.001Z</time></trkpt><trkpt lat="41.66602928085575" lon="-0.8555440090135129"><ele>200.0</ele><time>2026-05-04T09:43:10.001Z</time></trkpt><trkpt lat="41.666084236503494" lon="-0.8554170398060823"><ele>199.33333333333334</ele><time>2026-05-04T09:43:11.001Z</time></trkpt><trkpt lat="41.66612614131804" lon="-0.855289163362713"><ele>198.66666666666669</ele><time>2026-05-04T09:43:12.001Z</time></trkpt><trkpt lat="41.66616785916931" lon="-0.8551724727140304"><ele>198.0</ele><time>2026-05-04T09:43:13.001Z</time></trkpt><trkpt lat="41.666210865971316" lon="-0.8550666751642214"><ele>197.33333333333331</ele><time>2026-05-04T09:43:14.001Z</time></trkpt><trkpt lat="41.66625576056581" lon="-0.8549775607337156"><ele>196.66666666666666</ele><time>2026-05-04T09:43:15.001Z</time></trkpt><trkpt lat="41.66628987357288" lon="-0.8549016629030273"><ele>196.0</ele><time>2026-05-04T09:43:16.001Z</time></trkpt><trkpt lat="41.66633924823917" lon="-0.8547938435462767"><ele>195.99999999999997</ele><time>2026-05-04T09:43:18.001Z</time></trkpt><trkpt lat="41.66638138222657" lon="-0.8547282244396784"><ele>196.0</ele><time>2026-05-04T09:43:23.001Z</time></trkpt><trkpt lat="41.666432742102096" lon="-0.8546566352140093"><ele>196.0</ele><time>2026-05-04T09:43:56.001Z</time></trkpt><trkpt lat="41.66648359932675" lon="-0.8545344402161226"><ele>196.0</ele><time>2026-05-04T09:43:58.001Z</time></trkpt><trkpt lat="41.66651562713946" lon="-0.8544557110507113"><ele>195.99999999999997</ele><time>2026-05-04T09:43:59.001Z</time></trkpt><trkpt lat="41.66655239441272" lon="-0.8543718857139618"><ele>196.0</ele><time>2026-05-04T09:44:00.001Z</time></trkpt><trkpt lat="41.66659182034626" lon="-0.8542808941843639"><ele>196.16666666666666</ele><time>2026-05-04T09:44:01.001Z</time></trkpt><trkpt lat="41.66663114712236" lon="-0.8541842223007141"><ele>196.33333333333331</ele><time>2026-05-04T09:44:02.001Z</time></trkpt><trkpt lat="41.66667312890075" lon="-0.8540843176469012"><ele>196.5</ele><time>2026-05-04T09:44:03.001Z</time></trkpt><trkpt lat="41.66671588207776" lon="-0.8539781911864978"><ele>196.66666666666669</ele><time>2026-05-04T09:44:04.001Z</time></trkpt><trkpt lat="41.666762211897314" lon="-0.8538680836324718"><ele>196.83333333333334</ele><time>2026-05-04T09:44:05.001Z</time></trkpt><trkpt lat="41.66680763269015" lon="-0.8537535307804716"><ele>197.0</ele><time>2026-05-04T09:44:06.001Z</time></trkpt><trkpt lat="41.66685611985196" lon="-0.8536461211857371"><ele>197.0</ele><time>2026-05-04T09:44:07.001Z</time></trkpt><trkpt lat="41.66690431637055" lon="-0.8535297347447605"><ele>197.0</ele><time>2026-05-04T09:44:08.001Z</time></trkpt><trkpt lat="41.666953887203356" lon="-0.8534141989558316"><ele>197.0</ele><time>2026-05-04T09:44:09.001Z</time></trkpt><trkpt lat="41.6670035285907" lon="-0.8533037724010292"><ele>197.0</ele><time>2026-05-04T09:44:10.001Z</time></trkpt><trkpt lat="41.66705457347181" lon="-0.8531780075156409"><ele>197.0</ele><time>2026-05-04T09:44:11.001Z</time></trkpt><trkpt lat="41.66710376841279" lon="-0.8530540914790733"><ele>197.0</ele><time>2026-05-04T09:44:12.001Z</time></trkpt><trkpt lat="41.66715518597355" lon="-0.8529416778421359"><ele>197.0</ele><time>2026-05-04T09:44:13.001Z</time></trkpt><trkpt lat="41.66720427757422" lon="-0.8528043087302385"><ele>197.0</ele><time>2026-05-04T09:44:14.001Z</time></trkpt><trkpt lat="41.66725413193182" lon="-0.8526875471406784"><ele>197.0</ele><time>2026-05-04T09:44:15.001Z</time></trkpt><trkpt lat="41.66730732302858" lon="-0.8525593331391181"><ele>197.0</ele><time>2026-05-04T09:44:16.001Z</time></trkpt><trkpt lat="41.66735800887223" lon="-0.8524436376693495"><ele>197.0</ele><time>2026-05-04T09:44:17.001Z</time></trkpt><trkpt lat="41.66740922497745" lon="-0.8523188692534668"><ele>197.0</ele><time>2026-05-04T09:44:18.002Z</time></trkpt><trkpt lat="41.66746987390217" lon="-0.8522029683974383"><ele>197.0</ele><time>2026-05-04T09:44:19.002Z</time></trkpt><trkpt lat="41.667511750675956" lon="-0.8520798358636891"><ele>197.0</ele><time>2026-05-04T09:44:20.002Z</time></trkpt><trkpt lat="41.667562114627856" lon="-0.8519424334959983"><ele>197.0</ele><time>2026-05-04T09:44:21.002Z</time></trkpt><trkpt lat="41.667618853050925" lon="-0.8518317410765495"><ele>197.0</ele><time>2026-05-04T09:44:22.002Z</time></trkpt><trkpt lat="41.66767650776204" lon="-0.851709540479546"><ele>197.0</ele><time>2026-05-04T09:44:23.002Z</time></trkpt><trkpt lat="41.66773541994157" lon="-0.8515888635818444"><ele>197.0</ele><time>2026-05-04T09:44:24.002Z</time></trkpt><trkpt lat="41.66778578136001" lon="-0.8514782508679081"><ele>197.0</ele><time>2026-05-04T09:44:25.002Z</time></trkpt><trkpt lat="41.66783963956072" lon="-0.8513522653618941"><ele>197.0</ele><time>2026-05-04T09:44:26.002Z</time></trkpt><trkpt lat="41.667891161287436" lon="-0.851230233529596"><ele>197.2</ele><time>2026-05-04T09:44:27.002Z</time></trkpt><trkpt lat="41.66794558133331" lon="-0.8511054321582227"><ele>197.39999999999998</ele><time>2026-05-04T09:44:28.002Z</time></trkpt><trkpt lat="41.66800185076569" lon="-0.8509801083038485"><ele>197.60000000000002</ele><time>2026-05-04T09:44:29.002Z</time></trkpt><trkpt lat="41.668054830060264" lon="-0.8508523144133204"><ele>197.8</ele><time>2026-05-04T09:44:30.002Z</time></trkpt><trkpt lat="41.668108620032726" lon="-0.8507182457822337"><ele>198.0</ele><time>2026-05-04T09:44:31.002Z</time></trkpt><trkpt lat="41.66816094682403" lon="-0.8505849740947399"><ele>198.0</ele><time>2026-05-04T09:44:32.002Z</time></trkpt><trkpt lat="41.668216103014544" lon="-0.8504702379689286"><ele>198.0</ele><time>2026-05-04T09:44:33.002Z</time></trkpt><trkpt lat="41.668259736752134" lon="-0.8503358918653426"><ele>198.0</ele><time>2026-05-04T09:44:34.002Z</time></trkpt><trkpt lat="41.668314719950814" lon="-0.8502057129484892"><ele>198.0</ele><time>2026-05-04T09:44:35.002Z</time></trkpt><trkpt lat="41.66837194816564" lon="-0.8500708198052193"><ele>198.0</ele><time>2026-05-04T09:44:36.002Z</time></trkpt><trkpt lat="41.66842855933823" lon="-0.8499378430561808"><ele>197.75</ele><time>2026-05-04T09:44:37.002Z</time></trkpt><trkpt lat="41.66848937451275" lon="-0.8497949905155916"><ele>197.5</ele><time>2026-05-04T09:44:38.002Z</time></trkpt><trkpt lat="41.66855979751852" lon="-0.8496253771415951"><ele>197.25</ele><time>2026-05-04T09:44:39.002Z</time></trkpt><trkpt lat="41.668634400351664" lon="-0.8494479891596184"><ele>197.0</ele><time>2026-05-04T09:44:40.002Z</time></trkpt><trkpt lat="41.66871399407875" lon="-0.8492587342115678"><ele>197.39999999999998</ele><time>2026-05-04T09:44:41.002Z</time></trkpt><trkpt lat="41.66876207065288" lon="-0.8491497544831941"><ele>197.79999999999998</ele><time>2026-05-04T09:44:43.002Z</time></trkpt><trkpt lat="41.668808363473524" lon="-0.8490123426127466"><ele>198.2</ele><time>2026-05-04T09:44:44.002Z</time></trkpt><trkpt lat="41.66886602160435" lon="-0.8488821770567"><ele>198.6</ele><time>2026-05-04T09:44:45.002Z</time></trkpt><trkpt lat="41.66892215367472" lon="-0.8487488844512432"><ele>199.0</ele><time>2026-05-04T09:44:46.002Z</time></trkpt><trkpt lat="41.668975924782494" lon="-0.8486152909331302"><ele>199.0</ele><time>2026-05-04T09:44:47.002Z</time></trkpt><trkpt lat="41.66903246933315" lon="-0.8484875454135433"><ele>199.0</ele><time>2026-05-04T09:44:48.002Z</time></trkpt><trkpt lat="41.669089284388214" lon="-0.8483553810835526"><ele>199.0</ele><time>2026-05-04T09:44:49.002Z</time></trkpt><trkpt lat="41.66914801135834" lon="-0.848226142028145"><ele>199.0</ele><time>2026-05-04T09:44:50.002Z</time></trkpt><trkpt lat="41.66919942531672" lon="-0.8480991576632085"><ele>199.0</ele><time>2026-05-04T09:44:51.002Z</time></trkpt><trkpt lat="41.66924989673093" lon="-0.8479872694491614"><ele>199.16666666666666</ele><time>2026-05-04T09:44:52.002Z</time></trkpt><trkpt lat="41.66929615189809" lon="-0.8478871211667908"><ele>199.33333333333331</ele><time>2026-05-04T09:44:53.002Z</time></trkpt><trkpt lat="41.669335473523816" lon="-0.847791708769113"><ele>199.5</ele><time>2026-05-04T09:44:54.002Z</time></trkpt><trkpt lat="41.66936863183968" lon="-0.8477196692150927"><ele>199.66666666666669</ele><time>2026-05-04T09:44:55.002Z</time></trkpt><trkpt lat="41.66940581701724" lon="-0.847633000885053"><ele>199.83333333333334</ele><time>2026-05-04T09:44:57.001Z</time></trkpt><trkpt lat="41.669442333651524" lon="-0.8475134678924467"><ele>200.0</ele><time>2026-05-04T09:45:31.001Z</time></trkpt><trkpt lat="41.6695039815133" lon="-0.8473730725248144"><ele>200.16666666666669</ele><time>2026-05-04T09:45:33.001Z</time></trkpt><trkpt lat="41.66954463375284" lon="-0.8472915642282058"><ele>200.33333333333334</ele><time>2026-05-04T09:45:34.001Z</time></trkpt><trkpt lat="41.669577749277565" lon="-0.8472047470321533"><ele>200.5</ele><time>2026-05-04T09:45:35.001Z</time></trkpt><trkpt lat="41.669617949253656" lon="-0.8471075583581141"><ele>200.66666666666669</ele><time>2026-05-04T09:45:36.001Z</time></trkpt><trkpt lat="41.669659978828435" lon="-0.84700074937763"><ele>200.83333333333334</ele><time>2026-05-04T09:45:37.001Z</time></trkpt><trkpt lat="41.669702630379525" lon="-0.8468966698134299"><ele>201.0</ele><time>2026-05-04T09:45:38.001Z</time></trkpt><trkpt lat="41.669748973123525" lon="-0.8467805680662612"><ele>201.60000000000002</ele><time>2026-05-04T09:45:39.001Z</time></trkpt><trkpt lat="41.669796513193454" lon="-0.8466712164012877"><ele>202.2</ele><time>2026-05-04T09:45:40.001Z</time></trkpt><trkpt lat="41.669847341243454" lon="-0.8465561828138716"><ele>202.8</ele><time>2026-05-04T09:45:41.001Z</time></trkpt><trkpt lat="41.66989662052713" lon="-0.8464411765054437"><ele>203.39999999999998</ele><time>2026-05-04T09:45:42.001Z</time></trkpt><trkpt lat="41.669948326986464" lon="-0.8463204456528592"><ele>204.0</ele><time>2026-05-04T09:45:43.001Z</time></trkpt><trkpt lat="41.66999984890551" lon="-0.8461961815350543"><ele>204.0</ele><time>2026-05-04T09:45:44.001Z</time></trkpt><trkpt lat="41.67005069588761" lon="-0.8460744853348966"><ele>204.0</ele><time>2026-05-04T09:45:45.001Z</time></trkpt><trkpt lat="41.67010091543678" lon="-0.8459490079947689"><ele>204.0</ele><time>2026-05-04T09:45:46.001Z</time></trkpt><trkpt lat="41.670153466303425" lon="-0.8458266607862186"><ele>204.0</ele><time>2026-05-04T09:45:47.001Z</time></trkpt><trkpt lat="41.670209957779576" lon="-0.8456990299094631"><ele>204.0</ele><time>2026-05-04T09:45:48.001Z</time></trkpt><trkpt lat="41.67026231237372" lon="-0.8455747126268413"><ele>204.2</ele><time>2026-05-04T09:45:49.001Z</time></trkpt><trkpt lat="41.67031473627384" lon="-0.8454528076598365"><ele>204.39999999999998</ele><time>2026-05-04T09:45:50.001Z</time></trkpt><trkpt lat="41.67036606009419" lon="-0.8453312137044429"><ele>204.6</ele><time>2026-05-04T09:45:51.001Z</time></trkpt><trkpt lat="41.670417408333144" lon="-0.8452131126121682"><ele>204.8</ele><time>2026-05-04T09:45:52.001Z</time></trkpt><trkpt lat="41.67046803302047" lon="-0.8450888419871738"><ele>205.0</ele><time>2026-05-04T09:45:53.001Z</time></trkpt><trkpt lat="41.67051954491111" lon="-0.84496900062582"><ele>204.6</ele><time>2026-05-04T09:45:54.001Z</time></trkpt><trkpt lat="41.67057284894347" lon="-0.8448418611638671"><ele>204.2</ele><time>2026-05-04T09:45:55.001Z</time></trkpt><trkpt lat="41.67062544495189" lon="-0.8447182580125872"><ele>203.8</ele><time>2026-05-04T09:45:56.001Z</time></trkpt><trkpt lat="41.67067560221227" lon="-0.8445927031623329"><ele>203.4</ele><time>2026-05-04T09:45:57.001Z</time></trkpt><trkpt lat="41.6707261924652" lon="-0.8444707675985756"><ele>203.0</ele><time>2026-05-04T09:45:58.001Z</time></trkpt><trkpt lat="41.67077493681794" lon="-0.8443446177829278"><ele>203.0</ele><time>2026-05-04T09:45:59.001Z</time></trkpt><trkpt lat="41.670821816475836" lon="-0.8442194929696432"><ele>203.0</ele><time>2026-05-04T09:46:00.001Z</time></trkpt><trkpt lat="41.6708667880843" lon="-0.8440928059689683"><ele>203.0</ele><time>2026-05-04T09:46:01.001Z</time></trkpt><trkpt lat="41.67091191881398" lon="-0.8439656131109425"><ele>203.0</ele><time>2026-05-04T09:46:02.001Z</time></trkpt><trkpt lat="41.670944240694325" lon="-0.843832392604423"><ele>203.0</ele><time>2026-05-04T09:46:03.001Z</time></trkpt><trkpt lat="41.67097085977316" lon="-0.8436948864825099"><ele>203.0</ele><time>2026-05-04T09:46:04.001Z</time></trkpt><trkpt lat="41.670984406998066" lon="-0.8435565065784371"><ele>203.0</ele><time>2026-05-04T09:46:05.001Z</time></trkpt><trkpt lat="41.67099257030993" lon="-0.8434177768388621"><ele>203.0</ele><time>2026-05-04T09:46:06.001Z</time></trkpt><trkpt lat="41.670986510304985" lon="-0.8432780024155185"><ele>203.0</ele><time>2026-05-04T09:46:07.001Z</time></trkpt><trkpt lat="41.67097638436985" lon="-0.8431344868617112"><ele>203.0</ele><time>2026-05-04T09:46:08.001Z</time></trkpt><trkpt lat="41.67096333037792" lon="-0.8429875845503823"><ele>203.0</ele><time>2026-05-04T09:46:09.001Z</time></trkpt><trkpt lat="41.6709506394652" lon="-0.8428451760387256"><ele>203.0</ele><time>2026-05-04T09:46:10.001Z</time></trkpt><trkpt lat="41.6709360838153" lon="-0.8426910747898295"><ele>203.0</ele><time>2026-05-04T09:46:11.001Z</time></trkpt><trkpt lat="41.67092453620284" lon="-0.8425359871164746"><ele>203.0</ele><time>2026-05-04T09:46:12.001Z</time></trkpt><trkpt lat="41.670911933624616" lon="-0.8424068003861477"><ele>203.0</ele><time>2026-05-04T09:46:13.001Z</time></trkpt><trkpt lat="41.67090294094069" lon="-0.8422425903627422"><ele>202.25</ele><time>2026-05-04T09:46:14.001Z</time></trkpt><trkpt lat="41.67088859675141" lon="-0.8421060343040665"><ele>201.5</ele><time>2026-05-04T09:46:15.001Z</time></trkpt><trkpt lat="41.67087899205216" lon="-0.8419331875827059"><ele>200.75</ele><time>2026-05-04T09:46:16.001Z</time></trkpt><trkpt lat="41.670852891569616" lon="-0.8417489038001054"><ele>200.0</ele><time>2026-05-04T09:46:17.001Z</time></trkpt><trkpt lat="41.67085199534855" lon="-0.8416431356430574"><ele>199.8</ele><time>2026-05-04T09:46:18.001Z</time></trkpt><trkpt lat="41.6708348025262" lon="-0.8414935514638372"><ele>199.6</ele><time>2026-05-04T09:46:19.001Z</time></trkpt><trkpt lat="41.670823996724444" lon="-0.8413445868624582"><ele>199.39999999999998</ele><time>2026-05-04T09:46:20.001Z</time></trkpt><trkpt lat="41.67080725478535" lon="-0.8411976275538682"><ele>199.2</ele><time>2026-05-04T09:46:21.001Z</time></trkpt><trkpt lat="41.670789922539655" lon="-0.8410491070588166"><ele>199.0</ele><time>2026-05-04T09:46:22.001Z</time></trkpt><trkpt lat="41.67076838791892" lon="-0.8409031091764686"><ele>199.0</ele><time>2026-05-04T09:46:23.001Z</time></trkpt><trkpt lat="41.67073872373116" lon="-0.840760913139805"><ele>199.0</ele><time>2026-05-04T09:46:24.001Z</time></trkpt><trkpt lat="41.67069692293334" lon="-0.8406214121567939"><ele>199.0</ele><time>2026-05-04T09:46:25.001Z</time></trkpt><trkpt lat="41.67063397493724" lon="-0.8404988901033152"><ele>199.0</ele><time>2026-05-04T09:46:26.001Z</time></trkpt><trkpt lat="41.67057734065129" lon="-0.8403689473977407"><ele>199.0</ele><time>2026-05-04T09:46:27.001Z</time></trkpt><trkpt lat="41.67051049830931" lon="-0.8402477293393686"><ele>199.0</ele><time>2026-05-04T09:46:28.001Z</time></trkpt><trkpt lat="41.670441769546585" lon="-0.8401426935898756"><ele>199.0</ele><time>2026-05-04T09:46:29.001Z</time></trkpt><trkpt lat="41.670376797264495" lon="-0.8400513541601289"><ele>199.0</ele><time>2026-05-04T09:46:30.001Z</time></trkpt><trkpt lat="41.67031499986304" lon="-0.8399563912065416"><ele>199.0</ele><time>2026-05-04T09:46:31.001Z</time></trkpt><trkpt lat="41.670258681105366" lon="-0.8398695458218471"><ele>199.0</ele><time>2026-05-04T09:46:32.001Z</time></trkpt><trkpt lat="41.67018131898756" lon="-0.8397585964334116"><ele>200.16666666666666</ele><time>2026-05-04T09:46:34.001Z</time></trkpt><trkpt lat="41.670124823101126" lon="-0.8396992519772877"><ele>201.33333333333331</ele><time>2026-05-04T09:46:35.001Z</time></trkpt><trkpt lat="41.67008264259495" lon="-0.8396160100444392"><ele>202.5</ele><time>2026-05-04T09:46:36.001Z</time></trkpt><trkpt lat="41.670034898743445" lon="-0.8395480887693707"><ele>203.66666666666669</ele><time>2026-05-04T09:46:37.001Z</time></trkpt><trkpt lat="41.6699877733251" lon="-0.8394880522773404"><ele>204.83333333333334</ele><time>2026-05-04T09:46:38.001Z</time></trkpt><trkpt lat="41.66992391628971" lon="-0.8394128121506192"><ele>206.0</ele><time>2026-05-04T09:46:40.001Z</time></trkpt><trkpt lat="41.66986822192418" lon="-0.839330218873662"><ele>206.00000000000003</ele><time>2026-05-04T09:46:43.001Z</time></trkpt><trkpt lat="41.669800284965305" lon="-0.8392417216236632"><ele>206.0</ele><time>2026-05-04T09:46:45.001Z</time></trkpt><trkpt lat="41.669715916332464" lon="-0.8391174412795908"><ele>206.0</ele><time>2026-05-04T09:46:47.001Z</time></trkpt><trkpt lat="41.669665753723606" lon="-0.8390472976095427"><ele>206.0</ele><time>2026-05-04T09:46:48.001Z</time></trkpt><trkpt lat="41.66961387926272" lon="-0.8389756679144048"><ele>206.00000000000003</ele><time>2026-05-04T09:46:49.001Z</time></trkpt><trkpt lat="41.66956010494256" lon="-0.8388931271107652"><ele>206.0</ele><time>2026-05-04T09:46:50.001Z</time></trkpt><trkpt lat="41.669506181683296" lon="-0.8388109285133483"><ele>206.00000000000003</ele><time>2026-05-04T09:46:51.001Z</time></trkpt><trkpt lat="41.669453700831085" lon="-0.8387321065792004"><ele>206.0</ele><time>2026-05-04T09:46:52.001Z</time></trkpt><trkpt lat="41.66939954504065" lon="-0.8386554133828072"><ele>206.0</ele><time>2026-05-04T09:46:53.001Z</time></trkpt><trkpt lat="41.66934118184968" lon="-0.8385750082901379"><ele>206.0</ele><time>2026-05-04T09:46:54.001Z</time></trkpt><trkpt lat="41.66928213309398" lon="-0.8384918607972953"><ele>206.00000000000003</ele><time>2026-05-04T09:46:55.002Z</time></trkpt><trkpt lat="41.669222808507236" lon="-0.8384025475152812"><ele>206.0</ele><time>2026-05-04T09:46:56.002Z</time></trkpt><trkpt lat="41.66916423421341" lon="-0.8383046168859567"><ele>206.0</ele><time>2026-05-04T09:46:57.002Z</time></trkpt><trkpt lat="41.6691018550442" lon="-0.83821000764014"><ele>206.0</ele><time>2026-05-04T09:46:58.002Z</time></trkpt><trkpt lat="41.669040286610745" lon="-0.8381142541584027"><ele>206.0</ele><time>2026-05-04T09:46:59.002Z</time></trkpt><trkpt lat="41.66897148928079" lon="-0.8380168189210754"><ele>206.0</ele><time>2026-05-04T09:47:00.002Z</time></trkpt><trkpt lat="41.668903404934085" lon="-0.8379226671714021"><ele>206.0</ele><time>2026-05-04T09:47:01.002Z</time></trkpt><trkpt lat="41.66883478726389" lon="-0.8378264871613281"><ele>206.0</ele><time>2026-05-04T09:47:02Z</time></trkpt><trkpt lat="41.66876848636387" lon="-0.8377271998001266"><ele>206.0</ele><time>2026-05-04T09:47:03Z</time></trkpt><trkpt lat="41.66870269946838" lon="-0.8376222715413136"><ele>206.0</ele><time>2026-05-04T09:47:04Z</time></trkpt><trkpt lat="41.66863703965043" lon="-0.8375270863096299"><ele>206.0</ele><time>2026-05-04T09:47:05Z</time></trkpt><trkpt lat="41.66857582511099" lon="-0.837437947012288"><ele>206.0</ele><time>2026-05-04T09:47:06Z</time></trkpt><trkpt lat="41.66852045150835" lon="-0.8373574107018577"><ele>206.0</ele><time>2026-05-04T09:47:07Z</time></trkpt><trkpt lat="41.668467806852256" lon="-0.8372867853806876"><ele>206.0</ele><time>2026-05-04T09:47:08Z</time></trkpt><trkpt lat="41.66837120147495" lon="-0.8372091663691665"><ele>206.0</ele><time>2026-05-04T09:47:10Z</time></trkpt><trkpt lat="41.66824075388352" lon="-0.8371829759518696"><ele>206.0</ele><time>2026-05-04T09:47:12Z</time></trkpt><trkpt lat="41.668168013438176" lon="-0.8371601328662095"><ele>206.0</ele><time>2026-05-04T09:47:13Z</time></trkpt><trkpt lat="41.66808989626099" lon="-0.8371327845661594"><ele>206.00000000000003</ele><time>2026-05-04T09:47:14Z</time></trkpt><trkpt lat="41.6680276411514" lon="-0.8370472524436724"><ele>206.0</ele><time>2026-05-04T09:47:15Z</time></trkpt><trkpt lat="41.667988994087565" lon="-0.8369404022457633"><ele>206.0</ele><time>2026-05-04T09:47:16Z</time></trkpt><trkpt lat="41.667997257813134" lon="-0.8368302282400744"><ele>206.0</ele><time>2026-05-04T09:47:17Z</time></trkpt><trkpt lat="41.66800438605064" lon="-0.836737874285638"><ele>206.00000000000003</ele><time>2026-05-04T09:47:18Z</time></trkpt><trkpt lat="41.6680018908581" lon="-0.8366396246088352"><ele>206.0</ele><time>2026-05-04T09:47:19Z</time></trkpt><trkpt lat="41.66793736890342" lon="-0.836496005720314"><ele>206.50000000000003</ele><time>2026-05-04T09:47:21Z</time></trkpt><trkpt lat="41.66788934568339" lon="-0.8364230500193905"><ele>207.0</ele><time>2026-05-04T09:47:22Z</time></trkpt><trkpt lat="41.66783696508816" lon="-0.8363477807434947"><ele>207.5</ele><time>2026-05-04T09:47:23Z</time></trkpt><trkpt lat="41.66778637187573" lon="-0.8362617593059674"><ele>208.0</ele><time>2026-05-04T09:47:24Z</time></trkpt><trkpt lat="41.66773816684939" lon="-0.8361699244412114"><ele>208.50000000000003</ele><time>2026-05-04T09:47:25Z</time></trkpt><trkpt lat="41.66769325175148" lon="-0.8360746687892988"><ele>209.0</ele><time>2026-05-04T09:47:26Z</time></trkpt><trkpt lat="41.667654482377635" lon="-0.8359902794390562"><ele>209.6</ele><time>2026-05-04T09:47:27Z</time></trkpt><trkpt lat="41.66762445478476" lon="-0.8359028018000464"><ele>210.2</ele><time>2026-05-04T09:47:28Z</time></trkpt><trkpt lat="41.66760024322926" lon="-0.8358223372469247"><ele>210.79999999999998</ele><time>2026-05-04T09:47:29Z</time></trkpt><trkpt lat="41.6675592020555" lon="-0.8356690088179926"><ele>211.39999999999998</ele><time>2026-05-04T09:47:31Z</time></trkpt><trkpt lat="41.6675243700483" lon="-0.8355058477440295"><ele>212.0</ele><time>2026-05-04T09:47:33Z</time></trkpt><trkpt lat="41.66750126080653" lon="-0.835360222855564"><ele>212.00000000000003</ele><time>2026-05-04T09:47:35Z</time></trkpt><trkpt lat="41.66747734027332" lon="-0.83519327040601"><ele>212.0</ele><time>2026-05-04T09:47:37Z</time></trkpt><trkpt lat="41.667465138760285" lon="-0.8351070671286493"><ele>212.0</ele><time>2026-05-04T09:47:38Z</time></trkpt><trkpt lat="41.667452376318636" lon="-0.835016900938556"><ele>212.0</ele><time>2026-05-04T09:47:39Z</time></trkpt><trkpt lat="41.66743885057541" lon="-0.8349213425706191"><ele>212.00000000000003</ele><time>2026-05-04T09:47:40Z</time></trkpt><trkpt lat="41.66742386462093" lon="-0.8348230971672058"><ele>212.0</ele><time>2026-05-04T09:47:41Z</time></trkpt><trkpt lat="41.66740978262877" lon="-0.8347278149296016"><ele>212.16666666666669</ele><time>2026-05-04T09:47:42Z</time></trkpt><trkpt lat="41.66739618178415" lon="-0.8346357998559149"><ele>212.33333333333334</ele><time>2026-05-04T09:47:43Z</time></trkpt><trkpt lat="41.6673826687021" lon="-0.8345416261216847"><ele>212.5</ele><time>2026-05-04T09:47:44Z</time></trkpt><trkpt lat="41.66736881140553" lon="-0.834442632264204"><ele>212.66666666666669</ele><time>2026-05-04T09:47:45Z</time></trkpt><trkpt lat="41.66735471455661" lon="-0.8343419270718245"><ele>212.83333333333334</ele><time>2026-05-04T09:47:46Z</time></trkpt><trkpt lat="41.66734002066475" lon="-0.8342369567157885"><ele>213.0</ele><time>2026-05-04T09:47:47Z</time></trkpt><trkpt lat="41.66732557236406" lon="-0.834133740828169"><ele>213.28571428571428</ele><time>2026-05-04T09:47:48Z</time></trkpt><trkpt lat="41.66731075049863" lon="-0.8340278566170812"><ele>213.57142857142856</ele><time>2026-05-04T09:47:49Z</time></trkpt><trkpt lat="41.6672951215439" lon="-0.8339227555508925"><ele>213.85714285714283</ele><time>2026-05-04T09:47:50Z</time></trkpt><trkpt lat="41.66727928430053" lon="-0.8338148776332001"><ele>214.14285714285714</ele><time>2026-05-04T09:47:51Z</time></trkpt><trkpt lat="41.66726549605888" lon="-0.8337209568300281"><ele>214.42857142857144</ele><time>2026-05-04T09:47:52Z</time></trkpt><trkpt lat="41.66725236664344" lon="-0.833631523726366"><ele>214.7142857142857</ele><time>2026-05-04T09:47:53Z</time></trkpt><trkpt lat="41.66724017195866" lon="-0.8335484576796786"><ele>215.0</ele><time>2026-05-04T09:47:54Z</time></trkpt><trkpt lat="41.66722735463354" lon="-0.8334611504550696"><ele>215.33333333333334</ele><time>2026-05-04T09:47:55Z</time></trkpt><trkpt lat="41.667213532087146" lon="-0.8333681386807374"><ele>215.66666666666669</ele><time>2026-05-04T09:47:56Z</time></trkpt><trkpt lat="41.667199186203405" lon="-0.8332717712079162"><ele>216.0</ele><time>2026-05-04T09:47:57Z</time></trkpt><trkpt lat="41.66718376150596" lon="-0.8331681569413503"><ele>216.33333333333331</ele><time>2026-05-04T09:47:58.001Z</time></trkpt><trkpt lat="41.66716897436818" lon="-0.8330688253888975"><ele>216.66666666666666</ele><time>2026-05-04T09:47:59.001Z</time></trkpt><trkpt lat="41.66715420439348" lon="-0.8329691927988162"><ele>217.0</ele><time>2026-05-04T09:48:00.001Z</time></trkpt><trkpt lat="41.66713911483042" lon="-0.8328673213080531"><ele>216.99999999999997</ele><time>2026-05-04T09:48:01.001Z</time></trkpt><trkpt lat="41.66712440197863" lon="-0.8327679930751306"><ele>217.0</ele><time>2026-05-04T09:48:02.001Z</time></trkpt><trkpt lat="41.66710995964969" lon="-0.8326704911538879"><ele>217.0</ele><time>2026-05-04T09:48:03.001Z</time></trkpt><trkpt lat="41.66709479953025" lon="-0.8325681433851031"><ele>217.0</ele><time>2026-05-04T09:48:04.001Z</time></trkpt><trkpt lat="41.66708093956402" lon="-0.8324745730546143"><ele>216.99999999999997</ele><time>2026-05-04T09:48:05.001Z</time></trkpt><trkpt lat="41.66706816829984" lon="-0.8323883535016775"><ele>217.0</ele><time>2026-05-04T09:48:06.001Z</time></trkpt><trkpt lat="41.6670442053776" lon="-0.8322271702534432"><ele>216.6</ele><time>2026-05-04T09:48:08.001Z</time></trkpt><trkpt lat="41.667019701147765" lon="-0.8320621783340998"><ele>216.2</ele><time>2026-05-04T09:48:10.001Z</time></trkpt><trkpt lat="41.66699892212462" lon="-0.8319222689567748"><ele>215.8</ele><time>2026-05-04T09:48:12.001Z</time></trkpt><trkpt lat="41.666981710795184" lon="-0.8318063816383214"><ele>215.4</ele><time>2026-05-04T09:48:14.001Z</time></trkpt><trkpt lat="41.666962185971" lon="-0.8316628342994629"><ele>215.0</ele><time>2026-05-04T09:48:16.001Z</time></trkpt><trkpt lat="41.666936289466065" lon="-0.8314948693029127"><ele>214.83333333333334</ele><time>2026-05-04T09:48:18.001Z</time></trkpt><trkpt lat="41.66692228983797" lon="-0.831401568193372"><ele>214.66666666666669</ele><time>2026-05-04T09:48:19.001Z</time></trkpt><trkpt lat="41.66690689578943" lon="-0.8313005276085887"><ele>214.5</ele><time>2026-05-04T09:48:20.001Z</time></trkpt><trkpt lat="41.66689119252481" lon="-0.8311977239874098"><ele>214.33333333333331</ele><time>2026-05-04T09:48:21.001Z</time></trkpt><trkpt lat="41.66687487153058" lon="-0.8310908763734798"><ele>214.16666666666666</ele><time>2026-05-04T09:48:22.001Z</time></trkpt><trkpt lat="41.666863147229385" lon="-0.8309772851646333"><ele>214.0</ele><time>2026-05-04T09:48:23.001Z</time></trkpt><trkpt lat="41.66685171904953" lon="-0.8308631938596868"><ele>213.83333333333331</ele><time>2026-05-04T09:48:24.001Z</time></trkpt><trkpt lat="41.66684037265598" lon="-0.8307499190331585"><ele>213.66666666666666</ele><time>2026-05-04T09:48:25.001Z</time></trkpt><trkpt lat="41.66682870903486" lon="-0.8306330712710741"><ele>213.5</ele><time>2026-05-04T09:48:26.001Z</time></trkpt><trkpt lat="41.666816943529945" lon="-0.8305150863256819"><ele>213.33333333333331</ele><time>2026-05-04T09:48:27.001Z</time></trkpt><trkpt lat="41.666805268194636" lon="-0.8303980056923069"><ele>213.16666666666666</ele><time>2026-05-04T09:48:28.001Z</time></trkpt><trkpt lat="41.66679567324986" lon="-0.8302679374324993"><ele>213.0</ele><time>2026-05-04T09:48:29.001Z</time></trkpt><trkpt lat="41.666805102366546" lon="-0.8301424748167798"><ele>213.0</ele><time>2026-05-04T09:48:30.001Z</time></trkpt><trkpt lat="41.666810435230026" lon="-0.8300154203739092"><ele>213.0</ele><time>2026-05-04T09:48:31.001Z</time></trkpt><trkpt lat="41.66681607198434" lon="-0.8298811258203435"><ele>213.0</ele><time>2026-05-04T09:48:32.001Z</time></trkpt><trkpt lat="41.666821540263754" lon="-0.8297508451995644"><ele>213.0</ele><time>2026-05-04T09:48:33.001Z</time></trkpt><trkpt lat="41.66683770832918" lon="-0.8296157003985681"><ele>213.0</ele><time>2026-05-04T09:48:34.001Z</time></trkpt><trkpt lat="41.666841074471456" lon="-0.8294792866608198"><ele>213.0</ele><time>2026-05-04T09:48:35.001Z</time></trkpt><trkpt lat="41.66685225752619" lon="-0.8293447942589983"><ele>213.0</ele><time>2026-05-04T09:48:36.001Z</time></trkpt><trkpt lat="41.66685912467206" lon="-0.8292023814879909"><ele>213.0</ele><time>2026-05-04T09:48:37.001Z</time></trkpt><trkpt lat="41.66686879355179" lon="-0.8290611406718689"><ele>213.0</ele><time>2026-05-04T09:48:38.001Z</time></trkpt><trkpt lat="41.666864272286425" lon="-0.8289186448030411"><ele>213.0</ele><time>2026-05-04T09:48:39.001Z</time></trkpt><trkpt lat="41.66687242845543" lon="-0.8287778622271574"><ele>213.2</ele><time>2026-05-04T09:48:40.001Z</time></trkpt><trkpt lat="41.66688060024756" lon="-0.8286405827918265"><ele>213.4</ele><time>2026-05-04T09:48:41.001Z</time></trkpt><trkpt lat="41.666889087268146" lon="-0.8284981398334569"><ele>213.59999999999997</ele><time>2026-05-04T09:48:42.001Z</time></trkpt><trkpt lat="41.66689722699338" lon="-0.8283566470890185"><ele>213.79999999999998</ele><time>2026-05-04T09:48:43.001Z</time></trkpt><trkpt lat="41.666916256766434" lon="-0.8282275981873315"><ele>214.0</ele><time>2026-05-04T09:48:44.001Z</time></trkpt><trkpt lat="41.66691063410782" lon="-0.8281024200159127"><ele>213.99999999999997</ele><time>2026-05-04T09:48:45.001Z</time></trkpt><trkpt lat="41.66689402741798" lon="-0.8279903276248669"><ele>214.0</ele><time>2026-05-04T09:48:46.001Z</time></trkpt><trkpt lat="41.666879421757415" lon="-0.827881993891302"><ele>214.0</ele><time>2026-05-04T09:48:47.001Z</time></trkpt><trkpt lat="41.666866346285076" lon="-0.8277842185507884"><ele>214.0</ele><time>2026-05-04T09:48:48.001Z</time></trkpt><trkpt lat="41.66685303901728" lon="-0.8276881726500152"><ele>213.99999999999997</ele><time>2026-05-04T09:48:49.001Z</time></trkpt><trkpt lat="41.666833852999446" lon="-0.8275483491073692"><ele>214.0</ele><time>2026-05-04T09:48:51.001Z</time></trkpt><trkpt lat="41.6668232105353" lon="-0.8274588253754438"><ele>213.99999999999997</ele><time>2026-05-04T09:48:53.001Z</time></trkpt><trkpt lat="41.6668138119113" lon="-0.8273446566048782"><ele>214.0</ele><time>2026-05-04T09:49:21Z</time></trkpt><trkpt lat="41.66679781023304" lon="-0.8272243274969366"><ele>214.0</ele><time>2026-05-04T09:49:23Z</time></trkpt><trkpt lat="41.666774053675546" lon="-0.8270643769861683"><ele>214.0</ele><time>2026-05-04T09:49:25Z</time></trkpt><trkpt lat="41.666764060547216" lon="-0.8269731649290865"><ele>213.99999999999997</ele><time>2026-05-04T09:49:26Z</time></trkpt><trkpt lat="41.666754075889465" lon="-0.8268758690137535"><ele>214.0</ele><time>2026-05-04T09:49:27Z</time></trkpt><trkpt lat="41.666745435202664" lon="-0.8267738247112668"><ele>214.16666666666666</ele><time>2026-05-04T09:49:28Z</time></trkpt><trkpt lat="41.666726932461934" lon="-0.8266678116986319"><ele>214.33333333333331</ele><time>2026-05-04T09:49:29Z</time></trkpt><trkpt lat="41.66670993269929" lon="-0.826556633268996"><ele>214.5</ele><time>2026-05-04T09:49:30Z</time></trkpt><trkpt lat="41.66669251609238" lon="-0.8264404368426733"><ele>214.66666666666669</ele><time>2026-05-04T09:49:31Z</time></trkpt><trkpt lat="41.666676320963646" lon="-0.826323405786146"><ele>214.83333333333334</ele><time>2026-05-04T09:49:32Z</time></trkpt><trkpt lat="41.66665908110175" lon="-0.8262037747841208"><ele>215.0</ele><time>2026-05-04T09:49:33Z</time></trkpt><trkpt lat="41.66663314249628" lon="-0.8260855340705088"><ele>214.83333333333334</ele><time>2026-05-04T09:49:34Z</time></trkpt><trkpt lat="41.666623574544424" lon="-0.8259675826663471"><ele>214.66666666666669</ele><time>2026-05-04T09:49:35Z</time></trkpt><trkpt lat="41.66661670565911" lon="-0.8258553502179611"><ele>214.5</ele><time>2026-05-04T09:49:36Z</time></trkpt><trkpt lat="41.666581766589886" lon="-0.825758053661555"><ele>214.33333333333331</ele><time>2026-05-04T09:49:37Z</time></trkpt><trkpt lat="41.66654331017691" lon="-0.8256552272499947"><ele>214.16666666666666</ele><time>2026-05-04T09:49:38Z</time></trkpt><trkpt lat="41.66650177592868" lon="-0.8255604535781853"><ele>214.0</ele><time>2026-05-04T09:49:39Z</time></trkpt><trkpt lat="41.66645973994844" lon="-0.8254604959269614"><ele>213.99999999999997</ele><time>2026-05-04T09:49:40Z</time></trkpt><trkpt lat="41.66641759132523" lon="-0.8253602714769609"><ele>214.0</ele><time>2026-05-04T09:49:41Z</time></trkpt><trkpt lat="41.666376826791115" lon="-0.8252719615066061"><ele>214.0</ele><time>2026-05-04T09:49:42Z</time></trkpt><trkpt lat="41.66634142559646" lon="-0.8251916404500537"><ele>214.0</ele><time>2026-05-04T09:49:43Z</time></trkpt><trkpt lat="41.66631447245726" lon="-0.8251033438388079"><ele>213.99999999999997</ele><time>2026-05-04T09:49:44Z</time></trkpt><trkpt lat="41.66625285515464" lon="-0.8250316665238421"><ele>214.0</ele><time>2026-05-04T09:49:45Z</time></trkpt><trkpt lat="41.66617733560805" lon="-0.8249727569882688"><ele>213.6</ele><time>2026-05-04T09:49:46Z</time></trkpt><trkpt lat="41.66610459402162" lon="-0.824903238945238"><ele>213.2</ele><time>2026-05-04T09:49:47Z</time></trkpt><trkpt lat="41.66603450344511" lon="-0.8248310044015728"><ele>212.79999999999998</ele><time>2026-05-04T09:49:48Z</time></trkpt><trkpt lat="41.66595884722559" lon="-0.8247568182413417"><ele>212.39999999999998</ele><time>2026-05-04T09:49:49Z</time></trkpt><trkpt lat="41.665880614560315" lon="-0.8246786746501986"><ele>212.0</ele><time>2026-05-04T09:49:50Z</time></trkpt><trkpt lat="41.66579852319405" lon="-0.8245963992861364"><ele>212.0</ele><time>2026-05-04T09:49:51.001Z</time></trkpt><trkpt lat="41.665720191368926" lon="-0.8245141099354854"><ele>212.0</ele><time>2026-05-04T09:49:52.001Z</time></trkpt><trkpt lat="41.665622592212266" lon="-0.824454327732331"><ele>212.0</ele><time>2026-05-04T09:49:53.001Z</time></trkpt><trkpt lat="41.66554230060506" lon="-0.8243629843110287"><ele>212.0</ele><time>2026-05-04T09:49:54.001Z</time></trkpt><trkpt lat="41.665462882313236" lon="-0.8242696792316535"><ele>212.0</ele><time>2026-05-04T09:49:55.001Z</time></trkpt><trkpt lat="41.665380793104525" lon="-0.8241723400425647"><ele>212.2</ele><time>2026-05-04T09:49:56.001Z</time></trkpt><trkpt lat="41.665299074235215" lon="-0.8240754399742993"><ele>212.39999999999998</ele><time>2026-05-04T09:49:57.001Z</time></trkpt><trkpt lat="41.66522428037856" lon="-0.8239636952695818"><ele>212.60000000000002</ele><time>2026-05-04T09:49:58.001Z</time></trkpt><trkpt lat="41.66513968051644" lon="-0.8238727982177496"><ele>212.8</ele><time>2026-05-04T09:49:59.001Z</time></trkpt><trkpt lat="41.66505522834527" lon="-0.823778954643686"><ele>213.0</ele><time>2026-05-04T09:50:00.001Z</time></trkpt><trkpt lat="41.66497083904622" lon="-0.8236846156711422"><ele>213.0</ele><time>2026-05-04T09:50:01.001Z</time></trkpt><trkpt lat="41.66488779368658" lon="-0.8235872650611887"><ele>213.0</ele><time>2026-05-04T09:50:02.001Z</time></trkpt><trkpt lat="41.664809602737705" lon="-0.8234891708677584"><ele>213.0</ele><time>2026-05-04T09:50:03.001Z</time></trkpt><trkpt lat="41.66472598957995" lon="-0.8234166491741794"><ele>213.0</ele><time>2026-05-04T09:50:04.001Z</time></trkpt><trkpt lat="41.66464696391638" lon="-0.8232983811330346"><ele>213.0</ele><time>2026-05-04T09:50:05.001Z</time></trkpt><trkpt lat="41.664562866854865" lon="-0.8231935363126419"><ele>213.0</ele><time>2026-05-04T09:50:06.001Z</time></trkpt><trkpt lat="41.66448314743413" lon="-0.8230925645105206"><ele>213.0</ele><time>2026-05-04T09:50:07.001Z</time></trkpt><trkpt lat="41.66440163016486" lon="-0.8229858966707313"><ele>213.0</ele><time>2026-05-04T09:50:08.001Z</time></trkpt><trkpt lat="41.66431876228767" lon="-0.8228845581230688"><ele>213.0</ele><time>2026-05-04T09:50:09.001Z</time></trkpt><trkpt lat="41.66424115175031" lon="-0.8227836896185798"><ele>213.0</ele><time>2026-05-04T09:50:10.001Z</time></trkpt><trkpt lat="41.66415144055735" lon="-0.8226694598990546"><ele>211.33333333333331</ele><time>2026-05-04T09:50:11.001Z</time></trkpt><trkpt lat="41.66400977399622" lon="-0.8225306152948232"><ele>209.66666666666666</ele><time>2026-05-04T09:50:12.001Z</time></trkpt><trkpt lat="41.66387437441212" lon="-0.8223437789196291"><ele>208.0</ele><time>2026-05-04T09:50:13.001Z</time></trkpt><trkpt lat="41.66387106327805" lon="-0.8221969616140518"><ele>208.0</ele><time>2026-05-04T09:50:15.001Z</time></trkpt><trkpt lat="41.663808579683" lon="-0.822081763869881"><ele>208.0</ele><time>2026-05-04T09:50:16.001Z</time></trkpt><trkpt lat="41.66374639376463" lon="-0.8219692617487867"><ele>208.0</ele><time>2026-05-04T09:50:17.001Z</time></trkpt><trkpt lat="41.66368533975193" lon="-0.8218575530445947"><ele>208.0</ele><time>2026-05-04T09:50:18.001Z</time></trkpt><trkpt lat="41.66362731771742" lon="-0.8217513792944617"><ele>208.0</ele><time>2026-05-04T09:50:19.001Z</time></trkpt><trkpt lat="41.66357454044081" lon="-0.8216520946439141"><ele>207.0</ele><time>2026-05-04T09:50:20.001Z</time></trkpt><trkpt lat="41.66350844482439" lon="-0.8215758215455712"><ele>206.0</ele><time>2026-05-04T09:50:21.001Z</time></trkpt><trkpt lat="41.66343253249092" lon="-0.821531837268346"><ele>205.0</ele><time>2026-05-04T09:50:22.001Z</time></trkpt><trkpt lat="41.66333762434393" lon="-0.8215187152528068"><ele>204.0</ele><time>2026-05-04T09:50:23.001Z</time></trkpt><trkpt lat="41.663239008991425" lon="-0.8215340035655362"><ele>203.0</ele><time>2026-05-04T09:50:24.001Z</time></trkpt><trkpt lat="41.6631397279199" lon="-0.8215553173872077"><ele>203.0</ele><time>2026-05-04T09:50:25.001Z</time></trkpt><trkpt lat="41.6630496019396" lon="-0.8215259101109148"><ele>203.0</ele><time>2026-05-04T09:50:26.001Z</time></trkpt><trkpt lat="41.6629807095556" lon="-0.8214324672701836"><ele>203.0</ele><time>2026-05-04T09:50:27.001Z</time></trkpt><trkpt lat="41.66293605030619" lon="-0.8213044644485589"><ele>203.0</ele><time>2026-05-04T09:50:28.001Z</time></trkpt><trkpt lat="41.66293119614221" lon="-0.8211638640762503"><ele>203.0</ele><time>2026-05-04T09:50:29.001Z</time></trkpt><trkpt lat="41.66298613626576" lon="-0.8210361945702648"><ele>203.5</ele><time>2026-05-04T09:50:30.001Z</time></trkpt><trkpt lat="41.66306035809724" lon="-0.8209334158348266"><ele>204.0</ele><time>2026-05-04T09:50:31.001Z</time></trkpt><trkpt lat="41.66304842872959" lon="-0.8207641544952065"><ele>204.5</ele><time>2026-05-04T09:50:32.001Z</time></trkpt><trkpt lat="41.66298766671868" lon="-0.8206341820366453"><ele>205.0</ele><time>2026-05-04T09:50:33.001Z</time></trkpt><trkpt lat="41.662945347138844" lon="-0.8205004728268228"><ele>205.0</ele><time>2026-05-04T09:50:34.001Z</time></trkpt><trkpt lat="41.662895744893795" lon="-0.820371194082253"><ele>205.0</ele><time>2026-05-04T09:50:35.001Z</time></trkpt><trkpt lat="41.66283916742693" lon="-0.8202446603376395"><ele>205.0</ele><time>2026-05-04T09:50:36.001Z</time></trkpt><trkpt lat="41.66277312084599" lon="-0.8201212168028865"><ele>205.0</ele><time>2026-05-04T09:50:37.001Z</time></trkpt><trkpt lat="41.66270773982404" lon="-0.8199977454913477"><ele>205.0</ele><time>2026-05-04T09:50:38.001Z</time></trkpt><trkpt lat="41.66264185259177" lon="-0.8198798410495641"><ele>204.0</ele><time>2026-05-04T09:50:39.001Z</time></trkpt><trkpt lat="41.6625738318666" lon="-0.8197606593172623"><ele>203.0</ele><time>2026-05-04T09:50:40.001Z</time></trkpt><trkpt lat="41.662497108416154" lon="-0.8196469828669013"><ele>202.0</ele><time>2026-05-04T09:50:41.001Z</time></trkpt><trkpt lat="41.66242516533924" lon="-0.819543708102771"><ele>201.0</ele><time>2026-05-04T09:50:42.001Z</time></trkpt><trkpt lat="41.66236309106336" lon="-0.8194093085085568"><ele>201.75</ele><time>2026-05-04T09:50:43.001Z</time></trkpt><trkpt lat="41.66227115106396" lon="-0.819289410907886"><ele>202.5</ele><time>2026-05-04T09:50:44.001Z</time></trkpt><trkpt lat="41.66215844685854" lon="-0.8191876177934188"><ele>203.25</ele><time>2026-05-04T09:50:45.001Z</time></trkpt><trkpt lat="41.662158920713274" lon="-0.819066394780058"><ele>204.0</ele><time>2026-05-04T09:50:46.001Z</time></trkpt><trkpt lat="41.66209909025288" lon="-0.8189443870708528"><ele>204.0</ele><time>2026-05-04T09:50:47.001Z</time></trkpt><trkpt lat="41.6620389715318" lon="-0.8188185383123335"><ele>204.0</ele><time>2026-05-04T09:50:48.001Z</time></trkpt><trkpt lat="41.661979076421545" lon="-0.8186929053107878"><ele>204.0</ele><time>2026-05-04T09:50:49.001Z</time></trkpt><trkpt lat="41.66192050523104" lon="-0.8185661268459657"><ele>204.0</ele><time>2026-05-04T09:50:50.001Z</time></trkpt><trkpt lat="41.66186768024944" lon="-0.8184387675186089"><ele>204.0</ele><time>2026-05-04T09:50:51.001Z</time></trkpt><trkpt lat="41.66181989063275" lon="-0.818305351645138"><ele>203.25</ele><time>2026-05-04T09:50:52.001Z</time></trkpt><trkpt lat="41.661770843483225" lon="-0.8181718266682578"><ele>202.5</ele><time>2026-05-04T09:50:53.001Z</time></trkpt><trkpt lat="41.66172397705135" lon="-0.8180375551315687"><ele>201.75</ele><time>2026-05-04T09:50:54.001Z</time></trkpt><trkpt lat="41.66166157386476" lon="-0.8179155707323269"><ele>201.0</ele><time>2026-05-04T09:50:55.001Z</time></trkpt><trkpt lat="41.66161433891301" lon="-0.8177702761782673"><ele>201.25</ele><time>2026-05-04T09:50:56.001Z</time></trkpt><trkpt lat="41.6615707385307" lon="-0.8176361615638205"><ele>201.5</ele><time>2026-05-04T09:50:57.001Z</time></trkpt><trkpt lat="41.661539350585464" lon="-0.8174857542210945"><ele>201.75</ele><time>2026-05-04T09:50:58.001Z</time></trkpt><trkpt lat="41.6614861603379" lon="-0.8173501159933867"><ele>202.0</ele><time>2026-05-04T09:50:59.001Z</time></trkpt><trkpt lat="41.66144121660591" lon="-0.8172082416079713"><ele>202.0</ele><time>2026-05-04T09:51:00.001Z</time></trkpt><trkpt lat="41.66138934911001" lon="-0.8170767673845352"><ele>202.0</ele><time>2026-05-04T09:51:01.001Z</time></trkpt><trkpt lat="41.66135288230239" lon="-0.8169343884509902"><ele>202.0</ele><time>2026-05-04T09:51:02.001Z</time></trkpt><trkpt lat="41.66131216383828" lon="-0.816800030609593"><ele>202.0</ele><time>2026-05-04T09:51:03.001Z</time></trkpt><trkpt lat="41.66126888422046" lon="-0.8166660980549223"><ele>202.0</ele><time>2026-05-04T09:51:04.001Z</time></trkpt><trkpt lat="41.6612244149924" lon="-0.8165324980781395"><ele>201.8</ele><time>2026-05-04T09:51:05.001Z</time></trkpt><trkpt lat="41.66118379255313" lon="-0.8163993445946273"><ele>201.6</ele><time>2026-05-04T09:51:06.001Z</time></trkpt><trkpt lat="41.66113968140881" lon="-0.816265488565541"><ele>201.4</ele><time>2026-05-04T09:51:07.001Z</time></trkpt><trkpt lat="41.661089685703836" lon="-0.8161348352467452"><ele>201.20000000000002</ele><time>2026-05-04T09:51:08.001Z</time></trkpt><trkpt lat="41.661048138554264" lon="-0.8159985711565924"><ele>201.0</ele><time>2026-05-04T09:51:09.001Z</time></trkpt><trkpt lat="41.66100286642623" lon="-0.8158654722529717"><ele>201.0</ele><time>2026-05-04T09:51:10.001Z</time></trkpt><trkpt lat="41.660961920750616" lon="-0.815731508253337"><ele>201.0</ele><time>2026-05-04T09:51:11.001Z</time></trkpt><trkpt lat="41.66091683148961" lon="-0.81559896046436"><ele>201.0</ele><time>2026-05-04T09:51:12.001Z</time></trkpt><trkpt lat="41.660872945412706" lon="-0.815464132885208"><ele>201.0</ele><time>2026-05-04T09:51:13.001Z</time></trkpt><trkpt lat="41.66083047295171" lon="-0.8153308364450728"><ele>201.0</ele><time>2026-05-04T09:51:14Z</time></trkpt><trkpt lat="41.66078824588441" lon="-0.8151977649722791"><ele>202.0</ele><time>2026-05-04T09:51:15Z</time></trkpt><trkpt lat="41.66074304978403" lon="-0.8150644254795254"><ele>203.0</ele><time>2026-05-04T09:51:16Z</time></trkpt><trkpt lat="41.66069688449973" lon="-0.8149293825115421"><ele>204.0</ele><time>2026-05-04T09:51:17Z</time></trkpt><trkpt lat="41.66065609826411" lon="-0.8147963396092761"><ele>205.0</ele><time>2026-05-04T09:51:18Z</time></trkpt><trkpt lat="41.66060859316159" lon="-0.8146618785273521"><ele>206.0</ele><time>2026-05-04T09:51:19Z</time></trkpt><trkpt lat="41.6605682082312" lon="-0.8145267766351263"><ele>206.0</ele><time>2026-05-04T09:51:20Z</time></trkpt><trkpt lat="41.6605215801051" lon="-0.8143918784857469"><ele>206.0</ele><time>2026-05-04T09:51:21Z</time></trkpt><trkpt lat="41.66047675246568" lon="-0.8142579762173139"><ele>206.0</ele><time>2026-05-04T09:51:22Z</time></trkpt><trkpt lat="41.660433847867594" lon="-0.8141242835560741"><ele>206.0</ele><time>2026-05-04T09:51:23Z</time></trkpt><trkpt lat="41.6603868192051" lon="-0.8139849300205416"><ele>206.0</ele><time>2026-05-04T09:51:24Z</time></trkpt><trkpt lat="41.660348682833586" lon="-0.8138526949275618"><ele>206.60000000000002</ele><time>2026-05-04T09:51:25Z</time></trkpt><trkpt lat="41.66030630549768" lon="-0.8137122858600047"><ele>207.2</ele><time>2026-05-04T09:51:26Z</time></trkpt><trkpt lat="41.66026636632585" lon="-0.8135774265268838"><ele>207.8</ele><time>2026-05-04T09:51:27Z</time></trkpt><trkpt lat="41.660215774620895" lon="-0.8134350483264464"><ele>208.39999999999998</ele><time>2026-05-04T09:51:28Z</time></trkpt><trkpt lat="41.66018633823929" lon="-0.8133062553328617"><ele>209.0</ele><time>2026-05-04T09:51:29Z</time></trkpt><trkpt lat="41.66015595526152" lon="-0.8131707290386915"><ele>207.0</ele><time>2026-05-04T09:51:30Z</time></trkpt><trkpt lat="41.660100142156594" lon="-0.8131099508992669"><ele>205.0</ele><time>2026-05-04T09:51:31Z</time></trkpt><trkpt lat="41.66009300366449" lon="-0.8129093665822283"><ele>203.0</ele><time>2026-05-04T09:51:33Z</time></trkpt><trkpt lat="41.66007875858861" lon="-0.8126418264999903"><ele>201.0</ele><time>2026-05-04T09:51:34Z</time></trkpt><trkpt lat="41.66008650907651" lon="-0.8124786557139363"><ele>201.0</ele><time>2026-05-04T09:51:35Z</time></trkpt><trkpt lat="41.66010600131637" lon="-0.8123326335559821"><ele>201.0</ele><time>2026-05-04T09:51:36Z</time></trkpt><trkpt lat="41.66013218452179" lon="-0.8121750033361501"><ele>201.0</ele><time>2026-05-04T09:51:37Z</time></trkpt><trkpt lat="41.6601553786722" lon="-0.8120416788285543"><ele>201.0</ele><time>2026-05-04T09:51:38Z</time></trkpt><trkpt lat="41.66017822167768" lon="-0.8119166819756097"><ele>201.0</ele><time>2026-05-04T09:51:39Z</time></trkpt><trkpt lat="41.66020285332361" lon="-0.8118279329835906"><ele>201.83333333333334</ele><time>2026-05-04T09:51:40Z</time></trkpt><trkpt lat="41.66019255704698" lon="-0.8117282042017917"><ele>202.66666666666669</ele><time>2026-05-04T09:51:41Z</time></trkpt><trkpt lat="41.66014700586176" lon="-0.8116455091183378"><ele>203.5</ele><time>2026-05-04T09:51:42Z</time></trkpt><trkpt lat="41.66006354251037" lon="-0.8115803929490069"><ele>204.33333333333334</ele><time>2026-05-04T09:51:43Z</time></trkpt><trkpt lat="41.65997653794453" lon="-0.8115164142384732"><ele>205.16666666666669</ele><time>2026-05-04T09:51:44Z</time></trkpt><trkpt lat="41.65987723133803" lon="-0.8114907097364066"><ele>206.0</ele><time>2026-05-04T09:51:45Z</time></trkpt><trkpt lat="41.65978091184873" lon="-0.8115120778021121"><ele>206.0</ele><time>2026-05-04T09:51:46Z</time></trkpt><trkpt lat="41.65968800712886" lon="-0.81154067570565"><ele>206.0</ele><time>2026-05-04T09:51:47Z</time></trkpt><trkpt lat="41.65959342327221" lon="-0.8115602695094745"><ele>206.0</ele><time>2026-05-04T09:51:48Z</time></trkpt><trkpt lat="41.65949715371561" lon="-0.8115754533713189"><ele>206.0</ele><time>2026-05-04T09:51:49Z</time></trkpt><trkpt lat="41.6594027780082" lon="-0.8115912544317759"><ele>206.0</ele><time>2026-05-04T09:51:50Z</time></trkpt><trkpt lat="41.65931412881484" lon="-0.8116213300990002"><ele>204.00000000000003</ele><time>2026-05-04T09:51:51Z</time></trkpt><trkpt lat="41.65923465314497" lon="-0.8116725050791412"><ele>202.0</ele><time>2026-05-04T09:51:52Z</time></trkpt><trkpt lat="41.65916533646053" lon="-0.8117461705546193"><ele>200.0</ele><time>2026-05-04T09:51:53Z</time></trkpt><trkpt lat="41.65910395687232" lon="-0.8118093267389657"><ele>198.0</ele><time>2026-05-04T09:51:54Z</time></trkpt><trkpt lat="41.65903015715995" lon="-0.8118279541799576"><ele>196.00000000000003</ele><time>2026-05-04T09:51:55Z</time></trkpt><trkpt lat="41.65894840104447" lon="-0.8118212721711795"><ele>194.0</ele><time>2026-05-04T09:51:56Z</time></trkpt><trkpt lat="41.658882364791616" lon="-0.8117133300156221"><ele>194.00000000000003</ele><time>2026-05-04T09:51:57Z</time></trkpt><trkpt lat="41.65884694352073" lon="-0.811605187806304"><ele>194.0</ele><time>2026-05-04T09:51:58Z</time></trkpt><trkpt lat="41.658846429025644" lon="-0.8115078021417947"><ele>194.0</ele><time>2026-05-04T09:51:59Z</time></trkpt><trkpt lat="41.65886958994998" lon="-0.8114020344185593"><ele>194.0</ele><time>2026-05-04T09:52:01.001Z</time></trkpt><trkpt lat="41.658805714710084" lon="-0.8113349843950515"><ele>194.00000000000003</ele><time>2026-05-04T09:52:03.001Z</time></trkpt><trkpt lat="41.65878579102548" lon="-0.8112482789533375"><ele>194.0</ele><time>2026-05-04T09:52:11.001Z</time></trkpt><trkpt lat="41.65881959670973" lon="-0.8113834358046177"><ele>194.00000000000003</ele><time>2026-05-04T09:52:18.001Z</time></trkpt><trkpt lat="41.658914226422205" lon="-0.8114042689910472"><ele>194.0</ele><time>2026-05-04T09:52:19.001Z</time></trkpt><trkpt lat="41.658984695424294" lon="-0.8114029470312281"><ele>194.0</ele><time>2026-05-04T09:52:20.001Z</time></trkpt><trkpt lat="41.65905225894462" lon="-0.8113539012168678"><ele>194.0</ele><time>2026-05-04T09:52:21.001Z</time></trkpt><trkpt lat="41.659114623096485" lon="-0.8112822744025597"><ele>194.00000000000003</ele><time>2026-05-04T09:52:22.001Z</time></trkpt><trkpt lat="41.659167775563745" lon="-0.8111873180014586"><ele>194.0</ele><time>2026-05-04T09:52:23.001Z</time></trkpt><trkpt lat="41.6591964260672" lon="-0.8110581201488354"><ele>194.25</ele><time>2026-05-04T09:52:24.001Z</time></trkpt><trkpt lat="41.65920623000876" lon="-0.8109120544494075"><ele>194.5</ele><time>2026-05-04T09:52:25.001Z</time></trkpt><trkpt lat="41.65921301938006" lon="-0.8107577552774171"><ele>194.75</ele><time>2026-05-04T09:52:26.001Z</time></trkpt><trkpt lat="41.65922821473318" lon="-0.8106073079933166"><ele>195.0</ele><time>2026-05-04T09:52:27.001Z</time></trkpt><trkpt lat="41.65923885185898" lon="-0.8104393148922154"><ele>195.0</ele><time>2026-05-04T09:52:28.001Z</time></trkpt><trkpt lat="41.6592446375097" lon="-0.8102736213030758"><ele>195.0</ele><time>2026-05-04T09:52:29.001Z</time></trkpt><trkpt lat="41.65925077325369" lon="-0.8101139548381808"><ele>195.0</ele><time>2026-05-04T09:52:30.001Z</time></trkpt><trkpt lat="41.65925464270703" lon="-0.8099591591210981"><ele>195.0</ele><time>2026-05-04T09:52:31.001Z</time></trkpt><trkpt lat="41.65925354362202" lon="-0.809808066333673"><ele>194.75</ele><time>2026-05-04T09:52:32.001Z</time></trkpt><trkpt lat="41.65927389329447" lon="-0.8096566451133624"><ele>194.5</ele><time>2026-05-04T09:52:33.001Z</time></trkpt><trkpt lat="41.659264649903655" lon="-0.8095019885866023"><ele>194.25</ele><time>2026-05-04T09:52:34.001Z</time></trkpt><trkpt lat="41.65925756789225" lon="-0.8093096380889718"><ele>194.0</ele><time>2026-05-04T09:52:35.001Z</time></trkpt><trkpt lat="41.65927546052972" lon="-0.8090833024851238"><ele>194.5</ele><time>2026-05-04T09:52:36.001Z</time></trkpt><trkpt lat="41.659275717866095" lon="-0.8088802465971644"><ele>195.0</ele><time>2026-05-04T09:52:37.001Z</time></trkpt><trkpt lat="41.65926961484718" lon="-0.8086424246486278"><ele>195.5</ele><time>2026-05-04T09:52:38.001Z</time></trkpt><trkpt lat="41.6592557633403" lon="-0.8087695928795864"><ele>196.0</ele><time>2026-05-04T09:52:39.001Z</time></trkpt><trkpt lat="41.659246716790506" lon="-0.808625084312759"><ele>196.20000000000002</ele><time>2026-05-04T09:52:40.001Z</time></trkpt><trkpt lat="41.659238426563626" lon="-0.8084783128801131"><ele>196.4</ele><time>2026-05-04T09:52:41.001Z</time></trkpt><trkpt lat="41.65923181156156" lon="-0.8083361679437454"><ele>196.6</ele><time>2026-05-04T09:52:42.001Z</time></trkpt><trkpt lat="41.6592265747286" lon="-0.8082060118861906"><ele>196.8</ele><time>2026-05-04T09:52:43.001Z</time></trkpt><trkpt lat="41.65921823182184" lon="-0.8080876063516528"><ele>197.0</ele><time>2026-05-04T09:52:44.001Z</time></trkpt><trkpt lat="41.659213267986615" lon="-0.8079542219750601"><ele>197.00000000000003</ele><time>2026-05-04T09:52:45.001Z</time></trkpt><trkpt lat="41.65920469505686" lon="-0.8078301660120232"><ele>197.0</ele><time>2026-05-04T09:52:46.001Z</time></trkpt><trkpt lat="41.65918983718356" lon="-0.8077051921997119"><ele>197.0</ele><time>2026-05-04T09:52:47.001Z</time></trkpt><trkpt lat="41.65915469678403" lon="-0.8075959319264465"><ele>197.0</ele><time>2026-05-04T09:52:48.001Z</time></trkpt><trkpt lat="41.65910896089166" lon="-0.8075056993994583"><ele>197.00000000000003</ele><time>2026-05-04T09:52:49.001Z</time></trkpt><trkpt lat="41.65906936489822" lon="-0.8074205921150537"><ele>197.0</ele><time>2026-05-04T09:52:50.001Z</time></trkpt><trkpt lat="41.65903545915131" lon="-0.8073492291805044"><ele>197.50000000000003</ele><time>2026-05-04T09:52:51.001Z</time></trkpt><trkpt lat="41.658982684669176" lon="-0.807255549080391"><ele>198.0</ele><time>2026-05-04T09:52:53.001Z</time></trkpt><trkpt lat="41.65894583180934" lon="-0.8071790366770982"><ele>198.5</ele><time>2026-05-04T09:57:08.001Z</time></trkpt><trkpt lat="41.65893522750776" lon="-0.8070550217847338"><ele>199.0</ele><time>2026-05-04T09:57:10.001Z</time></trkpt><trkpt lat="41.6589660772848" lon="-0.8069170521018814"><ele>199.50000000000003</ele><time>2026-05-04T09:57:12.001Z</time></trkpt><trkpt lat="41.658988897442676" lon="-0.8068381922862977"><ele>200.0</ele><time>2026-05-04T09:57:13.001Z</time></trkpt><trkpt lat="41.65901094509564" lon="-0.8067566964075324"><ele>200.16666666666669</ele><time>2026-05-04T09:57:14.001Z</time></trkpt><trkpt lat="41.659031959632046" lon="-0.8066683719253718"><ele>200.33333333333334</ele><time>2026-05-04T09:57:15.001Z</time></trkpt><trkpt lat="41.659054014914354" lon="-0.8065747448465522"><ele>200.5</ele><time>2026-05-04T09:57:16.001Z</time></trkpt><trkpt lat="41.659067977374676" lon="-0.8064787804957141"><ele>200.66666666666669</ele><time>2026-05-04T09:57:17.001Z</time></trkpt><trkpt lat="41.65907401528966" lon="-0.8063871882824832"><ele>200.83333333333334</ele><time>2026-05-04T09:57:18.001Z</time></trkpt><trkpt lat="41.65907578048371" lon="-0.8062255870316628"><ele>201.0</ele><time>2026-05-04T09:57:20.001Z</time></trkpt><trkpt lat="41.659052918707374" lon="-0.8061386365560393"><ele>201.0</ele><time>2026-05-04T09:57:21.001Z</time></trkpt><trkpt lat="41.65903975909543" lon="-0.8060409733014009"><ele>201.0</ele><time>2026-05-04T09:57:22.001Z</time></trkpt><trkpt lat="41.65903523406589" lon="-0.8059355619367683"><ele>201.0</ele><time>2026-05-04T09:57:23.001Z</time></trkpt><trkpt lat="41.65901404063913" lon="-0.8058291536767039"><ele>201.0</ele><time>2026-05-04T09:57:24.001Z</time></trkpt><trkpt lat="41.65898613441932" lon="-0.805721971935245"><ele>201.0</ele><time>2026-05-04T09:57:25.001Z</time></trkpt><trkpt lat="41.658956417831675" lon="-0.8056124601284617"><ele>201.0</ele><time>2026-05-04T09:57:26.001Z</time></trkpt><trkpt lat="41.65892127930098" lon="-0.8054990453272733"><ele>201.4</ele><time>2026-05-04T09:57:27.001Z</time></trkpt><trkpt lat="41.65888117224875" lon="-0.8053861251802108"><ele>201.8</ele><time>2026-05-04T09:57:28.001Z</time></trkpt><trkpt lat="41.65883457482196" lon="-0.805273499606564"><ele>202.20000000000002</ele><time>2026-05-04T09:57:29.001Z</time></trkpt><trkpt lat="41.65878600508069" lon="-0.805160988766732"><ele>202.60000000000002</ele><time>2026-05-04T09:57:30.001Z</time></trkpt><trkpt lat="41.65873845277789" lon="-0.805041828928651"><ele>203.0</ele><time>2026-05-04T09:57:31.001Z</time></trkpt><trkpt lat="41.6586896800651" lon="-0.804921905124728"><ele>203.0</ele><time>2026-05-04T09:57:32.001Z</time></trkpt><trkpt lat="41.658639346519315" lon="-0.8047975497253791"><ele>203.0</ele><time>2026-05-04T09:57:33.001Z</time></trkpt><trkpt lat="41.658587181909425" lon="-0.8046713123625953"><ele>203.0</ele><time>2026-05-04T09:57:34.001Z</time></trkpt><trkpt lat="41.65853546835704" lon="-0.8045454149557751"><ele>203.0</ele><time>2026-05-04T09:57:35.001Z</time></trkpt><trkpt lat="41.658483104113074" lon="-0.8044178327905782"><ele>203.0</ele><time>2026-05-04T09:57:36.001Z</time></trkpt><trkpt lat="41.65843254224171" lon="-0.8042888415511887"><ele>202.2</ele><time>2026-05-04T09:57:37.001Z</time></trkpt><trkpt lat="41.65838247538252" lon="-0.8041593665290063"><ele>201.4</ele><time>2026-05-04T09:57:38Z</time></trkpt><trkpt lat="41.65832969811868" lon="-0.8040281909289393"><ele>200.6</ele><time>2026-05-04T09:57:39Z</time></trkpt><trkpt lat="41.65827649658302" lon="-0.8039012012162753"><ele>199.79999999999998</ele><time>2026-05-04T09:57:40Z</time></trkpt><trkpt lat="41.6582213685224" lon="-0.8037720198691546"><ele>199.0</ele><time>2026-05-04T09:57:41Z</time></trkpt><trkpt lat="41.658166024935426" lon="-0.8036422729422595"><ele>199.0</ele><time>2026-05-04T09:57:42Z</time></trkpt><trkpt lat="41.65814549321586" lon="-0.803528014630355"><ele>199.0</ele><time>2026-05-04T09:57:43Z</time></trkpt><trkpt lat="41.658031042779434" lon="-0.8033769563103799"><ele>199.0</ele><time>2026-05-04T09:57:44Z</time></trkpt><trkpt lat="41.65796296581667" lon="-0.8031998514124747"><ele>199.0</ele><time>2026-05-04T09:57:45Z</time></trkpt><trkpt lat="41.657861586295404" lon="-0.8029612732332989"><ele>198.6</ele><time>2026-05-04T09:57:46Z</time></trkpt><trkpt lat="41.65783901260808" lon="-0.8028422944777609"><ele>198.2</ele><time>2026-05-04T09:57:48Z</time></trkpt><trkpt lat="41.657784031879665" lon="-0.8027089148762006"><ele>197.79999999999998</ele><time>2026-05-04T09:57:49Z</time></trkpt><trkpt lat="41.65772747937483" lon="-0.8025766498560059"><ele>197.39999999999998</ele><time>2026-05-04T09:57:50Z</time></trkpt><trkpt lat="41.657668785011374" lon="-0.8024499042399661"><ele>197.0</ele><time>2026-05-04T09:57:51Z</time></trkpt><trkpt lat="41.65761287981668" lon="-0.802322613655604"><ele>197.0</ele><time>2026-05-04T09:57:52Z</time></trkpt><trkpt lat="41.657550887854526" lon="-0.8021946340009537"><ele>197.0</ele><time>2026-05-04T09:57:53Z</time></trkpt><trkpt lat="41.657493060159204" lon="-0.8020698509101251"><ele>197.0</ele><time>2026-05-04T09:57:54Z</time></trkpt><trkpt lat="41.6574202292414" lon="-0.801956883038207"><ele>197.0</ele><time>2026-05-04T09:57:55Z</time></trkpt><trkpt lat="41.65734795143676" lon="-0.8018406996306439"><ele>197.0</ele><time>2026-05-04T09:57:56Z</time></trkpt><trkpt lat="41.65727349712098" lon="-0.8017265280782491"><ele>196.8</ele><time>2026-05-04T09:57:57Z</time></trkpt><trkpt lat="41.6571943350058" lon="-0.8016204414370416"><ele>196.6</ele><time>2026-05-04T09:57:58Z</time></trkpt><trkpt lat="41.65711247744142" lon="-0.801517934859453"><ele>196.4</ele><time>2026-05-04T09:57:59Z</time></trkpt><trkpt lat="41.65702915265591" lon="-0.8014139962529353"><ele>196.20000000000002</ele><time>2026-05-04T09:58:00Z</time></trkpt><trkpt lat="41.65694579711929" lon="-0.8013154588256589"><ele>196.0</ele><time>2026-05-04T09:58:01Z</time></trkpt><trkpt lat="41.65686740809147" lon="-0.8012166632437481"><ele>196.0</ele><time>2026-05-04T09:58:02Z</time></trkpt><trkpt lat="41.65678464515316" lon="-0.801117591546957"><ele>196.0</ele><time>2026-05-04T09:58:03Z</time></trkpt><trkpt lat="41.65669869255965" lon="-0.8010162608596006"><ele>196.0</ele><time>2026-05-04T09:58:04Z</time></trkpt><trkpt lat="41.65661638129933" lon="-0.800917590604634"><ele>196.0</ele><time>2026-05-04T09:58:05Z</time></trkpt><trkpt lat="41.65652927483795" lon="-0.8008192369996272"><ele>197.5</ele><time>2026-05-04T09:58:06Z</time></trkpt><trkpt lat="41.656447371869284" lon="-0.80071432763438"><ele>199.0</ele><time>2026-05-04T09:58:07Z</time></trkpt><trkpt lat="41.6563671913752" lon="-0.8006126448935977"><ele>200.5</ele><time>2026-05-04T09:58:08Z</time></trkpt><trkpt lat="41.65628480985539" lon="-0.8005106952423463"><ele>202.0</ele><time>2026-05-04T09:58:09Z</time></trkpt><trkpt lat="41.656201825655245" lon="-0.8004059154069211"><ele>202.0</ele><time>2026-05-04T09:58:10Z</time></trkpt><trkpt lat="41.65613355676397" lon="-0.8003770365522279"><ele>202.0</ele><time>2026-05-04T09:58:11Z</time></trkpt><trkpt lat="41.65603920926586" lon="-0.8002866738335354"><ele>202.0</ele><time>2026-05-04T09:58:12.001Z</time></trkpt><trkpt lat="41.65593949346762" lon="-0.8001126405890397"><ele>202.0</ele><time>2026-05-04T09:58:13.001Z</time></trkpt><trkpt lat="41.65585598643859" lon="-0.8000056726069263"><ele>201.0</ele><time>2026-05-04T09:58:14.001Z</time></trkpt><trkpt lat="41.6557687905593" lon="-0.7999015419801083"><ele>200.0</ele><time>2026-05-04T09:58:15.001Z</time></trkpt><trkpt lat="41.65567695805335" lon="-0.7998023182621973"><ele>199.0</ele><time>2026-05-04T09:58:16.001Z</time></trkpt><trkpt lat="41.655575942043235" lon="-0.79970507993692"><ele>198.0</ele><time>2026-05-04T09:58:17.001Z</time></trkpt><trkpt lat="41.65544891718197" lon="-0.7996127568415213"><ele>198.0</ele><time>2026-05-04T09:58:18.001Z</time></trkpt><trkpt lat="41.65545174372666" lon="-0.7995005080485004"><ele>198.0</ele><time>2026-05-04T09:58:19.001Z</time></trkpt><trkpt lat="41.65536808393837" lon="-0.7994031313877641"><ele>198.0</ele><time>2026-05-04T09:58:20.001Z</time></trkpt><trkpt lat="41.65528496490381" lon="-0.7993034864046166"><ele>198.0</ele><time>2026-05-04T09:58:21.001Z</time></trkpt><trkpt lat="41.65519923810338" lon="-0.7992051167612523"><ele>198.0</ele><time>2026-05-04T09:58:22.001Z</time></trkpt><trkpt lat="41.65511748022172" lon="-0.7991114310460734"><ele>197.0</ele><time>2026-05-04T09:58:23.001Z</time></trkpt><trkpt lat="41.65503523188801" lon="-0.7990146343144321"><ele>196.0</ele><time>2026-05-04T09:58:24.001Z</time></trkpt><trkpt lat="41.654953982764845" lon="-0.7989187032114867"><ele>195.0</ele><time>2026-05-04T09:58:25.001Z</time></trkpt><trkpt lat="41.65487143475655" lon="-0.7988197805552028"><ele>194.0</ele><time>2026-05-04T09:58:26.001Z</time></trkpt><trkpt lat="41.654792293526995" lon="-0.7987236288185008"><ele>193.0</ele><time>2026-05-04T09:58:27.001Z</time></trkpt><trkpt lat="41.654713833437576" lon="-0.7986311847799882"><ele>193.0</ele><time>2026-05-04T09:58:28.001Z</time></trkpt><trkpt lat="41.65463895330441" lon="-0.7985335906880061"><ele>193.0</ele><time>2026-05-04T09:58:29.001Z</time></trkpt><trkpt lat="41.65456493725092" lon="-0.7984400436605092"><ele>193.0</ele><time>2026-05-04T09:58:30.001Z</time></trkpt><trkpt lat="41.65448497975448" lon="-0.7983469076205475"><ele>193.0</ele><time>2026-05-04T09:58:31.001Z</time></trkpt><trkpt lat="41.65440493556382" lon="-0.7982533184340602"><ele>193.0</ele><time>2026-05-04T09:58:32.001Z</time></trkpt><trkpt lat="41.65432138536413" lon="-0.7981593579423263"><ele>193.4</ele><time>2026-05-04T09:58:33.001Z</time></trkpt><trkpt lat="41.654238213614796" lon="-0.7980616339770675"><ele>193.8</ele><time>2026-05-04T09:58:34.001Z</time></trkpt><trkpt lat="41.65415625360848" lon="-0.7979641715376684"><ele>194.2</ele><time>2026-05-04T09:58:35.001Z</time></trkpt><trkpt lat="41.654074518422775" lon="-0.7978639332452797"><ele>194.6</ele><time>2026-05-04T09:58:36.001Z</time></trkpt><trkpt lat="41.65399454831042" lon="-0.7977650964351969"><ele>195.0</ele><time>2026-05-04T09:58:37.001Z</time></trkpt><trkpt lat="41.65391434601992" lon="-0.7976647933798315"><ele>195.0</ele><time>2026-05-04T09:58:38.001Z</time></trkpt><trkpt lat="41.65383527774047" lon="-0.7975700407610307"><ele>195.0</ele><time>2026-05-04T09:58:39.001Z</time></trkpt><trkpt lat="41.65375132868096" lon="-0.7974700448354264"><ele>195.0</ele><time>2026-05-04T09:58:40.001Z</time></trkpt><trkpt lat="41.653666349572916" lon="-0.7973675118171728"><ele>195.0</ele><time>2026-05-04T09:58:41.001Z</time></trkpt><trkpt lat="41.653587210019595" lon="-0.7972636624349703"><ele>195.0</ele><time>2026-05-04T09:58:42.001Z</time></trkpt><trkpt lat="41.653506227137285" lon="-0.7971618282701167"><ele>195.0</ele><time>2026-05-04T09:58:43.001Z</time></trkpt><trkpt lat="41.65343039499579" lon="-0.7970553066662116"><ele>195.0</ele><time>2026-05-04T09:58:44.001Z</time></trkpt><trkpt lat="41.65335280091122" lon="-0.7969416755485116"><ele>195.0</ele><time>2026-05-04T09:58:45.001Z</time></trkpt><trkpt lat="41.65328066587412" lon="-0.7968388352704812"><ele>195.0</ele><time>2026-05-04T09:58:46.001Z</time></trkpt><trkpt lat="41.653203353592545" lon="-0.7967370953547737"><ele>195.0</ele><time>2026-05-04T09:58:47.001Z</time></trkpt><trkpt lat="41.65313218911469" lon="-0.7966140955573163"><ele>195.75</ele><time>2026-05-04T09:58:48.001Z</time></trkpt><trkpt lat="41.653061098125924" lon="-0.7965123454923597"><ele>196.5</ele><time>2026-05-04T09:58:49.001Z</time></trkpt><trkpt lat="41.65299400247827" lon="-0.796439629988595"><ele>197.25</ele><time>2026-05-04T09:58:51.001Z</time></trkpt><trkpt lat="41.65284006553175" lon="-0.7961849889832858"><ele>198.0</ele><time>2026-05-04T09:58:52.001Z</time></trkpt><trkpt lat="41.6526668028775" lon="-0.7959588358366478"><ele>198.0</ele><time>2026-05-04T09:58:53.001Z</time></trkpt><trkpt lat="41.652598842391946" lon="-0.7958356802225348"><ele>198.0</ele><time>2026-05-04T09:58:55.001Z</time></trkpt><trkpt lat="41.652522452963915" lon="-0.795725464130732"><ele>198.0</ele><time>2026-05-04T09:58:56.001Z</time></trkpt><trkpt lat="41.652445332920244" lon="-0.7956132221583547"><ele>198.0</ele><time>2026-05-04T09:58:57.001Z</time></trkpt><trkpt lat="41.6523683055431" lon="-0.7955040953366834"><ele>198.0</ele><time>2026-05-04T09:58:58.001Z</time></trkpt><trkpt lat="41.65229321107659" lon="-0.7953911216429296"><ele>198.0</ele><time>2026-05-04T09:58:59.001Z</time></trkpt><trkpt lat="41.652222388603356" lon="-0.7952793525203535"><ele>198.0</ele><time>2026-05-04T09:59:00.001Z</time></trkpt><trkpt lat="41.65214494377113" lon="-0.7951705814288319"><ele>198.0</ele><time>2026-05-04T09:59:01.001Z</time></trkpt><trkpt lat="41.65207127579423" lon="-0.7950578570206377"><ele>198.0</ele><time>2026-05-04T09:59:02.001Z</time></trkpt><trkpt lat="41.65199549296716" lon="-0.7949502116072911"><ele>197.4</ele><time>2026-05-04T09:59:03.001Z</time></trkpt><trkpt lat="41.651919214472066" lon="-0.7948374790395771"><ele>196.8</ele><time>2026-05-04T09:59:04.001Z</time></trkpt><trkpt lat="41.65184569344989" lon="-0.7947256277743219"><ele>196.2</ele><time>2026-05-04T09:59:05.001Z</time></trkpt><trkpt lat="41.65176875659443" lon="-0.7946145252780236"><ele>195.6</ele><time>2026-05-04T09:59:06.001Z</time></trkpt><trkpt lat="41.65169328269536" lon="-0.7945099292712714"><ele>195.0</ele><time>2026-05-04T09:59:07.001Z</time></trkpt><trkpt lat="41.65161875294683" lon="-0.7944031599792606"><ele>196.0</ele><time>2026-05-04T09:59:08.001Z</time></trkpt><trkpt lat="41.651544692393166" lon="-0.794296132543433"><ele>197.0</ele><time>2026-05-04T09:59:09.001Z</time></trkpt><trkpt lat="41.65147177472475" lon="-0.7941825615053946"><ele>198.0</ele><time>2026-05-04T09:59:10.001Z</time></trkpt><trkpt lat="41.65139452649724" lon="-0.79407674552368"><ele>199.0</ele><time>2026-05-04T09:59:11.001Z</time></trkpt><trkpt lat="41.65131977948222" lon="-0.7939620066125715"><ele>200.0</ele><time>2026-05-04T09:59:12.001Z</time></trkpt><trkpt lat="41.65124608951632" lon="-0.7938500588594571"><ele>200.0</ele><time>2026-05-04T09:59:13.001Z</time></trkpt><trkpt lat="41.65117067525047" lon="-0.7937434538796623"><ele>200.0</ele><time>2026-05-04T09:59:14.001Z</time></trkpt><trkpt lat="41.65109258357119" lon="-0.7936402099767796"><ele>200.0</ele><time>2026-05-04T09:59:15.001Z</time></trkpt><trkpt lat="41.651018999883384" lon="-0.7935309069856592"><ele>200.0</ele><time>2026-05-04T09:59:16.001Z</time></trkpt><trkpt lat="41.650948088231736" lon="-0.7934221413077402"><ele>200.0</ele><time>2026-05-04T09:59:17.001Z</time></trkpt><trkpt lat="41.65087321432731" lon="-0.793312928785154"><ele>199.2</ele><time>2026-05-04T09:59:18.001Z</time></trkpt><trkpt lat="41.6507982831685" lon="-0.7932054773537212"><ele>198.4</ele><time>2026-05-04T09:59:19.001Z</time></trkpt><trkpt lat="41.65072371337814" lon="-0.7930952388842116"><ele>197.60000000000002</ele><time>2026-05-04T09:59:20.001Z</time></trkpt><trkpt lat="41.65065005396106" lon="-0.7929839129373215"><ele>196.8</ele><time>2026-05-04T09:59:21.001Z</time></trkpt><trkpt lat="41.650573263040066" lon="-0.7928767782928393"><ele>196.0</ele><time>2026-05-04T09:59:22.001Z</time></trkpt><trkpt lat="41.65050047419523" lon="-0.7927684477255319"><ele>195.20000000000002</ele><time>2026-05-04T09:59:23.001Z</time></trkpt><trkpt lat="41.650428704755576" lon="-0.792658223690891"><ele>194.4</ele><time>2026-05-04T09:59:24.001Z</time></trkpt><trkpt lat="41.65035644514396" lon="-0.7925472034050617"><ele>193.6</ele><time>2026-05-04T09:59:25.001Z</time></trkpt><trkpt lat="41.65028568375531" lon="-0.7924330668179739"><ele>192.8</ele><time>2026-05-04T09:59:26.001Z</time></trkpt><trkpt lat="41.65021405863467" lon="-0.7923173997172948"><ele>192.0</ele><time>2026-05-04T09:59:27.001Z</time></trkpt><trkpt lat="41.650145896723885" lon="-0.7922012406604079"><ele>192.0</ele><time>2026-05-04T09:59:28.001Z</time></trkpt><trkpt lat="41.650078592214996" lon="-0.7920610460008551"><ele>192.0</ele><time>2026-05-04T09:59:29.001Z</time></trkpt><trkpt lat="41.64998468980226" lon="-0.7918622654461622"><ele>192.0</ele><time>2026-05-04T09:59:30.001Z</time></trkpt><trkpt lat="41.64991091159073" lon="-0.7916762917273047"><ele>193.0</ele><time>2026-05-04T09:59:32.001Z</time></trkpt><trkpt lat="41.649856812635434" lon="-0.7915433262061781"><ele>194.0</ele><time>2026-05-04T09:59:33.001Z</time></trkpt><trkpt lat="41.6498064851807" lon="-0.7914091197323502"><ele>195.0</ele><time>2026-05-04T09:59:34.001Z</time></trkpt><trkpt lat="41.649759241207285" lon="-0.791274818538488"><ele>196.0</ele><time>2026-05-04T09:59:35.001Z</time></trkpt><trkpt lat="41.64971145905193" lon="-0.7911369928944918"><ele>197.5</ele><time>2026-05-04T09:59:36.001Z</time></trkpt><trkpt lat="41.64966195586473" lon="-0.7909989471269173"><ele>199.0</ele><time>2026-05-04T09:59:37.001Z</time></trkpt><trkpt lat="41.64961350989858" lon="-0.790859003676641"><ele>200.5</ele><time>2026-05-04T09:59:38Z</time></trkpt><trkpt lat="41.64956549185462" lon="-0.7907240623320619"><ele>202.0</ele><time>2026-05-04T09:59:39Z</time></trkpt><trkpt lat="41.64951748293646" lon="-0.7905856298905873"><ele>202.0</ele><time>2026-05-04T09:59:40Z</time></trkpt><trkpt lat="41.649468824685194" lon="-0.7904489644487137"><ele>202.0</ele><time>2026-05-04T09:59:41Z</time></trkpt><trkpt lat="41.649419921055475" lon="-0.7903195048407993"><ele>202.0</ele><time>2026-05-04T09:59:42Z</time></trkpt><trkpt lat="41.64937289862947" lon="-0.7901865634143455"><ele>202.0</ele><time>2026-05-04T09:59:43Z</time></trkpt><trkpt lat="41.649324510799474" lon="-0.7900531122119665"><ele>202.0</ele><time>2026-05-04T09:59:44Z</time></trkpt><trkpt lat="41.64927683559123" lon="-0.7899135343708781"><ele>201.2</ele><time>2026-05-04T09:59:45Z</time></trkpt><trkpt lat="41.64923084183077" lon="-0.7897840461951467"><ele>200.39999999999998</ele><time>2026-05-04T09:59:46Z</time></trkpt><trkpt lat="41.649185035264" lon="-0.7896549616408733"><ele>199.60000000000002</ele><time>2026-05-04T09:59:47Z</time></trkpt><trkpt lat="41.64914137496119" lon="-0.7895247929574812"><ele>198.8</ele><time>2026-05-04T09:59:48Z</time></trkpt><trkpt lat="41.64909905838135" lon="-0.7893905285677377"><ele>198.0</ele><time>2026-05-04T09:59:49Z</time></trkpt><trkpt lat="41.64905392720496" lon="-0.7892597260079864"><ele>198.0</ele><time>2026-05-04T09:59:50Z</time></trkpt><trkpt lat="41.64899877943251" lon="-0.7891328685212936"><ele>198.0</ele><time>2026-05-04T09:59:51Z</time></trkpt><trkpt lat="41.64894716045706" lon="-0.7890082541127578"><ele>198.0</ele><time>2026-05-04T09:59:52Z</time></trkpt><trkpt lat="41.648908525649645" lon="-0.7888705110516254"><ele>198.0</ele><time>2026-05-04T09:59:53Z</time></trkpt><trkpt lat="41.648862729899086" lon="-0.7887356024387576"><ele>198.0</ele><time>2026-05-04T09:59:54Z</time></trkpt><trkpt lat="41.64881063751916" lon="-0.7886050017411992"><ele>199.75</ele><time>2026-05-04T09:59:55Z</time></trkpt><trkpt lat="41.64875476592709" lon="-0.7884721210875184"><ele>201.5</ele><time>2026-05-04T09:59:56Z</time></trkpt><trkpt lat="41.64870566348935" lon="-0.7883370525133789"><ele>203.25</ele><time>2026-05-04T09:59:57Z</time></trkpt><trkpt lat="41.64865612854802" lon="-0.7882019665560724"><ele>205.0</ele><time>2026-05-04T09:59:58Z</time></trkpt><trkpt lat="41.648603809610314" lon="-0.7880655716257545"><ele>203.0</ele><time>2026-05-04T09:59:59Z</time></trkpt><trkpt lat="41.648555889172236" lon="-0.7879277439523673"><ele>201.0</ele><time>2026-05-04T10:00:00Z</time></trkpt><trkpt lat="41.6485068769152" lon="-0.787789794541586"><ele>199.0</ele><time>2026-05-04T10:00:01Z</time></trkpt><trkpt lat="41.64845879525197" lon="-0.7876553518989615"><ele>197.0</ele><time>2026-05-04T10:00:02Z</time></trkpt><trkpt lat="41.64840409019362" lon="-0.7875177257148568"><ele>197.0</ele><time>2026-05-04T10:00:03Z</time></trkpt><trkpt lat="41.648344110414044" lon="-0.7873843667276206"><ele>197.0</ele><time>2026-05-04T10:00:04Z</time></trkpt><trkpt lat="41.6482762240466" lon="-0.7872677152679485"><ele>197.0</ele><time>2026-05-04T10:00:05Z</time></trkpt><trkpt lat="41.64820925070617" lon="-0.7871353978558578"><ele>197.0</ele><time>2026-05-04T10:00:06Z</time></trkpt><trkpt lat="41.64812456864437" lon="-0.7870248019471558"><ele>197.0</ele><time>2026-05-04T10:00:07Z</time></trkpt><trkpt lat="41.64804345878501" lon="-0.7869176637409999"><ele>197.0</ele><time>2026-05-04T10:00:08Z</time></trkpt><trkpt lat="41.64797392670858" lon="-0.7868148018006099"><ele>197.0</ele><time>2026-05-04T10:00:09Z</time></trkpt><trkpt lat="41.64790053004104" lon="-0.7867053471255807"><ele>197.0</ele><time>2026-05-04T10:00:10Z</time></trkpt><trkpt lat="41.64783068271717" lon="-0.7865927423155524"><ele>197.0</ele><time>2026-05-04T10:00:11Z</time></trkpt><trkpt lat="41.64775642530482" lon="-0.7864858301594956"><ele>197.0</ele><time>2026-05-04T10:00:12Z</time></trkpt><trkpt lat="41.64768212885587" lon="-0.7863811653258539"><ele>197.0</ele><time>2026-05-04T10:00:13Z</time></trkpt><trkpt lat="41.64761163976609" lon="-0.7862709305423321"><ele>197.0</ele><time>2026-05-04T10:00:14Z</time></trkpt><trkpt lat="41.64754251709699" lon="-0.7861576738962297"><ele>197.0</ele><time>2026-05-04T10:00:15Z</time></trkpt><trkpt lat="41.64747129962878" lon="-0.7860484893263091"><ele>197.0</ele><time>2026-05-04T10:00:16Z</time></trkpt><trkpt lat="41.64739854370176" lon="-0.7859435837503521"><ele>197.0</ele><time>2026-05-04T10:00:17Z</time></trkpt><trkpt lat="41.647326244922546" lon="-0.7858349590189692"><ele>197.0</ele><time>2026-05-04T10:00:18Z</time></trkpt><trkpt lat="41.64725926637531" lon="-0.7857216528772744"><ele>197.0</ele><time>2026-05-04T10:00:19Z</time></trkpt><trkpt lat="41.647192838381656" lon="-0.785606244515386"><ele>197.0</ele><time>2026-05-04T10:00:20Z</time></trkpt><trkpt lat="41.647136093381846" lon="-0.7854823655209148"><ele>197.0</ele><time>2026-05-04T10:00:21Z</time></trkpt><trkpt lat="41.6470845259637" lon="-0.7853510698029369"><ele>197.0</ele><time>2026-05-04T10:00:22Z</time></trkpt><trkpt lat="41.64703205729612" lon="-0.7852190843094405"><ele>197.0</ele><time>2026-05-04T10:00:23Z</time></trkpt><trkpt lat="41.64697558982405" lon="-0.7850909757366483"><ele>197.0</ele><time>2026-05-04T10:00:24Z</time></trkpt><trkpt lat="41.646924739270794" lon="-0.7849582404883206"><ele>197.0</ele><time>2026-05-04T10:00:25Z</time></trkpt><trkpt lat="41.64687262792793" lon="-0.7848245845320484"><ele>197.0</ele><time>2026-05-04T10:00:26Z</time></trkpt><trkpt lat="41.646810955737855" lon="-0.7846958447946859"><ele>196.2</ele><time>2026-05-04T10:00:27Z</time></trkpt><trkpt lat="41.64675415400297" lon="-0.784568350886533"><ele>195.39999999999998</ele><time>2026-05-04T10:00:28Z</time></trkpt><trkpt lat="41.64669393613089" lon="-0.7844375240183763"><ele>194.60000000000002</ele><time>2026-05-04T10:00:29Z</time></trkpt><trkpt lat="41.64665074048012" lon="-0.7843059975642979"><ele>193.8</ele><time>2026-05-04T10:00:30Z</time></trkpt><trkpt lat="41.646603638077664" lon="-0.784175127157322"><ele>193.0</ele><time>2026-05-04T10:00:31Z</time></trkpt><trkpt lat="41.64654141494613" lon="-0.7840436207168544"><ele>193.0</ele><time>2026-05-04T10:00:32Z</time></trkpt><trkpt lat="41.64648520404538" lon="-0.7839092267000707"><ele>193.0</ele><time>2026-05-04T10:00:33Z</time></trkpt><trkpt lat="41.64643306702627" lon="-0.7837751675836011"><ele>193.0</ele><time>2026-05-04T10:00:34Z</time></trkpt><trkpt lat="41.64637594389126" lon="-0.7836413603773755"><ele>193.0</ele><time>2026-05-04T10:00:35Z</time></trkpt><trkpt lat="41.646325603174844" lon="-0.7835072169782369"><ele>191.75</ele><time>2026-05-04T10:00:36Z</time></trkpt><trkpt lat="41.64626793514521" lon="-0.7833775782864567"><ele>190.5</ele><time>2026-05-04T10:00:37.001Z</time></trkpt><trkpt lat="41.64621393300335" lon="-0.7832436906276453"><ele>189.25</ele><time>2026-05-04T10:00:38.001Z</time></trkpt><trkpt lat="41.64615870084148" lon="-0.7831055702568734"><ele>188.0</ele><time>2026-05-04T10:00:39.001Z</time></trkpt><trkpt lat="41.646104186708044" lon="-0.7829725992454801"><ele>188.0</ele><time>2026-05-04T10:00:40.001Z</time></trkpt><trkpt lat="41.64604931784225" lon="-0.7828394603613098"><ele>188.0</ele><time>2026-05-04T10:00:41.001Z</time></trkpt><trkpt lat="41.64599437887118" lon="-0.7827045102142065"><ele>188.0</ele><time>2026-05-04T10:00:42.001Z</time></trkpt><trkpt lat="41.64593939445341" lon="-0.7825715929612871"><ele>188.0</ele><time>2026-05-04T10:00:43.001Z</time></trkpt><trkpt lat="41.64588498666619" lon="-0.7824350307473185"><ele>189.5</ele><time>2026-05-04T10:00:44.001Z</time></trkpt><trkpt lat="41.645831793943714" lon="-0.7822997590136476"><ele>191.0</ele><time>2026-05-04T10:00:45.001Z</time></trkpt><trkpt lat="41.645775336890054" lon="-0.7821610399908306"><ele>192.5</ele><time>2026-05-04T10:00:46.001Z</time></trkpt><trkpt lat="41.645720864855306" lon="-0.7820282057576798"><ele>194.0</ele><time>2026-05-04T10:00:47.001Z</time></trkpt><trkpt lat="41.64566612768567" lon="-0.7818930368782778"><ele>195.0</ele><time>2026-05-04T10:00:48.001Z</time></trkpt><trkpt lat="41.645614123406" lon="-0.7817559935217351"><ele>196.0</ele><time>2026-05-04T10:00:49.001Z</time></trkpt><trkpt lat="41.645559975351276" lon="-0.7816224692818986"><ele>197.0</ele><time>2026-05-04T10:00:50.001Z</time></trkpt><trkpt lat="41.64550463180655" lon="-0.7814892786628699"><ele>198.0</ele><time>2026-05-04T10:00:51.001Z</time></trkpt><trkpt lat="41.645450421188535" lon="-0.7813560716001287"><ele>198.0</ele><time>2026-05-04T10:00:52.001Z</time></trkpt><trkpt lat="41.64539393054721" lon="-0.781212888042582"><ele>198.0</ele><time>2026-05-04T10:00:53.001Z</time></trkpt><trkpt lat="41.64534114548959" lon="-0.7810749191692276"><ele>198.0</ele><time>2026-05-04T10:00:54.001Z</time></trkpt><trkpt lat="41.64527683642596" lon="-0.7809696391747838"><ele>198.0</ele><time>2026-05-04T10:00:55.001Z</time></trkpt><trkpt lat="41.645229591285364" lon="-0.7808182287047865"><ele>196.25</ele><time>2026-05-04T10:00:56.001Z</time></trkpt><trkpt lat="41.64517408768457" lon="-0.7806835421963427"><ele>194.5</ele><time>2026-05-04T10:00:57.001Z</time></trkpt><trkpt lat="41.64511356455708" lon="-0.7805521791323016"><ele>192.75</ele><time>2026-05-04T10:00:58.001Z</time></trkpt><trkpt lat="41.64505634376202" lon="-0.78042121408136"><ele>191.0</ele><time>2026-05-04T10:00:59.001Z</time></trkpt><trkpt lat="41.645003828966914" lon="-0.780288145509329"><ele>192.5</ele><time>2026-05-04T10:01:00.001Z</time></trkpt><trkpt lat="41.644947385895534" lon="-0.7801532312383759"><ele>194.0</ele><time>2026-05-04T10:01:01.001Z</time></trkpt><trkpt lat="41.64489237802634" lon="-0.78002001279716"><ele>195.5</ele><time>2026-05-04T10:01:02.001Z</time></trkpt><trkpt lat="41.64483913256206" lon="-0.7798894577108404"><ele>197.0</ele><time>2026-05-04T10:01:03.001Z</time></trkpt><trkpt lat="41.64478813497701" lon="-0.77975817157555"><ele>197.0</ele><time>2026-05-04T10:01:04.001Z</time></trkpt><trkpt lat="41.64473062787587" lon="-0.7796271632988286"><ele>197.0</ele><time>2026-05-04T10:01:05.001Z</time></trkpt><trkpt lat="41.644671621608666" lon="-0.7795001174729637"><ele>197.0</ele><time>2026-05-04T10:01:06.001Z</time></trkpt><trkpt lat="41.64461341853031" lon="-0.7793703318943882"><ele>197.0</ele><time>2026-05-04T10:01:07.001Z</time></trkpt><trkpt lat="41.644560012128714" lon="-0.7792417972719634"><ele>197.0</ele><time>2026-05-04T10:01:08.001Z</time></trkpt><trkpt lat="41.644506326623585" lon="-0.7791126541476617"><ele>195.8</ele><time>2026-05-04T10:01:09.001Z</time></trkpt><trkpt lat="41.64445401619874" lon="-0.778979406053864"><ele>194.6</ele><time>2026-05-04T10:01:10.001Z</time></trkpt><trkpt lat="41.644401125094056" lon="-0.7788506563665363"><ele>193.4</ele><time>2026-05-04T10:01:11.001Z</time></trkpt><trkpt lat="41.644346721716296" lon="-0.7787169361076338"><ele>192.20000000000002</ele><time>2026-05-04T10:01:12.001Z</time></trkpt><trkpt lat="41.64429139485209" lon="-0.7785868398726534"><ele>191.0</ele><time>2026-05-04T10:01:13.001Z</time></trkpt><trkpt lat="41.64424011853577" lon="-0.7784555084902113"><ele>191.0</ele><time>2026-05-04T10:01:14.001Z</time></trkpt><trkpt lat="41.64418723811564" lon="-0.7783208296455464"><ele>191.0</ele><time>2026-05-04T10:01:15.001Z</time></trkpt><trkpt lat="41.644133882868516" lon="-0.7781924916603812"><ele>191.0</ele><time>2026-05-04T10:01:16.001Z</time></trkpt><trkpt lat="41.64408284267827" lon="-0.7780577331981066"><ele>191.0</ele><time>2026-05-04T10:01:17.001Z</time></trkpt><trkpt lat="41.644033258494254" lon="-0.7779294203133742"><ele>191.0</ele><time>2026-05-04T10:01:18.001Z</time></trkpt><trkpt lat="41.643979462982344" lon="-0.7777953691382781"><ele>191.60000000000002</ele><time>2026-05-04T10:01:19.001Z</time></trkpt><trkpt lat="41.643935617980446" lon="-0.7776575992174739"><ele>192.2</ele><time>2026-05-04T10:01:20.001Z</time></trkpt><trkpt lat="41.643894433399254" lon="-0.7775193208618434"><ele>192.8</ele><time>2026-05-04T10:01:21.001Z</time></trkpt><trkpt lat="41.643856682007716" lon="-0.7773799345920619"><ele>193.39999999999998</ele><time>2026-05-04T10:01:22.001Z</time></trkpt><trkpt lat="41.643816920846106" lon="-0.7772434099008974"><ele>194.0</ele><time>2026-05-04T10:01:23.001Z</time></trkpt><trkpt lat="41.64378090352367" lon="-0.7770889331914962"><ele>194.0</ele><time>2026-05-04T10:01:24.001Z</time></trkpt><trkpt lat="41.643739541410724" lon="-0.7769123544671455"><ele>194.0</ele><time>2026-05-04T10:01:25.001Z</time></trkpt><trkpt lat="41.64369946091592" lon="-0.7768223626001721"><ele>194.0</ele><time>2026-05-04T10:01:26.001Z</time></trkpt><trkpt lat="41.64363977469353" lon="-0.7767555827381317"><ele>194.0</ele><time>2026-05-04T10:01:28.001Z</time></trkpt><trkpt lat="41.6435744303765" lon="-0.7766754886323659"><ele>194.0</ele><time>2026-05-04T10:01:30.001Z</time></trkpt><trkpt lat="41.64351761874392" lon="-0.7765374618045207"><ele>192.5</ele><time>2026-05-04T10:01:32.001Z</time></trkpt><trkpt lat="41.643427693875154" lon="-0.7761435671307694"><ele>191.0</ele><time>2026-05-04T10:01:33.001Z</time></trkpt><trkpt lat="41.64338959280949" lon="-0.7756906859972181"><ele>191.0</ele><time>2026-05-04T10:01:34.001Z</time></trkpt><trkpt lat="41.64334577391664" lon="-0.7755505452576372"><ele>191.0</ele><time>2026-05-04T10:01:35.001Z</time></trkpt><trkpt lat="41.643303537216916" lon="-0.7754079027502306"><ele>191.0</ele><time>2026-05-04T10:01:36.001Z</time></trkpt><trkpt lat="41.643267175333406" lon="-0.7752694922340069"><ele>191.0</ele><time>2026-05-04T10:01:37.001Z</time></trkpt><trkpt lat="41.643226546238104" lon="-0.7751309935050131"><ele>191.0</ele><time>2026-05-04T10:01:38.001Z</time></trkpt><trkpt lat="41.64318838617793" lon="-0.7749895081328299"><ele>191.0</ele><time>2026-05-04T10:01:39.001Z</time></trkpt><trkpt lat="41.643154058879034" lon="-0.7748492492464426"><ele>191.0</ele><time>2026-05-04T10:01:40.001Z</time></trkpt><trkpt lat="41.64312075673851" lon="-0.7747087619802853"><ele>191.0</ele><time>2026-05-04T10:01:41.001Z</time></trkpt><trkpt lat="41.64306609138706" lon="-0.7745754091163698"><ele>191.0</ele><time>2026-05-04T10:01:42.001Z</time></trkpt><trkpt lat="41.64302653638871" lon="-0.7744344143395567"><ele>191.0</ele><time>2026-05-04T10:01:43.001Z</time></trkpt><trkpt lat="41.64298636292464" lon="-0.7742912149887323"><ele>190.60000000000002</ele><time>2026-05-04T10:01:44Z</time></trkpt><trkpt lat="41.642950852937304" lon="-0.7741482945580095"><ele>190.2</ele><time>2026-05-04T10:01:45Z</time></trkpt><trkpt lat="41.642912296199135" lon="-0.7740071792828125"><ele>189.8</ele><time>2026-05-04T10:01:46Z</time></trkpt><trkpt lat="41.642872991770886" lon="-0.7738680287584746"><ele>189.39999999999998</ele><time>2026-05-04T10:01:47Z</time></trkpt><trkpt lat="41.64283209072167" lon="-0.7737264924035621"><ele>189.0</ele><time>2026-05-04T10:01:48Z</time></trkpt><trkpt lat="41.6427965816809" lon="-0.7735813647158497"><ele>189.6</ele><time>2026-05-04T10:01:49Z</time></trkpt><trkpt lat="41.642754811882746" lon="-0.7734453304005281"><ele>190.2</ele><time>2026-05-04T10:01:50Z</time></trkpt><trkpt lat="41.64271596433782" lon="-0.7733049064302749"><ele>190.79999999999998</ele><time>2026-05-04T10:01:51Z</time></trkpt><trkpt lat="41.64267854228648" lon="-0.7731676228551472"><ele>191.39999999999998</ele><time>2026-05-04T10:01:52Z</time></trkpt><trkpt lat="41.6426357792363" lon="-0.7730338746959884"><ele>192.0</ele><time>2026-05-04T10:01:53Z</time></trkpt><trkpt lat="41.64259523313494" lon="-0.772897318751714"><ele>192.0</ele><time>2026-05-04T10:01:54Z</time></trkpt><trkpt lat="41.64255484157748" lon="-0.7727610812205963"><ele>192.0</ele><time>2026-05-04T10:01:55Z</time></trkpt><trkpt lat="41.642512843182786" lon="-0.7726198900141992"><ele>192.0</ele><time>2026-05-04T10:01:56Z</time></trkpt><trkpt lat="41.64247425187156" lon="-0.7724801209486594"><ele>192.0</ele><time>2026-05-04T10:01:57Z</time></trkpt><trkpt lat="41.64243705782523" lon="-0.7723354053956378"><ele>192.0</ele><time>2026-05-04T10:01:58Z</time></trkpt><trkpt lat="41.64239725994393" lon="-0.772195518293859"><ele>191.8</ele><time>2026-05-04T10:01:59Z</time></trkpt><trkpt lat="41.64236533573108" lon="-0.7720526096650515"><ele>191.6</ele><time>2026-05-04T10:02:00Z</time></trkpt><trkpt lat="41.64232683604729" lon="-0.7719115882729009"><ele>191.4</ele><time>2026-05-04T10:02:01Z</time></trkpt><trkpt lat="41.64229001402912" lon="-0.7717786346496213"><ele>191.20000000000002</ele><time>2026-05-04T10:02:02Z</time></trkpt><trkpt lat="41.642247750507984" lon="-0.771645592100316"><ele>191.0</ele><time>2026-05-04T10:02:03Z</time></trkpt><trkpt lat="41.64221027167019" lon="-0.7715096546133058"><ele>192.0</ele><time>2026-05-04T10:02:04Z</time></trkpt><trkpt lat="41.64216861737929" lon="-0.7713733646930692"><ele>193.0</ele><time>2026-05-04T10:02:05Z</time></trkpt><trkpt lat="41.642127049675146" lon="-0.7712378376177286"><ele>194.0</ele><time>2026-05-04T10:02:06Z</time></trkpt><trkpt lat="41.64207943128765" lon="-0.7711042050077496"><ele>195.0</ele><time>2026-05-04T10:02:07Z</time></trkpt><trkpt lat="41.642027238828476" lon="-0.7709767785494536"><ele>196.0</ele><time>2026-05-04T10:02:08Z</time></trkpt><trkpt lat="41.64197139063741" lon="-0.7708475489373352"><ele>195.60000000000002</ele><time>2026-05-04T10:02:09Z</time></trkpt><trkpt lat="41.64191302248929" lon="-0.770729632388641"><ele>195.2</ele><time>2026-05-04T10:02:10Z</time></trkpt><trkpt lat="41.641849116595736" lon="-0.7706022392207539"><ele>194.8</ele><time>2026-05-04T10:02:11Z</time></trkpt><trkpt lat="41.64178747100724" lon="-0.7704801098325461"><ele>194.39999999999998</ele><time>2026-05-04T10:02:12Z</time></trkpt><trkpt lat="41.64172256971562" lon="-0.7703594748945811"><ele>194.0</ele><time>2026-05-04T10:02:13Z</time></trkpt><trkpt lat="41.64165666661514" lon="-0.7702332003931096"><ele>193.79999999999998</ele><time>2026-05-04T10:02:14Z</time></trkpt><trkpt lat="41.64159264724209" lon="-0.770116774708094"><ele>193.6</ele><time>2026-05-04T10:02:15Z</time></trkpt><trkpt lat="41.641529706249464" lon="-0.7699967579334147"><ele>193.4</ele><time>2026-05-04T10:02:16Z</time></trkpt><trkpt lat="41.64146573976086" lon="-0.7698754047908343"><ele>193.2</ele><time>2026-05-04T10:02:17Z</time></trkpt><trkpt lat="41.64140108521032" lon="-0.7697549184693355"><ele>193.0</ele><time>2026-05-04T10:02:18Z</time></trkpt><trkpt lat="41.64134036984067" lon="-0.7696309832203717"><ele>193.0</ele><time>2026-05-04T10:02:19Z</time></trkpt><trkpt lat="41.641276462444196" lon="-0.7695105927883278"><ele>193.0</ele><time>2026-05-04T10:02:20Z</time></trkpt><trkpt lat="41.64121178613541" lon="-0.7693935395266498"><ele>193.0</ele><time>2026-05-04T10:02:21Z</time></trkpt><trkpt lat="41.64114802854188" lon="-0.7692721640999436"><ele>193.0</ele><time>2026-05-04T10:02:22Z</time></trkpt><trkpt lat="41.64108448310946" lon="-0.7691524429749005"><ele>193.0</ele><time>2026-05-04T10:02:23Z</time></trkpt><trkpt lat="41.64102086197093" lon="-0.7690341224150503"><ele>193.0</ele><time>2026-05-04T10:02:24Z</time></trkpt><trkpt lat="41.64095818896274" lon="-0.7689133949349259"><ele>193.0</ele><time>2026-05-04T10:02:25Z</time></trkpt><trkpt lat="41.640895163672084" lon="-0.7687927219700887"><ele>193.0</ele><time>2026-05-04T10:02:26Z</time></trkpt><trkpt lat="41.640832872704344" lon="-0.7686736975932094"><ele>193.0</ele><time>2026-05-04T10:02:27Z</time></trkpt><trkpt lat="41.640768970914124" lon="-0.768554222587633"><ele>193.0</ele><time>2026-05-04T10:02:28Z</time></trkpt><trkpt lat="41.640706606045555" lon="-0.768433896736331"><ele>193.0</ele><time>2026-05-04T10:02:29Z</time></trkpt><trkpt lat="41.64064202486081" lon="-0.7683134834172215"><ele>193.0</ele><time>2026-05-04T10:02:30Z</time></trkpt><trkpt lat="41.64057667897837" lon="-0.76819090677149"><ele>193.0</ele><time>2026-05-04T10:02:31Z</time></trkpt><trkpt lat="41.64051452093472" lon="-0.768068562154881"><ele>193.0</ele><time>2026-05-04T10:02:32Z</time></trkpt><trkpt lat="41.64044559609142" lon="-0.767942477231476"><ele>193.0</ele><time>2026-05-04T10:02:33Z</time></trkpt><trkpt lat="41.640380877229404" lon="-0.7678269366288105"><ele>193.0</ele><time>2026-05-04T10:02:34Z</time></trkpt><trkpt lat="41.64032295398423" lon="-0.767712029927925"><ele>193.0</ele><time>2026-05-04T10:02:35Z</time></trkpt><trkpt lat="41.64025394948528" lon="-0.767581621185153"><ele>193.0</ele><time>2026-05-04T10:02:36Z</time></trkpt><trkpt lat="41.640193718020164" lon="-0.7674563034944244"><ele>193.0</ele><time>2026-05-04T10:02:37Z</time></trkpt><trkpt lat="41.64013626321238" lon="-0.7673313605874926"><ele>193.25</ele><time>2026-05-04T10:02:38Z</time></trkpt><trkpt lat="41.64006250562818" lon="-0.7672068186916385"><ele>193.5</ele><time>2026-05-04T10:02:39Z</time></trkpt><trkpt lat="41.639993828485686" lon="-0.7670860390537179"><ele>193.75</ele><time>2026-05-04T10:02:40Z</time></trkpt><trkpt lat="41.63992716780432" lon="-0.7669609285442882"><ele>194.0</ele><time>2026-05-04T10:02:41Z</time></trkpt><trkpt lat="41.63986442223254" lon="-0.7668339881714246"><ele>194.0</ele><time>2026-05-04T10:02:42Z</time></trkpt><trkpt lat="41.63979903983616" lon="-0.7667087852692384"><ele>194.0</ele><time>2026-05-04T10:02:43Z</time></trkpt><trkpt lat="41.63973745870654" lon="-0.7665815697534089"><ele>194.0</ele><time>2026-05-04T10:02:44Z</time></trkpt><trkpt lat="41.63966342510749" lon="-0.7664539431442876"><ele>194.0</ele><time>2026-05-04T10:02:45Z</time></trkpt><trkpt lat="41.63961084662669" lon="-0.7663339419484748"><ele>194.0</ele><time>2026-05-04T10:02:46Z</time></trkpt><trkpt lat="41.63953658981764" lon="-0.7662001840477043"><ele>194.0</ele><time>2026-05-04T10:02:47Z</time></trkpt><trkpt lat="41.63947451092258" lon="-0.7660833395741832"><ele>194.0</ele><time>2026-05-04T10:02:48Z</time></trkpt><trkpt lat="41.63940811794537" lon="-0.7659571763994528"><ele>194.0</ele><time>2026-05-04T10:02:49Z</time></trkpt><trkpt lat="41.63934061353255" lon="-0.7658320775481005"><ele>194.0</ele><time>2026-05-04T10:02:50Z</time></trkpt><trkpt lat="41.63927319750794" lon="-0.7657076511063932"><ele>194.0</ele><time>2026-05-04T10:02:51Z</time></trkpt><trkpt lat="41.63920653683132" lon="-0.7655792412208551"><ele>194.0</ele><time>2026-05-04T10:02:52Z</time></trkpt><trkpt lat="41.639140993445025" lon="-0.7654530464453075"><ele>194.0</ele><time>2026-05-04T10:02:53Z</time></trkpt><trkpt lat="41.63907769806268" lon="-0.765327679055763"><ele>194.0</ele><time>2026-05-04T10:02:54.001Z</time></trkpt><trkpt lat="41.63901405073145" lon="-0.7651980486471034"><ele>194.0</ele><time>2026-05-04T10:02:55.001Z</time></trkpt><trkpt lat="41.63894883937562" lon="-0.7650719560757581"><ele>194.0</ele><time>2026-05-04T10:02:56.001Z</time></trkpt><trkpt lat="41.638880943972154" lon="-0.7649479146956933"><ele>194.0</ele><time>2026-05-04T10:02:57.001Z</time></trkpt><trkpt lat="41.6388113627194" lon="-0.7648230806521554"><ele>194.0</ele><time>2026-05-04T10:02:58.001Z</time></trkpt><trkpt lat="41.63874085684697" lon="-0.7646999952666897"><ele>194.0</ele><time>2026-05-04T10:02:59.001Z</time></trkpt><trkpt lat="41.63866997596212" lon="-0.764578479961824"><ele>194.0</ele><time>2026-05-04T10:03:00.001Z</time></trkpt><trkpt lat="41.63860449751724" lon="-0.7644630592898397"><ele>194.0</ele><time>2026-05-04T10:03:01.001Z</time></trkpt><trkpt lat="41.63853253239518" lon="-0.764345470753313"><ele>193.39999999999998</ele><time>2026-05-04T10:03:02.001Z</time></trkpt><trkpt lat="41.63846131919952" lon="-0.7642358423675238"><ele>192.8</ele><time>2026-05-04T10:03:03.001Z</time></trkpt><trkpt lat="41.638396233364716" lon="-0.7641356732216736"><ele>192.2</ele><time>2026-05-04T10:03:04.001Z</time></trkpt><trkpt lat="41.638329836809795" lon="-0.7640464539346935"><ele>191.60000000000002</ele><time>2026-05-04T10:03:05.001Z</time></trkpt><trkpt lat="41.63825366948496" lon="-0.7639775464432432"><ele>191.0</ele><time>2026-05-04T10:03:06.001Z</time></trkpt><trkpt lat="41.63816569608524" lon="-0.7639509666909976"><ele>191.0</ele><time>2026-05-04T10:03:07.001Z</time></trkpt><trkpt lat="41.638076805894485" lon="-0.763949068772793"><ele>191.0</ele><time>2026-05-04T10:03:08.001Z</time></trkpt><trkpt lat="41.63799434300748" lon="-0.7638996924359014"><ele>191.0</ele><time>2026-05-04T10:03:09.001Z</time></trkpt><trkpt lat="41.63793457627588" lon="-0.763794700702145"><ele>191.0</ele><time>2026-05-04T10:03:10.001Z</time></trkpt><trkpt lat="41.63790997633523" lon="-0.7636648843308842"><ele>191.0</ele><time>2026-05-04T10:03:11.001Z</time></trkpt><trkpt lat="41.63790312290306" lon="-0.7635289386370205"><ele>190.60000000000002</ele><time>2026-05-04T10:03:12.001Z</time></trkpt><trkpt lat="41.63788821010779" lon="-0.7634006927348921"><ele>190.2</ele><time>2026-05-04T10:03:13.001Z</time></trkpt><trkpt lat="41.63783735944196" lon="-0.7632832359907712"><ele>189.8</ele><time>2026-05-04T10:03:14.001Z</time></trkpt><trkpt lat="41.63776350918015" lon="-0.7631815357452055"><ele>189.39999999999998</ele><time>2026-05-04T10:03:15.001Z</time></trkpt><trkpt lat="41.637686671083024" lon="-0.7630843917676604"><ele>189.0</ele><time>2026-05-04T10:03:16.001Z</time></trkpt><trkpt lat="41.63761510927131" lon="-0.7629835078237029"><ele>189.0</ele><time>2026-05-04T10:03:17.001Z</time></trkpt><trkpt lat="41.63754196384742" lon="-0.7628812740077846"><ele>189.0</ele><time>2026-05-04T10:03:18.001Z</time></trkpt><trkpt lat="41.6374678498851" lon="-0.76277459252918"><ele>189.0</ele><time>2026-05-04T10:03:19.001Z</time></trkpt><trkpt lat="41.637394001747026" lon="-0.762669372632661"><ele>189.0</ele><time>2026-05-04T10:03:20.001Z</time></trkpt><trkpt lat="41.63731746184187" lon="-0.7625626979494373"><ele>189.0</ele><time>2026-05-04T10:03:21.001Z</time></trkpt><trkpt lat="41.63724583092132" lon="-0.762455441933885"><ele>188.0</ele><time>2026-05-04T10:03:22.001Z</time></trkpt><trkpt lat="41.6371636124274" lon="-0.7623445416911172"><ele>187.0</ele><time>2026-05-04T10:03:23.001Z</time></trkpt><trkpt lat="41.63709009977639" lon="-0.7622386505000066"><ele>186.0</ele><time>2026-05-04T10:03:24.001Z</time></trkpt><trkpt lat="41.6370170118334" lon="-0.7621280301132426"><ele>185.0</ele><time>2026-05-04T10:03:25.001Z</time></trkpt><trkpt lat="41.636940817018775" lon="-0.762013305839649"><ele>185.0</ele><time>2026-05-04T10:03:26.001Z</time></trkpt><trkpt lat="41.63686478683026" lon="-0.7619010414041882"><ele>185.0</ele><time>2026-05-04T10:03:27.001Z</time></trkpt><trkpt lat="41.63678931994507" lon="-0.7617887612333956"><ele>185.0</ele><time>2026-05-04T10:03:28.001Z</time></trkpt><trkpt lat="41.63671358955805" lon="-0.7616743149346735"><ele>185.0</ele><time>2026-05-04T10:03:29.001Z</time></trkpt><trkpt lat="41.63663730074875" lon="-0.7615615831891109"><ele>187.0</ele><time>2026-05-04T10:03:30.001Z</time></trkpt><trkpt lat="41.63655963735586" lon="-0.7614508490756267"><ele>189.0</ele><time>2026-05-04T10:03:31.001Z</time></trkpt><trkpt lat="41.63648158216182" lon="-0.7613403201011611"><ele>191.0</ele><time>2026-05-04T10:03:32.001Z</time></trkpt><trkpt lat="41.636406071982194" lon="-0.7612284125211513"><ele>193.0</ele><time>2026-05-04T10:03:33.001Z</time></trkpt><trkpt lat="41.6363291937116" lon="-0.7611144235368102"><ele>194.5</ele><time>2026-05-04T10:03:34.001Z</time></trkpt><trkpt lat="41.63625389936544" lon="-0.7610003448727671"><ele>196.0</ele><time>2026-05-04T10:03:35.001Z</time></trkpt><trkpt lat="41.63617781400878" lon="-0.7608872249251561"><ele>197.5</ele><time>2026-05-04T10:03:36.001Z</time></trkpt><trkpt lat="41.63610368772524" lon="-0.7607759919680296"><ele>199.0</ele><time>2026-05-04T10:03:37.001Z</time></trkpt><trkpt lat="41.63603472087349" lon="-0.7606525676991253"><ele>197.5</ele><time>2026-05-04T10:03:38.001Z</time></trkpt><trkpt lat="41.63593208084869" lon="-0.7605236579317445"><ele>196.0</ele><time>2026-05-04T10:03:39.001Z</time></trkpt><trkpt lat="41.63584275497489" lon="-0.7603740328553318"><ele>194.5</ele><time>2026-05-04T10:03:40.001Z</time></trkpt><trkpt lat="41.63575385371548" lon="-0.7601968014371968"><ele>193.0</ele><time>2026-05-04T10:03:42.001Z</time></trkpt><trkpt lat="41.635689598847655" lon="-0.7600782093320168"><ele>193.0</ele><time>2026-05-04T10:03:43.001Z</time></trkpt><trkpt lat="41.635619456590334" lon="-0.7599623723621267"><ele>193.0</ele><time>2026-05-04T10:03:44.001Z</time></trkpt><trkpt lat="41.63555698966877" lon="-0.7598427214866043"><ele>193.0</ele><time>2026-05-04T10:03:45.001Z</time></trkpt><trkpt lat="41.63549538609198" lon="-0.7597216134568141"><ele>193.0</ele><time>2026-05-04T10:03:46.001Z</time></trkpt><trkpt lat="41.635428518841444" lon="-0.7596027632125981"><ele>193.0</ele><time>2026-05-04T10:03:47.001Z</time></trkpt><trkpt lat="41.63536064374789" lon="-0.7594813387534528"><ele>192.8</ele><time>2026-05-04T10:03:48.001Z</time></trkpt><trkpt lat="41.63529468938541" lon="-0.7593598951566076"><ele>192.60000000000002</ele><time>2026-05-04T10:03:49.001Z</time></trkpt><trkpt lat="41.63522722080597" lon="-0.7592438646918078"><ele>192.39999999999998</ele><time>2026-05-04T10:03:50Z</time></trkpt><trkpt lat="41.63516241460408" lon="-0.7591192860621898"><ele>192.2</ele><time>2026-05-04T10:03:51Z</time></trkpt><trkpt lat="41.63509923863217" lon="-0.7589997664255926"><ele>192.0</ele><time>2026-05-04T10:03:52Z</time></trkpt><trkpt lat="41.63503340723536" lon="-0.7588731333920367"><ele>192.0</ele><time>2026-05-04T10:03:53Z</time></trkpt><trkpt lat="41.63496708688315" lon="-0.758754231826459"><ele>192.0</ele><time>2026-05-04T10:03:54Z</time></trkpt><trkpt lat="41.63490249297786" lon="-0.758629706505612"><ele>192.0</ele><time>2026-05-04T10:03:55Z</time></trkpt><trkpt lat="41.63483841495602" lon="-0.7585067666437249"><ele>192.0</ele><time>2026-05-04T10:03:56Z</time></trkpt><trkpt lat="41.63477308360718" lon="-0.7583854229922893"><ele>192.0</ele><time>2026-05-04T10:03:57Z</time></trkpt><trkpt lat="41.634705345394394" lon="-0.7582576966076753"><ele>191.8</ele><time>2026-05-04T10:03:58Z</time></trkpt><trkpt lat="41.634643517515336" lon="-0.758133958112714"><ele>191.6</ele><time>2026-05-04T10:03:59Z</time></trkpt><trkpt lat="41.63457816411404" lon="-0.7580151810921345"><ele>191.4</ele><time>2026-05-04T10:04:00Z</time></trkpt><trkpt lat="41.63451982404281" lon="-0.7579029512680893"><ele>191.20000000000002</ele><time>2026-05-04T10:04:01Z</time></trkpt><trkpt lat="41.63446570108357" lon="-0.757796937885562"><ele>191.0</ele><time>2026-05-04T10:04:02Z</time></trkpt><trkpt lat="41.6344153837218" lon="-0.7576992911465724"><ele>191.0</ele><time>2026-05-04T10:04:03Z</time></trkpt><trkpt lat="41.63435389634911" lon="-0.7576195578856622"><ele>191.0</ele><time>2026-05-04T10:04:04Z</time></trkpt><trkpt lat="41.63427294006568" lon="-0.757586924906709"><ele>191.0</ele><time>2026-05-04T10:04:05Z</time></trkpt><trkpt lat="41.63418847512154" lon="-0.7575846026110706"><ele>191.0</ele><time>2026-05-04T10:04:06Z</time></trkpt><trkpt lat="41.63411208747703" lon="-0.7575541330499703"><ele>191.0</ele><time>2026-05-04T10:04:07Z</time></trkpt><trkpt lat="41.63405131946358" lon="-0.7574844831689439"><ele>191.0</ele><time>2026-05-04T10:04:08Z</time></trkpt><trkpt lat="41.63400860964255" lon="-0.7573947475998288"><ele>191.0</ele><time>2026-05-04T10:04:09Z</time></trkpt><trkpt lat="41.63400067864862" lon="-0.7572807841334531"><ele>191.0</ele><time>2026-05-04T10:04:10Z</time></trkpt><trkpt lat="41.634022593011665" lon="-0.7571664835889702"><ele>191.0</ele><time>2026-05-04T10:04:11Z</time></trkpt><trkpt lat="41.634050129148854" lon="-0.7570559092053093"><ele>191.0</ele><time>2026-05-04T10:04:12Z</time></trkpt><trkpt lat="41.634037147608844" lon="-0.7569412032057409"><ele>191.0</ele><time>2026-05-04T10:04:13Z</time></trkpt><trkpt lat="41.633997035911776" lon="-0.7568351676873236"><ele>191.0</ele><time>2026-05-04T10:04:14Z</time></trkpt><trkpt lat="41.63393992504769" lon="-0.7567351387573598"><ele>191.20000000000002</ele><time>2026-05-04T10:04:15Z</time></trkpt><trkpt lat="41.633859405960116" lon="-0.7566594865341058"><ele>191.4</ele><time>2026-05-04T10:04:16Z</time></trkpt><trkpt lat="41.633807111442295" lon="-0.7565387841322427"><ele>191.6</ele><time>2026-05-04T10:04:17Z</time></trkpt><trkpt lat="41.63374995518878" lon="-0.7564326358118122"><ele>191.8</ele><time>2026-05-04T10:04:18Z</time></trkpt><trkpt lat="41.63369208375885" lon="-0.7563203481971776"><ele>192.0</ele><time>2026-05-04T10:04:19Z</time></trkpt><trkpt lat="41.6336364869346" lon="-0.7562054410558302"><ele>192.0</ele><time>2026-05-04T10:04:20Z</time></trkpt><trkpt lat="41.6335846936465" lon="-0.7560905964630127"><ele>192.0</ele><time>2026-05-04T10:04:21Z</time></trkpt><trkpt lat="41.63353238135036" lon="-0.7559743359921076"><ele>192.0</ele><time>2026-05-04T10:04:22Z</time></trkpt><trkpt lat="41.633482990469474" lon="-0.7558608799690157"><ele>192.0</ele><time>2026-05-04T10:04:23Z</time></trkpt><trkpt lat="41.63343476436044" lon="-0.7557494912205907"><ele>192.0</ele><time>2026-05-04T10:04:24Z</time></trkpt><trkpt lat="41.63338814916723" lon="-0.7556428831255738"><ele>192.5</ele><time>2026-05-04T10:04:25Z</time></trkpt><trkpt lat="41.63334314646449" lon="-0.7555407483339004"><ele>193.0</ele><time>2026-05-04T10:04:26Z</time></trkpt><trkpt lat="41.63329997939955" lon="-0.7554396747479746"><ele>193.5</ele><time>2026-05-04T10:04:27Z</time></trkpt><trkpt lat="41.633260684973315" lon="-0.7553391762481211"><ele>194.0</ele><time>2026-05-04T10:04:28Z</time></trkpt><trkpt lat="41.63321884887369" lon="-0.7552368126384109"><ele>194.5</ele><time>2026-05-04T10:04:29Z</time></trkpt><trkpt lat="41.633175523188335" lon="-0.7551332511673176"><ele>195.0</ele><time>2026-05-04T10:04:30Z</time></trkpt><trkpt lat="41.63313333570698" lon="-0.7550301419096586"><ele>195.0</ele><time>2026-05-04T10:04:31Z</time></trkpt><trkpt lat="41.63309057783134" lon="-0.7549252587879629"><ele>195.0</ele><time>2026-05-04T10:04:32Z</time></trkpt><trkpt lat="41.63303407019506" lon="-0.754833532452609"><ele>195.0</ele><time>2026-05-04T10:04:33Z</time></trkpt><trkpt lat="41.632993919635574" lon="-0.7547344246293227"><ele>195.0</ele><time>2026-05-04T10:04:34Z</time></trkpt><trkpt lat="41.63295282665833" lon="-0.7546329419526592"><ele>195.0</ele><time>2026-05-04T10:04:35Z</time></trkpt><trkpt lat="41.63291559456826" lon="-0.7545409940747496"><ele>195.0</ele><time>2026-05-04T10:04:36Z</time></trkpt><trkpt lat="41.6328748413768" lon="-0.7544396368276115"><ele>194.83333333333334</ele><time>2026-05-04T10:04:37Z</time></trkpt><trkpt lat="41.63283316043844" lon="-0.7543359031040379"><ele>194.66666666666669</ele><time>2026-05-04T10:04:38Z</time></trkpt><trkpt lat="41.63279039307305" lon="-0.7542297300314484"><ele>194.5</ele><time>2026-05-04T10:04:39Z</time></trkpt><trkpt lat="41.632747888496795" lon="-0.7541242093552145"><ele>194.33333333333334</ele><time>2026-05-04T10:04:40Z</time></trkpt><trkpt lat="41.63270547653994" lon="-0.75401891861455"><ele>194.16666666666669</ele><time>2026-05-04T10:04:41Z</time></trkpt><trkpt lat="41.632663682856204" lon="-0.7539151627851486"><ele>194.0</ele><time>2026-05-04T10:04:42Z</time></trkpt><trkpt lat="41.63262261399556" lon="-0.7538132063716454"><ele>194.28571428571428</ele><time>2026-05-04T10:04:43Z</time></trkpt><trkpt lat="41.63258423903799" lon="-0.7537179377671904"><ele>194.57142857142858</ele><time>2026-05-04T10:04:44Z</time></trkpt><trkpt lat="41.63254948453476" lon="-0.7536316572091135"><ele>194.85714285714286</ele><time>2026-05-04T10:04:45Z</time></trkpt><trkpt lat="41.63251588872204" lon="-0.7535482531507645"><ele>195.14285714285714</ele><time>2026-05-04T10:04:46Z</time></trkpt><trkpt lat="41.632481932601365" lon="-0.7534653341991452"><ele>195.42857142857144</ele><time>2026-05-04T10:04:47Z</time></trkpt><trkpt lat="41.6324516400868" lon="-0.7533913775041977"><ele>195.71428571428572</ele><time>2026-05-04T10:04:48Z</time></trkpt><trkpt lat="41.63242096142793" lon="-0.7533164781560084"><ele>196.0</ele><time>2026-05-04T10:04:49Z</time></trkpt><trkpt lat="41.632368263259345" lon="-0.7531878199234434"><ele>196.33333333333331</ele><time>2026-05-04T10:04:51Z</time></trkpt><trkpt lat="41.632315941384135" lon="-0.7530593707903711"><ele>196.66666666666666</ele><time>2026-05-04T10:04:53Z</time></trkpt><trkpt lat="41.63228232649948" lon="-0.7529758128099636"><ele>197.0</ele><time>2026-05-04T10:04:55Z</time></trkpt><trkpt lat="41.63225135308688" lon="-0.7528988208540897"><ele>197.33333333333331</ele><time>2026-05-04T10:04:58Z</time></trkpt><trkpt lat="41.63221650758374" lon="-0.752813894583588"><ele>197.66666666666666</ele><time>2026-05-04T10:05:01Z</time></trkpt><trkpt lat="41.63217231085345" lon="-0.7527083570660522"><ele>198.0</ele><time>2026-05-04T10:05:03Z</time></trkpt><trkpt lat="41.63211908983418" lon="-0.7525832609411283"><ele>198.0</ele><time>2026-05-04T10:05:05Z</time></trkpt><trkpt lat="41.632057633845875" lon="-0.7524346944121211"><ele>198.0</ele><time>2026-05-04T10:05:07Z</time></trkpt><trkpt lat="41.63202469205323" lon="-0.7523545175681955"><ele>198.0</ele><time>2026-05-04T10:05:08Z</time></trkpt><trkpt lat="41.63198977937919" lon="-0.7522690515343001"><ele>198.0</ele><time>2026-05-04T10:05:09Z</time></trkpt><trkpt lat="41.63195340125017" lon="-0.7521799748555635"><ele>198.0</ele><time>2026-05-04T10:05:10Z</time></trkpt><trkpt lat="41.63191702330698" lon="-0.7520908986440188"><ele>198.0</ele><time>2026-05-04T10:05:11Z</time></trkpt><trkpt lat="41.63187749984342" lon="-0.7519941340666381"><ele>198.0</ele><time>2026-05-04T10:05:12Z</time></trkpt><trkpt lat="41.631869479220036" lon="-0.751880418152908"><ele>198.0</ele><time>2026-05-04T10:05:13Z</time></trkpt><trkpt lat="41.63183123920093" lon="-0.7517816777313312"><ele>198.0</ele><time>2026-05-04T10:05:14Z</time></trkpt><trkpt lat="41.63179500472224" lon="-0.7516784464973536"><ele>198.0</ele><time>2026-05-04T10:05:15Z</time></trkpt><trkpt lat="41.631762908779315" lon="-0.7515777270684599"><ele>198.0</ele><time>2026-05-04T10:05:16Z</time></trkpt><trkpt lat="41.63167417126254" lon="-0.7515067546509508"><ele>198.0</ele><time>2026-05-04T10:05:17Z</time></trkpt><trkpt lat="41.63163233067044" lon="-0.7514067947150145"><ele>198.60000000000002</ele><time>2026-05-04T10:05:18Z</time></trkpt><trkpt lat="41.6315889623692" lon="-0.751302829129024"><ele>199.20000000000002</ele><time>2026-05-04T10:05:19Z</time></trkpt><trkpt lat="41.6315455774469" lon="-0.7511967103258969"><ele>199.8</ele><time>2026-05-04T10:05:20.001Z</time></trkpt><trkpt lat="41.6315018716201" lon="-0.7510898066019687"><ele>200.4</ele><time>2026-05-04T10:05:21.001Z</time></trkpt><trkpt lat="41.6314576364011" lon="-0.7509816079893351"><ele>201.0</ele><time>2026-05-04T10:05:22.001Z</time></trkpt><trkpt lat="41.63141137682248" lon="-0.75086845783381"><ele>201.20000000000002</ele><time>2026-05-04T10:05:23.001Z</time></trkpt><trkpt lat="41.63136401132947" lon="-0.7507526023012947"><ele>201.4</ele><time>2026-05-04T10:05:24.001Z</time></trkpt><trkpt lat="41.631316951377755" lon="-0.7506387700856213"><ele>201.6</ele><time>2026-05-04T10:05:25.001Z</time></trkpt><trkpt lat="41.63126849353188" lon="-0.7505212456182927"><ele>201.8</ele><time>2026-05-04T10:05:26.001Z</time></trkpt><trkpt lat="41.631221054358704" lon="-0.7504061917413906"><ele>202.0</ele><time>2026-05-04T10:05:27.001Z</time></trkpt><trkpt lat="41.631173421768366" lon="-0.750290668759479"><ele>202.0</ele><time>2026-05-04T10:05:28.001Z</time></trkpt><trkpt lat="41.631122769597" lon="-0.750174335124382"><ele>202.0</ele><time>2026-05-04T10:05:29.001Z</time></trkpt><trkpt lat="41.631071098663384" lon="-0.7500486983622247"><ele>202.0</ele><time>2026-05-04T10:05:30.001Z</time></trkpt><trkpt lat="41.63102887506503" lon="-0.7499222432638086"><ele>202.0</ele><time>2026-05-04T10:05:31.001Z</time></trkpt><trkpt lat="41.63098955937881" lon="-0.7497837339399629"><ele>202.0</ele><time>2026-05-04T10:05:32.001Z</time></trkpt><trkpt lat="41.6309569121082" lon="-0.7496501339105751"><ele>202.0</ele><time>2026-05-04T10:05:33.001Z</time></trkpt><trkpt lat="41.63093362167789" lon="-0.7495107139262172"><ele>202.0</ele><time>2026-05-04T10:05:34.001Z</time></trkpt><trkpt lat="41.630910995596984" lon="-0.7493796947279397"><ele>202.0</ele><time>2026-05-04T10:05:35.001Z</time></trkpt><trkpt lat="41.630887662245414" lon="-0.7492445799394017"><ele>202.0</ele><time>2026-05-04T10:05:36.001Z</time></trkpt><trkpt lat="41.630864426151916" lon="-0.7491100283690749"><ele>202.0</ele><time>2026-05-04T10:05:37.001Z</time></trkpt><trkpt lat="41.63083945521544" lon="-0.7489745620088643"><ele>202.0</ele><time>2026-05-04T10:05:38.001Z</time></trkpt><trkpt lat="41.630808486583966" lon="-0.7488431740834023"><ele>202.0</ele><time>2026-05-04T10:05:39.001Z</time></trkpt><trkpt lat="41.63077277120456" lon="-0.7487096429904689"><ele>202.0</ele><time>2026-05-04T10:05:40.001Z</time></trkpt><trkpt lat="41.63073286131821" lon="-0.7485712881635398"><ele>202.0</ele><time>2026-05-04T10:05:41.001Z</time></trkpt><trkpt lat="41.630691629039525" lon="-0.7484430729099975"><ele>202.0</ele><time>2026-05-04T10:05:42.001Z</time></trkpt><trkpt lat="41.630647646337955" lon="-0.7483102948654663"><ele>201.8</ele><time>2026-05-04T10:05:43.001Z</time></trkpt><trkpt lat="41.630603605667034" lon="-0.7481773415461664"><ele>201.6</ele><time>2026-05-04T10:05:44.001Z</time></trkpt><trkpt lat="41.63055948037873" lon="-0.7480471670968405"><ele>201.4</ele><time>2026-05-04T10:05:45.001Z</time></trkpt><trkpt lat="41.63053624705501" lon="-0.7478976114070052"><ele>201.20000000000002</ele><time>2026-05-04T10:05:46.001Z</time></trkpt><trkpt lat="41.63048497321294" lon="-0.7477638597952243"><ele>201.0</ele><time>2026-05-04T10:05:47.001Z</time></trkpt><trkpt lat="41.630441952992285" lon="-0.7476309012603457"><ele>200.60000000000002</ele><time>2026-05-04T10:05:48.001Z</time></trkpt><trkpt lat="41.63039727739076" lon="-0.74750268539317"><ele>200.2</ele><time>2026-05-04T10:05:49.001Z</time></trkpt><trkpt lat="41.63033235915228" lon="-0.7473815103105816"><ele>199.8</ele><time>2026-05-04T10:05:50.001Z</time></trkpt><trkpt lat="41.63028830994779" lon="-0.7472526247876449"><ele>199.39999999999998</ele><time>2026-05-04T10:05:51.001Z</time></trkpt><trkpt lat="41.63024367132872" lon="-0.7471220146638147"><ele>199.0</ele><time>2026-05-04T10:05:52.001Z</time></trkpt><trkpt lat="41.63019794758202" lon="-0.7469877821766733"><ele>198.79999999999998</ele><time>2026-05-04T10:05:53.001Z</time></trkpt><trkpt lat="41.630152655948955" lon="-0.7468546117757797"><ele>198.6</ele><time>2026-05-04T10:05:54.001Z</time></trkpt><trkpt lat="41.630107191205404" lon="-0.7467209323735693"><ele>198.4</ele><time>2026-05-04T10:05:55.001Z</time></trkpt><trkpt lat="41.63006223565596" lon="-0.7465884539928334"><ele>198.2</ele><time>2026-05-04T10:05:56Z</time></trkpt><trkpt lat="41.63001889484975" lon="-0.7464540305196278"><ele>198.0</ele><time>2026-05-04T10:05:57Z</time></trkpt><trkpt lat="41.62999267866698" lon="-0.7463089460147172"><ele>198.0</ele><time>2026-05-04T10:05:58Z</time></trkpt><trkpt lat="41.629952161897016" lon="-0.7461734271012382"><ele>198.0</ele><time>2026-05-04T10:05:59Z</time></trkpt><trkpt lat="41.62991189270157" lon="-0.7460367762307749"><ele>198.0</ele><time>2026-05-04T10:06:00Z</time></trkpt><trkpt lat="41.62987784077916" lon="-0.7458949394319424"><ele>198.0</ele><time>2026-05-04T10:06:01Z</time></trkpt><trkpt lat="41.629848959071204" lon="-0.7457524355873234"><ele>198.0</ele><time>2026-05-04T10:06:02Z</time></trkpt><trkpt lat="41.629819000106586" lon="-0.7456037380327334"><ele>197.8</ele><time>2026-05-04T10:06:03Z</time></trkpt><trkpt lat="41.62979047309753" lon="-0.7454604356612715"><ele>197.60000000000002</ele><time>2026-05-04T10:06:04Z</time></trkpt><trkpt lat="41.629761691907696" lon="-0.7453170263333946"><ele>197.39999999999998</ele><time>2026-05-04T10:06:05Z</time></trkpt><trkpt lat="41.62971670613253" lon="-0.7451695581175128"><ele>197.2</ele><time>2026-05-04T10:06:06Z</time></trkpt><trkpt lat="41.629682632413086" lon="-0.7450330695399445"><ele>197.0</ele><time>2026-05-04T10:06:07Z</time></trkpt><trkpt lat="41.62965659384623" lon="-0.7448897881802982"><ele>196.8</ele><time>2026-05-04T10:06:08Z</time></trkpt><trkpt lat="41.62962420887205" lon="-0.7447360668299733"><ele>196.6</ele><time>2026-05-04T10:06:09Z</time></trkpt><trkpt lat="41.62959629709659" lon="-0.7445949304810079"><ele>196.4</ele><time>2026-05-04T10:06:10Z</time></trkpt><trkpt lat="41.62956622362642" lon="-0.7444537962689823"><ele>196.20000000000002</ele><time>2026-05-04T10:06:11Z</time></trkpt><trkpt lat="41.629538746487924" lon="-0.7443132951192932"><ele>196.0</ele><time>2026-05-04T10:06:12Z</time></trkpt><trkpt lat="41.62951041923479" lon="-0.7441729453546305"><ele>196.0</ele><time>2026-05-04T10:06:13Z</time></trkpt><trkpt lat="41.629482191519244" lon="-0.7440322592048236"><ele>196.0</ele><time>2026-05-04T10:06:14Z</time></trkpt><trkpt lat="41.62945615251584" lon="-0.7438894236599919"><ele>196.0</ele><time>2026-05-04T10:06:15Z</time></trkpt><trkpt lat="41.629423745490655" lon="-0.7437482864437375"><ele>196.0</ele><time>2026-05-04T10:06:16Z</time></trkpt><trkpt lat="41.62939639917065" lon="-0.7436031318823925"><ele>196.0</ele><time>2026-05-04T10:06:17Z</time></trkpt><trkpt lat="41.62936649535089" lon="-0.7434566530961927"><ele>195.25</ele><time>2026-05-04T10:06:18Z</time></trkpt><trkpt lat="41.629330970728944" lon="-0.7433185657562498"><ele>194.5</ele><time>2026-05-04T10:06:19Z</time></trkpt><trkpt lat="41.62930448530862" lon="-0.7431706374189933"><ele>193.75</ele><time>2026-05-04T10:06:20Z</time></trkpt><trkpt lat="41.629279379360256" lon="-0.7430175686476249"><ele>193.0</ele><time>2026-05-04T10:06:21Z</time></trkpt><trkpt lat="41.629249934017466" lon="-0.742871470813274"><ele>193.0</ele><time>2026-05-04T10:06:22Z</time></trkpt><trkpt lat="41.62922574897085" lon="-0.742725660609025"><ele>193.0</ele><time>2026-05-04T10:06:23Z</time></trkpt><trkpt lat="41.62918791727118" lon="-0.7425829552137488"><ele>193.0</ele><time>2026-05-04T10:06:24Z</time></trkpt><trkpt lat="41.629162459769866" lon="-0.7424324465238423"><ele>193.0</ele><time>2026-05-04T10:06:25Z</time></trkpt><trkpt lat="41.62913415301123" lon="-0.7422832400606857"><ele>193.0</ele><time>2026-05-04T10:06:26Z</time></trkpt><trkpt lat="41.629102853066165" lon="-0.7421405549713825"><ele>193.0</ele><time>2026-05-04T10:06:27Z</time></trkpt><trkpt lat="41.629066674368715" lon="-0.7419937675009399"><ele>193.0</ele><time>2026-05-04T10:06:28Z</time></trkpt><trkpt lat="41.62903241229818" lon="-0.7418488317327429"><ele>193.0</ele><time>2026-05-04T10:06:29Z</time></trkpt><trkpt lat="41.6290154903065" lon="-0.7417013081488688"><ele>193.0</ele><time>2026-05-04T10:06:30Z</time></trkpt><trkpt lat="41.62896801444938" lon="-0.7415635800613916"><ele>193.0</ele><time>2026-05-04T10:06:31Z</time></trkpt><trkpt lat="41.62894775137202" lon="-0.7414033086089677"><ele>193.0</ele><time>2026-05-04T10:06:32Z</time></trkpt><trkpt lat="41.6289222540214" lon="-0.7412752146687601"><ele>193.0</ele><time>2026-05-04T10:06:33Z</time></trkpt><trkpt lat="41.628896826397906" lon="-0.7411295951072973"><ele>193.0</ele><time>2026-05-04T10:06:34Z</time></trkpt><trkpt lat="41.628865223918694" lon="-0.7409881145225176"><ele>193.0</ele><time>2026-05-04T10:06:35Z</time></trkpt><trkpt lat="41.62883404521777" lon="-0.7408434974787385"><ele>193.0</ele><time>2026-05-04T10:06:36Z</time></trkpt><trkpt lat="41.628806207998664" lon="-0.7406977820270548"><ele>193.0</ele><time>2026-05-04T10:06:37Z</time></trkpt><trkpt lat="41.628773208524954" lon="-0.7405529204248044"><ele>193.0</ele><time>2026-05-04T10:06:38Z</time></trkpt><trkpt lat="41.628744301623264" lon="-0.7404075366263405"><ele>193.0</ele><time>2026-05-04T10:06:39Z</time></trkpt><trkpt lat="41.62871315205188" lon="-0.7402649856707921"><ele>193.0</ele><time>2026-05-04T10:06:40Z</time></trkpt><trkpt lat="41.62868039311674" lon="-0.7401233988847772"><ele>193.0</ele><time>2026-05-04T10:06:41Z</time></trkpt><trkpt lat="41.628651484031295" lon="-0.7399784010732072"><ele>193.0</ele><time>2026-05-04T10:06:42Z</time></trkpt><trkpt lat="41.6286220891451" lon="-0.7398326285457221"><ele>193.0</ele><time>2026-05-04T10:06:43Z</time></trkpt><trkpt lat="41.6285952111052" lon="-0.73969279444835"><ele>192.0</ele><time>2026-05-04T10:06:44Z</time></trkpt><trkpt lat="41.628562349227636" lon="-0.73954982762164"><ele>191.0</ele><time>2026-05-04T10:06:45Z</time></trkpt><trkpt lat="41.62853127238856" lon="-0.7394086906408481"><ele>190.0</ele><time>2026-05-04T10:06:46Z</time></trkpt><trkpt lat="41.628500679467635" lon="-0.7392675404584461"><ele>189.0</ele><time>2026-05-04T10:06:47Z</time></trkpt><trkpt lat="41.62847315321276" lon="-0.7391240760509367"><ele>188.0</ele><time>2026-05-04T10:06:48Z</time></trkpt><trkpt lat="41.628443570975165" lon="-0.7389792448371468"><ele>188.0</ele><time>2026-05-04T10:06:49Z</time></trkpt><trkpt lat="41.62841624397713" lon="-0.7388351573335521"><ele>188.0</ele><time>2026-05-04T10:06:50Z</time></trkpt><trkpt lat="41.628389768457076" lon="-0.738691051288003"><ele>188.0</ele><time>2026-05-04T10:06:51Z</time></trkpt><trkpt lat="41.62835849232022" lon="-0.738546922802193"><ele>188.0</ele><time>2026-05-04T10:06:52Z</time></trkpt><trkpt lat="41.628328719332096" lon="-0.738403611894178"><ele>188.0</ele><time>2026-05-04T10:06:53Z</time></trkpt><trkpt lat="41.628302736523764" lon="-0.7382538592299204"><ele>188.60000000000002</ele><time>2026-05-04T10:06:54Z</time></trkpt><trkpt lat="41.628267606828786" lon="-0.7381109961150327"><ele>189.20000000000002</ele><time>2026-05-04T10:06:55Z</time></trkpt><trkpt lat="41.628251784293205" lon="-0.7379778139504137"><ele>189.8</ele><time>2026-05-04T10:06:56Z</time></trkpt><trkpt lat="41.6282155727684" lon="-0.7378300844043042"><ele>190.4</ele><time>2026-05-04T10:06:57Z</time></trkpt><trkpt lat="41.62818651521006" lon="-0.7376853776194949"><ele>191.0</ele><time>2026-05-04T10:06:58Z</time></trkpt><trkpt lat="41.62815544836267" lon="-0.7375403853866397"><ele>191.20000000000002</ele><time>2026-05-04T10:06:59Z</time></trkpt><trkpt lat="41.62812297427581" lon="-0.737397978796611"><ele>191.4</ele><time>2026-05-04T10:07:00Z</time></trkpt><trkpt lat="41.62809324583548" lon="-0.7372552700277706"><ele>191.6</ele><time>2026-05-04T10:07:01Z</time></trkpt><trkpt lat="41.628062310026635" lon="-0.7371167725633156"><ele>191.8</ele><time>2026-05-04T10:07:02Z</time></trkpt><trkpt lat="41.62802565509518" lon="-0.7369801534094059"><ele>192.0</ele><time>2026-05-04T10:07:03Z</time></trkpt><trkpt lat="41.627984636072014" lon="-0.7368449935629463"><ele>192.6</ele><time>2026-05-04T10:07:04Z</time></trkpt><trkpt lat="41.62794079677538" lon="-0.7367086926804056"><ele>193.2</ele><time>2026-05-04T10:07:05Z</time></trkpt><trkpt lat="41.627893399243064" lon="-0.7365769257319825"><ele>193.8</ele><time>2026-05-04T10:07:06Z</time></trkpt><trkpt lat="41.62783859494743" lon="-0.7364507077109117"><ele>194.4</ele><time>2026-05-04T10:07:07Z</time></trkpt><trkpt lat="41.627778335569566" lon="-0.7363262419330279"><ele>195.0</ele><time>2026-05-04T10:07:08Z</time></trkpt><trkpt lat="41.62771446059206" lon="-0.7362042573906142"><ele>194.4</ele><time>2026-05-04T10:07:09Z</time></trkpt><trkpt lat="41.627647412574554" lon="-0.7360862763028068"><ele>193.8</ele><time>2026-05-04T10:07:10Z</time></trkpt><trkpt lat="41.627576337709144" lon="-0.7359769394895612"><ele>193.2</ele><time>2026-05-04T10:07:11Z</time></trkpt><trkpt lat="41.62749962687401" lon="-0.7358724543675714"><ele>192.6</ele><time>2026-05-04T10:07:12Z</time></trkpt><trkpt lat="41.627418100318415" lon="-0.7357748836624614"><ele>192.0</ele><time>2026-05-04T10:07:13Z</time></trkpt><trkpt lat="41.627335614314376" lon="-0.7356795568948495"><ele>192.0</ele><time>2026-05-04T10:07:14Z</time></trkpt><trkpt lat="41.627247283631384" lon="-0.7355922192973404"><ele>192.0</ele><time>2026-05-04T10:07:15Z</time></trkpt><trkpt lat="41.6271551808293" lon="-0.7355118758986771"><ele>192.0</ele><time>2026-05-04T10:07:16Z</time></trkpt><trkpt lat="41.62706192740307" lon="-0.7354354509807992"><ele>192.0</ele><time>2026-05-04T10:07:17Z</time></trkpt><trkpt lat="41.62696843276519" lon="-0.7353598592721998"><ele>192.0</ele><time>2026-05-04T10:07:18Z</time></trkpt><trkpt lat="41.626872237466884" lon="-0.7352864627624067"><ele>192.0</ele><time>2026-05-04T10:07:19Z</time></trkpt><trkpt lat="41.62677598985463" lon="-0.7352106295579007"><ele>192.0</ele><time>2026-05-04T10:07:20.001Z</time></trkpt><trkpt lat="41.62668080976177" lon="-0.7351344275394598"><ele>192.0</ele><time>2026-05-04T10:07:21.001Z</time></trkpt><trkpt lat="41.62658604580431" lon="-0.7350577643892835"><ele>192.0</ele><time>2026-05-04T10:07:22.001Z</time></trkpt><trkpt lat="41.62648742513196" lon="-0.7349788818177332"><ele>192.0</ele><time>2026-05-04T10:07:23.001Z</time></trkpt><trkpt lat="41.62639330993744" lon="-0.7349065348884027"><ele>192.0</ele><time>2026-05-04T10:07:24.001Z</time></trkpt><trkpt lat="41.62629879675756" lon="-0.7348302409060624"><ele>192.0</ele><time>2026-05-04T10:07:25.001Z</time></trkpt><trkpt lat="41.62620441567316" lon="-0.7347535972272373"><ele>192.0</ele><time>2026-05-04T10:07:26.001Z</time></trkpt><trkpt lat="41.62610984259033" lon="-0.7346756320929583"><ele>192.0</ele><time>2026-05-04T10:07:27.001Z</time></trkpt><trkpt lat="41.62601525891958" lon="-0.734600074185627"><ele>192.0</ele><time>2026-05-04T10:07:28.001Z</time></trkpt><trkpt lat="41.625921045431454" lon="-0.7345232561955906"><ele>191.8</ele><time>2026-05-04T10:07:29.001Z</time></trkpt><trkpt lat="41.62582530190713" lon="-0.7344536072757186"><ele>191.6</ele><time>2026-05-04T10:07:30.001Z</time></trkpt><trkpt lat="41.62573000354575" lon="-0.7343803837596993"><ele>191.4</ele><time>2026-05-04T10:07:31.001Z</time></trkpt><trkpt lat="41.62563538990047" lon="-0.7343017008331748"><ele>191.20000000000002</ele><time>2026-05-04T10:07:32.001Z</time></trkpt><trkpt lat="41.62554122716909" lon="-0.7342278830091349"><ele>191.0</ele><time>2026-05-04T10:07:33.001Z</time></trkpt><trkpt lat="41.62544588963003" lon="-0.7341560546980954"><ele>191.0</ele><time>2026-05-04T10:07:34.001Z</time></trkpt><trkpt lat="41.62535238553147" lon="-0.7340831301067337"><ele>191.0</ele><time>2026-05-04T10:07:35.001Z</time></trkpt><trkpt lat="41.62525792259516" lon="-0.7340027490433161"><ele>191.0</ele><time>2026-05-04T10:07:36.001Z</time></trkpt><trkpt lat="41.62516520560005" lon="-0.7339231158868151"><ele>191.0</ele><time>2026-05-04T10:07:37.001Z</time></trkpt><trkpt lat="41.62507253007601" lon="-0.7338390903792373"><ele>191.0</ele><time>2026-05-04T10:07:38.001Z</time></trkpt><trkpt lat="41.62498272756751" lon="-0.7337537507600046"><ele>191.0</ele><time>2026-05-04T10:07:39.001Z</time></trkpt><trkpt lat="41.62489287821375" lon="-0.7336617769387455"><ele>191.0</ele><time>2026-05-04T10:07:40.001Z</time></trkpt><trkpt lat="41.62481270109304" lon="-0.7335687841902313"><ele>191.0</ele><time>2026-05-04T10:07:41.001Z</time></trkpt><trkpt lat="41.624726981672595" lon="-0.7334627016517548"><ele>191.0</ele><time>2026-05-04T10:07:42.001Z</time></trkpt><trkpt lat="41.624653256148825" lon="-0.7333675247608161"><ele>191.0</ele><time>2026-05-04T10:07:43.001Z</time></trkpt><trkpt lat="41.62456375392038" lon="-0.7332468282116158"><ele>191.0</ele><time>2026-05-04T10:07:44.001Z</time></trkpt><trkpt lat="41.62449611277862" lon="-0.7331317373563208"><ele>191.0</ele><time>2026-05-04T10:07:45.001Z</time></trkpt><trkpt lat="41.62442995224344" lon="-0.7330113086170107"><ele>191.0</ele><time>2026-05-04T10:07:46.001Z</time></trkpt><trkpt lat="41.624363631779886" lon="-0.7328832894396992"><ele>191.0</ele><time>2026-05-04T10:07:47.001Z</time></trkpt><trkpt lat="41.62430607675006" lon="-0.7327552594229729"><ele>191.0</ele><time>2026-05-04T10:07:48.001Z</time></trkpt><trkpt lat="41.62425130511583" lon="-0.7326257128255333"><ele>191.0</ele><time>2026-05-04T10:07:49.001Z</time></trkpt><trkpt lat="41.62419767066734" lon="-0.7324986594003706"><ele>191.0</ele><time>2026-05-04T10:07:50.001Z</time></trkpt><trkpt lat="41.6241471098277" lon="-0.7323663247370887"><ele>191.0</ele><time>2026-05-04T10:07:51.001Z</time></trkpt><trkpt lat="41.62410339603834" lon="-0.7322299117937179"><ele>191.0</ele><time>2026-05-04T10:07:52.001Z</time></trkpt><trkpt lat="41.62405061947679" lon="-0.7320977033920537"><ele>191.0</ele><time>2026-05-04T10:07:53.001Z</time></trkpt><trkpt lat="41.624001101073944" lon="-0.7319710845236709"><ele>190.60000000000002</ele><time>2026-05-04T10:07:54.001Z</time></trkpt><trkpt lat="41.6239499615221" lon="-0.7318435198027671"><ele>190.2</ele><time>2026-05-04T10:07:55.001Z</time></trkpt><trkpt lat="41.62389721115333" lon="-0.7317152681350177"><ele>189.8</ele><time>2026-05-04T10:07:56.001Z</time></trkpt><trkpt lat="41.623845928751294" lon="-0.7315847370768139"><ele>189.39999999999998</ele><time>2026-05-04T10:07:57.001Z</time></trkpt><trkpt lat="41.62379392831359" lon="-0.7314562352627195"><ele>189.0</ele><time>2026-05-04T10:07:58.001Z</time></trkpt><trkpt lat="41.623744845121564" lon="-0.7313275819633923"><ele>189.0</ele><time>2026-05-04T10:07:59.001Z</time></trkpt><trkpt lat="41.62369735366867" lon="-0.7312010282632895"><ele>189.0</ele><time>2026-05-04T10:08:00.001Z</time></trkpt><trkpt lat="41.623648730710244" lon="-0.7310703123528027"><ele>189.0</ele><time>2026-05-04T10:08:01.001Z</time></trkpt><trkpt lat="41.623601922055904" lon="-0.7309434851511546"><ele>189.0</ele><time>2026-05-04T10:08:02Z</time></trkpt><trkpt lat="41.62355137637373" lon="-0.7308149406969076"><ele>189.0</ele><time>2026-05-04T10:08:03Z</time></trkpt><trkpt lat="41.62350095291742" lon="-0.7306849325588065"><ele>189.6</ele><time>2026-05-04T10:08:04Z</time></trkpt><trkpt lat="41.62345054746068" lon="-0.730554317924523"><ele>190.2</ele><time>2026-05-04T10:08:05Z</time></trkpt><trkpt lat="41.62340074661604" lon="-0.7304227131708937"><ele>190.79999999999998</ele><time>2026-05-04T10:08:06Z</time></trkpt><trkpt lat="41.623347226131216" lon="-0.7302937690316597"><ele>191.39999999999998</ele><time>2026-05-04T10:08:07Z</time></trkpt><trkpt lat="41.62329627255456" lon="-0.7301563870915285"><ele>192.0</ele><time>2026-05-04T10:08:08Z</time></trkpt><trkpt lat="41.62324825357079" lon="-0.7300313665424872"><ele>192.39999999999998</ele><time>2026-05-04T10:08:09Z</time></trkpt><trkpt lat="41.623193597099736" lon="-0.7298930894903952"><ele>192.79999999999998</ele><time>2026-05-04T10:08:10Z</time></trkpt><trkpt lat="41.62314219107164" lon="-0.7297605399125247"><ele>193.2</ele><time>2026-05-04T10:08:11Z</time></trkpt><trkpt lat="41.62308990850224" lon="-0.7296319122376572"><ele>193.6</ele><time>2026-05-04T10:08:12Z</time></trkpt><trkpt lat="41.623038551914966" lon="-0.7295048800894975"><ele>194.0</ele><time>2026-05-04T10:08:13Z</time></trkpt><trkpt lat="41.62298806191608" lon="-0.7293750186247884"><ele>194.2</ele><time>2026-05-04T10:08:14Z</time></trkpt><trkpt lat="41.622940482669776" lon="-0.7292425154172644"><ele>194.39999999999998</ele><time>2026-05-04T10:08:15Z</time></trkpt><trkpt lat="41.622893376856304" lon="-0.7291110001002072"><ele>194.6</ele><time>2026-05-04T10:08:16Z</time></trkpt><trkpt lat="41.6228487875056" lon="-0.7289770136417826"><ele>194.8</ele><time>2026-05-04T10:08:17Z</time></trkpt><trkpt lat="41.622808758878826" lon="-0.7288384627089574"><ele>195.0</ele><time>2026-05-04T10:08:18Z</time></trkpt><trkpt lat="41.62276763670449" lon="-0.7287043622668922"><ele>194.6</ele><time>2026-05-04T10:08:19Z</time></trkpt><trkpt lat="41.62272969596766" lon="-0.7285658974698441"><ele>194.2</ele><time>2026-05-04T10:08:20Z</time></trkpt><trkpt lat="41.62269571241611" lon="-0.7284283333394974"><ele>193.8</ele><time>2026-05-04T10:08:21Z</time></trkpt><trkpt lat="41.62266885309902" lon="-0.72830290721594"><ele>193.4</ele><time>2026-05-04T10:08:22Z</time></trkpt><trkpt lat="41.62264698963837" lon="-0.7281918374776473"><ele>193.0</ele><time>2026-05-04T10:08:23Z</time></trkpt><trkpt lat="41.622626175745495" lon="-0.7280989715262374"><ele>193.2</ele><time>2026-05-04T10:08:24Z</time></trkpt><trkpt lat="41.62260682976098" lon="-0.7279718797879322"><ele>193.4</ele><time>2026-05-04T10:08:26Z</time></trkpt><trkpt lat="41.62259429578599" lon="-0.7278480579147373"><ele>193.6</ele><time>2026-05-04T10:08:29Z</time></trkpt><trkpt lat="41.62258785289308" lon="-0.7277638478111453"><ele>193.79999999999998</ele><time>2026-05-04T10:09:28.001Z</time></trkpt><trkpt lat="41.62257517926899" lon="-0.7276492445169934"><ele>194.0</ele><time>2026-05-04T10:09:30.001Z</time></trkpt><trkpt lat="41.622557126429" lon="-0.727471489232992"><ele>194.00000000000003</ele><time>2026-05-04T10:09:32.001Z</time></trkpt><trkpt lat="41.6225456341772" lon="-0.7273694996435727"><ele>194.0</ele><time>2026-05-04T10:09:33.001Z</time></trkpt><trkpt lat="41.62253172829711" lon="-0.7272560594757933"><ele>194.0</ele><time>2026-05-04T10:09:34.001Z</time></trkpt><trkpt lat="41.62251923302359" lon="-0.7271393435041902"><ele>194.0</ele><time>2026-05-04T10:09:35.001Z</time></trkpt><trkpt lat="41.622505194198936" lon="-0.7270162091267462"><ele>194.00000000000003</ele><time>2026-05-04T10:09:36.001Z</time></trkpt><trkpt lat="41.6224896716189" lon="-0.7268840840395973"><ele>194.0</ele><time>2026-05-04T10:09:37.001Z</time></trkpt><trkpt lat="41.62247171518558" lon="-0.7267475018201658"><ele>193.79999999999998</ele><time>2026-05-04T10:09:38.001Z</time></trkpt><trkpt lat="41.62245647935728" lon="-0.7266073813667802"><ele>193.6</ele><time>2026-05-04T10:09:39.001Z</time></trkpt><trkpt lat="41.62244007484372" lon="-0.7264626548442994"><ele>193.4</ele><time>2026-05-04T10:09:40.001Z</time></trkpt><trkpt lat="41.62242344262425" lon="-0.7263160846978474"><ele>193.2</ele><time>2026-05-04T10:09:41.001Z</time></trkpt><trkpt lat="41.6224019766123" lon="-0.7261605811302836"><ele>193.0</ele><time>2026-05-04T10:09:42.001Z</time></trkpt><trkpt lat="41.622385491246504" lon="-0.7260138915762013"><ele>192.25</ele><time>2026-05-04T10:09:43.001Z</time></trkpt><trkpt lat="41.62237158536893" lon="-0.725866121161957"><ele>191.5</ele><time>2026-05-04T10:09:44.001Z</time></trkpt><trkpt lat="41.62235457910756" lon="-0.7257103680436039"><ele>190.75</ele><time>2026-05-04T10:09:45.001Z</time></trkpt><trkpt lat="41.622335455596925" lon="-0.7255560992704992"><ele>190.0</ele><time>2026-05-04T10:09:46.001Z</time></trkpt><trkpt lat="41.62231616742039" lon="-0.7254027154414763"><ele>190.0</ele><time>2026-05-04T10:09:47.001Z</time></trkpt><trkpt lat="41.622299301024434" lon="-0.7252508635559971"><ele>190.0</ele><time>2026-05-04T10:09:48.001Z</time></trkpt><trkpt lat="41.6222814387004" lon="-0.7250982867483059"><ele>190.0</ele><time>2026-05-04T10:09:49.001Z</time></trkpt><trkpt lat="41.62226376877156" lon="-0.7249520426325278"><ele>190.0</ele><time>2026-05-04T10:09:50.001Z</time></trkpt><trkpt lat="41.6222430779597" lon="-0.7247962048755553"><ele>189.75</ele><time>2026-05-04T10:09:51.001Z</time></trkpt><trkpt lat="41.622225393922584" lon="-0.7246479708115501"><ele>189.5</ele><time>2026-05-04T10:09:52.001Z</time></trkpt><trkpt lat="41.62221211271466" lon="-0.7244995829016909"><ele>189.25</ele><time>2026-05-04T10:09:53.001Z</time></trkpt><trkpt lat="41.62218286301506" lon="-0.7243132112987829"><ele>189.0</ele><time>2026-05-04T10:09:54.001Z</time></trkpt><trkpt lat="41.62216036705971" lon="-0.7241302474074587"><ele>190.0</ele><time>2026-05-04T10:09:55.001Z</time></trkpt><trkpt lat="41.6221338451698" lon="-0.7239174799587986"><ele>191.0</ele><time>2026-05-04T10:09:57.001Z</time></trkpt><trkpt lat="41.622116663609845" lon="-0.7237714959586306"><ele>192.0</ele><time>2026-05-04T10:09:58.001Z</time></trkpt><trkpt lat="41.62210149453674" lon="-0.7236241135092049"><ele>193.0</ele><time>2026-05-04T10:09:59.001Z</time></trkpt><trkpt lat="41.62208536953939" lon="-0.7234768287956995"><ele>193.60000000000002</ele><time>2026-05-04T10:10:00.001Z</time></trkpt><trkpt lat="41.62206957057249" lon="-0.7233296655107929"><ele>194.20000000000002</ele><time>2026-05-04T10:10:01.001Z</time></trkpt><trkpt lat="41.62205104997365" lon="-0.7231830370659963"><ele>194.8</ele><time>2026-05-04T10:10:02.001Z</time></trkpt><trkpt lat="41.62203173634388" lon="-0.723036363706987"><ele>195.4</ele><time>2026-05-04T10:10:03.001Z</time></trkpt><trkpt lat="41.622012770684805" lon="-0.7228876938106769"><ele>196.0</ele><time>2026-05-04T10:10:04.001Z</time></trkpt><trkpt lat="41.62199307269053" lon="-0.7227364217323536"><ele>194.0</ele><time>2026-05-04T10:10:05.001Z</time></trkpt><trkpt lat="41.62197575164837" lon="-0.7225909521740939"><ele>192.0</ele><time>2026-05-04T10:10:06.001Z</time></trkpt><trkpt lat="41.62195950314212" lon="-0.7224451979898528"><ele>190.0</ele><time>2026-05-04T10:10:07.001Z</time></trkpt><trkpt lat="41.621944660096155" lon="-0.7222982986060701"><ele>188.0</ele><time>2026-05-04T10:10:07.999Z</time></trkpt><trkpt lat="41.62192794584592" lon="-0.7221541212891739"><ele>186.0</ele><time>2026-05-04T10:10:08.999Z</time></trkpt><trkpt lat="41.62190463869094" lon="-0.7220073507322162"><ele>186.20000000000002</ele><time>2026-05-04T10:10:09.999Z</time></trkpt><trkpt lat="41.6218786384886" lon="-0.7218595038426773"><ele>186.4</ele><time>2026-05-04T10:10:10.999Z</time></trkpt><trkpt lat="41.62185725838321" lon="-0.7217143382138779"><ele>186.6</ele><time>2026-05-04T10:10:11.999Z</time></trkpt><trkpt lat="41.6218318770469" lon="-0.7215646302153745"><ele>186.8</ele><time>2026-05-04T10:10:12.999Z</time></trkpt><trkpt lat="41.62179457935076" lon="-0.7214258094881086"><ele>187.0</ele><time>2026-05-04T10:10:13.999Z</time></trkpt><trkpt lat="41.621746765238775" lon="-0.7212911779964164"><ele>187.0</ele><time>2026-05-04T10:10:14.999Z</time></trkpt><trkpt lat="41.62170125708618" lon="-0.7211634389738437"><ele>187.0</ele><time>2026-05-04T10:10:15.999Z</time></trkpt><trkpt lat="41.621649976126115" lon="-0.7210334034810297"><ele>187.0</ele><time>2026-05-04T10:10:16.999Z</time></trkpt><trkpt lat="41.62159831197856" lon="-0.7209040281837648"><ele>187.0</ele><time>2026-05-04T10:10:17.999Z</time></trkpt><trkpt lat="41.62154349309743" lon="-0.7207748539135358"><ele>187.0</ele><time>2026-05-04T10:10:18.999Z</time></trkpt><trkpt lat="41.62148696155955" lon="-0.7206468495706582"><ele>187.39999999999998</ele><time>2026-05-04T10:10:19.999Z</time></trkpt><trkpt lat="41.6214318883542" lon="-0.720520563469389"><ele>187.79999999999998</ele><time>2026-05-04T10:10:20.999Z</time></trkpt><trkpt lat="41.62137665712995" lon="-0.7203927376996027"><ele>188.2</ele><time>2026-05-04T10:10:21.999Z</time></trkpt><trkpt lat="41.621323095292226" lon="-0.7202667741429452"><ele>188.6</ele><time>2026-05-04T10:10:22.999Z</time></trkpt><trkpt lat="41.621268223071034" lon="-0.720137504210641"><ele>189.0</ele><time>2026-05-04T10:10:23.999Z</time></trkpt><trkpt lat="41.62121382382305" lon="-0.720011439954055"><ele>189.6</ele><time>2026-05-04T10:10:24.999Z</time></trkpt><trkpt lat="41.621160659088" lon="-0.7198833402951083"><ele>190.2</ele><time>2026-05-04T10:10:25.999Z</time></trkpt><trkpt lat="41.62110631986495" lon="-0.7197540185171437"><ele>190.79999999999998</ele><time>2026-05-04T10:10:27Z</time></trkpt><trkpt lat="41.621051552889" lon="-0.7196280665686803"><ele>191.39999999999998</ele><time>2026-05-04T10:10:28Z</time></trkpt><trkpt lat="41.6209945762056" lon="-0.7194940691656939"><ele>192.0</ele><time>2026-05-04T10:10:29Z</time></trkpt><trkpt lat="41.62090097148579" lon="-0.7194009484919036"><ele>190.5</ele><time>2026-05-04T10:10:30Z</time></trkpt><trkpt lat="41.62087924969947" lon="-0.7192287796453961"><ele>189.0</ele><time>2026-05-04T10:10:31Z</time></trkpt><trkpt lat="41.6208225209508" lon="-0.7190950531370102"><ele>187.5</ele><time>2026-05-04T10:10:32Z</time></trkpt><trkpt lat="41.62076462518128" lon="-0.7189648368522255"><ele>186.0</ele><time>2026-05-04T10:10:33Z</time></trkpt><trkpt lat="41.620713800020155" lon="-0.7188244385097519"><ele>186.0</ele><time>2026-05-04T10:10:34Z</time></trkpt><trkpt lat="41.62065973316356" lon="-0.718691160894457"><ele>186.0</ele><time>2026-05-04T10:10:35Z</time></trkpt><trkpt lat="41.62060338425916" lon="-0.7185624772441669"><ele>186.0</ele><time>2026-05-04T10:10:36Z</time></trkpt><trkpt lat="41.620548435389495" lon="-0.7184312859914492"><ele>186.0</ele><time>2026-05-04T10:10:37Z</time></trkpt><trkpt lat="41.62049232299815" lon="-0.7182993147245554"><ele>186.0</ele><time>2026-05-04T10:10:38Z</time></trkpt><trkpt lat="41.62044579570955" lon="-0.7181674770690558"><ele>186.0</ele><time>2026-05-04T10:10:39Z</time></trkpt><trkpt lat="41.62041081814978" lon="-0.7180599919988083"><ele>186.0</ele><time>2026-05-04T10:10:40Z</time></trkpt><trkpt lat="41.62035035865526" lon="-0.7179154079809245"><ele>186.0</ele><time>2026-05-04T10:10:41Z</time></trkpt><trkpt lat="41.62028296265676" lon="-0.7177796052640976"><ele>186.0</ele><time>2026-05-04T10:10:42Z</time></trkpt><trkpt lat="41.62022419753203" lon="-0.7176550286136532"><ele>185.8</ele><time>2026-05-04T10:10:43Z</time></trkpt><trkpt lat="41.62017070790944" lon="-0.7175258110138022"><ele>185.60000000000002</ele><time>2026-05-04T10:10:44Z</time></trkpt><trkpt lat="41.62012095628221" lon="-0.7173934722298906"><ele>185.4</ele><time>2026-05-04T10:10:45Z</time></trkpt><trkpt lat="41.62006723859679" lon="-0.7172655452811197"><ele>185.2</ele><time>2026-05-04T10:10:46Z</time></trkpt><trkpt lat="41.6200153166553" lon="-0.7171383577984507"><ele>185.0</ele><time>2026-05-04T10:10:47Z</time></trkpt><trkpt lat="41.61997195480985" lon="-0.7170061922029438"><ele>185.5</ele><time>2026-05-04T10:10:48Z</time></trkpt><trkpt lat="41.61989328775031" lon="-0.7168713910181118"><ele>186.0</ele><time>2026-05-04T10:10:49Z</time></trkpt><trkpt lat="41.61983762731591" lon="-0.7167372810727999"><ele>186.5</ele><time>2026-05-04T10:10:50Z</time></trkpt><trkpt lat="41.61978172916069" lon="-0.716601335176792"><ele>187.0</ele><time>2026-05-04T10:10:51Z</time></trkpt><trkpt lat="41.619724197139256" lon="-0.7164693535114768"><ele>187.0</ele><time>2026-05-04T10:10:52Z</time></trkpt><trkpt lat="41.61967104114975" lon="-0.7163371626120391"><ele>187.0</ele><time>2026-05-04T10:10:53Z</time></trkpt><trkpt lat="41.61961212899999" lon="-0.7161990381517318"><ele>187.0</ele><time>2026-05-04T10:10:54Z</time></trkpt><trkpt lat="41.619558591399816" lon="-0.7160642032754158"><ele>187.0</ele><time>2026-05-04T10:10:55Z</time></trkpt><trkpt lat="41.61950255406925" lon="-0.7159342881153603"><ele>187.8</ele><time>2026-05-04T10:10:56Z</time></trkpt><trkpt lat="41.61944868123944" lon="-0.7158029727755808"><ele>188.6</ele><time>2026-05-04T10:10:57Z</time></trkpt><trkpt lat="41.619393047437825" lon="-0.7156703782580404"><ele>189.4</ele><time>2026-05-04T10:10:58Z</time></trkpt><trkpt lat="41.61933990633622" lon="-0.7155382592655123"><ele>190.20000000000002</ele><time>2026-05-04T10:10:59Z</time></trkpt><trkpt lat="41.61928715161567" lon="-0.7154085311198667"><ele>191.0</ele><time>2026-05-04T10:11:00Z</time></trkpt><trkpt lat="41.61923370227296" lon="-0.715280731796418"><ele>190.60000000000002</ele><time>2026-05-04T10:11:01Z</time></trkpt><trkpt lat="41.619182494055174" lon="-0.7151575543609191"><ele>190.2</ele><time>2026-05-04T10:11:02Z</time></trkpt><trkpt lat="41.619127027341605" lon="-0.7150331149657805"><ele>189.8</ele><time>2026-05-04T10:11:03Z</time></trkpt><trkpt lat="41.61907208424932" lon="-0.7149059169393842"><ele>189.39999999999998</ele><time>2026-05-04T10:11:04Z</time></trkpt><trkpt lat="41.619020478552486" lon="-0.7147768752022602"><ele>189.0</ele><time>2026-05-04T10:11:05Z</time></trkpt><trkpt lat="41.61896778628119" lon="-0.7146454257269936"><ele>189.0</ele><time>2026-05-04T10:11:06Z</time></trkpt><trkpt lat="41.61891651259458" lon="-0.7145157297851767"><ele>189.0</ele><time>2026-05-04T10:11:07Z</time></trkpt><trkpt lat="41.6188627459162" lon="-0.7143890357617795"><ele>189.0</ele><time>2026-05-04T10:11:08Z</time></trkpt><trkpt lat="41.61880871739384" lon="-0.7142583163799119"><ele>189.0</ele><time>2026-05-04T10:11:09Z</time></trkpt><trkpt lat="41.61875380619004" lon="-0.71412321920954"><ele>189.0</ele><time>2026-05-04T10:11:10Z</time></trkpt><trkpt lat="41.61870141566406" lon="-0.7139891658327129"><ele>188.25</ele><time>2026-05-04T10:11:11Z</time></trkpt><trkpt lat="41.61863740135624" lon="-0.7138563298627187"><ele>187.5</ele><time>2026-05-04T10:11:12Z</time></trkpt><trkpt lat="41.61857866082874" lon="-0.713721589180921"><ele>186.75</ele><time>2026-05-04T10:11:13Z</time></trkpt><trkpt lat="41.61852375466103" lon="-0.7135819702671811"><ele>186.0</ele><time>2026-05-04T10:11:14Z</time></trkpt><trkpt lat="41.618467460988015" lon="-0.7134442857204168"><ele>186.0</ele><time>2026-05-04T10:11:15Z</time></trkpt><trkpt lat="41.61841101895529" lon="-0.7133125212568749"><ele>186.0</ele><time>2026-05-04T10:11:16Z</time></trkpt><trkpt lat="41.618357332724365" lon="-0.7131771393326416"><ele>186.0</ele><time>2026-05-04T10:11:17Z</time></trkpt><trkpt lat="41.61830310034571" lon="-0.7130415294937897"><ele>186.0</ele><time>2026-05-04T10:11:18Z</time></trkpt><trkpt lat="41.61824796876712" lon="-0.7129034806396525"><ele>186.0</ele><time>2026-05-04T10:11:19Z</time></trkpt><trkpt lat="41.61819339633888" lon="-0.7127676982524701"><ele>186.0</ele><time>2026-05-04T10:11:20Z</time></trkpt><trkpt lat="41.61813865471409" lon="-0.7126313406468285"><ele>186.0</ele><time>2026-05-04T10:11:21Z</time></trkpt><trkpt lat="41.61808191287525" lon="-0.7124938118021403"><ele>186.0</ele><time>2026-05-04T10:11:22Z</time></trkpt><trkpt lat="41.618025348511466" lon="-0.7123620793868605"><ele>186.0</ele><time>2026-05-04T10:11:23Z</time></trkpt><trkpt lat="41.61797042916685" lon="-0.7122245101436742"><ele>186.0</ele><time>2026-05-04T10:11:24Z</time></trkpt><trkpt lat="41.61791723158116" lon="-0.7120911682235707"><ele>186.0</ele><time>2026-05-04T10:11:25Z</time></trkpt><trkpt lat="41.617862921893426" lon="-0.7119560408693814"><ele>186.0</ele><time>2026-05-04T10:11:26Z</time></trkpt><trkpt lat="41.61780753781113" lon="-0.7118236393473465"><ele>185.8</ele><time>2026-05-04T10:11:27Z</time></trkpt><trkpt lat="41.61775785469011" lon="-0.7117024648894724"><ele>185.60000000000002</ele><time>2026-05-04T10:11:28Z</time></trkpt><trkpt lat="41.6177031226285" lon="-0.7115550104380364"><ele>185.4</ele><time>2026-05-04T10:11:29Z</time></trkpt><trkpt lat="41.6176485262359" lon="-0.7114257526241018"><ele>185.2</ele><time>2026-05-04T10:11:30Z</time></trkpt><trkpt lat="41.61759653770661" lon="-0.7112935187428181"><ele>185.0</ele><time>2026-05-04T10:11:31.001Z</time></trkpt><trkpt lat="41.61754392682135" lon="-0.711165472211715"><ele>185.75</ele><time>2026-05-04T10:11:32.001Z</time></trkpt><trkpt lat="41.61749189033459" lon="-0.7110364864528043"><ele>186.5</ele><time>2026-05-04T10:11:33.001Z</time></trkpt><trkpt lat="41.617441522151694" lon="-0.7108971999626433"><ele>187.25</ele><time>2026-05-04T10:11:34.001Z</time></trkpt><trkpt lat="41.61738536425325" lon="-0.7107737000813197"><ele>188.0</ele><time>2026-05-04T10:11:35.001Z</time></trkpt><trkpt lat="41.617332571437124" lon="-0.7106320220420893"><ele>188.0</ele><time>2026-05-04T10:11:36.001Z</time></trkpt><trkpt lat="41.61729339470555" lon="-0.7104885553806896"><ele>188.0</ele><time>2026-05-04T10:11:37.001Z</time></trkpt><trkpt lat="41.61723145518759" lon="-0.710363753595422"><ele>188.0</ele><time>2026-05-04T10:11:38.001Z</time></trkpt><trkpt lat="41.61716958316307" lon="-0.7102355228392099"><ele>188.0</ele><time>2026-05-04T10:11:39.001Z</time></trkpt><trkpt lat="41.61709071306678" lon="-0.71008014659138"><ele>188.0</ele><time>2026-05-04T10:11:40.001Z</time></trkpt><trkpt lat="41.61703066612298" lon="-0.7099364851908637"><ele>188.0</ele><time>2026-05-04T10:11:41.001Z</time></trkpt><trkpt lat="41.61700892462631" lon="-0.7098415602027013"><ele>188.0</ele><time>2026-05-04T10:11:42.001Z</time></trkpt><trkpt lat="41.61694866854969" lon="-0.7097244129269213"><ele>188.0</ele><time>2026-05-04T10:11:43.001Z</time></trkpt><trkpt lat="41.61689642478916" lon="-0.7095877396288571"><ele>188.0</ele><time>2026-05-04T10:11:44.001Z</time></trkpt><trkpt lat="41.616842416403074" lon="-0.7094619785273588"><ele>187.8</ele><time>2026-05-04T10:11:45.001Z</time></trkpt><trkpt lat="41.6167882226482" lon="-0.70933275712379"><ele>187.60000000000002</ele><time>2026-05-04T10:11:46.001Z</time></trkpt><trkpt lat="41.61673258910983" lon="-0.7092043210806344"><ele>187.39999999999998</ele><time>2026-05-04T10:11:47.001Z</time></trkpt><trkpt lat="41.61667915453529" lon="-0.7090747892799814"><ele>187.2</ele><time>2026-05-04T10:11:48.001Z</time></trkpt><trkpt lat="41.61662521244624" lon="-0.7089452757539012"><ele>187.0</ele><time>2026-05-04T10:11:49.001Z</time></trkpt><trkpt lat="41.61657299470512" lon="-0.7088163490094037"><ele>187.0</ele><time>2026-05-04T10:11:50.001Z</time></trkpt><trkpt lat="41.61652028513107" lon="-0.7086873626419116"><ele>187.0</ele><time>2026-05-04T10:11:51.001Z</time></trkpt><trkpt lat="41.6164703407323" lon="-0.7085588556915494"><ele>187.0</ele><time>2026-05-04T10:11:52.001Z</time></trkpt><trkpt lat="41.61641819378073" lon="-0.7084282736170998"><ele>187.0</ele><time>2026-05-04T10:11:53.001Z</time></trkpt><trkpt lat="41.61636138044621" lon="-0.7083034223903748"><ele>187.0</ele><time>2026-05-04T10:11:54.001Z</time></trkpt><trkpt lat="41.61631118860798" lon="-0.7081747386467964"><ele>187.39999999999998</ele><time>2026-05-04T10:11:55.001Z</time></trkpt><trkpt lat="41.616259840613296" lon="-0.708046995906573"><ele>187.79999999999998</ele><time>2026-05-04T10:11:56.001Z</time></trkpt><trkpt lat="41.616206984531125" lon="-0.7079192061587902"><ele>188.2</ele><time>2026-05-04T10:11:57.001Z</time></trkpt><trkpt lat="41.616154500258716" lon="-0.7077907024178828"><ele>188.6</ele><time>2026-05-04T10:11:58.001Z</time></trkpt><trkpt lat="41.61609934057943" lon="-0.7076651820026058"><ele>189.0</ele><time>2026-05-04T10:11:59.001Z</time></trkpt><trkpt lat="41.61605058186102" lon="-0.7075380111981963"><ele>189.0</ele><time>2026-05-04T10:12:00.001Z</time></trkpt><trkpt lat="41.61599549974171" lon="-0.7074136045056673"><ele>189.0</ele><time>2026-05-04T10:12:01.001Z</time></trkpt><trkpt lat="41.61594208336706" lon="-0.7072883272523861"><ele>189.0</ele><time>2026-05-04T10:12:02.001Z</time></trkpt><trkpt lat="41.615887138580455" lon="-0.7071650097565024"><ele>189.0</ele><time>2026-05-04T10:12:03.001Z</time></trkpt><trkpt lat="41.6158360051695" lon="-0.7070388158515111"><ele>189.0</ele><time>2026-05-04T10:12:04.001Z</time></trkpt><trkpt lat="41.615785163881526" lon="-0.7069125843917283"><ele>189.39999999999998</ele><time>2026-05-04T10:12:05.001Z</time></trkpt><trkpt lat="41.615730668872416" lon="-0.7067884688007247"><ele>189.8</ele><time>2026-05-04T10:12:06.001Z</time></trkpt><trkpt lat="41.61567989922316" lon="-0.706661562133542"><ele>190.2</ele><time>2026-05-04T10:12:07.001Z</time></trkpt><trkpt lat="41.615632830830044" lon="-0.7065336519385885"><ele>190.60000000000002</ele><time>2026-05-04T10:12:08.001Z</time></trkpt><trkpt lat="41.615580436902384" lon="-0.706408978717371"><ele>191.0</ele><time>2026-05-04T10:12:09.001Z</time></trkpt><trkpt lat="41.61552741027408" lon="-0.7062834796168326"><ele>191.0</ele><time>2026-05-04T10:12:10.001Z</time></trkpt><trkpt lat="41.615476713181074" lon="-0.7061567980496486"><ele>191.0</ele><time>2026-05-04T10:12:11.001Z</time></trkpt><trkpt lat="41.615422846942366" lon="-0.706028036268761"><ele>191.0</ele><time>2026-05-04T10:12:12.001Z</time></trkpt><trkpt lat="41.61537165253327" lon="-0.7059010546076683"><ele>191.0</ele><time>2026-05-04T10:12:13.001Z</time></trkpt><trkpt lat="41.615319394930594" lon="-0.7057736434256394"><ele>191.0</ele><time>2026-05-04T10:12:14Z</time></trkpt><trkpt lat="41.61526540034712" lon="-0.7056467847168973"><ele>190.8</ele><time>2026-05-04T10:12:15Z</time></trkpt><trkpt lat="41.61520984828434" lon="-0.7055205909220369"><ele>190.60000000000002</ele><time>2026-05-04T10:12:16Z</time></trkpt><trkpt lat="41.61515613616638" lon="-0.7053943156531299"><ele>190.4</ele><time>2026-05-04T10:12:17Z</time></trkpt><trkpt lat="41.615101522808445" lon="-0.7052678714861869"><ele>190.2</ele><time>2026-05-04T10:12:18Z</time></trkpt><trkpt lat="41.615053098392295" lon="-0.7051384292517331"><ele>190.0</ele><time>2026-05-04T10:12:19Z</time></trkpt><trkpt lat="41.614997317716146" lon="-0.7050146368507071"><ele>190.4</ele><time>2026-05-04T10:12:20Z</time></trkpt><trkpt lat="41.614943803963335" lon="-0.7048864299409141"><ele>190.8</ele><time>2026-05-04T10:12:21Z</time></trkpt><trkpt lat="41.61489497646693" lon="-0.704758174468823"><ele>191.2</ele><time>2026-05-04T10:12:22Z</time></trkpt><trkpt lat="41.61484659368482" lon="-0.704631168399046"><ele>191.6</ele><time>2026-05-04T10:12:23Z</time></trkpt><trkpt lat="41.614793265993285" lon="-0.7045095758682881"><ele>192.0</ele><time>2026-05-04T10:12:24Z</time></trkpt><trkpt lat="41.61474202640352" lon="-0.7043832631400638"><ele>192.2</ele><time>2026-05-04T10:12:25Z</time></trkpt><trkpt lat="41.61467881394899" lon="-0.7042741883666166"><ele>192.39999999999998</ele><time>2026-05-04T10:12:26Z</time></trkpt><trkpt lat="41.61462523917322" lon="-0.7041512719140316"><ele>192.60000000000002</ele><time>2026-05-04T10:12:27Z</time></trkpt><trkpt lat="41.61457249152575" lon="-0.7040302576238937"><ele>192.8</ele><time>2026-05-04T10:12:28Z</time></trkpt><trkpt lat="41.61451361310194" lon="-0.7039176032944134"><ele>193.0</ele><time>2026-05-04T10:12:29Z</time></trkpt><trkpt lat="41.61444554380651" lon="-0.7038042118403517"><ele>192.60000000000002</ele><time>2026-05-04T10:12:30Z</time></trkpt><trkpt lat="41.61437436704116" lon="-0.7036954746053935"><ele>192.20000000000002</ele><time>2026-05-04T10:12:31Z</time></trkpt><trkpt lat="41.61430034584693" lon="-0.703582875605509"><ele>191.8</ele><time>2026-05-04T10:12:32Z</time></trkpt><trkpt lat="41.614226603216046" lon="-0.7034706990061886"><ele>191.4</ele><time>2026-05-04T10:12:33Z</time></trkpt><trkpt lat="41.614157986144534" lon="-0.703353482847576"><ele>191.0</ele><time>2026-05-04T10:12:34Z</time></trkpt><trkpt lat="41.614090213397006" lon="-0.703236998691991"><ele>191.0</ele><time>2026-05-04T10:12:35Z</time></trkpt><trkpt lat="41.61404753748933" lon="-0.7031076748248839"><ele>191.0</ele><time>2026-05-04T10:12:36Z</time></trkpt><trkpt lat="41.6139935731142" lon="-0.7029942680368377"><ele>191.0</ele><time>2026-05-04T10:12:37Z</time></trkpt><trkpt lat="41.61393529356732" lon="-0.7028863582991646"><ele>191.0</ele><time>2026-05-04T10:12:38Z</time></trkpt><trkpt lat="41.61387426524669" lon="-0.7027810277513905"><ele>191.0</ele><time>2026-05-04T10:12:39Z</time></trkpt><trkpt lat="41.613806143452486" lon="-0.7026778577122517"><ele>190.8</ele><time>2026-05-04T10:12:40Z</time></trkpt><trkpt lat="41.61370725130928" lon="-0.7026064268737303"><ele>190.60000000000002</ele><time>2026-05-04T10:12:41Z</time></trkpt><trkpt lat="41.61363945032525" lon="-0.7024984987849502"><ele>190.4</ele><time>2026-05-04T10:12:42Z</time></trkpt><trkpt lat="41.61357022775259" lon="-0.7023893466867502"><ele>190.2</ele><time>2026-05-04T10:12:43Z</time></trkpt><trkpt lat="41.61349960307668" lon="-0.7022781182146908"><ele>190.0</ele><time>2026-05-04T10:12:44Z</time></trkpt><trkpt lat="41.61342664628744" lon="-0.7021632168415624"><ele>190.0</ele><time>2026-05-04T10:12:45Z</time></trkpt><trkpt lat="41.613361978265964" lon="-0.7020443074604287"><ele>190.0</ele><time>2026-05-04T10:12:46Z</time></trkpt><trkpt lat="41.61328457967058" lon="-0.7019368805755968"><ele>190.0</ele><time>2026-05-04T10:12:47Z</time></trkpt><trkpt lat="41.61321763857404" lon="-0.701819173503778"><ele>190.0</ele><time>2026-05-04T10:12:48Z</time></trkpt><trkpt lat="41.61315184347913" lon="-0.7017014597570583"><ele>190.0</ele><time>2026-05-04T10:12:49Z</time></trkpt><trkpt lat="41.613085789225174" lon="-0.7015832813725208"><ele>189.8</ele><time>2026-05-04T10:12:50Z</time></trkpt><trkpt lat="41.61302620976751" lon="-0.7014559222983796"><ele>189.6</ele><time>2026-05-04T10:12:51Z</time></trkpt><trkpt lat="41.61295340742629" lon="-0.7013422655505327"><ele>189.39999999999998</ele><time>2026-05-04T10:12:52Z</time></trkpt><trkpt lat="41.61287726518129" lon="-0.7012326137571833"><ele>189.2</ele><time>2026-05-04T10:12:53Z</time></trkpt><trkpt lat="41.61280431886218" lon="-0.7011241105958228"><ele>189.0</ele><time>2026-05-04T10:12:54Z</time></trkpt><trkpt lat="41.612729588910675" lon="-0.7010135581635775"><ele>189.39999999999998</ele><time>2026-05-04T10:12:55Z</time></trkpt><trkpt lat="41.612659295559446" lon="-0.700899592455722"><ele>189.8</ele><time>2026-05-04T10:12:56Z</time></trkpt><trkpt lat="41.61258726562828" lon="-0.7007881041131714"><ele>190.2</ele><time>2026-05-04T10:12:57Z</time></trkpt><trkpt lat="41.612512284527234" lon="-0.7006774322526796"><ele>190.60000000000002</ele><time>2026-05-04T10:12:58Z</time></trkpt><trkpt lat="41.61243785966928" lon="-0.7005680032640648"><ele>191.0</ele><time>2026-05-04T10:12:59Z</time></trkpt><trkpt lat="41.612362852427076" lon="-0.7004577544439317"><ele>191.0</ele><time>2026-05-04T10:13:00Z</time></trkpt><trkpt lat="41.612288991220545" lon="-0.7003471194550286"><ele>191.0</ele><time>2026-05-04T10:13:01Z</time></trkpt><trkpt lat="41.61221623055209" lon="-0.7002389310620326"><ele>191.0</ele><time>2026-05-04T10:13:02Z</time></trkpt><trkpt lat="41.61214199461181" lon="-0.7001304564070008"><ele>191.0</ele><time>2026-05-04T10:13:03Z</time></trkpt><trkpt lat="41.612066805431255" lon="-0.7000227375256078"><ele>191.0</ele><time>2026-05-04T10:13:04Z</time></trkpt><trkpt lat="41.61199109904026" lon="-0.699915295863101"><ele>190.8</ele><time>2026-05-04T10:13:05Z</time></trkpt><trkpt lat="41.61191582614871" lon="-0.6998089021615846"><ele>190.60000000000002</ele><time>2026-05-04T10:13:06Z</time></trkpt><trkpt lat="41.61183647797111" lon="-0.6997068791262703"><ele>190.4</ele><time>2026-05-04T10:13:07Z</time></trkpt><trkpt lat="41.61175156805197" lon="-0.6996108154789694"><ele>190.2</ele><time>2026-05-04T10:13:08Z</time></trkpt><trkpt lat="41.611663149522734" lon="-0.6995172324872333"><ele>190.0</ele><time>2026-05-04T10:13:09Z</time></trkpt><trkpt lat="41.6115801263193" lon="-0.6994275086810714"><ele>189.75</ele><time>2026-05-04T10:13:10Z</time></trkpt><trkpt lat="41.611476602572594" lon="-0.6993437357018427"><ele>189.5</ele><time>2026-05-04T10:13:11Z</time></trkpt><trkpt lat="41.611365445889795" lon="-0.6992751213785197"><ele>189.25</ele><time>2026-05-04T10:13:12Z</time></trkpt><trkpt lat="41.61120399198424" lon="-0.6992213051921061"><ele>189.0</ele><time>2026-05-04T10:13:13Z</time></trkpt><trkpt lat="41.611063467219935" lon="-0.6991842986564089"><ele>189.0</ele><time>2026-05-04T10:13:14Z</time></trkpt><trkpt lat="41.61095328885434" lon="-0.6990712133233453"><ele>189.0</ele><time>2026-05-04T10:13:16Z</time></trkpt><trkpt lat="41.61084561317171" lon="-0.6990308819538991"><ele>189.0</ele><time>2026-05-04T10:13:17Z</time></trkpt><trkpt lat="41.61074043912196" lon="-0.6989993692857408"><ele>189.0</ele><time>2026-05-04T10:13:18Z</time></trkpt><trkpt lat="41.61063565539135" lon="-0.6989678565141907"><ele>189.0</ele><time>2026-05-04T10:13:19Z</time></trkpt><trkpt lat="41.610528369639304" lon="-0.6989424303965639"><ele>189.0</ele><time>2026-05-04T10:13:20Z</time></trkpt><trkpt lat="41.61042081078791" lon="-0.6989158688091419"><ele>189.0</ele><time>2026-05-04T10:13:21Z</time></trkpt><trkpt lat="41.61031652186316" lon="-0.6988912273211688"><ele>189.0</ele><time>2026-05-04T10:13:22.001Z</time></trkpt><trkpt lat="41.61020904596993" lon="-0.6988527848617863"><ele>189.0</ele><time>2026-05-04T10:13:23.001Z</time></trkpt><trkpt lat="41.61009706775582" lon="-0.6988189711920891"><ele>188.75</ele><time>2026-05-04T10:13:24.001Z</time></trkpt><trkpt lat="41.609987831671425" lon="-0.6987878480598548"><ele>188.5</ele><time>2026-05-04T10:13:25.001Z</time></trkpt><trkpt lat="41.60988031366572" lon="-0.6987484106680304"><ele>188.25</ele><time>2026-05-04T10:13:26.001Z</time></trkpt><trkpt lat="41.609774646041906" lon="-0.698694244073255"><ele>188.0</ele><time>2026-05-04T10:13:27.001Z</time></trkpt><trkpt lat="41.60966738306673" lon="-0.6986370210225407"><ele>188.0</ele><time>2026-05-04T10:13:28.001Z</time></trkpt><trkpt lat="41.609566436091015" lon="-0.6985690057330295"><ele>188.0</ele><time>2026-05-04T10:13:29.001Z</time></trkpt><trkpt lat="41.60946186116307" lon="-0.6984969173352297"><ele>188.0</ele><time>2026-05-04T10:13:30.001Z</time></trkpt><trkpt lat="41.60936416431348" lon="-0.6984232895063579"><ele>188.0</ele><time>2026-05-04T10:13:31.001Z</time></trkpt><trkpt lat="41.60926675251986" lon="-0.6983388873389557"><ele>188.0</ele><time>2026-05-04T10:13:32.001Z</time></trkpt><trkpt lat="41.6091732118164" lon="-0.6982314061840034"><ele>188.0</ele><time>2026-05-04T10:13:33.001Z</time></trkpt><trkpt lat="41.6090804662095" lon="-0.6981485618442351"><ele>188.0</ele><time>2026-05-04T10:13:34.001Z</time></trkpt><trkpt lat="41.60899402865638" lon="-0.6980517452026156"><ele>188.0</ele><time>2026-05-04T10:13:35.001Z</time></trkpt><trkpt lat="41.60890883053468" lon="-0.6979441375430708"><ele>188.0</ele><time>2026-05-04T10:13:36.001Z</time></trkpt><trkpt lat="41.6088299168213" lon="-0.6978397694956078"><ele>188.0</ele><time>2026-05-04T10:13:37.001Z</time></trkpt><trkpt lat="41.60875092766457" lon="-0.6977268624662285"><ele>188.0</ele><time>2026-05-04T10:13:38.001Z</time></trkpt><trkpt lat="41.60868216510301" lon="-0.6976286687744138"><ele>188.0</ele><time>2026-05-04T10:13:39.001Z</time></trkpt><trkpt lat="41.608631617924644" lon="-0.6975259322243041"><ele>188.0</ele><time>2026-05-04T10:13:40.001Z</time></trkpt><trkpt lat="41.60861479774094" lon="-0.6974336718072702"><ele>188.0</ele><time>2026-05-04T10:13:41.001Z</time></trkpt><trkpt lat="41.6084779079295" lon="-0.6972829294065803"><ele>188.0</ele><time>2026-05-04T10:13:42.001Z</time></trkpt><trkpt lat="41.60841000483469" lon="-0.6971480924692915"><ele>188.0</ele><time>2026-05-04T10:13:43.001Z</time></trkpt><trkpt lat="41.60835038617138" lon="-0.6970339598596237"><ele>188.0</ele><time>2026-05-04T10:13:44.001Z</time></trkpt><trkpt lat="41.60829463275885" lon="-0.6969069165221835"><ele>188.0</ele><time>2026-05-04T10:13:45.001Z</time></trkpt><trkpt lat="41.60823671495615" lon="-0.6967819943922114"><ele>188.0</ele><time>2026-05-04T10:13:46.001Z</time></trkpt><trkpt lat="41.60818427485444" lon="-0.6966588113262918"><ele>188.0</ele><time>2026-05-04T10:13:47.001Z</time></trkpt><trkpt lat="41.608137263258385" lon="-0.6965286725102753"><ele>188.0</ele><time>2026-05-04T10:13:48.001Z</time></trkpt><trkpt lat="41.60808950614994" lon="-0.6964002666141194"><ele>188.0</ele><time>2026-05-04T10:13:49.001Z</time></trkpt><trkpt lat="41.60804538746697" lon="-0.6962705568020767"><ele>188.0</ele><time>2026-05-04T10:13:50.001Z</time></trkpt><trkpt lat="41.60800429861791" lon="-0.6961364189828085"><ele>188.0</ele><time>2026-05-04T10:13:51.001Z</time></trkpt><trkpt lat="41.60797183457959" lon="-0.695998801464865"><ele>188.0</ele><time>2026-05-04T10:13:52.001Z</time></trkpt><trkpt lat="41.60793861311572" lon="-0.695861042691131"><ele>188.0</ele><time>2026-05-04T10:13:53.001Z</time></trkpt><trkpt lat="41.60791121157295" lon="-0.695717585695902"><ele>188.0</ele><time>2026-05-04T10:13:54.001Z</time></trkpt><trkpt lat="41.60787996504454" lon="-0.6955744463591821"><ele>187.2</ele><time>2026-05-04T10:13:55.001Z</time></trkpt><trkpt lat="41.60785709734163" lon="-0.6954260258696725"><ele>186.4</ele><time>2026-05-04T10:13:56.001Z</time></trkpt><trkpt lat="41.60783674204595" lon="-0.6952866585308869"><ele>185.6</ele><time>2026-05-04T10:13:57.001Z</time></trkpt><trkpt lat="41.60781684002264" lon="-0.6951445886470023"><ele>184.79999999999998</ele><time>2026-05-04T10:13:58.001Z</time></trkpt><trkpt lat="41.607798226643425" lon="-0.6949972840635751"><ele>184.0</ele><time>2026-05-04T10:13:59.001Z</time></trkpt><trkpt lat="41.60778064106242" lon="-0.6948509585545491"><ele>184.0</ele><time>2026-05-04T10:14:00.001Z</time></trkpt><trkpt lat="41.607767325554995" lon="-0.6947041732930727"><ele>184.0</ele><time>2026-05-04T10:14:01.001Z</time></trkpt><trkpt lat="41.60775204780363" lon="-0.6945558973304035"><ele>184.0</ele><time>2026-05-04T10:14:02.001Z</time></trkpt><trkpt lat="41.607736139646676" lon="-0.6944068582029167"><ele>184.0</ele><time>2026-05-04T10:14:03.001Z</time></trkpt><trkpt lat="41.60771954058937" lon="-0.6942582281727938"><ele>184.0</ele><time>2026-05-04T10:14:04.001Z</time></trkpt><trkpt lat="41.60770005229764" lon="-0.6941042832639845"><ele>184.5</ele><time>2026-05-04T10:14:05.001Z</time></trkpt><trkpt lat="41.607663200386824" lon="-0.6939513655567008"><ele>185.0</ele><time>2026-05-04T10:14:06.001Z</time></trkpt><trkpt lat="41.60762711630089" lon="-0.693803135811062"><ele>185.5</ele><time>2026-05-04T10:14:07.001Z</time></trkpt><trkpt lat="41.607591616450065" lon="-0.6936578801408706"><ele>186.0</ele><time>2026-05-04T10:14:08.001Z</time></trkpt><trkpt lat="41.60755420185831" lon="-0.6935144198840503"><ele>186.0</ele><time>2026-05-04T10:14:09.001Z</time></trkpt><trkpt lat="41.60750610941855" lon="-0.693372701681637"><ele>186.0</ele><time>2026-05-04T10:14:10.001Z</time></trkpt><trkpt lat="41.607455181931044" lon="-0.6932344670855375"><ele>186.0</ele><time>2026-05-04T10:14:11.001Z</time></trkpt><trkpt lat="41.60740374977485" lon="-0.6930958576099889"><ele>186.0</ele><time>2026-05-04T10:14:12.001Z</time></trkpt><trkpt lat="41.60735363417044" lon="-0.6929573209123532"><ele>186.0</ele><time>2026-05-04T10:14:13.001Z</time></trkpt><trkpt lat="41.60730287450203" lon="-0.692831072964689"><ele>186.0</ele><time>2026-05-04T10:14:14.001Z</time></trkpt><trkpt lat="41.607246979303135" lon="-0.6927009756025436"><ele>186.0</ele><time>2026-05-04T10:14:15.001Z</time></trkpt><trkpt lat="41.60718186571307" lon="-0.6925696620251851"><ele>186.0</ele><time>2026-05-04T10:14:16.001Z</time></trkpt><trkpt lat="41.60711839989293" lon="-0.6924519701114513"><ele>186.0</ele><time>2026-05-04T10:14:17.001Z</time></trkpt><trkpt lat="41.60704761784427" lon="-0.69233224067741"><ele>185.8</ele><time>2026-05-04T10:14:18.001Z</time></trkpt><trkpt lat="41.60698188396869" lon="-0.6922268600410503"><ele>185.60000000000002</ele><time>2026-05-04T10:14:19.001Z</time></trkpt><trkpt lat="41.60690539733713" lon="-0.6921113469730041"><ele>185.4</ele><time>2026-05-04T10:14:20Z</time></trkpt><trkpt lat="41.60683271946071" lon="-0.6919962547090929"><ele>185.2</ele><time>2026-05-04T10:14:21Z</time></trkpt><trkpt lat="41.606760256652194" lon="-0.6918865311637992"><ele>185.0</ele><time>2026-05-04T10:14:22Z</time></trkpt><trkpt lat="41.606689843711685" lon="-0.6917783230483743"><ele>185.4</ele><time>2026-05-04T10:14:23Z</time></trkpt><trkpt lat="41.606621721133635" lon="-0.691663665619109"><ele>185.8</ele><time>2026-05-04T10:14:24Z</time></trkpt><trkpt lat="41.60655186493946" lon="-0.6915508799942487"><ele>186.2</ele><time>2026-05-04T10:14:25Z</time></trkpt><trkpt lat="41.60647927231938" lon="-0.6914423783603967"><ele>186.6</ele><time>2026-05-04T10:14:26Z</time></trkpt><trkpt lat="41.606407746736984" lon="-0.6913365605169863"><ele>187.0</ele><time>2026-05-04T10:14:27Z</time></trkpt><trkpt lat="41.60633638117582" lon="-0.6912280518536454"><ele>187.0</ele><time>2026-05-04T10:14:28Z</time></trkpt><trkpt lat="41.606264984771215" lon="-0.691117408854772"><ele>187.0</ele><time>2026-05-04T10:14:29Z</time></trkpt><trkpt lat="41.60619306906947" lon="-0.6910092425158001"><ele>187.0</ele><time>2026-05-04T10:14:30Z</time></trkpt><trkpt lat="41.60612113746847" lon="-0.6909006473327735"><ele>187.0</ele><time>2026-05-04T10:14:31Z</time></trkpt><trkpt lat="41.6060479299737" lon="-0.6907887185315236"><ele>187.0</ele><time>2026-05-04T10:14:32Z</time></trkpt><trkpt lat="41.605973545205735" lon="-0.6906724368732614"><ele>186.75</ele><time>2026-05-04T10:14:33Z</time></trkpt><trkpt lat="41.60589832308799" lon="-0.6905675236061114"><ele>186.5</ele><time>2026-05-04T10:14:34Z</time></trkpt><trkpt lat="41.60582667729333" lon="-0.6904460861128803"><ele>186.25</ele><time>2026-05-04T10:14:35Z</time></trkpt><trkpt lat="41.60574857492276" lon="-0.690335893927345"><ele>186.0</ele><time>2026-05-04T10:14:36Z</time></trkpt><trkpt lat="41.6056722976382" lon="-0.6902234504441755"><ele>186.0</ele><time>2026-05-04T10:14:37Z</time></trkpt><trkpt lat="41.605596451281514" lon="-0.6901094522812988"><ele>186.0</ele><time>2026-05-04T10:14:38Z</time></trkpt><trkpt lat="41.60552223840559" lon="-0.6899929929988307"><ele>186.0</ele><time>2026-05-04T10:14:39Z</time></trkpt><trkpt lat="41.60544911814664" lon="-0.6898739620851656"><ele>186.0</ele><time>2026-05-04T10:14:40Z</time></trkpt><trkpt lat="41.605376225780255" lon="-0.6897561220141687"><ele>185.5</ele><time>2026-05-04T10:14:41Z</time></trkpt><trkpt lat="41.60530182097671" lon="-0.6896396898450695"><ele>185.0</ele><time>2026-05-04T10:14:42Z</time></trkpt><trkpt lat="41.60522713653325" lon="-0.6895204850352329"><ele>184.5</ele><time>2026-05-04T10:14:43Z</time></trkpt><trkpt lat="41.60515158178205" lon="-0.68940543137672"><ele>184.0</ele><time>2026-05-04T10:14:44Z</time></trkpt><trkpt lat="41.605077104181305" lon="-0.689288669547053"><ele>184.0</ele><time>2026-05-04T10:14:45Z</time></trkpt><trkpt lat="41.60499855135182" lon="-0.689171402279953"><ele>184.0</ele><time>2026-05-04T10:14:46Z</time></trkpt><trkpt lat="41.604918618884845" lon="-0.6890625569173144"><ele>184.0</ele><time>2026-05-04T10:14:47Z</time></trkpt><trkpt lat="41.604834992485415" lon="-0.6889606434213962"><ele>184.0</ele><time>2026-05-04T10:14:48Z</time></trkpt><trkpt lat="41.604740378513775" lon="-0.6888721977288979"><ele>184.0</ele><time>2026-05-04T10:14:49Z</time></trkpt><trkpt lat="41.604633977063436" lon="-0.6888147536915387"><ele>184.0</ele><time>2026-05-04T10:14:50Z</time></trkpt><trkpt lat="41.60453170299372" lon="-0.6887584392744476"><ele>184.0</ele><time>2026-05-04T10:14:51Z</time></trkpt><trkpt lat="41.604409162268055" lon="-0.6887177932035344"><ele>184.0</ele><time>2026-05-04T10:14:52Z</time></trkpt><trkpt lat="41.60432279533851" lon="-0.6886480512327514"><ele>183.5</ele><time>2026-05-04T10:14:53Z</time></trkpt><trkpt lat="41.604349199156864" lon="-0.6883850068931274"><ele>183.0</ele><time>2026-05-04T10:14:54Z</time></trkpt><trkpt lat="41.60432494852041" lon="-0.6882404128566291"><ele>182.5</ele><time>2026-05-04T10:14:55Z</time></trkpt><trkpt lat="41.60428721845828" lon="-0.6880986542780144"><ele>182.0</ele><time>2026-05-04T10:14:56Z</time></trkpt><trkpt lat="41.60422257434047" lon="-0.6879751007835148"><ele>182.0</ele><time>2026-05-04T10:14:57Z</time></trkpt><trkpt lat="41.6041532187645" lon="-0.6878641485973875"><ele>182.0</ele><time>2026-05-04T10:14:58Z</time></trkpt><trkpt lat="41.60408239383018" lon="-0.6877493335560891"><ele>182.0</ele><time>2026-05-04T10:14:59Z</time></trkpt><trkpt lat="41.6040077454191" lon="-0.687633404430041"><ele>182.0</ele><time>2026-05-04T10:15:00Z</time></trkpt><trkpt lat="41.603935405415406" lon="-0.6875156848872003"><ele>182.0</ele><time>2026-05-04T10:15:01Z</time></trkpt><trkpt lat="41.60386249530426" lon="-0.6874041930489475"><ele>182.0</ele><time>2026-05-04T10:15:02Z</time></trkpt><trkpt lat="41.60378977003087" lon="-0.6872860187561012"><ele>182.0</ele><time>2026-05-04T10:15:03Z</time></trkpt><trkpt lat="41.60371268892675" lon="-0.6871735122292593"><ele>182.0</ele><time>2026-05-04T10:15:04Z</time></trkpt><trkpt lat="41.60363754052808" lon="-0.6870589843479811"><ele>182.0</ele><time>2026-05-04T10:15:05Z</time></trkpt><trkpt lat="41.60356201886569" lon="-0.6869446075809907"><ele>181.75</ele><time>2026-05-04T10:15:06Z</time></trkpt><trkpt lat="41.60348864124689" lon="-0.6868278978456508"><ele>181.5</ele><time>2026-05-04T10:15:07Z</time></trkpt><trkpt lat="41.60341377628688" lon="-0.6867120962538712"><ele>181.25</ele><time>2026-05-04T10:15:08Z</time></trkpt><trkpt lat="41.60333898057302" lon="-0.6865976563548641"><ele>181.0</ele><time>2026-05-04T10:15:09.001Z</time></trkpt><trkpt lat="41.603261905356014" lon="-0.686485558639395"><ele>181.0</ele><time>2026-05-04T10:15:10.001Z</time></trkpt><trkpt lat="41.60318810720331" lon="-0.6863716474964677"><ele>181.0</ele><time>2026-05-04T10:15:11.001Z</time></trkpt><trkpt lat="41.603114904869386" lon="-0.6862598706098487"><ele>181.0</ele><time>2026-05-04T10:15:12.001Z</time></trkpt><trkpt lat="41.60304127744939" lon="-0.6861464588351204"><ele>181.0</ele><time>2026-05-04T10:15:13.001Z</time></trkpt><trkpt lat="41.60296645361492" lon="-0.6860304807200238"><ele>181.20000000000002</ele><time>2026-05-04T10:15:14.001Z</time></trkpt><trkpt lat="41.60289287403914" lon="-0.6859170063786155"><ele>181.4</ele><time>2026-05-04T10:15:15.001Z</time></trkpt><trkpt lat="41.60281974135351" lon="-0.6858030715040886"><ele>181.6</ele><time>2026-05-04T10:15:16.001Z</time></trkpt><trkpt lat="41.60274424901256" lon="-0.6856943752405011"><ele>181.8</ele><time>2026-05-04T10:15:17.001Z</time></trkpt><trkpt lat="41.60267036058314" lon="-0.6855828871672712"><ele>182.0</ele><time>2026-05-04T10:15:18.001Z</time></trkpt><trkpt lat="41.60259790241289" lon="-0.6854708945120488"><ele>182.0</ele><time>2026-05-04T10:15:19.001Z</time></trkpt><trkpt lat="41.60252799059772" lon="-0.6853593902571304"><ele>182.0</ele><time>2026-05-04T10:15:20.001Z</time></trkpt><trkpt lat="41.602455152526396" lon="-0.6852374128223846"><ele>182.0</ele><time>2026-05-04T10:15:21.001Z</time></trkpt><trkpt lat="41.60238284992373" lon="-0.6851247798789718"><ele>182.0</ele><time>2026-05-04T10:15:22.001Z</time></trkpt><trkpt lat="41.6023175717521" lon="-0.6850125604398744"><ele>182.0</ele><time>2026-05-04T10:15:23.001Z</time></trkpt><trkpt lat="41.60224536766937" lon="-0.6849012105464009"><ele>182.0</ele><time>2026-05-04T10:15:24.001Z</time></trkpt><trkpt lat="41.602173565142955" lon="-0.6847929900889795"><ele>182.0</ele><time>2026-05-04T10:15:25.001Z</time></trkpt><trkpt lat="41.602103607998636" lon="-0.684684830497298"><ele>182.0</ele><time>2026-05-04T10:15:26.001Z</time></trkpt><trkpt lat="41.60202948008495" lon="-0.6845743944103606"><ele>182.0</ele><time>2026-05-04T10:15:27.001Z</time></trkpt><trkpt lat="41.60195826595994" lon="-0.6844569785953891"><ele>182.0</ele><time>2026-05-04T10:15:28.001Z</time></trkpt><trkpt lat="41.601887562973666" lon="-0.684341032136317"><ele>182.0</ele><time>2026-05-04T10:15:29.001Z</time></trkpt><trkpt lat="41.601811936921244" lon="-0.6842349366213476"><ele>182.0</ele><time>2026-05-04T10:15:30.001Z</time></trkpt><trkpt lat="41.601736257214256" lon="-0.684123811858581"><ele>182.0</ele><time>2026-05-04T10:15:31.001Z</time></trkpt><trkpt lat="41.60166539892421" lon="-0.684010786365209"><ele>182.0</ele><time>2026-05-04T10:15:32.001Z</time></trkpt><trkpt lat="41.60159668414975" lon="-0.6838953296619537"><ele>182.0</ele><time>2026-05-04T10:15:33.001Z</time></trkpt><trkpt lat="41.601522073408645" lon="-0.6837822437838041"><ele>182.0</ele><time>2026-05-04T10:15:34.001Z</time></trkpt><trkpt lat="41.601447495947596" lon="-0.6836694237314415"><ele>182.0</ele><time>2026-05-04T10:15:35.001Z</time></trkpt><trkpt lat="41.60137135318029" lon="-0.6835593451010875"><ele>182.0</ele><time>2026-05-04T10:15:36.001Z</time></trkpt><trkpt lat="41.60129520166905" lon="-0.6834525665947403"><ele>182.0</ele><time>2026-05-04T10:15:37.001Z</time></trkpt><trkpt lat="41.601228230997116" lon="-0.6833279365326768"><ele>182.2</ele><time>2026-05-04T10:15:38.001Z</time></trkpt><trkpt lat="41.601147849448886" lon="-0.6832233367728043"><ele>182.39999999999998</ele><time>2026-05-04T10:15:39.001Z</time></trkpt><trkpt lat="41.601075204488616" lon="-0.6831173963331726"><ele>182.60000000000002</ele><time>2026-05-04T10:15:40.001Z</time></trkpt><trkpt lat="41.6009652482487" lon="-0.6830794703775475"><ele>182.8</ele><time>2026-05-04T10:15:41.001Z</time></trkpt><trkpt lat="41.60088783452362" lon="-0.6829758493426511"><ele>183.0</ele><time>2026-05-04T10:15:42.001Z</time></trkpt><trkpt lat="41.600799869998035" lon="-0.6828499304328831"><ele>182.75</ele><time>2026-05-04T10:15:43.001Z</time></trkpt><trkpt lat="41.60076143544867" lon="-0.6826931886166756"><ele>182.5</ele><time>2026-05-04T10:15:44.001Z</time></trkpt><trkpt lat="41.60069635123218" lon="-0.6825694816512033"><ele>182.25</ele><time>2026-05-04T10:15:45.001Z</time></trkpt><trkpt lat="41.60062639952838" lon="-0.6824566818102252"><ele>182.0</ele><time>2026-05-04T10:15:46.001Z</time></trkpt><trkpt lat="41.60055383021852" lon="-0.6823437593667463"><ele>182.0</ele><time>2026-05-04T10:15:47.001Z</time></trkpt><trkpt lat="41.60048228323597" lon="-0.6822329947062568"><ele>182.0</ele><time>2026-05-04T10:15:48.001Z</time></trkpt><trkpt lat="41.600410153959025" lon="-0.6821199734473601"><ele>182.0</ele><time>2026-05-04T10:15:49.001Z</time></trkpt><trkpt lat="41.600340376617766" lon="-0.6820079245447319"><ele>182.0</ele><time>2026-05-04T10:15:50.001Z</time></trkpt><trkpt lat="41.600269152781316" lon="-0.6818983166578115"><ele>182.0</ele><time>2026-05-04T10:15:51.001Z</time></trkpt><trkpt lat="41.600194873621305" lon="-0.6817908825009513"><ele>182.2</ele><time>2026-05-04T10:15:52.001Z</time></trkpt><trkpt lat="41.60012600147753" lon="-0.6816791796273138"><ele>182.39999999999998</ele><time>2026-05-04T10:15:53.001Z</time></trkpt><trkpt lat="41.600054855498385" lon="-0.6815706281803974"><ele>182.60000000000002</ele><time>2026-05-04T10:15:54.001Z</time></trkpt><trkpt lat="41.59998301351847" lon="-0.6814613417697185"><ele>182.8</ele><time>2026-05-04T10:15:55.001Z</time></trkpt><trkpt lat="41.59991267400118" lon="-0.681349218879965"><ele>183.0</ele><time>2026-05-04T10:15:56.001Z</time></trkpt><trkpt lat="41.59984080651985" lon="-0.6812379059264775"><ele>183.0</ele><time>2026-05-04T10:15:57.001Z</time></trkpt><trkpt lat="41.5997710404703" lon="-0.6811279110710546"><ele>183.0</ele><time>2026-05-04T10:15:58.001Z</time></trkpt><trkpt lat="41.59970111260334" lon="-0.6810181191607546"><ele>183.0</ele><time>2026-05-04T10:15:59.001Z</time></trkpt><trkpt lat="41.599629915141904" lon="-0.6809086254523852"><ele>183.0</ele><time>2026-05-04T10:16:00.001Z</time></trkpt><trkpt lat="41.599559002264726" lon="-0.6808009337920425"><ele>183.0</ele><time>2026-05-04T10:16:01.001Z</time></trkpt><trkpt lat="41.59948605788602" lon="-0.6806944712658258"><ele>183.8</ele><time>2026-05-04T10:16:02.001Z</time></trkpt><trkpt lat="41.59941353623943" lon="-0.6805869823429886"><ele>184.60000000000002</ele><time>2026-05-04T10:16:03.001Z</time></trkpt><trkpt lat="41.59934404771827" lon="-0.6804768711102944"><ele>185.39999999999998</ele><time>2026-05-04T10:16:04.001Z</time></trkpt><trkpt lat="41.59927632534268" lon="-0.68036831829084"><ele>186.2</ele><time>2026-05-04T10:16:05.001Z</time></trkpt><trkpt lat="41.599206422994655" lon="-0.6802574741613693"><ele>187.0</ele><time>2026-05-04T10:16:06.001Z</time></trkpt><trkpt lat="41.59913459332192" lon="-0.6801502210160907"><ele>187.2</ele><time>2026-05-04T10:16:07.001Z</time></trkpt><trkpt lat="41.59906487324691" lon="-0.6800403411493359"><ele>187.39999999999998</ele><time>2026-05-04T10:16:08.001Z</time></trkpt><trkpt lat="41.598994849717684" lon="-0.6799295839688657"><ele>187.60000000000002</ele><time>2026-05-04T10:16:09.001Z</time></trkpt><trkpt lat="41.59892183559813" lon="-0.679821912848208"><ele>187.8</ele><time>2026-05-04T10:16:10.001Z</time></trkpt><trkpt lat="41.59885049830293" lon="-0.6797139691337317"><ele>188.0</ele><time>2026-05-04T10:16:11.001Z</time></trkpt><trkpt lat="41.59878101784664" lon="-0.679602425012574"><ele>188.0</ele><time>2026-05-04T10:16:12.001Z</time></trkpt><trkpt lat="41.59870946313694" lon="-0.6794917737507531"><ele>188.0</ele><time>2026-05-04T10:16:13.001Z</time></trkpt><trkpt lat="41.598638224407985" lon="-0.679382964336385"><ele>188.0</ele><time>2026-05-04T10:16:14.001Z</time></trkpt><trkpt lat="41.59856864298222" lon="-0.6792723209141569"><ele>188.0</ele><time>2026-05-04T10:16:15.001Z</time></trkpt><trkpt lat="41.598496556431144" lon="-0.6791599397156859"><ele>188.0</ele><time>2026-05-04T10:16:16.001Z</time></trkpt><trkpt lat="41.59842471196743" lon="-0.6790491489869659"><ele>188.0</ele><time>2026-05-04T10:16:17.001Z</time></trkpt><trkpt lat="41.59835469642746" lon="-0.6789360779374116"><ele>188.0</ele><time>2026-05-04T10:16:18.001Z</time></trkpt><trkpt lat="41.59827839351255" lon="-0.6788241671222932"><ele>188.0</ele><time>2026-05-04T10:16:19.001Z</time></trkpt><trkpt lat="41.59820074540346" lon="-0.678719272582384"><ele>188.0</ele><time>2026-05-04T10:16:20.001Z</time></trkpt><trkpt lat="41.5981289071547" lon="-0.6786255381770295"><ele>188.0</ele><time>2026-05-04T10:16:21.001Z</time></trkpt><trkpt lat="41.598057654102334" lon="-0.6785429651685294"><ele>188.0</ele><time>2026-05-04T10:16:22.001Z</time></trkpt><trkpt lat="41.59797117100253" lon="-0.6784852363945009"><ele>188.0</ele><time>2026-05-04T10:16:23.001Z</time></trkpt><trkpt lat="41.59786789252675" lon="-0.6784625700496325"><ele>188.0</ele><time>2026-05-04T10:16:24.001Z</time></trkpt><trkpt lat="41.59776519614334" lon="-0.678494009499483"><ele>188.0</ele><time>2026-05-04T10:16:25.001Z</time></trkpt><trkpt lat="41.59761953770274" lon="-0.6784436962452202"><ele>188.0</ele><time>2026-05-04T10:16:26Z</time></trkpt><trkpt lat="41.59752209414489" lon="-0.6785014081075983"><ele>188.0</ele><time>2026-05-04T10:16:27Z</time></trkpt><trkpt lat="41.597633186710254" lon="-0.6781259271292677"><ele>188.0</ele><time>2026-05-04T10:16:28Z</time></trkpt><trkpt lat="41.59762143539434" lon="-0.6780030655192201"><ele>188.0</ele><time>2026-05-04T10:16:29Z</time></trkpt><trkpt lat="41.59760980172698" lon="-0.6778795998403258"><ele>188.0</ele><time>2026-05-04T10:16:30Z</time></trkpt><trkpt lat="41.59756438834167" lon="-0.677762812414521"><ele>188.0</ele><time>2026-05-04T10:16:31Z</time></trkpt><trkpt lat="41.597502599029895" lon="-0.6776520839226075"><ele>188.0</ele><time>2026-05-04T10:16:32Z</time></trkpt><trkpt lat="41.5974419232037" lon="-0.6775420340558721"><ele>188.0</ele><time>2026-05-04T10:16:33Z</time></trkpt><trkpt lat="41.59736491384262" lon="-0.6774409982078876"><ele>188.60000000000002</ele><time>2026-05-04T10:16:34Z</time></trkpt><trkpt lat="41.59729559294341" lon="-0.6773357197561858"><ele>189.20000000000002</ele><time>2026-05-04T10:16:35Z</time></trkpt><trkpt lat="41.597226081020885" lon="-0.6772240508940303"><ele>189.8</ele><time>2026-05-04T10:16:36Z</time></trkpt><trkpt lat="41.597152286114955" lon="-0.6771166729498427"><ele>190.4</ele><time>2026-05-04T10:16:37Z</time></trkpt><trkpt lat="41.597077289134006" lon="-0.677006834799551"><ele>191.0</ele><time>2026-05-04T10:16:38Z</time></trkpt><trkpt lat="41.59700152307766" lon="-0.6768979248217734"><ele>191.5</ele><time>2026-05-04T10:16:39Z</time></trkpt><trkpt lat="41.59692546342559" lon="-0.676786391797065"><ele>192.0</ele><time>2026-05-04T10:16:40Z</time></trkpt><trkpt lat="41.59684848020246" lon="-0.6766734096860387"><ele>192.5</ele><time>2026-05-04T10:16:41Z</time></trkpt><trkpt lat="41.59677416012594" lon="-0.6765588988734899"><ele>193.0</ele><time>2026-05-04T10:16:42Z</time></trkpt><trkpt lat="41.596696874994244" lon="-0.6764430590926926"><ele>193.0</ele><time>2026-05-04T10:16:43Z</time></trkpt><trkpt lat="41.5966207335629" lon="-0.6763289821349521"><ele>193.0</ele><time>2026-05-04T10:16:44Z</time></trkpt><trkpt lat="41.59654323736896" lon="-0.6762157708972802"><ele>193.0</ele><time>2026-05-04T10:16:45Z</time></trkpt><trkpt lat="41.596462966335395" lon="-0.6760994335039026"><ele>193.0</ele><time>2026-05-04T10:16:46Z</time></trkpt><trkpt lat="41.5963841939078" lon="-0.6759849492695169"><ele>192.5</ele><time>2026-05-04T10:16:47Z</time></trkpt><trkpt lat="41.59630920210616" lon="-0.6758717790041566"><ele>192.0</ele><time>2026-05-04T10:16:48Z</time></trkpt><trkpt lat="41.59622777633385" lon="-0.675749010091839"><ele>191.5</ele><time>2026-05-04T10:16:49Z</time></trkpt><trkpt lat="41.59614894709847" lon="-0.6756336636034561"><ele>191.0</ele><time>2026-05-04T10:16:50Z</time></trkpt><trkpt lat="41.59607196597873" lon="-0.6755157061968649"><ele>191.0</ele><time>2026-05-04T10:16:51Z</time></trkpt><trkpt lat="41.595994066176004" lon="-0.6754012227860077"><ele>191.0</ele><time>2026-05-04T10:16:52Z</time></trkpt><trkpt lat="41.59591446768943" lon="-0.6752876113382891"><ele>191.0</ele><time>2026-05-04T10:16:53Z</time></trkpt><trkpt lat="41.59583678058475" lon="-0.6751715373797987"><ele>191.0</ele><time>2026-05-04T10:16:54Z</time></trkpt><trkpt lat="41.59576066900849" lon="-0.6750561887414805"><ele>191.0</ele><time>2026-05-04T10:16:55Z</time></trkpt><trkpt lat="41.59568181530189" lon="-0.6749410189700021"><ele>191.0</ele><time>2026-05-04T10:16:56Z</time></trkpt><trkpt lat="41.595604355864396" lon="-0.6748239985449141"><ele>191.0</ele><time>2026-05-04T10:16:57Z</time></trkpt><trkpt lat="41.59552652418258" lon="-0.674708137760234"><ele>191.0</ele><time>2026-05-04T10:16:58Z</time></trkpt><trkpt lat="41.59544616380609" lon="-0.6745914417619131"><ele>191.0</ele><time>2026-05-04T10:16:59Z</time></trkpt><trkpt lat="41.59537085706987" lon="-0.6744748121056858"><ele>191.0</ele><time>2026-05-04T10:17:00Z</time></trkpt><trkpt lat="41.59529256794475" lon="-0.6743592065078083"><ele>191.0</ele><time>2026-05-04T10:17:01Z</time></trkpt><trkpt lat="41.59521385744006" lon="-0.6742429644478222"><ele>191.0</ele><time>2026-05-04T10:17:02Z</time></trkpt><trkpt lat="41.59513489140584" lon="-0.6741280950634351"><ele>190.75</ele><time>2026-05-04T10:17:03Z</time></trkpt><trkpt lat="41.595057835964894" lon="-0.6740133526516696"><ele>190.5</ele><time>2026-05-04T10:17:04Z</time></trkpt><trkpt lat="41.59498438195665" lon="-0.6738978682637755"><ele>190.25</ele><time>2026-05-04T10:17:05Z</time></trkpt><trkpt lat="41.59490819556676" lon="-0.6737824756884658"><ele>190.0</ele><time>2026-05-04T10:17:06Z</time></trkpt><trkpt lat="41.59482972185533" lon="-0.6736695395988378"><ele>191.0</ele><time>2026-05-04T10:17:07Z</time></trkpt><trkpt lat="41.59475529141502" lon="-0.6735579841731394"><ele>192.0</ele><time>2026-05-04T10:17:08Z</time></trkpt><trkpt lat="41.59468031194373" lon="-0.6734452609536568"><ele>193.0</ele><time>2026-05-04T10:17:09Z</time></trkpt><trkpt lat="41.5946079692439" lon="-0.6733302642648229"><ele>194.0</ele><time>2026-05-04T10:17:10Z</time></trkpt><trkpt lat="41.59452339834045" lon="-0.6732222076148011"><ele>194.0</ele><time>2026-05-04T10:17:11Z</time></trkpt><trkpt lat="41.59444064854264" lon="-0.6731172419486361"><ele>194.0</ele><time>2026-05-04T10:17:12Z</time></trkpt><trkpt lat="41.594374622288434" lon="-0.673001379961271"><ele>194.0</ele><time>2026-05-04T10:17:13.001Z</time></trkpt><trkpt lat="41.59430772837163" lon="-0.6728865454675961"><ele>194.0</ele><time>2026-05-04T10:17:14.001Z</time></trkpt><trkpt lat="41.59423794354515" lon="-0.6727690089362207"><ele>194.0</ele><time>2026-05-04T10:17:15.001Z</time></trkpt><trkpt lat="41.59416138411205" lon="-0.6726591677292973"><ele>194.0</ele><time>2026-05-04T10:17:16.001Z</time></trkpt><trkpt lat="41.59408956880147" lon="-0.6725591572153615"><ele>194.0</ele><time>2026-05-04T10:17:17.001Z</time></trkpt><trkpt lat="41.59400675323095" lon="-0.6724451739299824"><ele>194.0</ele><time>2026-05-04T10:17:18.001Z</time></trkpt><trkpt lat="41.593930354710295" lon="-0.6723413633370718"><ele>194.0</ele><time>2026-05-04T10:17:19.001Z</time></trkpt><trkpt lat="41.59385738434125" lon="-0.6722245553935835"><ele>194.0</ele><time>2026-05-04T10:17:20.001Z</time></trkpt><trkpt lat="41.59378387709538" lon="-0.6721164028010572"><ele>194.0</ele><time>2026-05-04T10:17:21.001Z</time></trkpt><trkpt lat="41.593711879912924" lon="-0.6720048462175576"><ele>194.0</ele><time>2026-05-04T10:17:22.001Z</time></trkpt><trkpt lat="41.593641130574085" lon="-0.6718945270085995"><ele>194.0</ele><time>2026-05-04T10:17:23.001Z</time></trkpt><trkpt lat="41.59356679986623" lon="-0.671786233880137"><ele>194.0</ele><time>2026-05-04T10:17:24.001Z</time></trkpt><trkpt lat="41.59348956872792" lon="-0.6716743873834743"><ele>194.0</ele><time>2026-05-04T10:17:25.001Z</time></trkpt><trkpt lat="41.59341687827959" lon="-0.671566674512288"><ele>193.75</ele><time>2026-05-04T10:17:26.001Z</time></trkpt><trkpt lat="41.593345116513554" lon="-0.6714567007046568"><ele>193.5</ele><time>2026-05-04T10:17:27.001Z</time></trkpt><trkpt lat="41.59326692242487" lon="-0.6713394779378202"><ele>193.25</ele><time>2026-05-04T10:17:28.001Z</time></trkpt><trkpt lat="41.593186246815684" lon="-0.6712241620233599"><ele>193.0</ele><time>2026-05-04T10:17:29.001Z</time></trkpt><trkpt lat="41.59310801808435" lon="-0.6711124135060963"><ele>193.0</ele><time>2026-05-04T10:17:30.001Z</time></trkpt><trkpt lat="41.59302915601075" lon="-0.6709983568704933"><ele>193.0</ele><time>2026-05-04T10:17:31.001Z</time></trkpt><trkpt lat="41.59295069232983" lon="-0.6708832682950495"><ele>193.0</ele><time>2026-05-04T10:17:32.001Z</time></trkpt><trkpt lat="41.59287389786077" lon="-0.670764713906162"><ele>193.0</ele><time>2026-05-04T10:17:33.001Z</time></trkpt><trkpt lat="41.59279428485168" lon="-0.6706481198730512"><ele>192.5</ele><time>2026-05-04T10:17:34.001Z</time></trkpt><trkpt lat="41.59271427364102" lon="-0.6705294906153246"><ele>192.0</ele><time>2026-05-04T10:17:35.001Z</time></trkpt><trkpt lat="41.59263589279194" lon="-0.670411645795138"><ele>191.5</ele><time>2026-05-04T10:17:36.001Z</time></trkpt><trkpt lat="41.59255752985284" lon="-0.6702938097649312"><ele>191.0</ele><time>2026-05-04T10:17:37.001Z</time></trkpt><trkpt lat="41.59247783737472" lon="-0.6701763248994261"><ele>191.0</ele><time>2026-05-04T10:17:38.001Z</time></trkpt><trkpt lat="41.59239732233167" lon="-0.6700593355116775"><ele>191.0</ele><time>2026-05-04T10:17:39.001Z</time></trkpt><trkpt lat="41.59231718765683" lon="-0.6699422751285502"><ele>191.0</ele><time>2026-05-04T10:17:40.001Z</time></trkpt><trkpt lat="41.59223931466878" lon="-0.6698246792482244"><ele>191.0</ele><time>2026-05-04T10:17:41.001Z</time></trkpt><trkpt lat="41.59216247808561" lon="-0.6697053108542266"><ele>191.0</ele><time>2026-05-04T10:17:42.001Z</time></trkpt><trkpt lat="41.59208084787941" lon="-0.6695880212783266"><ele>191.0</ele><time>2026-05-04T10:17:43.001Z</time></trkpt><trkpt lat="41.59199986062091" lon="-0.669471906191208"><ele>191.0</ele><time>2026-05-04T10:17:44.001Z</time></trkpt><trkpt lat="41.591922438882314" lon="-0.6693539997149806"><ele>191.0</ele><time>2026-05-04T10:17:45.001Z</time></trkpt><trkpt lat="41.59184472747455" lon="-0.6692357198717244"><ele>190.5</ele><time>2026-05-04T10:17:46.001Z</time></trkpt><trkpt lat="41.591765278292634" lon="-0.669115325669766"><ele>190.0</ele><time>2026-05-04T10:17:47.001Z</time></trkpt><trkpt lat="41.591684544979245" lon="-0.6689982449548614"><ele>189.5</ele><time>2026-05-04T10:17:48.001Z</time></trkpt><trkpt lat="41.5916042016433" lon="-0.6688813334054318"><ele>189.0</ele><time>2026-05-04T10:17:49.001Z</time></trkpt><trkpt lat="41.59152420345494" lon="-0.6687658991622843"><ele>189.0</ele><time>2026-05-04T10:17:50.001Z</time></trkpt><trkpt lat="41.5914462766943" lon="-0.6686456879605517"><ele>189.0</ele><time>2026-05-04T10:17:51.001Z</time></trkpt><trkpt lat="41.59136712474905" lon="-0.6685276281450462"><ele>189.0</ele><time>2026-05-04T10:17:52.001Z</time></trkpt><trkpt lat="41.59128674275078" lon="-0.6684090304479569"><ele>189.0</ele><time>2026-05-04T10:17:53.001Z</time></trkpt><trkpt lat="41.59120568634474" lon="-0.6682917443568425"><ele>188.25</ele><time>2026-05-04T10:17:54.001Z</time></trkpt><trkpt lat="41.59112541959159" lon="-0.6681749327017766"><ele>187.5</ele><time>2026-05-04T10:17:55.001Z</time></trkpt><trkpt lat="41.59104564541911" lon="-0.6680550449146303"><ele>186.75</ele><time>2026-05-04T10:17:56.001Z</time></trkpt><trkpt lat="41.59096450134421" lon="-0.6679379996659642"><ele>186.0</ele><time>2026-05-04T10:17:57.001Z</time></trkpt><trkpt lat="41.590884314171475" lon="-0.6678226393688542"><ele>185.75</ele><time>2026-05-04T10:17:58.001Z</time></trkpt><trkpt lat="41.5908003750014" lon="-0.6677046326459194"><ele>185.5</ele><time>2026-05-04T10:17:59.001Z</time></trkpt><trkpt lat="41.590723729052975" lon="-0.667584622435118"><ele>185.25</ele><time>2026-05-04T10:18:00.001Z</time></trkpt><trkpt lat="41.590642900784076" lon="-0.6674695499597543"><ele>185.0</ele><time>2026-05-04T10:18:01.001Z</time></trkpt><trkpt lat="41.59056446180465" lon="-0.6673514748260175"><ele>185.0</ele><time>2026-05-04T10:18:02.001Z</time></trkpt><trkpt lat="41.59048306234775" lon="-0.6672337481921554"><ele>185.0</ele><time>2026-05-04T10:18:03.001Z</time></trkpt><trkpt lat="41.59040402148958" lon="-0.6671190886923176"><ele>185.0</ele><time>2026-05-04T10:18:04.001Z</time></trkpt><trkpt lat="41.59032905419992" lon="-0.6670016131382167"><ele>185.0</ele><time>2026-05-04T10:18:05.001Z</time></trkpt><trkpt lat="41.59025518663301" lon="-0.6668851738605102"><ele>185.0</ele><time>2026-05-04T10:18:06.001Z</time></trkpt><trkpt lat="41.59017577552336" lon="-0.6667690593992602"><ele>185.0</ele><time>2026-05-04T10:18:07.001Z</time></trkpt><trkpt lat="41.590093795255605" lon="-0.666654397900764"><ele>185.0</ele><time>2026-05-04T10:18:08.001Z</time></trkpt><trkpt lat="41.59001563032192" lon="-0.6665397095544932"><ele>185.0</ele><time>2026-05-04T10:18:09.001Z</time></trkpt><trkpt lat="41.589940063578894" lon="-0.6664247851918735"><ele>185.0</ele><time>2026-05-04T10:18:10.001Z</time></trkpt><trkpt lat="41.58986310321329" lon="-0.6663125413213649"><ele>185.0</ele><time>2026-05-04T10:18:11.001Z</time></trkpt><trkpt lat="41.58978363462508" lon="-0.6662010229666513"><ele>185.0</ele><time>2026-05-04T10:18:12.001Z</time></trkpt><trkpt lat="41.589705778913" lon="-0.6660849710308535"><ele>185.0</ele><time>2026-05-04T10:18:13.001Z</time></trkpt><trkpt lat="41.589629942271806" lon="-0.6659709148038095"><ele>185.0</ele><time>2026-05-04T10:18:14.001Z</time></trkpt><trkpt lat="41.58955308553293" lon="-0.6658564576630045"><ele>185.0</ele><time>2026-05-04T10:18:15.001Z</time></trkpt><trkpt lat="41.58947457168453" lon="-0.6657390658891932"><ele>185.0</ele><time>2026-05-04T10:18:16.001Z</time></trkpt><trkpt lat="41.58939487195025" lon="-0.6656218409236632"><ele>185.0</ele><time>2026-05-04T10:18:17.001Z</time></trkpt><trkpt lat="41.58931562138327" lon="-0.6655075595892512"><ele>185.0</ele><time>2026-05-04T10:18:18.001Z</time></trkpt><trkpt lat="41.58923528647186" lon="-0.6653900909698667"><ele>185.0</ele><time>2026-05-04T10:18:19.001Z</time></trkpt><trkpt lat="41.58915722105472" lon="-0.6652750165938002"><ele>185.0</ele><time>2026-05-04T10:18:20.001Z</time></trkpt><trkpt lat="41.589079728422824" lon="-0.6651573149635702"><ele>185.0</ele><time>2026-05-04T10:18:21.001Z</time></trkpt><trkpt lat="41.58900409450007" lon="-0.6650402006500742"><ele>185.0</ele><time>2026-05-04T10:18:22.001Z</time></trkpt><trkpt lat="41.58892414457043" lon="-0.6649286105948602"><ele>185.0</ele><time>2026-05-04T10:18:23.001Z</time></trkpt><trkpt lat="41.588845197984796" lon="-0.6648179618220372"><ele>185.0</ele><time>2026-05-04T10:18:24.001Z</time></trkpt><trkpt lat="41.58876821125754" lon="-0.6647044629359877"><ele>185.0</ele><time>2026-05-04T10:18:25.001Z</time></trkpt><trkpt lat="41.58869414092101" lon="-0.6645866585858827"><ele>185.25</ele><time>2026-05-04T10:18:26.001Z</time></trkpt><trkpt lat="41.588615211306376" lon="-0.664476468811799"><ele>185.5</ele><time>2026-05-04T10:18:27.001Z</time></trkpt><trkpt lat="41.58853628235193" lon="-0.6643674982693758"><ele>185.75</ele><time>2026-05-04T10:18:28.001Z</time></trkpt><trkpt lat="41.58846155806657" lon="-0.664252365520599"><ele>186.0</ele><time>2026-05-04T10:18:29.001Z</time></trkpt><trkpt lat="41.58838780736933" lon="-0.6641354910118639"><ele>186.0</ele><time>2026-05-04T10:18:30.001Z</time></trkpt><trkpt lat="41.588312622020425" lon="-0.664022503360823"><ele>186.0</ele><time>2026-05-04T10:18:31.001Z</time></trkpt><trkpt lat="41.58823701763179" lon="-0.6639044036104937"><ele>186.0</ele><time>2026-05-04T10:18:32Z</time></trkpt><trkpt lat="41.588161262326636" lon="-0.6637953619753033"><ele>186.0</ele><time>2026-05-04T10:18:33Z</time></trkpt><trkpt lat="41.58808364920085" lon="-0.6636815817624113"><ele>186.0</ele><time>2026-05-04T10:18:34Z</time></trkpt><trkpt lat="41.58800534016659" lon="-0.6635672853971747"><ele>186.0</ele><time>2026-05-04T10:18:35Z</time></trkpt><trkpt lat="41.58792564959023" lon="-0.6634552133559164"><ele>186.0</ele><time>2026-05-04T10:18:36Z</time></trkpt><trkpt lat="41.58784956110059" lon="-0.6633389382752647"><ele>186.0</ele><time>2026-05-04T10:18:37Z</time></trkpt><trkpt lat="41.587773375205856" lon="-0.6632219364778115"><ele>186.0</ele><time>2026-05-04T10:18:38Z</time></trkpt><trkpt lat="41.58769684109748" lon="-0.663099228547049"><ele>186.0</ele><time>2026-05-04T10:18:39Z</time></trkpt><trkpt lat="41.58761661068758" lon="-0.6629818131439001"><ele>186.0</ele><time>2026-05-04T10:18:40Z</time></trkpt><trkpt lat="41.58753835518359" lon="-0.662863757806938"><ele>186.0</ele><time>2026-05-04T10:18:41Z</time></trkpt><trkpt lat="41.58745956407723" lon="-0.6627484835705558"><ele>186.25</ele><time>2026-05-04T10:18:42Z</time></trkpt><trkpt lat="41.58737811286584" lon="-0.6626293347402198"><ele>186.5</ele><time>2026-05-04T10:18:43Z</time></trkpt><trkpt lat="41.58729990784872" lon="-0.6625127908438588"><ele>186.75</ele><time>2026-05-04T10:18:44Z</time></trkpt><trkpt lat="41.587222171300255" lon="-0.6623982159993339"><ele>187.0</ele><time>2026-05-04T10:18:45Z</time></trkpt><trkpt lat="41.58714164409717" lon="-0.662281238019947"><ele>187.0</ele><time>2026-05-04T10:18:46Z</time></trkpt><trkpt lat="41.587063213341764" lon="-0.6621619783873102"><ele>187.0</ele><time>2026-05-04T10:18:47Z</time></trkpt><trkpt lat="41.58698621247246" lon="-0.6620404017354414"><ele>187.0</ele><time>2026-05-04T10:18:48Z</time></trkpt><trkpt lat="41.58690799972871" lon="-0.6619220384799368"><ele>187.0</ele><time>2026-05-04T10:18:49Z</time></trkpt><trkpt lat="41.58682758817832" lon="-0.6618050309333018"><ele>186.5</ele><time>2026-05-04T10:18:50Z</time></trkpt><trkpt lat="41.586746973787136" lon="-0.6616809200170441"><ele>186.0</ele><time>2026-05-04T10:18:51Z</time></trkpt><trkpt lat="41.58666851097139" lon="-0.661557280668311"><ele>185.5</ele><time>2026-05-04T10:18:52Z</time></trkpt><trkpt lat="41.58659058177946" lon="-0.6614361994019381"><ele>185.0</ele><time>2026-05-04T10:18:53Z</time></trkpt><trkpt lat="41.58650989863431" lon="-0.6613119672856594"><ele>185.0</ele><time>2026-05-04T10:18:54Z</time></trkpt><trkpt lat="41.58643006602979" lon="-0.6611905805751656"><ele>185.0</ele><time>2026-05-04T10:18:55Z</time></trkpt><trkpt lat="41.586350013652016" lon="-0.6610719136767277"><ele>185.0</ele><time>2026-05-04T10:18:56Z</time></trkpt><trkpt lat="41.586269000033255" lon="-0.6609475881524787"><ele>185.0</ele><time>2026-05-04T10:18:57Z</time></trkpt><trkpt lat="41.586187029741154" lon="-0.6608281428285235"><ele>184.0</ele><time>2026-05-04T10:18:58Z</time></trkpt><trkpt lat="41.58610791565075" lon="-0.6607098395680561"><ele>183.0</ele><time>2026-05-04T10:18:59Z</time></trkpt><trkpt lat="41.586030951494806" lon="-0.6605907327246673"><ele>182.0</ele><time>2026-05-04T10:19:00Z</time></trkpt><trkpt lat="41.585949199782874" lon="-0.6604717024904966"><ele>181.0</ele><time>2026-05-04T10:19:01Z</time></trkpt><trkpt lat="41.58586561970654" lon="-0.6603545465630883"><ele>180.75</ele><time>2026-05-04T10:19:02Z</time></trkpt><trkpt lat="41.58578589692693" lon="-0.6602374082816012"><ele>180.5</ele><time>2026-05-04T10:19:03Z</time></trkpt><trkpt lat="41.58570472577537" lon="-0.6601173112421759"><ele>180.25</ele><time>2026-05-04T10:19:04Z</time></trkpt><trkpt lat="41.585626462427314" lon="-0.6600004205396309"><ele>180.0</ele><time>2026-05-04T10:19:05Z</time></trkpt><trkpt lat="41.58555055426891" lon="-0.6598833643020543"><ele>180.0</ele><time>2026-05-04T10:19:06Z</time></trkpt><trkpt lat="41.58547023580871" lon="-0.6597671090586115"><ele>180.0</ele><time>2026-05-04T10:19:07Z</time></trkpt><trkpt lat="41.58539430574404" lon="-0.6596503112721201"><ele>180.0</ele><time>2026-05-04T10:19:08Z</time></trkpt><trkpt lat="41.585316727113074" lon="-0.6595338322403685"><ele>180.0</ele><time>2026-05-04T10:19:09Z</time></trkpt><trkpt lat="41.585238992581274" lon="-0.6594177903159476"><ele>180.0</ele><time>2026-05-04T10:19:10Z</time></trkpt><trkpt lat="41.58516061292676" lon="-0.6593044020292652"><ele>180.0</ele><time>2026-05-04T10:19:11Z</time></trkpt><trkpt lat="41.58508155006515" lon="-0.6591880304125894"><ele>180.0</ele><time>2026-05-04T10:19:12Z</time></trkpt><trkpt lat="41.58500211923464" lon="-0.6590724365136766"><ele>180.0</ele><time>2026-05-04T10:19:13Z</time></trkpt><trkpt lat="41.5849174302691" lon="-0.6589582808665413"><ele>180.0</ele><time>2026-05-04T10:19:14Z</time></trkpt><trkpt lat="41.58485471454784" lon="-0.6588400077624746"><ele>180.0</ele><time>2026-05-04T10:19:15Z</time></trkpt><trkpt lat="41.58478086305834" lon="-0.6587225376872407"><ele>180.0</ele><time>2026-05-04T10:19:16Z</time></trkpt><trkpt lat="41.584707583806114" lon="-0.658604251766203"><ele>180.0</ele><time>2026-05-04T10:19:17Z</time></trkpt><trkpt lat="41.584632642575016" lon="-0.6584876146874473"><ele>179.8</ele><time>2026-05-04T10:19:18Z</time></trkpt><trkpt lat="41.58456009954122" lon="-0.6583769417057284"><ele>179.6</ele><time>2026-05-04T10:19:19Z</time></trkpt><trkpt lat="41.58448580207743" lon="-0.6582639628794914"><ele>179.39999999999998</ele><time>2026-05-04T10:19:20Z</time></trkpt><trkpt lat="41.584410672624585" lon="-0.658157442173112"><ele>179.2</ele><time>2026-05-04T10:19:21Z</time></trkpt><trkpt lat="41.584336392258955" lon="-0.6580448434494697"><ele>179.0</ele><time>2026-05-04T10:19:22Z</time></trkpt><trkpt lat="41.58426103818417" lon="-0.6579337317295039"><ele>179.0</ele><time>2026-05-04T10:19:23Z</time></trkpt><trkpt lat="41.58418450612347" lon="-0.6578210782710644"><ele>179.0</ele><time>2026-05-04T10:19:24Z</time></trkpt><trkpt lat="41.58410733754915" lon="-0.6577074709745769"><ele>179.0</ele><time>2026-05-04T10:19:25.001Z</time></trkpt><trkpt lat="41.58402469996937" lon="-0.6576020360048571"><ele>179.0</ele><time>2026-05-04T10:19:26.001Z</time></trkpt><trkpt lat="41.583950328046406" lon="-0.6574899072799276"><ele>178.75</ele><time>2026-05-04T10:19:27.001Z</time></trkpt><trkpt lat="41.58387342326393" lon="-0.6573728794540883"><ele>178.5</ele><time>2026-05-04T10:19:28.001Z</time></trkpt><trkpt lat="41.58379924895819" lon="-0.6572618112220613"><ele>178.25</ele><time>2026-05-04T10:19:29.001Z</time></trkpt><trkpt lat="41.58372429389203" lon="-0.657153562421181"><ele>178.0</ele><time>2026-05-04T10:19:30.001Z</time></trkpt><trkpt lat="41.58365017611068" lon="-0.6570266846191548"><ele>179.0</ele><time>2026-05-04T10:19:31.001Z</time></trkpt><trkpt lat="41.58357121731084" lon="-0.6569111068486876"><ele>180.0</ele><time>2026-05-04T10:19:32.001Z</time></trkpt><trkpt lat="41.583495180622464" lon="-0.6567981120562968"><ele>181.0</ele><time>2026-05-04T10:19:33.001Z</time></trkpt><trkpt lat="41.58341669757741" lon="-0.6566832537573974"><ele>182.0</ele><time>2026-05-04T10:19:34.001Z</time></trkpt><trkpt lat="41.583338089860895" lon="-0.656568408701876"><ele>182.0</ele><time>2026-05-04T10:19:35.001Z</time></trkpt><trkpt lat="41.583257919018635" lon="-0.6564515243066968"><ele>182.0</ele><time>2026-05-04T10:19:36.001Z</time></trkpt><trkpt lat="41.58318111477488" lon="-0.6563360298443075"><ele>182.0</ele><time>2026-05-04T10:19:37.001Z</time></trkpt><trkpt lat="41.583103451455166" lon="-0.6562198310174434"><ele>182.0</ele><time>2026-05-04T10:19:38.001Z</time></trkpt><trkpt lat="41.58302268001269" lon="-0.6561063416680347"><ele>181.0</ele><time>2026-05-04T10:19:39.001Z</time></trkpt><trkpt lat="41.5829486125754" lon="-0.655991607253792"><ele>180.0</ele><time>2026-05-04T10:19:40.001Z</time></trkpt><trkpt lat="41.58287121201347" lon="-0.6558731003903646"><ele>179.0</ele><time>2026-05-04T10:19:41.001Z</time></trkpt><trkpt lat="41.5827907320163" lon="-0.6557595159004723"><ele>178.0</ele><time>2026-05-04T10:19:42.001Z</time></trkpt><trkpt lat="41.58271345668674" lon="-0.6556448068293373"><ele>178.0</ele><time>2026-05-04T10:19:43.001Z</time></trkpt><trkpt lat="41.58263582821495" lon="-0.6555304479703953"><ele>178.0</ele><time>2026-05-04T10:19:44.001Z</time></trkpt><trkpt lat="41.58255657589366" lon="-0.6554131667959218"><ele>178.0</ele><time>2026-05-04T10:19:45.001Z</time></trkpt><trkpt lat="41.58247663511383" lon="-0.6552958888364425"><ele>178.0</ele><time>2026-05-04T10:19:46.001Z</time></trkpt><trkpt lat="41.58239514633732" lon="-0.6551707768304793"><ele>179.25</ele><time>2026-05-04T10:19:47.001Z</time></trkpt><trkpt lat="41.58231496857886" lon="-0.6550477354663131"><ele>180.5</ele><time>2026-05-04T10:19:48.001Z</time></trkpt><trkpt lat="41.58223608923729" lon="-0.6549292820891034"><ele>181.75</ele><time>2026-05-04T10:19:49.001Z</time></trkpt><trkpt lat="41.58215761374617" lon="-0.6548102746300237"><ele>183.0</ele><time>2026-05-04T10:19:50.001Z</time></trkpt><trkpt lat="41.58208043618421" lon="-0.6546971500091621"><ele>181.75</ele><time>2026-05-04T10:19:51.001Z</time></trkpt><trkpt lat="41.58200407615438" lon="-0.6545787636901668"><ele>180.5</ele><time>2026-05-04T10:19:52.001Z</time></trkpt><trkpt lat="41.58192789052177" lon="-0.6544646068261135"><ele>179.25</ele><time>2026-05-04T10:19:53.001Z</time></trkpt><trkpt lat="41.581851275550044" lon="-0.654348944317358"><ele>178.0</ele><time>2026-05-04T10:19:54.001Z</time></trkpt><trkpt lat="41.58177385481112" lon="-0.6542338872535389"><ele>178.0</ele><time>2026-05-04T10:19:55.001Z</time></trkpt><trkpt lat="41.58170151800002" lon="-0.654123038949409"><ele>178.0</ele><time>2026-05-04T10:19:56.001Z</time></trkpt><trkpt lat="41.58161910678799" lon="-0.6540052044506932"><ele>178.0</ele><time>2026-05-04T10:19:57.001Z</time></trkpt><trkpt lat="41.581526320339165" lon="-0.653887983091914"><ele>178.0</ele><time>2026-05-04T10:19:58.001Z</time></trkpt><trkpt lat="41.58143625246092" lon="-0.6537702799779953"><ele>178.0</ele><time>2026-05-04T10:19:59.001Z</time></trkpt><trkpt lat="41.58139205672717" lon="-0.6536738289619622"><ele>178.0</ele><time>2026-05-04T10:20:00.001Z</time></trkpt><trkpt lat="41.581320252235074" lon="-0.6535651652772932"><ele>178.0</ele><time>2026-05-04T10:20:01.001Z</time></trkpt><trkpt lat="41.581243571142636" lon="-0.6534647991488227"><ele>178.0</ele><time>2026-05-04T10:20:02.001Z</time></trkpt><trkpt lat="41.581167701840926" lon="-0.6533579107491889"><ele>178.0</ele><time>2026-05-04T10:20:03.001Z</time></trkpt><trkpt lat="41.5810937738316" lon="-0.6532484903102291"><ele>178.5</ele><time>2026-05-04T10:20:04.001Z</time></trkpt><trkpt lat="41.58101814700497" lon="-0.6531280258974791"><ele>179.0</ele><time>2026-05-04T10:20:05.001Z</time></trkpt><trkpt lat="41.580935761947345" lon="-0.6530070670751901"><ele>179.5</ele><time>2026-05-04T10:20:06.001Z</time></trkpt><trkpt lat="41.580852612520104" lon="-0.6528503857776486"><ele>180.0</ele><time>2026-05-04T10:20:07.001Z</time></trkpt><trkpt lat="41.58079234396349" lon="-0.6527931101581127"><ele>181.0</ele><time>2026-05-04T10:20:08.001Z</time></trkpt><trkpt lat="41.580717185200214" lon="-0.6526807172512747"><ele>182.0</ele><time>2026-05-04T10:20:09.001Z</time></trkpt><trkpt lat="41.580638970009396" lon="-0.6525558428013329"><ele>183.0</ele><time>2026-05-04T10:20:10.001Z</time></trkpt><trkpt lat="41.58055856181453" lon="-0.6524372281719232"><ele>184.0</ele><time>2026-05-04T10:20:11.001Z</time></trkpt><trkpt lat="41.580483704695496" lon="-0.6523184621490955"><ele>184.0</ele><time>2026-05-04T10:20:12.001Z</time></trkpt><trkpt lat="41.580409813962994" lon="-0.6522004427694001"><ele>184.0</ele><time>2026-05-04T10:20:13.001Z</time></trkpt><trkpt lat="41.58033685850525" lon="-0.6520803027732933"><ele>184.0</ele><time>2026-05-04T10:20:14.001Z</time></trkpt><trkpt lat="41.5802626070607" lon="-0.6519628242894608"><ele>184.0</ele><time>2026-05-04T10:20:15.001Z</time></trkpt><trkpt lat="41.5801853548214" lon="-0.6518490286183695"><ele>183.0</ele><time>2026-05-04T10:20:16.001Z</time></trkpt><trkpt lat="41.5801103028157" lon="-0.6517357110761939"><ele>182.0</ele><time>2026-05-04T10:20:17.001Z</time></trkpt><trkpt lat="41.580034466677134" lon="-0.6516235988722734"><ele>181.0</ele><time>2026-05-04T10:20:18.001Z</time></trkpt><trkpt lat="41.57995788472706" lon="-0.6515187833924209"><ele>180.0</ele><time>2026-05-04T10:20:19.001Z</time></trkpt><trkpt lat="41.579886854579605" lon="-0.6513930578205431"><ele>180.0</ele><time>2026-05-04T10:20:20.001Z</time></trkpt><trkpt lat="41.579809762921734" lon="-0.651286679860377"><ele>180.0</ele><time>2026-05-04T10:20:21.001Z</time></trkpt><trkpt lat="41.57972409819378" lon="-0.6511740794979158"><ele>180.0</ele><time>2026-05-04T10:20:22.001Z</time></trkpt><trkpt lat="41.579587580093616" lon="-0.6510846545558707"><ele>180.0</ele><time>2026-05-04T10:20:23.001Z</time></trkpt><trkpt lat="41.57948719226874" lon="-0.6509411339738169"><ele>180.6</ele><time>2026-05-04T10:20:24.001Z</time></trkpt><trkpt lat="41.57951507919662" lon="-0.6508386804335093"><ele>181.2</ele><time>2026-05-04T10:20:25.001Z</time></trkpt><trkpt lat="41.57943941441403" lon="-0.6507309347451723"><ele>181.8</ele><time>2026-05-04T10:20:26.001Z</time></trkpt><trkpt lat="41.57936754887827" lon="-0.6506184345525433"><ele>182.4</ele><time>2026-05-04T10:20:27.001Z</time></trkpt><trkpt lat="41.5792919792716" lon="-0.6505106643614629"><ele>183.0</ele><time>2026-05-04T10:20:28.001Z</time></trkpt><trkpt lat="41.579219969068006" lon="-0.6504049901778052"><ele>183.0</ele><time>2026-05-04T10:20:29.001Z</time></trkpt><trkpt lat="41.57914800944917" lon="-0.6502962443257012"><ele>183.0</ele><time>2026-05-04T10:20:30.001Z</time></trkpt><trkpt lat="41.57907706966807" lon="-0.6501939652884285"><ele>183.0</ele><time>2026-05-04T10:20:31.001Z</time></trkpt><trkpt lat="41.579004669758085" lon="-0.6500875379920692"><ele>183.0</ele><time>2026-05-04T10:20:32.001Z</time></trkpt><trkpt lat="41.578935512045064" lon="-0.6499812252086438"><ele>183.0</ele><time>2026-05-04T10:20:33.001Z</time></trkpt><trkpt lat="41.5788645921769" lon="-0.6498770791528217"><ele>183.0</ele><time>2026-05-04T10:20:34.001Z</time></trkpt><trkpt lat="41.57879506069989" lon="-0.6497709130832109"><ele>183.0</ele><time>2026-05-04T10:20:35.001Z</time></trkpt><trkpt lat="41.578722039572206" lon="-0.6496597355968372"><ele>183.0</ele><time>2026-05-04T10:20:36.001Z</time></trkpt><trkpt lat="41.578648591259224" lon="-0.6495540192606044"><ele>183.0</ele><time>2026-05-04T10:20:37.001Z</time></trkpt><trkpt lat="41.578573090537" lon="-0.6494416907161012"><ele>183.0</ele><time>2026-05-04T10:20:38Z</time></trkpt><trkpt lat="41.5785001707258" lon="-0.649333135721745"><ele>183.4</ele><time>2026-05-04T10:20:39Z</time></trkpt><trkpt lat="41.578428481964515" lon="-0.649225354130064"><ele>183.8</ele><time>2026-05-04T10:20:40Z</time></trkpt><trkpt lat="41.578355872531745" lon="-0.6491141266845332"><ele>184.2</ele><time>2026-05-04T10:20:41Z</time></trkpt><trkpt lat="41.57828043741503" lon="-0.6489995483487976"><ele>184.6</ele><time>2026-05-04T10:20:42Z</time></trkpt><trkpt lat="41.57820644005624" lon="-0.6488873960057808"><ele>185.0</ele><time>2026-05-04T10:20:43Z</time></trkpt><trkpt lat="41.57813390150785" lon="-0.6487779497763465"><ele>185.0</ele><time>2026-05-04T10:20:44Z</time></trkpt><trkpt lat="41.57806322281733" lon="-0.648667175028143"><ele>185.0</ele><time>2026-05-04T10:20:45Z</time></trkpt><trkpt lat="41.57798825656021" lon="-0.6485526548483312"><ele>185.0</ele><time>2026-05-04T10:20:46Z</time></trkpt><trkpt lat="41.577915680186976" lon="-0.6484485551787068"><ele>185.0</ele><time>2026-05-04T10:20:47Z</time></trkpt><trkpt lat="41.577842053119" lon="-0.6483304312053"><ele>185.0</ele><time>2026-05-04T10:20:48Z</time></trkpt><trkpt lat="41.57776366470578" lon="-0.6482128987837417"><ele>185.0</ele><time>2026-05-04T10:20:49Z</time></trkpt><trkpt lat="41.5776841893545" lon="-0.6480964485292984"><ele>185.0</ele><time>2026-05-04T10:20:50Z</time></trkpt><trkpt lat="41.57760578439041" lon="-0.6479800232572309"><ele>185.0</ele><time>2026-05-04T10:20:51Z</time></trkpt><trkpt lat="41.5775310845503" lon="-0.6478650682528446"><ele>185.0</ele><time>2026-05-04T10:20:52Z</time></trkpt><trkpt lat="41.57745577395477" lon="-0.647745998485122"><ele>185.5</ele><time>2026-05-04T10:20:53Z</time></trkpt><trkpt lat="41.57737925498834" lon="-0.6476325322050069"><ele>186.0</ele><time>2026-05-04T10:20:54Z</time></trkpt><trkpt lat="41.577303112112155" lon="-0.6475168748926009"><ele>186.5</ele><time>2026-05-04T10:20:55Z</time></trkpt><trkpt lat="41.57722452823933" lon="-0.647405186986758"><ele>187.0</ele><time>2026-05-04T10:20:56Z</time></trkpt><trkpt lat="41.57714740690514" lon="-0.6472898569082328"><ele>187.0</ele><time>2026-05-04T10:20:57Z</time></trkpt><trkpt lat="41.577070217309604" lon="-0.647177340241071"><ele>187.0</ele><time>2026-05-04T10:20:58Z</time></trkpt><trkpt lat="41.576993603338494" lon="-0.6470653616090003"><ele>187.0</ele><time>2026-05-04T10:20:59Z</time></trkpt><trkpt lat="41.57691561649282" lon="-0.64695318087374"><ele>187.0</ele><time>2026-05-04T10:21:00Z</time></trkpt><trkpt lat="41.57683661618756" lon="-0.6468398722144986"><ele>186.5</ele><time>2026-05-04T10:21:01Z</time></trkpt><trkpt lat="41.576760834527754" lon="-0.6467242114751374"><ele>186.0</ele><time>2026-05-04T10:21:02Z</time></trkpt><trkpt lat="41.57668279854104" lon="-0.6466118050563214"><ele>185.5</ele><time>2026-05-04T10:21:03Z</time></trkpt><trkpt lat="41.57660403758808" lon="-0.6464986741694219"><ele>185.0</ele><time>2026-05-04T10:21:04Z</time></trkpt><trkpt lat="41.57652716079838" lon="-0.6463840259654369"><ele>185.0</ele><time>2026-05-04T10:21:05Z</time></trkpt><trkpt lat="41.57644983364531" lon="-0.6462700387451019"><ele>185.0</ele><time>2026-05-04T10:21:06Z</time></trkpt><trkpt lat="41.57637305556744" lon="-0.6461558915678854"><ele>185.0</ele><time>2026-05-04T10:21:07Z</time></trkpt><trkpt lat="41.57629954600577" lon="-0.6460403227699268"><ele>185.0</ele><time>2026-05-04T10:21:08Z</time></trkpt><trkpt lat="41.57622381623668" lon="-0.6459264372806574"><ele>185.25</ele><time>2026-05-04T10:21:09Z</time></trkpt><trkpt lat="41.57614755443872" lon="-0.6458125683120289"><ele>185.5</ele><time>2026-05-04T10:21:10Z</time></trkpt><trkpt lat="41.57607083724195" lon="-0.645696367760045"><ele>185.75</ele><time>2026-05-04T10:21:11Z</time></trkpt><trkpt lat="41.575995822934935" lon="-0.6455777083968955"><ele>186.0</ele><time>2026-05-04T10:21:12Z</time></trkpt><trkpt lat="41.575920850617145" lon="-0.6454572546285875"><ele>186.0</ele><time>2026-05-04T10:21:13Z</time></trkpt><trkpt lat="41.57584272495283" lon="-0.6453413662997274"><ele>186.0</ele><time>2026-05-04T10:21:14Z</time></trkpt><trkpt lat="41.575764007682295" lon="-0.6452283932591357"><ele>186.0</ele><time>2026-05-04T10:21:15Z</time></trkpt><trkpt lat="41.57568527960462" lon="-0.645108919763939"><ele>186.0</ele><time>2026-05-04T10:21:16Z</time></trkpt><trkpt lat="41.57560868516583" lon="-0.644992446224984"><ele>186.0</ele><time>2026-05-04T10:21:17Z</time></trkpt><trkpt lat="41.57553034797699" lon="-0.6448797972116732"><ele>186.0</ele><time>2026-05-04T10:21:18Z</time></trkpt><trkpt lat="41.57545441975929" lon="-0.6447679002499169"><ele>186.0</ele><time>2026-05-04T10:21:19Z</time></trkpt><trkpt lat="41.5753796265907" lon="-0.6446580395307447"><ele>186.0</ele><time>2026-05-04T10:21:20Z</time></trkpt><trkpt lat="41.57530271965291" lon="-0.6445274458053505"><ele>185.20000000000002</ele><time>2026-05-04T10:21:21Z</time></trkpt><trkpt lat="41.57523334642073" lon="-0.6444330914704063"><ele>184.4</ele><time>2026-05-04T10:21:22Z</time></trkpt><trkpt lat="41.575162028672416" lon="-0.6443050557612985"><ele>183.6</ele><time>2026-05-04T10:21:23Z</time></trkpt><trkpt lat="41.575092300718836" lon="-0.6441856555796643"><ele>182.8</ele><time>2026-05-04T10:21:24Z</time></trkpt><trkpt lat="41.57501309382605" lon="-0.6440815274236018"><ele>182.0</ele><time>2026-05-04T10:21:25Z</time></trkpt><trkpt lat="41.574945178116636" lon="-0.6439586418835194"><ele>182.0</ele><time>2026-05-04T10:21:26Z</time></trkpt><trkpt lat="41.57485607179877" lon="-0.6438385539071458"><ele>182.0</ele><time>2026-05-04T10:21:27Z</time></trkpt><trkpt lat="41.57478421963123" lon="-0.6437302100509248"><ele>182.0</ele><time>2026-05-04T10:21:28Z</time></trkpt><trkpt lat="41.57470493056444" lon="-0.6436139431622417"><ele>182.0</ele><time>2026-05-04T10:21:29Z</time></trkpt><trkpt lat="41.57462713406188" lon="-0.6435006747492004"><ele>182.0</ele><time>2026-05-04T10:21:30Z</time></trkpt><trkpt lat="41.57455029460337" lon="-0.6433876102447282"><ele>182.0</ele><time>2026-05-04T10:21:31Z</time></trkpt><trkpt lat="41.57447775879208" lon="-0.6432699606328012"><ele>182.0</ele><time>2026-05-04T10:21:32Z</time></trkpt><trkpt lat="41.574400053467855" lon="-0.6431532629507912"><ele>182.0</ele><time>2026-05-04T10:21:33Z</time></trkpt><trkpt lat="41.5743225245574" lon="-0.6430402715401197"><ele>182.0</ele><time>2026-05-04T10:21:34Z</time></trkpt><trkpt lat="41.57424991193672" lon="-0.6429257769650126"><ele>182.0</ele><time>2026-05-04T10:21:35.001Z</time></trkpt><trkpt lat="41.57417290805275" lon="-0.6428135235793551"><ele>182.0</ele><time>2026-05-04T10:21:36.001Z</time></trkpt><trkpt lat="41.57409477841228" lon="-0.6427012160594738"><ele>182.0</ele><time>2026-05-04T10:21:37.001Z</time></trkpt><trkpt lat="41.574018999912596" lon="-0.6425844532211902"><ele>181.25</ele><time>2026-05-04T10:21:38.001Z</time></trkpt><trkpt lat="41.57394199998913" lon="-0.6424700854872498"><ele>180.5</ele><time>2026-05-04T10:21:39.001Z</time></trkpt><trkpt lat="41.573863086747934" lon="-0.6423475030373157"><ele>179.75</ele><time>2026-05-04T10:21:40.001Z</time></trkpt><trkpt lat="41.57379022398101" lon="-0.6422359099846792"><ele>179.0</ele><time>2026-05-04T10:21:41.001Z</time></trkpt><trkpt lat="41.57371378646428" lon="-0.6421178533973161"><ele>179.25</ele><time>2026-05-04T10:21:42.001Z</time></trkpt><trkpt lat="41.5736376057241" lon="-0.6419998788764011"><ele>179.5</ele><time>2026-05-04T10:21:43.001Z</time></trkpt><trkpt lat="41.57356061989482" lon="-0.6418802729608054"><ele>179.75</ele><time>2026-05-04T10:21:44.001Z</time></trkpt><trkpt lat="41.57348149870869" lon="-0.6417601121433236"><ele>180.0</ele><time>2026-05-04T10:21:45.001Z</time></trkpt><trkpt lat="41.573404199192055" lon="-0.6416420263348293"><ele>179.25</ele><time>2026-05-04T10:21:46.001Z</time></trkpt><trkpt lat="41.573330806652734" lon="-0.6415268981566554"><ele>178.5</ele><time>2026-05-04T10:21:47.001Z</time></trkpt><trkpt lat="41.57325460026786" lon="-0.6414041578828658"><ele>177.75</ele><time>2026-05-04T10:21:48.001Z</time></trkpt><trkpt lat="41.57317593965862" lon="-0.6412815384266259"><ele>177.0</ele><time>2026-05-04T10:21:49.001Z</time></trkpt><trkpt lat="41.57309942948706" lon="-0.6411601497755075"><ele>176.5</ele><time>2026-05-04T10:21:50.001Z</time></trkpt><trkpt lat="41.57302308219186" lon="-0.6410472241269226"><ele>176.0</ele><time>2026-05-04T10:21:51.001Z</time></trkpt><trkpt lat="41.572946694385394" lon="-0.640927708159245"><ele>175.5</ele><time>2026-05-04T10:21:52.001Z</time></trkpt><trkpt lat="41.572872130266845" lon="-0.6408095727164336"><ele>175.0</ele><time>2026-05-04T10:21:53.001Z</time></trkpt><trkpt lat="41.572796098691576" lon="-0.6406928636711361"><ele>174.5</ele><time>2026-05-04T10:21:54.001Z</time></trkpt><trkpt lat="41.57271640057223" lon="-0.6405733441172541"><ele>174.0</ele><time>2026-05-04T10:21:55.001Z</time></trkpt><trkpt lat="41.572638325193005" lon="-0.6404547093271964"><ele>173.5</ele><time>2026-05-04T10:21:56.001Z</time></trkpt><trkpt lat="41.57256228475322" lon="-0.6403350273753128"><ele>173.0</ele><time>2026-05-04T10:21:57.001Z</time></trkpt><trkpt lat="41.5724847830621" lon="-0.64021393356678"><ele>173.0</ele><time>2026-05-04T10:21:58.001Z</time></trkpt><trkpt lat="41.57240986175734" lon="-0.6400934987297363"><ele>173.0</ele><time>2026-05-04T10:21:59.001Z</time></trkpt><trkpt lat="41.57233268924399" lon="-0.6399744040538096"><ele>173.0</ele><time>2026-05-04T10:22:00.001Z</time></trkpt><trkpt lat="41.57225489112409" lon="-0.639859051906559"><ele>173.0</ele><time>2026-05-04T10:22:01.001Z</time></trkpt><trkpt lat="41.572177245538" lon="-0.639740989640295"><ele>173.0</ele><time>2026-05-04T10:22:02.001Z</time></trkpt><trkpt lat="41.5721011714983" lon="-0.6396249109138448"><ele>173.0</ele><time>2026-05-04T10:22:03.001Z</time></trkpt><trkpt lat="41.572028945842675" lon="-0.639507709212525"><ele>173.0</ele><time>2026-05-04T10:22:04.001Z</time></trkpt><trkpt lat="41.57195400777762" lon="-0.6393898590326029"><ele>173.0</ele><time>2026-05-04T10:22:05.001Z</time></trkpt><trkpt lat="41.571880664294014" lon="-0.6392725953824463"><ele>173.25</ele><time>2026-05-04T10:22:06.001Z</time></trkpt><trkpt lat="41.571806146109154" lon="-0.6391561648808437"><ele>173.5</ele><time>2026-05-04T10:22:07.001Z</time></trkpt><trkpt lat="41.571732625481694" lon="-0.6390372861595054"><ele>173.75</ele><time>2026-05-04T10:22:08.001Z</time></trkpt><trkpt lat="41.571657603470165" lon="-0.6389190443236363"><ele>174.0</ele><time>2026-05-04T10:22:09.001Z</time></trkpt><trkpt lat="41.571582083312165" lon="-0.6388012753483314"><ele>174.0</ele><time>2026-05-04T10:22:10.001Z</time></trkpt><trkpt lat="41.57150418341214" lon="-0.6386837672988107"><ele>174.0</ele><time>2026-05-04T10:22:11.001Z</time></trkpt><trkpt lat="41.571428743057545" lon="-0.638568777691928"><ele>174.0</ele><time>2026-05-04T10:22:12.001Z</time></trkpt><trkpt lat="41.57135173144183" lon="-0.6384492229597346"><ele>174.0</ele><time>2026-05-04T10:22:13.001Z</time></trkpt><trkpt lat="41.57127508516399" lon="-0.6383318648496312"><ele>173.5</ele><time>2026-05-04T10:22:14.001Z</time></trkpt><trkpt lat="41.571199943490335" lon="-0.6382145100695588"><ele>173.0</ele><time>2026-05-04T10:22:15.001Z</time></trkpt><trkpt lat="41.57112255171556" lon="-0.6380983604502256"><ele>172.5</ele><time>2026-05-04T10:22:16.001Z</time></trkpt><trkpt lat="41.57104699814265" lon="-0.6379828931194486"><ele>172.0</ele><time>2026-05-04T10:22:17.001Z</time></trkpt><trkpt lat="41.570970419149965" lon="-0.637865356885083"><ele>172.25</ele><time>2026-05-04T10:22:18.001Z</time></trkpt><trkpt lat="41.57089644405321" lon="-0.6377503690058258"><ele>172.5</ele><time>2026-05-04T10:22:19.001Z</time></trkpt><trkpt lat="41.57082468036786" lon="-0.6376310062465758"><ele>172.75</ele><time>2026-05-04T10:22:20.001Z</time></trkpt><trkpt lat="41.57075050325779" lon="-0.6375126413203075"><ele>173.0</ele><time>2026-05-04T10:22:21.001Z</time></trkpt><trkpt lat="41.57067885184673" lon="-0.6373939029265686"><ele>173.0</ele><time>2026-05-04T10:22:22.001Z</time></trkpt><trkpt lat="41.570608044391534" lon="-0.6372821429916393"><ele>173.0</ele><time>2026-05-04T10:22:23.001Z</time></trkpt><trkpt lat="41.570522951423136" lon="-0.6371641106938366"><ele>173.0</ele><time>2026-05-04T10:22:24.001Z</time></trkpt><trkpt lat="41.570456156666715" lon="-0.6370586994612464"><ele>173.0</ele><time>2026-05-04T10:22:25.001Z</time></trkpt><trkpt lat="41.5703815402707" lon="-0.6369453196103626"><ele>173.0</ele><time>2026-05-04T10:22:26.001Z</time></trkpt><trkpt lat="41.57029723356274" lon="-0.6368302659680638"><ele>173.25</ele><time>2026-05-04T10:22:27.001Z</time></trkpt><trkpt lat="41.570182093507476" lon="-0.6367242611631131"><ele>173.5</ele><time>2026-05-04T10:22:28.001Z</time></trkpt><trkpt lat="41.5700639327965" lon="-0.6365928749969798"><ele>173.75</ele><time>2026-05-04T10:22:29.001Z</time></trkpt><trkpt lat="41.570082711966194" lon="-0.6364883680469884"><ele>174.0</ele><time>2026-05-04T10:22:30.001Z</time></trkpt><trkpt lat="41.570022500128424" lon="-0.6364100575563058"><ele>174.0</ele><time>2026-05-04T10:22:31.001Z</time></trkpt><trkpt lat="41.569987194394" lon="-0.6362999706790434"><ele>174.0</ele><time>2026-05-04T10:22:32.001Z</time></trkpt><trkpt lat="41.569869315670715" lon="-0.6361599701575686"><ele>174.0</ele><time>2026-05-04T10:22:33.001Z</time></trkpt><trkpt lat="41.56979739726277" lon="-0.6360331639916065"><ele>174.0</ele><time>2026-05-04T10:22:34.001Z</time></trkpt><trkpt lat="41.569710930126774" lon="-0.6359072269930085"><ele>174.25</ele><time>2026-05-04T10:22:35.001Z</time></trkpt><trkpt lat="41.56964382389531" lon="-0.6357965191563009"><ele>174.5</ele><time>2026-05-04T10:22:36.001Z</time></trkpt><trkpt lat="41.56956635802538" lon="-0.6356755125193109"><ele>174.75</ele><time>2026-05-04T10:22:37.001Z</time></trkpt><trkpt lat="41.569493999417666" lon="-0.635558114802191"><ele>175.0</ele><time>2026-05-04T10:22:38.001Z</time></trkpt><trkpt lat="41.569417947175715" lon="-0.6354247090437904"><ele>174.25</ele><time>2026-05-04T10:22:39.001Z</time></trkpt><trkpt lat="41.56934721463778" lon="-0.6353065433582148"><ele>173.5</ele><time>2026-05-04T10:22:40.001Z</time></trkpt><trkpt lat="41.5692717910911" lon="-0.6351888125426506"><ele>172.75</ele><time>2026-05-04T10:22:41.001Z</time></trkpt><trkpt lat="41.569194299758685" lon="-0.6350678840567052"><ele>172.0</ele><time>2026-05-04T10:22:42.001Z</time></trkpt><trkpt lat="41.56911651407001" lon="-0.6349493680402841"><ele>172.0</ele><time>2026-05-04T10:22:43.001Z</time></trkpt><trkpt lat="41.56904253993326" lon="-0.6348284176857276"><ele>172.0</ele><time>2026-05-04T10:22:44Z</time></trkpt><trkpt lat="41.568965715858354" lon="-0.6347106260720554"><ele>172.0</ele><time>2026-05-04T10:22:45Z</time></trkpt><trkpt lat="41.56888818121706" lon="-0.6345923887312132"><ele>172.0</ele><time>2026-05-04T10:22:46Z</time></trkpt><trkpt lat="41.56880895019002" lon="-0.6344754067268277"><ele>171.75</ele><time>2026-05-04T10:22:47Z</time></trkpt><trkpt lat="41.568732343853895" lon="-0.6343539190524425"><ele>171.5</ele><time>2026-05-04T10:22:48Z</time></trkpt><trkpt lat="41.568652919859424" lon="-0.6342364308281007"><ele>171.25</ele><time>2026-05-04T10:22:49Z</time></trkpt><trkpt lat="41.568574886199805" lon="-0.6341196686082742"><ele>171.0</ele><time>2026-05-04T10:22:50Z</time></trkpt><trkpt lat="41.5684984009607" lon="-0.6339981108543488"><ele>171.0</ele><time>2026-05-04T10:22:51Z</time></trkpt><trkpt lat="41.568423170242326" lon="-0.63388113161795"><ele>171.0</ele><time>2026-05-04T10:22:52Z</time></trkpt><trkpt lat="41.56834747559904" lon="-0.6337638323456585"><ele>171.0</ele><time>2026-05-04T10:22:53Z</time></trkpt><trkpt lat="41.56827034122453" lon="-0.6336491431779607"><ele>171.0</ele><time>2026-05-04T10:22:54Z</time></trkpt><trkpt lat="41.56819498150849" lon="-0.6335336165967463"><ele>171.0</ele><time>2026-05-04T10:22:55Z</time></trkpt><trkpt lat="41.56812251399998" lon="-0.6334133379368596"><ele>171.0</ele><time>2026-05-04T10:22:56Z</time></trkpt><trkpt lat="41.568047002994945" lon="-0.6332960655797889"><ele>171.0</ele><time>2026-05-04T10:22:57Z</time></trkpt><trkpt lat="41.567973503213075" lon="-0.633180996387958"><ele>171.0</ele><time>2026-05-04T10:22:58Z</time></trkpt><trkpt lat="41.56790024010711" lon="-0.6330649875329303"><ele>170.75</ele><time>2026-05-04T10:22:59Z</time></trkpt><trkpt lat="41.56782494501842" lon="-0.6329496110245411"><ele>170.5</ele><time>2026-05-04T10:23:00Z</time></trkpt><trkpt lat="41.56774868657411" lon="-0.6328347699445501"><ele>170.25</ele><time>2026-05-04T10:23:01Z</time></trkpt><trkpt lat="41.567672612212945" lon="-0.6327187858246099"><ele>170.0</ele><time>2026-05-04T10:23:02Z</time></trkpt><trkpt lat="41.56759773842578" lon="-0.6326052784364102"><ele>169.75</ele><time>2026-05-04T10:23:03Z</time></trkpt><trkpt lat="41.56752211430246" lon="-0.6324868128861586"><ele>169.5</ele><time>2026-05-04T10:23:04Z</time></trkpt><trkpt lat="41.56745026375134" lon="-0.6323809649905165"><ele>169.25</ele><time>2026-05-04T10:23:05Z</time></trkpt><trkpt lat="41.567378046879966" lon="-0.6322465431827726"><ele>169.0</ele><time>2026-05-04T10:23:06Z</time></trkpt><trkpt lat="41.56728475121991" lon="-0.6321123264875204"><ele>169.0</ele><time>2026-05-04T10:23:07Z</time></trkpt><trkpt lat="41.56722344935479" lon="-0.632030941247835"><ele>169.0</ele><time>2026-05-04T10:23:08Z</time></trkpt><trkpt lat="41.56715412713052" lon="-0.6319169847823128"><ele>169.0</ele><time>2026-05-04T10:23:09Z</time></trkpt><trkpt lat="41.567082306435" lon="-0.6318040576543155"><ele>169.0</ele><time>2026-05-04T10:23:10Z</time></trkpt><trkpt lat="41.567008611371726" lon="-0.6316924483421762"><ele>169.0</ele><time>2026-05-04T10:23:11Z</time></trkpt><trkpt lat="41.566937317653895" lon="-0.631580347320349"><ele>169.75</ele><time>2026-05-04T10:23:12Z</time></trkpt><trkpt lat="41.566863487475295" lon="-0.6314642125258856"><ele>170.5</ele><time>2026-05-04T10:23:13Z</time></trkpt><trkpt lat="41.56679075374829" lon="-0.6313503725085581"><ele>171.25</ele><time>2026-05-04T10:23:14Z</time></trkpt><trkpt lat="41.56671766463258" lon="-0.6312397971950524"><ele>172.0</ele><time>2026-05-04T10:23:15Z</time></trkpt><trkpt lat="41.56664347486924" lon="-0.6311237460544354"><ele>172.6</ele><time>2026-05-04T10:23:16Z</time></trkpt><trkpt lat="41.566568974983866" lon="-0.6310100571872138"><ele>173.2</ele><time>2026-05-04T10:23:17Z</time></trkpt><trkpt lat="41.56649311155416" lon="-0.6308981071846584"><ele>173.8</ele><time>2026-05-04T10:23:18Z</time></trkpt><trkpt lat="41.56642052072573" lon="-0.6307889122263711"><ele>174.4</ele><time>2026-05-04T10:23:19Z</time></trkpt><trkpt lat="41.56634678046565" lon="-0.6306826112444435"><ele>175.0</ele><time>2026-05-04T10:23:20Z</time></trkpt><trkpt lat="41.56627670278917" lon="-0.630571540883376"><ele>175.0</ele><time>2026-05-04T10:23:21Z</time></trkpt><trkpt lat="41.56620482311939" lon="-0.6304542321018104"><ele>175.0</ele><time>2026-05-04T10:23:22Z</time></trkpt><trkpt lat="41.566134168784586" lon="-0.6303347571819474"><ele>175.0</ele><time>2026-05-04T10:23:23Z</time></trkpt><trkpt lat="41.566064607708945" lon="-0.6302245784722992"><ele>175.0</ele><time>2026-05-04T10:23:24Z</time></trkpt><trkpt lat="41.565993005284575" lon="-0.6301061945498493"><ele>175.0</ele><time>2026-05-04T10:23:25Z</time></trkpt><trkpt lat="41.5659245778954" lon="-0.6299871621439976"><ele>174.8</ele><time>2026-05-04T10:23:26Z</time></trkpt><trkpt lat="41.565852393909374" lon="-0.6298756353680509"><ele>174.6</ele><time>2026-05-04T10:23:27Z</time></trkpt><trkpt lat="41.56578201984529" lon="-0.6297586865543586"><ele>174.39999999999998</ele><time>2026-05-04T10:23:28Z</time></trkpt><trkpt lat="41.56571298656027" lon="-0.6296406423101569"><ele>174.2</ele><time>2026-05-04T10:23:29Z</time></trkpt><trkpt lat="41.565644480265576" lon="-0.6295254008057903"><ele>174.0</ele><time>2026-05-04T10:23:30Z</time></trkpt><trkpt lat="41.56557470806256" lon="-0.6294093288659361"><ele>174.0</ele><time>2026-05-04T10:23:31Z</time></trkpt><trkpt lat="41.56550227358632" lon="-0.629294311004267"><ele>174.0</ele><time>2026-05-04T10:23:32Z</time></trkpt><trkpt lat="41.56543429978173" lon="-0.6291716970164817"><ele>174.0</ele><time>2026-05-04T10:23:33Z</time></trkpt><trkpt lat="41.565362389240576" lon="-0.6290517826580243"><ele>174.0</ele><time>2026-05-04T10:23:34Z</time></trkpt><trkpt lat="41.56528604901415" lon="-0.6289374733460577"><ele>173.25</ele><time>2026-05-04T10:23:35Z</time></trkpt><trkpt lat="41.56521338690596" lon="-0.6288129829976696"><ele>172.5</ele><time>2026-05-04T10:23:36Z</time></trkpt><trkpt lat="41.56514484460549" lon="-0.6286851425519893"><ele>171.75</ele><time>2026-05-04T10:23:37Z</time></trkpt><trkpt lat="41.56507530953517" lon="-0.6285591266955043"><ele>171.0</ele><time>2026-05-04T10:23:38Z</time></trkpt><trkpt lat="41.56500568743307" lon="-0.628426571589048"><ele>171.0</ele><time>2026-05-04T10:23:39Z</time></trkpt><trkpt lat="41.56493346072242" lon="-0.6282929783127588"><ele>171.0</ele><time>2026-05-04T10:23:40Z</time></trkpt><trkpt lat="41.564860632179446" lon="-0.6281697869126183"><ele>171.0</ele><time>2026-05-04T10:23:41Z</time></trkpt><trkpt lat="41.564789311631095" lon="-0.6280379175081584"><ele>171.0</ele><time>2026-05-04T10:23:42.001Z</time></trkpt><trkpt lat="41.56471756809069" lon="-0.627908459736899"><ele>171.0</ele><time>2026-05-04T10:23:43.001Z</time></trkpt><trkpt lat="41.56464532917265" lon="-0.6277790504165333"><ele>171.0</ele><time>2026-05-04T10:23:44.001Z</time></trkpt><trkpt lat="41.564570847239864" lon="-0.6276516892067645"><ele>171.0</ele><time>2026-05-04T10:23:45.001Z</time></trkpt><trkpt lat="41.56449721149835" lon="-0.6275200036231041"><ele>171.0</ele><time>2026-05-04T10:23:46.001Z</time></trkpt><trkpt lat="41.564422868242666" lon="-0.627390809931887"><ele>171.0</ele><time>2026-05-04T10:23:47.001Z</time></trkpt><trkpt lat="41.56435267614938" lon="-0.6272610052667741"><ele>171.0</ele><time>2026-05-04T10:23:48.001Z</time></trkpt><trkpt lat="41.56428045482707" lon="-0.6271302366574337"><ele>171.0</ele><time>2026-05-04T10:23:49.001Z</time></trkpt><trkpt lat="41.564209926817256" lon="-0.6270003805799116"><ele>171.0</ele><time>2026-05-04T10:23:50.001Z</time></trkpt><trkpt lat="41.564137024899225" lon="-0.6268687988988932"><ele>170.75</ele><time>2026-05-04T10:23:51.001Z</time></trkpt><trkpt lat="41.56406471560205" lon="-0.626740370706718"><ele>170.5</ele><time>2026-05-04T10:23:52.001Z</time></trkpt><trkpt lat="41.563990734624575" lon="-0.6266104584106427"><ele>170.25</ele><time>2026-05-04T10:23:53.001Z</time></trkpt><trkpt lat="41.56391717701977" lon="-0.6264793531084404"><ele>170.0</ele><time>2026-05-04T10:23:54.001Z</time></trkpt><trkpt lat="41.5638452653263" lon="-0.6263498243031135"><ele>170.0</ele><time>2026-05-04T10:23:55.001Z</time></trkpt><trkpt lat="41.56377526882274" lon="-0.6262195816413928"><ele>170.0</ele><time>2026-05-04T10:23:56.001Z</time></trkpt><trkpt lat="41.563704531780125" lon="-0.6260884882185934"><ele>170.0</ele><time>2026-05-04T10:23:57.001Z</time></trkpt><trkpt lat="41.563632809025336" lon="-0.6259596094087246"><ele>170.0</ele><time>2026-05-04T10:23:58.001Z</time></trkpt><trkpt lat="41.56356184714421" lon="-0.625830542393039"><ele>169.5</ele><time>2026-05-04T10:23:59.001Z</time></trkpt><trkpt lat="41.563490418754434" lon="-0.6257006048494316"><ele>169.0</ele><time>2026-05-04T10:24:00.001Z</time></trkpt><trkpt lat="41.56341812269637" lon="-0.6255718302890461"><ele>168.5</ele><time>2026-05-04T10:24:01.001Z</time></trkpt><trkpt lat="41.56334531092853" lon="-0.6254448715934191"><ele>168.0</ele><time>2026-05-04T10:24:02.001Z</time></trkpt><trkpt lat="41.563272861577836" lon="-0.6253189574488485"><ele>168.75</ele><time>2026-05-04T10:24:03.001Z</time></trkpt><trkpt lat="41.56320020703957" lon="-0.6251879319575009"><ele>169.5</ele><time>2026-05-04T10:24:04.001Z</time></trkpt><trkpt lat="41.56312914562466" lon="-0.6250594207404381"><ele>170.25</ele><time>2026-05-04T10:24:05.001Z</time></trkpt><trkpt lat="41.56305897035415" lon="-0.6249311002500255"><ele>171.0</ele><time>2026-05-04T10:24:06.001Z</time></trkpt><trkpt lat="41.562985414053685" lon="-0.624804112044101"><ele>171.0</ele><time>2026-05-04T10:24:07.001Z</time></trkpt><trkpt lat="41.562914577134585" lon="-0.6246748994155977"><ele>171.0</ele><time>2026-05-04T10:24:08.001Z</time></trkpt><trkpt lat="41.56284406090536" lon="-0.6245467285142239"><ele>171.0</ele><time>2026-05-04T10:24:09.001Z</time></trkpt><trkpt lat="41.56277316128315" lon="-0.6244163048677364"><ele>171.0</ele><time>2026-05-04T10:24:10.001Z</time></trkpt><trkpt lat="41.562702649172614" lon="-0.6242896975489041"><ele>171.25</ele><time>2026-05-04T10:24:11.001Z</time></trkpt><trkpt lat="41.56263474395809" lon="-0.6241629841288555"><ele>171.5</ele><time>2026-05-04T10:24:12.001Z</time></trkpt><trkpt lat="41.56256456906008" lon="-0.624034161018372"><ele>171.75</ele><time>2026-05-04T10:24:13.001Z</time></trkpt><trkpt lat="41.562493883613705" lon="-0.6239102212981443"><ele>172.0</ele><time>2026-05-04T10:24:14.001Z</time></trkpt><trkpt lat="41.562422286509644" lon="-0.6237857140493343"><ele>172.0</ele><time>2026-05-04T10:24:15.001Z</time></trkpt><trkpt lat="41.56235207332803" lon="-0.6236605805107494"><ele>172.0</ele><time>2026-05-04T10:24:16.001Z</time></trkpt><trkpt lat="41.562282176774254" lon="-0.6235343716785297"><ele>172.0</ele><time>2026-05-04T10:24:17.001Z</time></trkpt><trkpt lat="41.562214838336125" lon="-0.6234104034554007"><ele>172.0</ele><time>2026-05-04T10:24:18.001Z</time></trkpt><trkpt lat="41.562146114740905" lon="-0.6232855566593819"><ele>172.0</ele><time>2026-05-04T10:24:19.001Z</time></trkpt><trkpt lat="41.562077595287064" lon="-0.6231625134949142"><ele>172.0</ele><time>2026-05-04T10:24:20.001Z</time></trkpt><trkpt lat="41.56201209525583" lon="-0.6230369962930083"><ele>172.0</ele><time>2026-05-04T10:24:21.001Z</time></trkpt><trkpt lat="41.561943680860914" lon="-0.6229207452655566"><ele>172.0</ele><time>2026-05-04T10:24:22.001Z</time></trkpt><trkpt lat="41.56188713590689" lon="-0.6228042176647185"><ele>172.0</ele><time>2026-05-04T10:24:23.001Z</time></trkpt><trkpt lat="41.56182090017011" lon="-0.6226822325174308"><ele>171.5</ele><time>2026-05-04T10:24:24.001Z</time></trkpt><trkpt lat="41.5617492540498" lon="-0.622564609139412"><ele>171.0</ele><time>2026-05-04T10:24:25.001Z</time></trkpt><trkpt lat="41.561678669434684" lon="-0.6224405460799662"><ele>170.5</ele><time>2026-05-04T10:24:26.001Z</time></trkpt><trkpt lat="41.56161127096643" lon="-0.6223195537170942"><ele>170.0</ele><time>2026-05-04T10:24:27.001Z</time></trkpt><trkpt lat="41.56154758967488" lon="-0.6222018965567783"><ele>170.0</ele><time>2026-05-04T10:24:28.001Z</time></trkpt><trkpt lat="41.561479477695435" lon="-0.6220809445438121"><ele>170.0</ele><time>2026-05-04T10:24:29.001Z</time></trkpt><trkpt lat="41.56141667475702" lon="-0.621961478133184"><ele>170.0</ele><time>2026-05-04T10:24:30.001Z</time></trkpt><trkpt lat="41.561356176498585" lon="-0.6218450448698888"><ele>170.0</ele><time>2026-05-04T10:24:31.001Z</time></trkpt><trkpt lat="41.561291052883305" lon="-0.6217211208202422"><ele>170.0</ele><time>2026-05-04T10:24:32.001Z</time></trkpt><trkpt lat="41.56122244712693" lon="-0.6216001982820475"><ele>170.0</ele><time>2026-05-04T10:24:33.001Z</time></trkpt><trkpt lat="41.56115801498044" lon="-0.6214806316293481"><ele>170.0</ele><time>2026-05-04T10:24:34.001Z</time></trkpt><trkpt lat="41.56109714915488" lon="-0.6213540590273857"><ele>170.0</ele><time>2026-05-04T10:24:35.001Z</time></trkpt><trkpt lat="41.56103623371407" lon="-0.6212255830917882"><ele>170.0</ele><time>2026-05-04T10:24:36.001Z</time></trkpt><trkpt lat="41.560977844052935" lon="-0.6210889874886251"><ele>170.5</ele><time>2026-05-04T10:24:37.001Z</time></trkpt><trkpt lat="41.56091902402069" lon="-0.6209528589754131"><ele>171.0</ele><time>2026-05-04T10:24:38.001Z</time></trkpt><trkpt lat="41.5608620983616" lon="-0.6208215511780407"><ele>171.5</ele><time>2026-05-04T10:24:39.001Z</time></trkpt><trkpt lat="41.56080888180192" lon="-0.6206888095468288"><ele>172.0</ele><time>2026-05-04T10:24:40.001Z</time></trkpt><trkpt lat="41.56075349212257" lon="-0.6205584996219488"><ele>172.0</ele><time>2026-05-04T10:24:41.001Z</time></trkpt><trkpt lat="41.56069946138689" lon="-0.6204169789226217"><ele>172.0</ele><time>2026-05-04T10:24:42.001Z</time></trkpt><trkpt lat="41.56064266608589" lon="-0.6202763703392317"><ele>172.0</ele><time>2026-05-04T10:24:43.001Z</time></trkpt><trkpt lat="41.560586042686516" lon="-0.6201382077494105"><ele>172.0</ele><time>2026-05-04T10:24:44.001Z</time></trkpt><trkpt lat="41.56053052179904" lon="-0.6199947849217342"><ele>172.0</ele><time>2026-05-04T10:24:45.001Z</time></trkpt><trkpt lat="41.560476126478484" lon="-0.6198547211597759"><ele>172.0</ele><time>2026-05-04T10:24:46.001Z</time></trkpt><trkpt lat="41.56041771506824" lon="-0.6197180243008628"><ele>172.0</ele><time>2026-05-04T10:24:47.001Z</time></trkpt><trkpt lat="41.5603623119019" lon="-0.6195779026636091"><ele>172.0</ele><time>2026-05-04T10:24:48.001Z</time></trkpt><trkpt lat="41.560305277852606" lon="-0.6194366129813806"><ele>171.75</ele><time>2026-05-04T10:24:49.001Z</time></trkpt><trkpt lat="41.56024935599148" lon="-0.6192980021389503"><ele>171.5</ele><time>2026-05-04T10:24:50Z</time></trkpt><trkpt lat="41.56019276092606" lon="-0.6191597105602646"><ele>171.25</ele><time>2026-05-04T10:24:51Z</time></trkpt><trkpt lat="41.56013689239816" lon="-0.6190193488608956"><ele>171.0</ele><time>2026-05-04T10:24:52Z</time></trkpt><trkpt lat="41.560083890680026" lon="-0.6188801465478005"><ele>171.0</ele><time>2026-05-04T10:24:53Z</time></trkpt><trkpt lat="41.560029158839164" lon="-0.6187411813387275"><ele>171.0</ele><time>2026-05-04T10:24:54Z</time></trkpt><trkpt lat="41.55997450755752" lon="-0.6186039238806238"><ele>171.0</ele><time>2026-05-04T10:24:55Z</time></trkpt><trkpt lat="41.55992144325681" lon="-0.6184658297975004"><ele>171.0</ele><time>2026-05-04T10:24:56Z</time></trkpt><trkpt lat="41.55987015344596" lon="-0.6183295821612222"><ele>171.75</ele><time>2026-05-04T10:24:57Z</time></trkpt><trkpt lat="41.55981471915378" lon="-0.6181964557070082"><ele>172.5</ele><time>2026-05-04T10:24:58Z</time></trkpt><trkpt lat="41.55977116999319" lon="-0.61806638201122"><ele>173.25</ele><time>2026-05-04T10:24:59Z</time></trkpt><trkpt lat="41.55970720732716" lon="-0.6179208387244278"><ele>174.0</ele><time>2026-05-04T10:25:00Z</time></trkpt><trkpt lat="41.55960593903858" lon="-0.6177252112379258"><ele>173.0</ele><time>2026-05-04T10:25:01Z</time></trkpt><trkpt lat="41.5595182167388" lon="-0.617475045144762"><ele>172.0</ele><time>2026-05-04T10:25:02Z</time></trkpt><trkpt lat="41.559456770716075" lon="-0.6172787611779725"><ele>171.0</ele><time>2026-05-04T10:25:05Z</time></trkpt><trkpt lat="41.559405659477704" lon="-0.6171495722772268"><ele>171.0</ele><time>2026-05-04T10:25:06Z</time></trkpt><trkpt lat="41.55935450681142" lon="-0.6170193028783971"><ele>171.0</ele><time>2026-05-04T10:25:07Z</time></trkpt><trkpt lat="41.55930173699304" lon="-0.6168877261129271"><ele>171.0</ele><time>2026-05-04T10:25:08Z</time></trkpt><trkpt lat="41.55924935708613" lon="-0.6167560198430319"><ele>171.0</ele><time>2026-05-04T10:25:09Z</time></trkpt><trkpt lat="41.5591994108428" lon="-0.6166204318711116"><ele>171.0</ele><time>2026-05-04T10:25:10Z</time></trkpt><trkpt lat="41.55914687274239" lon="-0.6164852266986972"><ele>172.0</ele><time>2026-05-04T10:25:11Z</time></trkpt><trkpt lat="41.55909172249092" lon="-0.6163463095043784"><ele>173.0</ele><time>2026-05-04T10:25:12Z</time></trkpt><trkpt lat="41.55903847185602" lon="-0.6162155068175662"><ele>174.0</ele><time>2026-05-04T10:25:13Z</time></trkpt><trkpt lat="41.558981768714446" lon="-0.6160794267358604"><ele>175.0</ele><time>2026-05-04T10:25:14Z</time></trkpt><trkpt lat="41.558926001714845" lon="-0.6159461555590369"><ele>175.0</ele><time>2026-05-04T10:25:15Z</time></trkpt><trkpt lat="41.55886647295802" lon="-0.6158104595713799"><ele>175.0</ele><time>2026-05-04T10:25:16Z</time></trkpt><trkpt lat="41.55880821106478" lon="-0.6156793564571831"><ele>175.0</ele><time>2026-05-04T10:25:17Z</time></trkpt><trkpt lat="41.55874344989528" lon="-0.6155502640370993"><ele>175.0</ele><time>2026-05-04T10:25:18Z</time></trkpt><trkpt lat="41.55867897046974" lon="-0.6154196239985472"><ele>173.75</ele><time>2026-05-04T10:25:19Z</time></trkpt><trkpt lat="41.558611584315884" lon="-0.6152939850146287"><ele>172.5</ele><time>2026-05-04T10:25:20Z</time></trkpt><trkpt lat="41.55854164139317" lon="-0.6151724254397797"><ele>171.25</ele><time>2026-05-04T10:25:21Z</time></trkpt><trkpt lat="41.55847215406435" lon="-0.6150547285913031"><ele>170.0</ele><time>2026-05-04T10:25:22Z</time></trkpt><trkpt lat="41.55839958364412" lon="-0.6149392648398561"><ele>170.0</ele><time>2026-05-04T10:25:23Z</time></trkpt><trkpt lat="41.55832626790366" lon="-0.6148252684889602"><ele>170.0</ele><time>2026-05-04T10:25:24Z</time></trkpt><trkpt lat="41.55825637417557" lon="-0.6147110818518693"><ele>170.0</ele><time>2026-05-04T10:25:25Z</time></trkpt><trkpt lat="41.55818088722729" lon="-0.6146031545989423"><ele>170.0</ele><time>2026-05-04T10:25:26Z</time></trkpt><trkpt lat="41.558100542168255" lon="-0.6145035739693538"><ele>170.0</ele><time>2026-05-04T10:25:27Z</time></trkpt><trkpt lat="41.55802492516785" lon="-0.6144019309355616"><ele>170.2</ele><time>2026-05-04T10:25:28Z</time></trkpt><trkpt lat="41.5579459414456" lon="-0.614299386552661"><ele>170.4</ele><time>2026-05-04T10:25:29Z</time></trkpt><trkpt lat="41.55787038074404" lon="-0.6141974469048697"><ele>170.60000000000002</ele><time>2026-05-04T10:25:30Z</time></trkpt><trkpt lat="41.55779498504032" lon="-0.6140916102301247"><ele>170.8</ele><time>2026-05-04T10:25:31Z</time></trkpt><trkpt lat="41.557714198363826" lon="-0.6139877078527325"><ele>171.0</ele><time>2026-05-04T10:25:32Z</time></trkpt><trkpt lat="41.55763238017972" lon="-0.6138865623398081"><ele>171.0</ele><time>2026-05-04T10:25:33Z</time></trkpt><trkpt lat="41.557550602717626" lon="-0.6137891926823315"><ele>171.0</ele><time>2026-05-04T10:25:34Z</time></trkpt><trkpt lat="41.55747139928233" lon="-0.6136845205727997"><ele>171.0</ele><time>2026-05-04T10:25:35Z</time></trkpt><trkpt lat="41.557389358474374" lon="-0.6135737114614411"><ele>171.0</ele><time>2026-05-04T10:25:36Z</time></trkpt><trkpt lat="41.55730687320838" lon="-0.613463594510758"><ele>170.75</ele><time>2026-05-04T10:25:37Z</time></trkpt><trkpt lat="41.55722154732999" lon="-0.6133540184173328"><ele>170.5</ele><time>2026-05-04T10:25:38Z</time></trkpt><trkpt lat="41.557136648839766" lon="-0.6132454186674114"><ele>170.25</ele><time>2026-05-04T10:25:39Z</time></trkpt><trkpt lat="41.55705065195235" lon="-0.613135147877964"><ele>170.0</ele><time>2026-05-04T10:25:40Z</time></trkpt><trkpt lat="41.55696609973581" lon="-0.6130209284678143"><ele>170.0</ele><time>2026-05-04T10:25:41Z</time></trkpt><trkpt lat="41.55688658164347" lon="-0.6129100357819705"><ele>170.0</ele><time>2026-05-04T10:25:42Z</time></trkpt><trkpt lat="41.55680659251457" lon="-0.6128017909519463"><ele>170.0</ele><time>2026-05-04T10:25:43Z</time></trkpt><trkpt lat="41.556723837922405" lon="-0.6126890704779707"><ele>170.0</ele><time>2026-05-04T10:25:44Z</time></trkpt><trkpt lat="41.55664426023254" lon="-0.6125838108934816"><ele>170.75</ele><time>2026-05-04T10:25:45Z</time></trkpt><trkpt lat="41.5565545956454" lon="-0.6124773463279652"><ele>171.5</ele><time>2026-05-04T10:25:46Z</time></trkpt><trkpt lat="41.55647368248713" lon="-0.612367150707312"><ele>172.25</ele><time>2026-05-04T10:25:47Z</time></trkpt><trkpt lat="41.55639363868904" lon="-0.6122606356137054"><ele>173.0</ele><time>2026-05-04T10:25:48Z</time></trkpt><trkpt lat="41.55631387354836" lon="-0.6121528413257121"><ele>173.0</ele><time>2026-05-04T10:25:49Z</time></trkpt><trkpt lat="41.55623663216217" lon="-0.6120433921930144"><ele>173.0</ele><time>2026-05-04T10:25:50Z</time></trkpt><trkpt lat="41.556156649336" lon="-0.6119313838934125"><ele>173.0</ele><time>2026-05-04T10:25:51Z</time></trkpt><trkpt lat="41.55607743568992" lon="-0.6118295813791196"><ele>173.0</ele><time>2026-05-04T10:25:52Z</time></trkpt><trkpt lat="41.555995838061904" lon="-0.6117274816436761"><ele>172.8</ele><time>2026-05-04T10:25:53Z</time></trkpt><trkpt lat="41.55591453551149" lon="-0.611632646656904"><ele>172.60000000000002</ele><time>2026-05-04T10:25:54Z</time></trkpt><trkpt lat="41.55582264588686" lon="-0.6115561448780857"><ele>172.39999999999998</ele><time>2026-05-04T10:25:55Z</time></trkpt><trkpt lat="41.55575686132895" lon="-0.6114254217737504"><ele>172.2</ele><time>2026-05-04T10:25:56.001Z</time></trkpt><trkpt lat="41.55568365754192" lon="-0.6113162178881715"><ele>172.0</ele><time>2026-05-04T10:25:58.001Z</time></trkpt><trkpt lat="41.55551146457819" lon="-0.6110968825546956"><ele>171.8</ele><time>2026-05-04T10:25:59.001Z</time></trkpt><trkpt lat="41.555432508925584" lon="-0.6109929708847859"><ele>171.6</ele><time>2026-05-04T10:26:00.001Z</time></trkpt><trkpt lat="41.55535524305938" lon="-0.6108880857701814"><ele>171.4</ele><time>2026-05-04T10:26:01.001Z</time></trkpt><trkpt lat="41.55527649597605" lon="-0.6107821684490904"><ele>171.20000000000002</ele><time>2026-05-04T10:26:02.001Z</time></trkpt><trkpt lat="41.555196331083415" lon="-0.610678134424634"><ele>171.0</ele><time>2026-05-04T10:26:03.001Z</time></trkpt><trkpt lat="41.555118445748036" lon="-0.6105806351938555"><ele>171.0</ele><time>2026-05-04T10:26:04.001Z</time></trkpt><trkpt lat="41.55504103583577" lon="-0.6104791975877042"><ele>171.0</ele><time>2026-05-04T10:26:05.001Z</time></trkpt><trkpt lat="41.55496368225059" lon="-0.6103736263792003"><ele>171.0</ele><time>2026-05-04T10:26:06.001Z</time></trkpt><trkpt lat="41.554883091563354" lon="-0.6102720019897327"><ele>171.0</ele><time>2026-05-04T10:26:07.001Z</time></trkpt><trkpt lat="41.55481089678449" lon="-0.6101653089744695"><ele>171.0</ele><time>2026-05-04T10:26:08.001Z</time></trkpt><trkpt lat="41.55472892462814" lon="-0.6100598135489009"><ele>171.20000000000002</ele><time>2026-05-04T10:26:09.001Z</time></trkpt><trkpt lat="41.55465033622789" lon="-0.6099578714031094"><ele>171.4</ele><time>2026-05-04T10:26:10.001Z</time></trkpt><trkpt lat="41.55456903197652" lon="-0.6098530768469791"><ele>171.6</ele><time>2026-05-04T10:26:11.001Z</time></trkpt><trkpt lat="41.554492657331885" lon="-0.6097497077169063"><ele>171.8</ele><time>2026-05-04T10:26:12.001Z</time></trkpt><trkpt lat="41.55441340763889" lon="-0.6096416192442703"><ele>172.0</ele><time>2026-05-04T10:26:13.001Z</time></trkpt><trkpt lat="41.55433275336736" lon="-0.6095277218795433"><ele>173.5</ele><time>2026-05-04T10:26:14.001Z</time></trkpt><trkpt lat="41.55424461994835" lon="-0.6094228590658022"><ele>175.0</ele><time>2026-05-04T10:26:15.001Z</time></trkpt><trkpt lat="41.5541628475352" lon="-0.6093218923310524"><ele>176.5</ele><time>2026-05-04T10:26:16.001Z</time></trkpt><trkpt lat="41.55408022175889" lon="-0.6092170465692073"><ele>178.0</ele><time>2026-05-04T10:26:17.001Z</time></trkpt><trkpt lat="41.55399817728303" lon="-0.609106913517642"><ele>178.0</ele><time>2026-05-04T10:26:18.001Z</time></trkpt><trkpt lat="41.55391714265238" lon="-0.608999220977274"><ele>178.0</ele><time>2026-05-04T10:26:19.001Z</time></trkpt><trkpt lat="41.55383868553013" lon="-0.6088900578159746"><ele>178.0</ele><time>2026-05-04T10:26:20.001Z</time></trkpt><trkpt lat="41.55375875000983" lon="-0.6087787895961836"><ele>178.0</ele><time>2026-05-04T10:26:21.001Z</time></trkpt><trkpt lat="41.553683389894324" lon="-0.6086659927456057"><ele>176.75</ele><time>2026-05-04T10:26:22.001Z</time></trkpt><trkpt lat="41.553604352599365" lon="-0.608557171667327"><ele>175.5</ele><time>2026-05-04T10:26:23.001Z</time></trkpt><trkpt lat="41.55352173939997" lon="-0.6084439961576199"><ele>174.25</ele><time>2026-05-04T10:26:24.001Z</time></trkpt><trkpt lat="41.55344158288721" lon="-0.608334597133104"><ele>173.0</ele><time>2026-05-04T10:26:25.001Z</time></trkpt><trkpt lat="41.55336578188338" lon="-0.6082122501503865"><ele>173.0</ele><time>2026-05-04T10:26:26.001Z</time></trkpt><trkpt lat="41.55329161448227" lon="-0.6080932231151508"><ele>173.0</ele><time>2026-05-04T10:26:27.001Z</time></trkpt><trkpt lat="41.55321380335756" lon="-0.6079741150568766"><ele>173.0</ele><time>2026-05-04T10:26:28.001Z</time></trkpt><trkpt lat="41.553140831393705" lon="-0.6078563745424518"><ele>173.0</ele><time>2026-05-04T10:26:29.001Z</time></trkpt><trkpt lat="41.553068528580134" lon="-0.6077389867732889"><ele>173.0</ele><time>2026-05-04T10:26:30.001Z</time></trkpt><trkpt lat="41.552998366925806" lon="-0.6076180330143625"><ele>173.0</ele><time>2026-05-04T10:26:31.001Z</time></trkpt><trkpt lat="41.55293199470667" lon="-0.6074979509024012"><ele>173.0</ele><time>2026-05-04T10:26:32.001Z</time></trkpt><trkpt lat="41.55286074519505" lon="-0.6073781061095608"><ele>173.0</ele><time>2026-05-04T10:26:33.001Z</time></trkpt><trkpt lat="41.55279328026895" lon="-0.6072521633700504"><ele>173.0</ele><time>2026-05-04T10:26:34.001Z</time></trkpt><trkpt lat="41.55273213129495" lon="-0.6071309338654887"><ele>173.0</ele><time>2026-05-04T10:26:35.001Z</time></trkpt><trkpt lat="41.55266809278331" lon="-0.6070034073562851"><ele>173.0</ele><time>2026-05-04T10:26:36.001Z</time></trkpt><trkpt lat="41.55261342626365" lon="-0.6068818525076904"><ele>173.0</ele><time>2026-05-04T10:26:37.001Z</time></trkpt><trkpt lat="41.55255689538534" lon="-0.6067601424442448"><ele>173.0</ele><time>2026-05-04T10:26:38.001Z</time></trkpt><trkpt lat="41.5524965477171" lon="-0.6066392208519814"><ele>173.8</ele><time>2026-05-04T10:26:39.001Z</time></trkpt><trkpt lat="41.55244303047428" lon="-0.6065156471106472"><ele>174.60000000000002</ele><time>2026-05-04T10:26:40.001Z</time></trkpt><trkpt lat="41.55239078051665" lon="-0.6063925805914067"><ele>175.39999999999998</ele><time>2026-05-04T10:26:41.001Z</time></trkpt><trkpt lat="41.552338063208154" lon="-0.6062675343617505"><ele>176.2</ele><time>2026-05-04T10:26:42.001Z</time></trkpt><trkpt lat="41.552284187365515" lon="-0.6061486022202772"><ele>177.0</ele><time>2026-05-04T10:26:43.001Z</time></trkpt><trkpt lat="41.552234087942935" lon="-0.6060221112668965"><ele>176.6</ele><time>2026-05-04T10:26:44.001Z</time></trkpt><trkpt lat="41.5521817757371" lon="-0.6058942490583983"><ele>176.2</ele><time>2026-05-04T10:26:45.001Z</time></trkpt><trkpt lat="41.552127771674776" lon="-0.6057704552575225"><ele>175.8</ele><time>2026-05-04T10:26:46.001Z</time></trkpt><trkpt lat="41.55207496778621" lon="-0.6056446042043311"><ele>175.4</ele><time>2026-05-04T10:26:47.001Z</time></trkpt><trkpt lat="41.55202372256206" lon="-0.6055151270976167"><ele>175.0</ele><time>2026-05-04T10:26:48.001Z</time></trkpt><trkpt lat="41.55197014009535" lon="-0.6053859580139044"><ele>176.25</ele><time>2026-05-04T10:26:49.001Z</time></trkpt><trkpt lat="41.55191776369916" lon="-0.6052562031094555"><ele>177.5</ele><time>2026-05-04T10:26:50.001Z</time></trkpt><trkpt lat="41.55186501242042" lon="-0.6051267913962557"><ele>178.75</ele><time>2026-05-04T10:26:51.001Z</time></trkpt><trkpt lat="41.55181376462695" lon="-0.6049955222552245"><ele>180.0</ele><time>2026-05-04T10:26:52.001Z</time></trkpt><trkpt lat="41.55175790157835" lon="-0.6048524895749514"><ele>180.0</ele><time>2026-05-04T10:26:53.001Z</time></trkpt><trkpt lat="41.55170059679246" lon="-0.6046743635689041"><ele>180.0</ele><time>2026-05-04T10:26:54.001Z</time></trkpt><trkpt lat="41.55165512056511" lon="-0.604537646907285"><ele>180.0</ele><time>2026-05-04T10:26:55.001Z</time></trkpt><trkpt lat="41.5515944493012" lon="-0.6044633847870896"><ele>180.0</ele><time>2026-05-04T10:26:56Z</time></trkpt><trkpt lat="41.55154388717528" lon="-0.6043321180656458"><ele>180.0</ele><time>2026-05-04T10:26:57Z</time></trkpt><trkpt lat="41.551496950500656" lon="-0.604192884990223"><ele>180.0</ele><time>2026-05-04T10:26:58Z</time></trkpt><trkpt lat="41.5514439035158" lon="-0.6040528419928598"><ele>180.0</ele><time>2026-05-04T10:26:59Z</time></trkpt><trkpt lat="41.55139344256302" lon="-0.6039124441922558"><ele>180.0</ele><time>2026-05-04T10:27:00Z</time></trkpt><trkpt lat="41.551343702450474" lon="-0.6037677433980536"><ele>180.5</ele><time>2026-05-04T10:27:01Z</time></trkpt><trkpt lat="41.55129649396486" lon="-0.603624690233282"><ele>181.0</ele><time>2026-05-04T10:27:02Z</time></trkpt><trkpt lat="41.55124740291478" lon="-0.6034829299577706"><ele>181.5</ele><time>2026-05-04T10:27:03Z</time></trkpt><trkpt lat="41.551198701822734" lon="-0.6033395119939292"><ele>182.0</ele><time>2026-05-04T10:27:04Z</time></trkpt><trkpt lat="41.55115311400677" lon="-0.6031980816437975"><ele>181.5</ele><time>2026-05-04T10:27:05Z</time></trkpt><trkpt lat="41.55110926048306" lon="-0.6030536990352151"><ele>181.0</ele><time>2026-05-04T10:27:06Z</time></trkpt><trkpt lat="41.55106469089174" lon="-0.6029090745178763"><ele>180.5</ele><time>2026-05-04T10:27:07Z</time></trkpt><trkpt lat="41.55102093560152" lon="-0.6027615267978783"><ele>180.0</ele><time>2026-05-04T10:27:08Z</time></trkpt><trkpt lat="41.55097370332192" lon="-0.6026184241125031"><ele>180.0</ele><time>2026-05-04T10:27:09Z</time></trkpt><trkpt lat="41.55092744068606" lon="-0.6024761028104263"><ele>180.0</ele><time>2026-05-04T10:27:10Z</time></trkpt><trkpt lat="41.550883361627605" lon="-0.6023339419757779"><ele>180.0</ele><time>2026-05-04T10:27:11Z</time></trkpt><trkpt lat="41.55084539749047" lon="-0.6021856309708419"><ele>180.0</ele><time>2026-05-04T10:27:12Z</time></trkpt><trkpt lat="41.550807080852806" lon="-0.6020388833359079"><ele>179.75</ele><time>2026-05-04T10:27:13Z</time></trkpt><trkpt lat="41.55076554383854" lon="-0.6018963967313599"><ele>179.5</ele><time>2026-05-04T10:27:14Z</time></trkpt><trkpt lat="41.550725188792065" lon="-0.6017520387253291"><ele>179.25</ele><time>2026-05-04T10:27:15Z</time></trkpt><trkpt lat="41.55068859667801" lon="-0.6016028002847595"><ele>179.0</ele><time>2026-05-04T10:27:16Z</time></trkpt><trkpt lat="41.550650570934" lon="-0.6014564009212916"><ele>179.0</ele><time>2026-05-04T10:27:17Z</time></trkpt><trkpt lat="41.550610997435825" lon="-0.6013119092800879"><ele>179.0</ele><time>2026-05-04T10:27:18Z</time></trkpt><trkpt lat="41.550573307751975" lon="-0.6011662735491768"><ele>179.0</ele><time>2026-05-04T10:27:19Z</time></trkpt><trkpt lat="41.55054115101413" lon="-0.6010154638679501"><ele>179.0</ele><time>2026-05-04T10:27:20Z</time></trkpt><trkpt lat="41.5505054203182" lon="-0.6008672593799531"><ele>178.75</ele><time>2026-05-04T10:27:21Z</time></trkpt><trkpt lat="41.550467952571104" lon="-0.600719722043823"><ele>178.5</ele><time>2026-05-04T10:27:22Z</time></trkpt><trkpt lat="41.550434654038156" lon="-0.6005704235905999"><ele>178.25</ele><time>2026-05-04T10:27:23Z</time></trkpt><trkpt lat="41.55039860570331" lon="-0.6004211580072146"><ele>178.0</ele><time>2026-05-04T10:27:24Z</time></trkpt><trkpt lat="41.55036324877829" lon="-0.6002715689923643"><ele>177.75</ele><time>2026-05-04T10:27:25Z</time></trkpt><trkpt lat="41.55032928127481" lon="-0.6001222196222521"><ele>177.5</ele><time>2026-05-04T10:27:26Z</time></trkpt><trkpt lat="41.55029128423736" lon="-0.5999707780273116"><ele>177.25</ele><time>2026-05-04T10:27:27Z</time></trkpt><trkpt lat="41.55026124190453" lon="-0.5998175007379501"><ele>177.0</ele><time>2026-05-04T10:27:28Z</time></trkpt><trkpt lat="41.550224246727836" lon="-0.5996652464335424"><ele>177.0</ele><time>2026-05-04T10:27:29Z</time></trkpt><trkpt lat="41.550187835093475" lon="-0.5995139323402257"><ele>177.0</ele><time>2026-05-04T10:27:30Z</time></trkpt><trkpt lat="41.550154022551716" lon="-0.5993613446182692"><ele>177.0</ele><time>2026-05-04T10:27:31Z</time></trkpt><trkpt lat="41.5501183403749" lon="-0.5992089412502352"><ele>177.0</ele><time>2026-05-04T10:27:32Z</time></trkpt><trkpt lat="41.55008286121897" lon="-0.5990565599466827"><ele>176.75</ele><time>2026-05-04T10:27:33Z</time></trkpt><trkpt lat="41.5500470888281" lon="-0.5989064952465107"><ele>176.5</ele><time>2026-05-04T10:27:34Z</time></trkpt><trkpt lat="41.55001081782897" lon="-0.5987557290874659"><ele>176.25</ele><time>2026-05-04T10:27:35Z</time></trkpt><trkpt lat="41.54997419918523" lon="-0.5986043873243699"><ele>176.0</ele><time>2026-05-04T10:27:36Z</time></trkpt><trkpt lat="41.54993885221676" lon="-0.5984540433211314"><ele>176.5</ele><time>2026-05-04T10:27:37Z</time></trkpt><trkpt lat="41.54989631438983" lon="-0.5983093266489373"><ele>177.0</ele><time>2026-05-04T10:27:38Z</time></trkpt><trkpt lat="41.549848605695956" lon="-0.5981687193786737"><ele>177.5</ele><time>2026-05-04T10:27:39Z</time></trkpt><trkpt lat="41.54980019363428" lon="-0.5980251070442429"><ele>178.0</ele><time>2026-05-04T10:27:40Z</time></trkpt><trkpt lat="41.54974780734508" lon="-0.5978853929764938"><ele>178.25</ele><time>2026-05-04T10:27:41Z</time></trkpt><trkpt lat="41.54969505322441" lon="-0.5977479483853172"><ele>178.5</ele><time>2026-05-04T10:27:42Z</time></trkpt><trkpt lat="41.54964061470106" lon="-0.5976135950073703"><ele>178.75</ele><time>2026-05-04T10:27:43Z</time></trkpt><trkpt lat="41.54958220321708" lon="-0.5974810774748806"><ele>179.0</ele><time>2026-05-04T10:27:44Z</time></trkpt><trkpt lat="41.54952660126029" lon="-0.5973460955339153"><ele>178.5</ele><time>2026-05-04T10:27:45Z</time></trkpt><trkpt lat="41.549466863128394" lon="-0.597213322698464"><ele>178.0</ele><time>2026-05-04T10:27:46Z</time></trkpt><trkpt lat="41.54940948850091" lon="-0.5970782649480986"><ele>177.5</ele><time>2026-05-04T10:27:47Z</time></trkpt><trkpt lat="41.549352349843694" lon="-0.5969399558486772"><ele>177.0</ele><time>2026-05-04T10:27:48Z</time></trkpt><trkpt lat="41.54929479066411" lon="-0.5968061626890558"><ele>176.75</ele><time>2026-05-04T10:27:49Z</time></trkpt><trkpt lat="41.5492375075678" lon="-0.5966684295110989"><ele>176.5</ele><time>2026-05-04T10:27:50Z</time></trkpt><trkpt lat="41.54917632054652" lon="-0.5965301529847311"><ele>176.25</ele><time>2026-05-04T10:27:51Z</time></trkpt><trkpt lat="41.54911493864694" lon="-0.5963963773166165"><ele>176.0</ele><time>2026-05-04T10:27:52Z</time></trkpt><trkpt lat="41.54905444014437" lon="-0.5962634845555785"><ele>175.5</ele><time>2026-05-04T10:27:53Z</time></trkpt><trkpt lat="41.5489937021409" lon="-0.5961250973462732"><ele>175.0</ele><time>2026-05-04T10:27:54Z</time></trkpt><trkpt lat="41.54893366010841" lon="-0.5959884831064234"><ele>174.5</ele><time>2026-05-04T10:27:55Z</time></trkpt><trkpt lat="41.54887162806338" lon="-0.5958538283891381"><ele>174.0</ele><time>2026-05-04T10:27:56Z</time></trkpt><trkpt lat="41.548806476888444" lon="-0.5957194436784459"><ele>174.0</ele><time>2026-05-04T10:27:57Z</time></trkpt><trkpt lat="41.548745522886165" lon="-0.5955806999894844"><ele>174.0</ele><time>2026-05-04T10:27:58Z</time></trkpt><trkpt lat="41.54868384996866" lon="-0.5954445378316202"><ele>174.0</ele><time>2026-05-04T10:27:59Z</time></trkpt><trkpt lat="41.5486211083403" lon="-0.5953085470485656"><ele>174.0</ele><time>2026-05-04T10:28:00Z</time></trkpt><trkpt lat="41.54855744922652" lon="-0.5951714008270643"><ele>174.0</ele><time>2026-05-04T10:28:01Z</time></trkpt><trkpt lat="41.548487630049564" lon="-0.5950414465109252"><ele>174.0</ele><time>2026-05-04T10:28:02Z</time></trkpt><trkpt lat="41.548419118558996" lon="-0.5949131066121798"><ele>174.0</ele><time>2026-05-04T10:28:03Z</time></trkpt><trkpt lat="41.54835365444376" lon="-0.5947760548837425"><ele>174.0</ele><time>2026-05-04T10:28:04Z</time></trkpt><trkpt lat="41.54828616360617" lon="-0.5946408676462709"><ele>174.0</ele><time>2026-05-04T10:28:05Z</time></trkpt><trkpt lat="41.548219580166155" lon="-0.5945092518567049"><ele>174.0</ele><time>2026-05-04T10:28:06.001Z</time></trkpt><trkpt lat="41.54814803234049" lon="-0.5943822599545248"><ele>174.0</ele><time>2026-05-04T10:28:07.001Z</time></trkpt><trkpt lat="41.54808110460663" lon="-0.5942496904353447"><ele>174.0</ele><time>2026-05-04T10:28:08.001Z</time></trkpt><trkpt lat="41.54801043171745" lon="-0.5941182905758267"><ele>173.75</ele><time>2026-05-04T10:28:09.001Z</time></trkpt><trkpt lat="41.54794205654777" lon="-0.5939901324602392"><ele>173.5</ele><time>2026-05-04T10:28:10.001Z</time></trkpt><trkpt lat="41.547872668644565" lon="-0.5938608331145216"><ele>173.25</ele><time>2026-05-04T10:28:11.001Z</time></trkpt><trkpt lat="41.547803310810295" lon="-0.5937325857576381"><ele>173.0</ele><time>2026-05-04T10:28:12.001Z</time></trkpt><trkpt lat="41.54773269135724" lon="-0.5936020813257709"><ele>173.0</ele><time>2026-05-04T10:28:13.001Z</time></trkpt><trkpt lat="41.54766214968317" lon="-0.5934761668964745"><ele>173.0</ele><time>2026-05-04T10:28:14.001Z</time></trkpt><trkpt lat="41.54759287328676" lon="-0.5933471296398954"><ele>173.0</ele><time>2026-05-04T10:28:15.001Z</time></trkpt><trkpt lat="41.54752411910719" lon="-0.5932153930820154"><ele>173.0</ele><time>2026-05-04T10:28:16.001Z</time></trkpt><trkpt lat="41.54745383437045" lon="-0.5930854365646022"><ele>173.0</ele><time>2026-05-04T10:28:17.001Z</time></trkpt><trkpt lat="41.547382937531815" lon="-0.5929606531065019"><ele>173.0</ele><time>2026-05-04T10:28:18.001Z</time></trkpt><trkpt lat="41.54731462901211" lon="-0.5928354789627981"><ele>173.0</ele><time>2026-05-04T10:28:19.001Z</time></trkpt><trkpt lat="41.54724976507619" lon="-0.592710186178527"><ele>173.0</ele><time>2026-05-04T10:28:20.001Z</time></trkpt><trkpt lat="41.54717971734099" lon="-0.5925722972208516"><ele>173.0</ele><time>2026-05-04T10:28:21.001Z</time></trkpt><trkpt lat="41.5471117486032" lon="-0.5924502140635863"><ele>173.0</ele><time>2026-05-04T10:28:22.001Z</time></trkpt><trkpt lat="41.54704375916134" lon="-0.5923282102684547"><ele>173.0</ele><time>2026-05-04T10:28:23.001Z</time></trkpt><trkpt lat="41.54697447015163" lon="-0.5922050914553061"><ele>173.0</ele><time>2026-05-04T10:28:24.001Z</time></trkpt><trkpt lat="41.54690481021722" lon="-0.5920809721700464"><ele>172.75</ele><time>2026-05-04T10:28:25.001Z</time></trkpt><trkpt lat="41.546834416232024" lon="-0.5919574465162667"><ele>172.5</ele><time>2026-05-04T10:28:26.001Z</time></trkpt><trkpt lat="41.546764624616664" lon="-0.591830459978503"><ele>172.25</ele><time>2026-05-04T10:28:27.001Z</time></trkpt><trkpt lat="41.546695746044314" lon="-0.5917069378489999"><ele>172.0</ele><time>2026-05-04T10:28:28.001Z</time></trkpt><trkpt lat="41.546624577781195" lon="-0.5915824423689369"><ele>172.0</ele><time>2026-05-04T10:28:29.001Z</time></trkpt><trkpt lat="41.54655213229552" lon="-0.5914630891269296"><ele>172.0</ele><time>2026-05-04T10:28:30.001Z</time></trkpt><trkpt lat="41.54647989531152" lon="-0.591343004739538"><ele>172.0</ele><time>2026-05-04T10:28:31.001Z</time></trkpt><trkpt lat="41.54640911440972" lon="-0.5912176802139497"><ele>172.0</ele><time>2026-05-04T10:28:32.001Z</time></trkpt><trkpt lat="41.54634060614734" lon="-0.5910930214662665"><ele>172.0</ele><time>2026-05-04T10:28:33.001Z</time></trkpt><trkpt lat="41.54627302978519" lon="-0.5909679626860138"><ele>172.0</ele><time>2026-05-04T10:28:34.001Z</time></trkpt><trkpt lat="41.54620639519036" lon="-0.5908437197487609"><ele>172.0</ele><time>2026-05-04T10:28:35.001Z</time></trkpt><trkpt lat="41.54613728824197" lon="-0.5907184101989783"><ele>172.0</ele><time>2026-05-04T10:28:36.001Z</time></trkpt><trkpt lat="41.5460683126019" lon="-0.590593722673325"><ele>172.0</ele><time>2026-05-04T10:28:37.001Z</time></trkpt><trkpt lat="41.545997800987294" lon="-0.5904711201442355"><ele>172.0</ele><time>2026-05-04T10:28:38.001Z</time></trkpt><trkpt lat="41.54592672460039" lon="-0.5903516234901421"><ele>172.0</ele><time>2026-05-04T10:28:39.001Z</time></trkpt><trkpt lat="41.54585262563195" lon="-0.5902323935451363"><ele>172.0</ele><time>2026-05-04T10:28:40.001Z</time></trkpt><trkpt lat="41.545781803515325" lon="-0.5901112341571019"><ele>172.0</ele><time>2026-05-04T10:28:41.001Z</time></trkpt><trkpt lat="41.54571051553952" lon="-0.589988857824959"><ele>172.0</ele><time>2026-05-04T10:28:42.001Z</time></trkpt><trkpt lat="41.545637541915525" lon="-0.5898682629013418"><ele>172.0</ele><time>2026-05-04T10:28:43.001Z</time></trkpt><trkpt lat="41.54556537558992" lon="-0.5897525252763189"><ele>172.0</ele><time>2026-05-04T10:28:44.001Z</time></trkpt><trkpt lat="41.54549007919122" lon="-0.5896346070434748"><ele>172.0</ele><time>2026-05-04T10:28:45.001Z</time></trkpt><trkpt lat="41.545415712082956" lon="-0.5895186247529"><ele>172.0</ele><time>2026-05-04T10:28:46.001Z</time></trkpt><trkpt lat="41.54534063188185" lon="-0.5894029396575815"><ele>172.0</ele><time>2026-05-04T10:28:47.001Z</time></trkpt><trkpt lat="41.54526372240244" lon="-0.5892865319949675"><ele>172.0</ele><time>2026-05-04T10:28:48.001Z</time></trkpt><trkpt lat="41.54518716799322" lon="-0.5891722732904788"><ele>171.25</ele><time>2026-05-04T10:28:49.001Z</time></trkpt><trkpt lat="41.545108892900025" lon="-0.5890562248963326"><ele>170.5</ele><time>2026-05-04T10:28:50.001Z</time></trkpt><trkpt lat="41.545032182337025" lon="-0.5889433579222983"><ele>169.75</ele><time>2026-05-04T10:28:51.001Z</time></trkpt><trkpt lat="41.54495330134372" lon="-0.5888312531117781"><ele>169.0</ele><time>2026-05-04T10:28:52.001Z</time></trkpt><trkpt lat="41.54487576839977" lon="-0.5887199089040767"><ele>169.5</ele><time>2026-05-04T10:28:53.001Z</time></trkpt><trkpt lat="41.54479542284622" lon="-0.5886088709830175"><ele>170.0</ele><time>2026-05-04T10:28:54.001Z</time></trkpt><trkpt lat="41.54471339503884" lon="-0.5884996867492354"><ele>170.5</ele><time>2026-05-04T10:28:55.001Z</time></trkpt><trkpt lat="41.54462885325459" lon="-0.5883893564219377"><ele>171.0</ele><time>2026-05-04T10:28:56.001Z</time></trkpt><trkpt lat="41.544548191872636" lon="-0.5882808864161575"><ele>171.0</ele><time>2026-05-04T10:28:57.001Z</time></trkpt><trkpt lat="41.544464594582735" lon="-0.5881760236443394"><ele>171.0</ele><time>2026-05-04T10:28:58.001Z</time></trkpt><trkpt lat="41.54438100973005" lon="-0.5880691131252004"><ele>171.0</ele><time>2026-05-04T10:28:59.001Z</time></trkpt><trkpt lat="41.54429583376415" lon="-0.5879629039023377"><ele>171.0</ele><time>2026-05-04T10:29:00.001Z</time></trkpt><trkpt lat="41.544205797078156" lon="-0.5878556931632636"><ele>171.25</ele><time>2026-05-04T10:29:01.001Z</time></trkpt><trkpt lat="41.5441198283047" lon="-0.5877484013410866"><ele>171.5</ele><time>2026-05-04T10:29:02Z</time></trkpt><trkpt lat="41.54403382720499" lon="-0.5876393897350436"><ele>171.75</ele><time>2026-05-04T10:29:03Z</time></trkpt><trkpt lat="41.54394775920807" lon="-0.5875350847842834"><ele>172.0</ele><time>2026-05-04T10:29:04Z</time></trkpt><trkpt lat="41.54385915020384" lon="-0.5874261755805366"><ele>172.0</ele><time>2026-05-04T10:29:05Z</time></trkpt><trkpt lat="41.5437722077524" lon="-0.5873194129577871"><ele>172.0</ele><time>2026-05-04T10:29:06Z</time></trkpt><trkpt lat="41.54368401547959" lon="-0.5872152665027466"><ele>172.0</ele><time>2026-05-04T10:29:07Z</time></trkpt><trkpt lat="41.543595903360526" lon="-0.5871112450838142"><ele>172.0</ele><time>2026-05-04T10:29:08Z</time></trkpt><trkpt lat="41.54350880700239" lon="-0.5870065049003612"><ele>171.75</ele><time>2026-05-04T10:29:09Z</time></trkpt><trkpt lat="41.54342125408955" lon="-0.5869029020415965"><ele>171.5</ele><time>2026-05-04T10:29:10Z</time></trkpt><trkpt lat="41.54333172910624" lon="-0.5867982511753743"><ele>171.25</ele><time>2026-05-04T10:29:11Z</time></trkpt><trkpt lat="41.54324250565176" lon="-0.5866960999918976"><ele>171.0</ele><time>2026-05-04T10:29:12Z</time></trkpt><trkpt lat="41.54315331107959" lon="-0.5865963783150223"><ele>171.0</ele><time>2026-05-04T10:29:13Z</time></trkpt><trkpt lat="41.5430655998708" lon="-0.586498521728635"><ele>171.0</ele><time>2026-05-04T10:29:14Z</time></trkpt><trkpt lat="41.54297948299067" lon="-0.5863996887686849"><ele>171.0</ele><time>2026-05-04T10:29:15Z</time></trkpt><trkpt lat="41.54289394145899" lon="-0.5862999693193275"><ele>171.0</ele><time>2026-05-04T10:29:16Z</time></trkpt><trkpt lat="41.542806016121325" lon="-0.5861986263801159"><ele>171.4</ele><time>2026-05-04T10:29:17Z</time></trkpt><trkpt lat="41.54271738024403" lon="-0.586099913995768"><ele>171.8</ele><time>2026-05-04T10:29:18Z</time></trkpt><trkpt lat="41.542630335681274" lon="-0.5860023519040742"><ele>172.20000000000002</ele><time>2026-05-04T10:29:19Z</time></trkpt><trkpt lat="41.542553679680836" lon="-0.5859250306499233"><ele>172.60000000000002</ele><time>2026-05-04T10:29:20Z</time></trkpt><trkpt lat="41.54248932772856" lon="-0.5858198336593967"><ele>173.0</ele><time>2026-05-04T10:29:22Z</time></trkpt><trkpt lat="41.542289313823076" lon="-0.5856336976382878"><ele>173.0</ele><time>2026-05-04T10:29:23Z</time></trkpt><trkpt lat="41.54220150760939" lon="-0.5855392073169994"><ele>173.0</ele><time>2026-05-04T10:29:24Z</time></trkpt><trkpt lat="41.54211756637025" lon="-0.5854437217853966"><ele>173.0</ele><time>2026-05-04T10:29:25Z</time></trkpt><trkpt lat="41.542028129387205" lon="-0.5853525869870896"><ele>173.0</ele><time>2026-05-04T10:29:26Z</time></trkpt><trkpt lat="41.54194092592971" lon="-0.5852569839854348"><ele>173.0</ele><time>2026-05-04T10:29:27Z</time></trkpt><trkpt lat="41.54185259538376" lon="-0.5851575258486513"><ele>173.0</ele><time>2026-05-04T10:29:28Z</time></trkpt><trkpt lat="41.541769302464225" lon="-0.5850563584015294"><ele>173.0</ele><time>2026-05-04T10:29:29Z</time></trkpt><trkpt lat="41.54168022262796" lon="-0.5849510861530851"><ele>173.0</ele><time>2026-05-04T10:29:30Z</time></trkpt><trkpt lat="41.54159488867968" lon="-0.584856634273251"><ele>173.0</ele><time>2026-05-04T10:29:31Z</time></trkpt><trkpt lat="41.541502533166586" lon="-0.5847624558918192"><ele>173.0</ele><time>2026-05-04T10:29:32Z</time></trkpt><trkpt lat="41.541415229782515" lon="-0.5846671837423686"><ele>173.0</ele><time>2026-05-04T10:29:33Z</time></trkpt><trkpt lat="41.54132757478199" lon="-0.5845703111980423"><ele>173.0</ele><time>2026-05-04T10:29:34Z</time></trkpt><trkpt lat="41.541238950279855" lon="-0.5844756883647857"><ele>173.0</ele><time>2026-05-04T10:29:35Z</time></trkpt><trkpt lat="41.541150414313314" lon="-0.5843792888712352"><ele>172.5</ele><time>2026-05-04T10:29:36Z</time></trkpt><trkpt lat="41.54106446256331" lon="-0.5842843699912604"><ele>172.0</ele><time>2026-05-04T10:29:37Z</time></trkpt><trkpt lat="41.54097520137367" lon="-0.5841855731748888"><ele>171.5</ele><time>2026-05-04T10:29:38Z</time></trkpt><trkpt lat="41.540887426425414" lon="-0.5840922235729304"><ele>171.0</ele><time>2026-05-04T10:29:39Z</time></trkpt><trkpt lat="41.54079512667705" lon="-0.5839946519161217"><ele>171.0</ele><time>2026-05-04T10:29:40Z</time></trkpt><trkpt lat="41.5407053904481" lon="-0.5839004761422779"><ele>171.0</ele><time>2026-05-04T10:29:41Z</time></trkpt><trkpt lat="41.540615072081245" lon="-0.5838009733413912"><ele>171.0</ele><time>2026-05-04T10:29:42Z</time></trkpt><trkpt lat="41.540527562921234" lon="-0.5837029931343872"><ele>171.0</ele><time>2026-05-04T10:29:43Z</time></trkpt><trkpt lat="41.540437459587594" lon="-0.5836046434713246"><ele>171.25</ele><time>2026-05-04T10:29:44Z</time></trkpt><trkpt lat="41.54035027310553" lon="-0.5835032133053351"><ele>171.5</ele><time>2026-05-04T10:29:45Z</time></trkpt><trkpt lat="41.54026167734397" lon="-0.5834062455528134"><ele>171.75</ele><time>2026-05-04T10:29:46Z</time></trkpt><trkpt lat="41.540173940494235" lon="-0.5833037685459267"><ele>172.0</ele><time>2026-05-04T10:29:47Z</time></trkpt><trkpt lat="41.54008323653482" lon="-0.583203770730688"><ele>172.0</ele><time>2026-05-04T10:29:48Z</time></trkpt><trkpt lat="41.539992250232636" lon="-0.583110720590561"><ele>172.0</ele><time>2026-05-04T10:29:49Z</time></trkpt><trkpt lat="41.53990173553156" lon="-0.5830115867279451"><ele>172.0</ele><time>2026-05-04T10:29:50Z</time></trkpt><trkpt lat="41.53981238184419" lon="-0.5829100917055726"><ele>172.0</ele><time>2026-05-04T10:29:51Z</time></trkpt><trkpt lat="41.539721349979025" lon="-0.5828106340479482"><ele>172.5</ele><time>2026-05-04T10:29:52Z</time></trkpt><trkpt lat="41.53962925657538" lon="-0.5827127849844402"><ele>173.0</ele><time>2026-05-04T10:29:53Z</time></trkpt><trkpt lat="41.53953893580317" lon="-0.5826145773277671"><ele>173.5</ele><time>2026-05-04T10:29:54Z</time></trkpt><trkpt lat="41.53944987093958" lon="-0.5825174988284186"><ele>174.0</ele><time>2026-05-04T10:29:55Z</time></trkpt><trkpt lat="41.539358627423375" lon="-0.5824193844489598"><ele>174.0</ele><time>2026-05-04T10:29:56.001Z</time></trkpt><trkpt lat="41.53926731704966" lon="-0.5823232209181766"><ele>174.0</ele><time>2026-05-04T10:29:57.001Z</time></trkpt><trkpt lat="41.539176535484195" lon="-0.5822244462239977"><ele>174.0</ele><time>2026-05-04T10:29:58.001Z</time></trkpt><trkpt lat="41.53908655633659" lon="-0.5821259276593426"><ele>174.0</ele><time>2026-05-04T10:29:59.001Z</time></trkpt><trkpt lat="41.53899704220019" lon="-0.5820300741625586"><ele>174.0</ele><time>2026-05-04T10:30:00.001Z</time></trkpt><trkpt lat="41.53890723110454" lon="-0.581932352316429"><ele>174.0</ele><time>2026-05-04T10:30:01.001Z</time></trkpt><trkpt lat="41.53881648938547" lon="-0.5818380698272149"><ele>174.0</ele><time>2026-05-04T10:30:02.001Z</time></trkpt><trkpt lat="41.538727348947155" lon="-0.5817422204492683"><ele>174.0</ele><time>2026-05-04T10:30:03.001Z</time></trkpt><trkpt lat="41.5386405333801" lon="-0.581644880829469"><ele>173.75</ele><time>2026-05-04T10:30:04.001Z</time></trkpt><trkpt lat="41.53855297657364" lon="-0.5815469996493835"><ele>173.5</ele><time>2026-05-04T10:30:05.001Z</time></trkpt><trkpt lat="41.53846444283008" lon="-0.5814521617877695"><ele>173.25</ele><time>2026-05-04T10:30:06.001Z</time></trkpt><trkpt lat="41.53837647386681" lon="-0.5813577359318931"><ele>173.0</ele><time>2026-05-04T10:30:07.001Z</time></trkpt><trkpt lat="41.53829212622177" lon="-0.5812652356987954"><ele>173.5</ele><time>2026-05-04T10:30:08.001Z</time></trkpt><trkpt lat="41.538201570783905" lon="-0.5811615988171092"><ele>174.0</ele><time>2026-05-04T10:30:09.001Z</time></trkpt><trkpt lat="41.53813064070851" lon="-0.5810587574352639"><ele>174.5</ele><time>2026-05-04T10:30:10.001Z</time></trkpt><trkpt lat="41.538042363068485" lon="-0.5809748318775904"><ele>175.0</ele><time>2026-05-04T10:30:11.001Z</time></trkpt><trkpt lat="41.537941688556785" lon="-0.5808641568457603"><ele>174.25</ele><time>2026-05-04T10:30:12.001Z</time></trkpt><trkpt lat="41.53782225370284" lon="-0.5807812929914106"><ele>173.5</ele><time>2026-05-04T10:30:13.001Z</time></trkpt><trkpt lat="41.53777473559141" lon="-0.5806803979297962"><ele>172.75</ele><time>2026-05-04T10:30:14.001Z</time></trkpt><trkpt lat="41.53768553187417" lon="-0.5805885922112138"><ele>172.0</ele><time>2026-05-04T10:30:15.001Z</time></trkpt><trkpt lat="41.53759644401787" lon="-0.5804937459605045"><ele>172.0</ele><time>2026-05-04T10:30:16.001Z</time></trkpt><trkpt lat="41.53750845251636" lon="-0.5804014418832759"><ele>172.0</ele><time>2026-05-04T10:30:17.001Z</time></trkpt><trkpt lat="41.53741785174362" lon="-0.5803113687610133"><ele>172.0</ele><time>2026-05-04T10:30:18.001Z</time></trkpt><trkpt lat="41.53732623625023" lon="-0.5802180959892469"><ele>172.0</ele><time>2026-05-04T10:30:19.001Z</time></trkpt><trkpt lat="41.537237092346615" lon="-0.5801285914856048"><ele>172.25</ele><time>2026-05-04T10:30:20.001Z</time></trkpt><trkpt lat="41.53714643950736" lon="-0.5800332986446063"><ele>172.5</ele><time>2026-05-04T10:30:21.001Z</time></trkpt><trkpt lat="41.537055634695626" lon="-0.5799376231475445"><ele>172.75</ele><time>2026-05-04T10:30:22.001Z</time></trkpt><trkpt lat="41.53696265002057" lon="-0.579842239256123"><ele>173.0</ele><time>2026-05-04T10:30:23.001Z</time></trkpt><trkpt lat="41.53687035600199" lon="-0.5797483479904856"><ele>173.0</ele><time>2026-05-04T10:30:24.001Z</time></trkpt><trkpt lat="41.53678089064909" lon="-0.5796518152829213"><ele>173.0</ele><time>2026-05-04T10:30:25.001Z</time></trkpt><trkpt lat="41.53669039625267" lon="-0.579550302326174"><ele>173.0</ele><time>2026-05-04T10:30:26.001Z</time></trkpt><trkpt lat="41.536600566509236" lon="-0.5794544378829588"><ele>173.0</ele><time>2026-05-04T10:30:27.001Z</time></trkpt><trkpt lat="41.536509719609555" lon="-0.5793554354105582"><ele>173.0</ele><time>2026-05-04T10:30:28.001Z</time></trkpt><trkpt lat="41.536423566589455" lon="-0.5792554873186869"><ele>173.0</ele><time>2026-05-04T10:30:29.001Z</time></trkpt><trkpt lat="41.53634404290087" lon="-0.5791524778451991"><ele>173.0</ele><time>2026-05-04T10:30:30.001Z</time></trkpt><trkpt lat="41.53626580300569" lon="-0.579044219146363"><ele>173.0</ele><time>2026-05-04T10:30:31.001Z</time></trkpt><trkpt lat="41.53618355836738" lon="-0.5789385680005756"><ele>173.0</ele><time>2026-05-04T10:30:32.001Z</time></trkpt><trkpt lat="41.53610562935411" lon="-0.5788216397058877"><ele>173.0</ele><time>2026-05-04T10:30:33.001Z</time></trkpt><trkpt lat="41.53602510180439" lon="-0.5787069866191281"><ele>173.0</ele><time>2026-05-04T10:30:34.001Z</time></trkpt><trkpt lat="41.535943451376426" lon="-0.5785858303497288"><ele>173.0</ele><time>2026-05-04T10:30:35.001Z</time></trkpt><trkpt lat="41.53586867269993" lon="-0.5784622074289176"><ele>173.25</ele><time>2026-05-04T10:30:36.001Z</time></trkpt><trkpt lat="41.535798555730416" lon="-0.5783397311691074"><ele>173.5</ele><time>2026-05-04T10:30:37.001Z</time></trkpt><trkpt lat="41.535742902337724" lon="-0.5782012781863675"><ele>173.75</ele><time>2026-05-04T10:30:38.001Z</time></trkpt><trkpt lat="41.53568098824007" lon="-0.5780663124811757"><ele>174.0</ele><time>2026-05-04T10:30:39.001Z</time></trkpt><trkpt lat="41.5356169982902" lon="-0.5779321106061686"><ele>174.0</ele><time>2026-05-04T10:30:40.001Z</time></trkpt><trkpt lat="41.535556432003524" lon="-0.5777943038682255"><ele>174.0</ele><time>2026-05-04T10:30:41.001Z</time></trkpt><trkpt lat="41.53550193912034" lon="-0.5776545671313826"><ele>174.0</ele><time>2026-05-04T10:30:42.001Z</time></trkpt><trkpt lat="41.535452584197344" lon="-0.5775103822067732"><ele>174.0</ele><time>2026-05-04T10:30:43.001Z</time></trkpt><trkpt lat="41.53540272691714" lon="-0.5773652765491292"><ele>174.0</ele><time>2026-05-04T10:30:44.001Z</time></trkpt><trkpt lat="41.53534883329617" lon="-0.5772220343366045"><ele>174.0</ele><time>2026-05-04T10:30:45.001Z</time></trkpt><trkpt lat="41.535297292760866" lon="-0.5770788475834073"><ele>174.0</ele><time>2026-05-04T10:30:46.001Z</time></trkpt><trkpt lat="41.535249964073415" lon="-0.5769302051051327"><ele>174.0</ele><time>2026-05-04T10:30:47.001Z</time></trkpt><trkpt lat="41.53520626224403" lon="-0.5767817954075855"><ele>174.0</ele><time>2026-05-04T10:30:48.001Z</time></trkpt><trkpt lat="41.53515390695145" lon="-0.5766383214244772"><ele>174.0</ele><time>2026-05-04T10:30:49.001Z</time></trkpt><trkpt lat="41.53510198230671" lon="-0.5764931476968422"><ele>174.0</ele><time>2026-05-04T10:30:50.001Z</time></trkpt><trkpt lat="41.53505788899251" lon="-0.5763411367639483"><ele>174.0</ele><time>2026-05-04T10:30:51.001Z</time></trkpt><trkpt lat="41.53500282690051" lon="-0.5762020176100656"><ele>174.25</ele><time>2026-05-04T10:30:52.001Z</time></trkpt><trkpt lat="41.534950256378956" lon="-0.5760529951375657"><ele>174.5</ele><time>2026-05-04T10:30:53.001Z</time></trkpt><trkpt lat="41.53490673110753" lon="-0.5759041789130146"><ele>174.75</ele><time>2026-05-04T10:30:54.001Z</time></trkpt><trkpt lat="41.53486057336675" lon="-0.5757550873639139"><ele>175.0</ele><time>2026-05-04T10:30:55.001Z</time></trkpt><trkpt lat="41.534807611990615" lon="-0.5756084355174106"><ele>175.0</ele><time>2026-05-04T10:30:56.001Z</time></trkpt><trkpt lat="41.534752262945574" lon="-0.5754676263832291"><ele>175.0</ele><time>2026-05-04T10:30:57.001Z</time></trkpt><trkpt lat="41.53470467970189" lon="-0.5753245367236881"><ele>175.0</ele><time>2026-05-04T10:30:58.001Z</time></trkpt><trkpt lat="41.53465563343766" lon="-0.5751769562219909"><ele>175.0</ele><time>2026-05-04T10:30:59.001Z</time></trkpt><trkpt lat="41.53460523023929" lon="-0.5750313293757219"><ele>175.0</ele><time>2026-05-04T10:31:00.001Z</time></trkpt><trkpt lat="41.53455170577955" lon="-0.5748966976397302"><ele>175.0</ele><time>2026-05-04T10:31:01.001Z</time></trkpt><trkpt lat="41.53449941691433" lon="-0.5747521257379227"><ele>175.0</ele><time>2026-05-04T10:31:02.001Z</time></trkpt><trkpt lat="41.53445404219942" lon="-0.5746040347342029"><ele>175.0</ele><time>2026-05-04T10:31:03.001Z</time></trkpt><trkpt lat="41.53440545320938" lon="-0.5744625787483237"><ele>175.25</ele><time>2026-05-04T10:31:04.001Z</time></trkpt><trkpt lat="41.53435556714965" lon="-0.5743209846351616"><ele>175.5</ele><time>2026-05-04T10:31:05.001Z</time></trkpt><trkpt lat="41.53430017187726" lon="-0.574182250212906"><ele>175.75</ele><time>2026-05-04T10:31:06.001Z</time></trkpt><trkpt lat="41.53425154775985" lon="-0.5740388814853276"><ele>176.0</ele><time>2026-05-04T10:31:07.001Z</time></trkpt><trkpt lat="41.53419740862018" lon="-0.5738958382881616"><ele>176.0</ele><time>2026-05-04T10:31:08Z</time></trkpt><trkpt lat="41.53414790024753" lon="-0.5737551115173648"><ele>176.0</ele><time>2026-05-04T10:31:09Z</time></trkpt><trkpt lat="41.53409983210355" lon="-0.5736092285621313"><ele>176.0</ele><time>2026-05-04T10:31:10Z</time></trkpt><trkpt lat="41.534048016498396" lon="-0.5734669014340082"><ele>176.0</ele><time>2026-05-04T10:31:11Z</time></trkpt><trkpt lat="41.5339989700694" lon="-0.5733220681708328"><ele>176.0</ele><time>2026-05-04T10:31:12Z</time></trkpt><trkpt lat="41.533946749727214" lon="-0.5731806134547274"><ele>176.0</ele><time>2026-05-04T10:31:13Z</time></trkpt><trkpt lat="41.53389922502783" lon="-0.5730368191330929"><ele>176.0</ele><time>2026-05-04T10:31:14Z</time></trkpt><trkpt lat="41.533851516929346" lon="-0.5728892417259057"><ele>176.0</ele><time>2026-05-04T10:31:15Z</time></trkpt><trkpt lat="41.5338030477083" lon="-0.5727448668887459"><ele>176.0</ele><time>2026-05-04T10:31:16Z</time></trkpt><trkpt lat="41.533751061132506" lon="-0.5726021609541068"><ele>176.0</ele><time>2026-05-04T10:31:17Z</time></trkpt><trkpt lat="41.53370156107737" lon="-0.5724597324738542"><ele>176.0</ele><time>2026-05-04T10:31:18Z</time></trkpt><trkpt lat="41.533653162900706" lon="-0.5723158837554805"><ele>176.0</ele><time>2026-05-04T10:31:19Z</time></trkpt><trkpt lat="41.53360229495943" lon="-0.5721711453529426"><ele>176.0</ele><time>2026-05-04T10:31:20Z</time></trkpt><trkpt lat="41.5335527267692" lon="-0.572030556068454"><ele>176.0</ele><time>2026-05-04T10:31:21Z</time></trkpt><trkpt lat="41.53350346417742" lon="-0.5718839458016228"><ele>176.0</ele><time>2026-05-04T10:31:22Z</time></trkpt><trkpt lat="41.53345821322848" lon="-0.5717344654284203"><ele>176.0</ele><time>2026-05-04T10:31:23Z</time></trkpt><trkpt lat="41.53340649455723" lon="-0.5715903097718052"><ele>176.25</ele><time>2026-05-04T10:31:24Z</time></trkpt><trkpt lat="41.53335408883951" lon="-0.5714481745379093"><ele>176.5</ele><time>2026-05-04T10:31:25Z</time></trkpt><trkpt lat="41.53330612256253" lon="-0.5713058286176692"><ele>176.75</ele><time>2026-05-04T10:31:26Z</time></trkpt><trkpt lat="41.5332533782106" lon="-0.5711553301922949"><ele>177.0</ele><time>2026-05-04T10:31:27Z</time></trkpt><trkpt lat="41.53320453022" lon="-0.5710118943992728"><ele>177.0</ele><time>2026-05-04T10:31:28Z</time></trkpt><trkpt lat="41.53315657017963" lon="-0.5708652128013108"><ele>177.0</ele><time>2026-05-04T10:31:29Z</time></trkpt><trkpt lat="41.53310655082913" lon="-0.5707212013138596"><ele>177.0</ele><time>2026-05-04T10:31:30Z</time></trkpt><trkpt lat="41.533054450430306" lon="-0.5705737518016629"><ele>177.0</ele><time>2026-05-04T10:31:31Z</time></trkpt><trkpt lat="41.53300325672169" lon="-0.5704274198516843"><ele>177.0</ele><time>2026-05-04T10:31:32Z</time></trkpt><trkpt lat="41.53295297548546" lon="-0.570279851072822"><ele>177.0</ele><time>2026-05-04T10:31:33Z</time></trkpt><trkpt lat="41.53289922406924" lon="-0.5701361175013709"><ele>177.0</ele><time>2026-05-04T10:31:34Z</time></trkpt><trkpt lat="41.53284580815718" lon="-0.5699909895035007"><ele>177.0</ele><time>2026-05-04T10:31:35Z</time></trkpt><trkpt lat="41.532797773200855" lon="-0.5698390349997817"><ele>177.0</ele><time>2026-05-04T10:31:36Z</time></trkpt><trkpt lat="41.53275011930574" lon="-0.5696939436457444"><ele>177.0</ele><time>2026-05-04T10:31:37Z</time></trkpt><trkpt lat="41.532698194247985" lon="-0.5695523236572786"><ele>177.0</ele><time>2026-05-04T10:31:38Z</time></trkpt><trkpt lat="41.53264891956863" lon="-0.5694078599095314"><ele>177.0</ele><time>2026-05-04T10:31:39Z</time></trkpt><trkpt lat="41.53259819291107" lon="-0.5692630102801511"><ele>177.0</ele><time>2026-05-04T10:31:40Z</time></trkpt><trkpt lat="41.53254907113942" lon="-0.5691171541039598"><ele>177.0</ele><time>2026-05-04T10:31:41Z</time></trkpt><trkpt lat="41.53249886981851" lon="-0.568974954785948"><ele>177.0</ele><time>2026-05-04T10:31:42Z</time></trkpt><trkpt lat="41.532452209381134" lon="-0.5688303085014071"><ele>177.0</ele><time>2026-05-04T10:31:43Z</time></trkpt><trkpt lat="41.532402630710735" lon="-0.5686850147158794"><ele>177.25</ele><time>2026-05-04T10:31:44Z</time></trkpt><trkpt lat="41.53235446124019" lon="-0.5685430047248691"><ele>177.5</ele><time>2026-05-04T10:31:45Z</time></trkpt><trkpt lat="41.532305128299924" lon="-0.5684007441687602"><ele>177.75</ele><time>2026-05-04T10:31:46Z</time></trkpt><trkpt lat="41.53225035927321" lon="-0.5682586304813906"><ele>178.0</ele><time>2026-05-04T10:31:47Z</time></trkpt><trkpt lat="41.53220545224704" lon="-0.5681168807163951"><ele>178.0</ele><time>2026-05-04T10:31:48Z</time></trkpt><trkpt lat="41.53215562084126" lon="-0.5679768242035368"><ele>178.0</ele><time>2026-05-04T10:31:49Z</time></trkpt><trkpt lat="41.53211009685554" lon="-0.5678344807512734"><ele>178.0</ele><time>2026-05-04T10:31:50Z</time></trkpt><trkpt lat="41.532061635195824" lon="-0.5676950502893346"><ele>178.0</ele><time>2026-05-04T10:31:51Z</time></trkpt><trkpt lat="41.53201460206469" lon="-0.5675543320235003"><ele>177.75</ele><time>2026-05-04T10:31:52Z</time></trkpt><trkpt lat="41.53196484936488" lon="-0.5674133561879179"><ele>177.5</ele><time>2026-05-04T10:31:53Z</time></trkpt><trkpt lat="41.53191800823101" lon="-0.5672770190851153"><ele>177.25</ele><time>2026-05-04T10:31:54Z</time></trkpt><trkpt lat="41.531873898755165" lon="-0.5671344757118607"><ele>177.0</ele><time>2026-05-04T10:31:55Z</time></trkpt><trkpt lat="41.53182689767277" lon="-0.5669934672976222"><ele>177.5</ele><time>2026-05-04T10:31:56Z</time></trkpt><trkpt lat="41.53177910251391" lon="-0.5668533166646766"><ele>178.0</ele><time>2026-05-04T10:31:57Z</time></trkpt><trkpt lat="41.53173233317352" lon="-0.5667170979448264"><ele>178.5</ele><time>2026-05-04T10:31:58Z</time></trkpt><trkpt lat="41.53168633032165" lon="-0.5665786021876078"><ele>179.0</ele><time>2026-05-04T10:31:59Z</time></trkpt><trkpt lat="41.53163752525264" lon="-0.5664418589892012"><ele>179.0</ele><time>2026-05-04T10:32:00Z</time></trkpt><trkpt lat="41.53159221870969" lon="-0.5663007993733169"><ele>179.0</ele><time>2026-05-04T10:32:01Z</time></trkpt><trkpt lat="41.53154712314339" lon="-0.5661604109603358"><ele>179.0</ele><time>2026-05-04T10:32:02Z</time></trkpt><trkpt lat="41.531498277544365" lon="-0.56602664852422"><ele>179.0</ele><time>2026-05-04T10:32:03Z</time></trkpt><trkpt lat="41.53144394405646" lon="-0.565892990279426"><ele>179.0</ele><time>2026-05-04T10:32:04Z</time></trkpt><trkpt lat="41.53139951776287" lon="-0.5657571373472244"><ele>179.0</ele><time>2026-05-04T10:32:05Z</time></trkpt><trkpt lat="41.53131546327021" lon="-0.5654767343370225"><ele>179.0</ele><time>2026-05-04T10:32:07.001Z</time></trkpt><trkpt lat="41.5312716810018" lon="-0.5653418125426628"><ele>179.0</ele><time>2026-05-04T10:32:08.001Z</time></trkpt><trkpt lat="41.531230219292375" lon="-0.5652026018433953"><ele>178.75</ele><time>2026-05-04T10:32:09.001Z</time></trkpt><trkpt lat="41.531184873666724" lon="-0.5650618115351365"><ele>178.5</ele><time>2026-05-04T10:32:10.001Z</time></trkpt><trkpt lat="41.531139367994676" lon="-0.5649210478644825"><ele>178.25</ele><time>2026-05-04T10:32:11.001Z</time></trkpt><trkpt lat="41.53109232581402" lon="-0.5647819055740709"><ele>178.0</ele><time>2026-05-04T10:32:12.001Z</time></trkpt><trkpt lat="41.53104914877704" lon="-0.5646377113049023"><ele>178.0</ele><time>2026-05-04T10:32:13.001Z</time></trkpt><trkpt lat="41.53101180932391" lon="-0.5644934066359482"><ele>178.0</ele><time>2026-05-04T10:32:14.001Z</time></trkpt><trkpt lat="41.53097444291561" lon="-0.5643464736158613"><ele>178.0</ele><time>2026-05-04T10:32:15.001Z</time></trkpt><trkpt lat="41.53094027483143" lon="-0.5641998132268449"><ele>178.0</ele><time>2026-05-04T10:32:16.001Z</time></trkpt><trkpt lat="41.53089905139551" lon="-0.5640570804526002"><ele>178.0</ele><time>2026-05-04T10:32:17.001Z</time></trkpt><trkpt lat="41.530850404788495" lon="-0.5639188248989928"><ele>178.0</ele><time>2026-05-04T10:32:18.001Z</time></trkpt><trkpt lat="41.53080968787778" lon="-0.5637753895207828"><ele>178.0</ele><time>2026-05-04T10:32:19.001Z</time></trkpt><trkpt lat="41.53077230012415" lon="-0.5636320679062103"><ele>178.0</ele><time>2026-05-04T10:32:20.001Z</time></trkpt><trkpt lat="41.530738964079134" lon="-0.5634904970990787"><ele>177.75</ele><time>2026-05-04T10:32:21.001Z</time></trkpt><trkpt lat="41.530702563667816" lon="-0.5633417932244965"><ele>177.5</ele><time>2026-05-04T10:32:22.001Z</time></trkpt><trkpt lat="41.530664496101814" lon="-0.5631891504532547"><ele>177.25</ele><time>2026-05-04T10:32:23.001Z</time></trkpt><trkpt lat="41.530626035504454" lon="-0.5630436381389687"><ele>177.0</ele><time>2026-05-04T10:32:24.001Z</time></trkpt><trkpt lat="41.53058809399004" lon="-0.5628958304424765"><ele>177.0</ele><time>2026-05-04T10:32:25.001Z</time></trkpt><trkpt lat="41.53054471040941" lon="-0.562746340750801"><ele>177.0</ele><time>2026-05-04T10:32:26.001Z</time></trkpt><trkpt lat="41.53049774547992" lon="-0.562600492157334"><ele>177.0</ele><time>2026-05-04T10:32:27.001Z</time></trkpt><trkpt lat="41.530456637541526" lon="-0.5624488203698663"><ele>177.0</ele><time>2026-05-04T10:32:28.001Z</time></trkpt><trkpt lat="41.530414939225004" lon="-0.5622979748874255"><ele>177.0</ele><time>2026-05-04T10:32:29.001Z</time></trkpt><trkpt lat="41.53036980407343" lon="-0.5621453431564231"><ele>177.0</ele><time>2026-05-04T10:32:30.001Z</time></trkpt><trkpt lat="41.53032564656666" lon="-0.5619963680284982"><ele>177.0</ele><time>2026-05-04T10:32:31.001Z</time></trkpt><trkpt lat="41.53028576852127" lon="-0.5618419245280407"><ele>177.0</ele><time>2026-05-04T10:32:32.001Z</time></trkpt><trkpt lat="41.53024255510976" lon="-0.5616930850865388"><ele>177.0</ele><time>2026-05-04T10:32:33.001Z</time></trkpt><trkpt lat="41.53020340979429" lon="-0.5615397588067765"><ele>177.0</ele><time>2026-05-04T10:32:34.001Z</time></trkpt><trkpt lat="41.53016220125965" lon="-0.5613895039899124"><ele>177.0</ele><time>2026-05-04T10:32:35.001Z</time></trkpt><trkpt lat="41.53012077218094" lon="-0.5612388812587792"><ele>177.0</ele><time>2026-05-04T10:32:36.001Z</time></trkpt><trkpt lat="41.53007803376996" lon="-0.5610870937774934"><ele>177.0</ele><time>2026-05-04T10:32:37.001Z</time></trkpt><trkpt lat="41.53004214830442" lon="-0.5609345681447592"><ele>177.0</ele><time>2026-05-04T10:32:38.001Z</time></trkpt><trkpt lat="41.529996750721956" lon="-0.5607813926236195"><ele>177.0</ele><time>2026-05-04T10:32:39.001Z</time></trkpt><trkpt lat="41.52995460082927" lon="-0.5606286235984089"><ele>177.0</ele><time>2026-05-04T10:32:40.001Z</time></trkpt><trkpt lat="41.529911812347045" lon="-0.5604773011167759"><ele>177.0</ele><time>2026-05-04T10:32:41.001Z</time></trkpt><trkpt lat="41.52986515551065" lon="-0.5603264295210262"><ele>177.0</ele><time>2026-05-04T10:32:42.001Z</time></trkpt><trkpt lat="41.52981872999076" lon="-0.5601774939823653"><ele>177.0</ele><time>2026-05-04T10:32:43.001Z</time></trkpt><trkpt lat="41.529776546149314" lon="-0.5600251064938271"><ele>177.0</ele><time>2026-05-04T10:32:44.001Z</time></trkpt><trkpt lat="41.52973479308597" lon="-0.5598724167673376"><ele>177.0</ele><time>2026-05-04T10:32:45.001Z</time></trkpt><trkpt lat="41.529694198030136" lon="-0.5597205336822466"><ele>177.0</ele><time>2026-05-04T10:32:46.001Z</time></trkpt><trkpt lat="41.529653441120104" lon="-0.5595696804212783"><ele>177.0</ele><time>2026-05-04T10:32:47.001Z</time></trkpt><trkpt lat="41.52961418557073" lon="-0.5594160419473966"><ele>177.0</ele><time>2026-05-04T10:32:48.001Z</time></trkpt><trkpt lat="41.52957743674467" lon="-0.5592587050614616"><ele>176.5</ele><time>2026-05-04T10:32:49.001Z</time></trkpt><trkpt lat="41.52953696032336" lon="-0.5591039036311258"><ele>176.0</ele><time>2026-05-04T10:32:50.001Z</time></trkpt><trkpt lat="41.52949574452654" lon="-0.5589529061593838"><ele>175.5</ele><time>2026-05-04T10:32:51.001Z</time></trkpt><trkpt lat="41.52945465380477" lon="-0.5588007840450251"><ele>175.0</ele><time>2026-05-04T10:32:52.001Z</time></trkpt><trkpt lat="41.529414169850384" lon="-0.5586426070970969"><ele>175.0</ele><time>2026-05-04T10:32:53.001Z</time></trkpt><trkpt lat="41.529373030198926" lon="-0.5584867775753095"><ele>175.0</ele><time>2026-05-04T10:32:54.001Z</time></trkpt><trkpt lat="41.52933396520021" lon="-0.5583359717320382"><ele>175.0</ele><time>2026-05-04T10:32:55.001Z</time></trkpt><trkpt lat="41.52929600199181" lon="-0.5581805297810016"><ele>175.0</ele><time>2026-05-04T10:32:56.001Z</time></trkpt><trkpt lat="41.52926033711997" lon="-0.5580255665887136"><ele>175.0</ele><time>2026-05-04T10:32:57.001Z</time></trkpt><trkpt lat="41.52922354139495" lon="-0.5578712022244745"><ele>175.0</ele><time>2026-05-04T10:32:58.001Z</time></trkpt><trkpt lat="41.52918550701572" lon="-0.5577184930992347"><ele>175.0</ele><time>2026-05-04T10:32:59.001Z</time></trkpt><trkpt lat="41.529147070619906" lon="-0.557567600968606"><ele>175.0</ele><time>2026-05-04T10:33:00.001Z</time></trkpt><trkpt lat="41.529110886550775" lon="-0.5574160971249762"><ele>175.0</ele><time>2026-05-04T10:33:01.001Z</time></trkpt><trkpt lat="41.529072654474" lon="-0.5572651992100628"><ele>175.0</ele><time>2026-05-04T10:33:02.001Z</time></trkpt><trkpt lat="41.52903550600099" lon="-0.5571095696255619"><ele>175.0</ele><time>2026-05-04T10:33:03.001Z</time></trkpt><trkpt lat="41.52899857589089" lon="-0.5569605175909318"><ele>175.0</ele><time>2026-05-04T10:33:04.001Z</time></trkpt><trkpt lat="41.528964916357594" lon="-0.5568064010385846"><ele>175.0</ele><time>2026-05-04T10:33:05.001Z</time></trkpt><trkpt lat="41.52892912277114" lon="-0.5566551764707582"><ele>175.0</ele><time>2026-05-04T10:33:06.001Z</time></trkpt><trkpt lat="41.52889233430502" lon="-0.556504010664067"><ele>175.0</ele><time>2026-05-04T10:33:07.001Z</time></trkpt><trkpt lat="41.52885445778616" lon="-0.556350343911463"><ele>175.0</ele><time>2026-05-04T10:33:08.001Z</time></trkpt><trkpt lat="41.52881703851106" lon="-0.556199162663981"><ele>175.25</ele><time>2026-05-04T10:33:09.001Z</time></trkpt><trkpt lat="41.52878283978945" lon="-0.5560442930901683"><ele>175.5</ele><time>2026-05-04T10:33:10.001Z</time></trkpt><trkpt lat="41.52874660307749" lon="-0.5558916777996654"><ele>175.75</ele><time>2026-05-04T10:33:11.001Z</time></trkpt><trkpt lat="41.52870875140275" lon="-0.5557390813399449"><ele>176.0</ele><time>2026-05-04T10:33:12.001Z</time></trkpt><trkpt lat="41.5286695638372" lon="-0.5555885283494815"><ele>175.5</ele><time>2026-05-04T10:33:13.001Z</time></trkpt><trkpt lat="41.52863228675518" lon="-0.5554368323883689"><ele>175.0</ele><time>2026-05-04T10:33:14Z</time></trkpt><trkpt lat="41.52859475940305" lon="-0.555283557241341"><ele>174.5</ele><time>2026-05-04T10:33:15Z</time></trkpt><trkpt lat="41.52855640331573" lon="-0.5551296088983009"><ele>174.0</ele><time>2026-05-04T10:33:16Z</time></trkpt><trkpt lat="41.528521416829165" lon="-0.5549741960031932"><ele>174.0</ele><time>2026-05-04T10:33:17Z</time></trkpt><trkpt lat="41.5284839384279" lon="-0.5548220227090278"><ele>174.0</ele><time>2026-05-04T10:33:18Z</time></trkpt><trkpt lat="41.52844950562971" lon="-0.5546725795470681"><ele>174.0</ele><time>2026-05-04T10:33:19Z</time></trkpt><trkpt lat="41.52841149997987" lon="-0.5545139367737867"><ele>174.0</ele><time>2026-05-04T10:33:20Z</time></trkpt><trkpt lat="41.52837371828368" lon="-0.5543622512563623"><ele>173.75</ele><time>2026-05-04T10:33:21Z</time></trkpt><trkpt lat="41.528338107172964" lon="-0.5542112618314122"><ele>173.5</ele><time>2026-05-04T10:33:22Z</time></trkpt><trkpt lat="41.52830201877007" lon="-0.5540585125049122"><ele>173.25</ele><time>2026-05-04T10:33:23Z</time></trkpt><trkpt lat="41.528266336294706" lon="-0.5539004336199369"><ele>173.0</ele><time>2026-05-04T10:33:24Z</time></trkpt><trkpt lat="41.52822805222626" lon="-0.5537510066089697"><ele>173.0</ele><time>2026-05-04T10:33:25Z</time></trkpt><trkpt lat="41.52819044044412" lon="-0.5535995567278233"><ele>173.0</ele><time>2026-05-04T10:33:26Z</time></trkpt><trkpt lat="41.528153072772206" lon="-0.5534493801147332"><ele>173.0</ele><time>2026-05-04T10:33:27Z</time></trkpt><trkpt lat="41.5281162636875" lon="-0.5532968203692625"><ele>173.0</ele><time>2026-05-04T10:33:28Z</time></trkpt><trkpt lat="41.52807818679501" lon="-0.5531395408590354"><ele>173.0</ele><time>2026-05-04T10:33:29Z</time></trkpt><trkpt lat="41.528038452028284" lon="-0.552992660103953"><ele>173.0</ele><time>2026-05-04T10:33:30Z</time></trkpt><trkpt lat="41.528000855697634" lon="-0.5528405250569663"><ele>173.0</ele><time>2026-05-04T10:33:31Z</time></trkpt><trkpt lat="41.52795848360075" lon="-0.5526843506784642"><ele>173.0</ele><time>2026-05-04T10:33:32Z</time></trkpt><trkpt lat="41.5279287599605" lon="-0.5525277002747322"><ele>173.0</ele><time>2026-05-04T10:33:33Z</time></trkpt><trkpt lat="41.52789233228494" lon="-0.5523743859147319"><ele>173.0</ele><time>2026-05-04T10:33:34Z</time></trkpt><trkpt lat="41.52785216521221" lon="-0.5522264395226946"><ele>173.0</ele><time>2026-05-04T10:33:35Z</time></trkpt><trkpt lat="41.52781629148366" lon="-0.5520717299210065"><ele>173.0</ele><time>2026-05-04T10:33:36Z</time></trkpt><trkpt lat="41.5277788381845" lon="-0.5519188720641716"><ele>173.0</ele><time>2026-05-04T10:33:37Z</time></trkpt><trkpt lat="41.5277433891324" lon="-0.551769941581997"><ele>173.0</ele><time>2026-05-04T10:33:38Z</time></trkpt><trkpt lat="41.52770563449973" lon="-0.5516203525718165"><ele>173.0</ele><time>2026-05-04T10:33:39Z</time></trkpt><trkpt lat="41.5276683522355" lon="-0.5514680443464721"><ele>173.0</ele><time>2026-05-04T10:33:40Z</time></trkpt><trkpt lat="41.52763505467945" lon="-0.5513160725824562"><ele>173.25</ele><time>2026-05-04T10:33:41Z</time></trkpt><trkpt lat="41.527594355734365" lon="-0.5511675414919328"><ele>173.5</ele><time>2026-05-04T10:33:42Z</time></trkpt><trkpt lat="41.527558975811814" lon="-0.5510183400853331"><ele>173.75</ele><time>2026-05-04T10:33:43Z</time></trkpt><trkpt lat="41.52752492010417" lon="-0.5508652874400899"><ele>174.0</ele><time>2026-05-04T10:33:44Z</time></trkpt><trkpt lat="41.52749304326589" lon="-0.5507141930017799"><ele>174.0</ele><time>2026-05-04T10:33:45Z</time></trkpt><trkpt lat="41.52745566129909" lon="-0.550560765957613"><ele>174.0</ele><time>2026-05-04T10:33:46Z</time></trkpt><trkpt lat="41.5274153132008" lon="-0.55040802371554"><ele>174.0</ele><time>2026-05-04T10:33:47Z</time></trkpt><trkpt lat="41.52737789841893" lon="-0.5502571037940373"><ele>174.0</ele><time>2026-05-04T10:33:48Z</time></trkpt><trkpt lat="41.52734083582253" lon="-0.5501007107039425"><ele>173.75</ele><time>2026-05-04T10:33:49Z</time></trkpt><trkpt lat="41.52729993200017" lon="-0.549947701253644"><ele>173.5</ele><time>2026-05-04T10:33:50Z</time></trkpt><trkpt lat="41.52726607928744" lon="-0.5497927202626844"><ele>173.25</ele><time>2026-05-04T10:33:51Z</time></trkpt><trkpt lat="41.527229086698505" lon="-0.549640157794462"><ele>173.0</ele><time>2026-05-04T10:33:52Z</time></trkpt><trkpt lat="41.527196326305116" lon="-0.5494822702563911"><ele>173.0</ele><time>2026-05-04T10:33:53Z</time></trkpt><trkpt lat="41.527161939833405" lon="-0.5493324835326011"><ele>173.0</ele><time>2026-05-04T10:33:54Z</time></trkpt><trkpt lat="41.527120747147066" lon="-0.5491813761270694"><ele>173.0</ele><time>2026-05-04T10:33:55Z</time></trkpt><trkpt lat="41.52708573002471" lon="-0.5490308266751958"><ele>173.0</ele><time>2026-05-04T10:33:56Z</time></trkpt><trkpt lat="41.52704596185248" lon="-0.5488797614279785"><ele>172.0</ele><time>2026-05-04T10:33:57Z</time></trkpt><trkpt lat="41.52700960152778" lon="-0.5487261011923765"><ele>171.0</ele><time>2026-05-04T10:33:58Z</time></trkpt><trkpt lat="41.526973428638506" lon="-0.5485734732076429"><ele>170.0</ele><time>2026-05-04T10:33:59Z</time></trkpt><trkpt lat="41.5269353890328" lon="-0.5484204089166691"><ele>169.0</ele><time>2026-05-04T10:34:00Z</time></trkpt><trkpt lat="41.52689690446664" lon="-0.5482703170930064"><ele>169.0</ele><time>2026-05-04T10:34:01Z</time></trkpt><trkpt lat="41.52685938448527" lon="-0.5481198639655204"><ele>169.0</ele><time>2026-05-04T10:34:02Z</time></trkpt><trkpt lat="41.52682303692177" lon="-0.5479707693639241"><ele>169.0</ele><time>2026-05-04T10:34:03Z</time></trkpt><trkpt lat="41.52675096519032" lon="-0.5476655518644444"><ele>169.5</ele><time>2026-05-04T10:34:05Z</time></trkpt><trkpt lat="41.5267124426809" lon="-0.5475162044641725"><ele>170.0</ele><time>2026-05-04T10:34:06Z</time></trkpt><trkpt lat="41.52667570451732" lon="-0.547366126871243"><ele>170.5</ele><time>2026-05-04T10:34:07Z</time></trkpt><trkpt lat="41.52663936865164" lon="-0.5472134760667201"><ele>171.0</ele><time>2026-05-04T10:34:08Z</time></trkpt><trkpt lat="41.52660232051272" lon="-0.5470650284543249"><ele>171.25</ele><time>2026-05-04T10:34:09Z</time></trkpt><trkpt lat="41.526566654784666" lon="-0.5469120117872421"><ele>171.5</ele><time>2026-05-04T10:34:10.001Z</time></trkpt><trkpt lat="41.526532231331295" lon="-0.5467628815336787"><ele>171.75</ele><time>2026-05-04T10:34:11.001Z</time></trkpt><trkpt lat="41.526495638532936" lon="-0.5466119070659343"><ele>172.0</ele><time>2026-05-04T10:34:12.001Z</time></trkpt><trkpt lat="41.526458452246885" lon="-0.5464619382153331"><ele>172.0</ele><time>2026-05-04T10:34:13.001Z</time></trkpt><trkpt lat="41.52642187062603" lon="-0.5463130101837483"><ele>172.0</ele><time>2026-05-04T10:34:14.001Z</time></trkpt><trkpt lat="41.52638308566699" lon="-0.5461613887547254"><ele>172.0</ele><time>2026-05-04T10:34:15.001Z</time></trkpt><trkpt lat="41.52634492659537" lon="-0.5460109778065118"><ele>172.0</ele><time>2026-05-04T10:34:16.001Z</time></trkpt><trkpt lat="41.5263074372516" lon="-0.5458629144869165"><ele>172.25</ele><time>2026-05-04T10:34:17.001Z</time></trkpt><trkpt lat="41.52627284646244" lon="-0.54571554384508"><ele>172.5</ele><time>2026-05-04T10:34:18.001Z</time></trkpt><trkpt lat="41.526240012702225" lon="-0.5455636712122635"><ele>172.75</ele><time>2026-05-04T10:34:19.001Z</time></trkpt><trkpt lat="41.5262055961402" lon="-0.5454127771379612"><ele>173.0</ele><time>2026-05-04T10:34:20.001Z</time></trkpt><trkpt lat="41.52616987461408" lon="-0.545261207982827"><ele>173.0</ele><time>2026-05-04T10:34:21.001Z</time></trkpt><trkpt lat="41.52613298276786" lon="-0.5451158106906193"><ele>173.0</ele><time>2026-05-04T10:34:22.001Z</time></trkpt><trkpt lat="41.52609654249232" lon="-0.5449719960269392"><ele>173.0</ele><time>2026-05-04T10:34:23.001Z</time></trkpt><trkpt lat="41.52606414605573" lon="-0.5448216009845679"><ele>173.0</ele><time>2026-05-04T10:34:24.001Z</time></trkpt><trkpt lat="41.52602498822635" lon="-0.5446776288091604"><ele>173.5</ele><time>2026-05-04T10:34:25.001Z</time></trkpt><trkpt lat="41.525988592790455" lon="-0.5445313110292941"><ele>174.0</ele><time>2026-05-04T10:34:26.001Z</time></trkpt><trkpt lat="41.52595300611142" lon="-0.5443804308306762"><ele>174.5</ele><time>2026-05-04T10:34:27.001Z</time></trkpt><trkpt lat="41.52591741284387" lon="-0.5442348887354551"><ele>175.0</ele><time>2026-05-04T10:34:28.001Z</time></trkpt><trkpt lat="41.5258788256883" lon="-0.544086167505976"><ele>175.0</ele><time>2026-05-04T10:34:29.001Z</time></trkpt><trkpt lat="41.52584231216166" lon="-0.5439399413814784"><ele>175.0</ele><time>2026-05-04T10:34:30.001Z</time></trkpt><trkpt lat="41.52580507792437" lon="-0.5437935097762757"><ele>175.0</ele><time>2026-05-04T10:34:31.001Z</time></trkpt><trkpt lat="41.525770548142454" lon="-0.5436462464422724"><ele>175.0</ele><time>2026-05-04T10:34:32.001Z</time></trkpt><trkpt lat="41.52573593189705" lon="-0.5434952553717047"><ele>174.75</ele><time>2026-05-04T10:34:33.001Z</time></trkpt><trkpt lat="41.52569756972779" lon="-0.5433483145508012"><ele>174.5</ele><time>2026-05-04T10:34:34.001Z</time></trkpt><trkpt lat="41.52565870407907" lon="-0.543202470496412"><ele>174.25</ele><time>2026-05-04T10:34:35.001Z</time></trkpt><trkpt lat="41.52562101398276" lon="-0.5430554974489055"><ele>174.0</ele><time>2026-05-04T10:34:36.001Z</time></trkpt><trkpt lat="41.52558302003081" lon="-0.542910096731647"><ele>174.0</ele><time>2026-05-04T10:34:37.001Z</time></trkpt><trkpt lat="41.52554738598308" lon="-0.5427576786627126"><ele>174.0</ele><time>2026-05-04T10:34:38.001Z</time></trkpt><trkpt lat="41.52551237579065" lon="-0.5426077298394076"><ele>174.0</ele><time>2026-05-04T10:34:39.001Z</time></trkpt><trkpt lat="41.52547611344551" lon="-0.5424579616025738"><ele>174.0</ele><time>2026-05-04T10:34:40.001Z</time></trkpt><trkpt lat="41.5254389549437" lon="-0.542310099502071"><ele>174.0</ele><time>2026-05-04T10:34:41.001Z</time></trkpt><trkpt lat="41.525406963618714" lon="-0.5421661060460332"><ele>174.0</ele><time>2026-05-04T10:34:42.001Z</time></trkpt><trkpt lat="41.52537143177654" lon="-0.5420132722058708"><ele>174.0</ele><time>2026-05-04T10:34:43.001Z</time></trkpt><trkpt lat="41.525335453556444" lon="-0.5418637949732438"><ele>174.0</ele><time>2026-05-04T10:34:44.001Z</time></trkpt><trkpt lat="41.5253004774549" lon="-0.5417172426953083"><ele>173.5</ele><time>2026-05-04T10:34:45.001Z</time></trkpt><trkpt lat="41.52526447245178" lon="-0.5415679035719871"><ele>173.0</ele><time>2026-05-04T10:34:46.001Z</time></trkpt><trkpt lat="41.52522990315242" lon="-0.5414194570865454"><ele>172.5</ele><time>2026-05-04T10:34:47.001Z</time></trkpt><trkpt lat="41.52519515987301" lon="-0.54127086328479"><ele>172.0</ele><time>2026-05-04T10:34:48.001Z</time></trkpt><trkpt lat="41.52515971087682" lon="-0.5411241472113392"><ele>171.75</ele><time>2026-05-04T10:34:49.001Z</time></trkpt><trkpt lat="41.52512217879635" lon="-0.5409779524943451"><ele>171.5</ele><time>2026-05-04T10:34:50.001Z</time></trkpt><trkpt lat="41.52508621564766" lon="-0.5408308298507585"><ele>171.25</ele><time>2026-05-04T10:34:51.001Z</time></trkpt><trkpt lat="41.525052230166004" lon="-0.5406866181930184"><ele>171.0</ele><time>2026-05-04T10:34:52.001Z</time></trkpt><trkpt lat="41.52501620137576" lon="-0.5405373029858205"><ele>171.0</ele><time>2026-05-04T10:34:53.001Z</time></trkpt><trkpt lat="41.52497911747896" lon="-0.5403871433901077"><ele>171.0</ele><time>2026-05-04T10:34:54.001Z</time></trkpt><trkpt lat="41.52494594223295" lon="-0.5402393233272532"><ele>171.0</ele><time>2026-05-04T10:34:55.001Z</time></trkpt><trkpt lat="41.52491278160093" lon="-0.5400924982922741"><ele>171.0</ele><time>2026-05-04T10:34:56.001Z</time></trkpt><trkpt lat="41.524875092679856" lon="-0.5399431603918692"><ele>171.0</ele><time>2026-05-04T10:34:57.001Z</time></trkpt><trkpt lat="41.524836492343596" lon="-0.539794171409457"><ele>171.0</ele><time>2026-05-04T10:34:58.001Z</time></trkpt><trkpt lat="41.5248001076572" lon="-0.5396457450412169"><ele>171.0</ele><time>2026-05-04T10:34:59.001Z</time></trkpt><trkpt lat="41.52476301065904" lon="-0.5394979803334575"><ele>171.0</ele><time>2026-05-04T10:35:00.001Z</time></trkpt><trkpt lat="41.524725670731456" lon="-0.5393530556324119"><ele>171.25</ele><time>2026-05-04T10:35:01.001Z</time></trkpt><trkpt lat="41.52468906602589" lon="-0.5392056492539785"><ele>171.5</ele><time>2026-05-04T10:35:02.001Z</time></trkpt><trkpt lat="41.52465329827789" lon="-0.5390566499168845"><ele>171.75</ele><time>2026-05-04T10:35:03.001Z</time></trkpt><trkpt lat="41.52461871329234" lon="-0.5389084255286366"><ele>172.0</ele><time>2026-05-04T10:35:04.001Z</time></trkpt><trkpt lat="41.52458160125907" lon="-0.5387644988764485"><ele>171.75</ele><time>2026-05-04T10:35:05.001Z</time></trkpt><trkpt lat="41.52454801489759" lon="-0.5386148680719339"><ele>171.5</ele><time>2026-05-04T10:35:06.001Z</time></trkpt><trkpt lat="41.52451482934309" lon="-0.5384654370666137"><ele>171.25</ele><time>2026-05-04T10:35:07.001Z</time></trkpt><trkpt lat="41.52447999981031" lon="-0.5383205790822627"><ele>171.0</ele><time>2026-05-04T10:35:08.001Z</time></trkpt><trkpt lat="41.52444265819775" lon="-0.5381752474582582"><ele>171.0</ele><time>2026-05-04T10:35:09.001Z</time></trkpt><trkpt lat="41.52440454213598" lon="-0.5380266832606939"><ele>171.0</ele><time>2026-05-04T10:35:10.001Z</time></trkpt><trkpt lat="41.52436976792175" lon="-0.5378833154465515"><ele>171.0</ele><time>2026-05-04T10:35:11.001Z</time></trkpt><trkpt lat="41.524333137907085" lon="-0.5377383474243989"><ele>171.0</ele><time>2026-05-04T10:35:12.001Z</time></trkpt><trkpt lat="41.52430046173012" lon="-0.5375918791657891"><ele>171.0</ele><time>2026-05-04T10:35:13.001Z</time></trkpt><trkpt lat="41.52425985648581" lon="-0.5374404987012134"><ele>171.0</ele><time>2026-05-04T10:35:14.001Z</time></trkpt><trkpt lat="41.52422536241594" lon="-0.5372928776618131"><ele>171.0</ele><time>2026-05-04T10:35:15.001Z</time></trkpt><trkpt lat="41.52418777459428" lon="-0.5371405295007675"><ele>171.0</ele><time>2026-05-04T10:35:16.001Z</time></trkpt><trkpt lat="41.52415296836872" lon="-0.5369872001988759"><ele>171.0</ele><time>2026-05-04T10:35:17.001Z</time></trkpt><trkpt lat="41.524115648848415" lon="-0.5368386881727331"><ele>171.0</ele><time>2026-05-04T10:35:18.001Z</time></trkpt><trkpt lat="41.52408173119708" lon="-0.5366890663888012"><ele>171.0</ele><time>2026-05-04T10:35:19.001Z</time></trkpt><trkpt lat="41.524045362687495" lon="-0.5365425372496953"><ele>171.0</ele><time>2026-05-04T10:35:20Z</time></trkpt><trkpt lat="41.52400810648001" lon="-0.5363942898218337"><ele>171.0</ele><time>2026-05-04T10:35:21Z</time></trkpt><trkpt lat="41.52396858092164" lon="-0.5362434709719842"><ele>171.0</ele><time>2026-05-04T10:35:22Z</time></trkpt><trkpt lat="41.52393101302762" lon="-0.5360961691930296"><ele>171.0</ele><time>2026-05-04T10:35:23Z</time></trkpt><trkpt lat="41.52389701566014" lon="-0.5359463214473912"><ele>171.0</ele><time>2026-05-04T10:35:24Z</time></trkpt><trkpt lat="41.523860506444244" lon="-0.5357961186929242"><ele>171.0</ele><time>2026-05-04T10:35:25Z</time></trkpt><trkpt lat="41.523825782910215" lon="-0.5356462933622322"><ele>171.0</ele><time>2026-05-04T10:35:26Z</time></trkpt><trkpt lat="41.5237856741574" lon="-0.5355019112351227"><ele>171.0</ele><time>2026-05-04T10:35:27Z</time></trkpt><trkpt lat="41.52374229588156" lon="-0.5353568508747396"><ele>171.0</ele><time>2026-05-04T10:35:28Z</time></trkpt><trkpt lat="41.52369955160048" lon="-0.5352155533800685"><ele>171.25</ele><time>2026-05-04T10:35:29Z</time></trkpt><trkpt lat="41.523652882386976" lon="-0.5350717124053943"><ele>171.5</ele><time>2026-05-04T10:35:30Z</time></trkpt><trkpt lat="41.52360250955174" lon="-0.5349328593334712"><ele>171.75</ele><time>2026-05-04T10:35:31Z</time></trkpt><trkpt lat="41.523548892371394" lon="-0.5347931647062055"><ele>172.0</ele><time>2026-05-04T10:35:32Z</time></trkpt><trkpt lat="41.523492136367835" lon="-0.5346569173686907"><ele>172.0</ele><time>2026-05-04T10:35:33Z</time></trkpt><trkpt lat="41.52343588002672" lon="-0.5345247018063479"><ele>172.0</ele><time>2026-05-04T10:35:34Z</time></trkpt><trkpt lat="41.523380494614926" lon="-0.5343924599005584"><ele>172.0</ele><time>2026-05-04T10:35:35Z</time></trkpt><trkpt lat="41.52332520075764" lon="-0.5342535659432798"><ele>172.0</ele><time>2026-05-04T10:35:36Z</time></trkpt><trkpt lat="41.52327044381701" lon="-0.5341192894986161"><ele>172.0</ele><time>2026-05-04T10:35:37Z</time></trkpt><trkpt lat="41.52321724768233" lon="-0.5339817650926979"><ele>172.0</ele><time>2026-05-04T10:35:38Z</time></trkpt><trkpt lat="41.523162620080804" lon="-0.5338422825007115"><ele>172.0</ele><time>2026-05-04T10:35:39Z</time></trkpt><trkpt lat="41.52310532016387" lon="-0.533708411732104"><ele>172.0</ele><time>2026-05-04T10:35:40Z</time></trkpt><trkpt lat="41.52305022699704" lon="-0.533572394343926"><ele>172.25</ele><time>2026-05-04T10:35:41Z</time></trkpt><trkpt lat="41.522995306660945" lon="-0.5334352053234936"><ele>172.5</ele><time>2026-05-04T10:35:42Z</time></trkpt><trkpt lat="41.52293928862314" lon="-0.5332996708077958"><ele>172.75</ele><time>2026-05-04T10:35:43Z</time></trkpt><trkpt lat="41.522881531571926" lon="-0.5331672306934377"><ele>173.0</ele><time>2026-05-04T10:35:44Z</time></trkpt><trkpt lat="41.52282454178147" lon="-0.5330333968434029"><ele>172.75</ele><time>2026-05-04T10:35:45Z</time></trkpt><trkpt lat="41.52277144368319" lon="-0.5329030082317479"><ele>172.5</ele><time>2026-05-04T10:35:46Z</time></trkpt><trkpt lat="41.52271258409165" lon="-0.5327633731189525"><ele>172.25</ele><time>2026-05-04T10:35:47Z</time></trkpt><trkpt lat="41.52266047031516" lon="-0.5326374349493974"><ele>172.0</ele><time>2026-05-04T10:35:48Z</time></trkpt><trkpt lat="41.52260567036849" lon="-0.5325054705586056"><ele>172.0</ele><time>2026-05-04T10:35:49Z</time></trkpt><trkpt lat="41.522551334407886" lon="-0.5323717819947642"><ele>172.0</ele><time>2026-05-04T10:35:50Z</time></trkpt><trkpt lat="41.52249882489248" lon="-0.5322443328867602"><ele>172.0</ele><time>2026-05-04T10:35:51Z</time></trkpt><trkpt lat="41.522444991495675" lon="-0.5321122529113531"><ele>172.0</ele><time>2026-05-04T10:35:52Z</time></trkpt><trkpt lat="41.522393064997416" lon="-0.531981836603873"><ele>172.0</ele><time>2026-05-04T10:35:53Z</time></trkpt><trkpt lat="41.52234118115916" lon="-0.5318505050168288"><ele>172.25</ele><time>2026-05-04T10:35:54Z</time></trkpt><trkpt lat="41.5222847702696" lon="-0.5317188562593411"><ele>172.5</ele><time>2026-05-04T10:35:55Z</time></trkpt><trkpt lat="41.52222875127311" lon="-0.5315833067698047"><ele>172.75</ele><time>2026-05-04T10:35:56Z</time></trkpt><trkpt lat="41.52217433338718" lon="-0.5314530217606054"><ele>173.0</ele><time>2026-05-04T10:35:57Z</time></trkpt><trkpt lat="41.52212289985209" lon="-0.5313189620158004"><ele>173.0</ele><time>2026-05-04T10:35:58Z</time></trkpt><trkpt lat="41.522068925141085" lon="-0.5311864442362951"><ele>173.0</ele><time>2026-05-04T10:35:59Z</time></trkpt><trkpt lat="41.52201706449261" lon="-0.5310547110676445"><ele>173.0</ele><time>2026-05-04T10:36:00Z</time></trkpt><trkpt lat="41.52196414038472" lon="-0.5309237560171775"><ele>173.0</ele><time>2026-05-04T10:36:01Z</time></trkpt><trkpt lat="41.52190953870614" lon="-0.5307947735550317"><ele>173.0</ele><time>2026-05-04T10:36:02Z</time></trkpt><trkpt lat="41.52185822826627" lon="-0.5306764600900408"><ele>172.8</ele><time>2026-05-04T10:36:03Z</time></trkpt><trkpt lat="41.52180631163193" lon="-0.5305522261679827"><ele>172.60000000000002</ele><time>2026-05-04T10:36:04Z</time></trkpt><trkpt lat="41.52175654864627" lon="-0.5304339040232855"><ele>172.39999999999998</ele><time>2026-05-04T10:36:05Z</time></trkpt><trkpt lat="41.52170516685887" lon="-0.5303197243852608"><ele>172.2</ele><time>2026-05-04T10:36:06Z</time></trkpt><trkpt lat="41.52165726416861" lon="-0.5302096363088926"><ele>172.0</ele><time>2026-05-04T10:36:07Z</time></trkpt><trkpt lat="41.52161448128832" lon="-0.5301071561225876"><ele>172.0</ele><time>2026-05-04T10:36:08Z</time></trkpt><trkpt lat="41.521576933088234" lon="-0.5300121577431686"><ele>172.0</ele><time>2026-05-04T10:36:09Z</time></trkpt><trkpt lat="41.52154073990902" lon="-0.5299237482369488"><ele>172.0</ele><time>2026-05-04T10:36:10Z</time></trkpt><trkpt lat="41.521502405702854" lon="-0.5298468847609398"><ele>172.0</ele><time>2026-05-04T10:36:11Z</time></trkpt><trkpt lat="41.52146982329015" lon="-0.5297678538913257"><ele>172.0</ele><time>2026-05-04T10:36:12Z</time></trkpt><trkpt lat="41.5214010160011" lon="-0.5296575774595791"><ele>172.0</ele><time>2026-05-04T10:36:14Z</time></trkpt><trkpt lat="41.52138850735164" lon="-0.5295577667208359"><ele>172.0</ele><time>2026-05-04T10:41:11.001Z</time></trkpt><trkpt lat="41.5213536853054" lon="-0.5294377893934096"><ele>172.0</ele><time>2026-05-04T10:41:13.001Z</time></trkpt><trkpt lat="41.521291457107644" lon="-0.5292851108457559"><ele>172.0</ele><time>2026-05-04T10:41:15.001Z</time></trkpt><trkpt lat="41.52125308768608" lon="-0.5292005009787941"><ele>172.0</ele><time>2026-05-04T10:41:16.001Z</time></trkpt><trkpt lat="41.52121065767059" lon="-0.5291123176556011"><ele>172.0</ele><time>2026-05-04T10:41:17.001Z</time></trkpt><trkpt lat="41.5211722924501" lon="-0.5290168896177253"><ele>172.0</ele><time>2026-05-04T10:41:18.001Z</time></trkpt><trkpt lat="41.52113374556347" lon="-0.5289170065882217"><ele>172.0</ele><time>2026-05-04T10:41:19.001Z</time></trkpt><trkpt lat="41.52109090479994" lon="-0.5288140704589677"><ele>172.0</ele><time>2026-05-04T10:41:20.001Z</time></trkpt><trkpt lat="41.52104371751697" lon="-0.5287141244466232"><ele>172.0</ele><time>2026-05-04T10:41:21.001Z</time></trkpt><trkpt lat="41.520998417315425" lon="-0.5286066322815914"><ele>172.0</ele><time>2026-05-04T10:41:22.001Z</time></trkpt><trkpt lat="41.52095378157447" lon="-0.5284949682353257"><ele>172.0</ele><time>2026-05-04T10:41:23.001Z</time></trkpt><trkpt lat="41.52090486066838" lon="-0.5283826584883622"><ele>172.0</ele><time>2026-05-04T10:41:24.001Z</time></trkpt><trkpt lat="41.520856612141735" lon="-0.5282682478248031"><ele>172.0</ele><time>2026-05-04T10:41:25.001Z</time></trkpt><trkpt lat="41.52080670636167" lon="-0.5281484405931606"><ele>172.0</ele><time>2026-05-04T10:41:26.001Z</time></trkpt><trkpt lat="41.52075635376404" lon="-0.5280278447357762"><ele>172.0</ele><time>2026-05-04T10:41:27.001Z</time></trkpt><trkpt lat="41.520703272390286" lon="-0.5279061077179633"><ele>172.0</ele><time>2026-05-04T10:41:28.001Z</time></trkpt><trkpt lat="41.52064930424216" lon="-0.5277844925573667"><ele>171.6</ele><time>2026-05-04T10:41:29.001Z</time></trkpt><trkpt lat="41.52059538062669" lon="-0.5276606177008906"><ele>171.2</ele><time>2026-05-04T10:41:30.001Z</time></trkpt><trkpt lat="41.520540798114126" lon="-0.5275355944146581"><ele>170.8</ele><time>2026-05-04T10:41:31.001Z</time></trkpt><trkpt lat="41.52048738128566" lon="-0.5274113737683921"><ele>170.4</ele><time>2026-05-04T10:41:32.001Z</time></trkpt><trkpt lat="41.52043279251072" lon="-0.5272865062005427"><ele>170.0</ele><time>2026-05-04T10:41:33.001Z</time></trkpt><trkpt lat="41.52037933189902" lon="-0.527161801047099"><ele>170.6</ele><time>2026-05-04T10:41:34.001Z</time></trkpt><trkpt lat="41.52032510253527" lon="-0.5270375511807441"><ele>171.2</ele><time>2026-05-04T10:41:35.001Z</time></trkpt><trkpt lat="41.52027231978383" lon="-0.5269127006205704"><ele>171.8</ele><time>2026-05-04T10:41:36.001Z</time></trkpt><trkpt lat="41.52021893878267" lon="-0.526788020477001"><ele>172.4</ele><time>2026-05-04T10:41:37.001Z</time></trkpt><trkpt lat="41.52016313107226" lon="-0.5266639729929551"><ele>173.0</ele><time>2026-05-04T10:41:37.999Z</time></trkpt><trkpt lat="41.52011012307328" lon="-0.5265411440329"><ele>173.0</ele><time>2026-05-04T10:41:38.999Z</time></trkpt><trkpt lat="41.52005789408082" lon="-0.5264147015926341"><ele>173.0</ele><time>2026-05-04T10:41:39.999Z</time></trkpt><trkpt lat="41.52000454155381" lon="-0.526289550661305"><ele>173.0</ele><time>2026-05-04T10:41:40.999Z</time></trkpt><trkpt lat="41.5199495059227" lon="-0.526160836709342"><ele>173.0</ele><time>2026-05-04T10:41:41.999Z</time></trkpt><trkpt lat="41.519891318429664" lon="-0.5260349672659566"><ele>173.0</ele><time>2026-05-04T10:41:43Z</time></trkpt><trkpt lat="41.51983711853412" lon="-0.5258966752465035"><ele>173.5</ele><time>2026-05-04T10:41:44Z</time></trkpt><trkpt lat="41.51978921585277" lon="-0.5257612107659096"><ele>174.0</ele><time>2026-05-04T10:41:45Z</time></trkpt><trkpt lat="41.519730518334335" lon="-0.5256256544159563"><ele>174.5</ele><time>2026-05-04T10:41:46Z</time></trkpt><trkpt lat="41.519678478238625" lon="-0.5254987816707635"><ele>175.0</ele><time>2026-05-04T10:41:47Z</time></trkpt><trkpt lat="41.51962305239053" lon="-0.5253624330484039"><ele>175.75</ele><time>2026-05-04T10:41:48Z</time></trkpt><trkpt lat="41.51956929857188" lon="-0.525230432567987"><ele>176.5</ele><time>2026-05-04T10:41:49Z</time></trkpt><trkpt lat="41.51951306831011" lon="-0.5250988581633874"><ele>177.25</ele><time>2026-05-04T10:41:50Z</time></trkpt><trkpt lat="41.51945749237579" lon="-0.5249689348826105"><ele>178.0</ele><time>2026-05-04T10:41:51Z</time></trkpt><trkpt lat="41.519399627036194" lon="-0.52484019012975"><ele>177.25</ele><time>2026-05-04T10:41:52Z</time></trkpt><trkpt lat="41.51934303592516" lon="-0.5247052871110214"><ele>176.5</ele><time>2026-05-04T10:41:53Z</time></trkpt><trkpt lat="41.51928659012379" lon="-0.5245737265819586"><ele>175.75</ele><time>2026-05-04T10:41:54Z</time></trkpt><trkpt lat="41.51923132203706" lon="-0.5244467802619291"><ele>175.0</ele><time>2026-05-04T10:41:55Z</time></trkpt><trkpt lat="41.51917384426454" lon="-0.5243158267613132"><ele>175.0</ele><time>2026-05-04T10:41:56Z</time></trkpt><trkpt lat="41.519121328415345" lon="-0.5241869189128243"><ele>175.0</ele><time>2026-05-04T10:41:57Z</time></trkpt><trkpt lat="41.519064132123454" lon="-0.5240562230661404"><ele>175.0</ele><time>2026-05-04T10:41:58Z</time></trkpt><trkpt lat="41.51900602560757" lon="-0.523928215838548"><ele>175.0</ele><time>2026-05-04T10:41:59Z</time></trkpt><trkpt lat="41.51894807535295" lon="-0.5238002930970544"><ele>175.0</ele><time>2026-05-04T10:42:00Z</time></trkpt><trkpt lat="41.518893549717006" lon="-0.523669645668027"><ele>175.25</ele><time>2026-05-04T10:42:01Z</time></trkpt><trkpt lat="41.518836960849534" lon="-0.5235410719398926"><ele>175.5</ele><time>2026-05-04T10:42:02Z</time></trkpt><trkpt lat="41.518783013948564" lon="-0.5234079742739024"><ele>175.75</ele><time>2026-05-04T10:42:03Z</time></trkpt><trkpt lat="41.51872519367766" lon="-0.5232763448531631"><ele>176.0</ele><time>2026-05-04T10:42:04Z</time></trkpt><trkpt lat="41.51866670579312" lon="-0.5231466699669282"><ele>175.60000000000002</ele><time>2026-05-04T10:42:05Z</time></trkpt><trkpt lat="41.5186131146297" lon="-0.5230155752824059"><ele>175.2</ele><time>2026-05-04T10:42:06Z</time></trkpt><trkpt lat="41.518555044183245" lon="-0.5228855048336011"><ele>174.8</ele><time>2026-05-04T10:42:07Z</time></trkpt><trkpt lat="41.51850043123349" lon="-0.5227554644097699"><ele>174.39999999999998</ele><time>2026-05-04T10:42:08Z</time></trkpt><trkpt lat="41.51844988879528" lon="-0.5226239712262777"><ele>174.0</ele><time>2026-05-04T10:42:09Z</time></trkpt><trkpt lat="41.518396587341556" lon="-0.522506566893026"><ele>174.0</ele><time>2026-05-04T10:42:10Z</time></trkpt><trkpt lat="41.518342128356664" lon="-0.5223817649352855"><ele>174.0</ele><time>2026-05-04T10:42:11Z</time></trkpt><trkpt lat="41.518287090205924" lon="-0.5222484611146537"><ele>174.0</ele><time>2026-05-04T10:42:12Z</time></trkpt><trkpt lat="41.51823037582355" lon="-0.5221245293929099"><ele>174.0</ele><time>2026-05-04T10:42:13Z</time></trkpt><trkpt lat="41.518176088195226" lon="-0.5219990540618812"><ele>174.0</ele><time>2026-05-04T10:42:14Z</time></trkpt><trkpt lat="41.51812324294918" lon="-0.5218731266155423"><ele>174.2</ele><time>2026-05-04T10:42:15Z</time></trkpt><trkpt lat="41.51807036164895" lon="-0.521749473139255"><ele>174.39999999999998</ele><time>2026-05-04T10:42:16Z</time></trkpt><trkpt lat="41.51801700271347" lon="-0.5216242948148015"><ele>174.6</ele><time>2026-05-04T10:42:17Z</time></trkpt><trkpt lat="41.51796150376728" lon="-0.5215013941271784"><ele>174.8</ele><time>2026-05-04T10:42:18Z</time></trkpt><trkpt lat="41.517908204752274" lon="-0.5213793437287061"><ele>175.0</ele><time>2026-05-04T10:42:19Z</time></trkpt><trkpt lat="41.517854778737274" lon="-0.5212508322524786"><ele>175.0</ele><time>2026-05-04T10:42:20Z</time></trkpt><trkpt lat="41.51780002273339" lon="-0.521126626289618"><ele>175.0</ele><time>2026-05-04T10:42:21Z</time></trkpt><trkpt lat="41.517745857066835" lon="-0.5209979588986542"><ele>175.0</ele><time>2026-05-04T10:42:22Z</time></trkpt><trkpt lat="41.517691782606796" lon="-0.5208685688214045"><ele>175.0</ele><time>2026-05-04T10:42:23Z</time></trkpt><trkpt lat="41.517635062825235" lon="-0.5207414762076651"><ele>175.0</ele><time>2026-05-04T10:42:24Z</time></trkpt><trkpt lat="41.51757256161989" lon="-0.5206113309025174"><ele>175.0</ele><time>2026-05-04T10:42:25Z</time></trkpt><trkpt lat="41.51750794584427" lon="-0.5204704445619059"><ele>175.0</ele><time>2026-05-04T10:42:26Z</time></trkpt><trkpt lat="41.517412631198084" lon="-0.5202652257537699"><ele>175.0</ele><time>2026-05-04T10:42:27Z</time></trkpt><trkpt lat="41.51733241557244" lon="-0.5200483120169032"><ele>174.75</ele><time>2026-05-04T10:42:28Z</time></trkpt><trkpt lat="41.51723870685241" lon="-0.5198084059500017"><ele>174.5</ele><time>2026-05-04T10:42:29Z</time></trkpt><trkpt lat="41.517294299780545" lon="-0.5199609098318223"><ele>174.25</ele><time>2026-05-04T10:42:30Z</time></trkpt><trkpt lat="41.51723745017178" lon="-0.5198344715522429"><ele>174.0</ele><time>2026-05-04T10:42:31Z</time></trkpt><trkpt lat="41.51717946089821" lon="-0.5197088837505867"><ele>174.0</ele><time>2026-05-04T10:42:32Z</time></trkpt><trkpt lat="41.51712414501756" lon="-0.5195772927447073"><ele>174.0</ele><time>2026-05-04T10:42:33Z</time></trkpt><trkpt lat="41.51706791603283" lon="-0.5194544847142689"><ele>174.0</ele><time>2026-05-04T10:42:34Z</time></trkpt><trkpt lat="41.51701646234422" lon="-0.5193282862078529"><ele>174.0</ele><time>2026-05-04T10:42:35Z</time></trkpt><trkpt lat="41.51696158969013" lon="-0.5192035937485404"><ele>174.0</ele><time>2026-05-04T10:42:36Z</time></trkpt><trkpt lat="41.51690719608494" lon="-0.519079983487157"><ele>173.39999999999998</ele><time>2026-05-04T10:42:37Z</time></trkpt><trkpt lat="41.51685045072464" lon="-0.5189570103597916"><ele>172.8</ele><time>2026-05-04T10:42:38Z</time></trkpt><trkpt lat="41.516796117239664" lon="-0.5188273645209321"><ele>172.2</ele><time>2026-05-04T10:42:39Z</time></trkpt><trkpt lat="41.516742751037306" lon="-0.5186987379190444"><ele>171.60000000000002</ele><time>2026-05-04T10:42:40Z</time></trkpt><trkpt lat="41.516686115664385" lon="-0.5185728018832504"><ele>171.0</ele><time>2026-05-04T10:42:41Z</time></trkpt><trkpt lat="41.5166324129976" lon="-0.5184472073901149"><ele>172.5</ele><time>2026-05-04T10:42:42Z</time></trkpt><trkpt lat="41.51657507376134" lon="-0.5183181370704948"><ele>174.0</ele><time>2026-05-04T10:42:43Z</time></trkpt><trkpt lat="41.51651765442925" lon="-0.5181888778764369"><ele>175.5</ele><time>2026-05-04T10:42:44Z</time></trkpt><trkpt lat="41.51645621220808" lon="-0.5180620988569392"><ele>177.0</ele><time>2026-05-04T10:42:45Z</time></trkpt><trkpt lat="41.51639830637052" lon="-0.5179338769700251"><ele>176.8</ele><time>2026-05-04T10:42:46Z</time></trkpt><trkpt lat="41.516340494563075" lon="-0.5178054928211171"><ele>176.6</ele><time>2026-05-04T10:42:47Z</time></trkpt><trkpt lat="41.51629126987096" lon="-0.5176689095913914"><ele>176.4</ele><time>2026-05-04T10:42:48Z</time></trkpt><trkpt lat="41.516240961765206" lon="-0.5175405013419976"><ele>176.20000000000002</ele><time>2026-05-04T10:42:49Z</time></trkpt><trkpt lat="41.516190731646226" lon="-0.51740591235532"><ele>176.0</ele><time>2026-05-04T10:42:50Z</time></trkpt><trkpt lat="41.51613846394377" lon="-0.5172765393126584"><ele>175.5</ele><time>2026-05-04T10:42:51Z</time></trkpt><trkpt lat="41.51608636682522" lon="-0.517147881565984"><ele>175.0</ele><time>2026-05-04T10:42:52Z</time></trkpt><trkpt lat="41.51603895052311" lon="-0.5170146825420151"><ele>174.5</ele><time>2026-05-04T10:42:53Z</time></trkpt><trkpt lat="41.51599542746913" lon="-0.5168751032934882"><ele>174.0</ele><time>2026-05-04T10:42:54Z</time></trkpt><trkpt lat="41.515942182047425" lon="-0.5167319375748448"><ele>174.0</ele><time>2026-05-04T10:42:55Z</time></trkpt><trkpt lat="41.51589467139903" lon="-0.5165897630405708"><ele>174.0</ele><time>2026-05-04T10:42:56Z</time></trkpt><trkpt lat="41.51584539795874" lon="-0.5164427954611784"><ele>174.0</ele><time>2026-05-04T10:42:57Z</time></trkpt><trkpt lat="41.51579288553417" lon="-0.5163043191967949"><ele>174.0</ele><time>2026-05-04T10:42:58Z</time></trkpt><trkpt lat="41.51574638941849" lon="-0.5161617723630538"><ele>174.25</ele><time>2026-05-04T10:42:59Z</time></trkpt><trkpt lat="41.515697531696816" lon="-0.5160181852046621"><ele>174.5</ele><time>2026-05-04T10:43:00Z</time></trkpt><trkpt lat="41.51564841131881" lon="-0.515883114238242"><ele>174.75</ele><time>2026-05-04T10:43:01Z</time></trkpt><trkpt lat="41.515600695903004" lon="-0.5157433915520059"><ele>175.0</ele><time>2026-05-04T10:43:02Z</time></trkpt><trkpt lat="41.5155544891239" lon="-0.5156096056205973"><ele>175.0</ele><time>2026-05-04T10:43:03Z</time></trkpt><trkpt lat="41.515505747499155" lon="-0.5154761482378586"><ele>175.0</ele><time>2026-05-04T10:43:04Z</time></trkpt><trkpt lat="41.51545990727681" lon="-0.5153382677235385"><ele>175.0</ele><time>2026-05-04T10:43:05.001Z</time></trkpt><trkpt lat="41.515409023212506" lon="-0.515201123708953"><ele>175.0</ele><time>2026-05-04T10:43:06.001Z</time></trkpt><trkpt lat="41.51536251851058" lon="-0.5150702509769259"><ele>175.0</ele><time>2026-05-04T10:43:07.001Z</time></trkpt><trkpt lat="41.51531300200751" lon="-0.5149332958037731"><ele>175.0</ele><time>2026-05-04T10:43:08.001Z</time></trkpt><trkpt lat="41.515267837462616" lon="-0.5147987609358438"><ele>175.0</ele><time>2026-05-04T10:43:09.001Z</time></trkpt><trkpt lat="41.515225319053414" lon="-0.5146629260704945"><ele>175.0</ele><time>2026-05-04T10:43:10.001Z</time></trkpt><trkpt lat="41.515184989853" lon="-0.5145256530839671"><ele>175.0</ele><time>2026-05-04T10:43:11.001Z</time></trkpt><trkpt lat="41.51513769412187" lon="-0.5143990841227806"><ele>175.0</ele><time>2026-05-04T10:43:12.001Z</time></trkpt><trkpt lat="41.515090735686776" lon="-0.5142618657162433"><ele>175.0</ele><time>2026-05-04T10:43:13.001Z</time></trkpt><trkpt lat="41.515042427483074" lon="-0.5141293411633824"><ele>175.0</ele><time>2026-05-04T10:43:14.001Z</time></trkpt><trkpt lat="41.51500070692877" lon="-0.5139924460349726"><ele>175.0</ele><time>2026-05-04T10:43:15.001Z</time></trkpt><trkpt lat="41.514952939574684" lon="-0.5138649673583486"><ele>175.0</ele><time>2026-05-04T10:43:16.001Z</time></trkpt><trkpt lat="41.51490744402268" lon="-0.5137286618550099"><ele>175.0</ele><time>2026-05-04T10:43:17.001Z</time></trkpt><trkpt lat="41.51487096641268" lon="-0.5135952598064114"><ele>175.2</ele><time>2026-05-04T10:43:18.001Z</time></trkpt><trkpt lat="41.51482310390254" lon="-0.5134640507707778"><ele>175.4</ele><time>2026-05-04T10:43:19.001Z</time></trkpt><trkpt lat="41.5147781730099" lon="-0.5133290736395699"><ele>175.60000000000002</ele><time>2026-05-04T10:43:20.001Z</time></trkpt><trkpt lat="41.51473483580682" lon="-0.5131921341954693"><ele>175.8</ele><time>2026-05-04T10:43:21.001Z</time></trkpt><trkpt lat="41.51469096294638" lon="-0.5130588580670365"><ele>176.0</ele><time>2026-05-04T10:43:22.001Z</time></trkpt><trkpt lat="41.51464556411491" lon="-0.5129280379726653"><ele>175.5</ele><time>2026-05-04T10:43:23.001Z</time></trkpt><trkpt lat="41.51459993272105" lon="-0.5127983663080014"><ele>175.0</ele><time>2026-05-04T10:43:24.001Z</time></trkpt><trkpt lat="41.51455214354533" lon="-0.5126651201150569"><ele>174.5</ele><time>2026-05-04T10:43:25.001Z</time></trkpt><trkpt lat="41.51450697942251" lon="-0.5125195376215282"><ele>174.0</ele><time>2026-05-04T10:43:26.001Z</time></trkpt><trkpt lat="41.51446340010324" lon="-0.5123767338978952"><ele>174.0</ele><time>2026-05-04T10:43:27.001Z</time></trkpt><trkpt lat="41.514416517287515" lon="-0.5122454799411824"><ele>174.0</ele><time>2026-05-04T10:43:28.001Z</time></trkpt><trkpt lat="41.5143619089941" lon="-0.51211447569697"><ele>174.0</ele><time>2026-05-04T10:43:29.001Z</time></trkpt><trkpt lat="41.51431964352168" lon="-0.511979237078771"><ele>174.0</ele><time>2026-05-04T10:43:30.001Z</time></trkpt><trkpt lat="41.51427734114661" lon="-0.5118424691927653"><ele>174.0</ele><time>2026-05-04T10:43:31.001Z</time></trkpt><trkpt lat="41.51423171229418" lon="-0.5117086591314045"><ele>174.2</ele><time>2026-05-04T10:43:32.001Z</time></trkpt><trkpt lat="41.51418523292084" lon="-0.5115734106147761"><ele>174.39999999999998</ele><time>2026-05-04T10:43:33.001Z</time></trkpt><trkpt lat="41.514138767164624" lon="-0.5114380561002833"><ele>174.6</ele><time>2026-05-04T10:43:34.001Z</time></trkpt><trkpt lat="41.514093369207984" lon="-0.511302603296967"><ele>174.8</ele><time>2026-05-04T10:43:35.001Z</time></trkpt><trkpt lat="41.51404795211385" lon="-0.5111683001058651"><ele>175.0</ele><time>2026-05-04T10:43:36.001Z</time></trkpt><trkpt lat="41.514002884110674" lon="-0.5110349772316477"><ele>175.0</ele><time>2026-05-04T10:43:37.001Z</time></trkpt><trkpt lat="41.51395919296736" lon="-0.5109008592679998"><ele>175.0</ele><time>2026-05-04T10:43:38.001Z</time></trkpt><trkpt lat="41.513913065375085" lon="-0.5107671932630711"><ele>175.0</ele><time>2026-05-04T10:43:39.001Z</time></trkpt><trkpt lat="41.513870099214444" lon="-0.5106304813579833"><ele>175.0</ele><time>2026-05-04T10:43:40.001Z</time></trkpt><trkpt lat="41.513824658723465" lon="-0.5104955476164079"><ele>175.0</ele><time>2026-05-04T10:43:41.001Z</time></trkpt><trkpt lat="41.51377793511031" lon="-0.51036222617973"><ele>174.4</ele><time>2026-05-04T10:43:42.001Z</time></trkpt><trkpt lat="41.51372950862234" lon="-0.5102273479923634"><ele>173.8</ele><time>2026-05-04T10:43:43.001Z</time></trkpt><trkpt lat="41.51368787004721" lon="-0.5100949307912751"><ele>173.2</ele><time>2026-05-04T10:43:43.999Z</time></trkpt><trkpt lat="41.51364455862832" lon="-0.5099570887644758"><ele>172.6</ele><time>2026-05-04T10:43:44.999Z</time></trkpt><trkpt lat="41.51359637067508" lon="-0.5098252957451341"><ele>172.0</ele><time>2026-05-04T10:43:45.999Z</time></trkpt><trkpt lat="41.51354896543221" lon="-0.5096875592314671"><ele>172.2</ele><time>2026-05-04T10:43:46.999Z</time></trkpt><trkpt lat="41.513503797514126" lon="-0.5095517701455273"><ele>172.39999999999998</ele><time>2026-05-04T10:43:47.999Z</time></trkpt><trkpt lat="41.51346072280866" lon="-0.5094193276820475"><ele>172.60000000000002</ele><time>2026-05-04T10:43:48.999Z</time></trkpt><trkpt lat="41.51341570155717" lon="-0.5092870075643163"><ele>172.8</ele><time>2026-05-04T10:43:49.999Z</time></trkpt><trkpt lat="41.51336894780381" lon="-0.5091492000747525"><ele>173.0</ele><time>2026-05-04T10:43:50.999Z</time></trkpt><trkpt lat="41.5133214226231" lon="-0.509010733920522"><ele>173.0</ele><time>2026-05-04T10:43:51.999Z</time></trkpt><trkpt lat="41.51327399491951" lon="-0.5088748687438396"><ele>173.0</ele><time>2026-05-04T10:43:52.999Z</time></trkpt><trkpt lat="41.51322706564793" lon="-0.5087374532252379"><ele>173.0</ele><time>2026-05-04T10:43:53.999Z</time></trkpt><trkpt lat="41.51318217045699" lon="-0.5085980508607577"><ele>173.0</ele><time>2026-05-04T10:43:54.999Z</time></trkpt><trkpt lat="41.513136124288145" lon="-0.5084741084988841"><ele>173.0</ele><time>2026-05-04T10:43:55.999Z</time></trkpt><trkpt lat="41.51308788162186" lon="-0.5083239235217436"><ele>173.60000000000002</ele><time>2026-05-04T10:43:56.999Z</time></trkpt><trkpt lat="41.51304296453722" lon="-0.5081861369337047"><ele>174.20000000000002</ele><time>2026-05-04T10:43:57.999Z</time></trkpt><trkpt lat="41.5129952942465" lon="-0.5080532261343182"><ele>174.8</ele><time>2026-05-04T10:43:58.999Z</time></trkpt><trkpt lat="41.5129529229473" lon="-0.5079191503912389"><ele>175.4</ele><time>2026-05-04T10:44:00Z</time></trkpt><trkpt lat="41.512907841752785" lon="-0.5077832183151958"><ele>176.0</ele><time>2026-05-04T10:44:01Z</time></trkpt><trkpt lat="41.51285775988923" lon="-0.5076486593191873"><ele>176.0</ele><time>2026-05-04T10:44:02Z</time></trkpt><trkpt lat="41.512815858899984" lon="-0.5075129932179004"><ele>176.0</ele><time>2026-05-04T10:44:03Z</time></trkpt><trkpt lat="41.51277397568239" lon="-0.5073746900615308"><ele>176.0</ele><time>2026-05-04T10:44:04Z</time></trkpt><trkpt lat="41.51272934486593" lon="-0.507240686269611"><ele>176.0</ele><time>2026-05-04T10:44:05Z</time></trkpt><trkpt lat="41.51268189740254" lon="-0.5071004584191009"><ele>176.0</ele><time>2026-05-04T10:44:06Z</time></trkpt><trkpt lat="41.512633234489506" lon="-0.5069684159865087"><ele>176.20000000000002</ele><time>2026-05-04T10:44:07Z</time></trkpt><trkpt lat="41.51258909755396" lon="-0.5068345878477368"><ele>176.4</ele><time>2026-05-04T10:44:08Z</time></trkpt><trkpt lat="41.512541916695554" lon="-0.5066958834228823"><ele>176.6</ele><time>2026-05-04T10:44:09Z</time></trkpt><trkpt lat="41.51249770790859" lon="-0.5065567585456998"><ele>176.8</ele><time>2026-05-04T10:44:10Z</time></trkpt><trkpt lat="41.51245264565285" lon="-0.5064236025228317"><ele>177.0</ele><time>2026-05-04T10:44:11Z</time></trkpt><trkpt lat="41.512407179247205" lon="-0.5062896972393667"><ele>177.6</ele><time>2026-05-04T10:44:12Z</time></trkpt><trkpt lat="41.51235911081769" lon="-0.506161161572381"><ele>178.2</ele><time>2026-05-04T10:44:13Z</time></trkpt><trkpt lat="41.512306494277254" lon="-0.5060350222989642"><ele>178.8</ele><time>2026-05-04T10:44:14Z</time></trkpt><trkpt lat="41.51226141344587" lon="-0.5059041909108549"><ele>179.4</ele><time>2026-05-04T10:44:15Z</time></trkpt><trkpt lat="41.512213838378706" lon="-0.5057696392437487"><ele>180.0</ele><time>2026-05-04T10:44:16Z</time></trkpt><trkpt lat="41.51217368099506" lon="-0.5056359103499056"><ele>180.0</ele><time>2026-05-04T10:44:17Z</time></trkpt><trkpt lat="41.51212853184181" lon="-0.5055005624102499"><ele>180.0</ele><time>2026-05-04T10:44:18Z</time></trkpt><trkpt lat="41.51208442185888" lon="-0.5053685776574925"><ele>180.0</ele><time>2026-05-04T10:44:19Z</time></trkpt><trkpt lat="41.51205920548027" lon="-0.5052474097090428"><ele>180.0</ele><time>2026-05-04T10:44:20Z</time></trkpt><trkpt lat="41.51201251076295" lon="-0.5051154354524837"><ele>180.0</ele><time>2026-05-04T10:44:21Z</time></trkpt><trkpt lat="41.51196672841415" lon="-0.5049831474383003"><ele>180.0</ele><time>2026-05-04T10:44:22Z</time></trkpt><trkpt lat="41.511921024946105" lon="-0.5048488946975103"><ele>180.0</ele><time>2026-05-04T10:44:23Z</time></trkpt><trkpt lat="41.51187959383103" lon="-0.5047195415615535"><ele>180.0</ele><time>2026-05-04T10:44:24Z</time></trkpt><trkpt lat="41.511834224198836" lon="-0.5045873810819897"><ele>180.0</ele><time>2026-05-04T10:44:25Z</time></trkpt><trkpt lat="41.51178851954958" lon="-0.5044570178856709"><ele>180.0</ele><time>2026-05-04T10:44:26Z</time></trkpt><trkpt lat="41.51174337182366" lon="-0.5043288092001026"><ele>180.4</ele><time>2026-05-04T10:44:27Z</time></trkpt><trkpt lat="41.51169841466817" lon="-0.5041982742775454"><ele>180.8</ele><time>2026-05-04T10:44:28Z</time></trkpt><trkpt lat="41.511655424233766" lon="-0.5040703744809878"><ele>181.2</ele><time>2026-05-04T10:44:29Z</time></trkpt><trkpt lat="41.511613211154405" lon="-0.5039416075067501"><ele>181.6</ele><time>2026-05-04T10:44:30Z</time></trkpt><trkpt lat="41.51157351385037" lon="-0.5038159230142399"><ele>182.0</ele><time>2026-05-04T10:44:31Z</time></trkpt><trkpt lat="41.51153034241408" lon="-0.5036846006718401"><ele>182.2</ele><time>2026-05-04T10:44:32Z</time></trkpt><trkpt lat="41.51149231538047" lon="-0.5035520975316291"><ele>182.39999999999998</ele><time>2026-05-04T10:44:33Z</time></trkpt><trkpt lat="41.51145119361466" lon="-0.5034179721501733"><ele>182.60000000000002</ele><time>2026-05-04T10:44:34Z</time></trkpt><trkpt lat="41.51141209403445" lon="-0.5032800915542726"><ele>182.8</ele><time>2026-05-04T10:44:35Z</time></trkpt><trkpt lat="41.51137414639918" lon="-0.5031428684643015"><ele>183.0</ele><time>2026-05-04T10:44:36Z</time></trkpt><trkpt lat="41.51133057316501" lon="-0.5029933438243677"><ele>183.25</ele><time>2026-05-04T10:44:37Z</time></trkpt><trkpt lat="41.51128942621499" lon="-0.502852659480517"><ele>183.5</ele><time>2026-05-04T10:44:38Z</time></trkpt><trkpt lat="41.511248036050205" lon="-0.5027127118458293"><ele>183.75</ele><time>2026-05-04T10:44:39Z</time></trkpt><trkpt lat="41.511209767022194" lon="-0.5025678834383813"><ele>184.0</ele><time>2026-05-04T10:44:40Z</time></trkpt><trkpt lat="41.51117230711184" lon="-0.5024221037877185"><ele>184.0</ele><time>2026-05-04T10:44:41Z</time></trkpt><trkpt lat="41.51113381129919" lon="-0.5022786074973499"><ele>184.0</ele><time>2026-05-04T10:44:42Z</time></trkpt><trkpt lat="41.511100248228246" lon="-0.5021492864057153"><ele>184.0</ele><time>2026-05-04T10:44:43Z</time></trkpt><trkpt lat="41.511065539903875" lon="-0.5019821615000923"><ele>184.0</ele><time>2026-05-04T10:44:44Z</time></trkpt><trkpt lat="41.5110087152795" lon="-0.5017408397473392"><ele>184.0</ele><time>2026-05-04T10:44:45Z</time></trkpt><trkpt lat="41.51093857578732" lon="-0.501589590596862"><ele>184.0</ele><time>2026-05-04T10:44:47Z</time></trkpt><trkpt lat="41.51089916085925" lon="-0.5014501682027249"><ele>184.0</ele><time>2026-05-04T10:44:48Z</time></trkpt><trkpt lat="41.51086095517471" lon="-0.5013144475115626"><ele>184.0</ele><time>2026-05-04T10:44:49Z</time></trkpt><trkpt lat="41.51082072043237" lon="-0.5011828451213871"><ele>185.0</ele><time>2026-05-04T10:44:50Z</time></trkpt><trkpt lat="41.510782591651584" lon="-0.5010514759445398"><ele>186.0</ele><time>2026-05-04T10:44:51Z</time></trkpt><trkpt lat="41.51074671511506" lon="-0.5009187894636249"><ele>187.0</ele><time>2026-05-04T10:44:52Z</time></trkpt><trkpt lat="41.510709298504494" lon="-0.5007915704934942"><ele>188.0</ele><time>2026-05-04T10:44:53Z</time></trkpt><trkpt lat="41.51067431533466" lon="-0.5006656738741275"><ele>189.0</ele><time>2026-05-04T10:44:54Z</time></trkpt><trkpt lat="41.510639611529044" lon="-0.500538332595202"><ele>190.0</ele><time>2026-05-04T10:44:55Z</time></trkpt><trkpt lat="41.51060469859895" lon="-0.5004083119997842"><ele>191.0</ele><time>2026-05-04T10:44:56Z</time></trkpt><trkpt lat="41.510570856297136" lon="-0.5002855718645872"><ele>192.0</ele><time>2026-05-04T10:44:57Z</time></trkpt><trkpt lat="41.51053711287835" lon="-0.5001549928874566"><ele>193.0</ele><time>2026-05-04T10:44:58Z</time></trkpt><trkpt lat="41.510501079347165" lon="-0.5000283434112641"><ele>194.0</ele><time>2026-05-04T10:44:59Z</time></trkpt><trkpt lat="41.51046777828385" lon="-0.4999010782249033"><ele>194.0</ele><time>2026-05-04T10:45:00Z</time></trkpt><trkpt lat="41.510434206231444" lon="-0.4997750789227525"><ele>194.0</ele><time>2026-05-04T10:45:01Z</time></trkpt><trkpt lat="41.5104015868088" lon="-0.4996511602675179"><ele>194.0</ele><time>2026-05-04T10:45:02Z</time></trkpt><trkpt lat="41.510371582253725" lon="-0.4995248742876715"><ele>194.0</ele><time>2026-05-04T10:45:03Z</time></trkpt><trkpt lat="41.51034389001016" lon="-0.49939667932758414"><ele>194.0</ele><time>2026-05-04T10:45:04.001Z</time></trkpt><trkpt lat="41.51031994119264" lon="-0.49927157520979"><ele>194.0</ele><time>2026-05-04T10:45:05.001Z</time></trkpt><trkpt lat="41.510294614723314" lon="-0.49914541201808044"><ele>194.0</ele><time>2026-05-04T10:45:06.001Z</time></trkpt><trkpt lat="41.51027109505491" lon="-0.49901634444008164"><ele>194.0</ele><time>2026-05-04T10:45:07.001Z</time></trkpt><trkpt lat="41.510254152806795" lon="-0.4988880735227772"><ele>194.0</ele><time>2026-05-04T10:45:08.001Z</time></trkpt><trkpt lat="41.51023506216306" lon="-0.4987613025209965"><ele>194.0</ele><time>2026-05-04T10:45:09.001Z</time></trkpt><trkpt lat="41.51021921351819" lon="-0.4986321255849814"><ele>194.2</ele><time>2026-05-04T10:45:10.001Z</time></trkpt><trkpt lat="41.510205110981836" lon="-0.4985058755554592"><ele>194.39999999999998</ele><time>2026-05-04T10:45:11.001Z</time></trkpt><trkpt lat="41.510197339743115" lon="-0.49837655019127236"><ele>194.6</ele><time>2026-05-04T10:45:12.001Z</time></trkpt><trkpt lat="41.51019241576403" lon="-0.49824749964886006"><ele>194.8</ele><time>2026-05-04T10:45:13.001Z</time></trkpt><trkpt lat="41.510189768876074" lon="-0.49811827974210854"><ele>195.0</ele><time>2026-05-04T10:45:14.001Z</time></trkpt><trkpt lat="41.51018788542432" lon="-0.49799276027296263"><ele>195.0</ele><time>2026-05-04T10:45:15.001Z</time></trkpt><trkpt lat="41.51018920880786" lon="-0.49785944026724266"><ele>195.0</ele><time>2026-05-04T10:45:16.001Z</time></trkpt><trkpt lat="41.51018435562075" lon="-0.49773463184530076"><ele>195.0</ele><time>2026-05-04T10:45:17.001Z</time></trkpt><trkpt lat="41.510188268811255" lon="-0.49760607424425013"><ele>195.0</ele><time>2026-05-04T10:45:18.001Z</time></trkpt><trkpt lat="41.510195534829656" lon="-0.49747573029031344"><ele>195.0</ele><time>2026-05-04T10:45:19.001Z</time></trkpt><trkpt lat="41.51020652545819" lon="-0.497341996681662"><ele>195.0</ele><time>2026-05-04T10:45:20.001Z</time></trkpt><trkpt lat="41.510214195678046" lon="-0.4972164314719613"><ele>195.0</ele><time>2026-05-04T10:45:21.001Z</time></trkpt><trkpt lat="41.51021762917481" lon="-0.49709432342296944"><ele>195.0</ele><time>2026-05-04T10:45:22.001Z</time></trkpt><trkpt lat="41.51022673244408" lon="-0.49696046856481935"><ele>195.0</ele><time>2026-05-04T10:45:23.001Z</time></trkpt><trkpt lat="41.51023466198486" lon="-0.49683362674453313"><ele>195.0</ele><time>2026-05-04T10:45:24.001Z</time></trkpt><trkpt lat="41.51023949111393" lon="-0.4967083154888572"><ele>196.2</ele><time>2026-05-04T10:45:25.001Z</time></trkpt><trkpt lat="41.510240577355965" lon="-0.49658332464389143"><ele>197.4</ele><time>2026-05-04T10:45:26.001Z</time></trkpt><trkpt lat="41.51024322642164" lon="-0.49646033612488516"><ele>198.60000000000002</ele><time>2026-05-04T10:45:27.001Z</time></trkpt><trkpt lat="41.510243520526195" lon="-0.4963325576331987"><ele>199.8</ele><time>2026-05-04T10:45:28.001Z</time></trkpt><trkpt lat="41.51024342139623" lon="-0.4962095958616496"><ele>201.0</ele><time>2026-05-04T10:45:29.001Z</time></trkpt><trkpt lat="41.51024340542865" lon="-0.4960843339051051"><ele>201.8</ele><time>2026-05-04T10:45:30.001Z</time></trkpt><trkpt lat="41.51023942780004" lon="-0.4959614140374641"><ele>202.60000000000002</ele><time>2026-05-04T10:45:31.001Z</time></trkpt><trkpt lat="41.51024238901031" lon="-0.49583698688482153"><ele>203.4</ele><time>2026-05-04T10:45:32.001Z</time></trkpt><trkpt lat="41.51024578060632" lon="-0.49571136116622494"><ele>204.2</ele><time>2026-05-04T10:45:33.001Z</time></trkpt><trkpt lat="41.51024514272073" lon="-0.49558816680137957"><ele>205.0</ele><time>2026-05-04T10:45:34.001Z</time></trkpt><trkpt lat="41.51024005521719" lon="-0.49546335660357643"><ele>204.8</ele><time>2026-05-04T10:45:35.001Z</time></trkpt><trkpt lat="41.5102341151937" lon="-0.4953378683149611"><ele>204.6</ele><time>2026-05-04T10:45:36.001Z</time></trkpt><trkpt lat="41.51022824987581" lon="-0.4952045696415801"><ele>204.39999999999998</ele><time>2026-05-04T10:45:37.001Z</time></trkpt><trkpt lat="41.51022438794424" lon="-0.49507322256336905"><ele>204.2</ele><time>2026-05-04T10:45:38.001Z</time></trkpt><trkpt lat="41.51022401272148" lon="-0.49493842103076185"><ele>204.0</ele><time>2026-05-04T10:45:39.001Z</time></trkpt><trkpt lat="41.51022253634088" lon="-0.49480248734105436"><ele>204.0</ele><time>2026-05-04T10:45:40.001Z</time></trkpt><trkpt lat="41.510222753259825" lon="-0.4946637924510047"><ele>204.0</ele><time>2026-05-04T10:45:41.001Z</time></trkpt><trkpt lat="41.5102172957422" lon="-0.4945228418878105"><ele>204.0</ele><time>2026-05-04T10:45:42.001Z</time></trkpt><trkpt lat="41.5102139053109" lon="-0.49437854339893467"><ele>204.0</ele><time>2026-05-04T10:45:43.001Z</time></trkpt><trkpt lat="41.510208852086016" lon="-0.49423189092777564"><ele>204.0</ele><time>2026-05-04T10:45:44.001Z</time></trkpt><trkpt lat="41.510202567888214" lon="-0.49408682384423785"><ele>204.25</ele><time>2026-05-04T10:45:45.001Z</time></trkpt><trkpt lat="41.51019744938089" lon="-0.493939501382604"><ele>204.5</ele><time>2026-05-04T10:45:46.001Z</time></trkpt><trkpt lat="41.51020021915396" lon="-0.4937803510817009"><ele>204.75</ele><time>2026-05-04T10:45:47.001Z</time></trkpt><trkpt lat="41.51019207635727" lon="-0.49363960460873413"><ele>205.0</ele><time>2026-05-04T10:45:48.001Z</time></trkpt><trkpt lat="41.51018590958825" lon="-0.4934859704259833"><ele>205.25</ele><time>2026-05-04T10:45:49.001Z</time></trkpt><trkpt lat="41.51018324327314" lon="-0.4933313758456002"><ele>205.5</ele><time>2026-05-04T10:45:50Z</time></trkpt><trkpt lat="41.510178418406554" lon="-0.4931772900532655"><ele>205.75</ele><time>2026-05-04T10:45:51Z</time></trkpt><trkpt lat="41.51017625602345" lon="-0.4930250371395861"><ele>206.0</ele><time>2026-05-04T10:45:52Z</time></trkpt><trkpt lat="41.51017318706718" lon="-0.492872837579598"><ele>206.0</ele><time>2026-05-04T10:45:53Z</time></trkpt><trkpt lat="41.510168071859496" lon="-0.4927187481485219"><ele>206.0</ele><time>2026-05-04T10:45:54Z</time></trkpt><trkpt lat="41.51016470700209" lon="-0.4925676976265413"><ele>206.0</ele><time>2026-05-04T10:45:55Z</time></trkpt><trkpt lat="41.51016019536623" lon="-0.4924145391756198"><ele>206.0</ele><time>2026-05-04T10:45:56Z</time></trkpt><trkpt lat="41.51015822425495" lon="-0.49225978942260934"><ele>206.0</ele><time>2026-05-04T10:45:57Z</time></trkpt><trkpt lat="41.51015870923974" lon="-0.4921076406542244"><ele>206.0</ele><time>2026-05-04T10:45:58Z</time></trkpt><trkpt lat="41.51016101100053" lon="-0.4919539840070707"><ele>206.0</ele><time>2026-05-04T10:45:59Z</time></trkpt><trkpt lat="41.51016356030536" lon="-0.49179852373226385"><ele>206.0</ele><time>2026-05-04T10:46:00Z</time></trkpt><trkpt lat="41.51017081329509" lon="-0.491647744058036"><ele>205.5</ele><time>2026-05-04T10:46:01Z</time></trkpt><trkpt lat="41.510184202682524" lon="-0.4914969614757411"><ele>205.0</ele><time>2026-05-04T10:46:02Z</time></trkpt><trkpt lat="41.51019860473123" lon="-0.49134796828440364"><ele>204.5</ele><time>2026-05-04T10:46:03Z</time></trkpt><trkpt lat="41.51021305066535" lon="-0.49119589416031084"><ele>204.0</ele><time>2026-05-04T10:46:04Z</time></trkpt><trkpt lat="41.51022568811484" lon="-0.4910435758985965"><ele>203.5</ele><time>2026-05-04T10:46:05Z</time></trkpt><trkpt lat="41.5102444233495" lon="-0.4908926853263357"><ele>203.0</ele><time>2026-05-04T10:46:06Z</time></trkpt><trkpt lat="41.510263318099206" lon="-0.49073733528055014"><ele>202.5</ele><time>2026-05-04T10:46:07Z</time></trkpt><trkpt lat="41.51027631312686" lon="-0.4905825929188974"><ele>202.0</ele><time>2026-05-04T10:46:08Z</time></trkpt><trkpt lat="41.51028842209098" lon="-0.49042785212766826"><ele>201.75</ele><time>2026-05-04T10:46:09Z</time></trkpt><trkpt lat="41.51030792567501" lon="-0.49027672814062206"><ele>201.5</ele><time>2026-05-04T10:46:10Z</time></trkpt><trkpt lat="41.51032712676252" lon="-0.49012641399387974"><ele>201.25</ele><time>2026-05-04T10:46:11Z</time></trkpt><trkpt lat="41.51034488331149" lon="-0.4899706774986667"><ele>201.0</ele><time>2026-05-04T10:46:12Z</time></trkpt><trkpt lat="41.510362075805816" lon="-0.48981906982149825"><ele>201.0</ele><time>2026-05-04T10:46:13Z</time></trkpt><trkpt lat="41.51037746179668" lon="-0.48966504776102027"><ele>201.0</ele><time>2026-05-04T10:46:14Z</time></trkpt><trkpt lat="41.51039517183623" lon="-0.489512061640968"><ele>201.0</ele><time>2026-05-04T10:46:15Z</time></trkpt><trkpt lat="41.51040990889173" lon="-0.48935534365666183"><ele>201.0</ele><time>2026-05-04T10:46:16Z</time></trkpt><trkpt lat="41.51042637051672" lon="-0.4892043713322224"><ele>200.25</ele><time>2026-05-04T10:46:17Z</time></trkpt><trkpt lat="41.51044364185763" lon="-0.48905525492115415"><ele>199.5</ele><time>2026-05-04T10:46:18Z</time></trkpt><trkpt lat="41.51045950741193" lon="-0.4889027467103845"><ele>198.75</ele><time>2026-05-04T10:46:19Z</time></trkpt><trkpt lat="41.51047998275298" lon="-0.4887514371066141"><ele>198.0</ele><time>2026-05-04T10:46:20Z</time></trkpt><trkpt lat="41.510495440953854" lon="-0.4886009739677466"><ele>198.0</ele><time>2026-05-04T10:46:21Z</time></trkpt><trkpt lat="41.51051185186243" lon="-0.4884489369333417"><ele>198.0</ele><time>2026-05-04T10:46:22Z</time></trkpt><trkpt lat="41.510526379040705" lon="-0.4882947384433632"><ele>198.0</ele><time>2026-05-04T10:46:23Z</time></trkpt><trkpt lat="41.510544669992086" lon="-0.4881426826567748"><ele>198.0</ele><time>2026-05-04T10:46:24Z</time></trkpt><trkpt lat="41.51056289097911" lon="-0.48798858599023426"><ele>198.25</ele><time>2026-05-04T10:46:25Z</time></trkpt><trkpt lat="41.5105801408311" lon="-0.4878370798105677"><ele>198.5</ele><time>2026-05-04T10:46:26Z</time></trkpt><trkpt lat="41.51060141452488" lon="-0.4876832103854765"><ele>198.75</ele><time>2026-05-04T10:46:27Z</time></trkpt><trkpt lat="41.51062226673537" lon="-0.48753087627631525"><ele>199.0</ele><time>2026-05-04T10:46:28Z</time></trkpt><trkpt lat="41.510644835997184" lon="-0.4873785271867489"><ele>199.0</ele><time>2026-05-04T10:46:29Z</time></trkpt><trkpt lat="41.510661566947626" lon="-0.4872277132709627"><ele>199.0</ele><time>2026-05-04T10:46:30Z</time></trkpt><trkpt lat="41.51068170325673" lon="-0.48707987671220276"><ele>199.0</ele><time>2026-05-04T10:46:31Z</time></trkpt><trkpt lat="41.51070124072484" lon="-0.48692922321587817"><ele>199.0</ele><time>2026-05-04T10:46:32Z</time></trkpt><trkpt lat="41.5107173456477" lon="-0.4867788392408698"><ele>199.0</ele><time>2026-05-04T10:46:33Z</time></trkpt><trkpt lat="41.51073758439347" lon="-0.48662711592805713"><ele>199.0</ele><time>2026-05-04T10:46:34Z</time></trkpt><trkpt lat="41.510754082560936" lon="-0.4864740625865304"><ele>199.0</ele><time>2026-05-04T10:46:35Z</time></trkpt><trkpt lat="41.510773782028096" lon="-0.48632389591852676"><ele>199.0</ele><time>2026-05-04T10:46:36Z</time></trkpt><trkpt lat="41.510791600532514" lon="-0.4861712759386658"><ele>198.75</ele><time>2026-05-04T10:46:37Z</time></trkpt><trkpt lat="41.5108100854552" lon="-0.48601927950685925"><ele>198.5</ele><time>2026-05-04T10:46:38Z</time></trkpt><trkpt lat="41.51083023801297" lon="-0.4858702311693457"><ele>198.25</ele><time>2026-05-04T10:46:39Z</time></trkpt><trkpt lat="41.51084599772773" lon="-0.48571931634994364"><ele>198.0</ele><time>2026-05-04T10:46:40Z</time></trkpt><trkpt lat="41.51086647113247" lon="-0.48556974687011845"><ele>197.5</ele><time>2026-05-04T10:46:41Z</time></trkpt><trkpt lat="41.51088473787829" lon="-0.4854206155332447"><ele>197.0</ele><time>2026-05-04T10:46:42Z</time></trkpt><trkpt lat="41.51089872328598" lon="-0.48526655367314614"><ele>196.5</ele><time>2026-05-04T10:46:43Z</time></trkpt><trkpt lat="41.51091819610489" lon="-0.4851190823021249"><ele>196.0</ele><time>2026-05-04T10:46:44Z</time></trkpt><trkpt lat="41.51093451045138" lon="-0.4849683530875681"><ele>196.0</ele><time>2026-05-04T10:46:45Z</time></trkpt><trkpt lat="41.510955355992785" lon="-0.48481667761216996"><ele>196.0</ele><time>2026-05-04T10:46:46Z</time></trkpt><trkpt lat="41.510972769241754" lon="-0.4846670776729319"><ele>196.0</ele><time>2026-05-04T10:46:47Z</time></trkpt><trkpt lat="41.510988017936235" lon="-0.4845172576578649"><ele>196.0</ele><time>2026-05-04T10:46:48Z</time></trkpt><trkpt lat="41.51100781764005" lon="-0.48436299493246837"><ele>196.5</ele><time>2026-05-04T10:46:49Z</time></trkpt><trkpt lat="41.51103084531841" lon="-0.4842146157566277"><ele>197.0</ele><time>2026-05-04T10:46:50Z</time></trkpt><trkpt lat="41.51104818109449" lon="-0.4840654294619411"><ele>197.5</ele><time>2026-05-04T10:46:51.001Z</time></trkpt><trkpt lat="41.51106554375736" lon="-0.4839165283630388"><ele>198.0</ele><time>2026-05-04T10:46:52.001Z</time></trkpt><trkpt lat="41.511084691337004" lon="-0.48376631500110356"><ele>198.0</ele><time>2026-05-04T10:46:53.001Z</time></trkpt><trkpt lat="41.511102597759205" lon="-0.48361745487131924"><ele>198.0</ele><time>2026-05-04T10:46:54.001Z</time></trkpt><trkpt lat="41.51112028638809" lon="-0.48346891445450696"><ele>198.0</ele><time>2026-05-04T10:46:55.001Z</time></trkpt><trkpt lat="41.511139690324725" lon="-0.4833185008464945"><ele>198.0</ele><time>2026-05-04T10:46:56.001Z</time></trkpt><trkpt lat="41.51115694191537" lon="-0.48316901855024336"><ele>198.0</ele><time>2026-05-04T10:46:57.001Z</time></trkpt><trkpt lat="41.511172699991945" lon="-0.4830149590094955"><ele>198.0</ele><time>2026-05-04T10:46:58.001Z</time></trkpt><trkpt lat="41.51119232634061" lon="-0.4828647520695482"><ele>198.0</ele><time>2026-05-04T10:46:59.001Z</time></trkpt><trkpt lat="41.511212286466154" lon="-0.4827130975342874"><ele>198.0</ele><time>2026-05-04T10:47:00.001Z</time></trkpt><trkpt lat="41.511229509428574" lon="-0.48256439032229703"><ele>198.25</ele><time>2026-05-04T10:47:01.001Z</time></trkpt><trkpt lat="41.51124593521159" lon="-0.48241366007567443"><ele>198.5</ele><time>2026-05-04T10:47:02.001Z</time></trkpt><trkpt lat="41.51126368462804" lon="-0.48226205249869347"><ele>198.75</ele><time>2026-05-04T10:47:03.001Z</time></trkpt><trkpt lat="41.51127112517101" lon="-0.48211213362828215"><ele>199.0</ele><time>2026-05-04T10:47:04.001Z</time></trkpt><trkpt lat="41.51128712747749" lon="-0.48196196494777244"><ele>199.0</ele><time>2026-05-04T10:47:05.001Z</time></trkpt><trkpt lat="41.51130854884205" lon="-0.48181147805518204"><ele>199.0</ele><time>2026-05-04T10:47:06.001Z</time></trkpt><trkpt lat="41.511326185287984" lon="-0.48166277860931656"><ele>199.0</ele><time>2026-05-04T10:47:07.001Z</time></trkpt><trkpt lat="41.51134189962503" lon="-0.4815104684883546"><ele>199.0</ele><time>2026-05-04T10:47:08.001Z</time></trkpt><trkpt lat="41.511329403209125" lon="-0.4813309137623377"><ele>199.0</ele><time>2026-05-04T10:47:09.001Z</time></trkpt><trkpt lat="41.5113875921453" lon="-0.4812197969382578"><ele>199.0</ele><time>2026-05-04T10:47:10.001Z</time></trkpt><trkpt lat="41.51140349449963" lon="-0.4810773262215903"><ele>199.0</ele><time>2026-05-04T10:47:11.001Z</time></trkpt><trkpt lat="41.511436681678475" lon="-0.4809478788451185"><ele>199.0</ele><time>2026-05-04T10:47:12.001Z</time></trkpt><trkpt lat="41.511450144913496" lon="-0.480830135193372"><ele>199.0</ele><time>2026-05-04T10:47:13.001Z</time></trkpt><trkpt lat="41.51145620900401" lon="-0.48062077589076996"><ele>199.0</ele><time>2026-05-04T10:47:14.001Z</time></trkpt><trkpt lat="41.5114755705964" lon="-0.4804697245558957"><ele>199.0</ele><time>2026-05-04T10:47:15.001Z</time></trkpt><trkpt lat="41.511495418489076" lon="-0.4803206572920495"><ele>199.0</ele><time>2026-05-04T10:47:16.001Z</time></trkpt><trkpt lat="41.51151369194979" lon="-0.48017000974449264"><ele>199.0</ele><time>2026-05-04T10:47:17.001Z</time></trkpt><trkpt lat="41.51152822276924" lon="-0.48001958852392207"><ele>199.5</ele><time>2026-05-04T10:47:18.001Z</time></trkpt><trkpt lat="41.511546104926" lon="-0.47986823250720334"><ele>200.0</ele><time>2026-05-04T10:47:19.001Z</time></trkpt><trkpt lat="41.51156716210088" lon="-0.4797174345565134"><ele>200.5</ele><time>2026-05-04T10:47:20.001Z</time></trkpt><trkpt lat="41.51158636494292" lon="-0.47956577110286935"><ele>201.0</ele><time>2026-05-04T10:47:21.001Z</time></trkpt><trkpt lat="41.511603529949724" lon="-0.4794149899307555"><ele>201.5</ele><time>2026-05-04T10:47:22.001Z</time></trkpt><trkpt lat="41.511617710689485" lon="-0.4792656188515214"><ele>202.0</ele><time>2026-05-04T10:47:23.001Z</time></trkpt><trkpt lat="41.51163824218733" lon="-0.47911371423410226"><ele>202.5</ele><time>2026-05-04T10:47:24.001Z</time></trkpt><trkpt lat="41.51165713370863" lon="-0.47896227384062845"><ele>203.0</ele><time>2026-05-04T10:47:25.001Z</time></trkpt><trkpt lat="41.51167511537619" lon="-0.47880880456988945"><ele>202.5</ele><time>2026-05-04T10:47:26.001Z</time></trkpt><trkpt lat="41.51169378876073" lon="-0.47865643939197206"><ele>202.0</ele><time>2026-05-04T10:47:27.001Z</time></trkpt><trkpt lat="41.51170895796884" lon="-0.47850260498265573"><ele>201.5</ele><time>2026-05-04T10:47:28.001Z</time></trkpt><trkpt lat="41.51172682855251" lon="-0.4783492791747195"><ele>201.0</ele><time>2026-05-04T10:47:29.001Z</time></trkpt><trkpt lat="41.51174702769393" lon="-0.4781980684307369"><ele>201.0</ele><time>2026-05-04T10:47:30.001Z</time></trkpt><trkpt lat="41.511765121073495" lon="-0.4780426044644341"><ele>201.0</ele><time>2026-05-04T10:47:31.001Z</time></trkpt><trkpt lat="41.511789608200345" lon="-0.47789616476598823"><ele>201.0</ele><time>2026-05-04T10:47:32.001Z</time></trkpt><trkpt lat="41.511802654969465" lon="-0.4777424685721148"><ele>201.0</ele><time>2026-05-04T10:47:33.001Z</time></trkpt><trkpt lat="41.5118220771663" lon="-0.47758942355105305"><ele>201.0</ele><time>2026-05-04T10:47:34.001Z</time></trkpt><trkpt lat="41.51184119310982" lon="-0.4774379106535698"><ele>201.0</ele><time>2026-05-04T10:47:35.001Z</time></trkpt><trkpt lat="41.511860348121594" lon="-0.4772874160616626"><ele>201.0</ele><time>2026-05-04T10:47:36.001Z</time></trkpt><trkpt lat="41.51187790010394" lon="-0.47713786425868393"><ele>201.0</ele><time>2026-05-04T10:47:37.001Z</time></trkpt><trkpt lat="41.51189785258478" lon="-0.4769875856005512"><ele>201.25</ele><time>2026-05-04T10:47:38.001Z</time></trkpt><trkpt lat="41.51191541567368" lon="-0.4768370031751354"><ele>201.5</ele><time>2026-05-04T10:47:39.001Z</time></trkpt><trkpt lat="41.511933335249815" lon="-0.4766855702519326"><ele>201.75</ele><time>2026-05-04T10:47:40.001Z</time></trkpt><trkpt lat="41.51195063291841" lon="-0.4765345971697688"><ele>202.0</ele><time>2026-05-04T10:47:41.001Z</time></trkpt><trkpt lat="41.511968941578836" lon="-0.47638423309147804"><ele>202.25</ele><time>2026-05-04T10:47:42.001Z</time></trkpt><trkpt lat="41.51198675696637" lon="-0.47623465280806987"><ele>202.5</ele><time>2026-05-04T10:47:43.001Z</time></trkpt><trkpt lat="41.51201029041012" lon="-0.47608813376038517"><ele>202.75</ele><time>2026-05-04T10:47:44.001Z</time></trkpt><trkpt lat="41.51203199354248" lon="-0.4759362606066981"><ele>203.0</ele><time>2026-05-04T10:47:45.001Z</time></trkpt><trkpt lat="41.512034951719855" lon="-0.47577806072653506"><ele>203.0</ele><time>2026-05-04T10:47:46.001Z</time></trkpt><trkpt lat="41.51206424984097" lon="-0.47563901272192277"><ele>203.0</ele><time>2026-05-04T10:47:47.001Z</time></trkpt><trkpt lat="41.51208351507812" lon="-0.47548432905071836"><ele>203.0</ele><time>2026-05-04T10:47:48.001Z</time></trkpt><trkpt lat="41.51210869997653" lon="-0.47533451730508225"><ele>203.0</ele><time>2026-05-04T10:47:49.001Z</time></trkpt><trkpt lat="41.512125947980905" lon="-0.47518575432999466"><ele>203.2</ele><time>2026-05-04T10:47:50.001Z</time></trkpt><trkpt lat="41.51214125180512" lon="-0.4750432399976807"><ele>203.4</ele><time>2026-05-04T10:47:51.001Z</time></trkpt><trkpt lat="41.51216011774697" lon="-0.47489963923933115"><ele>203.6</ele><time>2026-05-04T10:47:52.001Z</time></trkpt><trkpt lat="41.5121792391022" lon="-0.4747526621958498"><ele>203.79999999999998</ele><time>2026-05-04T10:47:53.001Z</time></trkpt><trkpt lat="41.51219611627769" lon="-0.47460655155763865"><ele>204.0</ele><time>2026-05-04T10:47:54.001Z</time></trkpt><trkpt lat="41.512217765072066" lon="-0.4744600306927678"><ele>204.25</ele><time>2026-05-04T10:47:55.001Z</time></trkpt><trkpt lat="41.51223443269747" lon="-0.4743157058926235"><ele>204.5</ele><time>2026-05-04T10:47:56Z</time></trkpt><trkpt lat="41.51225173727106" lon="-0.4741638870555705"><ele>204.75</ele><time>2026-05-04T10:47:57Z</time></trkpt><trkpt lat="41.51226715919714" lon="-0.47401470260325546"><ele>205.0</ele><time>2026-05-04T10:47:58Z</time></trkpt><trkpt lat="41.51228456468294" lon="-0.4738643025744604"><ele>205.0</ele><time>2026-05-04T10:47:59Z</time></trkpt><trkpt lat="41.51230368138076" lon="-0.47371465017542386"><ele>205.0</ele><time>2026-05-04T10:48:00Z</time></trkpt><trkpt lat="41.512321044632635" lon="-0.47356408593996885"><ele>205.0</ele><time>2026-05-04T10:48:01Z</time></trkpt><trkpt lat="41.51233881784277" lon="-0.4734138533053879"><ele>205.0</ele><time>2026-05-04T10:48:02Z</time></trkpt><trkpt lat="41.512354336519245" lon="-0.4732658857507433"><ele>205.0</ele><time>2026-05-04T10:48:03Z</time></trkpt><trkpt lat="41.5123716741793" lon="-0.4731194659828879"><ele>205.0</ele><time>2026-05-04T10:48:04Z</time></trkpt><trkpt lat="41.51239305025904" lon="-0.4729691598249876"><ele>205.0</ele><time>2026-05-04T10:48:05Z</time></trkpt><trkpt lat="41.51241171204972" lon="-0.47282202879386187"><ele>205.0</ele><time>2026-05-04T10:48:06Z</time></trkpt><trkpt lat="41.512431331430896" lon="-0.4726724959936754"><ele>205.25</ele><time>2026-05-04T10:48:07Z</time></trkpt><trkpt lat="41.51244828610091" lon="-0.4725216895994772"><ele>205.5</ele><time>2026-05-04T10:48:08Z</time></trkpt><trkpt lat="41.51246519697879" lon="-0.47237255203049394"><ele>205.75</ele><time>2026-05-04T10:48:09Z</time></trkpt><trkpt lat="41.51248294190595" lon="-0.4722217964835705"><ele>206.0</ele><time>2026-05-04T10:48:10Z</time></trkpt><trkpt lat="41.51250204957534" lon="-0.47207360384206104"><ele>206.0</ele><time>2026-05-04T10:48:11Z</time></trkpt><trkpt lat="41.51247085095867" lon="-0.47181146578945166"><ele>206.0</ele><time>2026-05-04T10:48:12Z</time></trkpt><trkpt lat="41.51253620723083" lon="-0.4717818214470323"><ele>206.0</ele><time>2026-05-04T10:48:13Z</time></trkpt><trkpt lat="41.51255461890549" lon="-0.4716321117196612"><ele>206.0</ele><time>2026-05-04T10:48:14Z</time></trkpt><trkpt lat="41.51257232727984" lon="-0.47148492016510635"><ele>206.0</ele><time>2026-05-04T10:48:15Z</time></trkpt><trkpt lat="41.51259013957309" lon="-0.4713380574665667"><ele>206.0</ele><time>2026-05-04T10:48:16Z</time></trkpt><trkpt lat="41.51260919327624" lon="-0.4711945908340658"><ele>206.0</ele><time>2026-05-04T10:48:17Z</time></trkpt><trkpt lat="41.51262979841006" lon="-0.47104741546859347"><ele>206.0</ele><time>2026-05-04T10:48:18Z</time></trkpt><trkpt lat="41.51264527714798" lon="-0.4708980193197541"><ele>206.0</ele><time>2026-05-04T10:48:19Z</time></trkpt><trkpt lat="41.51266350577262" lon="-0.4707513792634638"><ele>206.0</ele><time>2026-05-04T10:48:20Z</time></trkpt><trkpt lat="41.512686888854766" lon="-0.47060284257069757"><ele>206.0</ele><time>2026-05-04T10:48:21Z</time></trkpt><trkpt lat="41.51270557213272" lon="-0.47045185798967676"><ele>206.0</ele><time>2026-05-04T10:48:22Z</time></trkpt><trkpt lat="41.51272395698102" lon="-0.47030380407421984"><ele>206.0</ele><time>2026-05-04T10:48:23Z</time></trkpt><trkpt lat="41.512741123105194" lon="-0.4701538813641857"><ele>205.8</ele><time>2026-05-04T10:48:24Z</time></trkpt><trkpt lat="41.51276056520721" lon="-0.47000835838319444"><ele>205.60000000000002</ele><time>2026-05-04T10:48:25Z</time></trkpt><trkpt lat="41.51277805532722" lon="-0.4698606391336382"><ele>205.4</ele><time>2026-05-04T10:48:26Z</time></trkpt><trkpt lat="41.51279431149825" lon="-0.46971571947925417"><ele>205.2</ele><time>2026-05-04T10:48:27Z</time></trkpt><trkpt lat="41.51281203621948" lon="-0.4695649185443373"><ele>205.0</ele><time>2026-05-04T10:48:28Z</time></trkpt><trkpt lat="41.51283165573173" lon="-0.46941734198230384"><ele>205.4</ele><time>2026-05-04T10:48:29Z</time></trkpt><trkpt lat="41.512850575855744" lon="-0.46927006340042593"><ele>205.8</ele><time>2026-05-04T10:48:30Z</time></trkpt><trkpt lat="41.512868637578194" lon="-0.46912170963478467"><ele>206.2</ele><time>2026-05-04T10:48:31Z</time></trkpt><trkpt lat="41.51288736335701" lon="-0.4689762075051813"><ele>206.6</ele><time>2026-05-04T10:48:32Z</time></trkpt><trkpt lat="41.512904711227094" lon="-0.46883010123093505"><ele>207.0</ele><time>2026-05-04T10:48:33Z</time></trkpt><trkpt lat="41.51292113405475" lon="-0.4686855397687567"><ele>207.8</ele><time>2026-05-04T10:48:34Z</time></trkpt><trkpt lat="41.51294074677949" lon="-0.4685381223729162"><ele>208.6</ele><time>2026-05-04T10:48:35Z</time></trkpt><trkpt lat="41.512957695451256" lon="-0.46839382515988315"><ele>209.4</ele><time>2026-05-04T10:48:36Z</time></trkpt><trkpt lat="41.51297807246636" lon="-0.4682484493862365"><ele>210.20000000000002</ele><time>2026-05-04T10:48:37Z</time></trkpt><trkpt lat="41.512995736888655" lon="-0.46810651506538864"><ele>211.0</ele><time>2026-05-04T10:48:38Z</time></trkpt><trkpt lat="41.51300981569312" lon="-0.46796280591190875"><ele>211.0</ele><time>2026-05-04T10:48:39Z</time></trkpt><trkpt lat="41.51302605721879" lon="-0.46781519168530356"><ele>211.0</ele><time>2026-05-04T10:48:40Z</time></trkpt><trkpt lat="41.51304067703056" lon="-0.467675596274364"><ele>211.0</ele><time>2026-05-04T10:48:41Z</time></trkpt><trkpt lat="41.51305979632839" lon="-0.4675301522500469"><ele>211.0</ele><time>2026-05-04T10:48:42Z</time></trkpt><trkpt lat="41.51307721685975" lon="-0.46738821426872357"><ele>211.0</ele><time>2026-05-04T10:48:43Z</time></trkpt><trkpt lat="41.51309611867067" lon="-0.467240609195035"><ele>211.0</ele><time>2026-05-04T10:48:44.001Z</time></trkpt><trkpt lat="41.51311205263795" lon="-0.4670960291050657"><ele>211.0</ele><time>2026-05-04T10:48:45.001Z</time></trkpt><trkpt lat="41.51313061041543" lon="-0.466951021340167"><ele>211.0</ele><time>2026-05-04T10:48:46.001Z</time></trkpt><trkpt lat="41.51314894928539" lon="-0.4667998851881134"><ele>211.0</ele><time>2026-05-04T10:48:47.001Z</time></trkpt><trkpt lat="41.51316645956144" lon="-0.46665845158769026"><ele>211.0</ele><time>2026-05-04T10:48:48.001Z</time></trkpt><trkpt lat="41.51318406675218" lon="-0.46650711196521394"><ele>211.0</ele><time>2026-05-04T10:48:49.001Z</time></trkpt><trkpt lat="41.51320352563834" lon="-0.46635752157627564"><ele>211.0</ele><time>2026-05-04T10:48:50.001Z</time></trkpt><trkpt lat="41.51322259477658" lon="-0.4662083065764456"><ele>211.0</ele><time>2026-05-04T10:48:51.001Z</time></trkpt><trkpt lat="41.5132365817493" lon="-0.46606619495901447"><ele>211.0</ele><time>2026-05-04T10:48:52.001Z</time></trkpt><trkpt lat="41.51325918567483" lon="-0.4659237650313431"><ele>211.0</ele><time>2026-05-04T10:48:53.001Z</time></trkpt><trkpt lat="41.51327236612472" lon="-0.465774662057952"><ele>211.20000000000002</ele><time>2026-05-04T10:48:54.001Z</time></trkpt><trkpt lat="41.51328753419932" lon="-0.46562987539812867"><ele>211.4</ele><time>2026-05-04T10:48:55.001Z</time></trkpt><trkpt lat="41.513304224063745" lon="-0.46548602268627265"><ele>211.6</ele><time>2026-05-04T10:48:56.001Z</time></trkpt><trkpt lat="41.513323104194534" lon="-0.46534056224486087"><ele>211.8</ele><time>2026-05-04T10:48:57.001Z</time></trkpt><trkpt lat="41.513339062547736" lon="-0.4651971386422067"><ele>212.0</ele><time>2026-05-04T10:48:58.001Z</time></trkpt><trkpt lat="41.513357740737504" lon="-0.4650557090636017"><ele>212.0</ele><time>2026-05-04T10:48:59.001Z</time></trkpt><trkpt lat="41.51337823256909" lon="-0.4649129228519331"><ele>212.0</ele><time>2026-05-04T10:49:00.001Z</time></trkpt><trkpt lat="41.51340232691558" lon="-0.46477267054325905"><ele>212.0</ele><time>2026-05-04T10:49:01.001Z</time></trkpt><trkpt lat="41.51342714166211" lon="-0.464630548615707"><ele>212.0</ele><time>2026-05-04T10:49:02.001Z</time></trkpt><trkpt lat="41.51345137732096" lon="-0.4644872775284978"><ele>212.0</ele><time>2026-05-04T10:49:03.001Z</time></trkpt><trkpt lat="41.51347697354481" lon="-0.4643310676560996"><ele>212.0</ele><time>2026-05-04T10:49:04.001Z</time></trkpt><trkpt lat="41.5135071981817" lon="-0.4641898152013778"><ele>212.0</ele><time>2026-05-04T10:49:05.001Z</time></trkpt><trkpt lat="41.513540216529925" lon="-0.46403955568962824"><ele>212.0</ele><time>2026-05-04T10:49:06.001Z</time></trkpt><trkpt lat="41.51357283210911" lon="-0.463888944540856"><ele>212.0</ele><time>2026-05-04T10:49:07.001Z</time></trkpt><trkpt lat="41.513602778736605" lon="-0.4637340476772869"><ele>212.0</ele><time>2026-05-04T10:49:08.001Z</time></trkpt><trkpt lat="41.51363588615129" lon="-0.46358193068740305"><ele>212.0</ele><time>2026-05-04T10:49:09.001Z</time></trkpt><trkpt lat="41.51366790908495" lon="-0.4634322577934242"><ele>212.0</ele><time>2026-05-04T10:49:10.001Z</time></trkpt><trkpt lat="41.513698416669115" lon="-0.4632806955344301"><ele>212.0</ele><time>2026-05-04T10:49:11.001Z</time></trkpt><trkpt lat="41.51373006295377" lon="-0.46313009658848037"><ele>212.25</ele><time>2026-05-04T10:49:12.001Z</time></trkpt><trkpt lat="41.51376079042617" lon="-0.46298176947792685"><ele>212.5</ele><time>2026-05-04T10:49:13.001Z</time></trkpt><trkpt lat="41.51379093925178" lon="-0.46283599929518754"><ele>212.75</ele><time>2026-05-04T10:49:14.001Z</time></trkpt><trkpt lat="41.513821523762836" lon="-0.4626902130425132"><ele>213.0</ele><time>2026-05-04T10:49:15.001Z</time></trkpt><trkpt lat="41.513848819888814" lon="-0.4625440777172502"><ele>213.0</ele><time>2026-05-04T10:49:16.001Z</time></trkpt><trkpt lat="41.51388052880864" lon="-0.4623980110986668"><ele>213.0</ele><time>2026-05-04T10:49:17.001Z</time></trkpt><trkpt lat="41.51391014907551" lon="-0.46225398452165545"><ele>213.0</ele><time>2026-05-04T10:49:18.001Z</time></trkpt><trkpt lat="41.51393750868379" lon="-0.4621068879026988"><ele>213.0</ele><time>2026-05-04T10:49:19.001Z</time></trkpt><trkpt lat="41.51397009630515" lon="-0.4619578899231496"><ele>213.0</ele><time>2026-05-04T10:49:20.001Z</time></trkpt><trkpt lat="41.51399820411298" lon="-0.46182083661790274"><ele>213.0</ele><time>2026-05-04T10:49:21.001Z</time></trkpt><trkpt lat="41.51402372679053" lon="-0.46165601408619916"><ele>213.0</ele><time>2026-05-04T10:49:22.001Z</time></trkpt><trkpt lat="41.514053767855884" lon="-0.46141639238866733"><ele>213.0</ele><time>2026-05-04T10:49:23.001Z</time></trkpt><trkpt lat="41.51410417264245" lon="-0.4612386019925149"><ele>213.2</ele><time>2026-05-04T10:49:25.001Z</time></trkpt><trkpt lat="41.51412686053717" lon="-0.4610922308479617"><ele>213.4</ele><time>2026-05-04T10:49:26.001Z</time></trkpt><trkpt lat="41.5141498706847" lon="-0.46094459995014353"><ele>213.59999999999997</ele><time>2026-05-04T10:49:27.001Z</time></trkpt><trkpt lat="41.514156106953784" lon="-0.46079872863198484"><ele>213.79999999999998</ele><time>2026-05-04T10:49:28.001Z</time></trkpt><trkpt lat="41.514164222480616" lon="-0.46064532411948866"><ele>214.0</ele><time>2026-05-04T10:49:29.001Z</time></trkpt><trkpt lat="41.51416426963508" lon="-0.46049439199231657"><ele>214.0</ele><time>2026-05-04T10:49:30.001Z</time></trkpt><trkpt lat="41.51416311452811" lon="-0.46034461923195147"><ele>213.99999999999997</ele><time>2026-05-04T10:49:31.001Z</time></trkpt><trkpt lat="41.51416093249651" lon="-0.46019612542195726"><ele>213.99999999999997</ele><time>2026-05-04T10:49:32.001Z</time></trkpt><trkpt lat="41.514156943199005" lon="-0.46004935485669596"><ele>214.0</ele><time>2026-05-04T10:49:33.001Z</time></trkpt><trkpt lat="41.514155501411715" lon="-0.45990038825364904"><ele>214.0</ele><time>2026-05-04T10:49:34.001Z</time></trkpt><trkpt lat="41.5141505269577" lon="-0.45975267973252637"><ele>214.0</ele><time>2026-05-04T10:49:35.001Z</time></trkpt><trkpt lat="41.514147620106854" lon="-0.4596002774260446"><ele>214.0</ele><time>2026-05-04T10:49:36.001Z</time></trkpt><trkpt lat="41.51414700205182" lon="-0.4594478271253719"><ele>214.0</ele><time>2026-05-04T10:49:37.001Z</time></trkpt><trkpt lat="41.514145670959124" lon="-0.4592976205024907"><ele>214.0</ele><time>2026-05-04T10:49:38.001Z</time></trkpt><trkpt lat="41.51413913791309" lon="-0.4591388883704803"><ele>214.0</ele><time>2026-05-04T10:49:39.001Z</time></trkpt><trkpt lat="41.51413603910276" lon="-0.4589866060251204"><ele>214.0</ele><time>2026-05-04T10:49:40.001Z</time></trkpt><trkpt lat="41.51413560499912" lon="-0.4588340438089024"><ele>214.0</ele><time>2026-05-04T10:49:41.001Z</time></trkpt><trkpt lat="41.514136527556566" lon="-0.4586818705618851"><ele>214.0</ele><time>2026-05-04T10:49:42.001Z</time></trkpt><trkpt lat="41.51413365577188" lon="-0.45852905559104035"><ele>214.5</ele><time>2026-05-04T10:49:43.001Z</time></trkpt><trkpt lat="41.51413204001916" lon="-0.4583762220238"><ele>215.0</ele><time>2026-05-04T10:49:44.001Z</time></trkpt><trkpt lat="41.51412808337572" lon="-0.4582277230746606"><ele>215.5</ele><time>2026-05-04T10:49:45.001Z</time></trkpt><trkpt lat="41.51412845921582" lon="-0.45807879505056776"><ele>216.0</ele><time>2026-05-04T10:49:46.001Z</time></trkpt><trkpt lat="41.51412152494956" lon="-0.4578083220056189"><ele>216.4</ele><time>2026-05-04T10:49:48.001Z</time></trkpt><trkpt lat="41.514118318752224" lon="-0.4576591937620512"><ele>216.8</ele><time>2026-05-04T10:49:49.001Z</time></trkpt><trkpt lat="41.514113216903716" lon="-0.4575145112847657"><ele>217.20000000000002</ele><time>2026-05-04T10:49:50.001Z</time></trkpt><trkpt lat="41.51410703532053" lon="-0.45737189473475914"><ele>217.60000000000002</ele><time>2026-05-04T10:49:51.001Z</time></trkpt><trkpt lat="41.51410563944759" lon="-0.45722514869313674"><ele>218.0</ele><time>2026-05-04T10:49:52.001Z</time></trkpt><trkpt lat="41.51410222166866" lon="-0.45708135137545347"><ele>218.2</ele><time>2026-05-04T10:49:53.001Z</time></trkpt><trkpt lat="41.514099419117954" lon="-0.4569389410984167"><ele>218.4</ele><time>2026-05-04T10:49:54.001Z</time></trkpt><trkpt lat="41.51409973036084" lon="-0.45679375687231555"><ele>218.59999999999997</ele><time>2026-05-04T10:49:55.001Z</time></trkpt><trkpt lat="41.514098794179304" lon="-0.4566494473259946"><ele>218.79999999999998</ele><time>2026-05-04T10:49:56.001Z</time></trkpt><trkpt lat="41.514095873925584" lon="-0.45650806149474144"><ele>219.0</ele><time>2026-05-04T10:49:57.002Z</time></trkpt><trkpt lat="41.514094157364696" lon="-0.45636419647426274"><ele>219.0</ele><time>2026-05-04T10:49:58.002Z</time></trkpt><trkpt lat="41.514089584102614" lon="-0.4562223724105154"><ele>218.99999999999997</ele><time>2026-05-04T10:49:59.002Z</time></trkpt><trkpt lat="41.51408738205284" lon="-0.45607949417977334"><ele>218.99999999999997</ele><time>2026-05-04T10:50:00.002Z</time></trkpt><trkpt lat="41.5140824359766" lon="-0.45593728116688376"><ele>219.0</ele><time>2026-05-04T10:50:01.002Z</time></trkpt><trkpt lat="41.514078757854506" lon="-0.45579600154790495"><ele>219.0</ele><time>2026-05-04T10:50:02Z</time></trkpt><trkpt lat="41.51407758235669" lon="-0.4556535004345291"><ele>219.0</ele><time>2026-05-04T10:50:03Z</time></trkpt><trkpt lat="41.51407430618824" lon="-0.4555118131791513"><ele>218.99999999999997</ele><time>2026-05-04T10:50:04Z</time></trkpt><trkpt lat="41.51407111314179" lon="-0.4553716962360948"><ele>218.99999999999997</ele><time>2026-05-04T10:50:05Z</time></trkpt><trkpt lat="41.514071325699284" lon="-0.4552319651941563"><ele>219.0</ele><time>2026-05-04T10:50:06Z</time></trkpt><trkpt lat="41.514071489046394" lon="-0.45509197163570153"><ele>219.0</ele><time>2026-05-04T10:50:07Z</time></trkpt><trkpt lat="41.51407093864343" lon="-0.4549542961645808"><ele>219.6</ele><time>2026-05-04T10:50:08Z</time></trkpt><trkpt lat="41.51407072892867" lon="-0.45481588928679545"><ele>220.2</ele><time>2026-05-04T10:50:09Z</time></trkpt><trkpt lat="41.51406809483692" lon="-0.4546774066229249"><ele>220.79999999999998</ele><time>2026-05-04T10:50:10Z</time></trkpt><trkpt lat="41.514064434060046" lon="-0.4545392113416322"><ele>221.39999999999998</ele><time>2026-05-04T10:50:11Z</time></trkpt><trkpt lat="41.514064459872195" lon="-0.4544027805041414"><ele>222.0</ele><time>2026-05-04T10:50:12Z</time></trkpt><trkpt lat="41.51406590692703" lon="-0.4542661729650432"><ele>222.6</ele><time>2026-05-04T10:50:13Z</time></trkpt><trkpt lat="41.51406826556493" lon="-0.45413059128226313"><ele>223.2</ele><time>2026-05-04T10:50:14Z</time></trkpt><trkpt lat="41.514078431066025" lon="-0.45399509834347956"><ele>223.8</ele><time>2026-05-04T10:50:15Z</time></trkpt><trkpt lat="41.51409750793075" lon="-0.45386192988883417"><ele>224.4</ele><time>2026-05-04T10:50:16Z</time></trkpt><trkpt lat="41.514122912197855" lon="-0.4537298375478698"><ele>225.0</ele><time>2026-05-04T10:50:17Z</time></trkpt><trkpt lat="41.51414250610099" lon="-0.4535974322782608"><ele>225.4</ele><time>2026-05-04T10:50:18Z</time></trkpt><trkpt lat="41.51414793489864" lon="-0.4534654461883219"><ele>225.8</ele><time>2026-05-04T10:50:19Z</time></trkpt><trkpt lat="41.51415004807851" lon="-0.4533330964467046"><ele>226.2</ele><time>2026-05-04T10:50:20Z</time></trkpt><trkpt lat="41.514103687033064" lon="-0.4532088357008341"><ele>226.6</ele><time>2026-05-04T10:50:21Z</time></trkpt><trkpt lat="41.51410095566876" lon="-0.45307431778363705"><ele>227.0</ele><time>2026-05-04T10:50:22Z</time></trkpt><trkpt lat="41.51410856084076" lon="-0.45294093332827445"><ele>227.39999999999998</ele><time>2026-05-04T10:50:23Z</time></trkpt><trkpt lat="41.5141054494324" lon="-0.4528076676740812"><ele>227.79999999999998</ele><time>2026-05-04T10:50:24Z</time></trkpt><trkpt lat="41.514096131761" lon="-0.4526727270582113"><ele>228.2</ele><time>2026-05-04T10:50:25Z</time></trkpt><trkpt lat="41.514078894957244" lon="-0.45254146581495625"><ele>228.6</ele><time>2026-05-04T10:50:26Z</time></trkpt><trkpt lat="41.51406079030126" lon="-0.45241102666628474"><ele>229.0</ele><time>2026-05-04T10:50:27Z</time></trkpt><trkpt lat="41.51404373888632" lon="-0.4522780384827924"><ele>229.0</ele><time>2026-05-04T10:50:28Z</time></trkpt><trkpt lat="41.514024629526325" lon="-0.45214750138271015"><ele>228.99999999999997</ele><time>2026-05-04T10:50:29Z</time></trkpt><trkpt lat="41.5140078850683" lon="-0.45201484211928733"><ele>228.99999999999997</ele><time>2026-05-04T10:50:30Z</time></trkpt><trkpt lat="41.51399512523012" lon="-0.45188206722154817"><ele>229.0</ele><time>2026-05-04T10:50:31Z</time></trkpt><trkpt lat="41.51397857464184" lon="-0.45174751552934983"><ele>229.0</ele><time>2026-05-04T10:50:32Z</time></trkpt><trkpt lat="41.5139599846138" lon="-0.45161255850793874"><ele>229.39999999999998</ele><time>2026-05-04T10:50:33Z</time></trkpt><trkpt lat="41.513944427720396" lon="-0.4514753381859131"><ele>229.79999999999998</ele><time>2026-05-04T10:50:34Z</time></trkpt><trkpt lat="41.51392977690909" lon="-0.4513379113564644"><ele>230.20000000000002</ele><time>2026-05-04T10:50:35Z</time></trkpt><trkpt lat="41.51391351595389" lon="-0.4512010578888192"><ele>230.60000000000002</ele><time>2026-05-04T10:50:36Z</time></trkpt><trkpt lat="41.51390093726637" lon="-0.4510598373910575"><ele>231.0</ele><time>2026-05-04T10:50:37Z</time></trkpt><trkpt lat="41.513887745386086" lon="-0.45092153035302834"><ele>231.20000000000002</ele><time>2026-05-04T10:50:38Z</time></trkpt><trkpt lat="41.51387475024799" lon="-0.4507821108332358"><ele>231.40000000000003</ele><time>2026-05-04T10:50:39Z</time></trkpt><trkpt lat="41.5138602644736" lon="-0.45064237276475566"><ele>231.6</ele><time>2026-05-04T10:50:40Z</time></trkpt><trkpt lat="41.513842018470335" lon="-0.45050362427092844"><ele>231.8</ele><time>2026-05-04T10:50:41Z</time></trkpt><trkpt lat="41.51382274340989" lon="-0.45036845229486433"><ele>232.0</ele><time>2026-05-04T10:50:42Z</time></trkpt><trkpt lat="41.51380375105995" lon="-0.45022969834947757"><ele>232.2</ele><time>2026-05-04T10:50:43Z</time></trkpt><trkpt lat="41.51378608068708" lon="-0.4500889344702157"><ele>232.39999999999998</ele><time>2026-05-04T10:50:44Z</time></trkpt><trkpt lat="41.5137703768233" lon="-0.449950156580305"><ele>232.60000000000002</ele><time>2026-05-04T10:50:45Z</time></trkpt><trkpt lat="41.51375525335639" lon="-0.4498091306499646"><ele>232.8</ele><time>2026-05-04T10:50:46Z</time></trkpt><trkpt lat="41.5137405158693" lon="-0.4496670138296214"><ele>233.0</ele><time>2026-05-04T10:50:47Z</time></trkpt><trkpt lat="41.51372654222899" lon="-0.449527320547454"><ele>234.4</ele><time>2026-05-04T10:50:48Z</time></trkpt><trkpt lat="41.51371298628317" lon="-0.4493895442317848"><ele>235.8</ele><time>2026-05-04T10:50:49Z</time></trkpt><trkpt lat="41.513699069221914" lon="-0.4492481518513594"><ele>237.2</ele><time>2026-05-04T10:50:50Z</time></trkpt><trkpt lat="41.51368461158623" lon="-0.44911102201589853"><ele>238.6</ele><time>2026-05-04T10:50:51.001Z</time></trkpt><trkpt lat="41.51367118586544" lon="-0.4489747766907694"><ele>240.0</ele><time>2026-05-04T10:50:52.001Z</time></trkpt><trkpt lat="41.5136559830809" lon="-0.44883540975004127"><ele>239.6</ele><time>2026-05-04T10:50:53.001Z</time></trkpt><trkpt lat="41.51364076754733" lon="-0.44870016358301296"><ele>239.2</ele><time>2026-05-04T10:50:54.001Z</time></trkpt><trkpt lat="41.51362575627062" lon="-0.4485636401296036"><ele>238.8</ele><time>2026-05-04T10:50:55.001Z</time></trkpt><trkpt lat="41.51360991412652" lon="-0.44842845861523917"><ele>238.4</ele><time>2026-05-04T10:50:56.001Z</time></trkpt><trkpt lat="41.51359256638417" lon="-0.44829220234045986"><ele>238.0</ele><time>2026-05-04T10:50:57.001Z</time></trkpt><trkpt lat="41.51357645843707" lon="-0.44815699422875876"><ele>238.0</ele><time>2026-05-04T10:50:58.001Z</time></trkpt><trkpt lat="41.51356132921524" lon="-0.4480229383522899"><ele>238.0</ele><time>2026-05-04T10:50:59.001Z</time></trkpt><trkpt lat="41.51354680118135" lon="-0.44788861943191527"><ele>238.0</ele><time>2026-05-04T10:51:00.001Z</time></trkpt><trkpt lat="41.513532859948725" lon="-0.4477533606120358"><ele>238.0</ele><time>2026-05-04T10:51:01.001Z</time></trkpt><trkpt lat="41.513517696854436" lon="-0.4476203380409625"><ele>238.0</ele><time>2026-05-04T10:51:02.001Z</time></trkpt><trkpt lat="41.51350294860602" lon="-0.44748911928584956"><ele>243.0</ele><time>2026-05-04T10:51:03.001Z</time></trkpt><trkpt lat="41.5134281667292" lon="-0.4468306539195996"><ele>243.0</ele><time>2026-05-04T10:51:08.001Z</time></trkpt><trkpt lat="41.51341600444456" lon="-0.4467012884341902"><ele>243.0</ele><time>2026-05-04T10:51:09.001Z</time></trkpt><trkpt lat="41.513402199241035" lon="-0.44656987911269497"><ele>243.0</ele><time>2026-05-04T10:51:10.001Z</time></trkpt><trkpt lat="41.51338476134739" lon="-0.44643864771368336"><ele>243.0</ele><time>2026-05-04T10:51:11.001Z</time></trkpt><trkpt lat="41.513370337534894" lon="-0.4463042283635791"><ele>243.0</ele><time>2026-05-04T10:51:12.001Z</time></trkpt><trkpt lat="41.51335524964744" lon="-0.44617270601490877"><ele>243.4</ele><time>2026-05-04T10:51:13.001Z</time></trkpt><trkpt lat="41.513340325881025" lon="-0.44603968511829667"><ele>243.8</ele><time>2026-05-04T10:51:14.001Z</time></trkpt><trkpt lat="41.51332284397353" lon="-0.4459081616645525"><ele>244.2</ele><time>2026-05-04T10:51:15.001Z</time></trkpt><trkpt lat="41.51330541890754" lon="-0.44577459692437776"><ele>244.6</ele><time>2026-05-04T10:51:16.001Z</time></trkpt><trkpt lat="41.5132898122792" lon="-0.44564228263120215"><ele>245.0</ele><time>2026-05-04T10:51:17.001Z</time></trkpt><trkpt lat="41.51327374308901" lon="-0.4455076599598122"><ele>245.4</ele><time>2026-05-04T10:51:18.001Z</time></trkpt><trkpt lat="41.51325668086297" lon="-0.4453765212936296"><ele>245.8</ele><time>2026-05-04T10:51:19.001Z</time></trkpt><trkpt lat="41.51323948433852" lon="-0.4452481121060357"><ele>246.2</ele><time>2026-05-04T10:51:20.001Z</time></trkpt><trkpt lat="41.51321981701149" lon="-0.4451191131260977"><ele>246.6</ele><time>2026-05-04T10:51:21.001Z</time></trkpt><trkpt lat="41.51319860229993" lon="-0.4449905117613568"><ele>247.0</ele><time>2026-05-04T10:51:22.001Z</time></trkpt><trkpt lat="41.51317879250025" lon="-0.44486290221477687"><ele>247.0</ele><time>2026-05-04T10:51:23.001Z</time></trkpt><trkpt lat="41.51315562446552" lon="-0.44473612424358383"><ele>247.0</ele><time>2026-05-04T10:51:24.001Z</time></trkpt><trkpt lat="41.51313583826198" lon="-0.44461116499717274"><ele>247.0</ele><time>2026-05-04T10:51:25.001Z</time></trkpt><trkpt lat="41.51311355421202" lon="-0.44447908074125403"><ele>247.0</ele><time>2026-05-04T10:51:26.001Z</time></trkpt><trkpt lat="41.5130931537778" lon="-0.4443549684172431"><ele>247.0</ele><time>2026-05-04T10:51:27.001Z</time></trkpt><trkpt lat="41.51306823041634" lon="-0.4442262597306625"><ele>247.8</ele><time>2026-05-04T10:51:28.001Z</time></trkpt><trkpt lat="41.51304564471136" lon="-0.44410168612563883"><ele>248.6</ele><time>2026-05-04T10:51:29.001Z</time></trkpt><trkpt lat="41.513023504795235" lon="-0.4439752491529997"><ele>249.40000000000003</ele><time>2026-05-04T10:51:30.001Z</time></trkpt><trkpt lat="41.51300322929859" lon="-0.4438455830174724"><ele>250.20000000000002</ele><time>2026-05-04T10:51:31.001Z</time></trkpt><trkpt lat="41.51298162262337" lon="-0.44371807488508636"><ele>251.0</ele><time>2026-05-04T10:51:32.001Z</time></trkpt><trkpt lat="41.512959915892914" lon="-0.4435906392125539"><ele>251.4</ele><time>2026-05-04T10:51:33.001Z</time></trkpt><trkpt lat="41.51294020864698" lon="-0.4434669434718413"><ele>251.8</ele><time>2026-05-04T10:51:34.001Z</time></trkpt><trkpt lat="41.512917554288215" lon="-0.44333934750787857"><ele>252.20000000000002</ele><time>2026-05-04T10:51:35.001Z</time></trkpt><trkpt lat="41.512896095907855" lon="-0.44321282612405477"><ele>252.60000000000002</ele><time>2026-05-04T10:51:36.001Z</time></trkpt><trkpt lat="41.512875325907096" lon="-0.44309053003220905"><ele>253.0</ele><time>2026-05-04T10:51:37.001Z</time></trkpt><trkpt lat="41.512853316201685" lon="-0.4429599341273541"><ele>253.4</ele><time>2026-05-04T10:51:38.001Z</time></trkpt><trkpt lat="41.5128363560163" lon="-0.4428397360836056"><ele>253.8</ele><time>2026-05-04T10:51:39.001Z</time></trkpt><trkpt lat="41.51281218403427" lon="-0.44271134281511293"><ele>254.2</ele><time>2026-05-04T10:51:40.001Z</time></trkpt><trkpt lat="41.512794761018576" lon="-0.44259164002903434"><ele>254.6</ele><time>2026-05-04T10:51:41.001Z</time></trkpt><trkpt lat="41.512772128507784" lon="-0.4424622270238291"><ele>255.0</ele><time>2026-05-04T10:51:42.001Z</time></trkpt><trkpt lat="41.512749148694915" lon="-0.4423384402405221"><ele>255.0</ele><time>2026-05-04T10:51:43.001Z</time></trkpt><trkpt lat="41.51272576984868" lon="-0.44221361096280526"><ele>255.0</ele><time>2026-05-04T10:51:44.001Z</time></trkpt><trkpt lat="41.51270764943081" lon="-0.44209049356833136"><ele>255.0</ele><time>2026-05-04T10:51:45.001Z</time></trkpt><trkpt lat="41.51268474756213" lon="-0.44196295682658104"><ele>255.0</ele><time>2026-05-04T10:51:46.001Z</time></trkpt><trkpt lat="41.51266218301842" lon="-0.44183719054142095"><ele>255.0</ele><time>2026-05-04T10:51:47.001Z</time></trkpt><trkpt lat="41.512640594562505" lon="-0.44171323704982957"><ele>255.6</ele><time>2026-05-04T10:51:48.001Z</time></trkpt><trkpt lat="41.51262294280476" lon="-0.4415913738784269"><ele>256.2</ele><time>2026-05-04T10:51:49.001Z</time></trkpt><trkpt lat="41.51259608666391" lon="-0.4414638259113617"><ele>256.8</ele><time>2026-05-04T10:51:50.001Z</time></trkpt><trkpt lat="41.51257548831051" lon="-0.44134160255344196"><ele>257.4</ele><time>2026-05-04T10:51:51.001Z</time></trkpt><trkpt lat="41.51255954489436" lon="-0.44121971521632714"><ele>258.0</ele><time>2026-05-04T10:51:52.001Z</time></trkpt><trkpt lat="41.51254165225547" lon="-0.44109469125761824"><ele>258.4</ele><time>2026-05-04T10:51:53.001Z</time></trkpt><trkpt lat="41.51252881034859" lon="-0.44096564198996446"><ele>258.8</ele><time>2026-05-04T10:51:54.001Z</time></trkpt><trkpt lat="41.51251468558167" lon="-0.44083728292130225"><ele>259.2</ele><time>2026-05-04T10:51:55.001Z</time></trkpt><trkpt lat="41.512506198984354" lon="-0.44070751788630913"><ele>259.6</ele><time>2026-05-04T10:51:56.001Z</time></trkpt><trkpt lat="41.512503649739315" lon="-0.44058059848779985"><ele>260.0</ele><time>2026-05-04T10:51:57.001Z</time></trkpt><trkpt lat="41.51249968005712" lon="-0.4404447583656492"><ele>260.4</ele><time>2026-05-04T10:51:58.001Z</time></trkpt><trkpt lat="41.512491294419014" lon="-0.44031107827864635"><ele>260.8</ele><time>2026-05-04T10:51:59.001Z</time></trkpt><trkpt lat="41.5124833747966" lon="-0.4401759979541597"><ele>261.2</ele><time>2026-05-04T10:52:00.001Z</time></trkpt><trkpt lat="41.51247694919227" lon="-0.4400347995065924"><ele>261.6</ele><time>2026-05-04T10:52:01.001Z</time></trkpt><trkpt lat="41.51247090277844" lon="-0.43988954958096116"><ele>262.0</ele><time>2026-05-04T10:52:02.001Z</time></trkpt><trkpt lat="41.51246241250447" lon="-0.43974200379808925"><ele>261.0</ele><time>2026-05-04T10:52:03.001Z</time></trkpt><trkpt lat="41.51243822459416" lon="-0.4395852472684846"><ele>260.0</ele><time>2026-05-04T10:52:04.001Z</time></trkpt><trkpt lat="41.512379760620185" lon="-0.4393693903539816"><ele>259.0</ele><time>2026-05-04T10:52:05.001Z</time></trkpt><trkpt lat="41.51238530509777" lon="-0.43914786436810477"><ele>259.0</ele><time>2026-05-04T10:52:06.001Z</time></trkpt><trkpt lat="41.51237463934992" lon="-0.43889623081794443"><ele>259.0</ele><time>2026-05-04T10:52:07.002Z</time></trkpt><trkpt lat="41.51243757419138" lon="-0.43899225902662325"><ele>259.0</ele><time>2026-05-04T10:52:08Z</time></trkpt><trkpt lat="41.51243729173032" lon="-0.43884265143906115"><ele>259.0</ele><time>2026-05-04T10:52:09Z</time></trkpt><trkpt lat="41.512430655660054" lon="-0.43868202371010045"><ele>258.75</ele><time>2026-05-04T10:52:10Z</time></trkpt><trkpt lat="41.512427586295324" lon="-0.43853036622024355"><ele>258.5</ele><time>2026-05-04T10:52:11Z</time></trkpt><trkpt lat="41.51242058218233" lon="-0.4383743765740199"><ele>258.25</ele><time>2026-05-04T10:52:12Z</time></trkpt><trkpt lat="41.51241320757592" lon="-0.4382170277871589"><ele>258.0</ele><time>2026-05-04T10:52:13Z</time></trkpt><trkpt lat="41.51240565954617" lon="-0.4380623073083999"><ele>257.75</ele><time>2026-05-04T10:52:14Z</time></trkpt><trkpt lat="41.51239688523084" lon="-0.4379069360371092"><ele>257.5</ele><time>2026-05-04T10:52:15Z</time></trkpt><trkpt lat="41.512390604830074" lon="-0.4377484613822018"><ele>257.25</ele><time>2026-05-04T10:52:16Z</time></trkpt><trkpt lat="41.51238692135078" lon="-0.43759453119034225"><ele>257.0</ele><time>2026-05-04T10:52:17Z</time></trkpt><trkpt lat="41.51238151146509" lon="-0.4374402917401679"><ele>257.0</ele><time>2026-05-04T10:52:18Z</time></trkpt><trkpt lat="41.51237485661768" lon="-0.43728394196484216"><ele>257.0</ele><time>2026-05-04T10:52:19Z</time></trkpt><trkpt lat="41.5123692071671" lon="-0.4371303456602664"><ele>257.0</ele><time>2026-05-04T10:52:20Z</time></trkpt><trkpt lat="41.51236177676328" lon="-0.4369768673123513"><ele>257.0</ele><time>2026-05-04T10:52:21Z</time></trkpt><trkpt lat="41.512357632339125" lon="-0.43683196905096194"><ele>257.2</ele><time>2026-05-04T10:52:22Z</time></trkpt><trkpt lat="41.512350830682" lon="-0.4366828081444885"><ele>257.4</ele><time>2026-05-04T10:52:23Z</time></trkpt><trkpt lat="41.512345184824426" lon="-0.4365345238893164"><ele>257.6</ele><time>2026-05-04T10:52:24Z</time></trkpt><trkpt lat="41.5123406312924" lon="-0.43638844363453605"><ele>257.8</ele><time>2026-05-04T10:52:25Z</time></trkpt><trkpt lat="41.51233614798625" lon="-0.4362425161180821"><ele>258.0</ele><time>2026-05-04T10:52:26Z</time></trkpt><trkpt lat="41.51233042215393" lon="-0.4360948984258032"><ele>258.0</ele><time>2026-05-04T10:52:27Z</time></trkpt><trkpt lat="41.512321904219476" lon="-0.435945058429349"><ele>258.0</ele><time>2026-05-04T10:52:28Z</time></trkpt><trkpt lat="41.51231365803096" lon="-0.43579708664699773"><ele>258.0</ele><time>2026-05-04T10:52:29Z</time></trkpt><trkpt lat="41.51230561793111" lon="-0.4356471537928564"><ele>258.0</ele><time>2026-05-04T10:52:30Z</time></trkpt><trkpt lat="41.512303651725674" lon="-0.4355016106150213"><ele>258.0</ele><time>2026-05-04T10:52:31Z</time></trkpt><trkpt lat="41.512309320439215" lon="-0.4353512168067474"><ele>257.75</ele><time>2026-05-04T10:52:32Z</time></trkpt><trkpt lat="41.51230353404057" lon="-0.43520050317348785"><ele>257.5</ele><time>2026-05-04T10:52:33Z</time></trkpt><trkpt lat="41.51229417622488" lon="-0.4350524747823727"><ele>257.25</ele><time>2026-05-04T10:52:34Z</time></trkpt><trkpt lat="41.51228999839376" lon="-0.4348982666952186"><ele>257.0</ele><time>2026-05-04T10:52:35Z</time></trkpt><trkpt lat="41.512282781741455" lon="-0.43474239424369426"><ele>256.75</ele><time>2026-05-04T10:52:36Z</time></trkpt><trkpt lat="41.51227341308524" lon="-0.4345922105403972"><ele>256.5</ele><time>2026-05-04T10:52:37Z</time></trkpt><trkpt lat="41.51226612165006" lon="-0.434435119330562"><ele>256.25</ele><time>2026-05-04T10:52:38Z</time></trkpt><trkpt lat="41.512255283788186" lon="-0.4342769736993043"><ele>256.0</ele><time>2026-05-04T10:52:39Z</time></trkpt><trkpt lat="41.51225228729794" lon="-0.4341256414633342"><ele>256.0</ele><time>2026-05-04T10:52:40Z</time></trkpt><trkpt lat="41.51224438660656" lon="-0.43397203399310263"><ele>256.0</ele><time>2026-05-04T10:52:41Z</time></trkpt><trkpt lat="41.51223903559781" lon="-0.43381363193354044"><ele>256.0</ele><time>2026-05-04T10:52:42Z</time></trkpt><trkpt lat="41.51223384925893" lon="-0.43366319117417595"><ele>256.0</ele><time>2026-05-04T10:52:43Z</time></trkpt><trkpt lat="41.512228387846484" lon="-0.4335059801303539"><ele>255.75</ele><time>2026-05-04T10:52:44Z</time></trkpt><trkpt lat="41.51222229679667" lon="-0.4333497694248139"><ele>255.5</ele><time>2026-05-04T10:52:45Z</time></trkpt><trkpt lat="41.512217604787445" lon="-0.4331946873326561"><ele>255.25</ele><time>2026-05-04T10:52:46Z</time></trkpt><trkpt lat="41.512213991200326" lon="-0.4330443018143966"><ele>255.0</ele><time>2026-05-04T10:52:47Z</time></trkpt><trkpt lat="41.512208062300786" lon="-0.432892730605233"><ele>254.75</ele><time>2026-05-04T10:52:48Z</time></trkpt><trkpt lat="41.512196957143225" lon="-0.4327411848071677"><ele>254.5</ele><time>2026-05-04T10:52:49Z</time></trkpt><trkpt lat="41.51219077761692" lon="-0.4325907615640799"><ele>254.25</ele><time>2026-05-04T10:52:50Z</time></trkpt><trkpt lat="41.51219214163351" lon="-0.4324418356585264"><ele>254.0</ele><time>2026-05-04T10:52:51Z</time></trkpt><trkpt lat="41.51218026982347" lon="-0.43229106402766293"><ele>254.0</ele><time>2026-05-04T10:52:52Z</time></trkpt><trkpt lat="41.5121716661613" lon="-0.4321409088707042"><ele>254.0</ele><time>2026-05-04T10:52:53Z</time></trkpt><trkpt lat="41.512165953676" lon="-0.4319880523422139"><ele>254.0</ele><time>2026-05-04T10:52:54Z</time></trkpt><trkpt lat="41.51215802887248" lon="-0.4318327765002998"><ele>254.0</ele><time>2026-05-04T10:52:55Z</time></trkpt><trkpt lat="41.51215173803574" lon="-0.43168299057603526"><ele>254.0</ele><time>2026-05-04T10:52:56Z</time></trkpt><trkpt lat="41.512148019086894" lon="-0.4315298697412929"><ele>254.0</ele><time>2026-05-04T10:52:57Z</time></trkpt><trkpt lat="41.51213978075165" lon="-0.4313770253423343"><ele>254.0</ele><time>2026-05-04T10:52:58Z</time></trkpt><trkpt lat="41.51212855344633" lon="-0.43122410341232037"><ele>254.0</ele><time>2026-05-04T10:52:59Z</time></trkpt><trkpt lat="41.51211235019458" lon="-0.43106890337257314"><ele>254.0</ele><time>2026-05-04T10:53:00Z</time></trkpt><trkpt lat="41.5120984535814" lon="-0.4309162804815049"><ele>254.0</ele><time>2026-05-04T10:53:01Z</time></trkpt><trkpt lat="41.51207626878821" lon="-0.43076677539696445"><ele>254.0</ele><time>2026-05-04T10:53:02Z</time></trkpt><trkpt lat="41.51205801977093" lon="-0.4306156100481721"><ele>254.0</ele><time>2026-05-04T10:53:03.001Z</time></trkpt><trkpt lat="41.51203933957488" lon="-0.4304585374259031"><ele>255.0</ele><time>2026-05-04T10:53:04.001Z</time></trkpt><trkpt lat="41.512022416990234" lon="-0.43030814628616787"><ele>256.0</ele><time>2026-05-04T10:53:05.001Z</time></trkpt><trkpt lat="41.51201735271452" lon="-0.43014839018914874"><ele>257.0</ele><time>2026-05-04T10:53:06.001Z</time></trkpt><trkpt lat="41.51199552190689" lon="-0.42999965695989845"><ele>258.0</ele><time>2026-05-04T10:53:07.001Z</time></trkpt><trkpt lat="41.51197096493171" lon="-0.42985287506925796"><ele>258.0</ele><time>2026-05-04T10:53:08.001Z</time></trkpt><trkpt lat="41.51194930593796" lon="-0.4296958405031844"><ele>258.0</ele><time>2026-05-04T10:53:09.001Z</time></trkpt><trkpt lat="41.511923221814726" lon="-0.4295446305710957"><ele>258.0</ele><time>2026-05-04T10:53:10.001Z</time></trkpt><trkpt lat="41.5118993982343" lon="-0.4293955688883826"><ele>258.0</ele><time>2026-05-04T10:53:11.001Z</time></trkpt><trkpt lat="41.51188391534022" lon="-0.429242474151608"><ele>257.5</ele><time>2026-05-04T10:53:12.001Z</time></trkpt><trkpt lat="41.511866341545044" lon="-0.4290892915485471"><ele>257.0</ele><time>2026-05-04T10:53:13.001Z</time></trkpt><trkpt lat="41.51184080022848" lon="-0.4289443846627533"><ele>256.5</ele><time>2026-05-04T10:53:14.001Z</time></trkpt><trkpt lat="41.51182396889994" lon="-0.42879342910151735"><ele>256.0</ele><time>2026-05-04T10:53:15.001Z</time></trkpt><trkpt lat="41.51181117308419" lon="-0.4286403464951541"><ele>256.0</ele><time>2026-05-04T10:53:16.001Z</time></trkpt><trkpt lat="41.51179668615493" lon="-0.4284901487879626"><ele>256.0</ele><time>2026-05-04T10:53:17.001Z</time></trkpt><trkpt lat="41.511778793281465" lon="-0.42834181299325863"><ele>256.0</ele><time>2026-05-04T10:53:18.001Z</time></trkpt><trkpt lat="41.511759951712534" lon="-0.4281935009555411"><ele>256.0</ele><time>2026-05-04T10:53:19.001Z</time></trkpt><trkpt lat="41.51173914151275" lon="-0.4280452558722346"><ele>255.5</ele><time>2026-05-04T10:53:20.001Z</time></trkpt><trkpt lat="41.51172138440532" lon="-0.42789427901954813"><ele>255.0</ele><time>2026-05-04T10:53:21.001Z</time></trkpt><trkpt lat="41.51170248393335" lon="-0.4277431656349285"><ele>254.5</ele><time>2026-05-04T10:53:22.001Z</time></trkpt><trkpt lat="41.51168074399963" lon="-0.4275916339762989"><ele>254.0</ele><time>2026-05-04T10:53:23.001Z</time></trkpt><trkpt lat="41.51166213894288" lon="-0.4274435573936126"><ele>254.0</ele><time>2026-05-04T10:53:24.001Z</time></trkpt><trkpt lat="41.51164716284359" lon="-0.42729942597818393"><ele>254.0</ele><time>2026-05-04T10:53:25.001Z</time></trkpt><trkpt lat="41.511622441864816" lon="-0.42713837388943743"><ele>254.0</ele><time>2026-05-04T10:53:26.001Z</time></trkpt><trkpt lat="41.51156805692694" lon="-0.4269624390424167"><ele>254.0</ele><time>2026-05-04T10:53:27.001Z</time></trkpt><trkpt lat="41.51159756381566" lon="-0.42685323435322337"><ele>254.2</ele><time>2026-05-04T10:53:28.001Z</time></trkpt><trkpt lat="41.51158769486932" lon="-0.4267524705723501"><ele>254.39999999999998</ele><time>2026-05-04T10:53:29.001Z</time></trkpt><trkpt lat="41.51155607548061" lon="-0.42656877793250203"><ele>254.6</ele><time>2026-05-04T10:53:30.001Z</time></trkpt><trkpt lat="41.511541111270056" lon="-0.4264251827271201"><ele>254.8</ele><time>2026-05-04T10:53:31.001Z</time></trkpt><trkpt lat="41.511522508895325" lon="-0.4262765403218788"><ele>255.0</ele><time>2026-05-04T10:53:32.001Z</time></trkpt><trkpt lat="41.51150533319319" lon="-0.4261312822433219"><ele>255.4</ele><time>2026-05-04T10:53:33.001Z</time></trkpt><trkpt lat="41.51148719336001" lon="-0.42598607287079804"><ele>255.8</ele><time>2026-05-04T10:53:34.001Z</time></trkpt><trkpt lat="41.51147026027309" lon="-0.42584271415498576"><ele>256.2</ele><time>2026-05-04T10:53:35.001Z</time></trkpt><trkpt lat="41.51145066129757" lon="-0.4256973828444585"><ele>256.6</ele><time>2026-05-04T10:53:36.001Z</time></trkpt><trkpt lat="41.511433033165126" lon="-0.4255551275903157"><ele>257.0</ele><time>2026-05-04T10:53:37.001Z</time></trkpt><trkpt lat="41.51141514545366" lon="-0.42541217515751883"><ele>257.0</ele><time>2026-05-04T10:53:38.001Z</time></trkpt><trkpt lat="41.51139792562526" lon="-0.4252664721320522"><ele>257.0</ele><time>2026-05-04T10:53:39.001Z</time></trkpt><trkpt lat="41.51137999124631" lon="-0.42512465055554227"><ele>257.0</ele><time>2026-05-04T10:53:40.001Z</time></trkpt><trkpt lat="41.51136445010776" lon="-0.42498135567392614"><ele>257.0</ele><time>2026-05-04T10:53:41.001Z</time></trkpt><trkpt lat="41.51134529495183" lon="-0.4248398285593746"><ele>257.0</ele><time>2026-05-04T10:53:42.001Z</time></trkpt><trkpt lat="41.51132642114359" lon="-0.42469867487585194"><ele>257.0</ele><time>2026-05-04T10:53:43.001Z</time></trkpt><trkpt lat="41.511308495065336" lon="-0.42456107828544604"><ele>257.0</ele><time>2026-05-04T10:53:44.001Z</time></trkpt><trkpt lat="41.511294119593884" lon="-0.4244196264682213"><ele>257.0</ele><time>2026-05-04T10:53:45.001Z</time></trkpt><trkpt lat="41.511275410757264" lon="-0.42428052320341847"><ele>257.0</ele><time>2026-05-04T10:53:46.001Z</time></trkpt><trkpt lat="41.51125720268481" lon="-0.42414513915994667"><ele>257.0</ele><time>2026-05-04T10:53:47.001Z</time></trkpt><trkpt lat="41.51123516434417" lon="-0.42400667663224234"><ele>257.4</ele><time>2026-05-04T10:53:48.001Z</time></trkpt><trkpt lat="41.511216588234014" lon="-0.42386984974920555"><ele>257.79999999999995</ele><time>2026-05-04T10:53:49.001Z</time></trkpt><trkpt lat="41.511201237228676" lon="-0.4237291299741134"><ele>258.2</ele><time>2026-05-04T10:53:50.001Z</time></trkpt><trkpt lat="41.51118599545932" lon="-0.42359285901153354"><ele>258.59999999999997</ele><time>2026-05-04T10:53:51.001Z</time></trkpt><trkpt lat="41.51117099220364" lon="-0.4234544409669135"><ele>259.0</ele><time>2026-05-04T10:53:52.001Z</time></trkpt><trkpt lat="41.51115438003173" lon="-0.4233176763052989"><ele>259.0</ele><time>2026-05-04T10:53:53.001Z</time></trkpt><trkpt lat="41.511135943131656" lon="-0.4231830664568285"><ele>259.0</ele><time>2026-05-04T10:53:54.001Z</time></trkpt><trkpt lat="41.51111706366038" lon="-0.42304553459742344"><ele>259.0</ele><time>2026-05-04T10:53:55.001Z</time></trkpt><trkpt lat="41.51110106923291" lon="-0.4229083005726394"><ele>259.0</ele><time>2026-05-04T10:53:56.001Z</time></trkpt><trkpt lat="41.51108363052966" lon="-0.4227735669607673"><ele>259.0</ele><time>2026-05-04T10:53:57.001Z</time></trkpt><trkpt lat="41.51106616900751" lon="-0.42263929153303675"><ele>259.2</ele><time>2026-05-04T10:53:58.001Z</time></trkpt><trkpt lat="41.51105048861067" lon="-0.4225000981206539"><ele>259.4</ele><time>2026-05-04T10:53:59.001Z</time></trkpt><trkpt lat="41.511034617946336" lon="-0.4223641020165605"><ele>259.6</ele><time>2026-05-04T10:54:00.001Z</time></trkpt><trkpt lat="41.511019754255706" lon="-0.42222653712071817"><ele>259.8</ele><time>2026-05-04T10:54:01.001Z</time></trkpt><trkpt lat="41.5110062914405" lon="-0.4220900919600268"><ele>260.0</ele><time>2026-05-04T10:54:02.001Z</time></trkpt><trkpt lat="41.51099072580059" lon="-0.4219535901843289"><ele>260.2</ele><time>2026-05-04T10:54:03.001Z</time></trkpt><trkpt lat="41.510972467632484" lon="-0.421816373129601"><ele>260.4</ele><time>2026-05-04T10:54:04.001Z</time></trkpt><trkpt lat="41.510956148638535" lon="-0.421681338074619"><ele>260.6</ele><time>2026-05-04T10:54:05.001Z</time></trkpt><trkpt lat="41.510935227301246" lon="-0.4215484579137628"><ele>260.8</ele><time>2026-05-04T10:54:06.001Z</time></trkpt><trkpt lat="41.51092010844787" lon="-0.4214135603290927"><ele>261.0</ele><time>2026-05-04T10:54:07.001Z</time></trkpt><trkpt lat="41.510901820043735" lon="-0.4212778861051248"><ele>261.6</ele><time>2026-05-04T10:54:08.001Z</time></trkpt><trkpt lat="41.51088543820458" lon="-0.4211437339389775"><ele>262.20000000000005</ele><time>2026-05-04T10:54:09.001Z</time></trkpt><trkpt lat="41.51086838842918" lon="-0.4210123308846473"><ele>262.79999999999995</ele><time>2026-05-04T10:54:10.001Z</time></trkpt><trkpt lat="41.51085103461327" lon="-0.4208796332294848"><ele>263.4</ele><time>2026-05-04T10:54:11.001Z</time></trkpt><trkpt lat="41.51083595691988" lon="-0.4207477261142807"><ele>264.0</ele><time>2026-05-04T10:54:12.001Z</time></trkpt><trkpt lat="41.510817797631496" lon="-0.420616760216247"><ele>264.0</ele><time>2026-05-04T10:54:13.001Z</time></trkpt><trkpt lat="41.5108060056068" lon="-0.420489472843361"><ele>264.0</ele><time>2026-05-04T10:54:14Z</time></trkpt><trkpt lat="41.5107911532427" lon="-0.42036282650972817"><ele>264.0</ele><time>2026-05-04T10:54:15Z</time></trkpt><trkpt lat="41.51077485236374" lon="-0.42023943054507706"><ele>264.0</ele><time>2026-05-04T10:54:16Z</time></trkpt><trkpt lat="41.510758009094374" lon="-0.4201121459821256"><ele>264.0</ele><time>2026-05-04T10:54:17Z</time></trkpt><trkpt lat="41.51073779646284" lon="-0.4199880985873924"><ele>264.0</ele><time>2026-05-04T10:54:18Z</time></trkpt><trkpt lat="41.510720510180924" lon="-0.4198561923986751"><ele>264.0</ele><time>2026-05-04T10:54:19Z</time></trkpt><trkpt lat="41.51070878990439" lon="-0.4197280487194266"><ele>264.0</ele><time>2026-05-04T10:54:20Z</time></trkpt><trkpt lat="41.510698114680096" lon="-0.4195973230465074"><ele>264.0</ele><time>2026-05-04T10:54:21Z</time></trkpt><trkpt lat="41.510681147872646" lon="-0.4194607581744392"><ele>264.0</ele><time>2026-05-04T10:54:22Z</time></trkpt><trkpt lat="41.51066255153119" lon="-0.41932607123872756"><ele>264.0</ele><time>2026-05-04T10:54:23Z</time></trkpt><trkpt lat="41.510644311445944" lon="-0.41919049601509933"><ele>264.0</ele><time>2026-05-04T10:54:24Z</time></trkpt><trkpt lat="41.51062900059567" lon="-0.4190531415885007"><ele>264.0</ele><time>2026-05-04T10:54:25Z</time></trkpt><trkpt lat="41.51061165529752" lon="-0.41891499266109633"><ele>264.0</ele><time>2026-05-04T10:54:26Z</time></trkpt><trkpt lat="41.51059454276325" lon="-0.41877709024888055"><ele>264.0</ele><time>2026-05-04T10:54:27Z</time></trkpt><trkpt lat="41.51057680837879" lon="-0.4186342207604955"><ele>263.8</ele><time>2026-05-04T10:54:28Z</time></trkpt><trkpt lat="41.51056004285325" lon="-0.4184969608114768"><ele>263.59999999999997</ele><time>2026-05-04T10:54:29Z</time></trkpt><trkpt lat="41.51054333477594" lon="-0.418350942705292"><ele>263.4</ele><time>2026-05-04T10:54:30Z</time></trkpt><trkpt lat="41.510526466681426" lon="-0.4182103538646236"><ele>263.2</ele><time>2026-05-04T10:54:31Z</time></trkpt><trkpt lat="41.51050775918201" lon="-0.4180685001586191"><ele>263.0</ele><time>2026-05-04T10:54:32Z</time></trkpt><trkpt lat="41.51049136804013" lon="-0.41792408461043007"><ele>262.8</ele><time>2026-05-04T10:54:33Z</time></trkpt><trkpt lat="41.5104748312202" lon="-0.41778047114860145"><ele>262.6</ele><time>2026-05-04T10:54:34Z</time></trkpt><trkpt lat="41.5104600045642" lon="-0.417640803819616"><ele>262.4</ele><time>2026-05-04T10:54:35Z</time></trkpt><trkpt lat="41.510446534089446" lon="-0.41749149487683"><ele>262.2</ele><time>2026-05-04T10:54:36Z</time></trkpt><trkpt lat="41.51043158373428" lon="-0.41735029077342617"><ele>262.0</ele><time>2026-05-04T10:54:37Z</time></trkpt><trkpt lat="41.51041746398562" lon="-0.41720287004339696"><ele>262.6</ele><time>2026-05-04T10:54:38Z</time></trkpt><trkpt lat="41.5104024013839" lon="-0.41705960962900873"><ele>263.2</ele><time>2026-05-04T10:54:39Z</time></trkpt><trkpt lat="41.510387870057976" lon="-0.4169109813619848"><ele>263.8</ele><time>2026-05-04T10:54:40Z</time></trkpt><trkpt lat="41.51037764015298" lon="-0.4167696987809823"><ele>264.4</ele><time>2026-05-04T10:54:41Z</time></trkpt><trkpt lat="41.51036417631241" lon="-0.41662329010847565"><ele>265.0</ele><time>2026-05-04T10:54:42Z</time></trkpt><trkpt lat="41.510354174439904" lon="-0.41647419692238985"><ele>265.0</ele><time>2026-05-04T10:54:43Z</time></trkpt><trkpt lat="41.51034889101747" lon="-0.41633105447194474"><ele>265.0</ele><time>2026-05-04T10:54:44Z</time></trkpt><trkpt lat="41.51035670831948" lon="-0.4162014199531919"><ele>265.0</ele><time>2026-05-04T10:54:45Z</time></trkpt><trkpt lat="41.510353144488676" lon="-0.416082929039027"><ele>265.0</ele><time>2026-05-04T10:54:46Z</time></trkpt><trkpt lat="41.51034967324192" lon="-0.4159675175620047"><ele>265.0</ele><time>2026-05-04T10:54:47Z</time></trkpt><trkpt lat="41.51032281163587" lon="-0.4157224228577284"><ele>265.5</ele><time>2026-05-04T10:54:48Z</time></trkpt><trkpt lat="41.51031596141453" lon="-0.41557522021062704"><ele>266.0</ele><time>2026-05-04T10:54:49Z</time></trkpt><trkpt lat="41.510313730534634" lon="-0.41541923631157557"><ele>266.5</ele><time>2026-05-04T10:54:50Z</time></trkpt><trkpt lat="41.51032078146213" lon="-0.4152646791537945"><ele>267.0</ele><time>2026-05-04T10:54:51Z</time></trkpt><trkpt lat="41.510326219652974" lon="-0.4151148101096065"><ele>267.0</ele><time>2026-05-04T10:54:52Z</time></trkpt><trkpt lat="41.51033178244779" lon="-0.414968148263741"><ele>267.0</ele><time>2026-05-04T10:54:53Z</time></trkpt><trkpt lat="41.51033624720078" lon="-0.4148153605243846"><ele>267.0</ele><time>2026-05-04T10:54:54Z</time></trkpt><trkpt lat="41.510341902319524" lon="-0.414665959968046"><ele>267.0</ele><time>2026-05-04T10:54:55Z</time></trkpt><trkpt lat="41.51035327432903" lon="-0.4145156358807887"><ele>267.25</ele><time>2026-05-04T10:54:56Z</time></trkpt><trkpt lat="41.51036393203945" lon="-0.4143619801009144"><ele>267.5</ele><time>2026-05-04T10:54:57Z</time></trkpt><trkpt lat="41.51037734433563" lon="-0.41421275393405127"><ele>267.75</ele><time>2026-05-04T10:54:58Z</time></trkpt><trkpt lat="41.5103919533864" lon="-0.41406360472468445"><ele>268.0</ele><time>2026-05-04T10:54:59Z</time></trkpt><trkpt lat="41.51040897173982" lon="-0.4139129540542525"><ele>267.8</ele><time>2026-05-04T10:55:00Z</time></trkpt><trkpt lat="41.51042640577661" lon="-0.4137613985098599"><ele>267.6</ele><time>2026-05-04T10:55:01Z</time></trkpt><trkpt lat="41.5104394940505" lon="-0.4136117327178501"><ele>267.4</ele><time>2026-05-04T10:55:02Z</time></trkpt><trkpt lat="41.51045734144851" lon="-0.4134658609008422"><ele>267.2</ele><time>2026-05-04T10:55:03Z</time></trkpt><trkpt lat="41.51047898061845" lon="-0.41332101084110395"><ele>267.0</ele><time>2026-05-04T10:55:04Z</time></trkpt><trkpt lat="41.51049705798283" lon="-0.4131751826286748"><ele>267.0</ele><time>2026-05-04T10:55:05Z</time></trkpt><trkpt lat="41.510515661961406" lon="-0.4130255669140612"><ele>267.0</ele><time>2026-05-04T10:55:06Z</time></trkpt><trkpt lat="41.51053792578656" lon="-0.4128824673928091"><ele>267.0</ele><time>2026-05-04T10:55:07Z</time></trkpt><trkpt lat="41.5105616550581" lon="-0.4127398680572589"><ele>267.0</ele><time>2026-05-04T10:55:08.001Z</time></trkpt><trkpt lat="41.510584700551505" lon="-0.41259957914127116"><ele>267.0</ele><time>2026-05-04T10:55:09.001Z</time></trkpt><trkpt lat="41.5106091768202" lon="-0.41245458337579965"><ele>267.4</ele><time>2026-05-04T10:55:10.001Z</time></trkpt><trkpt lat="41.51063844068556" lon="-0.41231190137205176"><ele>267.79999999999995</ele><time>2026-05-04T10:55:11.001Z</time></trkpt><trkpt lat="41.51066317656818" lon="-0.41216669562868596"><ele>268.2</ele><time>2026-05-04T10:55:12.001Z</time></trkpt><trkpt lat="41.510696816861746" lon="-0.4120283527236735"><ele>268.59999999999997</ele><time>2026-05-04T10:55:13.001Z</time></trkpt><trkpt lat="41.51071978066372" lon="-0.41188198160672446"><ele>269.0</ele><time>2026-05-04T10:55:14.001Z</time></trkpt><trkpt lat="41.51075443812533" lon="-0.411744547984957"><ele>269.2</ele><time>2026-05-04T10:55:15.001Z</time></trkpt><trkpt lat="41.51078657199661" lon="-0.41160100357456364"><ele>269.4</ele><time>2026-05-04T10:55:16.001Z</time></trkpt><trkpt lat="41.51081599860476" lon="-0.41146195070037195"><ele>269.6</ele><time>2026-05-04T10:55:17.001Z</time></trkpt><trkpt lat="41.510846922336384" lon="-0.41132346572097345"><ele>269.8</ele><time>2026-05-04T10:55:18.001Z</time></trkpt><trkpt lat="41.51087737223587" lon="-0.41118707965009443"><ele>270.0</ele><time>2026-05-04T10:55:19.001Z</time></trkpt><trkpt lat="41.51090854478592" lon="-0.4110484215059384"><ele>270.0</ele><time>2026-05-04T10:55:20.001Z</time></trkpt><trkpt lat="41.510938281351734" lon="-0.4109106897072191"><ele>270.0</ele><time>2026-05-04T10:55:21.001Z</time></trkpt><trkpt lat="41.51096933772096" lon="-0.4107760618925397"><ele>270.0</ele><time>2026-05-04T10:55:22.001Z</time></trkpt><trkpt lat="41.51100075335884" lon="-0.41063777592884443"><ele>270.0</ele><time>2026-05-04T10:55:23.001Z</time></trkpt><trkpt lat="41.51102989483523" lon="-0.41050168864781694"><ele>270.0</ele><time>2026-05-04T10:55:24.001Z</time></trkpt><trkpt lat="41.511058742680675" lon="-0.4103673903231262"><ele>271.0</ele><time>2026-05-04T10:55:25.001Z</time></trkpt><trkpt lat="41.51109064113462" lon="-0.4102317604250818"><ele>272.0</ele><time>2026-05-04T10:55:26.001Z</time></trkpt><trkpt lat="41.511121023731555" lon="-0.410096241600911"><ele>273.0</ele><time>2026-05-04T10:55:27.001Z</time></trkpt><trkpt lat="41.51115007061315" lon="-0.40996355429649983"><ele>274.0</ele><time>2026-05-04T10:55:28.001Z</time></trkpt><trkpt lat="41.51118049665474" lon="-0.409828104870601"><ele>275.0</ele><time>2026-05-04T10:55:29.001Z</time></trkpt><trkpt lat="41.511210625436675" lon="-0.4096942180078469"><ele>274.4</ele><time>2026-05-04T10:55:30.001Z</time></trkpt><trkpt lat="41.51124045362615" lon="-0.4095574200235919"><ele>273.8</ele><time>2026-05-04T10:55:31.001Z</time></trkpt><trkpt lat="41.51126916529305" lon="-0.4094213135277908"><ele>273.2</ele><time>2026-05-04T10:55:32.001Z</time></trkpt><trkpt lat="41.51129961883106" lon="-0.40928442720709174"><ele>272.6</ele><time>2026-05-04T10:55:33.001Z</time></trkpt><trkpt lat="41.51132852428733" lon="-0.4091495797694825"><ele>272.0</ele><time>2026-05-04T10:55:34.001Z</time></trkpt><trkpt lat="41.51135912197014" lon="-0.40901376436119036"><ele>272.0</ele><time>2026-05-04T10:55:35.001Z</time></trkpt><trkpt lat="41.511391570407085" lon="-0.4088791175075916"><ele>272.0</ele><time>2026-05-04T10:55:36.001Z</time></trkpt><trkpt lat="41.51142368145815" lon="-0.4087437412102553"><ele>272.0</ele><time>2026-05-04T10:55:37.001Z</time></trkpt><trkpt lat="41.5114534463392" lon="-0.40860952697580005"><ele>272.0</ele><time>2026-05-04T10:55:38.001Z</time></trkpt><trkpt lat="41.51148600365782" lon="-0.40847183160375716"><ele>272.0</ele><time>2026-05-04T10:55:39.001Z</time></trkpt><trkpt lat="41.511516340324235" lon="-0.4083349535506894"><ele>272.2</ele><time>2026-05-04T10:55:40.001Z</time></trkpt><trkpt lat="41.51154693681832" lon="-0.4081956733231012"><ele>272.4</ele><time>2026-05-04T10:55:41.001Z</time></trkpt><trkpt lat="41.5115760633866" lon="-0.4080602780752285"><ele>272.6</ele><time>2026-05-04T10:55:42.001Z</time></trkpt><trkpt lat="41.51160739172432" lon="-0.40792307899054814"><ele>272.8</ele><time>2026-05-04T10:55:43.001Z</time></trkpt><trkpt lat="41.51163601091959" lon="-0.40778467150425973"><ele>273.0</ele><time>2026-05-04T10:55:44.001Z</time></trkpt><trkpt lat="41.51166569878579" lon="-0.40764485336281725"><ele>273.4</ele><time>2026-05-04T10:55:45.001Z</time></trkpt><trkpt lat="41.511696480873105" lon="-0.40750768487690386"><ele>273.8</ele><time>2026-05-04T10:55:46.001Z</time></trkpt><trkpt lat="41.51173107940095" lon="-0.4073712802773998"><ele>274.2</ele><time>2026-05-04T10:55:47.001Z</time></trkpt><trkpt lat="41.51176207657889" lon="-0.4072352940856926"><ele>274.6</ele><time>2026-05-04T10:55:48.001Z</time></trkpt><trkpt lat="41.511794920605475" lon="-0.4070945578790101"><ele>275.0</ele><time>2026-05-04T10:55:49.001Z</time></trkpt><trkpt lat="41.51182500671706" lon="-0.4069575264094008"><ele>275.8</ele><time>2026-05-04T10:55:50.001Z</time></trkpt><trkpt lat="41.51185733630223" lon="-0.40681962745592426"><ele>276.6</ele><time>2026-05-04T10:55:51.001Z</time></trkpt><trkpt lat="41.51188936452293" lon="-0.4066828004715502"><ele>277.4</ele><time>2026-05-04T10:55:52.001Z</time></trkpt><trkpt lat="41.51192233359183" lon="-0.4065445026156485"><ele>278.2</ele><time>2026-05-04T10:55:53.001Z</time></trkpt><trkpt lat="41.51195368314381" lon="-0.40640676044361757"><ele>279.0</ele><time>2026-05-04T10:55:54.001Z</time></trkpt><trkpt lat="41.51198588583112" lon="-0.4062672411642743"><ele>278.8</ele><time>2026-05-04T10:55:55.001Z</time></trkpt><trkpt lat="41.51201170644791" lon="-0.40612982991944985"><ele>278.59999999999997</ele><time>2026-05-04T10:55:56.001Z</time></trkpt><trkpt lat="41.51204404033806" lon="-0.4059908725853222"><ele>278.4</ele><time>2026-05-04T10:55:57.001Z</time></trkpt><trkpt lat="41.51207822679697" lon="-0.4058508040321774"><ele>278.2</ele><time>2026-05-04T10:55:58.001Z</time></trkpt><trkpt lat="41.51211082639474" lon="-0.40570961992824767"><ele>278.0</ele><time>2026-05-04T10:55:59.001Z</time></trkpt><trkpt lat="41.51214196607819" lon="-0.4055702712366604"><ele>278.2</ele><time>2026-05-04T10:56:00.001Z</time></trkpt><trkpt lat="41.5121712751825" lon="-0.4054287200822511"><ele>278.4</ele><time>2026-05-04T10:56:01.001Z</time></trkpt><trkpt lat="41.512197653085295" lon="-0.405290837068274"><ele>278.59999999999997</ele><time>2026-05-04T10:56:02.001Z</time></trkpt><trkpt lat="41.512229023678884" lon="-0.405142175891149"><ele>278.8</ele><time>2026-05-04T10:56:03.001Z</time></trkpt><trkpt lat="41.51225458883929" lon="-0.4049965836499689"><ele>279.0</ele><time>2026-05-04T10:56:04.001Z</time></trkpt><trkpt lat="41.51226817183382" lon="-0.4048613843064562"><ele>279.0</ele><time>2026-05-04T10:56:05.001Z</time></trkpt><trkpt lat="41.512248304005446" lon="-0.40477066239956244"><ele>279.0</ele><time>2026-05-04T10:56:06.001Z</time></trkpt><trkpt lat="41.51234809392699" lon="-0.40441921236283174"><ele>279.0</ele><time>2026-05-04T10:56:08.001Z</time></trkpt><trkpt lat="41.51236063110733" lon="-0.40426979733975305"><ele>279.25</ele><time>2026-05-04T10:56:09.001Z</time></trkpt><trkpt lat="41.51237118466925" lon="-0.40411953697953773"><ele>279.5</ele><time>2026-05-04T10:56:10.001Z</time></trkpt><trkpt lat="41.51238193579079" lon="-0.40397139411342337"><ele>279.75</ele><time>2026-05-04T10:56:11.001Z</time></trkpt><trkpt lat="41.51238847920755" lon="-0.4038170764941781"><ele>280.0</ele><time>2026-05-04T10:56:12.001Z</time></trkpt><trkpt lat="41.51239314450245" lon="-0.4036647416172132"><ele>280.0</ele><time>2026-05-04T10:56:13.001Z</time></trkpt><trkpt lat="41.512393921884055" lon="-0.40351717645783236"><ele>280.0</ele><time>2026-05-04T10:56:14.001Z</time></trkpt><trkpt lat="41.51239196144335" lon="-0.4033657498874152"><ele>280.0</ele><time>2026-05-04T10:56:15.002Z</time></trkpt><trkpt lat="41.512391890911175" lon="-0.4032126370801854"><ele>280.0</ele><time>2026-05-04T10:56:16.002Z</time></trkpt><trkpt lat="41.512382924884875" lon="-0.40306450899377744"><ele>280.2</ele><time>2026-05-04T10:56:17.002Z</time></trkpt><trkpt lat="41.512371499875975" lon="-0.4029168143349369"><ele>280.4</ele><time>2026-05-04T10:56:18.002Z</time></trkpt><trkpt lat="41.51235772116062" lon="-0.40276784381161"><ele>280.6</ele><time>2026-05-04T10:56:19.002Z</time></trkpt><trkpt lat="41.51234174794082" lon="-0.4026203174976513"><ele>280.8</ele><time>2026-05-04T10:56:20Z</time></trkpt><trkpt lat="41.512326468362566" lon="-0.40247428515925615"><ele>281.0</ele><time>2026-05-04T10:56:21Z</time></trkpt><trkpt lat="41.512307441134084" lon="-0.40232697662823347"><ele>281.0</ele><time>2026-05-04T10:56:22Z</time></trkpt><trkpt lat="41.51228648821214" lon="-0.40218512461570893"><ele>281.0</ele><time>2026-05-04T10:56:23Z</time></trkpt><trkpt lat="41.51225907581425" lon="-0.4020450296010845"><ele>281.0</ele><time>2026-05-04T10:56:24Z</time></trkpt><trkpt lat="41.51222857547142" lon="-0.4019058332153958"><ele>281.0</ele><time>2026-05-04T10:56:25Z</time></trkpt><trkpt lat="41.51220041992299" lon="-0.4017646784250871"><ele>281.0</ele><time>2026-05-04T10:56:26Z</time></trkpt><trkpt lat="41.51216774744695" lon="-0.4016287846671034"><ele>281.6</ele><time>2026-05-04T10:56:27Z</time></trkpt><trkpt lat="41.51213225199109" lon="-0.40148819880817666"><ele>282.20000000000005</ele><time>2026-05-04T10:56:28Z</time></trkpt><trkpt lat="41.51209746207977" lon="-0.40135098465888697"><ele>282.79999999999995</ele><time>2026-05-04T10:56:29Z</time></trkpt><trkpt lat="41.51205927491702" lon="-0.4012193662098396"><ele>283.4</ele><time>2026-05-04T10:56:30Z</time></trkpt><trkpt lat="41.51202044062707" lon="-0.40107935597301314"><ele>284.0</ele><time>2026-05-04T10:56:31Z</time></trkpt><trkpt lat="41.51197478572638" lon="-0.40094972121662703"><ele>284.59999999999997</ele><time>2026-05-04T10:56:32Z</time></trkpt><trkpt lat="41.511929540971686" lon="-0.40081801292503355"><ele>285.2</ele><time>2026-05-04T10:56:33Z</time></trkpt><trkpt lat="41.511882056496496" lon="-0.40069335441041254"><ele>285.79999999999995</ele><time>2026-05-04T10:56:34Z</time></trkpt><trkpt lat="41.5118307898444" lon="-0.40056654228754074"><ele>286.4</ele><time>2026-05-04T10:56:35Z</time></trkpt><trkpt lat="41.511779156443765" lon="-0.40044131482205275"><ele>287.0</ele><time>2026-05-04T10:56:36Z</time></trkpt><trkpt lat="41.51172279401182" lon="-0.4003182779338719"><ele>287.0</ele><time>2026-05-04T10:56:37Z</time></trkpt><trkpt lat="41.51166702895582" lon="-0.400196199674265"><ele>287.0</ele><time>2026-05-04T10:56:38Z</time></trkpt><trkpt lat="41.51161173696051" lon="-0.40007689151001175"><ele>287.0</ele><time>2026-05-04T10:56:39Z</time></trkpt><trkpt lat="41.511549984403416" lon="-0.3999544702462315"><ele>287.0</ele><time>2026-05-04T10:56:40Z</time></trkpt><trkpt lat="41.51148895532115" lon="-0.3998391328632255"><ele>287.0</ele><time>2026-05-04T10:56:41Z</time></trkpt><trkpt lat="41.51142738901577" lon="-0.399723031906039"><ele>287.6</ele><time>2026-05-04T10:56:42Z</time></trkpt><trkpt lat="41.511360878229176" lon="-0.39960943478104066"><ele>288.2</ele><time>2026-05-04T10:56:43Z</time></trkpt><trkpt lat="41.51129422572333" lon="-0.39950057642035125"><ele>288.8</ele><time>2026-05-04T10:56:44Z</time></trkpt><trkpt lat="41.51122518131734" lon="-0.39938826132029076"><ele>289.4</ele><time>2026-05-04T10:56:45Z</time></trkpt><trkpt lat="41.511155086563576" lon="-0.39927888683612583"><ele>290.0</ele><time>2026-05-04T10:56:46Z</time></trkpt><trkpt lat="41.51108319057947" lon="-0.39917438460443"><ele>290.0</ele><time>2026-05-04T10:56:47Z</time></trkpt><trkpt lat="41.51101110402079" lon="-0.39906808967330704"><ele>290.0</ele><time>2026-05-04T10:56:48Z</time></trkpt><trkpt lat="41.510940741696956" lon="-0.3989623900892574"><ele>290.0</ele><time>2026-05-04T10:56:49Z</time></trkpt><trkpt lat="41.51087074947701" lon="-0.39885857951838766"><ele>290.0</ele><time>2026-05-04T10:56:50Z</time></trkpt><trkpt lat="41.51080027066669" lon="-0.39875027071688396"><ele>290.0</ele><time>2026-05-04T10:56:51Z</time></trkpt><trkpt lat="41.51072997999816" lon="-0.39864901093578614"><ele>290.6</ele><time>2026-05-04T10:56:52Z</time></trkpt><trkpt lat="41.5106583247559" lon="-0.39854718071386397"><ele>291.2</ele><time>2026-05-04T10:56:53Z</time></trkpt><trkpt lat="41.51058957629106" lon="-0.3984398398781103"><ele>291.8</ele><time>2026-05-04T10:56:54Z</time></trkpt><trkpt lat="41.51052413088223" lon="-0.398333864040945"><ele>292.4</ele><time>2026-05-04T10:56:55Z</time></trkpt><trkpt lat="41.510455152326216" lon="-0.3982328021567725"><ele>293.0</ele><time>2026-05-04T10:56:56Z</time></trkpt><trkpt lat="41.51038324324995" lon="-0.3981309630698302"><ele>293.4</ele><time>2026-05-04T10:56:57Z</time></trkpt><trkpt lat="41.510314621610554" lon="-0.3980313142924231"><ele>293.8</ele><time>2026-05-04T10:56:58Z</time></trkpt><trkpt lat="41.51024489190592" lon="-0.3979287389293862"><ele>294.2</ele><time>2026-05-04T10:56:59Z</time></trkpt><trkpt lat="41.510176424405124" lon="-0.39782719513767456"><ele>294.6</ele><time>2026-05-04T10:57:00Z</time></trkpt><trkpt lat="41.51010829466327" lon="-0.3977222028488715"><ele>295.0</ele><time>2026-05-04T10:57:01Z</time></trkpt><trkpt lat="41.51004169672319" lon="-0.3976186712533352"><ele>295.0</ele><time>2026-05-04T10:57:02Z</time></trkpt><trkpt lat="41.50997407576474" lon="-0.3975210934706668"><ele>295.0</ele><time>2026-05-04T10:57:03Z</time></trkpt><trkpt lat="41.50990462332979" lon="-0.3974171136769649"><ele>295.0</ele><time>2026-05-04T10:57:04Z</time></trkpt><trkpt lat="41.509839273398384" lon="-0.39731373511512874"><ele>295.0</ele><time>2026-05-04T10:57:05Z</time></trkpt><trkpt lat="41.50977060542123" lon="-0.3972147655235711"><ele>295.0</ele><time>2026-05-04T10:57:06Z</time></trkpt><trkpt lat="41.509719767564114" lon="-0.3971325361609426"><ele>295.16666666666663</ele><time>2026-05-04T10:57:07Z</time></trkpt><trkpt lat="41.50966895276109" lon="-0.39705030392155166"><ele>295.3333333333333</ele><time>2026-05-04T10:57:08.001Z</time></trkpt><trkpt lat="41.50961887180425" lon="-0.3969771313234816"><ele>295.5</ele><time>2026-05-04T10:57:09.001Z</time></trkpt><trkpt lat="41.509572668902884" lon="-0.39690521359096803"><ele>295.6666666666667</ele><time>2026-05-04T10:57:10.001Z</time></trkpt><trkpt lat="41.50949640185301" lon="-0.39678968161803785"><ele>295.83333333333337</ele><time>2026-05-04T10:57:12.001Z</time></trkpt><trkpt lat="41.50944309751044" lon="-0.3967065037702234"><ele>296.0</ele><time>2026-05-04T10:57:14.001Z</time></trkpt><trkpt lat="41.509400536591386" lon="-0.39663714904423497"><ele>296.0</ele><time>2026-05-04T10:57:17.001Z</time></trkpt><trkpt lat="41.50936341818013" lon="-0.39655909129144223"><ele>296.0</ele><time>2026-05-04T11:00:44.001Z</time></trkpt><trkpt lat="41.50929004497699" lon="-0.3964572382485187"><ele>296.0</ele><time>2026-05-04T11:00:46.001Z</time></trkpt><trkpt lat="41.509249428188795" lon="-0.39639193880026913"><ele>296.0</ele><time>2026-05-04T11:00:47.001Z</time></trkpt><trkpt lat="41.509206913034355" lon="-0.39632422823884916"><ele>296.0</ele><time>2026-05-04T11:00:48.001Z</time></trkpt><trkpt lat="41.50916298097857" lon="-0.3962502420523093"><ele>296.0</ele><time>2026-05-04T11:00:49.001Z</time></trkpt><trkpt lat="41.50911278193434" lon="-0.3961747102576159"><ele>296.33333333333337</ele><time>2026-05-04T11:00:50.001Z</time></trkpt><trkpt lat="41.509062458157544" lon="-0.3960939956348326"><ele>296.6666666666667</ele><time>2026-05-04T11:00:51.001Z</time></trkpt><trkpt lat="41.50900431782677" lon="-0.39601177630873774"><ele>297.0</ele><time>2026-05-04T11:00:52.001Z</time></trkpt><trkpt lat="41.50894607536753" lon="-0.3959270342617469"><ele>297.3333333333333</ele><time>2026-05-04T11:00:53.001Z</time></trkpt><trkpt lat="41.50888907489483" lon="-0.39583857305584536"><ele>297.66666666666663</ele><time>2026-05-04T11:00:54.001Z</time></trkpt><trkpt lat="41.508832102472056" lon="-0.39574563160824033"><ele>298.0</ele><time>2026-05-04T11:00:55.001Z</time></trkpt><trkpt lat="41.50877228512103" lon="-0.3956493971134923"><ele>298.0</ele><time>2026-05-04T11:00:56.001Z</time></trkpt><trkpt lat="41.50870962792569" lon="-0.3955521673213679"><ele>298.0</ele><time>2026-05-04T11:00:57.001Z</time></trkpt><trkpt lat="41.50863583431094" lon="-0.39547261575656034"><ele>298.0</ele><time>2026-05-04T11:00:58.001Z</time></trkpt><trkpt lat="41.50857032795876" lon="-0.3953750770572457"><ele>298.0</ele><time>2026-05-04T11:00:59.001Z</time></trkpt><trkpt lat="41.508507530352574" lon="-0.3952812528862751"><ele>298.0</ele><time>2026-05-04T11:01:00.001Z</time></trkpt><trkpt lat="41.50844279597249" lon="-0.39518450368506514"><ele>297.6</ele><time>2026-05-04T11:01:01.001Z</time></trkpt><trkpt lat="41.50837613458219" lon="-0.395085233790661"><ele>297.20000000000005</ele><time>2026-05-04T11:01:02.001Z</time></trkpt><trkpt lat="41.508313074039954" lon="-0.3949857443993506"><ele>296.8</ele><time>2026-05-04T11:01:03.001Z</time></trkpt><trkpt lat="41.508248208344675" lon="-0.3948831647261111"><ele>296.40000000000003</ele><time>2026-05-04T11:01:04.001Z</time></trkpt><trkpt lat="41.50818458770151" lon="-0.39477901172224655"><ele>296.0</ele><time>2026-05-04T11:01:05.001Z</time></trkpt><trkpt lat="41.50812095425649" lon="-0.39466747243246003"><ele>296.8</ele><time>2026-05-04T11:01:06.001Z</time></trkpt><trkpt lat="41.508059775640056" lon="-0.3945566650458388"><ele>297.6</ele><time>2026-05-04T11:01:07.001Z</time></trkpt><trkpt lat="41.50800196673544" lon="-0.39444385081301947"><ele>298.4</ele><time>2026-05-04T11:01:08.001Z</time></trkpt><trkpt lat="41.50794648146128" lon="-0.3943359226682406"><ele>299.2</ele><time>2026-05-04T11:01:09.001Z</time></trkpt><trkpt lat="41.50788952677844" lon="-0.3942229885581599"><ele>300.0</ele><time>2026-05-04T11:01:10.001Z</time></trkpt><trkpt lat="41.50783304512753" lon="-0.394109570295864"><ele>300.0</ele><time>2026-05-04T11:01:11.001Z</time></trkpt><trkpt lat="41.507777042754896" lon="-0.393997114583974"><ele>300.0</ele><time>2026-05-04T11:01:12.001Z</time></trkpt><trkpt lat="41.507720956310614" lon="-0.3938844900874849"><ele>300.0</ele><time>2026-05-04T11:01:13.001Z</time></trkpt><trkpt lat="41.50766404243568" lon="-0.3937702039697239"><ele>300.0</ele><time>2026-05-04T11:01:14.001Z</time></trkpt><trkpt lat="41.50760803798771" lon="-0.39365775924817864"><ele>300.0</ele><time>2026-05-04T11:01:15.001Z</time></trkpt><trkpt lat="41.50755146420167" lon="-0.3935441763449428"><ele>300.2</ele><time>2026-05-04T11:01:16.001Z</time></trkpt><trkpt lat="41.50749425070713" lon="-0.3934293091265597"><ele>300.4</ele><time>2026-05-04T11:01:17.001Z</time></trkpt><trkpt lat="41.5074379043433" lon="-0.39331618279250136"><ele>300.6</ele><time>2026-05-04T11:01:18.001Z</time></trkpt><trkpt lat="41.5073800925574" lon="-0.39320011434303925"><ele>300.8</ele><time>2026-05-04T11:01:19.001Z</time></trkpt><trkpt lat="41.50732196306122" lon="-0.3930834080642017"><ele>301.0</ele><time>2026-05-04T11:01:20.001Z</time></trkpt><trkpt lat="41.50726445850431" lon="-0.3929679563744121"><ele>301.2</ele><time>2026-05-04T11:01:21.001Z</time></trkpt><trkpt lat="41.507207421125294" lon="-0.3928534427800772"><ele>301.40000000000003</ele><time>2026-05-04T11:01:22.001Z</time></trkpt><trkpt lat="41.50714992757324" lon="-0.3927380132004563"><ele>301.6</ele><time>2026-05-04T11:01:23.001Z</time></trkpt><trkpt lat="41.507090855807625" lon="-0.3926194151289863"><ele>301.8</ele><time>2026-05-04T11:01:24.001Z</time></trkpt><trkpt lat="41.50703182744198" lon="-0.3925009041677043"><ele>302.0</ele><time>2026-05-04T11:01:25.001Z</time></trkpt><trkpt lat="41.506972341181736" lon="-0.39238147385705074"><ele>302.0</ele><time>2026-05-04T11:01:26.001Z</time></trkpt><trkpt lat="41.50691402713844" lon="-0.3922643970796341"><ele>302.0</ele><time>2026-05-04T11:01:27.001Z</time></trkpt><trkpt lat="41.50685700727851" lon="-0.3921499185719971"><ele>302.0</ele><time>2026-05-04T11:01:28.001Z</time></trkpt><trkpt lat="41.50679859735071" lon="-0.3920336917779116"><ele>302.0</ele><time>2026-05-04T11:01:29.001Z</time></trkpt><trkpt lat="41.50673913502608" lon="-0.39191738232641465"><ele>302.0</ele><time>2026-05-04T11:01:30.001Z</time></trkpt><trkpt lat="41.506680702190486" lon="-0.39180308662725766"><ele>302.4</ele><time>2026-05-04T11:01:31.001Z</time></trkpt><trkpt lat="41.50662295182072" lon="-0.39169012582734625"><ele>302.79999999999995</ele><time>2026-05-04T11:01:32.001Z</time></trkpt><trkpt lat="41.506563753021396" lon="-0.39157738480191356"><ele>303.2</ele><time>2026-05-04T11:01:33.001Z</time></trkpt><trkpt lat="41.50650453343339" lon="-0.3914661665003944"><ele>303.59999999999997</ele><time>2026-05-04T11:01:34.001Z</time></trkpt><trkpt lat="41.506442660812056" lon="-0.3913520585885252"><ele>304.0</ele><time>2026-05-04T11:01:35.001Z</time></trkpt><trkpt lat="41.506378299054944" lon="-0.3912373431655981"><ele>303.8</ele><time>2026-05-04T11:01:36.001Z</time></trkpt><trkpt lat="41.506313874821494" lon="-0.3911225165721873"><ele>303.59999999999997</ele><time>2026-05-04T11:01:37.001Z</time></trkpt><trkpt lat="41.506249371836034" lon="-0.3910075492382127"><ele>303.4</ele><time>2026-05-04T11:01:38.001Z</time></trkpt><trkpt lat="41.506185222588044" lon="-0.39089321285190265"><ele>303.2</ele><time>2026-05-04T11:01:39.001Z</time></trkpt><trkpt lat="41.506119894498916" lon="-0.39077677507815733"><ele>303.0</ele><time>2026-05-04T11:01:40.001Z</time></trkpt><trkpt lat="41.50605384906046" lon="-0.3906590587482253"><ele>303.0</ele><time>2026-05-04T11:01:41.001Z</time></trkpt><trkpt lat="41.5059970038989" lon="-0.39052567773031416"><ele>303.0</ele><time>2026-05-04T11:01:42.001Z</time></trkpt><trkpt lat="41.50593481910822" lon="-0.3904453766237393"><ele>303.0</ele><time>2026-05-04T11:01:43.001Z</time></trkpt><trkpt lat="41.505852168675226" lon="-0.3903017538352961"><ele>303.0</ele><time>2026-05-04T11:01:45.001Z</time></trkpt><trkpt lat="41.50580067236315" lon="-0.39021069380032963"><ele>303.0</ele><time>2026-05-04T11:01:46.001Z</time></trkpt><trkpt lat="41.50564339807553" lon="-0.3899325893899785"><ele>303.0</ele><time>2026-05-04T11:01:47.001Z</time></trkpt><trkpt lat="41.505573603308285" lon="-0.3898091724948401"><ele>303.0</ele><time>2026-05-04T11:01:48.001Z</time></trkpt><trkpt lat="41.505504741926714" lon="-0.38968740545586733"><ele>303.0</ele><time>2026-05-04T11:01:49.001Z</time></trkpt><trkpt lat="41.505437233474815" lon="-0.3895680319735876"><ele>303.0</ele><time>2026-05-04T11:01:50.001Z</time></trkpt><trkpt lat="41.50536924934791" lon="-0.38944778911132544"><ele>303.5</ele><time>2026-05-04T11:01:51.001Z</time></trkpt><trkpt lat="41.50530071466621" lon="-0.38932655152542156"><ele>304.0</ele><time>2026-05-04T11:01:52.001Z</time></trkpt><trkpt lat="41.505233126057966" lon="-0.3892069875705388"><ele>304.5</ele><time>2026-05-04T11:01:53.001Z</time></trkpt><trkpt lat="41.50516432222636" lon="-0.3890851317900866"><ele>305.0</ele><time>2026-05-04T11:01:54.001Z</time></trkpt><trkpt lat="41.50509447783688" lon="-0.38896089985190413"><ele>304.25</ele><time>2026-05-04T11:01:55.001Z</time></trkpt><trkpt lat="41.50502550768891" lon="-0.3888382229881165"><ele>303.5</ele><time>2026-05-04T11:01:56.001Z</time></trkpt><trkpt lat="41.50495439585454" lon="-0.3887117366643592"><ele>302.75</ele><time>2026-05-04T11:01:57.001Z</time></trkpt><trkpt lat="41.504886086701006" lon="-0.3885902354386678"><ele>302.0</ele><time>2026-05-04T11:01:58.001Z</time></trkpt><trkpt lat="41.504817327543854" lon="-0.38846793388208417"><ele>302.0</ele><time>2026-05-04T11:01:59.001Z</time></trkpt><trkpt lat="41.5047484498973" lon="-0.3883454214901709"><ele>302.0</ele><time>2026-05-04T11:02:00.001Z</time></trkpt><trkpt lat="41.5046759363093" lon="-0.38821704643328414"><ele>302.0</ele><time>2026-05-04T11:02:01.001Z</time></trkpt><trkpt lat="41.504606135340424" lon="-0.3880938721220221"><ele>302.0</ele><time>2026-05-04T11:02:02.001Z</time></trkpt><trkpt lat="41.50453671393121" lon="-0.3879713676013218"><ele>301.25</ele><time>2026-05-04T11:02:03.001Z</time></trkpt><trkpt lat="41.50446841396966" lon="-0.3878508420307472"><ele>300.5</ele><time>2026-05-04T11:02:04.001Z</time></trkpt><trkpt lat="41.50439832097862" lon="-0.38772715239403516"><ele>299.75</ele><time>2026-05-04T11:02:05.001Z</time></trkpt><trkpt lat="41.504328026313146" lon="-0.3876031068993524"><ele>299.0</ele><time>2026-05-04T11:02:06.001Z</time></trkpt><trkpt lat="41.50425786082597" lon="-0.3874768670845011"><ele>299.0</ele><time>2026-05-04T11:02:07.001Z</time></trkpt><trkpt lat="41.504188238432995" lon="-0.3873493427588449"><ele>299.0</ele><time>2026-05-04T11:02:08.001Z</time></trkpt><trkpt lat="41.50412101592689" lon="-0.38722621420094777"><ele>299.0</ele><time>2026-05-04T11:02:09.001Z</time></trkpt><trkpt lat="41.5040538748409" lon="-0.38709871055043726"><ele>299.0</ele><time>2026-05-04T11:02:10.001Z</time></trkpt><trkpt lat="41.503990188975315" lon="-0.3869738428013682"><ele>299.0</ele><time>2026-05-04T11:02:11.001Z</time></trkpt><trkpt lat="41.503927590580865" lon="-0.3868482608082301"><ele>299.0</ele><time>2026-05-04T11:02:12.001Z</time></trkpt><trkpt lat="41.50386304502153" lon="-0.3867147908499231"><ele>299.0</ele><time>2026-05-04T11:02:13.001Z</time></trkpt><trkpt lat="41.5038054824779" lon="-0.38659456326075226"><ele>299.0</ele><time>2026-05-04T11:02:14.001Z</time></trkpt><trkpt lat="41.503737962759594" lon="-0.38645038670233034"><ele>298.2</ele><time>2026-05-04T11:02:15.001Z</time></trkpt><trkpt lat="41.50367707836705" lon="-0.3863161280548768"><ele>297.4</ele><time>2026-05-04T11:02:16.001Z</time></trkpt><trkpt lat="41.503627578673004" lon="-0.3862058057100008"><ele>296.6</ele><time>2026-05-04T11:02:17.001Z</time></trkpt><trkpt lat="41.50358006177204" lon="-0.38609990253926285"><ele>295.8</ele><time>2026-05-04T11:02:18.001Z</time></trkpt><trkpt lat="41.50352400744404" lon="-0.3859343640350447"><ele>295.0</ele><time>2026-05-04T11:02:19.001Z</time></trkpt><trkpt lat="41.50345535591707" lon="-0.38581343793421147"><ele>295.0</ele><time>2026-05-04T11:02:20.001Z</time></trkpt><trkpt lat="41.503394204562376" lon="-0.38569096515944623"><ele>295.0</ele><time>2026-05-04T11:02:21.001Z</time></trkpt><trkpt lat="41.50332743605495" lon="-0.3855656860964431"><ele>295.0</ele><time>2026-05-04T11:02:22.001Z</time></trkpt><trkpt lat="41.503268459746806" lon="-0.38543926559761"><ele>295.0</ele><time>2026-05-04T11:02:23.001Z</time></trkpt><trkpt lat="41.503211640333305" lon="-0.3853092724307483"><ele>295.25</ele><time>2026-05-04T11:02:24.001Z</time></trkpt><trkpt lat="41.50315215895194" lon="-0.38517923605027243"><ele>295.5</ele><time>2026-05-04T11:02:25.001Z</time></trkpt><trkpt lat="41.503091840171145" lon="-0.38504285410696615"><ele>295.75</ele><time>2026-05-04T11:02:26.001Z</time></trkpt><trkpt lat="41.50303426431969" lon="-0.3849108930083748"><ele>296.0</ele><time>2026-05-04T11:02:27.001Z</time></trkpt><trkpt lat="41.502976463217756" lon="-0.38478279988395486"><ele>296.25</ele><time>2026-05-04T11:02:28.001Z</time></trkpt><trkpt lat="41.50291881063571" lon="-0.38464980949413585"><ele>296.5</ele><time>2026-05-04T11:02:29.001Z</time></trkpt><trkpt lat="41.50286361765819" lon="-0.38451890697494817"><ele>296.75</ele><time>2026-05-04T11:02:30.001Z</time></trkpt><trkpt lat="41.50280993303177" lon="-0.384387897684777"><ele>297.0</ele><time>2026-05-04T11:02:31.001Z</time></trkpt><trkpt lat="41.50275643409044" lon="-0.38425344370568815"><ele>295.75</ele><time>2026-05-04T11:02:32.001Z</time></trkpt><trkpt lat="41.502703499744094" lon="-0.3841169431645222"><ele>294.5</ele><time>2026-05-04T11:02:33.002Z</time></trkpt><trkpt lat="41.50265707710227" lon="-0.3839827839444822"><ele>293.25</ele><time>2026-05-04T11:02:34.002Z</time></trkpt><trkpt lat="41.5026050134525" lon="-0.38384956896647165"><ele>292.0</ele><time>2026-05-04T11:02:35.002Z</time></trkpt><trkpt lat="41.502558239431714" lon="-0.3837112013157982"><ele>292.0</ele><time>2026-05-04T11:02:36.002Z</time></trkpt><trkpt lat="41.50250692632206" lon="-0.38357633040305505"><ele>292.0</ele><time>2026-05-04T11:02:37.002Z</time></trkpt><trkpt lat="41.50245881878104" lon="-0.3834409358610709"><ele>292.0</ele><time>2026-05-04T11:02:38Z</time></trkpt><trkpt lat="41.50241181080953" lon="-0.38330074418496995"><ele>292.0</ele><time>2026-05-04T11:02:39Z</time></trkpt><trkpt lat="41.50236299877052" lon="-0.3831655181271659"><ele>292.0</ele><time>2026-05-04T11:02:40Z</time></trkpt><trkpt lat="41.50231415935599" lon="-0.38302569471600073"><ele>292.0</ele><time>2026-05-04T11:02:41Z</time></trkpt><trkpt lat="41.502255416492766" lon="-0.3828887540534923"><ele>292.0</ele><time>2026-05-04T11:02:42Z</time></trkpt><trkpt lat="41.50220616184995" lon="-0.3827436099145657"><ele>292.0</ele><time>2026-05-04T11:02:43Z</time></trkpt><trkpt lat="41.502154313327836" lon="-0.38260164825282"><ele>292.25</ele><time>2026-05-04T11:02:44Z</time></trkpt><trkpt lat="41.50210321838856" lon="-0.38246453219709214"><ele>292.5</ele><time>2026-05-04T11:02:45Z</time></trkpt><trkpt lat="41.50205360006583" lon="-0.38232182925257524"><ele>292.75</ele><time>2026-05-04T11:02:46Z</time></trkpt><trkpt lat="41.50200194826288" lon="-0.38218665013706504"><ele>293.0</ele><time>2026-05-04T11:02:47Z</time></trkpt><trkpt lat="41.50195039884654" lon="-0.3820437983572806"><ele>291.5</ele><time>2026-05-04T11:02:48Z</time></trkpt><trkpt lat="41.50190401873607" lon="-0.3818987507642004"><ele>290.0</ele><time>2026-05-04T11:02:49Z</time></trkpt><trkpt lat="41.50185804794753" lon="-0.3817554569623552"><ele>288.5</ele><time>2026-05-04T11:02:50Z</time></trkpt><trkpt lat="41.50181813306433" lon="-0.3816120109630798"><ele>287.0</ele><time>2026-05-04T11:02:51Z</time></trkpt><trkpt lat="41.5017554339588" lon="-0.3814779582019143"><ele>287.25</ele><time>2026-05-04T11:02:52Z</time></trkpt><trkpt lat="41.50169282612509" lon="-0.38134546943683956"><ele>287.5</ele><time>2026-05-04T11:02:53Z</time></trkpt><trkpt lat="41.50164425564926" lon="-0.3812068948489831"><ele>287.75</ele><time>2026-05-04T11:02:54Z</time></trkpt><trkpt lat="41.50160808729869" lon="-0.38106036307980934"><ele>288.0</ele><time>2026-05-04T11:02:55Z</time></trkpt><trkpt lat="41.501559221984316" lon="-0.38092312403900414"><ele>288.0</ele><time>2026-05-04T11:02:56Z</time></trkpt><trkpt lat="41.50149678308337" lon="-0.3807925396031534"><ele>288.0</ele><time>2026-05-04T11:02:57Z</time></trkpt><trkpt lat="41.50145115464421" lon="-0.38065192806605486"><ele>288.0</ele><time>2026-05-04T11:02:58Z</time></trkpt><trkpt lat="41.5014037161504" lon="-0.3805138019888056"><ele>288.0</ele><time>2026-05-04T11:02:59Z</time></trkpt><trkpt lat="41.50135355950532" lon="-0.38037492311764004"><ele>288.5</ele><time>2026-05-04T11:03:00Z</time></trkpt><trkpt lat="41.50130288109485" lon="-0.3802331890539775"><ele>289.0</ele><time>2026-05-04T11:03:01Z</time></trkpt><trkpt lat="41.50125043489305" lon="-0.3800935689043516"><ele>289.5</ele><time>2026-05-04T11:03:02Z</time></trkpt><trkpt lat="41.501200034210214" lon="-0.3799518367519084"><ele>290.0</ele><time>2026-05-04T11:03:03Z</time></trkpt><trkpt lat="41.50115405021671" lon="-0.3798138614161986"><ele>288.25</ele><time>2026-05-04T11:03:04Z</time></trkpt><trkpt lat="41.501106401814866" lon="-0.3796754177749476"><ele>286.5</ele><time>2026-05-04T11:03:05Z</time></trkpt><trkpt lat="41.50105916456586" lon="-0.3795328824627382"><ele>284.75</ele><time>2026-05-04T11:03:06Z</time></trkpt><trkpt lat="41.50101351664658" lon="-0.3793951106736009"><ele>283.0</ele><time>2026-05-04T11:03:07Z</time></trkpt><trkpt lat="41.50096475955746" lon="-0.37925004910039445"><ele>283.0</ele><time>2026-05-04T11:03:08Z</time></trkpt><trkpt lat="41.50090776639091" lon="-0.37910840341439345"><ele>283.0</ele><time>2026-05-04T11:03:09Z</time></trkpt><trkpt lat="41.50086567744878" lon="-0.3789596949844892"><ele>283.0</ele><time>2026-05-04T11:03:10Z</time></trkpt><trkpt lat="41.500827900203944" lon="-0.37881046550144865"><ele>283.0</ele><time>2026-05-04T11:03:11Z</time></trkpt><trkpt lat="41.50078282129591" lon="-0.3786568756223704"><ele>282.5</ele><time>2026-05-04T11:03:12Z</time></trkpt><trkpt lat="41.50073899696887" lon="-0.37850756590462775"><ele>282.0</ele><time>2026-05-04T11:03:13Z</time></trkpt><trkpt lat="41.500690771543525" lon="-0.37835818919006353"><ele>281.5</ele><time>2026-05-04T11:03:14Z</time></trkpt><trkpt lat="41.50063970641172" lon="-0.37821335390601607"><ele>281.0</ele><time>2026-05-04T11:03:15Z</time></trkpt><trkpt lat="41.50059326116471" lon="-0.37806538991073285"><ele>281.5</ele><time>2026-05-04T11:03:16Z</time></trkpt><trkpt lat="41.50054724019682" lon="-0.37791822638272016"><ele>282.0</ele><time>2026-05-04T11:03:17Z</time></trkpt><trkpt lat="41.50049642558268" lon="-0.37777542890813975"><ele>282.5</ele><time>2026-05-04T11:03:18Z</time></trkpt><trkpt lat="41.50044820191707" lon="-0.3776299412837737"><ele>283.0</ele><time>2026-05-04T11:03:19Z</time></trkpt><trkpt lat="41.500398183374635" lon="-0.37748571428235483"><ele>282.5</ele><time>2026-05-04T11:03:20Z</time></trkpt><trkpt lat="41.50034248835438" lon="-0.37734563828945666"><ele>282.0</ele><time>2026-05-04T11:03:21Z</time></trkpt><trkpt lat="41.50028435600801" lon="-0.37721032117914"><ele>281.5</ele><time>2026-05-04T11:03:22Z</time></trkpt><trkpt lat="41.500227882677834" lon="-0.3770718247661551"><ele>281.0</ele><time>2026-05-04T11:03:23Z</time></trkpt><trkpt lat="41.50017077094826" lon="-0.3769366822530097"><ele>281.0</ele><time>2026-05-04T11:03:24Z</time></trkpt><trkpt lat="41.500109745261206" lon="-0.3768068791532108"><ele>281.0</ele><time>2026-05-04T11:03:25Z</time></trkpt><trkpt lat="41.500047219362486" lon="-0.37667456538527816"><ele>281.0</ele><time>2026-05-04T11:03:26Z</time></trkpt><trkpt lat="41.4999834228156" lon="-0.37654772522441143"><ele>281.0</ele><time>2026-05-04T11:03:27Z</time></trkpt><trkpt lat="41.49991768276501" lon="-0.3764197639967054"><ele>281.25</ele><time>2026-05-04T11:03:28Z</time></trkpt><trkpt lat="41.49985398708399" lon="-0.37629793160513375"><ele>281.5</ele><time>2026-05-04T11:03:29Z</time></trkpt><trkpt lat="41.49978563826144" lon="-0.37617428158029076"><ele>281.75</ele><time>2026-05-04T11:03:30Z</time></trkpt><trkpt lat="41.49971584196131" lon="-0.3760521302010179"><ele>282.0</ele><time>2026-05-04T11:03:31Z</time></trkpt><trkpt lat="41.49964544793981" lon="-0.3759307022122284"><ele>281.0</ele><time>2026-05-04T11:03:32Z</time></trkpt><trkpt lat="41.4995724423561" lon="-0.37581668757390885"><ele>280.0</ele><time>2026-05-04T11:03:33Z</time></trkpt><trkpt lat="41.49949718005271" lon="-0.37570568308966"><ele>279.0</ele><time>2026-05-04T11:03:34.001Z</time></trkpt><trkpt lat="41.49942304697181" lon="-0.3755889757343688"><ele>278.0</ele><time>2026-05-04T11:03:35.001Z</time></trkpt><trkpt lat="41.49934702270891" lon="-0.37547586286568024"><ele>277.6</ele><time>2026-05-04T11:03:36.001Z</time></trkpt><trkpt lat="41.499271201882905" lon="-0.3753673191884916"><ele>277.20000000000005</ele><time>2026-05-04T11:03:37.001Z</time></trkpt><trkpt lat="41.49918815572025" lon="-0.37526037977081406"><ele>276.8</ele><time>2026-05-04T11:03:38.001Z</time></trkpt><trkpt lat="41.49911043294026" lon="-0.37515361125979857"><ele>276.40000000000003</ele><time>2026-05-04T11:03:39.001Z</time></trkpt><trkpt lat="41.49904027436268" lon="-0.37504120778354916"><ele>276.0</ele><time>2026-05-04T11:03:40.001Z</time></trkpt><trkpt lat="41.498946440740546" lon="-0.37493640089698926"><ele>276.0</ele><time>2026-05-04T11:03:41.001Z</time></trkpt><trkpt lat="41.49885722239918" lon="-0.37483025042668877"><ele>276.0</ele><time>2026-05-04T11:03:42.001Z</time></trkpt><trkpt lat="41.49878052462165" lon="-0.37472468055841657"><ele>276.0</ele><time>2026-05-04T11:03:43.001Z</time></trkpt><trkpt lat="41.498700099073695" lon="-0.37461811649968435"><ele>276.0</ele><time>2026-05-04T11:03:44.001Z</time></trkpt><trkpt lat="41.49861677523537" lon="-0.3745124158919722"><ele>276.5</ele><time>2026-05-04T11:03:45.001Z</time></trkpt><trkpt lat="41.498546542986276" lon="-0.3744094490954204"><ele>277.0</ele><time>2026-05-04T11:03:46.001Z</time></trkpt><trkpt lat="41.49845748732871" lon="-0.37429249118653807"><ele>277.5</ele><time>2026-05-04T11:03:47.001Z</time></trkpt><trkpt lat="41.49838401448445" lon="-0.3741710975900495"><ele>278.0</ele><time>2026-05-04T11:03:48.001Z</time></trkpt><trkpt lat="41.49831935853913" lon="-0.37405041814513645"><ele>278.0</ele><time>2026-05-04T11:03:49.001Z</time></trkpt><trkpt lat="41.49823681716151" lon="-0.3739407952281525"><ele>278.0</ele><time>2026-05-04T11:03:50.001Z</time></trkpt><trkpt lat="41.498156124436136" lon="-0.37382692779208804"><ele>278.0</ele><time>2026-05-04T11:03:51.001Z</time></trkpt><trkpt lat="41.498088991854154" lon="-0.37370280568420045"><ele>278.0</ele><time>2026-05-04T11:03:52.001Z</time></trkpt><trkpt lat="41.49802499971071" lon="-0.3735777718536081"><ele>278.5</ele><time>2026-05-04T11:03:53.001Z</time></trkpt><trkpt lat="41.49795874492364" lon="-0.37345162719166647"><ele>279.0</ele><time>2026-05-04T11:03:54.001Z</time></trkpt><trkpt lat="41.49790206810534" lon="-0.37331873288875017"><ele>279.5</ele><time>2026-05-04T11:03:55.001Z</time></trkpt><trkpt lat="41.49783436540915" lon="-0.3731886150709675"><ele>280.0</ele><time>2026-05-04T11:03:56.001Z</time></trkpt><trkpt lat="41.497779416421025" lon="-0.373051343762361"><ele>279.25</ele><time>2026-05-04T11:03:57.001Z</time></trkpt><trkpt lat="41.49772798604106" lon="-0.3729139786836151"><ele>278.5</ele><time>2026-05-04T11:03:58.001Z</time></trkpt><trkpt lat="41.49767486571141" lon="-0.3727759176106907"><ele>277.75</ele><time>2026-05-04T11:03:59.001Z</time></trkpt><trkpt lat="41.49762209612062" lon="-0.3726361254562136"><ele>277.0</ele><time>2026-05-04T11:04:00.001Z</time></trkpt><trkpt lat="41.497570737561446" lon="-0.3724961872529144"><ele>277.0</ele><time>2026-05-04T11:04:01.001Z</time></trkpt><trkpt lat="41.49751957515203" lon="-0.3723572268831067"><ele>277.0</ele><time>2026-05-04T11:04:02.001Z</time></trkpt><trkpt lat="41.49747190157134" lon="-0.372219783994089"><ele>277.0</ele><time>2026-05-04T11:04:03.001Z</time></trkpt><trkpt lat="41.497425833681575" lon="-0.3720788218980651"><ele>277.0</ele><time>2026-05-04T11:04:04.001Z</time></trkpt><trkpt lat="41.49738167150266" lon="-0.3719382050831142"><ele>276.75</ele><time>2026-05-04T11:04:05.001Z</time></trkpt><trkpt lat="41.49733885133304" lon="-0.3717944524261988"><ele>276.5</ele><time>2026-05-04T11:04:06.001Z</time></trkpt><trkpt lat="41.49729590504728" lon="-0.37165159464291253"><ele>276.25</ele><time>2026-05-04T11:04:07.001Z</time></trkpt><trkpt lat="41.49726179869337" lon="-0.37151173870047066"><ele>276.0</ele><time>2026-05-04T11:04:08.001Z</time></trkpt><trkpt lat="41.49722186525934" lon="-0.37136927685044924"><ele>275.75</ele><time>2026-05-04T11:04:09.001Z</time></trkpt><trkpt lat="41.49718750841577" lon="-0.3712194110686631"><ele>275.5</ele><time>2026-05-04T11:04:10.001Z</time></trkpt><trkpt lat="41.497151768571435" lon="-0.37105440365848336"><ele>275.25</ele><time>2026-05-04T11:04:11.001Z</time></trkpt><trkpt lat="41.49713164923372" lon="-0.3708652016932522"><ele>275.0</ele><time>2026-05-04T11:04:12.001Z</time></trkpt><trkpt lat="41.4970972242072" lon="-0.3707777434133787"><ele>274.8</ele><time>2026-05-04T11:04:13.001Z</time></trkpt><trkpt lat="41.49706975575719" lon="-0.3706405618288315"><ele>274.6</ele><time>2026-05-04T11:04:14.001Z</time></trkpt><trkpt lat="41.49704546310577" lon="-0.37048827133040163"><ele>274.4</ele><time>2026-05-04T11:04:15.001Z</time></trkpt><trkpt lat="41.497019756010715" lon="-0.37034510496536893"><ele>274.2</ele><time>2026-05-04T11:04:16.001Z</time></trkpt><trkpt lat="41.49699664907667" lon="-0.3702002708208547"><ele>274.0</ele><time>2026-05-04T11:04:17.001Z</time></trkpt><trkpt lat="41.49697995948387" lon="-0.3700538605477419"><ele>274.0</ele><time>2026-05-04T11:04:18.001Z</time></trkpt><trkpt lat="41.496958324298376" lon="-0.3699092512344916"><ele>274.0</ele><time>2026-05-04T11:04:19.001Z</time></trkpt><trkpt lat="41.49693535178557" lon="-0.3697650256733257"><ele>274.0</ele><time>2026-05-04T11:04:20.001Z</time></trkpt><trkpt lat="41.49691370290704" lon="-0.3696181376836128"><ele>274.0</ele><time>2026-05-04T11:04:21.001Z</time></trkpt><trkpt lat="41.496895247254045" lon="-0.3694734182971205"><ele>274.0</ele><time>2026-05-04T11:04:22.001Z</time></trkpt><trkpt lat="41.49688021715292" lon="-0.3693146473488611"><ele>274.0</ele><time>2026-05-04T11:04:23.001Z</time></trkpt><trkpt lat="41.496853881096975" lon="-0.3691502723014256"><ele>274.0</ele><time>2026-05-04T11:04:24.001Z</time></trkpt><trkpt lat="41.496831416159566" lon="-0.36898873510372193"><ele>274.0</ele><time>2026-05-04T11:04:25.001Z</time></trkpt><trkpt lat="41.496814758436386" lon="-0.36886938420481347"><ele>274.0</ele><time>2026-05-04T11:04:26.001Z</time></trkpt><trkpt lat="41.496793744861996" lon="-0.36871882425239155"><ele>274.25</ele><time>2026-05-04T11:04:27.001Z</time></trkpt><trkpt lat="41.49677353212977" lon="-0.3685740022021925"><ele>274.5</ele><time>2026-05-04T11:04:28.001Z</time></trkpt><trkpt lat="41.49672244846129" lon="-0.36840966212831544"><ele>274.75</ele><time>2026-05-04T11:04:29.001Z</time></trkpt><trkpt lat="41.496643706184564" lon="-0.3682507168249365"><ele>275.0</ele><time>2026-05-04T11:04:30.001Z</time></trkpt><trkpt lat="41.496543974047285" lon="-0.3681636030112526"><ele>275.0</ele><time>2026-05-04T11:04:31.001Z</time></trkpt><trkpt lat="41.496681421043455" lon="-0.3679956292650828"><ele>275.0</ele><time>2026-05-04T11:04:32.001Z</time></trkpt><trkpt lat="41.49665936975151" lon="-0.3678482349971619"><ele>275.0</ele><time>2026-05-04T11:04:33.001Z</time></trkpt><trkpt lat="41.49663668914887" lon="-0.3677010263126601"><ele>275.0</ele><time>2026-05-04T11:04:34.001Z</time></trkpt><trkpt lat="41.496618157697355" lon="-0.3675570616823023"><ele>275.0</ele><time>2026-05-04T11:04:35.001Z</time></trkpt><trkpt lat="41.49660392636026" lon="-0.3674098052154699"><ele>275.0</ele><time>2026-05-04T11:04:36.001Z</time></trkpt><trkpt lat="41.49658644026172" lon="-0.3672697143822083"><ele>275.0</ele><time>2026-05-04T11:04:37.001Z</time></trkpt><trkpt lat="41.49656938025433" lon="-0.36712795138172505"><ele>275.0</ele><time>2026-05-04T11:04:38.001Z</time></trkpt><trkpt lat="41.49654832298445" lon="-0.36697939385695016"><ele>275.0</ele><time>2026-05-04T11:04:39.001Z</time></trkpt><trkpt lat="41.496526841143314" lon="-0.36683634486785954"><ele>275.2</ele><time>2026-05-04T11:04:40.001Z</time></trkpt><trkpt lat="41.496510233216256" lon="-0.36669163094311263"><ele>275.4</ele><time>2026-05-04T11:04:41.001Z</time></trkpt><trkpt lat="41.49650006897558" lon="-0.3665460136141772"><ele>275.6</ele><time>2026-05-04T11:04:42.001Z</time></trkpt><trkpt lat="41.496478234170254" lon="-0.36640458802833115"><ele>275.8</ele><time>2026-05-04T11:04:43.001Z</time></trkpt><trkpt lat="41.49644728899192" lon="-0.36626086494733656"><ele>276.0</ele><time>2026-05-04T11:04:44Z</time></trkpt><trkpt lat="41.49642842847322" lon="-0.36611258974876626"><ele>276.0</ele><time>2026-05-04T11:04:45Z</time></trkpt><trkpt lat="41.49641161596413" lon="-0.36596778564437316"><ele>276.0</ele><time>2026-05-04T11:04:46Z</time></trkpt><trkpt lat="41.49639838174068" lon="-0.3658209700512722"><ele>276.0</ele><time>2026-05-04T11:04:47Z</time></trkpt><trkpt lat="41.49637381041607" lon="-0.3656809707877937"><ele>276.0</ele><time>2026-05-04T11:04:48Z</time></trkpt><trkpt lat="41.496346898099596" lon="-0.36553656097329523"><ele>276.0</ele><time>2026-05-04T11:04:49Z</time></trkpt><trkpt lat="41.49632410454141" lon="-0.365395993356397"><ele>276.2</ele><time>2026-05-04T11:04:50Z</time></trkpt><trkpt lat="41.49630267361884" lon="-0.365250621847303"><ele>276.40000000000003</ele><time>2026-05-04T11:04:51Z</time></trkpt><trkpt lat="41.4962855278008" lon="-0.3651050200799776"><ele>276.6</ele><time>2026-05-04T11:04:52Z</time></trkpt><trkpt lat="41.496266203912825" lon="-0.36496488351149753"><ele>276.8</ele><time>2026-05-04T11:04:53Z</time></trkpt><trkpt lat="41.49624818456662" lon="-0.36482415729477335"><ele>277.0</ele><time>2026-05-04T11:04:54Z</time></trkpt><trkpt lat="41.49623417126955" lon="-0.3646925803651214"><ele>276.6</ele><time>2026-05-04T11:04:55Z</time></trkpt><trkpt lat="41.49622360425357" lon="-0.36455226642425537"><ele>276.2</ele><time>2026-05-04T11:04:56Z</time></trkpt><trkpt lat="41.49621758151303" lon="-0.3644118445554565"><ele>275.8</ele><time>2026-05-04T11:04:57Z</time></trkpt><trkpt lat="41.49621467796276" lon="-0.36426867918867284"><ele>275.4</ele><time>2026-05-04T11:04:58Z</time></trkpt><trkpt lat="41.49621609316315" lon="-0.3641236368322901"><ele>275.0</ele><time>2026-05-04T11:04:59Z</time></trkpt><trkpt lat="41.49621942643454" lon="-0.3639773615591054"><ele>275.2</ele><time>2026-05-04T11:05:00Z</time></trkpt><trkpt lat="41.49622527000233" lon="-0.36382812148418614"><ele>275.4</ele><time>2026-05-04T11:05:01Z</time></trkpt><trkpt lat="41.49623612002274" lon="-0.3636812227432425"><ele>275.6</ele><time>2026-05-04T11:05:02Z</time></trkpt><trkpt lat="41.49624645095034" lon="-0.36353628730343246"><ele>275.8</ele><time>2026-05-04T11:05:03Z</time></trkpt><trkpt lat="41.49625073203697" lon="-0.3633841018951161"><ele>276.0</ele><time>2026-05-04T11:05:04Z</time></trkpt><trkpt lat="41.4962508554501" lon="-0.36323497543262356"><ele>276.0</ele><time>2026-05-04T11:05:05Z</time></trkpt><trkpt lat="41.49625227765277" lon="-0.3630851871686925"><ele>276.0</ele><time>2026-05-04T11:05:06Z</time></trkpt><trkpt lat="41.49626156254046" lon="-0.3629520278804648"><ele>276.0</ele><time>2026-05-04T11:05:07Z</time></trkpt><trkpt lat="41.49627766976496" lon="-0.36286679335898314"><ele>276.0</ele><time>2026-05-04T11:05:08Z</time></trkpt><trkpt lat="41.49627485813634" lon="-0.3626394836629729"><ele>276.0</ele><time>2026-05-04T11:05:09Z</time></trkpt><trkpt lat="41.496282024345355" lon="-0.36240489292107186"><ele>275.75</ele><time>2026-05-04T11:05:10Z</time></trkpt><trkpt lat="41.49629894599668" lon="-0.3621846365298521"><ele>275.5</ele><time>2026-05-04T11:05:11Z</time></trkpt><trkpt lat="41.496328113317425" lon="-0.36204592844146566"><ele>275.25</ele><time>2026-05-04T11:05:12Z</time></trkpt><trkpt lat="41.49631979509367" lon="-0.36193858031371834"><ele>275.0</ele><time>2026-05-04T11:05:13Z</time></trkpt><trkpt lat="41.4963148827825" lon="-0.3617476574067298"><ele>275.0</ele><time>2026-05-04T11:05:15Z</time></trkpt><trkpt lat="41.49632148301537" lon="-0.3616025589884574"><ele>275.0</ele><time>2026-05-04T11:05:16Z</time></trkpt><trkpt lat="41.496327032130175" lon="-0.3614561026277475"><ele>275.0</ele><time>2026-05-04T11:05:17Z</time></trkpt><trkpt lat="41.496333830459406" lon="-0.36130908491477665"><ele>275.0</ele><time>2026-05-04T11:05:18Z</time></trkpt><trkpt lat="41.49634016472217" lon="-0.3611628050822607"><ele>275.0</ele><time>2026-05-04T11:05:19Z</time></trkpt><trkpt lat="41.49634606052735" lon="-0.36101889619415567"><ele>274.8</ele><time>2026-05-04T11:05:20Z</time></trkpt><trkpt lat="41.49635377390627" lon="-0.3608713617707765"><ele>274.6</ele><time>2026-05-04T11:05:21Z</time></trkpt><trkpt lat="41.49636038352322" lon="-0.3607254228970399"><ele>274.4</ele><time>2026-05-04T11:05:22Z</time></trkpt><trkpt lat="41.496365699947454" lon="-0.36057666661470655"><ele>274.2</ele><time>2026-05-04T11:05:23Z</time></trkpt><trkpt lat="41.496368383114735" lon="-0.36043131727424194"><ele>274.0</ele><time>2026-05-04T11:05:24Z</time></trkpt><trkpt lat="41.496367978827195" lon="-0.3602847511438457"><ele>273.75</ele><time>2026-05-04T11:05:25Z</time></trkpt><trkpt lat="41.49636260893922" lon="-0.360133847677848"><ele>273.5</ele><time>2026-05-04T11:05:26Z</time></trkpt><trkpt lat="41.49634769452195" lon="-0.35998336358276484"><ele>273.25</ele><time>2026-05-04T11:05:27Z</time></trkpt><trkpt lat="41.496327441845814" lon="-0.35983612593891307"><ele>273.0</ele><time>2026-05-04T11:05:28Z</time></trkpt><trkpt lat="41.49630738354019" lon="-0.3596876446101372"><ele>272.75</ele><time>2026-05-04T11:05:29Z</time></trkpt><trkpt lat="41.49628237500097" lon="-0.3595430341658106"><ele>272.5</ele><time>2026-05-04T11:05:30Z</time></trkpt><trkpt lat="41.49626248238046" lon="-0.3593981225504199"><ele>272.25</ele><time>2026-05-04T11:05:31Z</time></trkpt><trkpt lat="41.49624908786267" lon="-0.3592406096610557"><ele>272.0</ele><time>2026-05-04T11:05:32Z</time></trkpt><trkpt lat="41.49622919057086" lon="-0.35907710819352656"><ele>272.0</ele><time>2026-05-04T11:05:33Z</time></trkpt><trkpt lat="41.49620801212286" lon="-0.35893606130781586"><ele>272.0</ele><time>2026-05-04T11:05:34Z</time></trkpt><trkpt lat="41.496181705912" lon="-0.3588081316005677"><ele>272.0</ele><time>2026-05-04T11:05:35Z</time></trkpt><trkpt lat="41.49615893007569" lon="-0.35866194379021354"><ele>272.0</ele><time>2026-05-04T11:05:36Z</time></trkpt><trkpt lat="41.49614577524028" lon="-0.3585128510856279"><ele>272.0</ele><time>2026-05-04T11:05:37Z</time></trkpt><trkpt lat="41.49611986115617" lon="-0.35835426743609855"><ele>272.0</ele><time>2026-05-04T11:05:38Z</time></trkpt><trkpt lat="41.49609549875145" lon="-0.3581980518640492"><ele>272.0</ele><time>2026-05-04T11:05:39Z</time></trkpt><trkpt lat="41.49607548444903" lon="-0.35805664390421543"><ele>272.0</ele><time>2026-05-04T11:05:40Z</time></trkpt><trkpt lat="41.49605292409091" lon="-0.35790933333606445"><ele>272.0</ele><time>2026-05-04T11:05:41Z</time></trkpt><trkpt lat="41.49602842437244" lon="-0.3577614139330328"><ele>271.5</ele><time>2026-05-04T11:05:42Z</time></trkpt><trkpt lat="41.49600163826682" lon="-0.3576057121229931"><ele>271.0</ele><time>2026-05-04T11:05:43Z</time></trkpt><trkpt lat="41.495974666874346" lon="-0.35746965680208653"><ele>270.5</ele><time>2026-05-04T11:05:44Z</time></trkpt><trkpt lat="41.49594790577922" lon="-0.3573171273941401"><ele>270.0</ele><time>2026-05-04T11:05:45Z</time></trkpt><trkpt lat="41.495921175561435" lon="-0.3571661199274312"><ele>269.5</ele><time>2026-05-04T11:05:46.001Z</time></trkpt><trkpt lat="41.49589352925783" lon="-0.3570198265221895"><ele>269.0</ele><time>2026-05-04T11:05:47.001Z</time></trkpt><trkpt lat="41.495865523180726" lon="-0.3568711006316081"><ele>268.5</ele><time>2026-05-04T11:05:48.001Z</time></trkpt><trkpt lat="41.495836428120306" lon="-0.35672303278496525"><ele>268.0</ele><time>2026-05-04T11:05:49.001Z</time></trkpt><trkpt lat="41.49580840397374" lon="-0.3565729288673297"><ele>268.0</ele><time>2026-05-04T11:05:50.001Z</time></trkpt><trkpt lat="41.495780863307594" lon="-0.356423408166687"><ele>268.0</ele><time>2026-05-04T11:05:51.001Z</time></trkpt><trkpt lat="41.49575499782393" lon="-0.3562733378674304"><ele>268.0</ele><time>2026-05-04T11:05:52.001Z</time></trkpt><trkpt lat="41.49572800900888" lon="-0.35612720032967404"><ele>268.0</ele><time>2026-05-04T11:05:53.001Z</time></trkpt><trkpt lat="41.49569986384502" lon="-0.3559769539807401"><ele>268.0</ele><time>2026-05-04T11:05:54.001Z</time></trkpt><trkpt lat="41.4956693540971" lon="-0.35582998973844376"><ele>268.0</ele><time>2026-05-04T11:05:55.001Z</time></trkpt><trkpt lat="41.495641831162146" lon="-0.355684537070697"><ele>268.0</ele><time>2026-05-04T11:05:56.001Z</time></trkpt><trkpt lat="41.495614013599905" lon="-0.35553350161492764"><ele>268.0</ele><time>2026-05-04T11:05:57.001Z</time></trkpt><trkpt lat="41.49558489464731" lon="-0.35538769034315604"><ele>267.5</ele><time>2026-05-04T11:05:58.001Z</time></trkpt><trkpt lat="41.49555659702724" lon="-0.3552405170842054"><ele>267.0</ele><time>2026-05-04T11:05:59.001Z</time></trkpt><trkpt lat="41.49552976960859" lon="-0.355091162183528"><ele>266.5</ele><time>2026-05-04T11:06:00.001Z</time></trkpt><trkpt lat="41.495503018748536" lon="-0.35494169347353516"><ele>266.0</ele><time>2026-05-04T11:06:01.001Z</time></trkpt><trkpt lat="41.495479228020415" lon="-0.3547892985290242"><ele>265.25</ele><time>2026-05-04T11:06:02.001Z</time></trkpt><trkpt lat="41.49545526412046" lon="-0.3546353388151917"><ele>264.5</ele><time>2026-05-04T11:06:03.001Z</time></trkpt><trkpt lat="41.495430241734404" lon="-0.3544845425935216"><ele>263.75</ele><time>2026-05-04T11:06:04.001Z</time></trkpt><trkpt lat="41.49540693145928" lon="-0.35432916737800746"><ele>263.0</ele><time>2026-05-04T11:06:05.001Z</time></trkpt><trkpt lat="41.49538311230302" lon="-0.35417633896723505"><ele>263.25</ele><time>2026-05-04T11:06:06.001Z</time></trkpt><trkpt lat="41.495362567588856" lon="-0.35402561922053544"><ele>263.5</ele><time>2026-05-04T11:06:07.001Z</time></trkpt><trkpt lat="41.49534347507081" lon="-0.35387428999329373"><ele>263.75</ele><time>2026-05-04T11:06:08.001Z</time></trkpt><trkpt lat="41.495328062946214" lon="-0.35372522168652704"><ele>264.0</ele><time>2026-05-04T11:06:09.001Z</time></trkpt><trkpt lat="41.49530501181756" lon="-0.3535822104896348"><ele>264.0</ele><time>2026-05-04T11:06:10.001Z</time></trkpt><trkpt lat="41.49527972537411" lon="-0.35347137065575385"><ele>264.0</ele><time>2026-05-04T11:06:11.001Z</time></trkpt><trkpt lat="41.49526081583058" lon="-0.3531383079887633"><ele>264.0</ele><time>2026-05-04T11:06:13.001Z</time></trkpt><trkpt lat="41.495250406028234" lon="-0.35299184868503597"><ele>264.0</ele><time>2026-05-04T11:06:14.001Z</time></trkpt><trkpt lat="41.49524980283403" lon="-0.35284317822143957"><ele>263.5</ele><time>2026-05-04T11:06:15.001Z</time></trkpt><trkpt lat="41.49526079409556" lon="-0.35269441610335944"><ele>263.0</ele><time>2026-05-04T11:06:16.001Z</time></trkpt><trkpt lat="41.49527475565118" lon="-0.3525471940436253"><ele>262.5</ele><time>2026-05-04T11:06:17.001Z</time></trkpt><trkpt lat="41.49529203442747" lon="-0.3523973186230197"><ele>262.0</ele><time>2026-05-04T11:06:18.001Z</time></trkpt><trkpt lat="41.495314823442605" lon="-0.35224549637887714"><ele>262.0</ele><time>2026-05-04T11:06:19.001Z</time></trkpt><trkpt lat="41.49533792265373" lon="-0.3520924752140669"><ele>262.0</ele><time>2026-05-04T11:06:20.001Z</time></trkpt><trkpt lat="41.49536435945874" lon="-0.3519426928033234"><ele>262.0</ele><time>2026-05-04T11:06:21.001Z</time></trkpt><trkpt lat="41.49540018899133" lon="-0.35179812554888296"><ele>262.0</ele><time>2026-05-04T11:06:22.001Z</time></trkpt><trkpt lat="41.495432520015406" lon="-0.35165144688391825"><ele>262.5</ele><time>2026-05-04T11:06:23.001Z</time></trkpt><trkpt lat="41.49545908986753" lon="-0.35150205656433214"><ele>263.0</ele><time>2026-05-04T11:06:24.001Z</time></trkpt><trkpt lat="41.49549445450922" lon="-0.3513586926009784"><ele>263.5</ele><time>2026-05-04T11:06:25.001Z</time></trkpt><trkpt lat="41.495526637627144" lon="-0.35121245096491077"><ele>264.0</ele><time>2026-05-04T11:06:26.001Z</time></trkpt><trkpt lat="41.4955602776822" lon="-0.3510672157305487"><ele>264.0</ele><time>2026-05-04T11:06:27.001Z</time></trkpt><trkpt lat="41.49559660737556" lon="-0.3509247594580301"><ele>264.0</ele><time>2026-05-04T11:06:28.001Z</time></trkpt><trkpt lat="41.495628384834255" lon="-0.3507805931667016"><ele>264.0</ele><time>2026-05-04T11:06:29.001Z</time></trkpt><trkpt lat="41.495658182031434" lon="-0.35063849416588294"><ele>264.0</ele><time>2026-05-04T11:06:30.001Z</time></trkpt><trkpt lat="41.49567917209579" lon="-0.35049388447936053"><ele>264.0</ele><time>2026-05-04T11:06:31.001Z</time></trkpt><trkpt lat="41.49570011748857" lon="-0.35034507545434074"><ele>264.25</ele><time>2026-05-04T11:06:32.001Z</time></trkpt><trkpt lat="41.49571942458407" lon="-0.3501934145724992"><ele>264.5</ele><time>2026-05-04T11:06:33.001Z</time></trkpt><trkpt lat="41.49573862253745" lon="-0.35004742593341687"><ele>264.75</ele><time>2026-05-04T11:06:34.001Z</time></trkpt><trkpt lat="41.49575403866071" lon="-0.34989471593500565"><ele>265.0</ele><time>2026-05-04T11:06:35.001Z</time></trkpt><trkpt lat="41.495771652546885" lon="-0.3497460896286889"><ele>264.8</ele><time>2026-05-04T11:06:36.001Z</time></trkpt><trkpt lat="41.495791403909564" lon="-0.3496010182202405"><ele>264.6</ele><time>2026-05-04T11:06:37.001Z</time></trkpt><trkpt lat="41.49581412755619" lon="-0.349460129538616"><ele>264.4</ele><time>2026-05-04T11:06:38.001Z</time></trkpt><trkpt lat="41.49583184957668" lon="-0.3493096348385019"><ele>264.2</ele><time>2026-05-04T11:06:39.001Z</time></trkpt><trkpt lat="41.4958519244219" lon="-0.3491650941856398"><ele>264.0</ele><time>2026-05-04T11:06:40.001Z</time></trkpt><trkpt lat="41.495872535164274" lon="-0.3490179465017604"><ele>263.8</ele><time>2026-05-04T11:06:41.001Z</time></trkpt><trkpt lat="41.49589025640481" lon="-0.34886788395084145"><ele>263.59999999999997</ele><time>2026-05-04T11:06:42.001Z</time></trkpt><trkpt lat="41.495907985833256" lon="-0.34872298213712044"><ele>263.4</ele><time>2026-05-04T11:06:43.001Z</time></trkpt><trkpt lat="41.49592368547749" lon="-0.3485732449446197"><ele>263.2</ele><time>2026-05-04T11:06:44.001Z</time></trkpt><trkpt lat="41.49593881182308" lon="-0.34842576940315206"><ele>263.0</ele><time>2026-05-04T11:06:45.001Z</time></trkpt><trkpt lat="41.49594926405569" lon="-0.34827701986814474"><ele>263.0</ele><time>2026-05-04T11:06:46.001Z</time></trkpt><trkpt lat="41.49595004371595" lon="-0.3481231475706665"><ele>263.0</ele><time>2026-05-04T11:06:47.001Z</time></trkpt><trkpt lat="41.49593265844336" lon="-0.34797155001901436"><ele>263.0</ele><time>2026-05-04T11:06:48.001Z</time></trkpt><trkpt lat="41.49592089734481" lon="-0.34782025346494644"><ele>263.0</ele><time>2026-05-04T11:06:49.001Z</time></trkpt><trkpt lat="41.49589470710727" lon="-0.3476799737072308"><ele>263.0</ele><time>2026-05-04T11:06:50Z</time></trkpt><trkpt lat="41.49587156279227" lon="-0.34753525547851927"><ele>263.0</ele><time>2026-05-04T11:06:51Z</time></trkpt><trkpt lat="41.49585075747342" lon="-0.34738954856118637"><ele>263.0</ele><time>2026-05-04T11:06:52Z</time></trkpt><trkpt lat="41.495829793255176" lon="-0.3472483076817013"><ele>263.0</ele><time>2026-05-04T11:06:53Z</time></trkpt><trkpt lat="41.495814094553616" lon="-0.3471040148821204"><ele>263.0</ele><time>2026-05-04T11:06:54Z</time></trkpt><trkpt lat="41.49580312753293" lon="-0.346961491462809"><ele>263.4</ele><time>2026-05-04T11:06:55Z</time></trkpt><trkpt lat="41.495804162655084" lon="-0.34682035562337366"><ele>263.8</ele><time>2026-05-04T11:06:56Z</time></trkpt><trkpt lat="41.49582279533092" lon="-0.3466819178076575"><ele>264.2</ele><time>2026-05-04T11:06:57Z</time></trkpt><trkpt lat="41.4958400071391" lon="-0.34654008184842133"><ele>264.6</ele><time>2026-05-04T11:06:58Z</time></trkpt><trkpt lat="41.49586511123906" lon="-0.3463986232553281"><ele>265.0</ele><time>2026-05-04T11:06:59Z</time></trkpt><trkpt lat="41.49588890186688" lon="-0.34625360519972226"><ele>265.0</ele><time>2026-05-04T11:07:00Z</time></trkpt><trkpt lat="41.49591334669286" lon="-0.34610446295414776"><ele>265.0</ele><time>2026-05-04T11:07:01Z</time></trkpt><trkpt lat="41.49593670428059" lon="-0.34595512840125037"><ele>265.0</ele><time>2026-05-04T11:07:02Z</time></trkpt><trkpt lat="41.49595931258463" lon="-0.3458030347154379"><ele>265.0</ele><time>2026-05-04T11:07:03Z</time></trkpt><trkpt lat="41.495985788122105" lon="-0.3456552095536989"><ele>265.25</ele><time>2026-05-04T11:07:04Z</time></trkpt><trkpt lat="41.496008019843636" lon="-0.3455023931390701"><ele>265.5</ele><time>2026-05-04T11:07:05Z</time></trkpt><trkpt lat="41.49603018728104" lon="-0.34535372665606506"><ele>265.75</ele><time>2026-05-04T11:07:06Z</time></trkpt><trkpt lat="41.49605275407908" lon="-0.34520281541539793"><ele>266.0</ele><time>2026-05-04T11:07:07Z</time></trkpt><trkpt lat="41.49607588257215" lon="-0.34505431493464506"><ele>266.0</ele><time>2026-05-04T11:07:08Z</time></trkpt><trkpt lat="41.49609991175509" lon="-0.344903456919514"><ele>266.0</ele><time>2026-05-04T11:07:09Z</time></trkpt><trkpt lat="41.496129207170625" lon="-0.3447490639717881"><ele>266.0</ele><time>2026-05-04T11:07:10Z</time></trkpt><trkpt lat="41.496151188110964" lon="-0.3446019555743733"><ele>266.0</ele><time>2026-05-04T11:07:11Z</time></trkpt><trkpt lat="41.49617454323183" lon="-0.34445334810579736"><ele>266.0</ele><time>2026-05-04T11:07:12Z</time></trkpt><trkpt lat="41.49619851579671" lon="-0.3443035434937768"><ele>266.0</ele><time>2026-05-04T11:07:13Z</time></trkpt><trkpt lat="41.49622092091609" lon="-0.34416538099378896"><ele>266.0</ele><time>2026-05-04T11:07:14Z</time></trkpt><trkpt lat="41.496245333739" lon="-0.34401051143182687"><ele>266.0</ele><time>2026-05-04T11:07:15Z</time></trkpt><trkpt lat="41.49627054163755" lon="-0.34386203027397827"><ele>266.0</ele><time>2026-05-04T11:07:16Z</time></trkpt><trkpt lat="41.49628485748604" lon="-0.34370676114089704"><ele>266.0</ele><time>2026-05-04T11:07:17Z</time></trkpt><trkpt lat="41.49630603995519" lon="-0.3435710244021458"><ele>266.0</ele><time>2026-05-04T11:07:18Z</time></trkpt><trkpt lat="41.4963297421452" lon="-0.34343024041897996"><ele>266.0</ele><time>2026-05-04T11:07:19Z</time></trkpt><trkpt lat="41.49635026470953" lon="-0.3432870813427613"><ele>266.0</ele><time>2026-05-04T11:07:20Z</time></trkpt><trkpt lat="41.496367945963534" lon="-0.3431450168442607"><ele>266.2</ele><time>2026-05-04T11:07:21Z</time></trkpt><trkpt lat="41.49637720537276" lon="-0.3430022532761829"><ele>266.40000000000003</ele><time>2026-05-04T11:07:22Z</time></trkpt><trkpt lat="41.496383486878734" lon="-0.3428587315281833"><ele>266.6</ele><time>2026-05-04T11:07:23Z</time></trkpt><trkpt lat="41.496386201456396" lon="-0.3427131311746999"><ele>266.8</ele><time>2026-05-04T11:07:24Z</time></trkpt><trkpt lat="41.49637917957711" lon="-0.34257069474324353"><ele>267.0</ele><time>2026-05-04T11:07:25Z</time></trkpt><trkpt lat="41.49636349469972" lon="-0.3424300835532037"><ele>267.0</ele><time>2026-05-04T11:07:26Z</time></trkpt><trkpt lat="41.49633799176783" lon="-0.34229471795585775"><ele>267.0</ele><time>2026-05-04T11:07:27Z</time></trkpt><trkpt lat="41.496305704563106" lon="-0.3421584110975889"><ele>267.0</ele><time>2026-05-04T11:07:28Z</time></trkpt><trkpt lat="41.4962722563898" lon="-0.34202681948132574"><ele>267.0</ele><time>2026-05-04T11:07:29Z</time></trkpt><trkpt lat="41.49624303188145" lon="-0.34188923231234786"><ele>267.0</ele><time>2026-05-04T11:07:30Z</time></trkpt><trkpt lat="41.49620811591073" lon="-0.3417530684491903"><ele>268.0</ele><time>2026-05-04T11:07:31Z</time></trkpt><trkpt lat="41.496162382484385" lon="-0.3416312972559618"><ele>269.0</ele><time>2026-05-04T11:07:32Z</time></trkpt><trkpt lat="41.49612493751783" lon="-0.3414944310065884"><ele>270.0</ele><time>2026-05-04T11:07:33Z</time></trkpt><trkpt lat="41.49608896173184" lon="-0.3413577509887206"><ele>271.0</ele><time>2026-05-04T11:07:34Z</time></trkpt><trkpt lat="41.49605407248233" lon="-0.3412216112745301"><ele>272.0</ele><time>2026-05-04T11:07:35Z</time></trkpt><trkpt lat="41.49601700871072" lon="-0.3410863445578312"><ele>272.2</ele><time>2026-05-04T11:07:36Z</time></trkpt><trkpt lat="41.495978460908916" lon="-0.34095788772839714"><ele>272.4</ele><time>2026-05-04T11:07:37Z</time></trkpt><trkpt lat="41.495943129048996" lon="-0.3408198136723573"><ele>272.6</ele><time>2026-05-04T11:07:38Z</time></trkpt><trkpt lat="41.49590856968493" lon="-0.340686130270745"><ele>272.8</ele><time>2026-05-04T11:07:39Z</time></trkpt><trkpt lat="41.49587407386278" lon="-0.34055205464364174"><ele>273.0</ele><time>2026-05-04T11:07:40Z</time></trkpt><trkpt lat="41.495837799099796" lon="-0.3404206964738711"><ele>273.2</ele><time>2026-05-04T11:07:41Z</time></trkpt><trkpt lat="41.495807877880026" lon="-0.3402869347318663"><ele>273.4</ele><time>2026-05-04T11:07:42Z</time></trkpt><trkpt lat="41.49578411443159" lon="-0.34015383889912726"><ele>273.59999999999997</ele><time>2026-05-04T11:07:43Z</time></trkpt><trkpt lat="41.4957708189183" lon="-0.3400143621421654"><ele>273.8</ele><time>2026-05-04T11:07:44.001Z</time></trkpt><trkpt lat="41.49576031205038" lon="-0.33987858570271784"><ele>274.0</ele><time>2026-05-04T11:07:45.001Z</time></trkpt><trkpt lat="41.49576271593308" lon="-0.3397423989526483"><ele>274.2</ele><time>2026-05-04T11:07:46.001Z</time></trkpt><trkpt lat="41.49577220308482" lon="-0.33960382003099726"><ele>274.4</ele><time>2026-05-04T11:07:47.001Z</time></trkpt><trkpt lat="41.495781240215564" lon="-0.3394679526782523"><ele>274.6</ele><time>2026-05-04T11:07:48.001Z</time></trkpt><trkpt lat="41.49578935355918" lon="-0.3393318397891874"><ele>274.8</ele><time>2026-05-04T11:07:49.001Z</time></trkpt><trkpt lat="41.49579949634499" lon="-0.3391947062284333"><ele>275.0</ele><time>2026-05-04T11:07:50.001Z</time></trkpt><trkpt lat="41.49580821316293" lon="-0.33905694278534904"><ele>275.0</ele><time>2026-05-04T11:07:51.001Z</time></trkpt><trkpt lat="41.49581539188203" lon="-0.33892125620529145"><ele>275.0</ele><time>2026-05-04T11:07:52.001Z</time></trkpt><trkpt lat="41.49582380547214" lon="-0.33878449288892953"><ele>275.0</ele><time>2026-05-04T11:07:53.001Z</time></trkpt><trkpt lat="41.49583418540918" lon="-0.3386477887216178"><ele>275.0</ele><time>2026-05-04T11:07:54.001Z</time></trkpt><trkpt lat="41.49584280974264" lon="-0.3385122010872521"><ele>275.0</ele><time>2026-05-04T11:07:55.001Z</time></trkpt><trkpt lat="41.49585169866003" lon="-0.3383755444646303"><ele>275.2</ele><time>2026-05-04T11:07:56.001Z</time></trkpt><trkpt lat="41.49586147121245" lon="-0.3382366768848781"><ele>275.4</ele><time>2026-05-04T11:07:57.001Z</time></trkpt><trkpt lat="41.49587069273248" lon="-0.3380974538582254"><ele>275.6</ele><time>2026-05-04T11:07:58.001Z</time></trkpt><trkpt lat="41.4958785399803" lon="-0.337961473792499"><ele>275.8</ele><time>2026-05-04T11:07:59.001Z</time></trkpt><trkpt lat="41.49588745653261" lon="-0.3378265237223346"><ele>276.0</ele><time>2026-05-04T11:08:00.001Z</time></trkpt><trkpt lat="41.4958980346485" lon="-0.33768426684415653"><ele>276.2</ele><time>2026-05-04T11:08:01.001Z</time></trkpt><trkpt lat="41.49590580382534" lon="-0.3375446765618381"><ele>276.40000000000003</ele><time>2026-05-04T11:08:02.001Z</time></trkpt><trkpt lat="41.49591541542237" lon="-0.3374022391781209"><ele>276.6</ele><time>2026-05-04T11:08:03.001Z</time></trkpt><trkpt lat="41.49592332737324" lon="-0.33726206619922205"><ele>276.8</ele><time>2026-05-04T11:08:04.001Z</time></trkpt><trkpt lat="41.49593175902424" lon="-0.33712070102369773"><ele>277.0</ele><time>2026-05-04T11:08:05.001Z</time></trkpt><trkpt lat="41.49593960790127" lon="-0.33697851055903394"><ele>277.4</ele><time>2026-05-04T11:08:06.001Z</time></trkpt><trkpt lat="41.49594695542483" lon="-0.33683420966057276"><ele>277.79999999999995</ele><time>2026-05-04T11:08:07.001Z</time></trkpt><trkpt lat="41.495955477458715" lon="-0.3366898755715284"><ele>278.2</ele><time>2026-05-04T11:08:08.001Z</time></trkpt><trkpt lat="41.49596537144061" lon="-0.33654591422422026"><ele>278.59999999999997</ele><time>2026-05-04T11:08:09.001Z</time></trkpt><trkpt lat="41.495973640162205" lon="-0.33640558212179633"><ele>279.0</ele><time>2026-05-04T11:08:10.001Z</time></trkpt><trkpt lat="41.49598220851704" lon="-0.33626483872768514"><ele>279.0</ele><time>2026-05-04T11:08:11.001Z</time></trkpt><trkpt lat="41.495991882502146" lon="-0.33612323873221817"><ele>279.0</ele><time>2026-05-04T11:08:12.001Z</time></trkpt><trkpt lat="41.49600020730681" lon="-0.33598004175207075"><ele>279.0</ele><time>2026-05-04T11:08:13.001Z</time></trkpt><trkpt lat="41.49600728238794" lon="-0.33583813030803555"><ele>279.0</ele><time>2026-05-04T11:08:14.001Z</time></trkpt><trkpt lat="41.49601903564758" lon="-0.3356959707517043"><ele>279.0</ele><time>2026-05-04T11:08:15.001Z</time></trkpt><trkpt lat="41.496028170053876" lon="-0.3355551866142999"><ele>279.2</ele><time>2026-05-04T11:08:16.001Z</time></trkpt><trkpt lat="41.49603444185374" lon="-0.3354115882488553"><ele>279.4</ele><time>2026-05-04T11:08:17.001Z</time></trkpt><trkpt lat="41.49604224877462" lon="-0.33527082825788473"><ele>279.6</ele><time>2026-05-04T11:08:18.001Z</time></trkpt><trkpt lat="41.49605090477188" lon="-0.3351293107374216"><ele>279.8</ele><time>2026-05-04T11:08:19.001Z</time></trkpt><trkpt lat="41.49606160188011" lon="-0.3349872955550258"><ele>280.0</ele><time>2026-05-04T11:08:20.001Z</time></trkpt><trkpt lat="41.49607166235112" lon="-0.33484498508754157"><ele>280.2</ele><time>2026-05-04T11:08:21.001Z</time></trkpt><trkpt lat="41.49608102602981" lon="-0.3347062959413469"><ele>280.4</ele><time>2026-05-04T11:08:22.001Z</time></trkpt><trkpt lat="41.49609008380599" lon="-0.3345644832169924"><ele>280.6</ele><time>2026-05-04T11:08:23.001Z</time></trkpt><trkpt lat="41.496097788155964" lon="-0.3344259149542291"><ele>280.8</ele><time>2026-05-04T11:08:24.001Z</time></trkpt><trkpt lat="41.496109807537835" lon="-0.3342885528323252"><ele>281.0</ele><time>2026-05-04T11:08:25.001Z</time></trkpt><trkpt lat="41.496125905163034" lon="-0.3341467609694853"><ele>281.0</ele><time>2026-05-04T11:08:26.001Z</time></trkpt><trkpt lat="41.49614147679634" lon="-0.3340069350292557"><ele>281.0</ele><time>2026-05-04T11:08:27.001Z</time></trkpt><trkpt lat="41.49615727619987" lon="-0.33386662217450735"><ele>281.0</ele><time>2026-05-04T11:08:28.001Z</time></trkpt><trkpt lat="41.49617725858809" lon="-0.33372284663980023"><ele>281.0</ele><time>2026-05-04T11:08:29.001Z</time></trkpt><trkpt lat="41.49619551289428" lon="-0.33358277451132684"><ele>281.0</ele><time>2026-05-04T11:08:30.001Z</time></trkpt><trkpt lat="41.49621215801224" lon="-0.33344057222935"><ele>281.0</ele><time>2026-05-04T11:08:31.001Z</time></trkpt><trkpt lat="41.496230434960395" lon="-0.3332975528782616"><ele>281.0</ele><time>2026-05-04T11:08:32.001Z</time></trkpt><trkpt lat="41.49625216902015" lon="-0.3331573079677832"><ele>281.0</ele><time>2026-05-04T11:08:33.001Z</time></trkpt><trkpt lat="41.49627691735203" lon="-0.333032074381092"><ele>281.0</ele><time>2026-05-04T11:08:34.001Z</time></trkpt><trkpt lat="41.49629863755509" lon="-0.33294056625418667"><ele>281.0</ele><time>2026-05-04T11:08:35.001Z</time></trkpt><trkpt lat="41.49630696701537" lon="-0.3327216668876908"><ele>281.0</ele><time>2026-05-04T11:08:36.001Z</time></trkpt><trkpt lat="41.49632245023974" lon="-0.33256097171726695"><ele>281.0</ele><time>2026-05-04T11:08:37.001Z</time></trkpt><trkpt lat="41.4963409148083" lon="-0.33240347067822823"><ele>281.0</ele><time>2026-05-04T11:08:38.001Z</time></trkpt><trkpt lat="41.49636303246971" lon="-0.33225604544825965"><ele>281.0</ele><time>2026-05-04T11:08:39.001Z</time></trkpt><trkpt lat="41.49638327943725" lon="-0.3321100195716732"><ele>281.0</ele><time>2026-05-04T11:08:40.001Z</time></trkpt><trkpt lat="41.4964034034664" lon="-0.33196019141910965"><ele>281.0</ele><time>2026-05-04T11:08:41.001Z</time></trkpt><trkpt lat="41.49642180638646" lon="-0.3318193112730437"><ele>281.0</ele><time>2026-05-04T11:08:42.001Z</time></trkpt><trkpt lat="41.49644043741118" lon="-0.33166196625610167"><ele>281.0</ele><time>2026-05-04T11:08:43.001Z</time></trkpt><trkpt lat="41.4964574070609" lon="-0.3315281841715883"><ele>281.0</ele><time>2026-05-04T11:08:44.001Z</time></trkpt><trkpt lat="41.49648014915659" lon="-0.33136974369451516"><ele>281.0</ele><time>2026-05-04T11:08:45.001Z</time></trkpt><trkpt lat="41.49649297942014" lon="-0.33121943221862205"><ele>281.0</ele><time>2026-05-04T11:08:46.001Z</time></trkpt><trkpt lat="41.496501616699895" lon="-0.33107028743245503"><ele>281.0</ele><time>2026-05-04T11:08:47.001Z</time></trkpt><trkpt lat="41.496534866634114" lon="-0.3309282869077195"><ele>281.0</ele><time>2026-05-04T11:08:48.001Z</time></trkpt><trkpt lat="41.49655018540443" lon="-0.33078106567799914"><ele>281.0</ele><time>2026-05-04T11:08:49.001Z</time></trkpt><trkpt lat="41.49656707902168" lon="-0.3306381964248003"><ele>281.0</ele><time>2026-05-04T11:08:50.001Z</time></trkpt><trkpt lat="41.4965986082674" lon="-0.33049270206372194"><ele>281.0</ele><time>2026-05-04T11:08:51.001Z</time></trkpt><trkpt lat="41.49663556761306" lon="-0.33036039713917575"><ele>281.0</ele><time>2026-05-04T11:08:52.001Z</time></trkpt><trkpt lat="41.496653073373835" lon="-0.3302209601132094"><ele>281.0</ele><time>2026-05-04T11:08:53.001Z</time></trkpt><trkpt lat="41.49667848583751" lon="-0.3300185444946468"><ele>281.0</ele><time>2026-05-04T11:08:54.001Z</time></trkpt><trkpt lat="41.496717001694016" lon="-0.32980003586219037"><ele>281.0</ele><time>2026-05-04T11:08:55.001Z</time></trkpt><trkpt lat="41.49674182370187" lon="-0.3296072661711394"><ele>281.0</ele><time>2026-05-04T11:08:56Z</time></trkpt><trkpt lat="41.49676156428247" lon="-0.3293562149728592"><ele>281.0</ele><time>2026-05-04T11:08:57Z</time></trkpt><trkpt lat="41.496712815811925" lon="-0.32946127126800884"><ele>281.0</ele><time>2026-05-04T11:08:58Z</time></trkpt><trkpt lat="41.49672932457481" lon="-0.32931558646185266"><ele>281.0</ele><time>2026-05-04T11:08:59Z</time></trkpt><trkpt lat="41.496749175651516" lon="-0.3291673552298845"><ele>281.0</ele><time>2026-05-04T11:09:00Z</time></trkpt><trkpt lat="41.496768804960155" lon="-0.3290177989580871"><ele>281.0</ele><time>2026-05-04T11:09:01Z</time></trkpt><trkpt lat="41.49678661417359" lon="-0.3288673854432105"><ele>281.0</ele><time>2026-05-04T11:09:02Z</time></trkpt><trkpt lat="41.49680603046962" lon="-0.32871855582728615"><ele>281.0</ele><time>2026-05-04T11:09:03Z</time></trkpt><trkpt lat="41.49682555740766" lon="-0.32857471335472593"><ele>281.0</ele><time>2026-05-04T11:09:04Z</time></trkpt><trkpt lat="41.49684420209298" lon="-0.3284253261901742"><ele>281.0</ele><time>2026-05-04T11:09:05Z</time></trkpt><trkpt lat="41.496862362391695" lon="-0.3282776126234218"><ele>281.0</ele><time>2026-05-04T11:09:06Z</time></trkpt><trkpt lat="41.496884401139226" lon="-0.32812687493773324"><ele>281.2</ele><time>2026-05-04T11:09:07Z</time></trkpt><trkpt lat="41.496897985042956" lon="-0.3279783738344248"><ele>281.40000000000003</ele><time>2026-05-04T11:09:08Z</time></trkpt><trkpt lat="41.496921971639495" lon="-0.3278362371307096"><ele>281.6</ele><time>2026-05-04T11:09:09Z</time></trkpt><trkpt lat="41.496941720768085" lon="-0.3276949791288129"><ele>281.8</ele><time>2026-05-04T11:09:10Z</time></trkpt><trkpt lat="41.49695736515805" lon="-0.3275470307238483"><ele>282.0</ele><time>2026-05-04T11:09:11Z</time></trkpt><trkpt lat="41.49697796081649" lon="-0.3273976438885848"><ele>282.0</ele><time>2026-05-04T11:09:12Z</time></trkpt><trkpt lat="41.49699893411489" lon="-0.32725542912600586"><ele>282.0</ele><time>2026-05-04T11:09:13Z</time></trkpt><trkpt lat="41.49701628012831" lon="-0.32711206882429156"><ele>282.0</ele><time>2026-05-04T11:09:14Z</time></trkpt><trkpt lat="41.49703377114797" lon="-0.32697269685493224"><ele>282.0</ele><time>2026-05-04T11:09:15Z</time></trkpt><trkpt lat="41.497049172676135" lon="-0.32682505254842104"><ele>282.0</ele><time>2026-05-04T11:09:16Z</time></trkpt><trkpt lat="41.49706870586416" lon="-0.32667885121120843"><ele>282.4</ele><time>2026-05-04T11:09:17Z</time></trkpt><trkpt lat="41.49708722755207" lon="-0.32653405333464747"><ele>282.79999999999995</ele><time>2026-05-04T11:09:18Z</time></trkpt><trkpt lat="41.497106674061015" lon="-0.32638981578669424"><ele>283.2</ele><time>2026-05-04T11:09:19Z</time></trkpt><trkpt lat="41.49712878836403" lon="-0.32624730212463326"><ele>283.59999999999997</ele><time>2026-05-04T11:09:20Z</time></trkpt><trkpt lat="41.4971481607974" lon="-0.32610456541265354"><ele>284.0</ele><time>2026-05-04T11:09:21Z</time></trkpt><trkpt lat="41.49716669457702" lon="-0.3259601109430987"><ele>284.2</ele><time>2026-05-04T11:09:22Z</time></trkpt><trkpt lat="41.49718298330947" lon="-0.32581640030000697"><ele>284.4</ele><time>2026-05-04T11:09:23Z</time></trkpt><trkpt lat="41.49720021777404" lon="-0.3256726274257329"><ele>284.6</ele><time>2026-05-04T11:09:24Z</time></trkpt><trkpt lat="41.49721934386908" lon="-0.3255310177965984"><ele>284.8</ele><time>2026-05-04T11:09:25Z</time></trkpt><trkpt lat="41.49723143776807" lon="-0.32538858717574837"><ele>285.0</ele><time>2026-05-04T11:09:26Z</time></trkpt><trkpt lat="41.49724371903781" lon="-0.32524631379977453"><ele>285.0</ele><time>2026-05-04T11:09:27Z</time></trkpt><trkpt lat="41.497251692505735" lon="-0.325102713798129"><ele>285.0</ele><time>2026-05-04T11:09:28Z</time></trkpt><trkpt lat="41.49725235691749" lon="-0.3249585307517905"><ele>285.0</ele><time>2026-05-04T11:09:29Z</time></trkpt><trkpt lat="41.49724550888466" lon="-0.32481515800301414"><ele>285.0</ele><time>2026-05-04T11:09:30Z</time></trkpt><trkpt lat="41.49723311761341" lon="-0.32467231676026026"><ele>285.0</ele><time>2026-05-04T11:09:31Z</time></trkpt><trkpt lat="41.49721480765846" lon="-0.3245322548111429"><ele>285.2</ele><time>2026-05-04T11:09:32Z</time></trkpt><trkpt lat="41.49719193190029" lon="-0.3243946416421867"><ele>285.4</ele><time>2026-05-04T11:09:33Z</time></trkpt><trkpt lat="41.49716302430053" lon="-0.32425602570948825"><ele>285.6</ele><time>2026-05-04T11:09:34Z</time></trkpt><trkpt lat="41.49713199161848" lon="-0.32411847983486647"><ele>285.8</ele><time>2026-05-04T11:09:35Z</time></trkpt><trkpt lat="41.49710481974755" lon="-0.32397937111815817"><ele>286.0</ele><time>2026-05-04T11:09:36Z</time></trkpt><trkpt lat="41.49707693288168" lon="-0.32384213152734154"><ele>286.0</ele><time>2026-05-04T11:09:37Z</time></trkpt><trkpt lat="41.49704620360823" lon="-0.3237034990440295"><ele>286.0</ele><time>2026-05-04T11:09:38Z</time></trkpt><trkpt lat="41.4970184270775" lon="-0.32356674028376464"><ele>286.0</ele><time>2026-05-04T11:09:39Z</time></trkpt><trkpt lat="41.496990409008866" lon="-0.323429057247263"><ele>286.0</ele><time>2026-05-04T11:09:40Z</time></trkpt><trkpt lat="41.49696074488836" lon="-0.3232933986564523"><ele>286.0</ele><time>2026-05-04T11:09:41Z</time></trkpt><trkpt lat="41.496932814461466" lon="-0.3231555946492861"><ele>285.8</ele><time>2026-05-04T11:09:42Z</time></trkpt><trkpt lat="41.49690638563038" lon="-0.323019182508941"><ele>285.6</ele><time>2026-05-04T11:09:43Z</time></trkpt><trkpt lat="41.496878782837804" lon="-0.3228802656412477"><ele>285.4</ele><time>2026-05-04T11:09:44Z</time></trkpt><trkpt lat="41.49684844083136" lon="-0.32274492794364873"><ele>285.2</ele><time>2026-05-04T11:09:45Z</time></trkpt><trkpt lat="41.49681967911267" lon="-0.3226098642594965"><ele>285.0</ele><time>2026-05-04T11:09:46Z</time></trkpt><trkpt lat="41.49679232698995" lon="-0.32247116125967673"><ele>285.0</ele><time>2026-05-04T11:09:47Z</time></trkpt><trkpt lat="41.49676391211114" lon="-0.3223328340038245"><ele>285.0</ele><time>2026-05-04T11:09:48Z</time></trkpt><trkpt lat="41.496736320502755" lon="-0.3221955226226197"><ele>285.0</ele><time>2026-05-04T11:09:49Z</time></trkpt><trkpt lat="41.496709277293036" lon="-0.32205430019733894"><ele>285.0</ele><time>2026-05-04T11:09:50Z</time></trkpt><trkpt lat="41.49668216613859" lon="-0.32191660183521364"><ele>285.0</ele><time>2026-05-04T11:09:51Z</time></trkpt><trkpt lat="41.49665201662551" lon="-0.3217751197209637"><ele>285.0</ele><time>2026-05-04T11:09:52.001Z</time></trkpt><trkpt lat="41.4966231295528" lon="-0.32163591707021666"><ele>285.0</ele><time>2026-05-04T11:09:53.001Z</time></trkpt><trkpt lat="41.49659733328175" lon="-0.3215002071625955"><ele>285.0</ele><time>2026-05-04T11:09:54.001Z</time></trkpt><trkpt lat="41.49657152528747" lon="-0.32136594034405386"><ele>285.0</ele><time>2026-05-04T11:09:55.001Z</time></trkpt><trkpt lat="41.49654365034707" lon="-0.3212289908566173"><ele>285.0</ele><time>2026-05-04T11:09:56.001Z</time></trkpt><trkpt lat="41.49651694180304" lon="-0.32109163337992264"><ele>285.2</ele><time>2026-05-04T11:09:57.001Z</time></trkpt><trkpt lat="41.49649120398491" lon="-0.32095657984292136"><ele>285.4</ele><time>2026-05-04T11:09:58.001Z</time></trkpt><trkpt lat="41.4964629047594" lon="-0.3208212737114642"><ele>285.6</ele><time>2026-05-04T11:09:59.001Z</time></trkpt><trkpt lat="41.49643737812146" lon="-0.3206854050235733"><ele>285.8</ele><time>2026-05-04T11:10:00.001Z</time></trkpt><trkpt lat="41.49641112420103" lon="-0.3205472701118887"><ele>286.0</ele><time>2026-05-04T11:10:01.001Z</time></trkpt><trkpt lat="41.4963831690827" lon="-0.3204094397676797"><ele>285.8</ele><time>2026-05-04T11:10:02.001Z</time></trkpt><trkpt lat="41.49635057506888" lon="-0.3202723411318785"><ele>285.6</ele><time>2026-05-04T11:10:03.001Z</time></trkpt><trkpt lat="41.49632072399657" lon="-0.32013506112732787"><ele>285.4</ele><time>2026-05-04T11:10:04.001Z</time></trkpt><trkpt lat="41.49629186394627" lon="-0.3199929317737536"><ele>285.2</ele><time>2026-05-04T11:10:05.001Z</time></trkpt><trkpt lat="41.496263884219694" lon="-0.3198496773189305"><ele>285.0</ele><time>2026-05-04T11:10:06.001Z</time></trkpt><trkpt lat="41.49623565782523" lon="-0.3197069301959302"><ele>285.0</ele><time>2026-05-04T11:10:07.001Z</time></trkpt><trkpt lat="41.4962081813868" lon="-0.3195642359390602"><ele>285.0</ele><time>2026-05-04T11:10:08.001Z</time></trkpt><trkpt lat="41.49617705139151" lon="-0.3194152102435576"><ele>285.0</ele><time>2026-05-04T11:10:09.001Z</time></trkpt><trkpt lat="41.496149584729196" lon="-0.31927051705877085"><ele>285.0</ele><time>2026-05-04T11:10:10.001Z</time></trkpt><trkpt lat="41.49611748477248" lon="-0.3191262393757779"><ele>285.0</ele><time>2026-05-04T11:10:11.001Z</time></trkpt><trkpt lat="41.49609108666519" lon="-0.31898485188480974"><ele>285.0</ele><time>2026-05-04T11:10:12.001Z</time></trkpt><trkpt lat="41.496064334924775" lon="-0.31885903651230163"><ele>285.0</ele><time>2026-05-04T11:10:13.001Z</time></trkpt><trkpt lat="41.49602743105419" lon="-0.31868326211248854"><ele>285.0</ele><time>2026-05-04T11:10:14.001Z</time></trkpt><trkpt lat="41.49599905473671" lon="-0.3185357504320921"><ele>285.0</ele><time>2026-05-04T11:10:15.001Z</time></trkpt><trkpt lat="41.495968521386644" lon="-0.31838994366907536"><ele>285.0</ele><time>2026-05-04T11:10:16.001Z</time></trkpt><trkpt lat="41.49593838715144" lon="-0.31824135601071035"><ele>285.0</ele><time>2026-05-04T11:10:17.001Z</time></trkpt><trkpt lat="41.495910813622906" lon="-0.3180886296468292"><ele>285.0</ele><time>2026-05-04T11:10:18.001Z</time></trkpt><trkpt lat="41.49588105778392" lon="-0.3179405628390241"><ele>285.2</ele><time>2026-05-04T11:10:19.001Z</time></trkpt><trkpt lat="41.49585037670498" lon="-0.317794713594755"><ele>285.4</ele><time>2026-05-04T11:10:20.001Z</time></trkpt><trkpt lat="41.49582403688786" lon="-0.3176494994558804"><ele>285.6</ele><time>2026-05-04T11:10:21.001Z</time></trkpt><trkpt lat="41.495796061089706" lon="-0.31750362265993354"><ele>285.8</ele><time>2026-05-04T11:10:22.001Z</time></trkpt><trkpt lat="41.49576417847724" lon="-0.31736199033116896"><ele>286.0</ele><time>2026-05-04T11:10:23.001Z</time></trkpt><trkpt lat="41.49573635668632" lon="-0.3172177630385371"><ele>286.0</ele><time>2026-05-04T11:10:24.001Z</time></trkpt><trkpt lat="41.495705449136615" lon="-0.3170722430584503"><ele>286.0</ele><time>2026-05-04T11:10:25.001Z</time></trkpt><trkpt lat="41.49567661204018" lon="-0.31693333732089435"><ele>286.0</ele><time>2026-05-04T11:10:26.001Z</time></trkpt><trkpt lat="41.49565148249399" lon="-0.3167884525335235"><ele>286.0</ele><time>2026-05-04T11:10:27.001Z</time></trkpt><trkpt lat="41.495624057110554" lon="-0.3166477663938164"><ele>286.0</ele><time>2026-05-04T11:10:28.001Z</time></trkpt><trkpt lat="41.49559588891757" lon="-0.31650124359596266"><ele>286.5</ele><time>2026-05-04T11:10:29.001Z</time></trkpt><trkpt lat="41.49556492046696" lon="-0.31635662105163437"><ele>287.0</ele><time>2026-05-04T11:10:30.001Z</time></trkpt><trkpt lat="41.495536409188524" lon="-0.3162066036233316"><ele>287.5</ele><time>2026-05-04T11:10:31.001Z</time></trkpt><trkpt lat="41.4955052124185" lon="-0.31606060928420127"><ele>288.0</ele><time>2026-05-04T11:10:32.001Z</time></trkpt><trkpt lat="41.49547798847134" lon="-0.31591663885743987"><ele>288.0</ele><time>2026-05-04T11:10:33.001Z</time></trkpt><trkpt lat="41.49545194149602" lon="-0.3157689118660312"><ele>288.0</ele><time>2026-05-04T11:10:34.001Z</time></trkpt><trkpt lat="41.49542558974772" lon="-0.31562539401655887"><ele>288.0</ele><time>2026-05-04T11:10:35.001Z</time></trkpt><trkpt lat="41.49538839332027" lon="-0.3154737385401474"><ele>288.0</ele><time>2026-05-04T11:10:36.001Z</time></trkpt><trkpt lat="41.49536408701311" lon="-0.3153253888704072"><ele>287.2</ele><time>2026-05-04T11:10:37.001Z</time></trkpt><trkpt lat="41.495334474340325" lon="-0.31518056885466744"><ele>286.4</ele><time>2026-05-04T11:10:38.001Z</time></trkpt><trkpt lat="41.495305713209326" lon="-0.31503781322615504"><ele>285.59999999999997</ele><time>2026-05-04T11:10:39.001Z</time></trkpt><trkpt lat="41.495287283578705" lon="-0.31490582419718144"><ele>284.8</ele><time>2026-05-04T11:10:40.001Z</time></trkpt><trkpt lat="41.495265398440836" lon="-0.3147977589406032"><ele>284.0</ele><time>2026-05-04T11:10:41.001Z</time></trkpt><trkpt lat="41.49522766549416" lon="-0.3146171237400879"><ele>284.0</ele><time>2026-05-04T11:10:42.001Z</time></trkpt><trkpt lat="41.495201988270146" lon="-0.3144720053325525"><ele>284.0</ele><time>2026-05-04T11:10:43.001Z</time></trkpt><trkpt lat="41.49517992793038" lon="-0.31432967453160904"><ele>284.0</ele><time>2026-05-04T11:10:44.001Z</time></trkpt><trkpt lat="41.49516380105768" lon="-0.3141862551759335"><ele>284.0</ele><time>2026-05-04T11:10:45.001Z</time></trkpt><trkpt lat="41.49514652742342" lon="-0.3140401218039447"><ele>284.0</ele><time>2026-05-04T11:10:46.001Z</time></trkpt><trkpt lat="41.49512953283206" lon="-0.3138960326910603"><ele>284.2</ele><time>2026-05-04T11:10:47.001Z</time></trkpt><trkpt lat="41.49511179311859" lon="-0.31375117513410683"><ele>284.4</ele><time>2026-05-04T11:10:48.001Z</time></trkpt><trkpt lat="41.49509261357958" lon="-0.313604957426089"><ele>284.6</ele><time>2026-05-04T11:10:49.001Z</time></trkpt><trkpt lat="41.49507588842967" lon="-0.31345789217250297"><ele>284.8</ele><time>2026-05-04T11:10:50.001Z</time></trkpt><trkpt lat="41.49505931768885" lon="-0.31331373630056647"><ele>285.0</ele><time>2026-05-04T11:10:51.001Z</time></trkpt><trkpt lat="41.49504306824339" lon="-0.31316794233599643"><ele>285.4</ele><time>2026-05-04T11:10:52.001Z</time></trkpt><trkpt lat="41.49502593864586" lon="-0.3130231840778126"><ele>285.8</ele><time>2026-05-04T11:10:53.001Z</time></trkpt><trkpt lat="41.49500978675271" lon="-0.3128792633558236"><ele>286.2</ele><time>2026-05-04T11:10:54.001Z</time></trkpt><trkpt lat="41.49499442247496" lon="-0.31273334745298953"><ele>286.6</ele><time>2026-05-04T11:10:55.001Z</time></trkpt><trkpt lat="41.49497771200014" lon="-0.3125878608123772"><ele>287.0</ele><time>2026-05-04T11:10:56.001Z</time></trkpt><trkpt lat="41.49496204598319" lon="-0.3124438140382998"><ele>287.0</ele><time>2026-05-04T11:10:57.001Z</time></trkpt><trkpt lat="41.49494586924005" lon="-0.3122964284885884"><ele>287.0</ele><time>2026-05-04T11:10:58.001Z</time></trkpt><trkpt lat="41.494928425378184" lon="-0.31215345505822256"><ele>287.0</ele><time>2026-05-04T11:10:59.001Z</time></trkpt><trkpt lat="41.49491135165014" lon="-0.31200723030577254"><ele>287.0</ele><time>2026-05-04T11:11:00.001Z</time></trkpt><trkpt lat="41.49489391738746" lon="-0.3118620937121428"><ele>287.0</ele><time>2026-05-04T11:11:01.001Z</time></trkpt><trkpt lat="41.49487806626499" lon="-0.31171507952225336"><ele>287.4</ele><time>2026-05-04T11:11:02Z</time></trkpt><trkpt lat="41.49486149085235" lon="-0.31157265485774854"><ele>287.79999999999995</ele><time>2026-05-04T11:11:03Z</time></trkpt><trkpt lat="41.49484572951009" lon="-0.31142665185316404"><ele>288.2</ele><time>2026-05-04T11:11:04Z</time></trkpt><trkpt lat="41.49482810454477" lon="-0.311282021698455"><ele>288.59999999999997</ele><time>2026-05-04T11:11:05Z</time></trkpt><trkpt lat="41.49481106944244" lon="-0.31113932617736967"><ele>289.0</ele><time>2026-05-04T11:11:06Z</time></trkpt><trkpt lat="41.494795580602855" lon="-0.31098531522213413"><ele>289.0</ele><time>2026-05-04T11:11:07Z</time></trkpt><trkpt lat="41.49477725963752" lon="-0.3108446313680312"><ele>289.0</ele><time>2026-05-04T11:11:08Z</time></trkpt><trkpt lat="41.49475984039369" lon="-0.3106980238035154"><ele>289.0</ele><time>2026-05-04T11:11:09Z</time></trkpt><trkpt lat="41.494741331037304" lon="-0.3105447132376471"><ele>289.0</ele><time>2026-05-04T11:11:10Z</time></trkpt><trkpt lat="41.49472172501394" lon="-0.310394018395407"><ele>289.0</ele><time>2026-05-04T11:11:11Z</time></trkpt><trkpt lat="41.494698547479615" lon="-0.3102625841490552"><ele>289.0</ele><time>2026-05-04T11:11:12Z</time></trkpt><trkpt lat="41.49464364159367" lon="-0.3101439547226507"><ele>289.0</ele><time>2026-05-04T11:11:13Z</time></trkpt><trkpt lat="41.49467099114921" lon="-0.3099704990399746"><ele>289.0</ele><time>2026-05-04T11:11:14Z</time></trkpt><trkpt lat="41.49465724246222" lon="-0.3098197498037173"><ele>289.0</ele><time>2026-05-04T11:11:15Z</time></trkpt><trkpt lat="41.49463863413793" lon="-0.30967000239659875"><ele>289.0</ele><time>2026-05-04T11:11:16Z</time></trkpt><trkpt lat="41.494617924941664" lon="-0.30951959730353473"><ele>289.0</ele><time>2026-05-04T11:11:17Z</time></trkpt><trkpt lat="41.49460211085431" lon="-0.3093683159565391"><ele>289.0</ele><time>2026-05-04T11:11:18Z</time></trkpt><trkpt lat="41.494583053368764" lon="-0.309217145896991"><ele>289.0</ele><time>2026-05-04T11:11:19Z</time></trkpt><trkpt lat="41.494566123644525" lon="-0.3090676505190872"><ele>288.5</ele><time>2026-05-04T11:11:20Z</time></trkpt><trkpt lat="41.49454805514542" lon="-0.3089179386600589"><ele>288.0</ele><time>2026-05-04T11:11:21Z</time></trkpt><trkpt lat="41.49453016642631" lon="-0.3087685540693769"><ele>287.5</ele><time>2026-05-04T11:11:22Z</time></trkpt><trkpt lat="41.49451246975428" lon="-0.30862044459167864"><ele>287.0</ele><time>2026-05-04T11:11:23Z</time></trkpt><trkpt lat="41.494492081998686" lon="-0.3084681272786665"><ele>287.0</ele><time>2026-05-04T11:11:24Z</time></trkpt><trkpt lat="41.49447580681355" lon="-0.30831867344383584"><ele>287.0</ele><time>2026-05-04T11:11:25Z</time></trkpt><trkpt lat="41.494457737994026" lon="-0.3081717649285787"><ele>287.0</ele><time>2026-05-04T11:11:26Z</time></trkpt><trkpt lat="41.494429560373504" lon="-0.3080227426451538"><ele>287.0</ele><time>2026-05-04T11:11:27Z</time></trkpt><trkpt lat="41.49442072039589" lon="-0.30788122988866495"><ele>287.0</ele><time>2026-05-04T11:11:28Z</time></trkpt><trkpt lat="41.49440321840513" lon="-0.3077216088379878"><ele>287.0</ele><time>2026-05-04T11:11:29Z</time></trkpt><trkpt lat="41.49438652815198" lon="-0.30757767160432764"><ele>287.0</ele><time>2026-05-04T11:11:30Z</time></trkpt><trkpt lat="41.49437263345933" lon="-0.3074368754916273"><ele>287.0</ele><time>2026-05-04T11:11:31Z</time></trkpt><trkpt lat="41.494356700164396" lon="-0.3072926937237351"><ele>287.0</ele><time>2026-05-04T11:11:32Z</time></trkpt><trkpt lat="41.49434030447254" lon="-0.307145856867938"><ele>287.0</ele><time>2026-05-04T11:11:33Z</time></trkpt><trkpt lat="41.49432243167224" lon="-0.30699793235106515"><ele>287.4</ele><time>2026-05-04T11:11:34Z</time></trkpt><trkpt lat="41.494307394658534" lon="-0.3068541333173113"><ele>287.79999999999995</ele><time>2026-05-04T11:11:35Z</time></trkpt><trkpt lat="41.49429604285889" lon="-0.3067073786111726"><ele>288.2</ele><time>2026-05-04T11:11:36Z</time></trkpt><trkpt lat="41.494281211018304" lon="-0.3065617659628502"><ele>288.59999999999997</ele><time>2026-05-04T11:11:37Z</time></trkpt><trkpt lat="41.49427086192045" lon="-0.30641453132052754"><ele>289.0</ele><time>2026-05-04T11:11:38Z</time></trkpt><trkpt lat="41.49426184495964" lon="-0.30626867738621866"><ele>290.0</ele><time>2026-05-04T11:11:39Z</time></trkpt><trkpt lat="41.4942536608106" lon="-0.30612244235449476"><ele>291.0</ele><time>2026-05-04T11:11:40Z</time></trkpt><trkpt lat="41.4942476000624" lon="-0.30596535672142033"><ele>292.0</ele><time>2026-05-04T11:11:41Z</time></trkpt><trkpt lat="41.4942436148213" lon="-0.30582430652830256"><ele>293.0</ele><time>2026-05-04T11:11:42Z</time></trkpt><trkpt lat="41.49425209145933" lon="-0.30566290165327104"><ele>293.0</ele><time>2026-05-04T11:11:43Z</time></trkpt><trkpt lat="41.494253545963765" lon="-0.30545933275372567"><ele>293.0</ele><time>2026-05-04T11:11:44Z</time></trkpt><trkpt lat="41.49425134883999" lon="-0.30536979342425813"><ele>293.0</ele><time>2026-05-04T11:11:45Z</time></trkpt><trkpt lat="41.49428013367756" lon="-0.3051190239740931"><ele>293.0</ele><time>2026-05-04T11:11:47Z</time></trkpt><trkpt lat="41.49429405549353" lon="-0.3048895011527847"><ele>292.75</ele><time>2026-05-04T11:11:48Z</time></trkpt><trkpt lat="41.49431324113145" lon="-0.3046475226956824"><ele>292.5</ele><time>2026-05-04T11:11:49Z</time></trkpt><trkpt lat="41.49431123280093" lon="-0.30448603743559927"><ele>292.25</ele><time>2026-05-04T11:11:51Z</time></trkpt><trkpt lat="41.494327276078565" lon="-0.3043374706058205"><ele>292.0</ele><time>2026-05-04T11:11:52Z</time></trkpt><trkpt lat="41.49434156671663" lon="-0.304186376364843"><ele>292.0</ele><time>2026-05-04T11:11:53Z</time></trkpt><trkpt lat="41.494358723340646" lon="-0.30403496655189083"><ele>292.0</ele><time>2026-05-04T11:11:54Z</time></trkpt><trkpt lat="41.49438160477867" lon="-0.3038864422118031"><ele>292.0</ele><time>2026-05-04T11:11:55Z</time></trkpt><trkpt lat="41.494407536625666" lon="-0.3037389347631097"><ele>292.0</ele><time>2026-05-04T11:11:56Z</time></trkpt><trkpt lat="41.494433620278755" lon="-0.3035949424977228"><ele>291.8</ele><time>2026-05-04T11:11:57Z</time></trkpt><trkpt lat="41.49446236288009" lon="-0.30345388507504467"><ele>291.6</ele><time>2026-05-04T11:11:58Z</time></trkpt><trkpt lat="41.49449440030094" lon="-0.30331201994761803"><ele>291.40000000000003</ele><time>2026-05-04T11:11:59Z</time></trkpt><trkpt lat="41.494525352391804" lon="-0.30316486115460123"><ele>291.2</ele><time>2026-05-04T11:12:00Z</time></trkpt><trkpt lat="41.49455763680064" lon="-0.30302007408789317"><ele>291.0</ele><time>2026-05-04T11:12:01Z</time></trkpt><trkpt lat="41.49459114178661" lon="-0.3028747111277853"><ele>291.40000000000003</ele><time>2026-05-04T11:12:02.001Z</time></trkpt><trkpt lat="41.494627436516296" lon="-0.3027381788401443"><ele>291.8</ele><time>2026-05-04T11:12:03.001Z</time></trkpt><trkpt lat="41.49466072866734" lon="-0.30259893863176157"><ele>292.20000000000005</ele><time>2026-05-04T11:12:04.001Z</time></trkpt><trkpt lat="41.494694799099236" lon="-0.30245809835142845"><ele>292.6</ele><time>2026-05-04T11:12:05.001Z</time></trkpt><trkpt lat="41.494736687341714" lon="-0.3023177647803929"><ele>293.0</ele><time>2026-05-04T11:12:06.001Z</time></trkpt><trkpt lat="41.49477470287361" lon="-0.30217897215706074"><ele>293.0</ele><time>2026-05-04T11:12:07.001Z</time></trkpt><trkpt lat="41.49480939144014" lon="-0.3020350249601725"><ele>293.0</ele><time>2026-05-04T11:12:08.001Z</time></trkpt><trkpt lat="41.49484450622229" lon="-0.3018912086044639"><ele>293.0</ele><time>2026-05-04T11:12:09.001Z</time></trkpt><trkpt lat="41.494882641101405" lon="-0.30174686232861675"><ele>293.0</ele><time>2026-05-04T11:12:10.001Z</time></trkpt><trkpt lat="41.49491948016095" lon="-0.30160944901972614"><ele>293.0</ele><time>2026-05-04T11:12:11.001Z</time></trkpt><trkpt lat="41.494954535875664" lon="-0.30146992078286455"><ele>293.0</ele><time>2026-05-04T11:12:12.001Z</time></trkpt><trkpt lat="41.49498815610805" lon="-0.301325482399528"><ele>293.0</ele><time>2026-05-04T11:12:13.001Z</time></trkpt><trkpt lat="41.49502126845633" lon="-0.3011810722077786"><ele>293.0</ele><time>2026-05-04T11:12:14.001Z</time></trkpt><trkpt lat="41.495062450698185" lon="-0.30103273276175707"><ele>292.5</ele><time>2026-05-04T11:12:15.001Z</time></trkpt><trkpt lat="41.495099882540885" lon="-0.3008932298215102"><ele>292.0</ele><time>2026-05-04T11:12:16.001Z</time></trkpt><trkpt lat="41.49513932857297" lon="-0.30074820722952195"><ele>291.5</ele><time>2026-05-04T11:12:17.001Z</time></trkpt><trkpt lat="41.495177695583834" lon="-0.3006054215347307"><ele>291.0</ele><time>2026-05-04T11:12:18.001Z</time></trkpt><trkpt lat="41.49521311014339" lon="-0.3004666624819324"><ele>291.0</ele><time>2026-05-04T11:12:19.001Z</time></trkpt><trkpt lat="41.495253845630415" lon="-0.3003239923339045"><ele>291.0</ele><time>2026-05-04T11:12:20.001Z</time></trkpt><trkpt lat="41.495290292975476" lon="-0.3001842573569896"><ele>291.0</ele><time>2026-05-04T11:12:21.001Z</time></trkpt><trkpt lat="41.49532257944761" lon="-0.3000418308947156"><ele>291.0</ele><time>2026-05-04T11:12:22.001Z</time></trkpt><trkpt lat="41.49536362358024" lon="-0.2999108188055767"><ele>291.0</ele><time>2026-05-04T11:12:23.001Z</time></trkpt><trkpt lat="41.49539610862886" lon="-0.29977232535530113"><ele>292.0</ele><time>2026-05-04T11:12:24.001Z</time></trkpt><trkpt lat="41.495429616507884" lon="-0.29963487633467983"><ele>293.0</ele><time>2026-05-04T11:12:25.001Z</time></trkpt><trkpt lat="41.495466093998886" lon="-0.2995007889793651"><ele>294.0</ele><time>2026-05-04T11:12:26.001Z</time></trkpt><trkpt lat="41.495502966694715" lon="-0.2993638826760033"><ele>295.0</ele><time>2026-05-04T11:12:27.001Z</time></trkpt><trkpt lat="41.49554055420268" lon="-0.2992278239505828"><ele>296.0</ele><time>2026-05-04T11:12:28.001Z</time></trkpt><trkpt lat="41.49557699062186" lon="-0.29909271617848077"><ele>296.0</ele><time>2026-05-04T11:12:29.001Z</time></trkpt><trkpt lat="41.49561407790373" lon="-0.2989589663021822"><ele>296.0</ele><time>2026-05-04T11:12:30.001Z</time></trkpt><trkpt lat="41.49564837699785" lon="-0.29882297578740397"><ele>296.0</ele><time>2026-05-04T11:12:31.001Z</time></trkpt><trkpt lat="41.49568583277214" lon="-0.2986863534351487"><ele>296.0</ele><time>2026-05-04T11:12:32.001Z</time></trkpt><trkpt lat="41.49571836868581" lon="-0.29855000806817994"><ele>296.0</ele><time>2026-05-04T11:12:33.001Z</time></trkpt><trkpt lat="41.49575448563131" lon="-0.2984143557892753"><ele>296.0</ele><time>2026-05-04T11:12:34.001Z</time></trkpt><trkpt lat="41.49579242305454" lon="-0.2982783450975074"><ele>296.0</ele><time>2026-05-04T11:12:35.001Z</time></trkpt><trkpt lat="41.4958289589135" lon="-0.29813852524717566"><ele>296.0</ele><time>2026-05-04T11:12:36.001Z</time></trkpt><trkpt lat="41.49586546863285" lon="-0.2980008206479434"><ele>296.0</ele><time>2026-05-04T11:12:37.001Z</time></trkpt><trkpt lat="41.495902330651305" lon="-0.2978620664133961"><ele>296.0</ele><time>2026-05-04T11:12:38.001Z</time></trkpt><trkpt lat="41.49593774170663" lon="-0.29772636842412303"><ele>296.0</ele><time>2026-05-04T11:12:39.001Z</time></trkpt><trkpt lat="41.49597367310584" lon="-0.2975869763904147"><ele>296.0</ele><time>2026-05-04T11:12:40.001Z</time></trkpt><trkpt lat="41.49600683158277" lon="-0.29745210441939335"><ele>296.0</ele><time>2026-05-04T11:12:41.001Z</time></trkpt><trkpt lat="41.49604484988987" lon="-0.2973148337600014"><ele>296.0</ele><time>2026-05-04T11:12:42.001Z</time></trkpt><trkpt lat="41.49608214113159" lon="-0.2971794224713986"><ele>296.0</ele><time>2026-05-04T11:12:43.001Z</time></trkpt><trkpt lat="41.496117316788535" lon="-0.29704628617096357"><ele>296.2</ele><time>2026-05-04T11:12:44.001Z</time></trkpt><trkpt lat="41.49615808139388" lon="-0.2969115571365553"><ele>296.40000000000003</ele><time>2026-05-04T11:12:45.001Z</time></trkpt><trkpt lat="41.496196939641564" lon="-0.2967756920214919"><ele>296.6</ele><time>2026-05-04T11:12:46.001Z</time></trkpt><trkpt lat="41.49623583557748" lon="-0.29663839347855775"><ele>296.8</ele><time>2026-05-04T11:12:47.001Z</time></trkpt><trkpt lat="41.49627660479276" lon="-0.2965028664559908"><ele>297.0</ele><time>2026-05-04T11:12:48.001Z</time></trkpt><trkpt lat="41.4963181020696" lon="-0.29636688009804496"><ele>296.5</ele><time>2026-05-04T11:12:49.001Z</time></trkpt><trkpt lat="41.49636450101134" lon="-0.29622128004375387"><ele>296.0</ele><time>2026-05-04T11:12:50.001Z</time></trkpt><trkpt lat="41.49640584953361" lon="-0.2960891311235366"><ele>295.5</ele><time>2026-05-04T11:12:51.001Z</time></trkpt><trkpt lat="41.49644562639099" lon="-0.29595537662325333"><ele>295.0</ele><time>2026-05-04T11:12:52.001Z</time></trkpt><trkpt lat="41.496483048859744" lon="-0.29580579735942836"><ele>295.0</ele><time>2026-05-04T11:12:53.001Z</time></trkpt><trkpt lat="41.49652263558205" lon="-0.2956704460000457"><ele>295.0</ele><time>2026-05-04T11:12:54.001Z</time></trkpt><trkpt lat="41.496564621522836" lon="-0.29552422429550584"><ele>295.0</ele><time>2026-05-04T11:12:55.001Z</time></trkpt><trkpt lat="41.49661074873794" lon="-0.2953899446451935"><ele>295.0</ele><time>2026-05-04T11:12:56.001Z</time></trkpt><trkpt lat="41.496652846517954" lon="-0.2952471503074266"><ele>294.8</ele><time>2026-05-04T11:12:57.001Z</time></trkpt><trkpt lat="41.49669746614166" lon="-0.295127250842849"><ele>294.6</ele><time>2026-05-04T11:12:58.001Z</time></trkpt><trkpt lat="41.49673952593427" lon="-0.2950332249870347"><ele>294.4</ele><time>2026-05-04T11:12:59.001Z</time></trkpt><trkpt lat="41.4967801259861" lon="-0.2949010419104787"><ele>294.2</ele><time>2026-05-04T11:13:00.001Z</time></trkpt><trkpt lat="41.49683228408823" lon="-0.2947260913602195"><ele>294.0</ele><time>2026-05-04T11:13:01.001Z</time></trkpt><trkpt lat="41.49687006448823" lon="-0.29457721288412364"><ele>294.0</ele><time>2026-05-04T11:13:02.001Z</time></trkpt><trkpt lat="41.49691768164083" lon="-0.29444382056763513"><ele>294.0</ele><time>2026-05-04T11:13:03.001Z</time></trkpt><trkpt lat="41.496959244725424" lon="-0.2943019051042599"><ele>294.0</ele><time>2026-05-04T11:13:04.001Z</time></trkpt><trkpt lat="41.49699988893331" lon="-0.2941589963466676"><ele>294.0</ele><time>2026-05-04T11:13:05.001Z</time></trkpt><trkpt lat="41.497042558274906" lon="-0.294018464288782"><ele>294.2</ele><time>2026-05-04T11:13:06.001Z</time></trkpt><trkpt lat="41.497083221902194" lon="-0.2938830679807897"><ele>294.4</ele><time>2026-05-04T11:13:07.001Z</time></trkpt><trkpt lat="41.49712157795312" lon="-0.29373423927972386"><ele>294.6</ele><time>2026-05-04T11:13:08Z</time></trkpt><trkpt lat="41.49716503132114" lon="-0.2936002539280434"><ele>294.8</ele><time>2026-05-04T11:13:09Z</time></trkpt><trkpt lat="41.49720786293458" lon="-0.29346248071273706"><ele>295.0</ele><time>2026-05-04T11:13:10Z</time></trkpt><trkpt lat="41.497251443857735" lon="-0.293329328947183"><ele>295.4</ele><time>2026-05-04T11:13:11Z</time></trkpt><trkpt lat="41.49729267693248" lon="-0.29319297559731833"><ele>295.8</ele><time>2026-05-04T11:13:12Z</time></trkpt><trkpt lat="41.49733044428352" lon="-0.29304820484130734"><ele>296.2</ele><time>2026-05-04T11:13:13Z</time></trkpt><trkpt lat="41.49737073175052" lon="-0.29291252326180334"><ele>296.6</ele><time>2026-05-04T11:13:14Z</time></trkpt><trkpt lat="41.4974102534639" lon="-0.2927711933983606"><ele>297.0</ele><time>2026-05-04T11:13:15Z</time></trkpt><trkpt lat="41.49745201372835" lon="-0.29263064514509923"><ele>297.0</ele><time>2026-05-04T11:13:16Z</time></trkpt><trkpt lat="41.49749053035031" lon="-0.2924904466625822"><ele>297.0</ele><time>2026-05-04T11:13:17Z</time></trkpt><trkpt lat="41.4975311293175" lon="-0.2923473287061039"><ele>297.0</ele><time>2026-05-04T11:13:18Z</time></trkpt><trkpt lat="41.49758026786248" lon="-0.2922072809241836"><ele>297.0</ele><time>2026-05-04T11:13:19Z</time></trkpt><trkpt lat="41.497625520788745" lon="-0.29206203089705535"><ele>296.75</ele><time>2026-05-04T11:13:20Z</time></trkpt><trkpt lat="41.49767031288308" lon="-0.29192014636617014"><ele>296.5</ele><time>2026-05-04T11:13:21Z</time></trkpt><trkpt lat="41.497714496071985" lon="-0.29177507777329653"><ele>296.25</ele><time>2026-05-04T11:13:22Z</time></trkpt><trkpt lat="41.49775392050742" lon="-0.29162899267972353"><ele>296.0</ele><time>2026-05-04T11:13:23Z</time></trkpt><trkpt lat="41.497789140505965" lon="-0.29148096424534764"><ele>296.0</ele><time>2026-05-04T11:13:24Z</time></trkpt><trkpt lat="41.497829218445894" lon="-0.29133126706217327"><ele>296.0</ele><time>2026-05-04T11:13:25Z</time></trkpt><trkpt lat="41.49785701466183" lon="-0.29117894108938114"><ele>296.0</ele><time>2026-05-04T11:13:26Z</time></trkpt><trkpt lat="41.497871400916516" lon="-0.29102360550444945"><ele>296.0</ele><time>2026-05-04T11:13:27Z</time></trkpt><trkpt lat="41.497881986364675" lon="-0.2908668300809998"><ele>296.0</ele><time>2026-05-04T11:13:28Z</time></trkpt><trkpt lat="41.49788841983466" lon="-0.2907101185850124"><ele>296.0</ele><time>2026-05-04T11:13:29Z</time></trkpt><trkpt lat="41.49790188791847" lon="-0.29055778053530523"><ele>296.0</ele><time>2026-05-04T11:13:30Z</time></trkpt><trkpt lat="41.497905914716114" lon="-0.29040730785175267"><ele>296.0</ele><time>2026-05-04T11:13:31Z</time></trkpt><trkpt lat="41.497916632008234" lon="-0.2902585432601848"><ele>297.0</ele><time>2026-05-04T11:13:32Z</time></trkpt><trkpt lat="41.49792090808087" lon="-0.29011015187395284"><ele>298.0</ele><time>2026-05-04T11:13:33Z</time></trkpt><trkpt lat="41.49792933730866" lon="-0.2899626637830795"><ele>299.0</ele><time>2026-05-04T11:13:34Z</time></trkpt><trkpt lat="41.49795081654824" lon="-0.28981886670598433"><ele>300.0</ele><time>2026-05-04T11:13:35Z</time></trkpt><trkpt lat="41.497974956189594" lon="-0.28967960551213945"><ele>301.0</ele><time>2026-05-04T11:13:36Z</time></trkpt><trkpt lat="41.497997725259005" lon="-0.28954476583334077"><ele>301.0</ele><time>2026-05-04T11:13:37Z</time></trkpt><trkpt lat="41.4980145194971" lon="-0.2894066273122575"><ele>301.0</ele><time>2026-05-04T11:13:38Z</time></trkpt><trkpt lat="41.4980450684376" lon="-0.2892712760345797"><ele>301.0</ele><time>2026-05-04T11:13:39Z</time></trkpt><trkpt lat="41.498078594040535" lon="-0.2891376960441612"><ele>301.0</ele><time>2026-05-04T11:13:40Z</time></trkpt><trkpt lat="41.49811692850382" lon="-0.2890060202309342"><ele>301.0</ele><time>2026-05-04T11:13:41Z</time></trkpt><trkpt lat="41.498153179005705" lon="-0.28887002277642626"><ele>300.40000000000003</ele><time>2026-05-04T11:13:42Z</time></trkpt><trkpt lat="41.49819613013609" lon="-0.2887376348647235"><ele>299.8</ele><time>2026-05-04T11:13:43Z</time></trkpt><trkpt lat="41.498248911965405" lon="-0.2886080735811004"><ele>299.20000000000005</ele><time>2026-05-04T11:13:44Z</time></trkpt><trkpt lat="41.49830114600922" lon="-0.2884802237799938"><ele>298.6</ele><time>2026-05-04T11:13:45Z</time></trkpt><trkpt lat="41.49835727676232" lon="-0.2883555504522821"><ele>298.0</ele><time>2026-05-04T11:13:46Z</time></trkpt><trkpt lat="41.498418049707645" lon="-0.2882311419337587"><ele>298.0</ele><time>2026-05-04T11:13:47Z</time></trkpt><trkpt lat="41.498480287879936" lon="-0.28810805271386625"><ele>298.0</ele><time>2026-05-04T11:13:48Z</time></trkpt><trkpt lat="41.4985412395916" lon="-0.287985612758599"><ele>298.0</ele><time>2026-05-04T11:13:49Z</time></trkpt><trkpt lat="41.49860455519788" lon="-0.2878619357587625"><ele>298.0</ele><time>2026-05-04T11:13:50Z</time></trkpt><trkpt lat="41.49866285329487" lon="-0.2877390933170634"><ele>298.0</ele><time>2026-05-04T11:13:51Z</time></trkpt><trkpt lat="41.49867641940946" lon="-0.28760057435864866"><ele>298.0</ele><time>2026-05-04T11:13:52Z</time></trkpt><trkpt lat="41.49870200254956" lon="-0.28750789003764643"><ele>298.0</ele><time>2026-05-04T11:13:53Z</time></trkpt><trkpt lat="41.498796769226345" lon="-0.28740056504712247"><ele>298.0</ele><time>2026-05-04T11:13:54Z</time></trkpt><trkpt lat="41.49892607109487" lon="-0.28725802021582875"><ele>298.0</ele><time>2026-05-04T11:13:55Z</time></trkpt><trkpt lat="41.499043351851455" lon="-0.28711395207641954"><ele>298.25</ele><time>2026-05-04T11:13:56Z</time></trkpt><trkpt lat="41.49911546779376" lon="-0.286958909889732"><ele>298.5</ele><time>2026-05-04T11:13:57Z</time></trkpt><trkpt lat="41.49920733030433" lon="-0.2867738006439542"><ele>298.75</ele><time>2026-05-04T11:13:59Z</time></trkpt><trkpt lat="41.49928750969515" lon="-0.28663956800392215"><ele>299.0</ele><time>2026-05-04T11:14:00Z</time></trkpt><trkpt lat="41.49935682534618" lon="-0.28650795598793805"><ele>299.0</ele><time>2026-05-04T11:14:01Z</time></trkpt><trkpt lat="41.499387498702916" lon="-0.2864195224303648"><ele>299.0</ele><time>2026-05-04T11:14:02Z</time></trkpt><trkpt lat="41.499454061767736" lon="-0.2862982389421999"><ele>299.0</ele><time>2026-05-04T11:14:03Z</time></trkpt><trkpt lat="41.49951942929529" lon="-0.28617884104209024"><ele>299.0</ele><time>2026-05-04T11:14:04.001Z</time></trkpt><trkpt lat="41.49958433542881" lon="-0.28606002666177494"><ele>299.0</ele><time>2026-05-04T11:14:05.001Z</time></trkpt><trkpt lat="41.49964462448802" lon="-0.28593734094730605"><ele>299.4</ele><time>2026-05-04T11:14:06.001Z</time></trkpt><trkpt lat="41.49970239048092" lon="-0.2858150242670659"><ele>299.79999999999995</ele><time>2026-05-04T11:14:07.001Z</time></trkpt><trkpt lat="41.49976094357966" lon="-0.28569293512058686"><ele>300.20000000000005</ele><time>2026-05-04T11:14:08.001Z</time></trkpt><trkpt lat="41.49981370977251" lon="-0.28556359157541195"><ele>300.6</ele><time>2026-05-04T11:14:09.001Z</time></trkpt><trkpt lat="41.499867307775645" lon="-0.28543337575882993"><ele>301.0</ele><time>2026-05-04T11:14:10.001Z</time></trkpt><trkpt lat="41.49991833638499" lon="-0.2852978833372192"><ele>301.0</ele><time>2026-05-04T11:14:11.001Z</time></trkpt><trkpt lat="41.499966783176895" lon="-0.28517136923829156"><ele>301.0</ele><time>2026-05-04T11:14:12.001Z</time></trkpt><trkpt lat="41.500011493799825" lon="-0.28504065226074315"><ele>301.0</ele><time>2026-05-04T11:14:13.001Z</time></trkpt><trkpt lat="41.50005762504558" lon="-0.2849139610874963"><ele>301.0</ele><time>2026-05-04T11:14:14.001Z</time></trkpt><trkpt lat="41.5001035130543" lon="-0.28478035027105136"><ele>301.0</ele><time>2026-05-04T11:14:15.001Z</time></trkpt><trkpt lat="41.50014454508678" lon="-0.2846478250880018"><ele>300.8</ele><time>2026-05-04T11:14:16.001Z</time></trkpt><trkpt lat="41.50017991725518" lon="-0.28451387135229655"><ele>300.6</ele><time>2026-05-04T11:14:17.001Z</time></trkpt><trkpt lat="41.50021342315378" lon="-0.2843774382716661"><ele>300.4</ele><time>2026-05-04T11:14:18.001Z</time></trkpt><trkpt lat="41.50024380548505" lon="-0.28424079891517307"><ele>300.2</ele><time>2026-05-04T11:14:19.001Z</time></trkpt><trkpt lat="41.5002685436403" lon="-0.284103747689299"><ele>300.0</ele><time>2026-05-04T11:14:20.001Z</time></trkpt><trkpt lat="41.50029569737927" lon="-0.2839649662614188"><ele>300.2</ele><time>2026-05-04T11:14:21.001Z</time></trkpt><trkpt lat="41.50032046440022" lon="-0.2838190460473825"><ele>300.4</ele><time>2026-05-04T11:14:22.001Z</time></trkpt><trkpt lat="41.50034107615293" lon="-0.2836838077487206"><ele>300.6</ele><time>2026-05-04T11:14:23.001Z</time></trkpt><trkpt lat="41.50035728491765" lon="-0.2835444333971805"><ele>300.8</ele><time>2026-05-04T11:14:24.001Z</time></trkpt><trkpt lat="41.50037696544073" lon="-0.28340148902840506"><ele>301.0</ele><time>2026-05-04T11:14:25.001Z</time></trkpt><trkpt lat="41.50038787620025" lon="-0.2832593666241388"><ele>301.0</ele><time>2026-05-04T11:14:26.001Z</time></trkpt><trkpt lat="41.5003963625677" lon="-0.2831159016423423"><ele>301.0</ele><time>2026-05-04T11:14:27.001Z</time></trkpt><trkpt lat="41.500401529696376" lon="-0.28297241533347284"><ele>301.0</ele><time>2026-05-04T11:14:28.001Z</time></trkpt><trkpt lat="41.50040241727322" lon="-0.2828318876545757"><ele>301.0</ele><time>2026-05-04T11:14:29.001Z</time></trkpt><trkpt lat="41.50040259520219" lon="-0.2826898261683082"><ele>301.0</ele><time>2026-05-04T11:14:30.001Z</time></trkpt><trkpt lat="41.50040059736087" lon="-0.28254591848889443"><ele>301.2</ele><time>2026-05-04T11:14:31.001Z</time></trkpt><trkpt lat="41.50039515643609" lon="-0.2824033906272808"><ele>301.40000000000003</ele><time>2026-05-04T11:14:32.001Z</time></trkpt><trkpt lat="41.5003847650251" lon="-0.28226479724736037"><ele>301.6</ele><time>2026-05-04T11:14:33.001Z</time></trkpt><trkpt lat="41.500376387875455" lon="-0.28212581613970855"><ele>301.8</ele><time>2026-05-04T11:14:34.001Z</time></trkpt><trkpt lat="41.50036170829274" lon="-0.28198504556350457"><ele>302.0</ele><time>2026-05-04T11:14:35.001Z</time></trkpt><trkpt lat="41.50034582426818" lon="-0.28184224181623285"><ele>302.0</ele><time>2026-05-04T11:14:36.001Z</time></trkpt><trkpt lat="41.50032650997328" lon="-0.28170422355012614"><ele>302.0</ele><time>2026-05-04T11:14:37.001Z</time></trkpt><trkpt lat="41.50030334140708" lon="-0.2815647767108447"><ele>302.0</ele><time>2026-05-04T11:14:38.001Z</time></trkpt><trkpt lat="41.50027761462945" lon="-0.2814276366004822"><ele>302.0</ele><time>2026-05-04T11:14:39.001Z</time></trkpt><trkpt lat="41.50024949299447" lon="-0.28128681518073456"><ele>302.0</ele><time>2026-05-04T11:14:40.001Z</time></trkpt><trkpt lat="41.50022435812051" lon="-0.28114796952655063"><ele>302.2</ele><time>2026-05-04T11:14:41.001Z</time></trkpt><trkpt lat="41.50019143856199" lon="-0.2810108451762968"><ele>302.4</ele><time>2026-05-04T11:14:42.001Z</time></trkpt><trkpt lat="41.50016110188398" lon="-0.28087207218537"><ele>302.6</ele><time>2026-05-04T11:14:43.001Z</time></trkpt><trkpt lat="41.5001325547581" lon="-0.28073382020427223"><ele>302.8</ele><time>2026-05-04T11:14:44.001Z</time></trkpt><trkpt lat="41.500102865858416" lon="-0.28059551767012375"><ele>303.0</ele><time>2026-05-04T11:14:45.001Z</time></trkpt><trkpt lat="41.50007066821182" lon="-0.2804582895463308"><ele>303.2</ele><time>2026-05-04T11:14:46.001Z</time></trkpt><trkpt lat="41.50003685681772" lon="-0.2803215314270243"><ele>303.4</ele><time>2026-05-04T11:14:47.001Z</time></trkpt><trkpt lat="41.50000495877315" lon="-0.2801817597974422"><ele>303.59999999999997</ele><time>2026-05-04T11:14:48.001Z</time></trkpt><trkpt lat="41.499972137621405" lon="-0.28004626901692126"><ele>303.8</ele><time>2026-05-04T11:14:49.001Z</time></trkpt><trkpt lat="41.49994176374324" lon="-0.27990467483954795"><ele>304.0</ele><time>2026-05-04T11:14:50.001Z</time></trkpt><trkpt lat="41.49990736016218" lon="-0.2797681990346134"><ele>304.2</ele><time>2026-05-04T11:14:51.001Z</time></trkpt><trkpt lat="41.49987352157409" lon="-0.2796310351801331"><ele>304.4</ele><time>2026-05-04T11:14:52.001Z</time></trkpt><trkpt lat="41.49984270647753" lon="-0.2794899067258417"><ele>304.6</ele><time>2026-05-04T11:14:53.001Z</time></trkpt><trkpt lat="41.499807897473104" lon="-0.27935012975577367"><ele>304.8</ele><time>2026-05-04T11:14:54.001Z</time></trkpt><trkpt lat="41.499772276709116" lon="-0.27921317370063"><ele>305.0</ele><time>2026-05-04T11:14:55.001Z</time></trkpt><trkpt lat="41.499735524657225" lon="-0.2790741230928094"><ele>305.0</ele><time>2026-05-04T11:14:56.001Z</time></trkpt><trkpt lat="41.499694214386324" lon="-0.2789388182938025"><ele>305.0</ele><time>2026-05-04T11:14:57.001Z</time></trkpt><trkpt lat="41.49965082164551" lon="-0.27880296753752615"><ele>305.0</ele><time>2026-05-04T11:14:58.001Z</time></trkpt><trkpt lat="41.49960522582652" lon="-0.27866776379189306"><ele>305.0</ele><time>2026-05-04T11:14:59.001Z</time></trkpt><trkpt lat="41.49955609714696" lon="-0.27854138995572164"><ele>305.0</ele><time>2026-05-04T11:15:00.001Z</time></trkpt><trkpt lat="41.499504678345104" lon="-0.2784103729676893"><ele>304.8</ele><time>2026-05-04T11:15:01.001Z</time></trkpt><trkpt lat="41.49944751851904" lon="-0.2782832290924341"><ele>304.6</ele><time>2026-05-04T11:15:02.001Z</time></trkpt><trkpt lat="41.49939422750098" lon="-0.2781606652935492"><ele>304.4</ele><time>2026-05-04T11:15:03.001Z</time></trkpt><trkpt lat="41.49934036812542" lon="-0.2780418085397019"><ele>304.2</ele><time>2026-05-04T11:15:04.001Z</time></trkpt><trkpt lat="41.49927696200338" lon="-0.2779176555693118"><ele>304.0</ele><time>2026-05-04T11:15:05.001Z</time></trkpt><trkpt lat="41.49921336871383" lon="-0.27780161435693634"><ele>304.4</ele><time>2026-05-04T11:15:06.001Z</time></trkpt><trkpt lat="41.499149931300515" lon="-0.27768822159655626"><ele>304.79999999999995</ele><time>2026-05-04T11:15:07.001Z</time></trkpt><trkpt lat="41.49908396134956" lon="-0.27757551247228196"><ele>305.20000000000005</ele><time>2026-05-04T11:15:08.001Z</time></trkpt><trkpt lat="41.49901727441049" lon="-0.27746541879703684"><ele>305.6</ele><time>2026-05-04T11:15:09.001Z</time></trkpt><trkpt lat="41.49894794757798" lon="-0.27735535338074985"><ele>306.0</ele><time>2026-05-04T11:15:10.001Z</time></trkpt><trkpt lat="41.49887790913875" lon="-0.2772471604354152"><ele>306.6</ele><time>2026-05-04T11:15:11.001Z</time></trkpt><trkpt lat="41.498808453284944" lon="-0.27713882602919515"><ele>307.20000000000005</ele><time>2026-05-04T11:15:12.001Z</time></trkpt><trkpt lat="41.498734366401756" lon="-0.27703137431115005"><ele>307.79999999999995</ele><time>2026-05-04T11:15:13.001Z</time></trkpt><trkpt lat="41.49866885333232" lon="-0.2769176933723546"><ele>308.4</ele><time>2026-05-04T11:15:14Z</time></trkpt><trkpt lat="41.49859774869626" lon="-0.27680969186990445"><ele>309.0</ele><time>2026-05-04T11:15:15Z</time></trkpt><trkpt lat="41.49852177567243" lon="-0.2767047701110308"><ele>309.0</ele><time>2026-05-04T11:15:16Z</time></trkpt><trkpt lat="41.49845156811445" lon="-0.27659732589993247"><ele>309.0</ele><time>2026-05-04T11:15:17Z</time></trkpt><trkpt lat="41.49837941867373" lon="-0.2764890753650237"><ele>309.0</ele><time>2026-05-04T11:15:18Z</time></trkpt><trkpt lat="41.49830572877542" lon="-0.27638265060236683"><ele>309.0</ele><time>2026-05-04T11:15:19Z</time></trkpt><trkpt lat="41.49823188033981" lon="-0.27627679415151274"><ele>309.0</ele><time>2026-05-04T11:15:20Z</time></trkpt><trkpt lat="41.49816344266244" lon="-0.2761710712662944"><ele>308.8</ele><time>2026-05-04T11:15:21Z</time></trkpt><trkpt lat="41.4980918077373" lon="-0.2760624602429683"><ele>308.59999999999997</ele><time>2026-05-04T11:15:22Z</time></trkpt><trkpt lat="41.498023678288156" lon="-0.275951033371415"><ele>308.4</ele><time>2026-05-04T11:15:23Z</time></trkpt><trkpt lat="41.49795796359187" lon="-0.2758422895728552"><ele>308.2</ele><time>2026-05-04T11:15:24Z</time></trkpt><trkpt lat="41.49789056723803" lon="-0.27572622895925103"><ele>308.0</ele><time>2026-05-04T11:15:25Z</time></trkpt><trkpt lat="41.497827822444485" lon="-0.2756108378682688"><ele>308.6</ele><time>2026-05-04T11:15:26Z</time></trkpt><trkpt lat="41.49776798941021" lon="-0.2754904561916663"><ele>309.20000000000005</ele><time>2026-05-04T11:15:27Z</time></trkpt><trkpt lat="41.49770817632173" lon="-0.27537003940555244"><ele>309.8</ele><time>2026-05-04T11:15:28Z</time></trkpt><trkpt lat="41.497654571260846" lon="-0.27524841559048374"><ele>310.40000000000003</ele><time>2026-05-04T11:15:29Z</time></trkpt><trkpt lat="41.49759733918942" lon="-0.27512738439048884"><ele>311.0</ele><time>2026-05-04T11:15:30Z</time></trkpt><trkpt lat="41.49754319043631" lon="-0.27501010861924796"><ele>311.0</ele><time>2026-05-04T11:15:31Z</time></trkpt><trkpt lat="41.49749029722357" lon="-0.2748892158309906"><ele>311.0</ele><time>2026-05-04T11:15:32Z</time></trkpt><trkpt lat="41.497437876706144" lon="-0.2747732808555092"><ele>311.0</ele><time>2026-05-04T11:15:33Z</time></trkpt><trkpt lat="41.497385795925034" lon="-0.2746550228257752"><ele>311.0</ele><time>2026-05-04T11:15:34Z</time></trkpt><trkpt lat="41.49733305284177" lon="-0.27453756062044316"><ele>311.0</ele><time>2026-05-04T11:15:35Z</time></trkpt><trkpt lat="41.49728045945118" lon="-0.2744205069342563"><ele>311.2</ele><time>2026-05-04T11:15:36Z</time></trkpt><trkpt lat="41.49722953114399" lon="-0.2743016809877113"><ele>311.40000000000003</ele><time>2026-05-04T11:15:37Z</time></trkpt><trkpt lat="41.49718006170357" lon="-0.27417897205807623"><ele>311.6</ele><time>2026-05-04T11:15:38Z</time></trkpt><trkpt lat="41.49713431900843" lon="-0.27405317545525915"><ele>311.8</ele><time>2026-05-04T11:15:39Z</time></trkpt><trkpt lat="41.49709082339939" lon="-0.27392717944524775"><ele>312.0</ele><time>2026-05-04T11:15:40Z</time></trkpt><trkpt lat="41.497047520412025" lon="-0.27379841672193833"><ele>312.0</ele><time>2026-05-04T11:15:41Z</time></trkpt><trkpt lat="41.4970037239607" lon="-0.2736664918592734"><ele>312.0</ele><time>2026-05-04T11:15:42Z</time></trkpt><trkpt lat="41.496963620828325" lon="-0.2735406683144384"><ele>312.0</ele><time>2026-05-04T11:15:43Z</time></trkpt><trkpt lat="41.49692729445556" lon="-0.27341319303344586"><ele>312.0</ele><time>2026-05-04T11:15:44Z</time></trkpt><trkpt lat="41.49689903598561" lon="-0.27326000167076325"><ele>312.0</ele><time>2026-05-04T11:15:45Z</time></trkpt><trkpt lat="41.49687041636421" lon="-0.2731248900507518"><ele>312.5</ele><time>2026-05-04T11:15:46Z</time></trkpt><trkpt lat="41.49684523075805" lon="-0.2729834829087379"><ele>313.0</ele><time>2026-05-04T11:15:47Z</time></trkpt><trkpt lat="41.49681669457151" lon="-0.2728335746703284"><ele>313.5</ele><time>2026-05-04T11:15:48Z</time></trkpt><trkpt lat="41.49679218464471" lon="-0.27269182783634494"><ele>314.0</ele><time>2026-05-04T11:15:49Z</time></trkpt><trkpt lat="41.49678116810189" lon="-0.2725222832339926"><ele>314.0</ele><time>2026-05-04T11:15:50Z</time></trkpt><trkpt lat="41.496766639040025" lon="-0.27238050957922394"><ele>314.0</ele><time>2026-05-04T11:15:51Z</time></trkpt><trkpt lat="41.49674623025349" lon="-0.27224055188119806"><ele>314.0</ele><time>2026-05-04T11:15:52Z</time></trkpt><trkpt lat="41.49673373054749" lon="-0.2720891213271402"><ele>314.0</ele><time>2026-05-04T11:15:53Z</time></trkpt><trkpt lat="41.49671974061946" lon="-0.27193484170767823"><ele>314.0</ele><time>2026-05-04T11:15:54Z</time></trkpt><trkpt lat="41.49670401544656" lon="-0.2717860961717057"><ele>314.0</ele><time>2026-05-04T11:15:55Z</time></trkpt><trkpt lat="41.49668792931911" lon="-0.27163456338336694"><ele>314.0</ele><time>2026-05-04T11:15:56Z</time></trkpt><trkpt lat="41.49667507160274" lon="-0.27148092180357153"><ele>314.0</ele><time>2026-05-04T11:15:57Z</time></trkpt><trkpt lat="41.496657788156206" lon="-0.27133212089783615"><ele>314.0</ele><time>2026-05-04T11:15:58Z</time></trkpt><trkpt lat="41.49664218051731" lon="-0.2711830206091344"><ele>313.8</ele><time>2026-05-04T11:15:59Z</time></trkpt><trkpt lat="41.496627256246605" lon="-0.2710335889012546"><ele>313.59999999999997</ele><time>2026-05-04T11:16:00Z</time></trkpt><trkpt lat="41.49660995053864" lon="-0.27088761796647903"><ele>313.4</ele><time>2026-05-04T11:16:01Z</time></trkpt><trkpt lat="41.49658768048133" lon="-0.27077465751812063"><ele>313.2</ele><time>2026-05-04T11:16:02Z</time></trkpt><trkpt lat="41.49656115823703" lon="-0.27069333591299555"><ele>313.0</ele><time>2026-05-04T11:16:03Z</time></trkpt><trkpt lat="41.496570442553974" lon="-0.27045432387420637"><ele>313.4</ele><time>2026-05-04T11:16:04Z</time></trkpt><trkpt lat="41.4965545839" lon="-0.2703078938986548"><ele>313.8</ele><time>2026-05-04T11:16:05Z</time></trkpt><trkpt lat="41.496541756977116" lon="-0.27016295091204806"><ele>314.2</ele><time>2026-05-04T11:16:06Z</time></trkpt><trkpt lat="41.49652633401004" lon="-0.2700165659005441"><ele>314.6</ele><time>2026-05-04T11:16:07Z</time></trkpt><trkpt lat="41.496513652014634" lon="-0.26986572946574044"><ele>315.0</ele><time>2026-05-04T11:16:08Z</time></trkpt><trkpt lat="41.49649988022144" lon="-0.2697136703921878"><ele>315.5</ele><time>2026-05-04T11:16:09Z</time></trkpt><trkpt lat="41.496484610744645" lon="-0.2695680306480688"><ele>316.0</ele><time>2026-05-04T11:16:10Z</time></trkpt><trkpt lat="41.49646852754464" lon="-0.2694166800593635"><ele>316.5</ele><time>2026-05-04T11:16:11Z</time></trkpt><trkpt lat="41.49644717886042" lon="-0.269269361862406"><ele>317.0</ele><time>2026-05-04T11:16:12.001Z</time></trkpt><trkpt lat="41.496427619213" lon="-0.26911886129467577"><ele>317.0</ele><time>2026-05-04T11:16:13.001Z</time></trkpt><trkpt lat="41.496408744735895" lon="-0.2689774337052995"><ele>317.0</ele><time>2026-05-04T11:16:14.001Z</time></trkpt><trkpt lat="41.496392814683354" lon="-0.26882983057815557"><ele>317.0</ele><time>2026-05-04T11:16:15.001Z</time></trkpt><trkpt lat="41.496380043304136" lon="-0.268679130467313"><ele>317.0</ele><time>2026-05-04T11:16:16.001Z</time></trkpt><trkpt lat="41.49636508350456" lon="-0.268534726890525"><ele>317.0</ele><time>2026-05-04T11:16:17.001Z</time></trkpt><trkpt lat="41.496344987489664" lon="-0.2683891000955067"><ele>317.4</ele><time>2026-05-04T11:16:18.001Z</time></trkpt><trkpt lat="41.49632929005456" lon="-0.268241876623454"><ele>317.79999999999995</ele><time>2026-05-04T11:16:19.001Z</time></trkpt><trkpt lat="41.49631579096547" lon="-0.26809530111894"><ele>318.2</ele><time>2026-05-04T11:16:20.001Z</time></trkpt><trkpt lat="41.49629894271994" lon="-0.2679547894952735"><ele>318.59999999999997</ele><time>2026-05-04T11:16:21.001Z</time></trkpt><trkpt lat="41.49629149353152" lon="-0.2678151074062387"><ele>319.0</ele><time>2026-05-04T11:16:22.001Z</time></trkpt><trkpt lat="41.49628871269307" lon="-0.2676700686001786"><ele>319.2</ele><time>2026-05-04T11:16:23.001Z</time></trkpt><trkpt lat="41.49628816754004" lon="-0.2675297774045149"><ele>319.4</ele><time>2026-05-04T11:16:24.001Z</time></trkpt><trkpt lat="41.49629421262967" lon="-0.2673864661062343"><ele>319.6</ele><time>2026-05-04T11:16:25.001Z</time></trkpt><trkpt lat="41.496320824308086" lon="-0.267241821171769"><ele>319.8</ele><time>2026-05-04T11:16:26.001Z</time></trkpt><trkpt lat="41.49633676802797" lon="-0.26710222813034223"><ele>320.0</ele><time>2026-05-04T11:16:27.001Z</time></trkpt><trkpt lat="41.496347499597924" lon="-0.26695472429820905"><ele>319.4</ele><time>2026-05-04T11:16:28.001Z</time></trkpt><trkpt lat="41.49635565511895" lon="-0.2668053885983773"><ele>318.8</ele><time>2026-05-04T11:16:29.001Z</time></trkpt><trkpt lat="41.4963661974795" lon="-0.2666574262148421"><ele>318.2</ele><time>2026-05-04T11:16:30.001Z</time></trkpt><trkpt lat="41.496385961969324" lon="-0.2665159790204412"><ele>317.6</ele><time>2026-05-04T11:16:31.001Z</time></trkpt><trkpt lat="41.49638861635893" lon="-0.2663650827732351"><ele>317.0</ele><time>2026-05-04T11:16:32.001Z</time></trkpt><trkpt lat="41.4963971010245" lon="-0.26621576091096877"><ele>316.75</ele><time>2026-05-04T11:16:33.001Z</time></trkpt><trkpt lat="41.49639558428117" lon="-0.26606184693454266"><ele>316.5</ele><time>2026-05-04T11:16:34.001Z</time></trkpt><trkpt lat="41.49639137072929" lon="-0.26590938356150434"><ele>316.25</ele><time>2026-05-04T11:16:35.001Z</time></trkpt><trkpt lat="41.49637777161793" lon="-0.2657553739143235"><ele>316.0</ele><time>2026-05-04T11:16:36.001Z</time></trkpt><trkpt lat="41.49636704028721" lon="-0.26560964684174776"><ele>315.75</ele><time>2026-05-04T11:16:37.001Z</time></trkpt><trkpt lat="41.496357787585126" lon="-0.2654631157510876"><ele>315.5</ele><time>2026-05-04T11:16:38.001Z</time></trkpt><trkpt lat="41.49633253346297" lon="-0.2653100878948379"><ele>315.25</ele><time>2026-05-04T11:16:39.001Z</time></trkpt><trkpt lat="41.496250690072614" lon="-0.2651707549393386"><ele>315.0</ele><time>2026-05-04T11:16:40.001Z</time></trkpt><trkpt lat="41.49618719843924" lon="-0.26502335806450533"><ele>315.75</ele><time>2026-05-04T11:16:41.001Z</time></trkpt><trkpt lat="41.49626105764608" lon="-0.2648639244936061"><ele>316.5</ele><time>2026-05-04T11:16:42.001Z</time></trkpt><trkpt lat="41.496280607345454" lon="-0.2647323994994478"><ele>317.25</ele><time>2026-05-04T11:16:43.001Z</time></trkpt><trkpt lat="41.49628981629754" lon="-0.2645880289760579"><ele>318.0</ele><time>2026-05-04T11:16:44.001Z</time></trkpt><trkpt lat="41.496272973257874" lon="-0.2644528022290374"><ele>317.8</ele><time>2026-05-04T11:16:45.001Z</time></trkpt><trkpt lat="41.49626104380599" lon="-0.26431285847650926"><ele>317.6</ele><time>2026-05-04T11:16:46.001Z</time></trkpt><trkpt lat="41.49625322575959" lon="-0.2641745765779446"><ele>317.4</ele><time>2026-05-04T11:16:47.001Z</time></trkpt><trkpt lat="41.496245442469004" lon="-0.2640421606684006"><ele>317.2</ele><time>2026-05-04T11:16:48.001Z</time></trkpt><trkpt lat="41.49623837251161" lon="-0.2639106499805276"><ele>317.0</ele><time>2026-05-04T11:16:49.001Z</time></trkpt><trkpt lat="41.496230859675" lon="-0.2637802158517602"><ele>317.6</ele><time>2026-05-04T11:16:50.001Z</time></trkpt><trkpt lat="41.49622094333991" lon="-0.2636500161601033"><ele>318.2</ele><time>2026-05-04T11:16:51.001Z</time></trkpt><trkpt lat="41.49621239036586" lon="-0.2635195674722933"><ele>318.8</ele><time>2026-05-04T11:16:52.001Z</time></trkpt><trkpt lat="41.49620912700269" lon="-0.2633875891265918"><ele>319.4</ele><time>2026-05-04T11:16:53.001Z</time></trkpt><trkpt lat="41.49619607304033" lon="-0.26325401258874925"><ele>320.0</ele><time>2026-05-04T11:16:54.001Z</time></trkpt><trkpt lat="41.49619059597573" lon="-0.2631174168927658"><ele>320.4</ele><time>2026-05-04T11:16:55.001Z</time></trkpt><trkpt lat="41.49618465197516" lon="-0.26298185559043946"><ele>320.8</ele><time>2026-05-04T11:16:56.001Z</time></trkpt><trkpt lat="41.49617521617604" lon="-0.2628430021288158"><ele>321.20000000000005</ele><time>2026-05-04T11:16:57.001Z</time></trkpt><trkpt lat="41.49616673928916" lon="-0.2627017862482839"><ele>321.6</ele><time>2026-05-04T11:16:58.001Z</time></trkpt><trkpt lat="41.496158660918034" lon="-0.2625569428493325"><ele>322.0</ele><time>2026-05-04T11:16:59.001Z</time></trkpt><trkpt lat="41.49615037552601" lon="-0.26241598354161194"><ele>322.20000000000005</ele><time>2026-05-04T11:17:00.001Z</time></trkpt><trkpt lat="41.4961416748453" lon="-0.2622705651423827"><ele>322.4</ele><time>2026-05-04T11:17:01.001Z</time></trkpt><trkpt lat="41.49613146094064" lon="-0.26212142182924986"><ele>322.6</ele><time>2026-05-04T11:17:02.001Z</time></trkpt><trkpt lat="41.496129773544894" lon="-0.2619752309711419"><ele>322.79999999999995</ele><time>2026-05-04T11:17:03.001Z</time></trkpt><trkpt lat="41.49612348290777" lon="-0.2618290446878072"><ele>323.0</ele><time>2026-05-04T11:17:04.001Z</time></trkpt><trkpt lat="41.496101974539556" lon="-0.2616879863882096"><ele>323.0</ele><time>2026-05-04T11:17:05.001Z</time></trkpt><trkpt lat="41.49608748127837" lon="-0.26153851466559624"><ele>323.0</ele><time>2026-05-04T11:17:06.001Z</time></trkpt><trkpt lat="41.496089570478" lon="-0.26138903937206714"><ele>323.0</ele><time>2026-05-04T11:17:07.001Z</time></trkpt><trkpt lat="41.49608321452914" lon="-0.2612467285131163"><ele>323.0</ele><time>2026-05-04T11:17:08.001Z</time></trkpt><trkpt lat="41.49607345005889" lon="-0.2611044286560967"><ele>323.0</ele><time>2026-05-04T11:17:09.001Z</time></trkpt><trkpt lat="41.49606492228172" lon="-0.2609659454340901"><ele>323.59999999999997</ele><time>2026-05-04T11:17:10.001Z</time></trkpt><trkpt lat="41.49605694146968" lon="-0.2608273814501398"><ele>324.2</ele><time>2026-05-04T11:17:11.001Z</time></trkpt><trkpt lat="41.49605189272318" lon="-0.2606945861292405"><ele>324.8</ele><time>2026-05-04T11:17:12.001Z</time></trkpt><trkpt lat="41.49604327314412" lon="-0.2605650233321403"><ele>325.4</ele><time>2026-05-04T11:17:13.001Z</time></trkpt><trkpt lat="41.496039612160104" lon="-0.260427345761729"><ele>326.0</ele><time>2026-05-04T11:17:14.001Z</time></trkpt><trkpt lat="41.49603730680877" lon="-0.2602915166398768"><ele>326.0</ele><time>2026-05-04T11:17:15.001Z</time></trkpt><trkpt lat="41.4960327888536" lon="-0.2601533429509324"><ele>326.0</ele><time>2026-05-04T11:17:16.001Z</time></trkpt><trkpt lat="41.49603011271128" lon="-0.2600166929082641"><ele>326.0</ele><time>2026-05-04T11:17:17.001Z</time></trkpt><trkpt lat="41.49602613929278" lon="-0.25988172963649764"><ele>326.0</ele><time>2026-05-04T11:17:18.001Z</time></trkpt><trkpt lat="41.49602224123487" lon="-0.2597441197011109"><ele>326.0</ele><time>2026-05-04T11:17:19.001Z</time></trkpt><trkpt lat="41.49601813861187" lon="-0.25960534298003396"><ele>326.0</ele><time>2026-05-04T11:17:20Z</time></trkpt><trkpt lat="41.49601678895754" lon="-0.2594674575465091"><ele>326.0</ele><time>2026-05-04T11:17:21Z</time></trkpt><trkpt lat="41.49601420127941" lon="-0.25932522429095556"><ele>326.0</ele><time>2026-05-04T11:17:22Z</time></trkpt><trkpt lat="41.496011598343465" lon="-0.2591880308593174"><ele>326.0</ele><time>2026-05-04T11:17:23Z</time></trkpt><trkpt lat="41.49600930498616" lon="-0.2590475212619117"><ele>326.0</ele><time>2026-05-04T11:17:24Z</time></trkpt><trkpt lat="41.49601045045432" lon="-0.2589092091080391"><ele>325.6</ele><time>2026-05-04T11:17:25Z</time></trkpt><trkpt lat="41.4960083892265" lon="-0.25877207694846904"><ele>325.20000000000005</ele><time>2026-05-04T11:17:26Z</time></trkpt><trkpt lat="41.49600529242766" lon="-0.2586315447729997"><ele>324.79999999999995</ele><time>2026-05-04T11:17:27Z</time></trkpt><trkpt lat="41.496004493565565" lon="-0.2584904376830719"><ele>324.4</ele><time>2026-05-04T11:17:28Z</time></trkpt><trkpt lat="41.496003310402976" lon="-0.25834667799995553"><ele>324.0</ele><time>2026-05-04T11:17:29Z</time></trkpt><trkpt lat="41.49600095373993" lon="-0.2581996264925448"><ele>323.79999999999995</ele><time>2026-05-04T11:17:30Z</time></trkpt><trkpt lat="41.49599556369126" lon="-0.2580511253840234"><ele>323.59999999999997</ele><time>2026-05-04T11:17:31Z</time></trkpt><trkpt lat="41.495991890808526" lon="-0.2579035703388399"><ele>323.4</ele><time>2026-05-04T11:17:32Z</time></trkpt><trkpt lat="41.49599244342463" lon="-0.2577554847993742"><ele>323.2</ele><time>2026-05-04T11:17:33Z</time></trkpt><trkpt lat="41.4959913208636" lon="-0.2576071807113663"><ele>323.0</ele><time>2026-05-04T11:17:34Z</time></trkpt><trkpt lat="41.495984785431226" lon="-0.25746568736589304"><ele>323.0</ele><time>2026-05-04T11:17:35Z</time></trkpt><trkpt lat="41.49597731940843" lon="-0.25731831939451166"><ele>323.0</ele><time>2026-05-04T11:17:36Z</time></trkpt><trkpt lat="41.49597095470266" lon="-0.25717340353231727"><ele>323.0</ele><time>2026-05-04T11:17:37Z</time></trkpt><trkpt lat="41.49596520692254" lon="-0.25702596479386763"><ele>323.0</ele><time>2026-05-04T11:17:38Z</time></trkpt><trkpt lat="41.49596568508" lon="-0.25688154002262337"><ele>323.0</ele><time>2026-05-04T11:17:39Z</time></trkpt><trkpt lat="41.49596668201486" lon="-0.2567377584816196"><ele>323.2</ele><time>2026-05-04T11:17:40Z</time></trkpt><trkpt lat="41.49596310538419" lon="-0.2565966589794946"><ele>323.4</ele><time>2026-05-04T11:17:41Z</time></trkpt><trkpt lat="41.49595832881847" lon="-0.25645747598332264"><ele>323.59999999999997</ele><time>2026-05-04T11:17:42Z</time></trkpt><trkpt lat="41.49595361827537" lon="-0.2563153897523409"><ele>323.79999999999995</ele><time>2026-05-04T11:17:43Z</time></trkpt><trkpt lat="41.495942692294854" lon="-0.25617329449318044"><ele>324.0</ele><time>2026-05-04T11:17:44Z</time></trkpt><trkpt lat="41.495933242832045" lon="-0.25603355368514125"><ele>324.0</ele><time>2026-05-04T11:17:45Z</time></trkpt><trkpt lat="41.49591851091613" lon="-0.25589627363705725"><ele>324.0</ele><time>2026-05-04T11:17:46Z</time></trkpt><trkpt lat="41.49590228325686" lon="-0.2557566287952856"><ele>324.0</ele><time>2026-05-04T11:17:47Z</time></trkpt><trkpt lat="41.49588741625863" lon="-0.2556192244533835"><ele>324.0</ele><time>2026-05-04T11:17:48Z</time></trkpt><trkpt lat="41.49587220556978" lon="-0.25547650902650226"><ele>324.0</ele><time>2026-05-04T11:17:49Z</time></trkpt><trkpt lat="41.495858019881815" lon="-0.2553350315389196"><ele>324.2</ele><time>2026-05-04T11:17:50Z</time></trkpt><trkpt lat="41.49584214906525" lon="-0.25519628108502684"><ele>324.4</ele><time>2026-05-04T11:17:51Z</time></trkpt><trkpt lat="41.495824640298714" lon="-0.2550571406768381"><ele>324.6</ele><time>2026-05-04T11:17:52Z</time></trkpt><trkpt lat="41.49580649029965" lon="-0.25491705783623064"><ele>324.8</ele><time>2026-05-04T11:17:53Z</time></trkpt><trkpt lat="41.495788540346226" lon="-0.25477425565277895"><ele>325.0</ele><time>2026-05-04T11:17:54Z</time></trkpt><trkpt lat="41.49576856533047" lon="-0.2546357653351273"><ele>325.4</ele><time>2026-05-04T11:17:55Z</time></trkpt><trkpt lat="41.49575404528937" lon="-0.25449533384121253"><ele>325.8</ele><time>2026-05-04T11:17:56Z</time></trkpt><trkpt lat="41.495739427713524" lon="-0.25435371769408854"><ele>326.20000000000005</ele><time>2026-05-04T11:17:57Z</time></trkpt><trkpt lat="41.495723831737806" lon="-0.2542134285649007"><ele>326.6</ele><time>2026-05-04T11:17:58Z</time></trkpt><trkpt lat="41.49571025426067" lon="-0.25407222476633945"><ele>327.0</ele><time>2026-05-04T11:17:59Z</time></trkpt><trkpt lat="41.495696447554614" lon="-0.25392963516519557"><ele>327.40000000000003</ele><time>2026-05-04T11:18:00Z</time></trkpt><trkpt lat="41.49568273312854" lon="-0.2537923917537311"><ele>327.8</ele><time>2026-05-04T11:18:01Z</time></trkpt><trkpt lat="41.49566238763537" lon="-0.2536540840164811"><ele>328.2</ele><time>2026-05-04T11:18:02Z</time></trkpt><trkpt lat="41.495643702009815" lon="-0.25351525989989865"><ele>328.6</ele><time>2026-05-04T11:18:03Z</time></trkpt><trkpt lat="41.49562831705851" lon="-0.2533757106542467"><ele>329.0</ele><time>2026-05-04T11:18:04Z</time></trkpt><trkpt lat="41.49561174913798" lon="-0.2532375684896111"><ele>329.2</ele><time>2026-05-04T11:18:05Z</time></trkpt><trkpt lat="41.49559675947603" lon="-0.25309906322589254"><ele>329.4</ele><time>2026-05-04T11:18:06Z</time></trkpt><trkpt lat="41.4955822198418" lon="-0.25296445247101446"><ele>329.6</ele><time>2026-05-04T11:18:07Z</time></trkpt><trkpt lat="41.49556365282924" lon="-0.252829602386831"><ele>329.8</ele><time>2026-05-04T11:18:08Z</time></trkpt><trkpt lat="41.495551287963785" lon="-0.25269142610351064"><ele>330.0</ele><time>2026-05-04T11:18:09Z</time></trkpt><trkpt lat="41.495532631995346" lon="-0.25255723120713347"><ele>330.0</ele><time>2026-05-04T11:18:10.001Z</time></trkpt><trkpt lat="41.49551500113672" lon="-0.25242366856567633"><ele>330.0</ele><time>2026-05-04T11:18:11.001Z</time></trkpt><trkpt lat="41.49549860156842" lon="-0.25228680821764937"><ele>330.0</ele><time>2026-05-04T11:18:12.001Z</time></trkpt><trkpt lat="41.49548163220487" lon="-0.25214935095982294"><ele>330.0</ele><time>2026-05-04T11:18:13.001Z</time></trkpt><trkpt lat="41.49546252350791" lon="-0.2520133544040663"><ele>330.0</ele><time>2026-05-04T11:18:14.001Z</time></trkpt><trkpt lat="41.495442751521885" lon="-0.2518771611680236"><ele>330.2</ele><time>2026-05-04T11:18:15.001Z</time></trkpt><trkpt lat="41.495428212028266" lon="-0.25173758382980754"><ele>330.4</ele><time>2026-05-04T11:18:16.001Z</time></trkpt><trkpt lat="41.4954097480879" lon="-0.2515985550712241"><ele>330.6</ele><time>2026-05-04T11:18:17.001Z</time></trkpt><trkpt lat="41.49538948287112" lon="-0.2514616450080819"><ele>330.8</ele><time>2026-05-04T11:18:18.001Z</time></trkpt><trkpt lat="41.49537757536165" lon="-0.25132238608376906"><ele>331.0</ele><time>2026-05-04T11:18:19.001Z</time></trkpt><trkpt lat="41.49535880199562" lon="-0.25118244139166235"><ele>330.6</ele><time>2026-05-04T11:18:20.001Z</time></trkpt><trkpt lat="41.495338765881485" lon="-0.251041707221512"><ele>330.20000000000005</ele><time>2026-05-04T11:18:21.001Z</time></trkpt><trkpt lat="41.49532442137757" lon="-0.25090022916677857"><ele>329.79999999999995</ele><time>2026-05-04T11:18:22.001Z</time></trkpt><trkpt lat="41.495306147874054" lon="-0.2507571642038141"><ele>329.4</ele><time>2026-05-04T11:18:23.001Z</time></trkpt><trkpt lat="41.49528517361927" lon="-0.2506123047596245"><ele>329.0</ele><time>2026-05-04T11:18:24.001Z</time></trkpt><trkpt lat="41.495268779664826" lon="-0.2504679764218531"><ele>329.0</ele><time>2026-05-04T11:18:25.001Z</time></trkpt><trkpt lat="41.495253226002774" lon="-0.2503250465033097"><ele>329.0</ele><time>2026-05-04T11:18:26.001Z</time></trkpt><trkpt lat="41.49523426123645" lon="-0.2501826624531464"><ele>329.0</ele><time>2026-05-04T11:18:27.001Z</time></trkpt><trkpt lat="41.495215931563735" lon="-0.2500397328667109"><ele>329.0</ele><time>2026-05-04T11:18:28.001Z</time></trkpt><trkpt lat="41.49519930331235" lon="-0.2498979341350675"><ele>329.0</ele><time>2026-05-04T11:18:29.001Z</time></trkpt><trkpt lat="41.49518299775627" lon="-0.2497552804419476"><ele>329.2</ele><time>2026-05-04T11:18:30.001Z</time></trkpt><trkpt lat="41.49516266486754" lon="-0.24961360939518046"><ele>329.4</ele><time>2026-05-04T11:18:31.001Z</time></trkpt><trkpt lat="41.49514643770743" lon="-0.2494721157641601"><ele>329.6</ele><time>2026-05-04T11:18:32.001Z</time></trkpt><trkpt lat="41.49513084143051" lon="-0.24933243158576043"><ele>329.8</ele><time>2026-05-04T11:18:33.001Z</time></trkpt><trkpt lat="41.4951111623023" lon="-0.24919137737442162"><ele>330.0</ele><time>2026-05-04T11:18:34.001Z</time></trkpt><trkpt lat="41.4950981958893" lon="-0.24905135018344182"><ele>330.0</ele><time>2026-05-04T11:18:35.001Z</time></trkpt><trkpt lat="41.49507688500762" lon="-0.24890856613724016"><ele>330.0</ele><time>2026-05-04T11:18:36.001Z</time></trkpt><trkpt lat="41.495062526093" lon="-0.24877032831496454"><ele>330.0</ele><time>2026-05-04T11:18:37.001Z</time></trkpt><trkpt lat="41.49504369702902" lon="-0.248628929602354"><ele>330.0</ele><time>2026-05-04T11:18:38.001Z</time></trkpt><trkpt lat="41.49502165734604" lon="-0.24849126166109542"><ele>330.0</ele><time>2026-05-04T11:18:39.001Z</time></trkpt><trkpt lat="41.495001178979386" lon="-0.2483513831953639"><ele>330.0</ele><time>2026-05-04T11:18:40.001Z</time></trkpt><trkpt lat="41.49498014815639" lon="-0.24820976739784031"><ele>330.0</ele><time>2026-05-04T11:18:41.001Z</time></trkpt><trkpt lat="41.494959933361095" lon="-0.2480690025327384"><ele>330.0</ele><time>2026-05-04T11:18:42.001Z</time></trkpt><trkpt lat="41.494935599028494" lon="-0.24793024727688162"><ele>330.0</ele><time>2026-05-04T11:18:43.001Z</time></trkpt><trkpt lat="41.494910932998" lon="-0.24779137530255216"><ele>330.0</ele><time>2026-05-04T11:18:44.001Z</time></trkpt><trkpt lat="41.49488849776698" lon="-0.24765017076931817"><ele>330.2</ele><time>2026-05-04T11:18:45.001Z</time></trkpt><trkpt lat="41.494866439993906" lon="-0.24750974973393888"><ele>330.4</ele><time>2026-05-04T11:18:46.001Z</time></trkpt><trkpt lat="41.49483541986991" lon="-0.2473716271911776"><ele>330.6</ele><time>2026-05-04T11:18:47.001Z</time></trkpt><trkpt lat="41.49480902822012" lon="-0.247235095173142"><ele>330.8</ele><time>2026-05-04T11:18:48.001Z</time></trkpt><trkpt lat="41.494785378154184" lon="-0.24709356146759073"><ele>331.0</ele><time>2026-05-04T11:18:49.001Z</time></trkpt><trkpt lat="41.4947693190068" lon="-0.24694844317799614"><ele>331.20000000000005</ele><time>2026-05-04T11:18:50.001Z</time></trkpt><trkpt lat="41.49475175566721" lon="-0.24680580293590867"><ele>331.40000000000003</ele><time>2026-05-04T11:18:51.001Z</time></trkpt><trkpt lat="41.494730286717285" lon="-0.24666875518770767"><ele>331.6</ele><time>2026-05-04T11:18:52.001Z</time></trkpt><trkpt lat="41.494704190731156" lon="-0.2465332907691466"><ele>331.8</ele><time>2026-05-04T11:18:53.001Z</time></trkpt><trkpt lat="41.49468012174439" lon="-0.24639249635614502"><ele>332.0</ele><time>2026-05-04T11:18:54.001Z</time></trkpt><trkpt lat="41.49465594324645" lon="-0.2462520193289852"><ele>332.0</ele><time>2026-05-04T11:18:55.001Z</time></trkpt><trkpt lat="41.49462769230175" lon="-0.2461155253799559"><ele>332.0</ele><time>2026-05-04T11:18:56.001Z</time></trkpt><trkpt lat="41.49460629665053" lon="-0.24598024093631243"><ele>332.0</ele><time>2026-05-04T11:18:57.001Z</time></trkpt><trkpt lat="41.49458798661984" lon="-0.24583353816540043"><ele>332.0</ele><time>2026-05-04T11:18:58.001Z</time></trkpt><trkpt lat="41.49456304248829" lon="-0.24569805145340012"><ele>332.0</ele><time>2026-05-04T11:18:59.001Z</time></trkpt><trkpt lat="41.49453893084136" lon="-0.24556018454329373"><ele>332.0</ele><time>2026-05-04T11:19:00.001Z</time></trkpt><trkpt lat="41.49451740126417" lon="-0.24542042276885806"><ele>332.0</ele><time>2026-05-04T11:19:01.001Z</time></trkpt><trkpt lat="41.49449339806766" lon="-0.24528078092559333"><ele>332.0</ele><time>2026-05-04T11:19:02.001Z</time></trkpt><trkpt lat="41.49446993427861" lon="-0.24514438782628678"><ele>332.0</ele><time>2026-05-04T11:19:03.001Z</time></trkpt><trkpt lat="41.4944498024387" lon="-0.24500224487473718"><ele>332.0</ele><time>2026-05-04T11:19:04.001Z</time></trkpt><trkpt lat="41.49442724498643" lon="-0.24486176463478762"><ele>332.20000000000005</ele><time>2026-05-04T11:19:05.001Z</time></trkpt><trkpt lat="41.494404203378764" lon="-0.24472285938268518"><ele>332.4</ele><time>2026-05-04T11:19:06.001Z</time></trkpt><trkpt lat="41.494381181314765" lon="-0.24458408289627787"><ele>332.6</ele><time>2026-05-04T11:19:07.001Z</time></trkpt><trkpt lat="41.49435690006594" lon="-0.244445151828062"><ele>332.79999999999995</ele><time>2026-05-04T11:19:08.001Z</time></trkpt><trkpt lat="41.49433304438687" lon="-0.2443052027148204"><ele>333.0</ele><time>2026-05-04T11:19:09.001Z</time></trkpt><trkpt lat="41.49431896651233" lon="-0.24415769218483802"><ele>333.0</ele><time>2026-05-04T11:19:10.001Z</time></trkpt><trkpt lat="41.494296355060754" lon="-0.2440217503951643"><ele>333.0</ele><time>2026-05-04T11:19:11.001Z</time></trkpt><trkpt lat="41.49427446637799" lon="-0.24388102254859706"><ele>333.0</ele><time>2026-05-04T11:19:12.001Z</time></trkpt><trkpt lat="41.49425331394706" lon="-0.24374215615853717"><ele>333.0</ele><time>2026-05-04T11:19:13.001Z</time></trkpt><trkpt lat="41.49423127531543" lon="-0.2435998557269022"><ele>333.0</ele><time>2026-05-04T11:19:14.001Z</time></trkpt><trkpt lat="41.494210120342416" lon="-0.24345965232881953"><ele>333.2</ele><time>2026-05-04T11:19:15.001Z</time></trkpt><trkpt lat="41.494186127512144" lon="-0.24331586959839022"><ele>333.4</ele><time>2026-05-04T11:19:16.001Z</time></trkpt><trkpt lat="41.49416592410905" lon="-0.24317499684256452"><ele>333.59999999999997</ele><time>2026-05-04T11:19:17.001Z</time></trkpt><trkpt lat="41.494151008637665" lon="-0.24303325868175"><ele>333.79999999999995</ele><time>2026-05-04T11:19:18.001Z</time></trkpt><trkpt lat="41.49413803287153" lon="-0.2428898327773962"><ele>334.0</ele><time>2026-05-04T11:19:19.001Z</time></trkpt><trkpt lat="41.49412989802218" lon="-0.24275092478062435"><ele>334.6</ele><time>2026-05-04T11:19:20.001Z</time></trkpt><trkpt lat="41.49412417940136" lon="-0.24261011686513587"><ele>335.2</ele><time>2026-05-04T11:19:21.001Z</time></trkpt><trkpt lat="41.49411735997773" lon="-0.24246653915478564"><ele>335.8</ele><time>2026-05-04T11:19:22.001Z</time></trkpt><trkpt lat="41.49410945986628" lon="-0.24232525338277205"><ele>336.40000000000003</ele><time>2026-05-04T11:19:23.001Z</time></trkpt><trkpt lat="41.49410313726309" lon="-0.2421825941426165"><ele>337.0</ele><time>2026-05-04T11:19:24.001Z</time></trkpt><trkpt lat="41.494097295382794" lon="-0.24204360151229254"><ele>337.20000000000005</ele><time>2026-05-04T11:19:25.001Z</time></trkpt><trkpt lat="41.494090426453916" lon="-0.24190190823643226"><ele>337.4</ele><time>2026-05-04T11:19:26Z</time></trkpt><trkpt lat="41.49407877972302" lon="-0.2417648265506465"><ele>337.6</ele><time>2026-05-04T11:19:27Z</time></trkpt><trkpt lat="41.49406312993322" lon="-0.2416292685573062"><ele>337.79999999999995</ele><time>2026-05-04T11:19:28Z</time></trkpt><trkpt lat="41.494048223949356" lon="-0.241492290414245"><ele>338.0</ele><time>2026-05-04T11:19:29Z</time></trkpt><trkpt lat="41.49403001369646" lon="-0.24135893869184918"><ele>338.2</ele><time>2026-05-04T11:19:30Z</time></trkpt><trkpt lat="41.494014158180185" lon="-0.24121933098563078"><ele>338.4</ele><time>2026-05-04T11:19:31Z</time></trkpt><trkpt lat="41.493997538707276" lon="-0.24108094410197817"><ele>338.59999999999997</ele><time>2026-05-04T11:19:32Z</time></trkpt><trkpt lat="41.493981234558" lon="-0.24093852161325316"><ele>338.79999999999995</ele><time>2026-05-04T11:19:33Z</time></trkpt><trkpt lat="41.493963508238494" lon="-0.24079555370417693"><ele>339.0</ele><time>2026-05-04T11:19:34Z</time></trkpt><trkpt lat="41.49394289242326" lon="-0.24064300638385833"><ele>339.5</ele><time>2026-05-04T11:19:35Z</time></trkpt><trkpt lat="41.49389085269269" lon="-0.2404730009108802"><ele>340.0</ele><time>2026-05-04T11:19:36Z</time></trkpt><trkpt lat="41.493902204567306" lon="-0.24034224136971308"><ele>340.5</ele><time>2026-05-04T11:19:37Z</time></trkpt><trkpt lat="41.49388871149325" lon="-0.2401968668849413"><ele>341.0</ele><time>2026-05-04T11:19:38Z</time></trkpt><trkpt lat="41.49386868756311" lon="-0.2400513904552025"><ele>341.0</ele><time>2026-05-04T11:19:39Z</time></trkpt><trkpt lat="41.49385027654234" lon="-0.2399023943337924"><ele>341.0</ele><time>2026-05-04T11:19:40Z</time></trkpt><trkpt lat="41.493833442917264" lon="-0.23976012018438142"><ele>341.0</ele><time>2026-05-04T11:19:41Z</time></trkpt><trkpt lat="41.493814382017526" lon="-0.2396073962243002"><ele>341.0</ele><time>2026-05-04T11:19:42Z</time></trkpt><trkpt lat="41.49379239391298" lon="-0.23946062476310956"><ele>341.0</ele><time>2026-05-04T11:19:43Z</time></trkpt><trkpt lat="41.49376555695733" lon="-0.2393085356519096"><ele>341.0</ele><time>2026-05-04T11:19:44Z</time></trkpt><trkpt lat="41.49372901027231" lon="-0.23917490125206417"><ele>341.0</ele><time>2026-05-04T11:19:45Z</time></trkpt><trkpt lat="41.49367872717501" lon="-0.2390194878525229"><ele>341.0</ele><time>2026-05-04T11:19:46Z</time></trkpt><trkpt lat="41.49360564293767" lon="-0.2387991086662301"><ele>341.0</ele><time>2026-05-04T11:19:47Z</time></trkpt><trkpt lat="41.493555277430126" lon="-0.23862749708752223"><ele>341.0</ele><time>2026-05-04T11:19:49Z</time></trkpt><trkpt lat="41.49351630072298" lon="-0.2384867420065873"><ele>341.0</ele><time>2026-05-04T11:19:50Z</time></trkpt><trkpt lat="41.49347188236794" lon="-0.2383481777613918"><ele>341.0</ele><time>2026-05-04T11:19:51Z</time></trkpt><trkpt lat="41.49342930352141" lon="-0.2382065579808244"><ele>341.0</ele><time>2026-05-04T11:19:52Z</time></trkpt><trkpt lat="41.49339603693325" lon="-0.23806254744564254"><ele>341.20000000000005</ele><time>2026-05-04T11:19:53Z</time></trkpt><trkpt lat="41.493372668079644" lon="-0.23792151048622387"><ele>341.40000000000003</ele><time>2026-05-04T11:19:54Z</time></trkpt><trkpt lat="41.49336174623758" lon="-0.23778128729718373"><ele>341.6</ele><time>2026-05-04T11:19:55Z</time></trkpt><trkpt lat="41.49335179514028" lon="-0.23763836182531584"><ele>341.8</ele><time>2026-05-04T11:19:56Z</time></trkpt><trkpt lat="41.49335024766306" lon="-0.23749586531473385"><ele>342.0</ele><time>2026-05-04T11:19:57Z</time></trkpt><trkpt lat="41.493358948622415" lon="-0.23734883645263669"><ele>342.0</ele><time>2026-05-04T11:19:58Z</time></trkpt><trkpt lat="41.49337532250784" lon="-0.23721038825177945"><ele>342.0</ele><time>2026-05-04T11:19:59Z</time></trkpt><trkpt lat="41.493393666322014" lon="-0.23706803044279684"><ele>342.0</ele><time>2026-05-04T11:20:00Z</time></trkpt><trkpt lat="41.49340766186786" lon="-0.23692553298864938"><ele>342.0</ele><time>2026-05-04T11:20:01Z</time></trkpt><trkpt lat="41.49342648462403" lon="-0.23678157021242474"><ele>342.0</ele><time>2026-05-04T11:20:02Z</time></trkpt><trkpt lat="41.49344713154045" lon="-0.2366383954486592"><ele>342.0</ele><time>2026-05-04T11:20:03Z</time></trkpt><trkpt lat="41.4934675717044" lon="-0.2364963852480235"><ele>342.0</ele><time>2026-05-04T11:20:04Z</time></trkpt><trkpt lat="41.493489342197044" lon="-0.2363552938342796"><ele>342.0</ele><time>2026-05-04T11:20:05Z</time></trkpt><trkpt lat="41.4935055652367" lon="-0.23621068546251756"><ele>342.0</ele><time>2026-05-04T11:20:06Z</time></trkpt><trkpt lat="41.4935228176011" lon="-0.23606266295797204"><ele>342.0</ele><time>2026-05-04T11:20:07Z</time></trkpt><trkpt lat="41.493549725992736" lon="-0.23591603014527854"><ele>342.3333333333333</ele><time>2026-05-04T11:20:08Z</time></trkpt><trkpt lat="41.49356869966217" lon="-0.23577122574936915"><ele>342.66666666666663</ele><time>2026-05-04T11:20:09Z</time></trkpt><trkpt lat="41.49358294071766" lon="-0.23562704273746848"><ele>343.0</ele><time>2026-05-04T11:20:10Z</time></trkpt><trkpt lat="41.49391565451676" lon="-0.2354996808266834"><ele>343.0</ele><time>2026-05-04T11:20:11Z</time></trkpt><trkpt lat="41.49361660201298" lon="-0.23533508895784322"><ele>343.0</ele><time>2026-05-04T11:20:12Z</time></trkpt><trkpt lat="41.493634456495386" lon="-0.2351883463128434"><ele>343.0</ele><time>2026-05-04T11:20:13Z</time></trkpt><trkpt lat="41.493649687664934" lon="-0.23504454203907987"><ele>343.0</ele><time>2026-05-04T11:20:14Z</time></trkpt><trkpt lat="41.49366396927652" lon="-0.2348991869927113"><ele>343.0</ele><time>2026-05-04T11:20:15Z</time></trkpt><trkpt lat="41.493682993861825" lon="-0.23475376202153156"><ele>343.0</ele><time>2026-05-04T11:20:16Z</time></trkpt><trkpt lat="41.493694004490465" lon="-0.23460632042340218"><ele>343.0</ele><time>2026-05-04T11:20:17Z</time></trkpt><trkpt lat="41.493701939726996" lon="-0.23446082862478304"><ele>343.0</ele><time>2026-05-04T11:20:18Z</time></trkpt><trkpt lat="41.49370179691167" lon="-0.23430894266413535"><ele>343.0</ele><time>2026-05-04T11:20:19Z</time></trkpt><trkpt lat="41.49369073908563" lon="-0.23416705938936666"><ele>343.0</ele><time>2026-05-04T11:20:20Z</time></trkpt><trkpt lat="41.49367276492829" lon="-0.2340268967153808"><ele>343.0</ele><time>2026-05-04T11:20:21Z</time></trkpt><trkpt lat="41.493655156389266" lon="-0.23388427552891666"><ele>343.0</ele><time>2026-05-04T11:20:22Z</time></trkpt><trkpt lat="41.49363113876669" lon="-0.23374851877745853"><ele>343.0</ele><time>2026-05-04T11:20:23Z</time></trkpt><trkpt lat="41.49361258507405" lon="-0.2336119241803203"><ele>343.2</ele><time>2026-05-04T11:20:24Z</time></trkpt><trkpt lat="41.49359810199717" lon="-0.2334808828836798"><ele>343.4</ele><time>2026-05-04T11:20:25Z</time></trkpt><trkpt lat="41.49357822116519" lon="-0.2333474680829435"><ele>343.59999999999997</ele><time>2026-05-04T11:20:26Z</time></trkpt><trkpt lat="41.493564302571386" lon="-0.2332151619459061"><ele>343.79999999999995</ele><time>2026-05-04T11:20:27Z</time></trkpt><trkpt lat="41.49354899748548" lon="-0.23307192568002533"><ele>344.0</ele><time>2026-05-04T11:20:28Z</time></trkpt><trkpt lat="41.49352871630569" lon="-0.23293729716712644"><ele>344.79999999999995</ele><time>2026-05-04T11:20:29.001Z</time></trkpt><trkpt lat="41.49351044481994" lon="-0.23280455431475364"><ele>345.59999999999997</ele><time>2026-05-04T11:20:30.001Z</time></trkpt><trkpt lat="41.49348866463041" lon="-0.23267276057360156"><ele>346.4</ele><time>2026-05-04T11:20:31.001Z</time></trkpt><trkpt lat="41.4934731542252" lon="-0.23254293291370412"><ele>347.2</ele><time>2026-05-04T11:20:32.001Z</time></trkpt><trkpt lat="41.493460122112836" lon="-0.23241004963684878"><ele>348.0</ele><time>2026-05-04T11:20:33.001Z</time></trkpt><trkpt lat="41.4934504236133" lon="-0.23228047187832448"><ele>348.2</ele><time>2026-05-04T11:20:34.001Z</time></trkpt><trkpt lat="41.49345322167471" lon="-0.23214696267452808"><ele>348.4</ele><time>2026-05-04T11:20:35.001Z</time></trkpt><trkpt lat="41.49345144655491" lon="-0.23201593955940783"><ele>348.59999999999997</ele><time>2026-05-04T11:20:36.001Z</time></trkpt><trkpt lat="41.49345376681087" lon="-0.2318798136486282"><ele>348.79999999999995</ele><time>2026-05-04T11:20:37.001Z</time></trkpt><trkpt lat="41.493459038561" lon="-0.2317436136911038"><ele>349.0</ele><time>2026-05-04T11:20:38.001Z</time></trkpt><trkpt lat="41.49346136646294" lon="-0.23160855778258307"><ele>349.6</ele><time>2026-05-04T11:20:39.001Z</time></trkpt><trkpt lat="41.493464406456084" lon="-0.23146313137909946"><ele>350.2</ele><time>2026-05-04T11:20:40.001Z</time></trkpt><trkpt lat="41.493472425325656" lon="-0.231327457581244"><ele>350.8</ele><time>2026-05-04T11:20:41.001Z</time></trkpt><trkpt lat="41.49347702050261" lon="-0.2311861968877076"><ele>351.40000000000003</ele><time>2026-05-04T11:20:42.001Z</time></trkpt><trkpt lat="41.49347795378546" lon="-0.23104770573814512"><ele>352.0</ele><time>2026-05-04T11:20:43.001Z</time></trkpt><trkpt lat="41.49348221977815" lon="-0.23090249338337482"><ele>352.0</ele><time>2026-05-04T11:20:44.001Z</time></trkpt><trkpt lat="41.49348475039122" lon="-0.23076055928466765"><ele>352.0</ele><time>2026-05-04T11:20:45.001Z</time></trkpt><trkpt lat="41.493495263800746" lon="-0.2306216132558831"><ele>352.0</ele><time>2026-05-04T11:20:46.001Z</time></trkpt><trkpt lat="41.49350785538323" lon="-0.2304781370260788"><ele>352.0</ele><time>2026-05-04T11:20:47.001Z</time></trkpt><trkpt lat="41.493521958458416" lon="-0.23033814111961415"><ele>352.0</ele><time>2026-05-04T11:20:48.001Z</time></trkpt><trkpt lat="41.493548246057955" lon="-0.2301910118517551"><ele>352.0</ele><time>2026-05-04T11:20:49.001Z</time></trkpt><trkpt lat="41.49357908271137" lon="-0.23005126918673552"><ele>352.0</ele><time>2026-05-04T11:20:50.001Z</time></trkpt><trkpt lat="41.49361770274453" lon="-0.22991758247050323"><ele>352.0</ele><time>2026-05-04T11:20:51.001Z</time></trkpt><trkpt lat="41.493659843106386" lon="-0.2297835690695454"><ele>352.0</ele><time>2026-05-04T11:20:52.001Z</time></trkpt><trkpt lat="41.493704620988" lon="-0.22965000354149734"><ele>352.0</ele><time>2026-05-04T11:20:53.001Z</time></trkpt><trkpt lat="41.49375331942425" lon="-0.22952309331936674"><ele>352.75</ele><time>2026-05-04T11:20:54.001Z</time></trkpt><trkpt lat="41.49380367516782" lon="-0.2293824356416144"><ele>353.5</ele><time>2026-05-04T11:20:55.001Z</time></trkpt><trkpt lat="41.49385149721426" lon="-0.22925483404907937"><ele>354.25</ele><time>2026-05-04T11:20:56.001Z</time></trkpt><trkpt lat="41.493904042452534" lon="-0.2291346527243615"><ele>355.0</ele><time>2026-05-04T11:20:57.001Z</time></trkpt><trkpt lat="41.49396032385458" lon="-0.2289812594232931"><ele>355.0</ele><time>2026-05-04T11:20:58.001Z</time></trkpt><trkpt lat="41.494026520228395" lon="-0.22881724885125349"><ele>355.0</ele><time>2026-05-04T11:20:59.001Z</time></trkpt><trkpt lat="41.49405065115081" lon="-0.22872126320026362"><ele>355.0</ele><time>2026-05-04T11:21:00.001Z</time></trkpt><trkpt lat="41.494095703911846" lon="-0.22859445304625775"><ele>355.0</ele><time>2026-05-04T11:21:01.001Z</time></trkpt><trkpt lat="41.49414801796443" lon="-0.22846265499989116"><ele>355.0</ele><time>2026-05-04T11:21:02.001Z</time></trkpt><trkpt lat="41.49419089183068" lon="-0.22833283305048774"><ele>355.0</ele><time>2026-05-04T11:21:03.001Z</time></trkpt><trkpt lat="41.49423335578645" lon="-0.22820007651202517"><ele>355.0</ele><time>2026-05-04T11:21:04.001Z</time></trkpt><trkpt lat="41.49428019997983" lon="-0.22806881296271916"><ele>355.0</ele><time>2026-05-04T11:21:05.001Z</time></trkpt><trkpt lat="41.49432294699701" lon="-0.22793907111128478"><ele>355.0</ele><time>2026-05-04T11:21:06.001Z</time></trkpt><trkpt lat="41.49436924597093" lon="-0.22781255989817567"><ele>355.0</ele><time>2026-05-04T11:21:07.001Z</time></trkpt><trkpt lat="41.49441810048755" lon="-0.22768623958033604"><ele>355.0</ele><time>2026-05-04T11:21:08.001Z</time></trkpt><trkpt lat="41.49446482231016" lon="-0.22756438204294516"><ele>355.0</ele><time>2026-05-04T11:21:09.001Z</time></trkpt><trkpt lat="41.494512048288186" lon="-0.22744115034482193"><ele>355.0</ele><time>2026-05-04T11:21:10.001Z</time></trkpt><trkpt lat="41.494557926889094" lon="-0.22731643781358168"><ele>355.0</ele><time>2026-05-04T11:21:11.001Z</time></trkpt><trkpt lat="41.494607044110126" lon="-0.22719448228721753"><ele>355.0</ele><time>2026-05-04T11:21:12.001Z</time></trkpt><trkpt lat="41.49465779816469" lon="-0.2270729335926747"><ele>355.6</ele><time>2026-05-04T11:21:13.001Z</time></trkpt><trkpt lat="41.494708988844614" lon="-0.22695061965093816"><ele>356.2</ele><time>2026-05-04T11:21:14.001Z</time></trkpt><trkpt lat="41.49475991836912" lon="-0.2268270553537272"><ele>356.79999999999995</ele><time>2026-05-04T11:21:15.001Z</time></trkpt><trkpt lat="41.49480957596982" lon="-0.2266968636015227"><ele>357.4</ele><time>2026-05-04T11:21:16.001Z</time></trkpt><trkpt lat="41.494857149761174" lon="-0.22657126665760033"><ele>358.0</ele><time>2026-05-04T11:21:17.001Z</time></trkpt><trkpt lat="41.49491167916015" lon="-0.2264450755969033"><ele>358.0</ele><time>2026-05-04T11:21:18.001Z</time></trkpt><trkpt lat="41.49496317501485" lon="-0.22632203301379591"><ele>358.0</ele><time>2026-05-04T11:21:19.001Z</time></trkpt><trkpt lat="41.49501502363559" lon="-0.2261912616348278"><ele>358.0</ele><time>2026-05-04T11:21:20.001Z</time></trkpt><trkpt lat="41.49506352601884" lon="-0.2260621018919808"><ele>358.0</ele><time>2026-05-04T11:21:21.001Z</time></trkpt><trkpt lat="41.4951140699375" lon="-0.22592775660605036"><ele>358.0</ele><time>2026-05-04T11:21:22.001Z</time></trkpt><trkpt lat="41.49516482442218" lon="-0.2258016376105728"><ele>358.0</ele><time>2026-05-04T11:21:23.001Z</time></trkpt><trkpt lat="41.4952080270747" lon="-0.2256572768101162"><ele>358.0</ele><time>2026-05-04T11:21:24.001Z</time></trkpt><trkpt lat="41.495253254463925" lon="-0.22553529332152958"><ele>358.0</ele><time>2026-05-04T11:21:25.001Z</time></trkpt><trkpt lat="41.49533266525247" lon="-0.22541050713487412"><ele>358.0</ele><time>2026-05-04T11:21:26.001Z</time></trkpt><trkpt lat="41.49533174398033" lon="-0.2252332422265441"><ele>358.0</ele><time>2026-05-04T11:21:27.001Z</time></trkpt><trkpt lat="41.49534294378587" lon="-0.22496370007950775"><ele>358.0</ele><time>2026-05-04T11:21:28.001Z</time></trkpt><trkpt lat="41.49538285933073" lon="-0.22481436311391875"><ele>358.0</ele><time>2026-05-04T11:21:30.001Z</time></trkpt><trkpt lat="41.49539817902202" lon="-0.22466414705709484"><ele>358.0</ele><time>2026-05-04T11:21:31.001Z</time></trkpt><trkpt lat="41.495408527769804" lon="-0.2245134481194191"><ele>358.25</ele><time>2026-05-04T11:21:32Z</time></trkpt><trkpt lat="41.4954153385714" lon="-0.2243635282332163"><ele>358.5</ele><time>2026-05-04T11:21:33Z</time></trkpt><trkpt lat="41.4954111540516" lon="-0.22421239849877483"><ele>358.75</ele><time>2026-05-04T11:21:34Z</time></trkpt><trkpt lat="41.495401103408874" lon="-0.22406165350985574"><ele>359.0</ele><time>2026-05-04T11:21:35Z</time></trkpt><trkpt lat="41.49539606947798" lon="-0.22391440400518656"><ele>359.4</ele><time>2026-05-04T11:21:36Z</time></trkpt><trkpt lat="41.49538926536603" lon="-0.22376459501738807"><ele>359.79999999999995</ele><time>2026-05-04T11:21:37Z</time></trkpt><trkpt lat="41.49538399141238" lon="-0.22361323527017812"><ele>360.20000000000005</ele><time>2026-05-04T11:21:38Z</time></trkpt><trkpt lat="41.495377573211194" lon="-0.2234699363837447"><ele>360.6</ele><time>2026-05-04T11:21:39Z</time></trkpt><trkpt lat="41.495376840644596" lon="-0.22332127668817675"><ele>361.0</ele><time>2026-05-04T11:21:40Z</time></trkpt><trkpt lat="41.4953732988515" lon="-0.2231729291416939"><ele>361.25</ele><time>2026-05-04T11:21:41Z</time></trkpt><trkpt lat="41.495368907223664" lon="-0.22302039126646545"><ele>361.5</ele><time>2026-05-04T11:21:42Z</time></trkpt><trkpt lat="41.495366904928815" lon="-0.2228703729974809"><ele>361.75</ele><time>2026-05-04T11:21:43Z</time></trkpt><trkpt lat="41.495360019468976" lon="-0.2227207078817024"><ele>362.0</ele><time>2026-05-04T11:21:44Z</time></trkpt><trkpt lat="41.495351464118116" lon="-0.22256890241968422"><ele>362.0</ele><time>2026-05-04T11:21:45Z</time></trkpt><trkpt lat="41.49534367256674" lon="-0.2224170071266127"><ele>362.0</ele><time>2026-05-04T11:21:46Z</time></trkpt><trkpt lat="41.49533874901836" lon="-0.22226972779455093"><ele>362.0</ele><time>2026-05-04T11:21:47Z</time></trkpt><trkpt lat="41.49533396027781" lon="-0.22212261118986862"><ele>362.0</ele><time>2026-05-04T11:21:48Z</time></trkpt><trkpt lat="41.495330124643786" lon="-0.22197928751609797"><ele>362.0</ele><time>2026-05-04T11:21:49Z</time></trkpt><trkpt lat="41.495325304547386" lon="-0.2218265371672919"><ele>362.40000000000003</ele><time>2026-05-04T11:21:50Z</time></trkpt><trkpt lat="41.49532154228583" lon="-0.22168028213279206"><ele>362.8</ele><time>2026-05-04T11:21:51Z</time></trkpt><trkpt lat="41.49531816084702" lon="-0.22153211942290763"><ele>363.2</ele><time>2026-05-04T11:21:52Z</time></trkpt><trkpt lat="41.49531325331034" lon="-0.2213812561643175"><ele>363.6</ele><time>2026-05-04T11:21:53Z</time></trkpt><trkpt lat="41.49530642559694" lon="-0.22123270072438636"><ele>364.0</ele><time>2026-05-04T11:21:54Z</time></trkpt><trkpt lat="41.495302605894956" lon="-0.22108537004286627"><ele>364.0</ele><time>2026-05-04T11:21:55Z</time></trkpt><trkpt lat="41.49530132638459" lon="-0.22093928856325953"><ele>364.0</ele><time>2026-05-04T11:21:56Z</time></trkpt><trkpt lat="41.49530402964424" lon="-0.22079081051771615"><ele>364.0</ele><time>2026-05-04T11:21:57Z</time></trkpt><trkpt lat="41.495308765123674" lon="-0.22065147263804194"><ele>364.0</ele><time>2026-05-04T11:21:58Z</time></trkpt><trkpt lat="41.49531400405125" lon="-0.220503116590622"><ele>364.0</ele><time>2026-05-04T11:21:59Z</time></trkpt><trkpt lat="41.49531759057885" lon="-0.2203532143053953"><ele>363.79999999999995</ele><time>2026-05-04T11:22:00Z</time></trkpt><trkpt lat="41.49532862956937" lon="-0.2202091996535863"><ele>363.59999999999997</ele><time>2026-05-04T11:22:01Z</time></trkpt><trkpt lat="41.495340576029015" lon="-0.2200545344725775"><ele>363.4</ele><time>2026-05-04T11:22:02Z</time></trkpt><trkpt lat="41.49536355141239" lon="-0.21990892326745223"><ele>363.2</ele><time>2026-05-04T11:22:03Z</time></trkpt><trkpt lat="41.49539688274591" lon="-0.21976705870875687"><ele>363.0</ele><time>2026-05-04T11:22:04Z</time></trkpt><trkpt lat="41.49544085444246" lon="-0.21963077874063613"><ele>363.0</ele><time>2026-05-04T11:22:05Z</time></trkpt><trkpt lat="41.49548802539517" lon="-0.21948956924895832"><ele>363.0</ele><time>2026-05-04T11:22:06Z</time></trkpt><trkpt lat="41.49553695121725" lon="-0.21935168855101855"><ele>363.0</ele><time>2026-05-04T11:22:07Z</time></trkpt><trkpt lat="41.495579934565114" lon="-0.21922030623805958"><ele>363.0</ele><time>2026-05-04T11:22:08Z</time></trkpt><trkpt lat="41.49562669616107" lon="-0.21908666946865965"><ele>363.0</ele><time>2026-05-04T11:22:09Z</time></trkpt><trkpt lat="41.495673038215045" lon="-0.2189476363627429"><ele>362.75</ele><time>2026-05-04T11:22:10Z</time></trkpt><trkpt lat="41.495718301118764" lon="-0.21880756774134094"><ele>362.5</ele><time>2026-05-04T11:22:11Z</time></trkpt><trkpt lat="41.495764062736775" lon="-0.2186645256364559"><ele>362.25</ele><time>2026-05-04T11:22:12Z</time></trkpt><trkpt lat="41.495804823298144" lon="-0.2185204614431998"><ele>362.0</ele><time>2026-05-04T11:22:13Z</time></trkpt><trkpt lat="41.495838416276186" lon="-0.218381312435422"><ele>362.0</ele><time>2026-05-04T11:22:14Z</time></trkpt><trkpt lat="41.49586189412044" lon="-0.21823497124986543"><ele>362.0</ele><time>2026-05-04T11:22:15Z</time></trkpt><trkpt lat="41.495873800521295" lon="-0.2180845148086517"><ele>362.0</ele><time>2026-05-04T11:22:16Z</time></trkpt><trkpt lat="41.49588456049181" lon="-0.21793283272585004"><ele>362.0</ele><time>2026-05-04T11:22:17Z</time></trkpt><trkpt lat="41.495893411339146" lon="-0.2177843657525103"><ele>361.8</ele><time>2026-05-04T11:22:18Z</time></trkpt><trkpt lat="41.49589847654047" lon="-0.21762916523563203"><ele>361.6</ele><time>2026-05-04T11:22:19Z</time></trkpt><trkpt lat="41.49590448841033" lon="-0.21748343108644302"><ele>361.40000000000003</ele><time>2026-05-04T11:22:20Z</time></trkpt><trkpt lat="41.49591407264324" lon="-0.21733080950279374"><ele>361.20000000000005</ele><time>2026-05-04T11:22:21Z</time></trkpt><trkpt lat="41.495922146772806" lon="-0.2171879121397941"><ele>361.0</ele><time>2026-05-04T11:22:22Z</time></trkpt><trkpt lat="41.495938583391" lon="-0.21703056506760257"><ele>361.75</ele><time>2026-05-04T11:22:23Z</time></trkpt><trkpt lat="41.49595957034999" lon="-0.21686707710957553"><ele>362.5</ele><time>2026-05-04T11:22:24Z</time></trkpt><trkpt lat="41.495940920379724" lon="-0.2167553989207464"><ele>363.25</ele><time>2026-05-04T11:22:25Z</time></trkpt><trkpt lat="41.49587917332475" lon="-0.21667490832781083"><ele>364.0</ele><time>2026-05-04T11:22:26Z</time></trkpt><trkpt lat="41.49596249348838" lon="-0.21644435416436905"><ele>364.0</ele><time>2026-05-04T11:22:27Z</time></trkpt><trkpt lat="41.495966843641085" lon="-0.21629603697127486"><ele>364.0</ele><time>2026-05-04T11:22:28.001Z</time></trkpt><trkpt lat="41.495974465857444" lon="-0.21614912875141074"><ele>364.0</ele><time>2026-05-04T11:22:29.001Z</time></trkpt><trkpt lat="41.495983595377616" lon="-0.2160064412634064"><ele>364.0</ele><time>2026-05-04T11:22:30.001Z</time></trkpt><trkpt lat="41.49599090419136" lon="-0.2158618452584046"><ele>364.0</ele><time>2026-05-04T11:22:31.001Z</time></trkpt><trkpt lat="41.49599754292838" lon="-0.21571786769793747"><ele>364.2</ele><time>2026-05-04T11:22:32.001Z</time></trkpt><trkpt lat="41.496008632112044" lon="-0.21557697552820862"><ele>364.4</ele><time>2026-05-04T11:22:33.001Z</time></trkpt><trkpt lat="41.49601846227311" lon="-0.2154394782198396"><ele>364.6</ele><time>2026-05-04T11:22:34.001Z</time></trkpt><trkpt lat="41.496023350871106" lon="-0.21530070128867015"><ele>364.8</ele><time>2026-05-04T11:22:35.001Z</time></trkpt><trkpt lat="41.496031457273205" lon="-0.2151582001114371"><ele>365.0</ele><time>2026-05-04T11:22:36.001Z</time></trkpt><trkpt lat="41.496040613300075" lon="-0.2150150510242265"><ele>365.0</ele><time>2026-05-04T11:22:37.001Z</time></trkpt><trkpt lat="41.49604992421636" lon="-0.2148688967223511"><ele>365.0</ele><time>2026-05-04T11:22:38.001Z</time></trkpt><trkpt lat="41.496051875107014" lon="-0.21472056423561114"><ele>365.0</ele><time>2026-05-04T11:22:39.001Z</time></trkpt><trkpt lat="41.49606364281919" lon="-0.21456992949760828"><ele>365.0</ele><time>2026-05-04T11:22:40.001Z</time></trkpt><trkpt lat="41.49607874289381" lon="-0.21442266618537392"><ele>365.0</ele><time>2026-05-04T11:22:41.001Z</time></trkpt><trkpt lat="41.49608827813171" lon="-0.21427262177954376"><ele>365.0</ele><time>2026-05-04T11:22:42.001Z</time></trkpt><trkpt lat="41.49609854089952" lon="-0.21412255831573346"><ele>365.0</ele><time>2026-05-04T11:22:43.001Z</time></trkpt><trkpt lat="41.49610919933064" lon="-0.21397108969611892"><ele>365.0</ele><time>2026-05-04T11:22:44.001Z</time></trkpt><trkpt lat="41.49611564300207" lon="-0.21382651656951962"><ele>365.0</ele><time>2026-05-04T11:22:45.001Z</time></trkpt><trkpt lat="41.496128129049985" lon="-0.2136805218377508"><ele>365.0</ele><time>2026-05-04T11:22:46.001Z</time></trkpt><trkpt lat="41.49613750543468" lon="-0.21353062717586663"><ele>365.0</ele><time>2026-05-04T11:22:47.001Z</time></trkpt><trkpt lat="41.49614918912456" lon="-0.2133816930612829"><ele>365.0</ele><time>2026-05-04T11:22:48.001Z</time></trkpt><trkpt lat="41.49615855014611" lon="-0.21323115848281102"><ele>365.0</ele><time>2026-05-04T11:22:49.001Z</time></trkpt><trkpt lat="41.496195469930555" lon="-0.21310972102694173"><ele>365.0</ele><time>2026-05-04T11:22:50.001Z</time></trkpt><trkpt lat="41.496213385735544" lon="-0.21293192621443777"><ele>365.0</ele><time>2026-05-04T11:22:51.001Z</time></trkpt><trkpt lat="41.49620570751741" lon="-0.21278679165310477"><ele>365.0</ele><time>2026-05-04T11:22:52.001Z</time></trkpt><trkpt lat="41.49617801325038" lon="-0.21263453481885553"><ele>365.0</ele><time>2026-05-04T11:22:53.001Z</time></trkpt><trkpt lat="41.49621441724925" lon="-0.21250014473114648"><ele>365.0</ele><time>2026-05-04T11:22:54.001Z</time></trkpt><trkpt lat="41.49622817656553" lon="-0.2123556037236107"><ele>365.0</ele><time>2026-05-04T11:22:55.001Z</time></trkpt><trkpt lat="41.49623781862551" lon="-0.21221070739478898"><ele>364.8</ele><time>2026-05-04T11:22:56.001Z</time></trkpt><trkpt lat="41.49624062431938" lon="-0.21206323143380265"><ele>364.6</ele><time>2026-05-04T11:22:57.001Z</time></trkpt><trkpt lat="41.49624399351821" lon="-0.21191778018235982"><ele>364.4</ele><time>2026-05-04T11:22:58.001Z</time></trkpt><trkpt lat="41.49623242042469" lon="-0.2117561296466353"><ele>364.2</ele><time>2026-05-04T11:22:59.001Z</time></trkpt><trkpt lat="41.496235162159586" lon="-0.21161228538800045"><ele>364.0</ele><time>2026-05-04T11:23:00.001Z</time></trkpt><trkpt lat="41.49622591992096" lon="-0.21146015704089743"><ele>363.75</ele><time>2026-05-04T11:23:01.001Z</time></trkpt><trkpt lat="41.49620935858352" lon="-0.21130806035202027"><ele>363.5</ele><time>2026-05-04T11:23:02.001Z</time></trkpt><trkpt lat="41.49618962946862" lon="-0.21115643074613433"><ele>363.25</ele><time>2026-05-04T11:23:03.001Z</time></trkpt><trkpt lat="41.496170096407674" lon="-0.21100560869334894"><ele>363.0</ele><time>2026-05-04T11:23:04.001Z</time></trkpt><trkpt lat="41.49615546196197" lon="-0.2108580556025548"><ele>363.0</ele><time>2026-05-04T11:23:05.001Z</time></trkpt><trkpt lat="41.496142040954865" lon="-0.21070444644051256"><ele>363.0</ele><time>2026-05-04T11:23:06.001Z</time></trkpt><trkpt lat="41.49612742832288" lon="-0.21055110290420287"><ele>363.0</ele><time>2026-05-04T11:23:07.001Z</time></trkpt><trkpt lat="41.49611487092399" lon="-0.21040158227879144"><ele>363.0</ele><time>2026-05-04T11:23:08.001Z</time></trkpt><trkpt lat="41.49610125478284" lon="-0.2102502959779231"><ele>363.0</ele><time>2026-05-04T11:23:09.001Z</time></trkpt><trkpt lat="41.496086450155715" lon="-0.21010105757399136"><ele>363.0</ele><time>2026-05-04T11:23:10.001Z</time></trkpt><trkpt lat="41.49607515093304" lon="-0.2099560985110122"><ele>363.0</ele><time>2026-05-04T11:23:11.001Z</time></trkpt><trkpt lat="41.496051842069676" lon="-0.2097974190562762"><ele>363.0</ele><time>2026-05-04T11:23:12.001Z</time></trkpt><trkpt lat="41.495988191035494" lon="-0.2096418817936886"><ele>363.0</ele><time>2026-05-04T11:23:13.001Z</time></trkpt><trkpt lat="41.49597284815792" lon="-0.2094732886205002"><ele>363.0</ele><time>2026-05-04T11:23:14.001Z</time></trkpt><trkpt lat="41.495963364495985" lon="-0.20936907788024223"><ele>363.0</ele><time>2026-05-04T11:23:15.001Z</time></trkpt><trkpt lat="41.49596292479909" lon="-0.20921620201841162"><ele>363.0</ele><time>2026-05-04T11:23:16.001Z</time></trkpt><trkpt lat="41.495962257687864" lon="-0.2090674824260239"><ele>363.0</ele><time>2026-05-04T11:23:17.001Z</time></trkpt><trkpt lat="41.49594779767336" lon="-0.20890665832548047"><ele>363.0</ele><time>2026-05-04T11:23:18.001Z</time></trkpt><trkpt lat="41.49591884022933" lon="-0.20872979189966206"><ele>363.0</ele><time>2026-05-04T11:23:19.001Z</time></trkpt><trkpt lat="41.49592896173086" lon="-0.20861237735898386"><ele>363.0</ele><time>2026-05-04T11:23:20.001Z</time></trkpt><trkpt lat="41.4959184580864" lon="-0.20846896396776346"><ele>363.0</ele><time>2026-05-04T11:23:21.001Z</time></trkpt><trkpt lat="41.495904695809834" lon="-0.20831520691069658"><ele>363.0</ele><time>2026-05-04T11:23:22.001Z</time></trkpt><trkpt lat="41.495892172810784" lon="-0.20816827822195674"><ele>362.75</ele><time>2026-05-04T11:23:23.001Z</time></trkpt><trkpt lat="41.495878578682" lon="-0.208017997233888"><ele>362.5</ele><time>2026-05-04T11:23:24.001Z</time></trkpt><trkpt lat="41.4958638742914" lon="-0.2078659913014889"><ele>362.25</ele><time>2026-05-04T11:23:25.001Z</time></trkpt><trkpt lat="41.49584978167297" lon="-0.20771364440377454"><ele>362.0</ele><time>2026-05-04T11:23:26.001Z</time></trkpt><trkpt lat="41.495836486429404" lon="-0.20756405679180417"><ele>362.0</ele><time>2026-05-04T11:23:27.001Z</time></trkpt><trkpt lat="41.49582356852092" lon="-0.20741092537604827"><ele>362.0</ele><time>2026-05-04T11:23:28.001Z</time></trkpt><trkpt lat="41.49580988001013" lon="-0.20726111768630756"><ele>362.0</ele><time>2026-05-04T11:23:29.001Z</time></trkpt><trkpt lat="41.495797261880966" lon="-0.20711165138726695"><ele>362.0</ele><time>2026-05-04T11:23:30.001Z</time></trkpt><trkpt lat="41.495783110620025" lon="-0.20696089631024694"><ele>361.6</ele><time>2026-05-04T11:23:31.001Z</time></trkpt><trkpt lat="41.49577098695113" lon="-0.20681119754149774"><ele>361.20000000000005</ele><time>2026-05-04T11:23:32.001Z</time></trkpt><trkpt lat="41.49575629243903" lon="-0.20666125288195403"><ele>360.8</ele><time>2026-05-04T11:23:33.001Z</time></trkpt><trkpt lat="41.495739610494496" lon="-0.206507785481638"><ele>360.4</ele><time>2026-05-04T11:23:34.001Z</time></trkpt><trkpt lat="41.495728999040004" lon="-0.20636615582497406"><ele>360.0</ele><time>2026-05-04T11:23:35.001Z</time></trkpt><trkpt lat="41.4957074764115" lon="-0.20620253812085906"><ele>360.0</ele><time>2026-05-04T11:23:36.001Z</time></trkpt><trkpt lat="41.495661294280566" lon="-0.20598771360165624"><ele>360.0</ele><time>2026-05-04T11:23:37.001Z</time></trkpt><trkpt lat="41.495635969366035" lon="-0.20575688628046726"><ele>360.0</ele><time>2026-05-04T11:23:38Z</time></trkpt><trkpt lat="41.495670901171465" lon="-0.20562383739893408"><ele>360.0</ele><time>2026-05-04T11:23:40Z</time></trkpt><trkpt lat="41.49565612651675" lon="-0.20547375606323767"><ele>359.8</ele><time>2026-05-04T11:23:41Z</time></trkpt><trkpt lat="41.49564101768845" lon="-0.2053287731203654"><ele>359.6</ele><time>2026-05-04T11:23:42Z</time></trkpt><trkpt lat="41.495629779229674" lon="-0.20518017169207892"><ele>359.4</ele><time>2026-05-04T11:23:43Z</time></trkpt><trkpt lat="41.495616629135185" lon="-0.20503165156381264"><ele>359.2</ele><time>2026-05-04T11:23:44Z</time></trkpt><trkpt lat="41.495601154486025" lon="-0.204885128697902"><ele>359.0</ele><time>2026-05-04T11:23:45Z</time></trkpt><trkpt lat="41.49558802564032" lon="-0.20473828772269317"><ele>359.0</ele><time>2026-05-04T11:23:46Z</time></trkpt><trkpt lat="41.49557487097443" lon="-0.2045933161363829"><ele>359.0</ele><time>2026-05-04T11:23:47Z</time></trkpt><trkpt lat="41.495562546914236" lon="-0.2044504647592371"><ele>359.0</ele><time>2026-05-04T11:23:48Z</time></trkpt><trkpt lat="41.495551295912804" lon="-0.20429791668974695"><ele>359.0</ele><time>2026-05-04T11:23:49Z</time></trkpt><trkpt lat="41.49553768390317" lon="-0.20415125996737873"><ele>359.0</ele><time>2026-05-04T11:23:50Z</time></trkpt><trkpt lat="41.495521882084" lon="-0.20400293335349262"><ele>359.2</ele><time>2026-05-04T11:23:51Z</time></trkpt><trkpt lat="41.49550892189335" lon="-0.20385500640581442"><ele>359.4</ele><time>2026-05-04T11:23:52Z</time></trkpt><trkpt lat="41.49549511793841" lon="-0.20371077557197104"><ele>359.6</ele><time>2026-05-04T11:23:53Z</time></trkpt><trkpt lat="41.49548309254946" lon="-0.20356105287332113"><ele>359.8</ele><time>2026-05-04T11:23:54Z</time></trkpt><trkpt lat="41.49547140120439" lon="-0.20341292313058296"><ele>360.0</ele><time>2026-05-04T11:23:55Z</time></trkpt><trkpt lat="41.49546074901794" lon="-0.20326510947093396"><ele>360.0</ele><time>2026-05-04T11:23:56Z</time></trkpt><trkpt lat="41.4954470121262" lon="-0.20312292965096615"><ele>360.0</ele><time>2026-05-04T11:23:57Z</time></trkpt><trkpt lat="41.49544026586476" lon="-0.2029731147173327"><ele>360.0</ele><time>2026-05-04T11:23:58Z</time></trkpt><trkpt lat="41.49542757940634" lon="-0.20283036611113878"><ele>360.0</ele><time>2026-05-04T11:23:59Z</time></trkpt><trkpt lat="41.49541777055152" lon="-0.20268189364499087"><ele>360.0</ele><time>2026-05-04T11:24:00Z</time></trkpt><trkpt lat="41.4953980962215" lon="-0.2025346963299794"><ele>359.6</ele><time>2026-05-04T11:24:01Z</time></trkpt><trkpt lat="41.49538540601143" lon="-0.20238866089062965"><ele>359.2</ele><time>2026-05-04T11:24:02Z</time></trkpt><trkpt lat="41.49537042861189" lon="-0.20224269787676719"><ele>358.79999999999995</ele><time>2026-05-04T11:24:03Z</time></trkpt><trkpt lat="41.49535514068971" lon="-0.20209802226815587"><ele>358.4</ele><time>2026-05-04T11:24:04Z</time></trkpt><trkpt lat="41.49534139005187" lon="-0.2019535893176464"><ele>358.0</ele><time>2026-05-04T11:24:05Z</time></trkpt><trkpt lat="41.49533132376981" lon="-0.20181050194897956"><ele>358.0</ele><time>2026-05-04T11:24:06Z</time></trkpt><trkpt lat="41.49532033147566" lon="-0.20166415776667088"><ele>358.0</ele><time>2026-05-04T11:24:07Z</time></trkpt><trkpt lat="41.49530574818062" lon="-0.2015192159096354"><ele>358.0</ele><time>2026-05-04T11:24:08Z</time></trkpt><trkpt lat="41.495288702263174" lon="-0.20137486487216788"><ele>358.0</ele><time>2026-05-04T11:24:09Z</time></trkpt><trkpt lat="41.495270382132524" lon="-0.20123226005412864"><ele>358.0</ele><time>2026-05-04T11:24:10Z</time></trkpt><trkpt lat="41.49524922087674" lon="-0.20108780237773483"><ele>358.2</ele><time>2026-05-04T11:24:11Z</time></trkpt><trkpt lat="41.49521923734485" lon="-0.2009477973674413"><ele>358.4</ele><time>2026-05-04T11:24:12Z</time></trkpt><trkpt lat="41.49518893982044" lon="-0.2008102047557778"><ele>358.59999999999997</ele><time>2026-05-04T11:24:13Z</time></trkpt><trkpt lat="41.49515431828931" lon="-0.20066985878297267"><ele>358.79999999999995</ele><time>2026-05-04T11:24:14Z</time></trkpt><trkpt lat="41.49512103980346" lon="-0.20053270161411607"><ele>359.0</ele><time>2026-05-04T11:24:15Z</time></trkpt><trkpt lat="41.49508901949711" lon="-0.20039337652364853"><ele>359.0</ele><time>2026-05-04T11:24:16Z</time></trkpt><trkpt lat="41.49506034150805" lon="-0.2002533845927138"><ele>359.0</ele><time>2026-05-04T11:24:17Z</time></trkpt><trkpt lat="41.49502989205892" lon="-0.20011499801353858"><ele>359.0</ele><time>2026-05-04T11:24:18Z</time></trkpt><trkpt lat="41.49499843211408" lon="-0.19997787538696554"><ele>359.0</ele><time>2026-05-04T11:24:19Z</time></trkpt><trkpt lat="41.49496430570259" lon="-0.19984175117383574"><ele>359.0</ele><time>2026-05-04T11:24:20Z</time></trkpt><trkpt lat="41.49493223844452" lon="-0.1997051692654634"><ele>359.0</ele><time>2026-05-04T11:24:21Z</time></trkpt><trkpt lat="41.49490183231843" lon="-0.19956886540893545"><ele>359.0</ele><time>2026-05-04T11:24:22Z</time></trkpt><trkpt lat="41.49487308436629" lon="-0.1994340877881052"><ele>359.0</ele><time>2026-05-04T11:24:23Z</time></trkpt><trkpt lat="41.494842094475885" lon="-0.1992992540040883"><ele>359.0</ele><time>2026-05-04T11:24:24Z</time></trkpt><trkpt lat="41.49481180310477" lon="-0.1991645016795013"><ele>359.0</ele><time>2026-05-04T11:24:25Z</time></trkpt><trkpt lat="41.49478079527717" lon="-0.19902724233214575"><ele>359.6</ele><time>2026-05-04T11:24:26Z</time></trkpt><trkpt lat="41.49474754238214" lon="-0.19889176579230244"><ele>360.2</ele><time>2026-05-04T11:24:27Z</time></trkpt><trkpt lat="41.4947157978631" lon="-0.19875594800948002"><ele>360.8</ele><time>2026-05-04T11:24:28Z</time></trkpt><trkpt lat="41.494684242213516" lon="-0.19862225924727192"><ele>361.40000000000003</ele><time>2026-05-04T11:24:29.001Z</time></trkpt><trkpt lat="41.494654254382205" lon="-0.1984824702914075"><ele>362.0</ele><time>2026-05-04T11:24:30.001Z</time></trkpt><trkpt lat="41.4946239335737" lon="-0.19834660815783647"><ele>362.0</ele><time>2026-05-04T11:24:31.001Z</time></trkpt><trkpt lat="41.49459379346703" lon="-0.1982111096905112"><ele>362.0</ele><time>2026-05-04T11:24:32.001Z</time></trkpt><trkpt lat="41.49456117498929" lon="-0.19807269880020745"><ele>362.0</ele><time>2026-05-04T11:24:33.001Z</time></trkpt><trkpt lat="41.49453078168352" lon="-0.19793397320230857"><ele>362.0</ele><time>2026-05-04T11:24:34.001Z</time></trkpt><trkpt lat="41.494498088928374" lon="-0.19779627924695972"><ele>362.0</ele><time>2026-05-04T11:24:35.001Z</time></trkpt><trkpt lat="41.49446618225132" lon="-0.19765881322324766"><ele>361.20000000000005</ele><time>2026-05-04T11:24:36.001Z</time></trkpt><trkpt lat="41.49443473518213" lon="-0.19751865508505118"><ele>360.4</ele><time>2026-05-04T11:24:37.001Z</time></trkpt><trkpt lat="41.49440284182254" lon="-0.19737997343037356"><ele>359.6</ele><time>2026-05-04T11:24:38.001Z</time></trkpt><trkpt lat="41.49437212925239" lon="-0.19724280078992676"><ele>358.79999999999995</ele><time>2026-05-04T11:24:39.001Z</time></trkpt><trkpt lat="41.49434096069917" lon="-0.19710180817267406"><ele>358.0</ele><time>2026-05-04T11:24:40.001Z</time></trkpt><trkpt lat="41.49430991937888" lon="-0.19696132926851292"><ele>358.0</ele><time>2026-05-04T11:24:41.001Z</time></trkpt><trkpt lat="41.49428307405196" lon="-0.19682241389190733"><ele>358.0</ele><time>2026-05-04T11:24:42.001Z</time></trkpt><trkpt lat="41.49425723455114" lon="-0.19668342052421173"><ele>358.0</ele><time>2026-05-04T11:24:43.001Z</time></trkpt><trkpt lat="41.49423444269151" lon="-0.1965406651939718"><ele>358.0</ele><time>2026-05-04T11:24:44.001Z</time></trkpt><trkpt lat="41.49421309158586" lon="-0.1964023837924711"><ele>358.0</ele><time>2026-05-04T11:24:45.001Z</time></trkpt><trkpt lat="41.494194699235855" lon="-0.19625946085673537"><ele>358.2</ele><time>2026-05-04T11:24:46.001Z</time></trkpt><trkpt lat="41.49418147161163" lon="-0.1961174292163404"><ele>358.4</ele><time>2026-05-04T11:24:47.001Z</time></trkpt><trkpt lat="41.49417053399051" lon="-0.19597080750966447"><ele>358.59999999999997</ele><time>2026-05-04T11:24:48.001Z</time></trkpt><trkpt lat="41.494161810218884" lon="-0.19582710692437255"><ele>358.79999999999995</ele><time>2026-05-04T11:24:49.001Z</time></trkpt><trkpt lat="41.49415537551647" lon="-0.1956767736532165"><ele>359.0</ele><time>2026-05-04T11:24:50.001Z</time></trkpt><trkpt lat="41.49415316467027" lon="-0.1955335449157424"><ele>359.0</ele><time>2026-05-04T11:24:51.001Z</time></trkpt><trkpt lat="41.4941517679009" lon="-0.19537975245641545"><ele>359.0</ele><time>2026-05-04T11:24:52.001Z</time></trkpt><trkpt lat="41.49413436100486" lon="-0.1952040577887345"><ele>359.0</ele><time>2026-05-04T11:24:53.001Z</time></trkpt><trkpt lat="41.494131313284974" lon="-0.1949688184747808"><ele>359.0</ele><time>2026-05-04T11:24:54.001Z</time></trkpt><trkpt lat="41.494130526571155" lon="-0.19471791802722646"><ele>358.79999999999995</ele><time>2026-05-04T11:24:55.001Z</time></trkpt><trkpt lat="41.49415083604609" lon="-0.1946350822874863"><ele>358.59999999999997</ele><time>2026-05-04T11:24:57.001Z</time></trkpt><trkpt lat="41.49414739743209" lon="-0.19448408125165156"><ele>358.4</ele><time>2026-05-04T11:24:58.001Z</time></trkpt><trkpt lat="41.49414762767353" lon="-0.19433297786938855"><ele>358.2</ele><time>2026-05-04T11:24:59.001Z</time></trkpt><trkpt lat="41.49414518877155" lon="-0.1941857505931037"><ele>358.0</ele><time>2026-05-04T11:25:00.001Z</time></trkpt><trkpt lat="41.494144875627434" lon="-0.19403702152722316"><ele>358.0</ele><time>2026-05-04T11:25:01.001Z</time></trkpt><trkpt lat="41.49414264130695" lon="-0.19388699027798081"><ele>358.0</ele><time>2026-05-04T11:25:02.001Z</time></trkpt><trkpt lat="41.494140863547216" lon="-0.19373850681762886"><ele>358.0</ele><time>2026-05-04T11:25:03.001Z</time></trkpt><trkpt lat="41.494138834584895" lon="-0.19358809859246437"><ele>358.0</ele><time>2026-05-04T11:25:04.001Z</time></trkpt><trkpt lat="41.49413529181118" lon="-0.19344058558391236"><ele>358.0</ele><time>2026-05-04T11:25:05.001Z</time></trkpt><trkpt lat="41.49413698442347" lon="-0.1932876425876642"><ele>358.0</ele><time>2026-05-04T11:25:06.001Z</time></trkpt><trkpt lat="41.49413451886951" lon="-0.19313648148425358"><ele>358.0</ele><time>2026-05-04T11:25:07.001Z</time></trkpt><trkpt lat="41.49413215682897" lon="-0.1929847527426509"><ele>358.0</ele><time>2026-05-04T11:25:08.001Z</time></trkpt><trkpt lat="41.4941314883901" lon="-0.19283608528913757"><ele>358.0</ele><time>2026-05-04T11:25:09.001Z</time></trkpt><trkpt lat="41.49413380915012" lon="-0.19268698616473431"><ele>358.0</ele><time>2026-05-04T11:25:10.001Z</time></trkpt><trkpt lat="41.49413614484633" lon="-0.1925422391385625"><ele>358.0</ele><time>2026-05-04T11:25:11.001Z</time></trkpt><trkpt lat="41.49413605732252" lon="-0.19239601703959558"><ele>358.0</ele><time>2026-05-04T11:25:12.001Z</time></trkpt><trkpt lat="41.494138283167814" lon="-0.19225186520280027"><ele>358.0</ele><time>2026-05-04T11:25:13.001Z</time></trkpt><trkpt lat="41.49413686703651" lon="-0.1921110309937804"><ele>358.0</ele><time>2026-05-04T11:25:14.001Z</time></trkpt><trkpt lat="41.49413437004436" lon="-0.19196856938831355"><ele>358.0</ele><time>2026-05-04T11:25:15.001Z</time></trkpt><trkpt lat="41.49413403518158" lon="-0.19182418198121645"><ele>358.0</ele><time>2026-05-04T11:25:16.001Z</time></trkpt><trkpt lat="41.49414270954608" lon="-0.19167839718127824"><ele>358.0</ele><time>2026-05-04T11:25:17.001Z</time></trkpt><trkpt lat="41.4941703921524" lon="-0.19153029978681715"><ele>358.0</ele><time>2026-05-04T11:25:18.001Z</time></trkpt><trkpt lat="41.49418817831256" lon="-0.19138532570056385"><ele>358.0</ele><time>2026-05-04T11:25:19.001Z</time></trkpt><trkpt lat="41.49420953595655" lon="-0.19123877337505737"><ele>357.5</ele><time>2026-05-04T11:25:20.001Z</time></trkpt><trkpt lat="41.494234986183436" lon="-0.19108730767337612"><ele>357.0</ele><time>2026-05-04T11:25:21.001Z</time></trkpt><trkpt lat="41.49426281049191" lon="-0.1909358420328554"><ele>356.5</ele><time>2026-05-04T11:25:22.001Z</time></trkpt><trkpt lat="41.49429871057677" lon="-0.19078452041845853"><ele>356.0</ele><time>2026-05-04T11:25:23.001Z</time></trkpt><trkpt lat="41.4943313795124" lon="-0.1906289632163988"><ele>355.25</ele><time>2026-05-04T11:25:24.001Z</time></trkpt><trkpt lat="41.494364033586926" lon="-0.19047597459891522"><ele>354.5</ele><time>2026-05-04T11:25:25.001Z</time></trkpt><trkpt lat="41.494395987691" lon="-0.19032387368248838"><ele>353.75</ele><time>2026-05-04T11:25:26.001Z</time></trkpt><trkpt lat="41.494426970341664" lon="-0.19016881991109763"><ele>353.0</ele><time>2026-05-04T11:25:27.001Z</time></trkpt><trkpt lat="41.49445719959909" lon="-0.19001725664328276"><ele>353.0</ele><time>2026-05-04T11:25:28.001Z</time></trkpt><trkpt lat="41.49448945346599" lon="-0.18986579734250722"><ele>353.0</ele><time>2026-05-04T11:25:29.001Z</time></trkpt><trkpt lat="41.494524262862356" lon="-0.1897154781718575"><ele>353.0</ele><time>2026-05-04T11:25:30.001Z</time></trkpt><trkpt lat="41.494554608082524" lon="-0.18956601496335312"><ele>353.0</ele><time>2026-05-04T11:25:31.001Z</time></trkpt><trkpt lat="41.4945824514266" lon="-0.18942242970647913"><ele>353.0</ele><time>2026-05-04T11:25:32.001Z</time></trkpt><trkpt lat="41.49461271564882" lon="-0.18927861718010566"><ele>353.0</ele><time>2026-05-04T11:25:33.001Z</time></trkpt><trkpt lat="41.49464273603307" lon="-0.18913317756126494"><ele>353.0</ele><time>2026-05-04T11:25:34.001Z</time></trkpt><trkpt lat="41.49467499944103" lon="-0.1889893078236595"><ele>353.0</ele><time>2026-05-04T11:25:35.001Z</time></trkpt><trkpt lat="41.49470494770093" lon="-0.1888440438659604"><ele>352.75</ele><time>2026-05-04T11:25:36.001Z</time></trkpt><trkpt lat="41.49473585406253" lon="-0.18869889038402154"><ele>352.5</ele><time>2026-05-04T11:25:37.001Z</time></trkpt><trkpt lat="41.494763855786644" lon="-0.1885584343531322"><ele>352.25</ele><time>2026-05-04T11:25:38.001Z</time></trkpt><trkpt lat="41.494791005263984" lon="-0.18840942787402934"><ele>352.0</ele><time>2026-05-04T11:25:39.001Z</time></trkpt><trkpt lat="41.49481720473382" lon="-0.18825814667237065"><ele>351.5</ele><time>2026-05-04T11:25:40.001Z</time></trkpt><trkpt lat="41.49483962943292" lon="-0.1881082403668076"><ele>351.0</ele><time>2026-05-04T11:25:41.001Z</time></trkpt><trkpt lat="41.4948589408269" lon="-0.18795609610630878"><ele>350.5</ele><time>2026-05-04T11:25:42.001Z</time></trkpt><trkpt lat="41.494874676802056" lon="-0.18780834255876375"><ele>350.0</ele><time>2026-05-04T11:25:43.001Z</time></trkpt><trkpt lat="41.49488842534179" lon="-0.18765864436142057"><ele>350.0</ele><time>2026-05-04T11:25:44Z</time></trkpt><trkpt lat="41.494899020196996" lon="-0.18750447346911325"><ele>350.0</ele><time>2026-05-04T11:25:45Z</time></trkpt><trkpt lat="41.49490753607361" lon="-0.1873518705766913"><ele>350.0</ele><time>2026-05-04T11:25:46Z</time></trkpt><trkpt lat="41.49491693022812" lon="-0.18720223607083566"><ele>350.0</ele><time>2026-05-04T11:25:47Z</time></trkpt><trkpt lat="41.494928627843606" lon="-0.18704797875887977"><ele>349.5</ele><time>2026-05-04T11:25:48Z</time></trkpt><trkpt lat="41.49494093117088" lon="-0.18689688916727587"><ele>349.0</ele><time>2026-05-04T11:25:49Z</time></trkpt><trkpt lat="41.494951713850604" lon="-0.18674391396135953"><ele>348.5</ele><time>2026-05-04T11:25:50Z</time></trkpt><trkpt lat="41.49496342078033" lon="-0.18659014364478715"><ele>348.0</ele><time>2026-05-04T11:25:51Z</time></trkpt><trkpt lat="41.49497458754318" lon="-0.1864388481658319"><ele>347.75</ele><time>2026-05-04T11:25:52Z</time></trkpt><trkpt lat="41.49498506596488" lon="-0.18628857661045947"><ele>347.5</ele><time>2026-05-04T11:25:53Z</time></trkpt><trkpt lat="41.494998689897436" lon="-0.18613739231483054"><ele>347.25</ele><time>2026-05-04T11:25:54Z</time></trkpt><trkpt lat="41.49501049507787" lon="-0.18598552767773638"><ele>347.0</ele><time>2026-05-04T11:25:55Z</time></trkpt><trkpt lat="41.495023742990575" lon="-0.18583220110602777"><ele>347.0</ele><time>2026-05-04T11:25:56Z</time></trkpt><trkpt lat="41.49503283019451" lon="-0.18568149892263858"><ele>347.0</ele><time>2026-05-04T11:25:57Z</time></trkpt><trkpt lat="41.495045007000556" lon="-0.18553068929726077"><ele>347.0</ele><time>2026-05-04T11:25:58Z</time></trkpt><trkpt lat="41.49505895472948" lon="-0.18538631157077004"><ele>347.0</ele><time>2026-05-04T11:25:59Z</time></trkpt><trkpt lat="41.49509347756272" lon="-0.18526069628573616"><ele>347.0</ele><time>2026-05-04T11:26:00Z</time></trkpt><trkpt lat="41.49510945949961" lon="-0.1851283954050845"><ele>346.5</ele><time>2026-05-04T11:26:01Z</time></trkpt><trkpt lat="41.49512710628972" lon="-0.18497911952740942"><ele>346.0</ele><time>2026-05-04T11:26:02Z</time></trkpt><trkpt lat="41.49514773747726" lon="-0.18482804392836547"><ele>345.5</ele><time>2026-05-04T11:26:03Z</time></trkpt><trkpt lat="41.49518739642038" lon="-0.18464786898196633"><ele>345.0</ele><time>2026-05-04T11:26:04Z</time></trkpt><trkpt lat="41.49520433616546" lon="-0.1844891694148727"><ele>344.75</ele><time>2026-05-04T11:26:05Z</time></trkpt><trkpt lat="41.49523484215753" lon="-0.18433338263347018"><ele>344.5</ele><time>2026-05-04T11:26:06Z</time></trkpt><trkpt lat="41.495266066873114" lon="-0.18417848027372835"><ele>344.25</ele><time>2026-05-04T11:26:07Z</time></trkpt><trkpt lat="41.49529623156285" lon="-0.18402524142185842"><ele>344.0</ele><time>2026-05-04T11:26:08Z</time></trkpt><trkpt lat="41.49532238107656" lon="-0.18387183482220681"><ele>343.0</ele><time>2026-05-04T11:26:09Z</time></trkpt><trkpt lat="41.49534498156347" lon="-0.18371994424939286"><ele>342.0</ele><time>2026-05-04T11:26:10Z</time></trkpt><trkpt lat="41.49537230992838" lon="-0.18357139263090044"><ele>341.0</ele><time>2026-05-04T11:26:11Z</time></trkpt><trkpt lat="41.495399558766984" lon="-0.1834215265627626"><ele>340.0</ele><time>2026-05-04T11:26:12Z</time></trkpt><trkpt lat="41.49542929883973" lon="-0.18327503328636024"><ele>338.5</ele><time>2026-05-04T11:26:13Z</time></trkpt><trkpt lat="41.49545600289916" lon="-0.1831266896884816"><ele>337.0</ele><time>2026-05-04T11:26:14Z</time></trkpt><trkpt lat="41.49548292134363" lon="-0.18297682682363256"><ele>335.5</ele><time>2026-05-04T11:26:15Z</time></trkpt><trkpt lat="41.49551069192216" lon="-0.18283132256204318"><ele>334.0</ele><time>2026-05-04T11:26:16Z</time></trkpt><trkpt lat="41.49553714427038" lon="-0.1826809079129114"><ele>334.0</ele><time>2026-05-04T11:26:17Z</time></trkpt><trkpt lat="41.495567144241214" lon="-0.18253027728822466"><ele>334.0</ele><time>2026-05-04T11:26:18Z</time></trkpt><trkpt lat="41.495594539602784" lon="-0.1823813140859877"><ele>334.0</ele><time>2026-05-04T11:26:19Z</time></trkpt><trkpt lat="41.495622460801705" lon="-0.18223312575209466"><ele>334.0</ele><time>2026-05-04T11:26:20Z</time></trkpt><trkpt lat="41.49564929585518" lon="-0.1820861723796419"><ele>334.0</ele><time>2026-05-04T11:26:21Z</time></trkpt><trkpt lat="41.49567797916345" lon="-0.18193734074708237"><ele>334.0</ele><time>2026-05-04T11:26:22Z</time></trkpt><trkpt lat="41.495706271957346" lon="-0.18179056869207647"><ele>334.0</ele><time>2026-05-04T11:26:23Z</time></trkpt><trkpt lat="41.495732917673074" lon="-0.18164241879984816"><ele>334.0</ele><time>2026-05-04T11:26:24Z</time></trkpt><trkpt lat="41.49576223811671" lon="-0.18149646215793916"><ele>333.25</ele><time>2026-05-04T11:26:25Z</time></trkpt><trkpt lat="41.49579167326255" lon="-0.18135117243405396"><ele>332.5</ele><time>2026-05-04T11:26:26Z</time></trkpt><trkpt lat="41.495818725796994" lon="-0.18120451878912755"><ele>331.75</ele><time>2026-05-04T11:26:27Z</time></trkpt><trkpt lat="41.495839566386834" lon="-0.18105981126919996"><ele>331.0</ele><time>2026-05-04T11:26:28Z</time></trkpt><trkpt lat="41.49587596981815" lon="-0.18091541786171136"><ele>331.0</ele><time>2026-05-04T11:26:29Z</time></trkpt><trkpt lat="41.49590486348815" lon="-0.18077008739373143"><ele>331.0</ele><time>2026-05-04T11:26:30Z</time></trkpt><trkpt lat="41.49592121133545" lon="-0.18062205861561073"><ele>331.0</ele><time>2026-05-04T11:26:31Z</time></trkpt><trkpt lat="41.49594039556533" lon="-0.1804719180015002"><ele>331.0</ele><time>2026-05-04T11:26:32Z</time></trkpt><trkpt lat="41.49596106612931" lon="-0.1803191354798738"><ele>331.0</ele><time>2026-05-04T11:26:33Z</time></trkpt><trkpt lat="41.49597352404277" lon="-0.18016343521871933"><ele>331.0</ele><time>2026-05-04T11:26:34.001Z</time></trkpt><trkpt lat="41.495983972008126" lon="-0.18001047631763215"><ele>331.0</ele><time>2026-05-04T11:26:35.001Z</time></trkpt><trkpt lat="41.495990961880665" lon="-0.17986115240860603"><ele>331.0</ele><time>2026-05-04T11:26:36.001Z</time></trkpt><trkpt lat="41.49599874261942" lon="-0.17971085643356577"><ele>331.0</ele><time>2026-05-04T11:26:37.001Z</time></trkpt><trkpt lat="41.496005857719894" lon="-0.17956162882706048"><ele>331.0</ele><time>2026-05-04T11:26:38.001Z</time></trkpt><trkpt lat="41.49601222549526" lon="-0.17940889711422223"><ele>331.0</ele><time>2026-05-04T11:26:39.001Z</time></trkpt><trkpt lat="41.49602079068471" lon="-0.17925638194062757"><ele>331.0</ele><time>2026-05-04T11:26:40.001Z</time></trkpt><trkpt lat="41.496027780375265" lon="-0.17910320588097986"><ele>330.75</ele><time>2026-05-04T11:26:41.001Z</time></trkpt><trkpt lat="41.49603502734155" lon="-0.17895121156566043"><ele>330.5</ele><time>2026-05-04T11:26:42.001Z</time></trkpt><trkpt lat="41.49604651144963" lon="-0.17880136665949448"><ele>330.25</ele><time>2026-05-04T11:26:43.001Z</time></trkpt><trkpt lat="41.496054929163044" lon="-0.17864938666030822"><ele>330.0</ele><time>2026-05-04T11:26:44.001Z</time></trkpt><trkpt lat="41.49606399787657" lon="-0.17849746581725048"><ele>330.0</ele><time>2026-05-04T11:26:45.001Z</time></trkpt><trkpt lat="41.49607119330415" lon="-0.17834430329282405"><ele>330.0</ele><time>2026-05-04T11:26:46.001Z</time></trkpt><trkpt lat="41.49608155099552" lon="-0.17819201146667618"><ele>330.0</ele><time>2026-05-04T11:26:47.001Z</time></trkpt><trkpt lat="41.49609176031524" lon="-0.1780411387065054"><ele>330.0</ele><time>2026-05-04T11:26:48.001Z</time></trkpt><trkpt lat="41.49610057098172" lon="-0.17789039573492985"><ele>330.25</ele><time>2026-05-04T11:26:49.001Z</time></trkpt><trkpt lat="41.49610838412235" lon="-0.17773982551456638"><ele>330.5</ele><time>2026-05-04T11:26:50.001Z</time></trkpt><trkpt lat="41.49611278887522" lon="-0.17758644479721994"><ele>330.75</ele><time>2026-05-04T11:26:51.001Z</time></trkpt><trkpt lat="41.49611836465717" lon="-0.17743244627234747"><ele>331.0</ele><time>2026-05-04T11:26:52.001Z</time></trkpt><trkpt lat="41.496124013344264" lon="-0.17728058823522985"><ele>330.5</ele><time>2026-05-04T11:26:53.001Z</time></trkpt><trkpt lat="41.49613298684681" lon="-0.17712829784264567"><ele>330.0</ele><time>2026-05-04T11:26:54.001Z</time></trkpt><trkpt lat="41.49614163394228" lon="-0.17697690884502087"><ele>329.5</ele><time>2026-05-04T11:26:55.001Z</time></trkpt><trkpt lat="41.49615314212712" lon="-0.1768274087336598"><ele>329.0</ele><time>2026-05-04T11:26:56.001Z</time></trkpt><trkpt lat="41.49616371667087" lon="-0.17667399875723336"><ele>329.0</ele><time>2026-05-04T11:26:57.001Z</time></trkpt><trkpt lat="41.49617207662426" lon="-0.1765220025719384"><ele>329.0</ele><time>2026-05-04T11:26:58.001Z</time></trkpt><trkpt lat="41.49617946686387" lon="-0.17637218663980653"><ele>329.0</ele><time>2026-05-04T11:26:59.001Z</time></trkpt><trkpt lat="41.496186053088294" lon="-0.17621954328797923"><ele>329.0</ele><time>2026-05-04T11:27:00.001Z</time></trkpt><trkpt lat="41.496192349158626" lon="-0.17606864290763788"><ele>328.5</ele><time>2026-05-04T11:27:01.001Z</time></trkpt><trkpt lat="41.49620017573948" lon="-0.17591901953701153"><ele>328.0</ele><time>2026-05-04T11:27:02.001Z</time></trkpt><trkpt lat="41.49620987599101" lon="-0.17576996217968516"><ele>327.5</ele><time>2026-05-04T11:27:03.001Z</time></trkpt><trkpt lat="41.49621667618578" lon="-0.17561812871603744"><ele>327.0</ele><time>2026-05-04T11:27:04.001Z</time></trkpt><trkpt lat="41.49622697963114" lon="-0.17546770130771336"><ele>327.0</ele><time>2026-05-04T11:27:05.001Z</time></trkpt><trkpt lat="41.496236781416194" lon="-0.17531809632990378"><ele>327.0</ele><time>2026-05-04T11:27:06.001Z</time></trkpt><trkpt lat="41.496243994576474" lon="-0.17517061348976914"><ele>327.0</ele><time>2026-05-04T11:27:07.001Z</time></trkpt><trkpt lat="41.49625101375308" lon="-0.17501750827031218"><ele>327.0</ele><time>2026-05-04T11:27:08.001Z</time></trkpt><trkpt lat="41.4962628911751" lon="-0.17487227114377915"><ele>327.0</ele><time>2026-05-04T11:27:09.001Z</time></trkpt><trkpt lat="41.49626665220703" lon="-0.17471729232502525"><ele>327.25</ele><time>2026-05-04T11:27:10.001Z</time></trkpt><trkpt lat="41.496274612309826" lon="-0.17456796899893118"><ele>327.5</ele><time>2026-05-04T11:27:11.001Z</time></trkpt><trkpt lat="41.496286673244946" lon="-0.17442150547489585"><ele>327.75</ele><time>2026-05-04T11:27:12.001Z</time></trkpt><trkpt lat="41.49630256784001" lon="-0.17427963654555167"><ele>328.0</ele><time>2026-05-04T11:27:13.001Z</time></trkpt><trkpt lat="41.49629694788883" lon="-0.17411282956576685"><ele>327.75</ele><time>2026-05-04T11:27:14.001Z</time></trkpt><trkpt lat="41.4962933955285" lon="-0.17391741772472646"><ele>327.5</ele><time>2026-05-04T11:27:15.001Z</time></trkpt><trkpt lat="41.49630090466669" lon="-0.17369557676274414"><ele>327.25</ele><time>2026-05-04T11:27:16.001Z</time></trkpt><trkpt lat="41.49629226029643" lon="-0.17357371330485905"><ele>327.0</ele><time>2026-05-04T11:27:17.001Z</time></trkpt><trkpt lat="41.49628635326755" lon="-0.17334860417126846"><ele>327.0</ele><time>2026-05-04T11:27:19.001Z</time></trkpt><trkpt lat="41.49634938096947" lon="-0.1732352295272076"><ele>327.0</ele><time>2026-05-04T11:27:20.001Z</time></trkpt><trkpt lat="41.49635713881602" lon="-0.17308805189511847"><ele>327.0</ele><time>2026-05-04T11:27:21.001Z</time></trkpt><trkpt lat="41.49636627451247" lon="-0.1729406351023597"><ele>327.0</ele><time>2026-05-04T11:27:22.001Z</time></trkpt><trkpt lat="41.49637846739271" lon="-0.1727960903282191"><ele>327.0</ele><time>2026-05-04T11:27:23.001Z</time></trkpt><trkpt lat="41.496390252900596" lon="-0.17265103505727372"><ele>327.0</ele><time>2026-05-04T11:27:24.001Z</time></trkpt><trkpt lat="41.49639858909157" lon="-0.1724993831295816"><ele>327.0</ele><time>2026-05-04T11:27:25.001Z</time></trkpt><trkpt lat="41.49641089612055" lon="-0.172356283533801"><ele>327.0</ele><time>2026-05-04T11:27:26.001Z</time></trkpt><trkpt lat="41.49641339685277" lon="-0.172208635555896"><ele>327.0</ele><time>2026-05-04T11:27:27.001Z</time></trkpt><trkpt lat="41.4964194097906" lon="-0.17205961908116713"><ele>327.0</ele><time>2026-05-04T11:27:28.001Z</time></trkpt><trkpt lat="41.496425921888445" lon="-0.17191048929334524"><ele>327.0</ele><time>2026-05-04T11:27:29.001Z</time></trkpt><trkpt lat="41.49643519666315" lon="-0.17175877372545173"><ele>327.0</ele><time>2026-05-04T11:27:30.001Z</time></trkpt><trkpt lat="41.496442514954964" lon="-0.17160977107608566"><ele>327.0</ele><time>2026-05-04T11:27:31.001Z</time></trkpt><trkpt lat="41.49644378049106" lon="-0.17146117183304185"><ele>327.0</ele><time>2026-05-04T11:27:32.001Z</time></trkpt><trkpt lat="41.49645545253525" lon="-0.17131421994613677"><ele>327.0</ele><time>2026-05-04T11:27:33.001Z</time></trkpt><trkpt lat="41.49646624211525" lon="-0.1711677723534369"><ele>327.0</ele><time>2026-05-04T11:27:34.001Z</time></trkpt><trkpt lat="41.4964773375832" lon="-0.17102046830958262"><ele>327.0</ele><time>2026-05-04T11:27:35.001Z</time></trkpt><trkpt lat="41.49648629381967" lon="-0.17087457618103988"><ele>327.0</ele><time>2026-05-04T11:27:36.001Z</time></trkpt><trkpt lat="41.496503659635515" lon="-0.17072497253944874"><ele>327.0</ele><time>2026-05-04T11:27:37.001Z</time></trkpt><trkpt lat="41.49651623661796" lon="-0.1705782457817891"><ele>327.0</ele><time>2026-05-04T11:27:38.001Z</time></trkpt><trkpt lat="41.49652542411551" lon="-0.17043107862735707"><ele>326.8</ele><time>2026-05-04T11:27:39.001Z</time></trkpt><trkpt lat="41.49653419748864" lon="-0.17028761308692916"><ele>326.6</ele><time>2026-05-04T11:27:40.001Z</time></trkpt><trkpt lat="41.49654404691556" lon="-0.17014009345974773"><ele>326.40000000000003</ele><time>2026-05-04T11:27:41.001Z</time></trkpt><trkpt lat="41.49655165972453" lon="-0.17001636340456094"><ele>326.20000000000005</ele><time>2026-05-04T11:27:42.001Z</time></trkpt><trkpt lat="41.49655955702656" lon="-0.16986620211023534"><ele>326.0</ele><time>2026-05-04T11:27:43.001Z</time></trkpt><trkpt lat="41.496568123805375" lon="-0.16971856422566953"><ele>326.20000000000005</ele><time>2026-05-04T11:27:44.001Z</time></trkpt><trkpt lat="41.496572225161444" lon="-0.16957452915971274"><ele>326.40000000000003</ele><time>2026-05-04T11:27:45.001Z</time></trkpt><trkpt lat="41.496583176352885" lon="-0.169418244004951"><ele>326.6</ele><time>2026-05-04T11:27:46.001Z</time></trkpt><trkpt lat="41.496589782688886" lon="-0.16926393558518227"><ele>326.8</ele><time>2026-05-04T11:27:47.001Z</time></trkpt><trkpt lat="41.49659033804788" lon="-0.16912141573998898"><ele>327.0</ele><time>2026-05-04T11:27:48.001Z</time></trkpt><trkpt lat="41.49657459176732" lon="-0.16897645721391633"><ele>327.0</ele><time>2026-05-04T11:27:49.001Z</time></trkpt><trkpt lat="41.496597528500764" lon="-0.16883017497514252"><ele>327.0</ele><time>2026-05-04T11:27:50Z</time></trkpt><trkpt lat="41.49661299842038" lon="-0.1686688249681721"><ele>327.0</ele><time>2026-05-04T11:27:51Z</time></trkpt><trkpt lat="41.496624854376506" lon="-0.16851987675386584"><ele>327.0</ele><time>2026-05-04T11:27:52Z</time></trkpt><trkpt lat="41.496631066431306" lon="-0.16836900782861372"><ele>327.0</ele><time>2026-05-04T11:27:53Z</time></trkpt><trkpt lat="41.49663564487924" lon="-0.16821658489466748"><ele>327.0</ele><time>2026-05-04T11:27:54Z</time></trkpt><trkpt lat="41.49664584045896" lon="-0.16806224186819507"><ele>327.0</ele><time>2026-05-04T11:27:55Z</time></trkpt><trkpt lat="41.496655583232105" lon="-0.16791300751217658"><ele>327.0</ele><time>2026-05-04T11:27:56Z</time></trkpt><trkpt lat="41.496662337712856" lon="-0.1677608190871975"><ele>327.0</ele><time>2026-05-04T11:27:57Z</time></trkpt><trkpt lat="41.496671982877395" lon="-0.16761107213667897"><ele>327.0</ele><time>2026-05-04T11:27:58Z</time></trkpt><trkpt lat="41.49667756857687" lon="-0.16745726133126193"><ele>327.0</ele><time>2026-05-04T11:27:59Z</time></trkpt><trkpt lat="41.49668631619879" lon="-0.16730822202413503"><ele>327.0</ele><time>2026-05-04T11:28:00Z</time></trkpt><trkpt lat="41.49669722894158" lon="-0.1671581790223436"><ele>327.25</ele><time>2026-05-04T11:28:01Z</time></trkpt><trkpt lat="41.49670890249173" lon="-0.16700773857476395"><ele>327.5</ele><time>2026-05-04T11:28:02Z</time></trkpt><trkpt lat="41.496720030202255" lon="-0.16685719432257695"><ele>327.75</ele><time>2026-05-04T11:28:03Z</time></trkpt><trkpt lat="41.49672639843464" lon="-0.16670585548353592"><ele>328.0</ele><time>2026-05-04T11:28:04Z</time></trkpt><trkpt lat="41.49672876948759" lon="-0.1665532050909951"><ele>328.2</ele><time>2026-05-04T11:28:05Z</time></trkpt><trkpt lat="41.49673388384578" lon="-0.16640361135855666"><ele>328.4</ele><time>2026-05-04T11:28:06Z</time></trkpt><trkpt lat="41.49674874271936" lon="-0.16626442412388984"><ele>328.59999999999997</ele><time>2026-05-04T11:28:07Z</time></trkpt><trkpt lat="41.49675647989686" lon="-0.16610101950029593"><ele>328.79999999999995</ele><time>2026-05-04T11:28:08Z</time></trkpt><trkpt lat="41.496765141237475" lon="-0.16596202918793226"><ele>329.0</ele><time>2026-05-04T11:28:09Z</time></trkpt><trkpt lat="41.496778316702766" lon="-0.16581241100777425"><ele>329.2</ele><time>2026-05-04T11:28:10Z</time></trkpt><trkpt lat="41.4967850019376" lon="-0.16566951634794883"><ele>329.4</ele><time>2026-05-04T11:28:11Z</time></trkpt><trkpt lat="41.49679359117892" lon="-0.16552251686359887"><ele>329.6</ele><time>2026-05-04T11:28:12Z</time></trkpt><trkpt lat="41.4968051025074" lon="-0.1653800547358388"><ele>329.8</ele><time>2026-05-04T11:28:13Z</time></trkpt><trkpt lat="41.496816789996366" lon="-0.1652357580155959"><ele>330.0</ele><time>2026-05-04T11:28:14Z</time></trkpt><trkpt lat="41.496828488859734" lon="-0.16509043661749376"><ele>330.0</ele><time>2026-05-04T11:28:15Z</time></trkpt><trkpt lat="41.496845789390804" lon="-0.16494393232057286"><ele>330.0</ele><time>2026-05-04T11:28:16Z</time></trkpt><trkpt lat="41.496860209225616" lon="-0.16480140480398156"><ele>330.0</ele><time>2026-05-04T11:28:17Z</time></trkpt><trkpt lat="41.49687386422354" lon="-0.16465147237653402"><ele>330.0</ele><time>2026-05-04T11:28:18Z</time></trkpt><trkpt lat="41.496887329857465" lon="-0.16450272405891164"><ele>330.0</ele><time>2026-05-04T11:28:19Z</time></trkpt><trkpt lat="41.49689672293669" lon="-0.16435881568481198"><ele>330.0</ele><time>2026-05-04T11:28:20Z</time></trkpt><trkpt lat="41.49691060674255" lon="-0.1642114678038073"><ele>330.0</ele><time>2026-05-04T11:28:21Z</time></trkpt><trkpt lat="41.49692143175736" lon="-0.16406653584240702"><ele>330.0</ele><time>2026-05-04T11:28:22Z</time></trkpt><trkpt lat="41.496936144339756" lon="-0.16392156103920189"><ele>330.0</ele><time>2026-05-04T11:28:23Z</time></trkpt><trkpt lat="41.496950240874696" lon="-0.16377570433082575"><ele>330.0</ele><time>2026-05-04T11:28:24Z</time></trkpt><trkpt lat="41.496961927715425" lon="-0.1636289073592008"><ele>330.0</ele><time>2026-05-04T11:28:25Z</time></trkpt><trkpt lat="41.496972098794515" lon="-0.16348203130066646"><ele>330.0</ele><time>2026-05-04T11:28:26Z</time></trkpt><trkpt lat="41.496986590761864" lon="-0.16333703684131298"><ele>330.0</ele><time>2026-05-04T11:28:27Z</time></trkpt><trkpt lat="41.49700188800285" lon="-0.16318791423564438"><ele>330.0</ele><time>2026-05-04T11:28:28Z</time></trkpt><trkpt lat="41.49701564833909" lon="-0.16304312771719948"><ele>330.0</ele><time>2026-05-04T11:28:29Z</time></trkpt><trkpt lat="41.497027787285475" lon="-0.16289848833646378"><ele>330.0</ele><time>2026-05-04T11:28:30Z</time></trkpt><trkpt lat="41.49704055109981" lon="-0.16275266228811475"><ele>330.0</ele><time>2026-05-04T11:28:31Z</time></trkpt><trkpt lat="41.497059482535775" lon="-0.16260022047549294"><ele>330.0</ele><time>2026-05-04T11:28:32Z</time></trkpt><trkpt lat="41.49706866049886" lon="-0.16245753837504504"><ele>330.0</ele><time>2026-05-04T11:28:33Z</time></trkpt><trkpt lat="41.49708693461478" lon="-0.16231168551009695"><ele>330.0</ele><time>2026-05-04T11:28:34Z</time></trkpt><trkpt lat="41.49710967977702" lon="-0.16216562452989217"><ele>329.75</ele><time>2026-05-04T11:28:35Z</time></trkpt><trkpt lat="41.49711146311181" lon="-0.1619920855426674"><ele>329.5</ele><time>2026-05-04T11:28:36.001Z</time></trkpt><trkpt lat="41.49712774383396" lon="-0.1617861218235425"><ele>329.25</ele><time>2026-05-04T11:28:37.001Z</time></trkpt><trkpt lat="41.49714436817651" lon="-0.1615717078471669"><ele>329.0</ele><time>2026-05-04T11:28:38.001Z</time></trkpt><trkpt lat="41.497165893676716" lon="-0.16141191055673598"><ele>329.2</ele><time>2026-05-04T11:28:40.001Z</time></trkpt><trkpt lat="41.49717399013996" lon="-0.16126055108374182"><ele>329.4</ele><time>2026-05-04T11:28:41.001Z</time></trkpt><trkpt lat="41.49717876995804" lon="-0.1611069150305415"><ele>329.6</ele><time>2026-05-04T11:28:42.001Z</time></trkpt><trkpt lat="41.497190343615436" lon="-0.16096200441202949"><ele>329.8</ele><time>2026-05-04T11:28:43.001Z</time></trkpt><trkpt lat="41.49719927235449" lon="-0.16081733247054616"><ele>330.0</ele><time>2026-05-04T11:28:44.001Z</time></trkpt><trkpt lat="41.49720982407092" lon="-0.16066973973447882"><ele>330.0</ele><time>2026-05-04T11:28:45.001Z</time></trkpt><trkpt lat="41.49722211490221" lon="-0.16052012267488613"><ele>330.0</ele><time>2026-05-04T11:28:46.001Z</time></trkpt><trkpt lat="41.49723417817907" lon="-0.16037077375959352"><ele>330.0</ele><time>2026-05-04T11:28:47.001Z</time></trkpt><trkpt lat="41.49724717761298" lon="-0.1602229727845859"><ele>330.0</ele><time>2026-05-04T11:28:48.001Z</time></trkpt><trkpt lat="41.497259312255" lon="-0.1600723418008064"><ele>330.0</ele><time>2026-05-04T11:28:49.001Z</time></trkpt><trkpt lat="41.497273818901206" lon="-0.15992023991384657"><ele>330.0</ele><time>2026-05-04T11:28:50.001Z</time></trkpt><trkpt lat="41.49728532470935" lon="-0.1597686621461783"><ele>330.0</ele><time>2026-05-04T11:28:51.001Z</time></trkpt><trkpt lat="41.497298215600644" lon="-0.15961596098988917"><ele>330.0</ele><time>2026-05-04T11:28:52.001Z</time></trkpt><trkpt lat="41.49731216198693" lon="-0.15946432030234972"><ele>330.0</ele><time>2026-05-04T11:28:53.001Z</time></trkpt><trkpt lat="41.49732202153074" lon="-0.15931547956406444"><ele>330.0</ele><time>2026-05-04T11:28:54.001Z</time></trkpt><trkpt lat="41.49732623642721" lon="-0.15916449090012308"><ele>330.0</ele><time>2026-05-04T11:28:55.001Z</time></trkpt><trkpt lat="41.497326749103685" lon="-0.15901502250177804"><ele>330.0</ele><time>2026-05-04T11:28:56.001Z</time></trkpt><trkpt lat="41.497321734333944" lon="-0.15886212298206237"><ele>330.0</ele><time>2026-05-04T11:28:57.001Z</time></trkpt><trkpt lat="41.49731238139001" lon="-0.1587102212161702"><ele>330.0</ele><time>2026-05-04T11:28:58.001Z</time></trkpt><trkpt lat="41.49729047391978" lon="-0.15856115153805367"><ele>330.0</ele><time>2026-05-04T11:28:59.001Z</time></trkpt><trkpt lat="41.497261192689" lon="-0.15841741508214038"><ele>330.0</ele><time>2026-05-04T11:29:00.001Z</time></trkpt><trkpt lat="41.49711561035467" lon="-0.15823487150623997"><ele>330.25</ele><time>2026-05-04T11:29:01.001Z</time></trkpt><trkpt lat="41.4970718382935" lon="-0.15806346108594826"><ele>330.5</ele><time>2026-05-04T11:29:02.001Z</time></trkpt><trkpt lat="41.496990086626504" lon="-0.15799793145152793"><ele>330.75</ele><time>2026-05-04T11:29:03.001Z</time></trkpt><trkpt lat="41.49705531549681" lon="-0.15786305888114283"><ele>331.0</ele><time>2026-05-04T11:29:04.001Z</time></trkpt><trkpt lat="41.497086287727974" lon="-0.15771545805012663"><ele>331.0</ele><time>2026-05-04T11:29:05.001Z</time></trkpt><trkpt lat="41.49707479946822" lon="-0.15757128544468915"><ele>331.0</ele><time>2026-05-04T11:29:06.001Z</time></trkpt><trkpt lat="41.49696747128523" lon="-0.1574504178797747"><ele>331.0</ele><time>2026-05-04T11:29:07.001Z</time></trkpt><trkpt lat="41.49691931366149" lon="-0.15731606692782177"><ele>331.0</ele><time>2026-05-04T11:29:08.001Z</time></trkpt><trkpt lat="41.496891441333226" lon="-0.15718377731111363"><ele>330.3333333333333</ele><time>2026-05-04T11:29:09.001Z</time></trkpt><trkpt lat="41.49691236160786" lon="-0.1570713713619768"><ele>329.6666666666667</ele><time>2026-05-04T11:29:10.001Z</time></trkpt><trkpt lat="41.49698635131031" lon="-0.1568891667531907"><ele>329.0</ele><time>2026-05-04T11:29:11.001Z</time></trkpt><trkpt lat="41.49676052655904" lon="-0.1567478769152941"><ele>329.0</ele><time>2026-05-04T11:29:12.001Z</time></trkpt><trkpt lat="41.49671487516255" lon="-0.15661007176979327"><ele>329.0</ele><time>2026-05-04T11:29:13.001Z</time></trkpt><trkpt lat="41.49667062874605" lon="-0.1564719695639084"><ele>329.0</ele><time>2026-05-04T11:29:14.001Z</time></trkpt><trkpt lat="41.49662520427251" lon="-0.15633152269024345"><ele>329.0</ele><time>2026-05-04T11:29:15.001Z</time></trkpt><trkpt lat="41.49658009388246" lon="-0.15618779646590203"><ele>328.79999999999995</ele><time>2026-05-04T11:29:16.001Z</time></trkpt><trkpt lat="41.496538820373374" lon="-0.15605145086504565"><ele>328.59999999999997</ele><time>2026-05-04T11:29:17.001Z</time></trkpt><trkpt lat="41.49649928396174" lon="-0.15590968991819348"><ele>328.4</ele><time>2026-05-04T11:29:18.001Z</time></trkpt><trkpt lat="41.496460395836564" lon="-0.15577064758542378"><ele>328.2</ele><time>2026-05-04T11:29:19.001Z</time></trkpt><trkpt lat="41.49641882966673" lon="-0.15563403029212405"><ele>328.0</ele><time>2026-05-04T11:29:20.001Z</time></trkpt><trkpt lat="41.49638177580727" lon="-0.15549457445330173"><ele>328.0</ele><time>2026-05-04T11:29:21.001Z</time></trkpt><trkpt lat="41.49634036132564" lon="-0.15535613808367718"><ele>328.0</ele><time>2026-05-04T11:29:22.001Z</time></trkpt><trkpt lat="41.496299902903104" lon="-0.1552168574916068"><ele>328.0</ele><time>2026-05-04T11:29:23.001Z</time></trkpt><trkpt lat="41.49626232980839" lon="-0.1550763044055577"><ele>328.0</ele><time>2026-05-04T11:29:24.001Z</time></trkpt><trkpt lat="41.49622413800766" lon="-0.15494223386488712"><ele>328.0</ele><time>2026-05-04T11:29:25.001Z</time></trkpt><trkpt lat="41.496185166058986" lon="-0.15480601500713595"><ele>327.79999999999995</ele><time>2026-05-04T11:29:26.001Z</time></trkpt><trkpt lat="41.4961467860169" lon="-0.15466863006081313"><ele>327.6</ele><time>2026-05-04T11:29:27.001Z</time></trkpt><trkpt lat="41.49610924973819" lon="-0.15453621153627717"><ele>327.4</ele><time>2026-05-04T11:29:28.001Z</time></trkpt><trkpt lat="41.49606802033037" lon="-0.15439990449188473"><ele>327.20000000000005</ele><time>2026-05-04T11:29:29.001Z</time></trkpt><trkpt lat="41.496028582669034" lon="-0.15426414932013865"><ele>327.0</ele><time>2026-05-04T11:29:30.001Z</time></trkpt><trkpt lat="41.49599366382052" lon="-0.15412411161319345"><ele>327.20000000000005</ele><time>2026-05-04T11:29:31.001Z</time></trkpt><trkpt lat="41.49595748124347" lon="-0.1539853403557688"><ele>327.4</ele><time>2026-05-04T11:29:32.001Z</time></trkpt><trkpt lat="41.49592919664622" lon="-0.15385245087930677"><ele>327.6</ele><time>2026-05-04T11:29:33.001Z</time></trkpt><trkpt lat="41.495897040653006" lon="-0.1537191389139461"><ele>327.79999999999995</ele><time>2026-05-04T11:29:34.001Z</time></trkpt><trkpt lat="41.49585693375744" lon="-0.15358457346697357"><ele>328.0</ele><time>2026-05-04T11:29:35.001Z</time></trkpt><trkpt lat="41.495822077286796" lon="-0.1534553888262965"><ele>328.0</ele><time>2026-05-04T11:29:36.001Z</time></trkpt><trkpt lat="41.49579222794989" lon="-0.1533215633473055"><ele>328.0</ele><time>2026-05-04T11:29:37.001Z</time></trkpt><trkpt lat="41.495757512277976" lon="-0.1531869333285114"><ele>328.0</ele><time>2026-05-04T11:29:38.001Z</time></trkpt><trkpt lat="41.49572376804456" lon="-0.15305862803750536"><ele>328.0</ele><time>2026-05-04T11:29:39.001Z</time></trkpt><trkpt lat="41.495700438278234" lon="-0.15291815540678896"><ele>328.0</ele><time>2026-05-04T11:29:40.001Z</time></trkpt><trkpt lat="41.495680934593516" lon="-0.15277857100280262"><ele>328.0</ele><time>2026-05-04T11:29:41.001Z</time></trkpt><trkpt lat="41.49567948700747" lon="-0.15262955495931108"><ele>328.0</ele><time>2026-05-04T11:29:42.001Z</time></trkpt><trkpt lat="41.495683941445414" lon="-0.15248761138977532"><ele>328.0</ele><time>2026-05-04T11:29:43.001Z</time></trkpt><trkpt lat="41.49570062387997" lon="-0.1523458891947433"><ele>328.0</ele><time>2026-05-04T11:29:44.001Z</time></trkpt><trkpt lat="41.49572741595447" lon="-0.1522057666527186"><ele>328.0</ele><time>2026-05-04T11:29:45.001Z</time></trkpt><trkpt lat="41.495766129583664" lon="-0.15206800068990128"><ele>328.0</ele><time>2026-05-04T11:29:46.001Z</time></trkpt><trkpt lat="41.49580939725016" lon="-0.15193519017601934"><ele>328.0</ele><time>2026-05-04T11:29:47.001Z</time></trkpt><trkpt lat="41.49585649145233" lon="-0.1518086370813557"><ele>328.0</ele><time>2026-05-04T11:29:48.001Z</time></trkpt><trkpt lat="41.49592259660367" lon="-0.15168883014735116"><ele>328.0</ele><time>2026-05-04T11:29:49.001Z</time></trkpt><trkpt lat="41.49600104424479" lon="-0.1515783377719804"><ele>328.0</ele><time>2026-05-04T11:29:50.001Z</time></trkpt><trkpt lat="41.49607715865926" lon="-0.15147262519202206"><ele>328.0</ele><time>2026-05-04T11:29:51.001Z</time></trkpt><trkpt lat="41.496157069742814" lon="-0.15136946261349601"><ele>328.0</ele><time>2026-05-04T11:29:52.001Z</time></trkpt><trkpt lat="41.49623934825487" lon="-0.15126594981601368"><ele>328.0</ele><time>2026-05-04T11:29:53.001Z</time></trkpt><trkpt lat="41.49631300282039" lon="-0.1511631582583924"><ele>328.0</ele><time>2026-05-04T11:29:54.001Z</time></trkpt><trkpt lat="41.4963938001165" lon="-0.15105588848338644"><ele>328.0</ele><time>2026-05-04T11:29:55.001Z</time></trkpt><trkpt lat="41.49647072991226" lon="-0.15094780532767668"><ele>328.0</ele><time>2026-05-04T11:29:56Z</time></trkpt><trkpt lat="41.496543191252464" lon="-0.15083430689837193"><ele>328.0</ele><time>2026-05-04T11:29:57Z</time></trkpt><trkpt lat="41.49660720818963" lon="-0.15071329425499877"><ele>328.0</ele><time>2026-05-04T11:29:58Z</time></trkpt><trkpt lat="41.496657460109425" lon="-0.15058420313791326"><ele>328.0</ele><time>2026-05-04T11:29:59Z</time></trkpt><trkpt lat="41.49670729068023" lon="-0.150454976543985"><ele>328.0</ele><time>2026-05-04T11:30:00Z</time></trkpt><trkpt lat="41.49675039297241" lon="-0.1503224526087165"><ele>328.0</ele><time>2026-05-04T11:30:01Z</time></trkpt><trkpt lat="41.49679352298864" lon="-0.15018932880314584"><ele>328.0</ele><time>2026-05-04T11:30:02Z</time></trkpt><trkpt lat="41.49683292925659" lon="-0.15005666574314191"><ele>328.0</ele><time>2026-05-04T11:30:03Z</time></trkpt><trkpt lat="41.496865575659264" lon="-0.14992627612086343"><ele>328.0</ele><time>2026-05-04T11:30:04Z</time></trkpt><trkpt lat="41.49690153481674" lon="-0.14979521751416905"><ele>328.0</ele><time>2026-05-04T11:30:05Z</time></trkpt><trkpt lat="41.496938302058545" lon="-0.14966015875226057"><ele>328.0</ele><time>2026-05-04T11:30:06Z</time></trkpt><trkpt lat="41.49697159054523" lon="-0.1495282140944841"><ele>328.0</ele><time>2026-05-04T11:30:07Z</time></trkpt><trkpt lat="41.49700929532388" lon="-0.14939634649166988"><ele>328.0</ele><time>2026-05-04T11:30:08Z</time></trkpt><trkpt lat="41.497048753179634" lon="-0.14926259830123392"><ele>328.0</ele><time>2026-05-04T11:30:09Z</time></trkpt><trkpt lat="41.497087819824344" lon="-0.14913132643276522"><ele>328.0</ele><time>2026-05-04T11:30:10Z</time></trkpt><trkpt lat="41.49712647664731" lon="-0.14899629577600812"><ele>327.79999999999995</ele><time>2026-05-04T11:30:11Z</time></trkpt><trkpt lat="41.49716609377783" lon="-0.14885910129225868"><ele>327.6</ele><time>2026-05-04T11:30:12Z</time></trkpt><trkpt lat="41.49720518735471" lon="-0.14871863085090994"><ele>327.4</ele><time>2026-05-04T11:30:13Z</time></trkpt><trkpt lat="41.497246833111525" lon="-0.1485842145878789"><ele>327.20000000000005</ele><time>2026-05-04T11:30:14Z</time></trkpt><trkpt lat="41.497292043369114" lon="-0.1484386166104497"><ele>327.0</ele><time>2026-05-04T11:30:15Z</time></trkpt><trkpt lat="41.497320159282864" lon="-0.14830785015406167"><ele>326.75</ele><time>2026-05-04T11:30:16Z</time></trkpt><trkpt lat="41.49738128896193" lon="-0.14817619068663548"><ele>326.5</ele><time>2026-05-04T11:30:17Z</time></trkpt><trkpt lat="41.49742019109036" lon="-0.1480353669977591"><ele>326.25</ele><time>2026-05-04T11:30:18Z</time></trkpt><trkpt lat="41.4974612647086" lon="-0.14789105418683454"><ele>326.0</ele><time>2026-05-04T11:30:19Z</time></trkpt><trkpt lat="41.4974964768847" lon="-0.14775077891725644"><ele>326.0</ele><time>2026-05-04T11:30:20Z</time></trkpt><trkpt lat="41.497540990416006" lon="-0.147610083631863"><ele>326.0</ele><time>2026-05-04T11:30:21Z</time></trkpt><trkpt lat="41.49758396013495" lon="-0.14746977148840118"><ele>326.0</ele><time>2026-05-04T11:30:22Z</time></trkpt><trkpt lat="41.497627570024896" lon="-0.1473295579191384"><ele>326.0</ele><time>2026-05-04T11:30:23Z</time></trkpt><trkpt lat="41.49766870766942" lon="-0.1471852727205223"><ele>325.75</ele><time>2026-05-04T11:30:24Z</time></trkpt><trkpt lat="41.49770740311399" lon="-0.14704464232817163"><ele>325.5</ele><time>2026-05-04T11:30:25Z</time></trkpt><trkpt lat="41.497747689189" lon="-0.1468999726723257"><ele>325.25</ele><time>2026-05-04T11:30:26Z</time></trkpt><trkpt lat="41.49779267734296" lon="-0.1467588831407847"><ele>325.0</ele><time>2026-05-04T11:30:27Z</time></trkpt><trkpt lat="41.49783126280809" lon="-0.1466139131717321"><ele>325.0</ele><time>2026-05-04T11:30:28Z</time></trkpt><trkpt lat="41.49787292180858" lon="-0.14647192840981094"><ele>325.0</ele><time>2026-05-04T11:30:29Z</time></trkpt><trkpt lat="41.497907227593316" lon="-0.14632338897692065"><ele>325.0</ele><time>2026-05-04T11:30:30Z</time></trkpt><trkpt lat="41.49793208567725" lon="-0.1461772270730188"><ele>325.0</ele><time>2026-05-04T11:30:31Z</time></trkpt><trkpt lat="41.49794884689303" lon="-0.14602878224953333"><ele>325.0</ele><time>2026-05-04T11:30:32Z</time></trkpt><trkpt lat="41.49796513217263" lon="-0.14587854222979546"><ele>325.0</ele><time>2026-05-04T11:30:33Z</time></trkpt><trkpt lat="41.49797006953365" lon="-0.1457306765216426"><ele>325.0</ele><time>2026-05-04T11:30:34Z</time></trkpt><trkpt lat="41.49798473155548" lon="-0.1455872190961054"><ele>325.0</ele><time>2026-05-04T11:30:35Z</time></trkpt><trkpt lat="41.49800110831725" lon="-0.14549468279101865"><ele>325.0</ele><time>2026-05-04T11:30:36Z</time></trkpt><trkpt lat="41.49799999612285" lon="-0.14540403578598401"><ele>325.3333333333333</ele><time>2026-05-04T11:30:37Z</time></trkpt><trkpt lat="41.498007485491605" lon="-0.14498173549775792"><ele>325.6666666666667</ele><time>2026-05-04T11:30:39Z</time></trkpt><trkpt lat="41.49800914882502" lon="-0.14483276149209084"><ele>326.0</ele><time>2026-05-04T11:30:40Z</time></trkpt><trkpt lat="41.498010993850286" lon="-0.1446877008249174"><ele>326.0</ele><time>2026-05-04T11:30:41Z</time></trkpt><trkpt lat="41.49801094537655" lon="-0.14453457296122596"><ele>326.0</ele><time>2026-05-04T11:30:42Z</time></trkpt><trkpt lat="41.49801361765096" lon="-0.1443849656879249"><ele>326.0</ele><time>2026-05-04T11:30:43Z</time></trkpt><trkpt lat="41.49801893690417" lon="-0.14424257001756122"><ele>326.0</ele><time>2026-05-04T11:30:44Z</time></trkpt><trkpt lat="41.49802694939875" lon="-0.14409919287673603"><ele>326.0</ele><time>2026-05-04T11:30:45.001Z</time></trkpt><trkpt lat="41.49803885820562" lon="-0.14395430227970915"><ele>326.0</ele><time>2026-05-04T11:30:46.001Z</time></trkpt><trkpt lat="41.4980415285438" lon="-0.14380753882580352"><ele>326.0</ele><time>2026-05-04T11:30:47.001Z</time></trkpt><trkpt lat="41.49804569560845" lon="-0.14366048128549358"><ele>326.0</ele><time>2026-05-04T11:30:48.001Z</time></trkpt><trkpt lat="41.49805014249544" lon="-0.14351643610827042"><ele>326.0</ele><time>2026-05-04T11:30:49.001Z</time></trkpt><trkpt lat="41.49805300471152" lon="-0.1433699197250438"><ele>326.0</ele><time>2026-05-04T11:30:50.001Z</time></trkpt><trkpt lat="41.49805948321751" lon="-0.1432252859085388"><ele>325.8</ele><time>2026-05-04T11:30:51.001Z</time></trkpt><trkpt lat="41.49806561673778" lon="-0.14307923622885887"><ele>325.6</ele><time>2026-05-04T11:30:52.001Z</time></trkpt><trkpt lat="41.49807186562867" lon="-0.14293195192158625"><ele>325.4</ele><time>2026-05-04T11:30:53.001Z</time></trkpt><trkpt lat="41.498078153133136" lon="-0.14278671427199563"><ele>325.2</ele><time>2026-05-04T11:30:54.001Z</time></trkpt><trkpt lat="41.49808166127043" lon="-0.14263728182144522"><ele>325.0</ele><time>2026-05-04T11:30:55.001Z</time></trkpt><trkpt lat="41.49808732478192" lon="-0.14248974183050775"><ele>325.0</ele><time>2026-05-04T11:30:56.001Z</time></trkpt><trkpt lat="41.49808756690548" lon="-0.14234445347392344"><ele>325.0</ele><time>2026-05-04T11:30:57.001Z</time></trkpt><trkpt lat="41.49809366963562" lon="-0.14219613432169112"><ele>325.0</ele><time>2026-05-04T11:30:58.001Z</time></trkpt><trkpt lat="41.498096180834274" lon="-0.14204628482089804"><ele>325.0</ele><time>2026-05-04T11:30:59.001Z</time></trkpt><trkpt lat="41.49809955628164" lon="-0.141893608061426"><ele>325.0</ele><time>2026-05-04T11:31:00.001Z</time></trkpt><trkpt lat="41.4981003616644" lon="-0.1417415968438328"><ele>325.0</ele><time>2026-05-04T11:31:01.001Z</time></trkpt><trkpt lat="41.49810208630497" lon="-0.14160722442630272"><ele>325.0</ele><time>2026-05-04T11:31:02.001Z</time></trkpt><trkpt lat="41.4981211477597" lon="-0.14151651485705838"><ele>325.0</ele><time>2026-05-04T11:31:04.001Z</time></trkpt><trkpt lat="41.49811266548533" lon="-0.14115252700755387"><ele>325.0</ele><time>2026-05-04T11:31:05.001Z</time></trkpt><trkpt lat="41.49811812429231" lon="-0.1410034725585191"><ele>325.0</ele><time>2026-05-04T11:31:06.001Z</time></trkpt><trkpt lat="41.49813285331965" lon="-0.14085396199905065"><ele>325.0</ele><time>2026-05-04T11:31:07.001Z</time></trkpt><trkpt lat="41.49813962612566" lon="-0.140707235449991"><ele>325.0</ele><time>2026-05-04T11:31:08.001Z</time></trkpt><trkpt lat="41.498145157845045" lon="-0.14055597652632124"><ele>325.0</ele><time>2026-05-04T11:31:09.001Z</time></trkpt><trkpt lat="41.49814873966588" lon="-0.14041026127735384"><ele>325.0</ele><time>2026-05-04T11:31:10.001Z</time></trkpt><trkpt lat="41.498155916914094" lon="-0.1402592837780568"><ele>325.2</ele><time>2026-05-04T11:31:11.001Z</time></trkpt><trkpt lat="41.498161016463655" lon="-0.14011471086697966"><ele>325.4</ele><time>2026-05-04T11:31:12.001Z</time></trkpt><trkpt lat="41.498168152340796" lon="-0.139966146938392"><ele>325.6</ele><time>2026-05-04T11:31:13.001Z</time></trkpt><trkpt lat="41.49816896068887" lon="-0.13981515201809502"><ele>325.8</ele><time>2026-05-04T11:31:14.001Z</time></trkpt><trkpt lat="41.498168466314674" lon="-0.13966114505704283"><ele>326.0</ele><time>2026-05-04T11:31:15.001Z</time></trkpt><trkpt lat="41.49817312793231" lon="-0.13950700373947106"><ele>325.5</ele><time>2026-05-04T11:31:16.001Z</time></trkpt><trkpt lat="41.49817768246408" lon="-0.1393491979932326"><ele>325.0</ele><time>2026-05-04T11:31:17.001Z</time></trkpt><trkpt lat="41.49818361375693" lon="-0.13919160782478726"><ele>324.5</ele><time>2026-05-04T11:31:18.001Z</time></trkpt><trkpt lat="41.498191956099696" lon="-0.13903869451737397"><ele>324.0</ele><time>2026-05-04T11:31:19.001Z</time></trkpt><trkpt lat="41.4981930660408" lon="-0.1388814708937914"><ele>323.75</ele><time>2026-05-04T11:31:20.001Z</time></trkpt><trkpt lat="41.49819858296002" lon="-0.13873056102348238"><ele>323.5</ele><time>2026-05-04T11:31:21.001Z</time></trkpt><trkpt lat="41.498202197712516" lon="-0.13857976251796722"><ele>323.25</ele><time>2026-05-04T11:31:22.001Z</time></trkpt><trkpt lat="41.498203428642036" lon="-0.13842813070080653"><ele>323.0</ele><time>2026-05-04T11:31:23.001Z</time></trkpt><trkpt lat="41.49820629064631" lon="-0.13827940256727816"><ele>323.25</ele><time>2026-05-04T11:31:24.001Z</time></trkpt><trkpt lat="41.49820929413463" lon="-0.13812569875506941"><ele>323.5</ele><time>2026-05-04T11:31:25.001Z</time></trkpt><trkpt lat="41.49821410682033" lon="-0.13797770268138776"><ele>323.75</ele><time>2026-05-04T11:31:26.001Z</time></trkpt><trkpt lat="41.49821777547879" lon="-0.1378261457827886"><ele>324.0</ele><time>2026-05-04T11:31:27.001Z</time></trkpt><trkpt lat="41.498221553643305" lon="-0.13767673821429796"><ele>324.0</ele><time>2026-05-04T11:31:28.001Z</time></trkpt><trkpt lat="41.49822591043197" lon="-0.13752696025774255"><ele>324.0</ele><time>2026-05-04T11:31:29.001Z</time></trkpt><trkpt lat="41.498230857269014" lon="-0.13737568150240195"><ele>324.0</ele><time>2026-05-04T11:31:30.001Z</time></trkpt><trkpt lat="41.4982363799958" lon="-0.13722896874929594"><ele>324.0</ele><time>2026-05-04T11:31:31.001Z</time></trkpt><trkpt lat="41.49824593889939" lon="-0.13707921732272368"><ele>324.0</ele><time>2026-05-04T11:31:32.001Z</time></trkpt><trkpt lat="41.49825221290966" lon="-0.13693078757001623"><ele>324.0</ele><time>2026-05-04T11:31:33.001Z</time></trkpt><trkpt lat="41.498255461472404" lon="-0.1367812853395718"><ele>324.0</ele><time>2026-05-04T11:31:34.001Z</time></trkpt><trkpt lat="41.49825794222736" lon="-0.13663090759215518"><ele>324.0</ele><time>2026-05-04T11:31:35.001Z</time></trkpt><trkpt lat="41.498262904827925" lon="-0.13648161551917912"><ele>324.0</ele><time>2026-05-04T11:31:36.001Z</time></trkpt><trkpt lat="41.49826332102937" lon="-0.13633428970450895"><ele>324.0</ele><time>2026-05-04T11:31:37.001Z</time></trkpt><trkpt lat="41.49826420094259" lon="-0.13618237723130233"><ele>323.75</ele><time>2026-05-04T11:31:38.001Z</time></trkpt><trkpt lat="41.49827345618886" lon="-0.13603221309383476"><ele>323.5</ele><time>2026-05-04T11:31:39.001Z</time></trkpt><trkpt lat="41.49827854609992" lon="-0.13588159686383386"><ele>323.25</ele><time>2026-05-04T11:31:40.001Z</time></trkpt><trkpt lat="41.498278946037786" lon="-0.13573207525575193"><ele>323.0</ele><time>2026-05-04T11:31:41.001Z</time></trkpt><trkpt lat="41.49827626382721" lon="-0.13558267710304706"><ele>323.0</ele><time>2026-05-04T11:31:42.001Z</time></trkpt><trkpt lat="41.49827582530612" lon="-0.13543266309452429"><ele>323.0</ele><time>2026-05-04T11:31:43.001Z</time></trkpt><trkpt lat="41.498272605766566" lon="-0.13527454014691806"><ele>323.0</ele><time>2026-05-04T11:31:44.001Z</time></trkpt><trkpt lat="41.49827027760745" lon="-0.13512037000162855"><ele>323.0</ele><time>2026-05-04T11:31:45.001Z</time></trkpt><trkpt lat="41.49826321388179" lon="-0.13496425259965314"><ele>323.0</ele><time>2026-05-04T11:31:46.001Z</time></trkpt><trkpt lat="41.498256591912835" lon="-0.13480762300351232"><ele>323.0</ele><time>2026-05-04T11:31:47.001Z</time></trkpt><trkpt lat="41.498227931096395" lon="-0.13465451784811724"><ele>323.0</ele><time>2026-05-04T11:31:48.001Z</time></trkpt><trkpt lat="41.498192518096275" lon="-0.1345097795790894"><ele>323.0</ele><time>2026-05-04T11:31:49.001Z</time></trkpt><trkpt lat="41.4981628500096" lon="-0.1343634884943834"><ele>323.0</ele><time>2026-05-04T11:31:50.001Z</time></trkpt><trkpt lat="41.498129496071236" lon="-0.1342219658091912"><ele>323.0</ele><time>2026-05-04T11:31:51.001Z</time></trkpt><trkpt lat="41.498089866270256" lon="-0.134076509345118"><ele>323.0</ele><time>2026-05-04T11:31:52.001Z</time></trkpt><trkpt lat="41.49801518462232" lon="-0.13393963155594485"><ele>323.0</ele><time>2026-05-04T11:31:53.001Z</time></trkpt><trkpt lat="41.49792906325467" lon="-0.13379782168360962"><ele>323.0</ele><time>2026-05-04T11:31:54.001Z</time></trkpt><trkpt lat="41.49786364816292" lon="-0.13366268352653524"><ele>323.0</ele><time>2026-05-04T11:31:55.001Z</time></trkpt><trkpt lat="41.497837241989124" lon="-0.1335154893747322"><ele>323.0</ele><time>2026-05-04T11:31:56.001Z</time></trkpt><trkpt lat="41.49787044182934" lon="-0.13333792739972752"><ele>323.0</ele><time>2026-05-04T11:31:57.001Z</time></trkpt><trkpt lat="41.497844360624754" lon="-0.13320285007760485"><ele>323.0</ele><time>2026-05-04T11:31:58.001Z</time></trkpt><trkpt lat="41.497811524418815" lon="-0.1330823448372497"><ele>323.0</ele><time>2026-05-04T11:31:59.001Z</time></trkpt><trkpt lat="41.49776132918866" lon="-0.13296017004432517"><ele>323.0</ele><time>2026-05-04T11:32:00.001Z</time></trkpt><trkpt lat="41.49769933506379" lon="-0.13283480869327507"><ele>323.0</ele><time>2026-05-04T11:32:01.001Z</time></trkpt><trkpt lat="41.49768533389432" lon="-0.13269121919124421"><ele>323.0</ele><time>2026-05-04T11:32:02Z</time></trkpt><trkpt lat="41.49764953039107" lon="-0.1325518310683053"><ele>323.0</ele><time>2026-05-04T11:32:03Z</time></trkpt><trkpt lat="41.497610188641936" lon="-0.13241797074685016"><ele>323.0</ele><time>2026-05-04T11:32:04Z</time></trkpt><trkpt lat="41.49756372248221" lon="-0.1322802946628356"><ele>323.0</ele><time>2026-05-04T11:32:05Z</time></trkpt><trkpt lat="41.497525027829035" lon="-0.1321432353891796"><ele>323.0</ele><time>2026-05-04T11:32:06Z</time></trkpt><trkpt lat="41.497490889312566" lon="-0.13200436862729126"><ele>323.0</ele><time>2026-05-04T11:32:07Z</time></trkpt><trkpt lat="41.497455379942515" lon="-0.13186571014743076"><ele>323.4</ele><time>2026-05-04T11:32:08Z</time></trkpt><trkpt lat="41.49741668129411" lon="-0.13172566423044854"><ele>323.79999999999995</ele><time>2026-05-04T11:32:09Z</time></trkpt><trkpt lat="41.49738200737361" lon="-0.13159078275998845"><ele>324.2</ele><time>2026-05-04T11:32:10Z</time></trkpt><trkpt lat="41.49734078040133" lon="-0.13145286793620667"><ele>324.6</ele><time>2026-05-04T11:32:11Z</time></trkpt><trkpt lat="41.4972995577999" lon="-0.13131670504890083"><ele>325.0</ele><time>2026-05-04T11:32:12Z</time></trkpt><trkpt lat="41.497262621157645" lon="-0.13117991806005685"><ele>325.0</ele><time>2026-05-04T11:32:13Z</time></trkpt><trkpt lat="41.49722796408706" lon="-0.13104213106631943"><ele>325.0</ele><time>2026-05-04T11:32:14Z</time></trkpt><trkpt lat="41.497192733361175" lon="-0.1309035139447024"><ele>325.0</ele><time>2026-05-04T11:32:15Z</time></trkpt><trkpt lat="41.497151799820145" lon="-0.13076531788833345"><ele>325.0</ele><time>2026-05-04T11:32:16Z</time></trkpt><trkpt lat="41.49711609623379" lon="-0.130629755751237"><ele>325.0</ele><time>2026-05-04T11:32:17Z</time></trkpt><trkpt lat="41.49707991759626" lon="-0.1304933051050941"><ele>325.0</ele><time>2026-05-04T11:32:18Z</time></trkpt><trkpt lat="41.497041602803456" lon="-0.13035543781691175"><ele>325.0</ele><time>2026-05-04T11:32:19Z</time></trkpt><trkpt lat="41.497006180397975" lon="-0.13021755935810206"><ele>325.0</ele><time>2026-05-04T11:32:20Z</time></trkpt><trkpt lat="41.496971458829634" lon="-0.13008175005519887"><ele>325.0</ele><time>2026-05-04T11:32:21Z</time></trkpt><trkpt lat="41.49693429921414" lon="-0.12994259431339347"><ele>325.0</ele><time>2026-05-04T11:32:22Z</time></trkpt><trkpt lat="41.4968966565731" lon="-0.12980120221437147"><ele>325.0</ele><time>2026-05-04T11:32:23Z</time></trkpt><trkpt lat="41.496864618139796" lon="-0.12966249663965515"><ele>325.0</ele><time>2026-05-04T11:32:24Z</time></trkpt><trkpt lat="41.496835713448945" lon="-0.12951975035579238"><ele>325.0</ele><time>2026-05-04T11:32:25Z</time></trkpt><trkpt lat="41.49680076494217" lon="-0.12937937890197151"><ele>325.0</ele><time>2026-05-04T11:32:26Z</time></trkpt><trkpt lat="41.496769238217986" lon="-0.12923727925697553"><ele>325.0</ele><time>2026-05-04T11:32:27Z</time></trkpt><trkpt lat="41.49671816617463" lon="-0.12910551102859477"><ele>325.0</ele><time>2026-05-04T11:32:28Z</time></trkpt><trkpt lat="41.496640023104554" lon="-0.1289747782795872"><ele>325.0</ele><time>2026-05-04T11:32:29Z</time></trkpt><trkpt lat="41.49664710969102" lon="-0.12881291799341754"><ele>325.0</ele><time>2026-05-04T11:32:30Z</time></trkpt><trkpt lat="41.496602516208476" lon="-0.1286722944806814"><ele>325.0</ele><time>2026-05-04T11:32:31Z</time></trkpt><trkpt lat="41.49656346640967" lon="-0.12853169607574932"><ele>325.0</ele><time>2026-05-04T11:32:32Z</time></trkpt><trkpt lat="41.49653205989122" lon="-0.12838900443478382"><ele>325.0</ele><time>2026-05-04T11:32:33Z</time></trkpt><trkpt lat="41.49649498638173" lon="-0.12824706631382551"><ele>325.0</ele><time>2026-05-04T11:32:34Z</time></trkpt><trkpt lat="41.49645375200093" lon="-0.12810554456355971"><ele>325.0</ele><time>2026-05-04T11:32:35Z</time></trkpt><trkpt lat="41.49641508545947" lon="-0.12796178922731663"><ele>325.25</ele><time>2026-05-04T11:32:36Z</time></trkpt><trkpt lat="41.496378555017465" lon="-0.12781856956965684"><ele>325.5</ele><time>2026-05-04T11:32:37Z</time></trkpt><trkpt lat="41.49633957304294" lon="-0.12767649134450623"><ele>325.75</ele><time>2026-05-04T11:32:38Z</time></trkpt><trkpt lat="41.496295505173094" lon="-0.12753442848197827"><ele>326.0</ele><time>2026-05-04T11:32:39Z</time></trkpt><trkpt lat="41.496257211258545" lon="-0.12738860799280932"><ele>326.0</ele><time>2026-05-04T11:32:40Z</time></trkpt><trkpt lat="41.49621561166948" lon="-0.12724791082584935"><ele>326.0</ele><time>2026-05-04T11:32:41Z</time></trkpt><trkpt lat="41.49617623333255" lon="-0.12710486176589056"><ele>326.0</ele><time>2026-05-04T11:32:42Z</time></trkpt><trkpt lat="41.49613618654099" lon="-0.12696349627296827"><ele>326.0</ele><time>2026-05-04T11:32:43Z</time></trkpt><trkpt lat="41.49609600149728" lon="-0.1268234064710008"><ele>326.0</ele><time>2026-05-04T11:32:44Z</time></trkpt><trkpt lat="41.496058192927876" lon="-0.12668767357322525"><ele>326.0</ele><time>2026-05-04T11:32:45Z</time></trkpt><trkpt lat="41.49602620758656" lon="-0.12655258310831374"><ele>326.0</ele><time>2026-05-04T11:32:46Z</time></trkpt><trkpt lat="41.49599576157009" lon="-0.12641000911375705"><ele>326.0</ele><time>2026-05-04T11:32:47Z</time></trkpt><trkpt lat="41.49597014545276" lon="-0.126267617282932"><ele>326.0</ele><time>2026-05-04T11:32:48Z</time></trkpt><trkpt lat="41.495988548438774" lon="-0.1261098289226303"><ele>325.75</ele><time>2026-05-04T11:32:49Z</time></trkpt><trkpt lat="41.49602484649508" lon="-0.12595693685347992"><ele>325.5</ele><time>2026-05-04T11:32:50Z</time></trkpt><trkpt lat="41.495980060901566" lon="-0.12580390016813364"><ele>325.25</ele><time>2026-05-04T11:32:51Z</time></trkpt><trkpt lat="41.49585844670319" lon="-0.12566533038222047"><ele>325.0</ele><time>2026-05-04T11:32:52Z</time></trkpt><trkpt lat="41.49581916880438" lon="-0.12551395821388975"><ele>325.0</ele><time>2026-05-04T11:32:53Z</time></trkpt><trkpt lat="41.495799268598574" lon="-0.1253597523320127"><ele>325.0</ele><time>2026-05-04T11:32:54Z</time></trkpt><trkpt lat="41.49578072047618" lon="-0.1252052734946108"><ele>325.0</ele><time>2026-05-04T11:32:55Z</time></trkpt><trkpt lat="41.49576569072777" lon="-0.12504987814605523"><ele>325.0</ele><time>2026-05-04T11:32:56.001Z</time></trkpt><trkpt lat="41.4957481308707" lon="-0.12489591898259866"><ele>325.0</ele><time>2026-05-04T11:32:57.001Z</time></trkpt><trkpt lat="41.495718970207065" lon="-0.12474326116169841"><ele>325.0</ele><time>2026-05-04T11:32:58.001Z</time></trkpt><trkpt lat="41.49569600862613" lon="-0.12459222263498053"><ele>325.0</ele><time>2026-05-04T11:32:59.001Z</time></trkpt><trkpt lat="41.49567612598285" lon="-0.12443596616092349"><ele>325.0</ele><time>2026-05-04T11:33:00.001Z</time></trkpt><trkpt lat="41.495654533076696" lon="-0.12428024198580051"><ele>325.0</ele><time>2026-05-04T11:33:01.001Z</time></trkpt><trkpt lat="41.49563290918654" lon="-0.12412442812762191"><ele>325.0</ele><time>2026-05-04T11:33:02.001Z</time></trkpt><trkpt lat="41.495614919250016" lon="-0.12397057678061837"><ele>325.0</ele><time>2026-05-04T11:33:03.001Z</time></trkpt><trkpt lat="41.49559613367088" lon="-0.1238180551561117"><ele>325.0</ele><time>2026-05-04T11:33:04.001Z</time></trkpt><trkpt lat="41.495576419787994" lon="-0.12366647370831191"><ele>324.75</ele><time>2026-05-04T11:33:05.001Z</time></trkpt><trkpt lat="41.495551870762014" lon="-0.12351639213206023"><ele>324.5</ele><time>2026-05-04T11:33:06.001Z</time></trkpt><trkpt lat="41.49552277511932" lon="-0.12336622133544127"><ele>324.25</ele><time>2026-05-04T11:33:07.001Z</time></trkpt><trkpt lat="41.495503677349795" lon="-0.12321513236987991"><ele>324.0</ele><time>2026-05-04T11:33:08.001Z</time></trkpt><trkpt lat="41.49548901298284" lon="-0.1230642292561542"><ele>324.5</ele><time>2026-05-04T11:33:09.001Z</time></trkpt><trkpt lat="41.495473154265014" lon="-0.12291180507615662"><ele>325.0</ele><time>2026-05-04T11:33:10.001Z</time></trkpt><trkpt lat="41.495455090207585" lon="-0.12276049387767829"><ele>325.5</ele><time>2026-05-04T11:33:11.001Z</time></trkpt><trkpt lat="41.495433116242644" lon="-0.1226121672784476"><ele>326.0</ele><time>2026-05-04T11:33:12.001Z</time></trkpt><trkpt lat="41.495412131324805" lon="-0.12246233005576118"><ele>326.25</ele><time>2026-05-04T11:33:13.001Z</time></trkpt><trkpt lat="41.495392359573934" lon="-0.12231194455832912"><ele>326.5</ele><time>2026-05-04T11:33:14.001Z</time></trkpt><trkpt lat="41.49537087410795" lon="-0.12216098832277285"><ele>326.75</ele><time>2026-05-04T11:33:15.001Z</time></trkpt><trkpt lat="41.4953495843752" lon="-0.12201064985351756"><ele>327.0</ele><time>2026-05-04T11:33:16.001Z</time></trkpt><trkpt lat="41.49532722676713" lon="-0.12185881639808802"><ele>327.0</ele><time>2026-05-04T11:33:17.001Z</time></trkpt><trkpt lat="41.49530835155363" lon="-0.12170607781199674"><ele>327.0</ele><time>2026-05-04T11:33:18.001Z</time></trkpt><trkpt lat="41.495286323714275" lon="-0.12155518448202401"><ele>327.0</ele><time>2026-05-04T11:33:19.001Z</time></trkpt><trkpt lat="41.49526393889312" lon="-0.1214020041167222"><ele>327.0</ele><time>2026-05-04T11:33:20.001Z</time></trkpt><trkpt lat="41.495239648063325" lon="-0.12125083237347756"><ele>327.0</ele><time>2026-05-04T11:33:21.001Z</time></trkpt><trkpt lat="41.49521240527726" lon="-0.12110135764363772"><ele>327.0</ele><time>2026-05-04T11:33:22.001Z</time></trkpt><trkpt lat="41.49518399709309" lon="-0.12094601901242735"><ele>327.0</ele><time>2026-05-04T11:33:23.001Z</time></trkpt><trkpt lat="41.49515146349442" lon="-0.120795975571915"><ele>327.0</ele><time>2026-05-04T11:33:24.001Z</time></trkpt><trkpt lat="41.49511823881836" lon="-0.12064658293803601"><ele>326.5</ele><time>2026-05-04T11:33:25.001Z</time></trkpt><trkpt lat="41.49508352983585" lon="-0.12049842540091775"><ele>326.0</ele><time>2026-05-04T11:33:26.001Z</time></trkpt><trkpt lat="41.495046074107286" lon="-0.1203510364331551"><ele>325.5</ele><time>2026-05-04T11:33:27.001Z</time></trkpt><trkpt lat="41.49500550886347" lon="-0.12020655200415048"><ele>325.0</ele><time>2026-05-04T11:33:28.001Z</time></trkpt><trkpt lat="41.49496438752557" lon="-0.12005825597806216"><ele>325.0</ele><time>2026-05-04T11:33:29.001Z</time></trkpt><trkpt lat="41.49492444054399" lon="-0.11990785763443618"><ele>325.0</ele><time>2026-05-04T11:33:30.001Z</time></trkpt><trkpt lat="41.494883780837384" lon="-0.11976077503125017"><ele>325.0</ele><time>2026-05-04T11:33:31.001Z</time></trkpt><trkpt lat="41.49484168560512" lon="-0.11961267360602557"><ele>325.0</ele><time>2026-05-04T11:33:32.001Z</time></trkpt><trkpt lat="41.49479781957502" lon="-0.11946558923056642"><ele>324.25</ele><time>2026-05-04T11:33:33.001Z</time></trkpt><trkpt lat="41.49475590593676" lon="-0.1193186244054635"><ele>323.5</ele><time>2026-05-04T11:33:34.001Z</time></trkpt><trkpt lat="41.49471334747395" lon="-0.11916876094589765"><ele>322.75</ele><time>2026-05-04T11:33:35.001Z</time></trkpt><trkpt lat="41.49467059932967" lon="-0.11902267001028075"><ele>322.0</ele><time>2026-05-04T11:33:36.001Z</time></trkpt><trkpt lat="41.4946316312853" lon="-0.11887026533391144"><ele>321.5</ele><time>2026-05-04T11:33:37.001Z</time></trkpt><trkpt lat="41.49458971863993" lon="-0.1187250780847155"><ele>321.0</ele><time>2026-05-04T11:33:38.001Z</time></trkpt><trkpt lat="41.494546962818916" lon="-0.11857623037959573"><ele>320.5</ele><time>2026-05-04T11:33:39.001Z</time></trkpt><trkpt lat="41.494503408391935" lon="-0.11842874539944596"><ele>320.0</ele><time>2026-05-04T11:33:40.001Z</time></trkpt><trkpt lat="41.49445939832536" lon="-0.11828213812680628"><ele>319.5</ele><time>2026-05-04T11:33:41.001Z</time></trkpt><trkpt lat="41.494420461741626" lon="-0.11812949977147748"><ele>319.0</ele><time>2026-05-04T11:33:42.001Z</time></trkpt><trkpt lat="41.49437820566461" lon="-0.11798440800379058"><ele>318.5</ele><time>2026-05-04T11:33:43.001Z</time></trkpt><trkpt lat="41.494337900666814" lon="-0.11783734881076431"><ele>318.0</ele><time>2026-05-04T11:33:44.001Z</time></trkpt><trkpt lat="41.49429866241648" lon="-0.11769117639603639"><ele>318.0</ele><time>2026-05-04T11:33:45.001Z</time></trkpt><trkpt lat="41.49425757365605" lon="-0.11753790278579321"><ele>318.0</ele><time>2026-05-04T11:33:46.001Z</time></trkpt><trkpt lat="41.49421599053388" lon="-0.11739225423721115"><ele>318.0</ele><time>2026-05-04T11:33:47.001Z</time></trkpt><trkpt lat="41.49417278997225" lon="-0.11724328409864058"><ele>318.0</ele><time>2026-05-04T11:33:48.001Z</time></trkpt><trkpt lat="41.4941309185349" lon="-0.11709807481871133"><ele>317.25</ele><time>2026-05-04T11:33:49.001Z</time></trkpt><trkpt lat="41.49409343572905" lon="-0.11694459584531518"><ele>316.5</ele><time>2026-05-04T11:33:50.001Z</time></trkpt><trkpt lat="41.49405103712942" lon="-0.11680413809051514"><ele>315.75</ele><time>2026-05-04T11:33:51.001Z</time></trkpt><trkpt lat="41.4940107743351" lon="-0.11665666360453723"><ele>315.0</ele><time>2026-05-04T11:33:52.001Z</time></trkpt><trkpt lat="41.4939705949156" lon="-0.11650611127373364"><ele>315.0</ele><time>2026-05-04T11:33:53.001Z</time></trkpt><trkpt lat="41.493927079556244" lon="-0.11635951350377775"><ele>315.0</ele><time>2026-05-04T11:33:54.001Z</time></trkpt><trkpt lat="41.49388546179225" lon="-0.11621976370443032"><ele>315.0</ele><time>2026-05-04T11:33:55.001Z</time></trkpt><trkpt lat="41.49384632581082" lon="-0.11607087952240057"><ele>315.0</ele><time>2026-05-04T11:33:56.001Z</time></trkpt><trkpt lat="41.49380461527646" lon="-0.1159270939119915"><ele>315.0</ele><time>2026-05-04T11:33:57.001Z</time></trkpt><trkpt lat="41.49376310809504" lon="-0.11578490822129463"><ele>315.0</ele><time>2026-05-04T11:33:58.001Z</time></trkpt><trkpt lat="41.493722713511794" lon="-0.1156402694748834"><ele>315.0</ele><time>2026-05-04T11:33:59.001Z</time></trkpt><trkpt lat="41.49367907830931" lon="-0.11549806924696943"><ele>315.0</ele><time>2026-05-04T11:34:00.001Z</time></trkpt><trkpt lat="41.49363814406219" lon="-0.11535418600216109"><ele>315.0</ele><time>2026-05-04T11:34:01.001Z</time></trkpt><trkpt lat="41.49359767883214" lon="-0.11520968014063332"><ele>315.0</ele><time>2026-05-04T11:34:02.001Z</time></trkpt><trkpt lat="41.493560231759766" lon="-0.1150665958989899"><ele>315.0</ele><time>2026-05-04T11:34:03.001Z</time></trkpt><trkpt lat="41.493518989384185" lon="-0.11492632727362989"><ele>315.0</ele><time>2026-05-04T11:34:04.001Z</time></trkpt><trkpt lat="41.493480703649944" lon="-0.11478565452098978"><ele>315.0</ele><time>2026-05-04T11:34:05.001Z</time></trkpt><trkpt lat="41.493442880716856" lon="-0.11464003021462756"><ele>315.0</ele><time>2026-05-04T11:34:06.001Z</time></trkpt><trkpt lat="41.49340339924145" lon="-0.11450936727003577"><ele>315.0</ele><time>2026-05-04T11:34:07.001Z</time></trkpt><trkpt lat="41.49336472912495" lon="-0.11443202716411345"><ele>315.0</ele><time>2026-05-04T11:34:08Z</time></trkpt><trkpt lat="41.49326201323767" lon="-0.11433827427757524"><ele>315.0</ele><time>2026-05-04T11:34:10Z</time></trkpt><trkpt lat="41.493283666477566" lon="-0.1139453888472355"><ele>315.6</ele><time>2026-05-04T11:34:11Z</time></trkpt><trkpt lat="41.49325822309275" lon="-0.11381030185168006"><ele>316.2</ele><time>2026-05-04T11:34:12Z</time></trkpt><trkpt lat="41.49323493840867" lon="-0.11367303362175733"><ele>316.8</ele><time>2026-05-04T11:34:13Z</time></trkpt><trkpt lat="41.49321775761972" lon="-0.11353912044895614"><ele>317.4</ele><time>2026-05-04T11:34:14Z</time></trkpt><trkpt lat="41.49320908447743" lon="-0.11340588915802323"><ele>318.0</ele><time>2026-05-04T11:34:15Z</time></trkpt><trkpt lat="41.49320574516667" lon="-0.11327103204218002"><ele>318.6</ele><time>2026-05-04T11:34:16Z</time></trkpt><trkpt lat="41.49320110810627" lon="-0.11313953441373174"><ele>319.20000000000005</ele><time>2026-05-04T11:34:17Z</time></trkpt><trkpt lat="41.49319803967682" lon="-0.11300485279154308"><ele>319.8</ele><time>2026-05-04T11:34:18Z</time></trkpt><trkpt lat="41.49319847460924" lon="-0.11287622333264538"><ele>320.40000000000003</ele><time>2026-05-04T11:34:19Z</time></trkpt><trkpt lat="41.493196054657595" lon="-0.11274995787543117"><ele>321.0</ele><time>2026-05-04T11:34:20Z</time></trkpt><trkpt lat="41.49319434466055" lon="-0.11262019286691628"><ele>321.0</ele><time>2026-05-04T11:34:21Z</time></trkpt><trkpt lat="41.493191310027285" lon="-0.11249332188963053"><ele>321.0</ele><time>2026-05-04T11:34:22Z</time></trkpt><trkpt lat="41.49319527618178" lon="-0.11236753311376031"><ele>321.0</ele><time>2026-05-04T11:34:23Z</time></trkpt><trkpt lat="41.49319614544059" lon="-0.11223934934974107"><ele>321.0</ele><time>2026-05-04T11:34:24Z</time></trkpt><trkpt lat="41.49320449539943" lon="-0.11211008095139327"><ele>321.0</ele><time>2026-05-04T11:34:25Z</time></trkpt><trkpt lat="41.49320625823306" lon="-0.1119802925126056"><ele>321.8</ele><time>2026-05-04T11:34:26Z</time></trkpt><trkpt lat="41.493208574559425" lon="-0.11184892450256036"><ele>322.6</ele><time>2026-05-04T11:34:27Z</time></trkpt><trkpt lat="41.49321072730784" lon="-0.11171824211965982"><ele>323.4</ele><time>2026-05-04T11:34:28Z</time></trkpt><trkpt lat="41.49321238394508" lon="-0.11158452692275998"><ele>324.2</ele><time>2026-05-04T11:34:29Z</time></trkpt><trkpt lat="41.49321261962356" lon="-0.11145654466505711"><ele>325.0</ele><time>2026-05-04T11:34:30Z</time></trkpt><trkpt lat="41.49321556739964" lon="-0.1113236375868102"><ele>325.0</ele><time>2026-05-04T11:34:31Z</time></trkpt><trkpt lat="41.4932142984483" lon="-0.11119001191471388"><ele>325.0</ele><time>2026-05-04T11:34:32Z</time></trkpt><trkpt lat="41.493216237196435" lon="-0.1110501664896911"><ele>325.0</ele><time>2026-05-04T11:34:33Z</time></trkpt><trkpt lat="41.49322074071308" lon="-0.11091578786563805"><ele>325.0</ele><time>2026-05-04T11:34:34Z</time></trkpt><trkpt lat="41.493221974467865" lon="-0.11077602829396782"><ele>325.0</ele><time>2026-05-04T11:34:35Z</time></trkpt><trkpt lat="41.493225852225216" lon="-0.11063269975310915"><ele>325.2</ele><time>2026-05-04T11:34:36Z</time></trkpt><trkpt lat="41.49322928668355" lon="-0.11049030355788379"><ele>325.4</ele><time>2026-05-04T11:34:37Z</time></trkpt><trkpt lat="41.493235875025434" lon="-0.11034680076158501"><ele>325.6</ele><time>2026-05-04T11:34:38Z</time></trkpt><trkpt lat="41.49324246772175" lon="-0.11019946708441365"><ele>325.8</ele><time>2026-05-04T11:34:39Z</time></trkpt><trkpt lat="41.493246147585836" lon="-0.11005705696435647"><ele>326.0</ele><time>2026-05-04T11:34:40Z</time></trkpt><trkpt lat="41.4932634107127" lon="-0.10992786913752137"><ele>326.25</ele><time>2026-05-04T11:34:41Z</time></trkpt><trkpt lat="41.49326637733443" lon="-0.10980884695182468"><ele>326.5</ele><time>2026-05-04T11:34:42Z</time></trkpt><trkpt lat="41.49326145397687" lon="-0.10961586979027613"><ele>326.75</ele><time>2026-05-04T11:34:43Z</time></trkpt><trkpt lat="41.493256756827115" lon="-0.10946516552939793"><ele>327.0</ele><time>2026-05-04T11:34:44Z</time></trkpt><trkpt lat="41.493256759872665" lon="-0.10930721020669372"><ele>327.0</ele><time>2026-05-04T11:34:45Z</time></trkpt><trkpt lat="41.4932656300814" lon="-0.10918230818611531"><ele>327.0</ele><time>2026-05-04T11:34:46Z</time></trkpt><trkpt lat="41.493290133530664" lon="-0.10903197750889852"><ele>327.0</ele><time>2026-05-04T11:34:48Z</time></trkpt><trkpt lat="41.493293227008486" lon="-0.10891725132086141"><ele>327.0</ele><time>2026-05-04T11:34:49Z</time></trkpt><trkpt lat="41.49328305821847" lon="-0.10842181330207314"><ele>327.0</ele><time>2026-05-04T11:34:51Z</time></trkpt><trkpt lat="41.49328054221693" lon="-0.10826966703483017"><ele>327.0</ele><time>2026-05-04T11:34:52Z</time></trkpt><trkpt lat="41.4932758604327" lon="-0.10812006653746561"><ele>327.0</ele><time>2026-05-04T11:34:53Z</time></trkpt><trkpt lat="41.49327228728625" lon="-0.10796645745109598"><ele>327.0</ele><time>2026-05-04T11:34:54Z</time></trkpt><trkpt lat="41.49326952290888" lon="-0.10782020900701975"><ele>327.0</ele><time>2026-05-04T11:34:55Z</time></trkpt><trkpt lat="41.49325763034871" lon="-0.1076668173085434"><ele>327.0</ele><time>2026-05-04T11:34:56Z</time></trkpt><trkpt lat="41.493243141095704" lon="-0.10751920982365076"><ele>327.0</ele><time>2026-05-04T11:34:57Z</time></trkpt><trkpt lat="41.49323034184884" lon="-0.1073634628409998"><ele>327.0</ele><time>2026-05-04T11:34:58Z</time></trkpt><trkpt lat="41.49321393745634" lon="-0.10721671318129705"><ele>327.0</ele><time>2026-05-04T11:34:59Z</time></trkpt><trkpt lat="41.49319911439376" lon="-0.10706609717433863"><ele>327.0</ele><time>2026-05-04T11:35:00Z</time></trkpt><trkpt lat="41.49318484610445" lon="-0.10691926410242454"><ele>327.0</ele><time>2026-05-04T11:35:01Z</time></trkpt><trkpt lat="41.493168576889644" lon="-0.10676830545846404"><ele>327.0</ele><time>2026-05-04T11:35:02Z</time></trkpt><trkpt lat="41.49315210436636" lon="-0.10661765092322348"><ele>327.25</ele><time>2026-05-04T11:35:03Z</time></trkpt><trkpt lat="41.49313958779462" lon="-0.10646358683456969"><ele>327.5</ele><time>2026-05-04T11:35:04Z</time></trkpt><trkpt lat="41.493124427136465" lon="-0.1063125458571064"><ele>327.75</ele><time>2026-05-04T11:35:05Z</time></trkpt><trkpt lat="41.49310903110188" lon="-0.10615988819844892"><ele>328.0</ele><time>2026-05-04T11:35:06Z</time></trkpt><trkpt lat="41.49309339514939" lon="-0.10600923962122821"><ele>328.0</ele><time>2026-05-04T11:35:07.001Z</time></trkpt><trkpt lat="41.493075297693096" lon="-0.10585566186051543"><ele>328.0</ele><time>2026-05-04T11:35:08.001Z</time></trkpt><trkpt lat="41.4930597785704" lon="-0.10569801162434182"><ele>328.0</ele><time>2026-05-04T11:35:09.001Z</time></trkpt><trkpt lat="41.49304004440415" lon="-0.10554485868419752"><ele>328.0</ele><time>2026-05-04T11:35:10.001Z</time></trkpt><trkpt lat="41.49302439291591" lon="-0.105395254782685"><ele>327.75</ele><time>2026-05-04T11:35:11.001Z</time></trkpt><trkpt lat="41.4930073922241" lon="-0.10523982856988133"><ele>327.5</ele><time>2026-05-04T11:35:12.001Z</time></trkpt><trkpt lat="41.4929928665228" lon="-0.1050902810465369"><ele>327.25</ele><time>2026-05-04T11:35:13.001Z</time></trkpt><trkpt lat="41.492974899270266" lon="-0.10493790598859114"><ele>327.0</ele><time>2026-05-04T11:35:14.001Z</time></trkpt><trkpt lat="41.49296215814518" lon="-0.10478520411509232"><ele>327.0</ele><time>2026-05-04T11:35:15.001Z</time></trkpt><trkpt lat="41.49294640244121" lon="-0.10463255009081202"><ele>327.0</ele><time>2026-05-04T11:35:16.001Z</time></trkpt><trkpt lat="41.49292667522171" lon="-0.10447955433323426"><ele>327.0</ele><time>2026-05-04T11:35:17.001Z</time></trkpt><trkpt lat="41.492904434403385" lon="-0.10432868858562383"><ele>327.0</ele><time>2026-05-04T11:35:18.001Z</time></trkpt><trkpt lat="41.492887577019964" lon="-0.10417553516271426"><ele>327.0</ele><time>2026-05-04T11:35:19.001Z</time></trkpt><trkpt lat="41.49287097250894" lon="-0.10402370736398761"><ele>327.0</ele><time>2026-05-04T11:35:20.001Z</time></trkpt><trkpt lat="41.492854514896656" lon="-0.1038718286810804"><ele>327.0</ele><time>2026-05-04T11:35:21.001Z</time></trkpt><trkpt lat="41.492841632274136" lon="-0.10371958146134738"><ele>327.0</ele><time>2026-05-04T11:35:22.001Z</time></trkpt><trkpt lat="41.492825738827094" lon="-0.10356717834187626"><ele>327.0</ele><time>2026-05-04T11:35:23.001Z</time></trkpt><trkpt lat="41.49280839543243" lon="-0.10341721189423103"><ele>327.0</ele><time>2026-05-04T11:35:24.001Z</time></trkpt><trkpt lat="41.492789263389795" lon="-0.10326655215939157"><ele>327.0</ele><time>2026-05-04T11:35:25.001Z</time></trkpt><trkpt lat="41.49277797559747" lon="-0.10311548588023475"><ele>327.0</ele><time>2026-05-04T11:35:26.001Z</time></trkpt><trkpt lat="41.49276021488941" lon="-0.10296544438726442"><ele>326.75</ele><time>2026-05-04T11:35:27.001Z</time></trkpt><trkpt lat="41.49274815744871" lon="-0.10281404222786378"><ele>326.5</ele><time>2026-05-04T11:35:28.001Z</time></trkpt><trkpt lat="41.49273069401974" lon="-0.10266411300370656"><ele>326.25</ele><time>2026-05-04T11:35:29.001Z</time></trkpt><trkpt lat="41.49271554600748" lon="-0.102513090303209"><ele>326.0</ele><time>2026-05-04T11:35:30.001Z</time></trkpt><trkpt lat="41.492698825850646" lon="-0.1023635892029372"><ele>326.0</ele><time>2026-05-04T11:35:31.001Z</time></trkpt><trkpt lat="41.49268343502101" lon="-0.10222067817756485"><ele>326.0</ele><time>2026-05-04T11:35:32.001Z</time></trkpt><trkpt lat="41.49266704083282" lon="-0.10206985297796299"><ele>326.0</ele><time>2026-05-04T11:35:33.001Z</time></trkpt><trkpt lat="41.4926486313039" lon="-0.10192009858508476"><ele>326.0</ele><time>2026-05-04T11:35:34.001Z</time></trkpt><trkpt lat="41.49263190475125" lon="-0.10177219595485847"><ele>326.0</ele><time>2026-05-04T11:35:35.001Z</time></trkpt><trkpt lat="41.49261952721768" lon="-0.10162474407401564"><ele>326.0</ele><time>2026-05-04T11:35:36.001Z</time></trkpt><trkpt lat="41.49260330429265" lon="-0.10147200146236757"><ele>326.0</ele><time>2026-05-04T11:35:37.001Z</time></trkpt><trkpt lat="41.49258494668272" lon="-0.10132030673006867"><ele>326.0</ele><time>2026-05-04T11:35:38.001Z</time></trkpt><trkpt lat="41.49257225535393" lon="-0.101167860042061"><ele>326.0</ele><time>2026-05-04T11:35:39.001Z</time></trkpt><trkpt lat="41.492555845848464" lon="-0.10101542569959389"><ele>326.0</ele><time>2026-05-04T11:35:40.001Z</time></trkpt><trkpt lat="41.49253931183821" lon="-0.10086264807481872"><ele>326.0</ele><time>2026-05-04T11:35:41.001Z</time></trkpt><trkpt lat="41.49252261448151" lon="-0.10070649910601162"><ele>326.0</ele><time>2026-05-04T11:35:42.001Z</time></trkpt><trkpt lat="41.492506864137674" lon="-0.10055454472638682"><ele>326.0</ele><time>2026-05-04T11:35:43.001Z</time></trkpt><trkpt lat="41.492491910404446" lon="-0.10040416434494309"><ele>326.0</ele><time>2026-05-04T11:35:44.001Z</time></trkpt><trkpt lat="41.492473538568625" lon="-0.10025133442485036"><ele>326.0</ele><time>2026-05-04T11:35:45.001Z</time></trkpt><trkpt lat="41.49245958902588" lon="-0.1000994568315735"><ele>326.0</ele><time>2026-05-04T11:35:46.001Z</time></trkpt><trkpt lat="41.49244471708847" lon="-0.09994697321474487"><ele>326.0</ele><time>2026-05-04T11:35:47.001Z</time></trkpt><trkpt lat="41.49242829580777" lon="-0.09979569552407487"><ele>325.75</ele><time>2026-05-04T11:35:48.001Z</time></trkpt><trkpt lat="41.492407243736736" lon="-0.09964221393340278"><ele>325.5</ele><time>2026-05-04T11:35:49.001Z</time></trkpt><trkpt lat="41.4923886450449" lon="-0.09949470264997207"><ele>325.25</ele><time>2026-05-04T11:35:50.001Z</time></trkpt><trkpt lat="41.49237517822755" lon="-0.09934178507237257"><ele>325.0</ele><time>2026-05-04T11:35:51.001Z</time></trkpt><trkpt lat="41.492360648055886" lon="-0.09919161540638351"><ele>324.6</ele><time>2026-05-04T11:35:52.001Z</time></trkpt><trkpt lat="41.49234702185221" lon="-0.09904250807464447"><ele>324.2</ele><time>2026-05-04T11:35:53.001Z</time></trkpt><trkpt lat="41.49233045413835" lon="-0.09889232770467266"><ele>323.79999999999995</ele><time>2026-05-04T11:35:54.001Z</time></trkpt><trkpt lat="41.49231718561732" lon="-0.0987354936311363"><ele>323.4</ele><time>2026-05-04T11:35:55.001Z</time></trkpt><trkpt lat="41.492301346593116" lon="-0.09860861573208841"><ele>323.0</ele><time>2026-05-04T11:35:56.001Z</time></trkpt><trkpt lat="41.49225830112295" lon="-0.09847317697785132"><ele>323.33333333333337</ele><time>2026-05-04T11:35:58.001Z</time></trkpt><trkpt lat="41.49225094839256" lon="-0.0981437986454142"><ele>323.6666666666667</ele><time>2026-05-04T11:35:59.001Z</time></trkpt><trkpt lat="41.49223406528569" lon="-0.09800243558456218"><ele>324.0</ele><time>2026-05-04T11:36:00.001Z</time></trkpt><trkpt lat="41.49221703328068" lon="-0.0978500915710918"><ele>324.0</ele><time>2026-05-04T11:36:01.001Z</time></trkpt><trkpt lat="41.49220277159913" lon="-0.09769843702814864"><ele>324.0</ele><time>2026-05-04T11:36:02.001Z</time></trkpt><trkpt lat="41.49218917344581" lon="-0.09754933462025119"><ele>324.0</ele><time>2026-05-04T11:36:03.001Z</time></trkpt><trkpt lat="41.49217176936487" lon="-0.09740154618651123"><ele>324.0</ele><time>2026-05-04T11:36:04.001Z</time></trkpt><trkpt lat="41.49215782861712" lon="-0.09724997304511558"><ele>324.2</ele><time>2026-05-04T11:36:05.001Z</time></trkpt><trkpt lat="41.492145925018214" lon="-0.09710479728783303"><ele>324.4</ele><time>2026-05-04T11:36:06.001Z</time></trkpt><trkpt lat="41.492122444534715" lon="-0.09695629737445066"><ele>324.6</ele><time>2026-05-04T11:36:07.001Z</time></trkpt><trkpt lat="41.492104075901416" lon="-0.09680674540365501"><ele>324.8</ele><time>2026-05-04T11:36:08.001Z</time></trkpt><trkpt lat="41.49208872154444" lon="-0.09666259353243487"><ele>325.0</ele><time>2026-05-04T11:36:09.001Z</time></trkpt><trkpt lat="41.492070158451824" lon="-0.09651533496952427"><ele>325.25</ele><time>2026-05-04T11:36:10.001Z</time></trkpt><trkpt lat="41.49205505981872" lon="-0.09636705074225328"><ele>325.5</ele><time>2026-05-04T11:36:11.001Z</time></trkpt><trkpt lat="41.492039943322" lon="-0.09621242451167182"><ele>325.75</ele><time>2026-05-04T11:36:12.001Z</time></trkpt><trkpt lat="41.49202593920244" lon="-0.09606017842321715"><ele>326.0</ele><time>2026-05-04T11:36:13.001Z</time></trkpt><trkpt lat="41.49201024295189" lon="-0.09591351829918755"><ele>326.0</ele><time>2026-05-04T11:36:14Z</time></trkpt><trkpt lat="41.491992788229965" lon="-0.095764393114205"><ele>326.0</ele><time>2026-05-04T11:36:15Z</time></trkpt><trkpt lat="41.49197686048851" lon="-0.09561232896956734"><ele>326.0</ele><time>2026-05-04T11:36:16Z</time></trkpt><trkpt lat="41.491961814051066" lon="-0.09546133450307386"><ele>326.0</ele><time>2026-05-04T11:36:17Z</time></trkpt><trkpt lat="41.49194928571837" lon="-0.09530368348904139"><ele>325.75</ele><time>2026-05-04T11:36:18Z</time></trkpt><trkpt lat="41.49193864062351" lon="-0.09515419755382583"><ele>325.5</ele><time>2026-05-04T11:36:19Z</time></trkpt><trkpt lat="41.49193407771552" lon="-0.09500035854311359"><ele>325.25</ele><time>2026-05-04T11:36:20Z</time></trkpt><trkpt lat="41.49192719806998" lon="-0.09484551439950487"><ele>325.0</ele><time>2026-05-04T11:36:21Z</time></trkpt><trkpt lat="41.491930926882446" lon="-0.09468736252395689"><ele>324.75</ele><time>2026-05-04T11:36:22Z</time></trkpt><trkpt lat="41.49194215740426" lon="-0.09453210108062186"><ele>324.5</ele><time>2026-05-04T11:36:23Z</time></trkpt><trkpt lat="41.49196240573377" lon="-0.0943734156985715"><ele>324.25</ele><time>2026-05-04T11:36:24Z</time></trkpt><trkpt lat="41.491983989375306" lon="-0.0942213109898032"><ele>324.0</ele><time>2026-05-04T11:36:25Z</time></trkpt><trkpt lat="41.49201369139195" lon="-0.09406874372470254"><ele>323.5</ele><time>2026-05-04T11:36:26Z</time></trkpt><trkpt lat="41.49204120768447" lon="-0.09391375362630368"><ele>323.0</ele><time>2026-05-04T11:36:27Z</time></trkpt><trkpt lat="41.492075028949436" lon="-0.09375842169475893"><ele>322.5</ele><time>2026-05-04T11:36:28Z</time></trkpt><trkpt lat="41.4921050957838" lon="-0.0936004358161701"><ele>322.0</ele><time>2026-05-04T11:36:29Z</time></trkpt><trkpt lat="41.49213698982821" lon="-0.09344388371819966"><ele>322.0</ele><time>2026-05-04T11:36:30Z</time></trkpt><trkpt lat="41.492157726546665" lon="-0.09328182499363219"><ele>322.0</ele><time>2026-05-04T11:36:31Z</time></trkpt><trkpt lat="41.49219343577892" lon="-0.09312896633240977"><ele>322.0</ele><time>2026-05-04T11:36:32Z</time></trkpt><trkpt lat="41.49222231593497" lon="-0.09297416588458968"><ele>322.0</ele><time>2026-05-04T11:36:33Z</time></trkpt><trkpt lat="41.49225262371221" lon="-0.09282298960706235"><ele>321.5</ele><time>2026-05-04T11:36:34Z</time></trkpt><trkpt lat="41.49228567076911" lon="-0.09266850559332376"><ele>321.0</ele><time>2026-05-04T11:36:35Z</time></trkpt><trkpt lat="41.49231098810908" lon="-0.09251569544557682"><ele>320.5</ele><time>2026-05-04T11:36:36Z</time></trkpt><trkpt lat="41.49234384316269" lon="-0.09236340041141164"><ele>320.0</ele><time>2026-05-04T11:36:37Z</time></trkpt><trkpt lat="41.49237626677041" lon="-0.09220952343031202"><ele>319.0</ele><time>2026-05-04T11:36:38Z</time></trkpt><trkpt lat="41.49240416655546" lon="-0.09205970513815656"><ele>318.0</ele><time>2026-05-04T11:36:39Z</time></trkpt><trkpt lat="41.49243777654794" lon="-0.09190884427617955"><ele>317.0</ele><time>2026-05-04T11:36:40Z</time></trkpt><trkpt lat="41.49246815480889" lon="-0.09176208933578987"><ele>316.0</ele><time>2026-05-04T11:36:41Z</time></trkpt><trkpt lat="41.49249965206928" lon="-0.09161519564041799"><ele>315.0</ele><time>2026-05-04T11:36:42Z</time></trkpt><trkpt lat="41.492533727080676" lon="-0.09146667050626367"><ele>314.0</ele><time>2026-05-04T11:36:43Z</time></trkpt><trkpt lat="41.4925744615645" lon="-0.0913241978407932"><ele>313.0</ele><time>2026-05-04T11:36:44Z</time></trkpt><trkpt lat="41.49262834346975" lon="-0.09118689855910124"><ele>312.0</ele><time>2026-05-04T11:36:45Z</time></trkpt><trkpt lat="41.492677449341826" lon="-0.09104318664378755"><ele>312.0</ele><time>2026-05-04T11:36:46Z</time></trkpt><trkpt lat="41.49272036768322" lon="-0.09090200212734448"><ele>312.0</ele><time>2026-05-04T11:36:47Z</time></trkpt><trkpt lat="41.492766476155246" lon="-0.09075696763646718"><ele>312.0</ele><time>2026-05-04T11:36:48Z</time></trkpt><trkpt lat="41.49282042299598" lon="-0.0906156905259269"><ele>312.0</ele><time>2026-05-04T11:36:49Z</time></trkpt><trkpt lat="41.49287248207773" lon="-0.09047884913073667"><ele>310.75</ele><time>2026-05-04T11:36:50Z</time></trkpt><trkpt lat="41.49292832407764" lon="-0.09034215395675514"><ele>309.5</ele><time>2026-05-04T11:36:51Z</time></trkpt><trkpt lat="41.49298246283313" lon="-0.09019941419078191"><ele>308.25</ele><time>2026-05-04T11:36:52Z</time></trkpt><trkpt lat="41.493036811601016" lon="-0.09005865298485763"><ele>307.0</ele><time>2026-05-04T11:36:53Z</time></trkpt><trkpt lat="41.493090220492014" lon="-0.08990904641529862"><ele>306.0</ele><time>2026-05-04T11:36:54Z</time></trkpt><trkpt lat="41.49313325895778" lon="-0.0897578545626922"><ele>305.0</ele><time>2026-05-04T11:36:55Z</time></trkpt><trkpt lat="41.49317042201186" lon="-0.0896018429271594"><ele>304.0</ele><time>2026-05-04T11:36:56Z</time></trkpt><trkpt lat="41.49320129227527" lon="-0.08944190517029774"><ele>303.0</ele><time>2026-05-04T11:36:57Z</time></trkpt><trkpt lat="41.49322872423905" lon="-0.08928579417705457"><ele>303.0</ele><time>2026-05-04T11:36:58Z</time></trkpt><trkpt lat="41.49325271038073" lon="-0.08912731348664515"><ele>303.0</ele><time>2026-05-04T11:36:59Z</time></trkpt><trkpt lat="41.49326830162124" lon="-0.0889708630193045"><ele>303.0</ele><time>2026-05-04T11:37:00Z</time></trkpt><trkpt lat="41.49328769304974" lon="-0.0888137390601843"><ele>303.0</ele><time>2026-05-04T11:37:01Z</time></trkpt><trkpt lat="41.493307971862485" lon="-0.08865491244015118"><ele>303.0</ele><time>2026-05-04T11:37:02Z</time></trkpt><trkpt lat="41.49332891756483" lon="-0.08849961567468667"><ele>303.0</ele><time>2026-05-04T11:37:03Z</time></trkpt><trkpt lat="41.4933470631488" lon="-0.08834144596762351"><ele>303.0</ele><time>2026-05-04T11:37:04Z</time></trkpt><trkpt lat="41.49336839918476" lon="-0.08818591823543885"><ele>303.0</ele><time>2026-05-04T11:37:05Z</time></trkpt><trkpt lat="41.49338521483657" lon="-0.08803326168095006"><ele>303.0</ele><time>2026-05-04T11:37:06.001Z</time></trkpt><trkpt lat="41.49340054612583" lon="-0.08787809183910834"><ele>303.0</ele><time>2026-05-04T11:37:07.001Z</time></trkpt><trkpt lat="41.49341983134548" lon="-0.08771851722103235"><ele>303.0</ele><time>2026-05-04T11:37:08.001Z</time></trkpt><trkpt lat="41.493436208592236" lon="-0.08756048915974093"><ele>303.0</ele><time>2026-05-04T11:37:09.001Z</time></trkpt><trkpt lat="41.49344484485191" lon="-0.08740776580573423"><ele>302.5</ele><time>2026-05-04T11:37:10.001Z</time></trkpt><trkpt lat="41.49346256145746" lon="-0.08724768064176074"><ele>302.0</ele><time>2026-05-04T11:37:11.001Z</time></trkpt><trkpt lat="41.49348566466367" lon="-0.08708894265103317"><ele>301.5</ele><time>2026-05-04T11:37:12.001Z</time></trkpt><trkpt lat="41.493501005887914" lon="-0.08693620581970787"><ele>301.0</ele><time>2026-05-04T11:37:13.001Z</time></trkpt><trkpt lat="41.49351283414704" lon="-0.08678385280859291"><ele>301.0</ele><time>2026-05-04T11:37:14.001Z</time></trkpt><trkpt lat="41.49353103877232" lon="-0.08662591668056982"><ele>301.0</ele><time>2026-05-04T11:37:15.001Z</time></trkpt><trkpt lat="41.49354830959023" lon="-0.0864701199003487"><ele>301.0</ele><time>2026-05-04T11:37:16.001Z</time></trkpt><trkpt lat="41.49356712055729" lon="-0.08631925091371197"><ele>301.0</ele><time>2026-05-04T11:37:17.001Z</time></trkpt><trkpt lat="41.493583000517226" lon="-0.08616354262877958"><ele>300.75</ele><time>2026-05-04T11:37:18.001Z</time></trkpt><trkpt lat="41.49360072550633" lon="-0.08600890287701021"><ele>300.5</ele><time>2026-05-04T11:37:19.001Z</time></trkpt><trkpt lat="41.49361653426212" lon="-0.08585540618123186"><ele>300.25</ele><time>2026-05-04T11:37:20.001Z</time></trkpt><trkpt lat="41.49363330115487" lon="-0.08569994501626438"><ele>300.0</ele><time>2026-05-04T11:37:21.001Z</time></trkpt><trkpt lat="41.493651131131955" lon="-0.08554585240061005"><ele>300.75</ele><time>2026-05-04T11:37:22.001Z</time></trkpt><trkpt lat="41.493666575104434" lon="-0.08539166395714368"><ele>301.5</ele><time>2026-05-04T11:37:23.001Z</time></trkpt><trkpt lat="41.49368279525499" lon="-0.08523840873193292"><ele>302.25</ele><time>2026-05-04T11:37:24.001Z</time></trkpt><trkpt lat="41.4936976941599" lon="-0.08508407174159387"><ele>303.0</ele><time>2026-05-04T11:37:25.001Z</time></trkpt><trkpt lat="41.49371195678111" lon="-0.08492921560305884"><ele>303.0</ele><time>2026-05-04T11:37:26.001Z</time></trkpt><trkpt lat="41.49372833399942" lon="-0.08477422223877273"><ele>303.0</ele><time>2026-05-04T11:37:27.001Z</time></trkpt><trkpt lat="41.493747137602334" lon="-0.0846155386239063"><ele>303.0</ele><time>2026-05-04T11:37:28.001Z</time></trkpt><trkpt lat="41.49376149525002" lon="-0.08446440565293833"><ele>303.0</ele><time>2026-05-04T11:37:29.001Z</time></trkpt><trkpt lat="41.49378239632413" lon="-0.08430926883874604"><ele>300.75</ele><time>2026-05-04T11:37:30.001Z</time></trkpt><trkpt lat="41.49380116880394" lon="-0.08415276151420309"><ele>298.5</ele><time>2026-05-04T11:37:31.001Z</time></trkpt><trkpt lat="41.49381192183255" lon="-0.08400479498599987"><ele>296.25</ele><time>2026-05-04T11:37:32.001Z</time></trkpt><trkpt lat="41.493830151031176" lon="-0.0838524322836607"><ele>294.0</ele><time>2026-05-04T11:37:33.001Z</time></trkpt><trkpt lat="41.49385184770811" lon="-0.08369488634617027"><ele>294.0</ele><time>2026-05-04T11:37:34.001Z</time></trkpt><trkpt lat="41.49386850414212" lon="-0.08354131963036877"><ele>294.0</ele><time>2026-05-04T11:37:35.001Z</time></trkpt><trkpt lat="41.49388360568477" lon="-0.08339028163834225"><ele>294.0</ele><time>2026-05-04T11:37:36.001Z</time></trkpt><trkpt lat="41.49390086182035" lon="-0.08323621074458251"><ele>294.0</ele><time>2026-05-04T11:37:37.001Z</time></trkpt><trkpt lat="41.493922669072376" lon="-0.08308524946333791"><ele>294.0</ele><time>2026-05-04T11:37:38.001Z</time></trkpt><trkpt lat="41.49393779076296" lon="-0.08292872125695182"><ele>294.0</ele><time>2026-05-04T11:37:39.001Z</time></trkpt><trkpt lat="41.4939569593537" lon="-0.082772787887399"><ele>294.0</ele><time>2026-05-04T11:37:40.001Z</time></trkpt><trkpt lat="41.49397444706853" lon="-0.08261719115547576"><ele>294.0</ele><time>2026-05-04T11:37:41.001Z</time></trkpt><trkpt lat="41.493992487853596" lon="-0.0824644780530263"><ele>293.75</ele><time>2026-05-04T11:37:42.001Z</time></trkpt><trkpt lat="41.494011890336516" lon="-0.08230522339902233"><ele>293.5</ele><time>2026-05-04T11:37:43.001Z</time></trkpt><trkpt lat="41.49403356627342" lon="-0.08214596379350865"><ele>293.25</ele><time>2026-05-04T11:37:44.001Z</time></trkpt><trkpt lat="41.49404924219149" lon="-0.08199210859920393"><ele>293.0</ele><time>2026-05-04T11:37:45.001Z</time></trkpt><trkpt lat="41.49408299818466" lon="-0.08184668263888298"><ele>293.0</ele><time>2026-05-04T11:37:46.001Z</time></trkpt><trkpt lat="41.4940910145899" lon="-0.0816739691282192"><ele>293.0</ele><time>2026-05-04T11:37:47.001Z</time></trkpt><trkpt lat="41.49410804049194" lon="-0.0815176139890638"><ele>293.0</ele><time>2026-05-04T11:37:48.001Z</time></trkpt><trkpt lat="41.494125962065105" lon="-0.08136441409290895"><ele>293.0</ele><time>2026-05-04T11:37:49.001Z</time></trkpt><trkpt lat="41.494145825191055" lon="-0.08121291706842998"><ele>292.5</ele><time>2026-05-04T11:37:50.001Z</time></trkpt><trkpt lat="41.494167650799106" lon="-0.08105240432226195"><ele>292.0</ele><time>2026-05-04T11:37:51.001Z</time></trkpt><trkpt lat="41.49418428696339" lon="-0.08089772400629139"><ele>291.5</ele><time>2026-05-04T11:37:52.001Z</time></trkpt><trkpt lat="41.494197655245664" lon="-0.0807435204146738"><ele>291.0</ele><time>2026-05-04T11:37:53.001Z</time></trkpt><trkpt lat="41.49421771637905" lon="-0.08058307842715154"><ele>291.0</ele><time>2026-05-04T11:37:54.001Z</time></trkpt><trkpt lat="41.49423675626024" lon="-0.08042193100971334"><ele>291.0</ele><time>2026-05-04T11:37:55.001Z</time></trkpt><trkpt lat="41.49425501734314" lon="-0.08026373288976042"><ele>291.0</ele><time>2026-05-04T11:37:56.001Z</time></trkpt><trkpt lat="41.494274614553305" lon="-0.08010917386419304"><ele>291.0</ele><time>2026-05-04T11:37:57.001Z</time></trkpt><trkpt lat="41.49429527792441" lon="-0.07994944567558593"><ele>290.75</ele><time>2026-05-04T11:37:58.001Z</time></trkpt><trkpt lat="41.494312844958344" lon="-0.0797899324439096"><ele>290.5</ele><time>2026-05-04T11:37:59.001Z</time></trkpt><trkpt lat="41.494330049027695" lon="-0.07962973628202721"><ele>290.25</ele><time>2026-05-04T11:38:00.001Z</time></trkpt><trkpt lat="41.49434500258041" lon="-0.07947343069323977"><ele>290.0</ele><time>2026-05-04T11:38:01.001Z</time></trkpt><trkpt lat="41.49436152269578" lon="-0.07931353570862118"><ele>290.0</ele><time>2026-05-04T11:38:02.001Z</time></trkpt><trkpt lat="41.49438016847593" lon="-0.0791578267459742"><ele>290.0</ele><time>2026-05-04T11:38:03.001Z</time></trkpt><trkpt lat="41.49439774054679" lon="-0.07900019288391545"><ele>290.0</ele><time>2026-05-04T11:38:04.001Z</time></trkpt><trkpt lat="41.494419266523316" lon="-0.07884733843238324"><ele>290.0</ele><time>2026-05-04T11:38:05.001Z</time></trkpt><trkpt lat="41.49444164134972" lon="-0.07868881498996812"><ele>290.0</ele><time>2026-05-04T11:38:06.001Z</time></trkpt><trkpt lat="41.49446430502939" lon="-0.07853067329634525"><ele>290.0</ele><time>2026-05-04T11:38:07.001Z</time></trkpt><trkpt lat="41.494488054156214" lon="-0.07837791256500176"><ele>290.0</ele><time>2026-05-04T11:38:08.001Z</time></trkpt><trkpt lat="41.49451176256525" lon="-0.0782211212679038"><ele>290.0</ele><time>2026-05-04T11:38:09.001Z</time></trkpt><trkpt lat="41.49453567607247" lon="-0.07807095257581152"><ele>289.75</ele><time>2026-05-04T11:38:10.001Z</time></trkpt><trkpt lat="41.494561302026085" lon="-0.07791820465837397"><ele>289.5</ele><time>2026-05-04T11:38:11.001Z</time></trkpt><trkpt lat="41.49458750426652" lon="-0.07776901708167439"><ele>289.25</ele><time>2026-05-04T11:38:12.001Z</time></trkpt><trkpt lat="41.49461784196421" lon="-0.07761826541022929"><ele>289.0</ele><time>2026-05-04T11:38:13.001Z</time></trkpt><trkpt lat="41.49464360258798" lon="-0.07746498720978374"><ele>289.25</ele><time>2026-05-04T11:38:14.001Z</time></trkpt><trkpt lat="41.49467187338164" lon="-0.07731495208406917"><ele>289.5</ele><time>2026-05-04T11:38:15.001Z</time></trkpt><trkpt lat="41.49470100680207" lon="-0.07716605212729298"><ele>289.75</ele><time>2026-05-04T11:38:16.001Z</time></trkpt><trkpt lat="41.494731716745" lon="-0.07701499736073479"><ele>290.0</ele><time>2026-05-04T11:38:17.001Z</time></trkpt><trkpt lat="41.49475836690243" lon="-0.07686534100304233"><ele>290.0</ele><time>2026-05-04T11:38:18.001Z</time></trkpt><trkpt lat="41.494789247612076" lon="-0.07671519470509912"><ele>290.0</ele><time>2026-05-04T11:38:19.001Z</time></trkpt><trkpt lat="41.49482054925645" lon="-0.07656278568749761"><ele>290.0</ele><time>2026-05-04T11:38:20Z</time></trkpt><trkpt lat="41.494850048124576" lon="-0.07641311598172705"><ele>290.0</ele><time>2026-05-04T11:38:21Z</time></trkpt><trkpt lat="41.49488093511405" lon="-0.07626104875765524"><ele>290.0</ele><time>2026-05-04T11:38:22Z</time></trkpt><trkpt lat="41.49490916815716" lon="-0.07610897922869178"><ele>290.0</ele><time>2026-05-04T11:38:23Z</time></trkpt><trkpt lat="41.49493414706933" lon="-0.07595737176417564"><ele>290.0</ele><time>2026-05-04T11:38:24Z</time></trkpt><trkpt lat="41.494955355941535" lon="-0.07580398877725522"><ele>290.0</ele><time>2026-05-04T11:38:25Z</time></trkpt><trkpt lat="41.4949796083455" lon="-0.07564692255295044"><ele>290.0</ele><time>2026-05-04T11:38:26Z</time></trkpt><trkpt lat="41.494992930052284" lon="-0.07549297490366336"><ele>290.0</ele><time>2026-05-04T11:38:27Z</time></trkpt><trkpt lat="41.4950057703836" lon="-0.07533923880452854"><ele>290.0</ele><time>2026-05-04T11:38:28Z</time></trkpt><trkpt lat="41.495014646405885" lon="-0.07518161310944017"><ele>290.0</ele><time>2026-05-04T11:38:29Z</time></trkpt><trkpt lat="41.49501842181029" lon="-0.07502916233770837"><ele>289.5</ele><time>2026-05-04T11:38:30Z</time></trkpt><trkpt lat="41.49502252651035" lon="-0.07487247646038883"><ele>289.0</ele><time>2026-05-04T11:38:31Z</time></trkpt><trkpt lat="41.4950201698702" lon="-0.07471531188445352"><ele>288.5</ele><time>2026-05-04T11:38:32Z</time></trkpt><trkpt lat="41.495010956212845" lon="-0.07456270326461244"><ele>288.0</ele><time>2026-05-04T11:38:33Z</time></trkpt><trkpt lat="41.49500129231637" lon="-0.07440967518420909"><ele>288.0</ele><time>2026-05-04T11:38:34Z</time></trkpt><trkpt lat="41.49498395672078" lon="-0.07425411816768059"><ele>288.0</ele><time>2026-05-04T11:38:35Z</time></trkpt><trkpt lat="41.49496420898851" lon="-0.07410139352109862"><ele>288.0</ele><time>2026-05-04T11:38:36Z</time></trkpt><trkpt lat="41.49494329776084" lon="-0.07394930092848488"><ele>288.0</ele><time>2026-05-04T11:38:37Z</time></trkpt><trkpt lat="41.494919130519584" lon="-0.07380003894236072"><ele>287.25</ele><time>2026-05-04T11:38:38Z</time></trkpt><trkpt lat="41.494889262806176" lon="-0.07365335070574863"><ele>286.5</ele><time>2026-05-04T11:38:39Z</time></trkpt><trkpt lat="41.49485645868968" lon="-0.07350408824260553"><ele>285.75</ele><time>2026-05-04T11:38:40Z</time></trkpt><trkpt lat="41.49481677340689" lon="-0.07335763484089586"><ele>285.0</ele><time>2026-05-04T11:38:41Z</time></trkpt><trkpt lat="41.49477592463875" lon="-0.07321499443173997"><ele>284.5</ele><time>2026-05-04T11:38:42Z</time></trkpt><trkpt lat="41.494736169531876" lon="-0.07306594938076655"><ele>284.0</ele><time>2026-05-04T11:38:43Z</time></trkpt><trkpt lat="41.49469463537849" lon="-0.07291892794756563"><ele>283.5</ele><time>2026-05-04T11:38:44Z</time></trkpt><trkpt lat="41.49465359312579" lon="-0.0727729774080579"><ele>283.0</ele><time>2026-05-04T11:38:45Z</time></trkpt><trkpt lat="41.49461253561421" lon="-0.0726282719160172"><ele>283.25</ele><time>2026-05-04T11:38:46Z</time></trkpt><trkpt lat="41.494572260452706" lon="-0.07248328976756876"><ele>283.5</ele><time>2026-05-04T11:38:47Z</time></trkpt><trkpt lat="41.494529394849096" lon="-0.07233556931874646"><ele>283.75</ele><time>2026-05-04T11:38:48Z</time></trkpt><trkpt lat="41.49448886219783" lon="-0.07218739266436369"><ele>284.0</ele><time>2026-05-04T11:38:49Z</time></trkpt><trkpt lat="41.494447395183805" lon="-0.07203945303003007"><ele>284.0</ele><time>2026-05-04T11:38:50Z</time></trkpt><trkpt lat="41.494408463222065" lon="-0.0718952585639658"><ele>284.0</ele><time>2026-05-04T11:38:51Z</time></trkpt><trkpt lat="41.49436732190951" lon="-0.07174884618183429"><ele>284.0</ele><time>2026-05-04T11:38:52Z</time></trkpt><trkpt lat="41.49432965737714" lon="-0.07160146604298297"><ele>284.0</ele><time>2026-05-04T11:38:53Z</time></trkpt><trkpt lat="41.494291987495316" lon="-0.07145269437805087"><ele>284.5</ele><time>2026-05-04T11:38:54Z</time></trkpt><trkpt lat="41.49425643862" lon="-0.07130221963484577"><ele>285.0</ele><time>2026-05-04T11:38:55Z</time></trkpt><trkpt lat="41.4942220761119" lon="-0.07115430815046063"><ele>285.5</ele><time>2026-05-04T11:38:56Z</time></trkpt><trkpt lat="41.494188970930885" lon="-0.07100532979960351"><ele>286.0</ele><time>2026-05-04T11:38:57Z</time></trkpt><trkpt lat="41.49416048634206" lon="-0.07085442191182986"><ele>286.25</ele><time>2026-05-04T11:38:58Z</time></trkpt><trkpt lat="41.494134329789716" lon="-0.07070367710313895"><ele>286.5</ele><time>2026-05-04T11:38:59Z</time></trkpt><trkpt lat="41.49411084250221" lon="-0.07055199932122595"><ele>286.75</ele><time>2026-05-04T11:39:00Z</time></trkpt><trkpt lat="41.494093010560405" lon="-0.07039609444790242"><ele>287.0</ele><time>2026-05-04T11:39:01Z</time></trkpt><trkpt lat="41.49407828588436" lon="-0.07024415512897968"><ele>287.0</ele><time>2026-05-04T11:39:02Z</time></trkpt><trkpt lat="41.494069464098104" lon="-0.0700904674617836"><ele>287.0</ele><time>2026-05-04T11:39:03Z</time></trkpt><trkpt lat="41.49406441585508" lon="-0.06993651048464856"><ele>287.0</ele><time>2026-05-04T11:39:04Z</time></trkpt><trkpt lat="41.49406288074602" lon="-0.06978382502089078"><ele>287.0</ele><time>2026-05-04T11:39:05Z</time></trkpt><trkpt lat="41.49406613186833" lon="-0.06962862980358493"><ele>286.5</ele><time>2026-05-04T11:39:06Z</time></trkpt><trkpt lat="41.49407175202652" lon="-0.06947356328811018"><ele>286.0</ele><time>2026-05-04T11:39:07Z</time></trkpt><trkpt lat="41.49408415672783" lon="-0.06931913323341506"><ele>285.5</ele><time>2026-05-04T11:39:08Z</time></trkpt><trkpt lat="41.494096694130086" lon="-0.06916380214312844"><ele>285.0</ele><time>2026-05-04T11:39:09Z</time></trkpt><trkpt lat="41.494114643804856" lon="-0.06900826006844084"><ele>285.0</ele><time>2026-05-04T11:39:10Z</time></trkpt><trkpt lat="41.49413432937841" lon="-0.06885447232322614"><ele>285.0</ele><time>2026-05-04T11:39:11Z</time></trkpt><trkpt lat="41.49415617066483" lon="-0.0686999239349028"><ele>285.0</ele><time>2026-05-04T11:39:12Z</time></trkpt><trkpt lat="41.49418332782208" lon="-0.06854864272851485"><ele>285.0</ele><time>2026-05-04T11:39:13Z</time></trkpt><trkpt lat="41.494209162519226" lon="-0.06839566634115364"><ele>284.0</ele><time>2026-05-04T11:39:14Z</time></trkpt><trkpt lat="41.494240084754104" lon="-0.06824488198823414"><ele>283.0</ele><time>2026-05-04T11:39:15Z</time></trkpt><trkpt lat="41.49427251339549" lon="-0.06809679102599898"><ele>282.0</ele><time>2026-05-04T11:39:16Z</time></trkpt><trkpt lat="41.494298376759325" lon="-0.06794422117264338"><ele>281.0</ele><time>2026-05-04T11:39:17Z</time></trkpt><trkpt lat="41.49432746511608" lon="-0.06778881627011177"><ele>281.0</ele><time>2026-05-04T11:39:18Z</time></trkpt><trkpt lat="41.49436611614352" lon="-0.06762955690229745"><ele>281.0</ele><time>2026-05-04T11:39:19Z</time></trkpt><trkpt lat="41.49440159640674" lon="-0.06747403328456125"><ele>281.0</ele><time>2026-05-04T11:39:20Z</time></trkpt><trkpt lat="41.4944351821201" lon="-0.06732311901207587"><ele>281.0</ele><time>2026-05-04T11:39:21Z</time></trkpt><trkpt lat="41.49446646403978" lon="-0.06717589328003232"><ele>281.0</ele><time>2026-05-04T11:39:22Z</time></trkpt><trkpt lat="41.49449482733361" lon="-0.06702707055282868"><ele>281.0</ele><time>2026-05-04T11:39:23Z</time></trkpt><trkpt lat="41.49452650949433" lon="-0.06687254847405087"><ele>281.0</ele><time>2026-05-04T11:39:24Z</time></trkpt><trkpt lat="41.49455673174086" lon="-0.06671237780198157"><ele>281.0</ele><time>2026-05-04T11:39:25Z</time></trkpt><trkpt lat="41.49458722457941" lon="-0.0665579606394978"><ele>282.0</ele><time>2026-05-04T11:39:26Z</time></trkpt><trkpt lat="41.49462153081435" lon="-0.06639831584654203"><ele>283.0</ele><time>2026-05-04T11:39:27.001Z</time></trkpt><trkpt lat="41.49465433148533" lon="-0.0662410546653498"><ele>284.0</ele><time>2026-05-04T11:39:28.001Z</time></trkpt><trkpt lat="41.494687485898226" lon="-0.0660904483106206"><ele>285.0</ele><time>2026-05-04T11:39:29.001Z</time></trkpt><trkpt lat="41.49472278827674" lon="-0.06593438564906953"><ele>284.5</ele><time>2026-05-04T11:39:30.001Z</time></trkpt><trkpt lat="41.494756473204056" lon="-0.06577660366435234"><ele>284.0</ele><time>2026-05-04T11:39:31.001Z</time></trkpt><trkpt lat="41.49478856832874" lon="-0.06562379514768554"><ele>283.5</ele><time>2026-05-04T11:39:32.001Z</time></trkpt><trkpt lat="41.49481612151061" lon="-0.06547259605734769"><ele>283.0</ele><time>2026-05-04T11:39:33.001Z</time></trkpt><trkpt lat="41.49484604408644" lon="-0.0653244411632181"><ele>283.0</ele><time>2026-05-04T11:39:34.001Z</time></trkpt><trkpt lat="41.49488090445664" lon="-0.06517089479723936"><ele>283.0</ele><time>2026-05-04T11:39:35.001Z</time></trkpt><trkpt lat="41.494916219661036" lon="-0.06501990408126897"><ele>283.0</ele><time>2026-05-04T11:39:36.001Z</time></trkpt><trkpt lat="41.49495151280751" lon="-0.06487167846113316"><ele>283.0</ele><time>2026-05-04T11:39:37.001Z</time></trkpt><trkpt lat="41.49498270860236" lon="-0.06472349118453938"><ele>282.25</ele><time>2026-05-04T11:39:38.001Z</time></trkpt><trkpt lat="41.49501482180005" lon="-0.06457912208015015"><ele>281.5</ele><time>2026-05-04T11:39:39.001Z</time></trkpt><trkpt lat="41.49504885828705" lon="-0.06443061549718083"><ele>280.75</ele><time>2026-05-04T11:39:40.001Z</time></trkpt><trkpt lat="41.495082196644894" lon="-0.06427833505037736"><ele>280.0</ele><time>2026-05-04T11:39:41.001Z</time></trkpt><trkpt lat="41.49511160185508" lon="-0.06412987207790888"><ele>279.25</ele><time>2026-05-04T11:39:42.001Z</time></trkpt><trkpt lat="41.49514197786809" lon="-0.06397973122530107"><ele>278.5</ele><time>2026-05-04T11:39:43.001Z</time></trkpt><trkpt lat="41.49517271558901" lon="-0.06382672549517927"><ele>277.75</ele><time>2026-05-04T11:39:44.001Z</time></trkpt><trkpt lat="41.49520949473298" lon="-0.06368035987465577"><ele>277.0</ele><time>2026-05-04T11:39:45.001Z</time></trkpt><trkpt lat="41.495240657658705" lon="-0.06352799521245484"><ele>277.0</ele><time>2026-05-04T11:39:46.001Z</time></trkpt><trkpt lat="41.49526849690723" lon="-0.06337881085375298"><ele>277.0</ele><time>2026-05-04T11:39:47.001Z</time></trkpt><trkpt lat="41.49530152387007" lon="-0.06322839642266936"><ele>277.0</ele><time>2026-05-04T11:39:48.001Z</time></trkpt><trkpt lat="41.49533512113882" lon="-0.06307158159569752"><ele>277.0</ele><time>2026-05-04T11:39:49.001Z</time></trkpt><trkpt lat="41.49536365038245" lon="-0.0629226152053423"><ele>277.0</ele><time>2026-05-04T11:39:50.001Z</time></trkpt><trkpt lat="41.495394976913424" lon="-0.06277365555610892"><ele>277.0</ele><time>2026-05-04T11:39:51.001Z</time></trkpt><trkpt lat="41.49542882340807" lon="-0.06262222233044848"><ele>277.0</ele><time>2026-05-04T11:39:52.001Z</time></trkpt><trkpt lat="41.495459622003104" lon="-0.062468887837354437"><ele>277.0</ele><time>2026-05-04T11:39:53.001Z</time></trkpt><trkpt lat="41.49548792564395" lon="-0.06231352219577812"><ele>277.0</ele><time>2026-05-04T11:39:54.001Z</time></trkpt><trkpt lat="41.495517852152766" lon="-0.062156250105726375"><ele>277.0</ele><time>2026-05-04T11:39:55.001Z</time></trkpt><trkpt lat="41.495546680809085" lon="-0.06200026405701686"><ele>277.0</ele><time>2026-05-04T11:39:56.001Z</time></trkpt><trkpt lat="41.495579933895755" lon="-0.06184109707448772"><ele>277.0</ele><time>2026-05-04T11:39:57.001Z</time></trkpt><trkpt lat="41.49561163119083" lon="-0.06168484708817729"><ele>277.75</ele><time>2026-05-04T11:39:58.001Z</time></trkpt><trkpt lat="41.49564600777407" lon="-0.061528784864223744"><ele>278.5</ele><time>2026-05-04T11:39:59.001Z</time></trkpt><trkpt lat="41.4956861942395" lon="-0.061377070814894887"><ele>279.25</ele><time>2026-05-04T11:40:00.001Z</time></trkpt><trkpt lat="41.495724131660936" lon="-0.061222640004538725"><ele>280.0</ele><time>2026-05-04T11:40:01.001Z</time></trkpt><trkpt lat="41.49575947730195" lon="-0.06106889507764971"><ele>280.0</ele><time>2026-05-04T11:40:02.001Z</time></trkpt><trkpt lat="41.4957949289764" lon="-0.06091613152204839"><ele>280.0</ele><time>2026-05-04T11:40:03.001Z</time></trkpt><trkpt lat="41.49582689010132" lon="-0.060763170232772126"><ele>280.0</ele><time>2026-05-04T11:40:04.001Z</time></trkpt><trkpt lat="41.49585437892182" lon="-0.06060821799837416"><ele>280.0</ele><time>2026-05-04T11:40:05.001Z</time></trkpt><trkpt lat="41.49588016419868" lon="-0.060454201675595225"><ele>280.0</ele><time>2026-05-04T11:40:06.001Z</time></trkpt><trkpt lat="41.49591650323369" lon="-0.06030402105844186"><ele>280.0</ele><time>2026-05-04T11:40:07.001Z</time></trkpt><trkpt lat="41.49594746810032" lon="-0.0601531804500453"><ele>280.0</ele><time>2026-05-04T11:40:08.001Z</time></trkpt><trkpt lat="41.4959771068077" lon="-0.060004137960284816"><ele>280.0</ele><time>2026-05-04T11:40:09.001Z</time></trkpt><trkpt lat="41.496006922099596" lon="-0.059851013687388675"><ele>280.0</ele><time>2026-05-04T11:40:10.001Z</time></trkpt><trkpt lat="41.49603434348155" lon="-0.05970043695524386"><ele>280.0</ele><time>2026-05-04T11:40:11.001Z</time></trkpt><trkpt lat="41.49605731818012" lon="-0.05954624158367941"><ele>280.0</ele><time>2026-05-04T11:40:12.001Z</time></trkpt><trkpt lat="41.496078126399695" lon="-0.05939215475413981"><ele>280.0</ele><time>2026-05-04T11:40:13.001Z</time></trkpt><trkpt lat="41.49610263427309" lon="-0.059236262471535545"><ele>280.75</ele><time>2026-05-04T11:40:14.001Z</time></trkpt><trkpt lat="41.49612218308761" lon="-0.0590824821441838"><ele>281.5</ele><time>2026-05-04T11:40:15.001Z</time></trkpt><trkpt lat="41.49613889369118" lon="-0.05892959293142445"><ele>282.25</ele><time>2026-05-04T11:40:16.001Z</time></trkpt><trkpt lat="41.49614653800562" lon="-0.05877488828831181"><ele>283.0</ele><time>2026-05-04T11:40:17.001Z</time></trkpt><trkpt lat="41.49615157050437" lon="-0.05862096197099871"><ele>283.0</ele><time>2026-05-04T11:40:18.001Z</time></trkpt><trkpt lat="41.496148876265806" lon="-0.05846544279367422"><ele>283.0</ele><time>2026-05-04T11:40:19.001Z</time></trkpt><trkpt lat="41.49614167611794" lon="-0.05831143266456032"><ele>283.0</ele><time>2026-05-04T11:40:20.001Z</time></trkpt><trkpt lat="41.496138186371724" lon="-0.058155693348428954"><ele>283.0</ele><time>2026-05-04T11:40:21.001Z</time></trkpt><trkpt lat="41.49613380347218" lon="-0.05800093504560814"><ele>282.25</ele><time>2026-05-04T11:40:22.001Z</time></trkpt><trkpt lat="41.49612963500645" lon="-0.05784454062565824"><ele>281.5</ele><time>2026-05-04T11:40:23.001Z</time></trkpt><trkpt lat="41.496129032653286" lon="-0.057690435014839614"><ele>280.75</ele><time>2026-05-04T11:40:24.001Z</time></trkpt><trkpt lat="41.49612941852101" lon="-0.05753802207079229"><ele>280.0</ele><time>2026-05-04T11:40:25.001Z</time></trkpt><trkpt lat="41.49612743135727" lon="-0.057381269264523894"><ele>280.0</ele><time>2026-05-04T11:40:26Z</time></trkpt><trkpt lat="41.49612588689602" lon="-0.05722741065207876"><ele>280.0</ele><time>2026-05-04T11:40:27Z</time></trkpt><trkpt lat="41.49612582690656" lon="-0.05707310987766622"><ele>280.0</ele><time>2026-05-04T11:40:28Z</time></trkpt><trkpt lat="41.49612691072663" lon="-0.05691661156604652"><ele>280.0</ele><time>2026-05-04T11:40:29Z</time></trkpt><trkpt lat="41.49612672628907" lon="-0.056761015684129605"><ele>279.25</ele><time>2026-05-04T11:40:30Z</time></trkpt><trkpt lat="41.49612842860286" lon="-0.05660555256113618"><ele>278.5</ele><time>2026-05-04T11:40:31Z</time></trkpt><trkpt lat="41.49612762512723" lon="-0.05645090631015828"><ele>277.75</ele><time>2026-05-04T11:40:32Z</time></trkpt><trkpt lat="41.49612852065724" lon="-0.05629512960880651"><ele>277.0</ele><time>2026-05-04T11:40:33Z</time></trkpt><trkpt lat="41.49612917039876" lon="-0.05613903496049637"><ele>277.0</ele><time>2026-05-04T11:40:34Z</time></trkpt><trkpt lat="41.49612700815781" lon="-0.05598177939551963"><ele>277.0</ele><time>2026-05-04T11:40:35Z</time></trkpt><trkpt lat="41.49612471704712" lon="-0.05582449967665974"><ele>277.0</ele><time>2026-05-04T11:40:36Z</time></trkpt><trkpt lat="41.4961215121183" lon="-0.05566920049947196"><ele>277.0</ele><time>2026-05-04T11:40:37Z</time></trkpt><trkpt lat="41.49611833269214" lon="-0.055513847615717725"><ele>276.5</ele><time>2026-05-04T11:40:38Z</time></trkpt><trkpt lat="41.496114381318336" lon="-0.05535749957732894"><ele>276.0</ele><time>2026-05-04T11:40:39Z</time></trkpt><trkpt lat="41.496111297899226" lon="-0.05520094128922827"><ele>275.5</ele><time>2026-05-04T11:40:40Z</time></trkpt><trkpt lat="41.49611697450885" lon="-0.055047285339836556"><ele>275.0</ele><time>2026-05-04T11:40:41Z</time></trkpt><trkpt lat="41.49612337171807" lon="-0.05489419834822452"><ele>274.5</ele><time>2026-05-04T11:40:42Z</time></trkpt><trkpt lat="41.49612878119954" lon="-0.05474184023276428"><ele>274.0</ele><time>2026-05-04T11:40:43Z</time></trkpt><trkpt lat="41.49613537962573" lon="-0.054586777519834845"><ele>273.5</ele><time>2026-05-04T11:40:44Z</time></trkpt><trkpt lat="41.496147541903625" lon="-0.05443658784105171"><ele>273.0</ele><time>2026-05-04T11:40:45Z</time></trkpt><trkpt lat="41.496161917841356" lon="-0.054283798078065264"><ele>273.0</ele><time>2026-05-04T11:40:46Z</time></trkpt><trkpt lat="41.49618103111644" lon="-0.054132106420572715"><ele>273.0</ele><time>2026-05-04T11:40:47Z</time></trkpt><trkpt lat="41.49621431808065" lon="-0.053983413047532354"><ele>273.0</ele><time>2026-05-04T11:40:48Z</time></trkpt><trkpt lat="41.49624625700178" lon="-0.053831418015052084"><ele>273.0</ele><time>2026-05-04T11:40:49Z</time></trkpt><trkpt lat="41.49628130533648" lon="-0.053685230712895236"><ele>272.25</ele><time>2026-05-04T11:40:50Z</time></trkpt><trkpt lat="41.49631961502757" lon="-0.05353895039989665"><ele>271.5</ele><time>2026-05-04T11:40:51Z</time></trkpt><trkpt lat="41.496359587729366" lon="-0.05339518340037076"><ele>270.75</ele><time>2026-05-04T11:40:52Z</time></trkpt><trkpt lat="41.49640147006807" lon="-0.05325143573736232"><ele>270.0</ele><time>2026-05-04T11:40:53Z</time></trkpt><trkpt lat="41.49644542016204" lon="-0.0531046704849033"><ele>269.25</ele><time>2026-05-04T11:40:54Z</time></trkpt><trkpt lat="41.49649338830377" lon="-0.05296220770354061"><ele>268.5</ele><time>2026-05-04T11:40:55Z</time></trkpt><trkpt lat="41.49654420178828" lon="-0.05282310186307283"><ele>267.75</ele><time>2026-05-04T11:40:56Z</time></trkpt><trkpt lat="41.496599752976614" lon="-0.05269076773751393"><ele>267.0</ele><time>2026-05-04T11:40:57Z</time></trkpt><trkpt lat="41.49665634382938" lon="-0.05255954100005628"><ele>267.75</ele><time>2026-05-04T11:40:58Z</time></trkpt><trkpt lat="41.496714822951546" lon="-0.05242887769270266"><ele>268.5</ele><time>2026-05-04T11:40:59Z</time></trkpt><trkpt lat="41.49677751624095" lon="-0.052300942958146746"><ele>269.25</ele><time>2026-05-04T11:41:00Z</time></trkpt><trkpt lat="41.49683786654995" lon="-0.052173981585370656"><ele>270.0</ele><time>2026-05-04T11:41:01Z</time></trkpt><trkpt lat="41.49690046363609" lon="-0.05204582522668169"><ele>270.0</ele><time>2026-05-04T11:41:02Z</time></trkpt><trkpt lat="41.49695809053042" lon="-0.05191438152122156"><ele>270.0</ele><time>2026-05-04T11:41:03Z</time></trkpt><trkpt lat="41.49705171216032" lon="-0.05176252009509175"><ele>270.0</ele><time>2026-05-04T11:41:04Z</time></trkpt><trkpt lat="41.49716544280047" lon="-0.051569515993063815"><ele>270.0</ele><time>2026-05-04T11:41:05Z</time></trkpt><trkpt lat="41.4972630873478" lon="-0.05137776153619312"><ele>270.0</ele><time>2026-05-04T11:41:06Z</time></trkpt><trkpt lat="41.49734792526462" lon="-0.05119147580679843"><ele>270.0</ele><time>2026-05-04T11:41:09Z</time></trkpt><trkpt lat="41.49740853423982" lon="-0.05106582260832058"><ele>270.0</ele><time>2026-05-04T11:41:10Z</time></trkpt><trkpt lat="41.49747335000749" lon="-0.05094156587984788"><ele>270.0</ele><time>2026-05-04T11:41:11Z</time></trkpt><trkpt lat="41.49753349820244" lon="-0.05081791249102724"><ele>271.25</ele><time>2026-05-04T11:41:12Z</time></trkpt><trkpt lat="41.49759716771888" lon="-0.0506886439984538"><ele>272.5</ele><time>2026-05-04T11:41:13Z</time></trkpt><trkpt lat="41.4976615089513" lon="-0.05056205537294573"><ele>273.75</ele><time>2026-05-04T11:41:14Z</time></trkpt><trkpt lat="41.49772569148291" lon="-0.050432297769657956"><ele>275.0</ele><time>2026-05-04T11:41:15Z</time></trkpt><trkpt lat="41.497792113090604" lon="-0.0503091258246267"><ele>275.0</ele><time>2026-05-04T11:41:16Z</time></trkpt><trkpt lat="41.49785963489029" lon="-0.05018259456085797"><ele>275.0</ele><time>2026-05-04T11:41:17Z</time></trkpt><trkpt lat="41.49792170190306" lon="-0.050055843459748846"><ele>275.0</ele><time>2026-05-04T11:41:18Z</time></trkpt><trkpt lat="41.49798875374755" lon="-0.049928649365542255"><ele>275.0</ele><time>2026-05-04T11:41:19Z</time></trkpt><trkpt lat="41.498052546297224" lon="-0.04980186156483995"><ele>273.25</ele><time>2026-05-04T11:41:20Z</time></trkpt><trkpt lat="41.49811238517707" lon="-0.04967597602682555"><ele>271.5</ele><time>2026-05-04T11:41:21Z</time></trkpt><trkpt lat="41.49817374448246" lon="-0.04954959926945477"><ele>269.75</ele><time>2026-05-04T11:41:22Z</time></trkpt><trkpt lat="41.498234028624935" lon="-0.04942004748385127"><ele>268.0</ele><time>2026-05-04T11:41:23Z</time></trkpt><trkpt lat="41.49829141164764" lon="-0.04929106087441082"><ele>268.0</ele><time>2026-05-04T11:41:24Z</time></trkpt><trkpt lat="41.498348162160035" lon="-0.04916169938246892"><ele>268.0</ele><time>2026-05-04T11:41:25Z</time></trkpt><trkpt lat="41.498403828365056" lon="-0.04902899296439408"><ele>268.0</ele><time>2026-05-04T11:41:26Z</time></trkpt><trkpt lat="41.49845337016044" lon="-0.04889496513038735"><ele>268.0</ele><time>2026-05-04T11:41:27Z</time></trkpt><trkpt lat="41.498503260841915" lon="-0.04875524216151064"><ele>266.5</ele><time>2026-05-04T11:41:28Z</time></trkpt><trkpt lat="41.49864305486247" lon="-0.04833991758947615"><ele>265.0</ele><time>2026-05-04T11:41:31Z</time></trkpt><trkpt lat="41.49868596062142" lon="-0.04820030463793604"><ele>264.5</ele><time>2026-05-04T11:41:32Z</time></trkpt><trkpt lat="41.49872493408026" lon="-0.048055746423499315"><ele>264.0</ele><time>2026-05-04T11:41:33Z</time></trkpt><trkpt lat="41.49876258433334" lon="-0.04791204224520928"><ele>263.5</ele><time>2026-05-04T11:41:34Z</time></trkpt><trkpt lat="41.498802875504" lon="-0.04777169655421027"><ele>263.0</ele><time>2026-05-04T11:41:35.001Z</time></trkpt><trkpt lat="41.498842180985505" lon="-0.04762533388237495"><ele>263.75</ele><time>2026-05-04T11:41:36.001Z</time></trkpt><trkpt lat="41.49887788394893" lon="-0.04748330633555052"><ele>264.5</ele><time>2026-05-04T11:41:37.001Z</time></trkpt><trkpt lat="41.498921631662085" lon="-0.04733870895851599"><ele>265.25</ele><time>2026-05-04T11:41:38.001Z</time></trkpt><trkpt lat="41.49896018741658" lon="-0.047200251881821996"><ele>266.0</ele><time>2026-05-04T11:41:39.001Z</time></trkpt><trkpt lat="41.49899980103725" lon="-0.047057855576771945"><ele>266.0</ele><time>2026-05-04T11:41:40.001Z</time></trkpt><trkpt lat="41.49903848670368" lon="-0.04691657959178586"><ele>266.0</ele><time>2026-05-04T11:41:41.001Z</time></trkpt><trkpt lat="41.49907657146439" lon="-0.04677352774653112"><ele>266.0</ele><time>2026-05-04T11:41:42.001Z</time></trkpt><trkpt lat="41.49911298669923" lon="-0.04662847086896381"><ele>266.0</ele><time>2026-05-04T11:41:43.001Z</time></trkpt><trkpt lat="41.49915238003358" lon="-0.04648440800851172"><ele>265.0</ele><time>2026-05-04T11:41:44.001Z</time></trkpt><trkpt lat="41.49919404571037" lon="-0.04634115560717678"><ele>264.0</ele><time>2026-05-04T11:41:45.001Z</time></trkpt><trkpt lat="41.499238176903546" lon="-0.04620122809988908"><ele>263.0</ele><time>2026-05-04T11:41:46.001Z</time></trkpt><trkpt lat="41.49927966159315" lon="-0.04605730285960745"><ele>262.0</ele><time>2026-05-04T11:41:47.001Z</time></trkpt><trkpt lat="41.49931454742993" lon="-0.04591414343701497"><ele>262.25</ele><time>2026-05-04T11:41:48.001Z</time></trkpt><trkpt lat="41.499349419544984" lon="-0.045765876692015386"><ele>262.5</ele><time>2026-05-04T11:41:49.001Z</time></trkpt><trkpt lat="41.499385822607266" lon="-0.04561750255980535"><ele>262.75</ele><time>2026-05-04T11:41:50.001Z</time></trkpt><trkpt lat="41.499419973492685" lon="-0.045471400097845706"><ele>263.0</ele><time>2026-05-04T11:41:51.001Z</time></trkpt><trkpt lat="41.499451023263774" lon="-0.04533358467518927"><ele>263.0</ele><time>2026-05-04T11:41:52.001Z</time></trkpt><trkpt lat="41.499479369734" lon="-0.0451941818951579"><ele>263.0</ele><time>2026-05-04T11:41:53.001Z</time></trkpt><trkpt lat="41.49950551657818" lon="-0.045038784667757695"><ele>263.0</ele><time>2026-05-04T11:41:54.001Z</time></trkpt><trkpt lat="41.4995355484281" lon="-0.04486139351540563"><ele>263.0</ele><time>2026-05-04T11:41:55.001Z</time></trkpt><trkpt lat="41.499537491961014" lon="-0.04463186494267604"><ele>262.6666666666667</ele><time>2026-05-04T11:41:56.001Z</time></trkpt><trkpt lat="41.499544783787144" lon="-0.044364300510558015"><ele>262.3333333333333</ele><time>2026-05-04T11:41:57.001Z</time></trkpt><trkpt lat="41.49953542647707" lon="-0.04414076578083482"><ele>262.0</ele><time>2026-05-04T11:42:00.001Z</time></trkpt><trkpt lat="41.49953195942454" lon="-0.043990336822754654"><ele>262.0</ele><time>2026-05-04T11:42:01.001Z</time></trkpt><trkpt lat="41.49951520847812" lon="-0.043843871452383325"><ele>262.0</ele><time>2026-05-04T11:42:02.001Z</time></trkpt><trkpt lat="41.49948727301044" lon="-0.04369607125072394"><ele>262.0</ele><time>2026-05-04T11:42:03.001Z</time></trkpt><trkpt lat="41.499465296280384" lon="-0.04354701158021605"><ele>262.0</ele><time>2026-05-04T11:42:04.001Z</time></trkpt><trkpt lat="41.49945095181852" lon="-0.043399515296191474"><ele>262.25</ele><time>2026-05-04T11:42:05.001Z</time></trkpt><trkpt lat="41.49942816517086" lon="-0.04324699770772863"><ele>262.5</ele><time>2026-05-04T11:42:06.001Z</time></trkpt><trkpt lat="41.499407340088375" lon="-0.043099646793222986"><ele>262.75</ele><time>2026-05-04T11:42:07.001Z</time></trkpt><trkpt lat="41.49938794539872" lon="-0.042947988290733714"><ele>263.0</ele><time>2026-05-04T11:42:08.001Z</time></trkpt><trkpt lat="41.499367802230374" lon="-0.042798776304439595"><ele>263.0</ele><time>2026-05-04T11:42:09.001Z</time></trkpt><trkpt lat="41.49934964530869" lon="-0.04264685372513938"><ele>263.0</ele><time>2026-05-04T11:42:10.001Z</time></trkpt><trkpt lat="41.49932908409635" lon="-0.042497318295036716"><ele>263.0</ele><time>2026-05-04T11:42:11.001Z</time></trkpt><trkpt lat="41.49930792219078" lon="-0.04234715134766344"><ele>263.0</ele><time>2026-05-04T11:42:12.001Z</time></trkpt><trkpt lat="41.49928848615951" lon="-0.042194860654230656"><ele>261.75</ele><time>2026-05-04T11:42:13.001Z</time></trkpt><trkpt lat="41.499271230412546" lon="-0.042039363419052005"><ele>260.5</ele><time>2026-05-04T11:42:14.001Z</time></trkpt><trkpt lat="41.49925259166515" lon="-0.04188745335836303"><ele>259.25</ele><time>2026-05-04T11:42:15.001Z</time></trkpt><trkpt lat="41.49923551585514" lon="-0.04173380686275061"><ele>258.0</ele><time>2026-05-04T11:42:16.001Z</time></trkpt><trkpt lat="41.49921684702137" lon="-0.04158146888183511"><ele>257.5</ele><time>2026-05-04T11:42:17.001Z</time></trkpt><trkpt lat="41.49919789639659" lon="-0.04142837991968299"><ele>257.0</ele><time>2026-05-04T11:42:18.001Z</time></trkpt><trkpt lat="41.4991770385273" lon="-0.04127279300604368"><ele>256.5</ele><time>2026-05-04T11:42:19.001Z</time></trkpt><trkpt lat="41.49915620879743" lon="-0.04112032565014217"><ele>256.0</ele><time>2026-05-04T11:42:20.001Z</time></trkpt><trkpt lat="41.49913592041152" lon="-0.04096730344778787"><ele>256.0</ele><time>2026-05-04T11:42:21.001Z</time></trkpt><trkpt lat="41.499118170578605" lon="-0.040814907500084825"><ele>256.0</ele><time>2026-05-04T11:42:22.001Z</time></trkpt><trkpt lat="41.499099088970965" lon="-0.04066187611312178"><ele>256.0</ele><time>2026-05-04T11:42:23.001Z</time></trkpt><trkpt lat="41.49907897459097" lon="-0.040511790304549905"><ele>256.0</ele><time>2026-05-04T11:42:24.001Z</time></trkpt><trkpt lat="41.49906207589107" lon="-0.04036043749901904"><ele>255.75</ele><time>2026-05-04T11:42:25.001Z</time></trkpt><trkpt lat="41.499043892143604" lon="-0.04020602493730792"><ele>255.5</ele><time>2026-05-04T11:42:26.001Z</time></trkpt><trkpt lat="41.49902537469814" lon="-0.040055049986777475"><ele>255.25</ele><time>2026-05-04T11:42:27.001Z</time></trkpt><trkpt lat="41.49900616954611" lon="-0.03990417587202738"><ele>255.0</ele><time>2026-05-04T11:42:28.001Z</time></trkpt><trkpt lat="41.498986501175786" lon="-0.03975434196071676"><ele>253.75</ele><time>2026-05-04T11:42:29.001Z</time></trkpt><trkpt lat="41.49896744974936" lon="-0.039601726307467514"><ele>252.5</ele><time>2026-05-04T11:42:30.001Z</time></trkpt><trkpt lat="41.49895231326564" lon="-0.03945026867079761"><ele>251.25</ele><time>2026-05-04T11:42:31.001Z</time></trkpt><trkpt lat="41.49893804088775" lon="-0.03929678951073702"><ele>250.0</ele><time>2026-05-04T11:42:32Z</time></trkpt><trkpt lat="41.498918738302905" lon="-0.03914850769037758"><ele>250.25</ele><time>2026-05-04T11:42:33Z</time></trkpt><trkpt lat="41.498902779270146" lon="-0.03899758717494717"><ele>250.5</ele><time>2026-05-04T11:42:34Z</time></trkpt><trkpt lat="41.49888815519683" lon="-0.03884538405804593"><ele>250.75</ele><time>2026-05-04T11:42:35Z</time></trkpt><trkpt lat="41.49887260095505" lon="-0.038695244379128954"><ele>251.0</ele><time>2026-05-04T11:42:36Z</time></trkpt><trkpt lat="41.498857211622905" lon="-0.03854540031525636"><ele>251.0</ele><time>2026-05-04T11:42:37Z</time></trkpt><trkpt lat="41.49884497753914" lon="-0.03839444527727101"><ele>251.0</ele><time>2026-05-04T11:42:38Z</time></trkpt><trkpt lat="41.49883960998069" lon="-0.038247317333953396"><ele>251.0</ele><time>2026-05-04T11:42:39Z</time></trkpt><trkpt lat="41.49882869303353" lon="-0.03807770326544124"><ele>251.0</ele><time>2026-05-04T11:42:40Z</time></trkpt><trkpt lat="41.49882666813661" lon="-0.037874172797255586"><ele>250.60000000000002</ele><time>2026-05-04T11:42:41Z</time></trkpt><trkpt lat="41.498830505813046" lon="-0.03777350325349875"><ele>250.20000000000002</ele><time>2026-05-04T11:42:42Z</time></trkpt><trkpt lat="41.4988449627886" lon="-0.037627654458296425"><ele>249.79999999999998</ele><time>2026-05-04T11:42:43Z</time></trkpt><trkpt lat="41.498863523119894" lon="-0.037476678920884285"><ele>249.39999999999998</ele><time>2026-05-04T11:42:44Z</time></trkpt><trkpt lat="41.49889054733189" lon="-0.037325931868937845"><ele>249.0</ele><time>2026-05-04T11:42:45Z</time></trkpt><trkpt lat="41.498919907764964" lon="-0.03717527404805813"><ele>248.5</ele><time>2026-05-04T11:42:46Z</time></trkpt><trkpt lat="41.49894798375744" lon="-0.037026772599475"><ele>248.0</ele><time>2026-05-04T11:42:47Z</time></trkpt><trkpt lat="41.498976868496676" lon="-0.036878189322140244"><ele>247.5</ele><time>2026-05-04T11:42:48Z</time></trkpt><trkpt lat="41.49900683688488" lon="-0.03672999292993686"><ele>247.0</ele><time>2026-05-04T11:42:49Z</time></trkpt><trkpt lat="41.49903781555145" lon="-0.036581419821426556"><ele>247.0</ele><time>2026-05-04T11:42:50Z</time></trkpt><trkpt lat="41.49906960551813" lon="-0.03643677282816236"><ele>247.0</ele><time>2026-05-04T11:42:51Z</time></trkpt><trkpt lat="41.49910204949893" lon="-0.03628947743629355"><ele>247.0</ele><time>2026-05-04T11:42:52Z</time></trkpt><trkpt lat="41.49913180067003" lon="-0.03614577359798632"><ele>247.0</ele><time>2026-05-04T11:42:53Z</time></trkpt><trkpt lat="41.49916255956874" lon="-0.03600006736792757"><ele>247.0</ele><time>2026-05-04T11:42:54Z</time></trkpt><trkpt lat="41.499196923303224" lon="-0.03585444253578446"><ele>247.0</ele><time>2026-05-04T11:42:55Z</time></trkpt><trkpt lat="41.49922333315665" lon="-0.03571811285604835"><ele>247.0</ele><time>2026-05-04T11:42:56Z</time></trkpt><trkpt lat="41.49922303088966" lon="-0.03559300779864952"><ele>247.0</ele><time>2026-05-04T11:42:57Z</time></trkpt><trkpt lat="41.49922238618288" lon="-0.03547798615832459"><ele>247.0</ele><time>2026-05-04T11:42:58Z</time></trkpt><trkpt lat="41.49930492709635" lon="-0.03528891603948814"><ele>247.2</ele><time>2026-05-04T11:42:59Z</time></trkpt><trkpt lat="41.49933966278105" lon="-0.03514661924243486"><ele>247.39999999999998</ele><time>2026-05-04T11:43:00Z</time></trkpt><trkpt lat="41.49937237125291" lon="-0.03500359486813866"><ele>247.60000000000002</ele><time>2026-05-04T11:43:01Z</time></trkpt><trkpt lat="41.49939986786711" lon="-0.034861074339030754"><ele>247.8</ele><time>2026-05-04T11:43:02Z</time></trkpt><trkpt lat="41.49942648225035" lon="-0.03471907142110593"><ele>248.0</ele><time>2026-05-04T11:43:03Z</time></trkpt><trkpt lat="41.49945548011474" lon="-0.03457664512170601"><ele>248.4</ele><time>2026-05-04T11:43:04Z</time></trkpt><trkpt lat="41.49948774678962" lon="-0.0344347874436635"><ele>248.8</ele><time>2026-05-04T11:43:05Z</time></trkpt><trkpt lat="41.49951704921695" lon="-0.03429379709007915"><ele>249.2</ele><time>2026-05-04T11:43:06Z</time></trkpt><trkpt lat="41.49955009675374" lon="-0.03415211981044947"><ele>249.6</ele><time>2026-05-04T11:43:07Z</time></trkpt><trkpt lat="41.49958020003983" lon="-0.03401163114319019"><ele>250.0</ele><time>2026-05-04T11:43:08Z</time></trkpt><trkpt lat="41.49961090256234" lon="-0.033871357629351714"><ele>250.8</ele><time>2026-05-04T11:43:09Z</time></trkpt><trkpt lat="41.49964273812831" lon="-0.033729449848423014"><ele>251.6</ele><time>2026-05-04T11:43:10Z</time></trkpt><trkpt lat="41.49967200727585" lon="-0.033587872471151664"><ele>252.39999999999998</ele><time>2026-05-04T11:43:11Z</time></trkpt><trkpt lat="41.49970169026834" lon="-0.03344521255521321"><ele>253.2</ele><time>2026-05-04T11:43:12Z</time></trkpt><trkpt lat="41.4997307227249" lon="-0.033304762448562265"><ele>254.0</ele><time>2026-05-04T11:43:13Z</time></trkpt><trkpt lat="41.49975859397043" lon="-0.03316213798584699"><ele>254.0</ele><time>2026-05-04T11:43:14Z</time></trkpt><trkpt lat="41.499788342661816" lon="-0.03302064472075041"><ele>253.99999999999997</ele><time>2026-05-04T11:43:15Z</time></trkpt><trkpt lat="41.49981866435958" lon="-0.03287856362072844"><ele>253.99999999999997</ele><time>2026-05-04T11:43:16Z</time></trkpt><trkpt lat="41.499845399675785" lon="-0.03273638307188074"><ele>254.0</ele><time>2026-05-04T11:43:17Z</time></trkpt><trkpt lat="41.49987562447551" lon="-0.03259592732504908"><ele>254.0</ele><time>2026-05-04T11:43:18Z</time></trkpt><trkpt lat="41.499908090000986" lon="-0.032453119322853115"><ele>254.6</ele><time>2026-05-04T11:43:19Z</time></trkpt><trkpt lat="41.499939786895595" lon="-0.03231065600581926"><ele>255.2</ele><time>2026-05-04T11:43:20Z</time></trkpt><trkpt lat="41.49996421114024" lon="-0.03216939836393595"><ele>255.79999999999998</ele><time>2026-05-04T11:43:21Z</time></trkpt><trkpt lat="41.49999505271635" lon="-0.03202373773115586"><ele>256.4</ele><time>2026-05-04T11:43:22Z</time></trkpt><trkpt lat="41.50001731940273" lon="-0.03188682961920625"><ele>257.0</ele><time>2026-05-04T11:43:23Z</time></trkpt><trkpt lat="41.5000367445896" lon="-0.031748552585123824"><ele>258.0</ele><time>2026-05-04T11:43:24Z</time></trkpt><trkpt lat="41.500089354710575" lon="-0.0315962954320048"><ele>259.0</ele><time>2026-05-04T11:43:25Z</time></trkpt><trkpt lat="41.50012193641061" lon="-0.031461369780107336"><ele>260.0</ele><time>2026-05-04T11:43:26Z</time></trkpt><trkpt lat="41.500160074563055" lon="-0.03130531258868202"><ele>261.0</ele><time>2026-05-04T11:43:27Z</time></trkpt><trkpt lat="41.50018591103434" lon="-0.031159782549557504"><ele>261.0</ele><time>2026-05-04T11:43:28Z</time></trkpt><trkpt lat="41.50021348548146" lon="-0.0310135584898604"><ele>261.0</ele><time>2026-05-04T11:43:29Z</time></trkpt><trkpt lat="41.50024183414302" lon="-0.030870062523428485"><ele>261.0</ele><time>2026-05-04T11:43:30Z</time></trkpt><trkpt lat="41.50027439497153" lon="-0.030724305966340213"><ele>261.0</ele><time>2026-05-04T11:43:31Z</time></trkpt><trkpt lat="41.5002993741682" lon="-0.030572883259775238"><ele>261.0</ele><time>2026-05-04T11:43:32Z</time></trkpt><trkpt lat="41.50032166019418" lon="-0.030422911980773015"><ele>261.0</ele><time>2026-05-04T11:43:33Z</time></trkpt><trkpt lat="41.50033860574859" lon="-0.030272129998283083"><ele>261.0</ele><time>2026-05-04T11:43:34Z</time></trkpt><trkpt lat="41.50035647115839" lon="-0.030119951089388416"><ele>261.0</ele><time>2026-05-04T11:43:35Z</time></trkpt><trkpt lat="41.5003741189449" lon="-0.02996687728066888"><ele>260.5</ele><time>2026-05-04T11:43:36.001Z</time></trkpt><trkpt lat="41.50038542513112" lon="-0.02981511601310761"><ele>260.0</ele><time>2026-05-04T11:43:37.001Z</time></trkpt><trkpt lat="41.500392318807506" lon="-0.029662419083221012"><ele>259.5</ele><time>2026-05-04T11:43:38.001Z</time></trkpt><trkpt lat="41.500395314079" lon="-0.029512682722391433"><ele>259.0</ele><time>2026-05-04T11:43:39.001Z</time></trkpt><trkpt lat="41.5003972668902" lon="-0.029361814457338143"><ele>259.0</ele><time>2026-05-04T11:43:40.001Z</time></trkpt><trkpt lat="41.50040003852719" lon="-0.02920725189493024"><ele>259.0</ele><time>2026-05-04T11:43:41.001Z</time></trkpt><trkpt lat="41.50040078005158" lon="-0.029054428064079353"><ele>259.0</ele><time>2026-05-04T11:43:42.001Z</time></trkpt><trkpt lat="41.50039793734044" lon="-0.028903380656478416"><ele>259.0</ele><time>2026-05-04T11:43:43.001Z</time></trkpt><trkpt lat="41.50039474017717" lon="-0.028752227469837324"><ele>259.59999999999997</ele><time>2026-05-04T11:43:44.001Z</time></trkpt><trkpt lat="41.50038986889851" lon="-0.028615839432611406"><ele>260.2</ele><time>2026-05-04T11:43:45.001Z</time></trkpt><trkpt lat="41.50038897098766" lon="-0.028452327838207028"><ele>260.79999999999995</ele><time>2026-05-04T11:43:46.001Z</time></trkpt><trkpt lat="41.50037794416166" lon="-0.02830604214890065"><ele>261.4</ele><time>2026-05-04T11:43:47.001Z</time></trkpt><trkpt lat="41.500379601539855" lon="-0.028154862657096772"><ele>262.0</ele><time>2026-05-04T11:43:48.001Z</time></trkpt><trkpt lat="41.50037638178645" lon="-0.02800923909153156"><ele>262.2</ele><time>2026-05-04T11:43:49.001Z</time></trkpt><trkpt lat="41.50037296726755" lon="-0.02786222640186304"><ele>262.4</ele><time>2026-05-04T11:43:50.001Z</time></trkpt><trkpt lat="41.500369391471665" lon="-0.027718311914934877"><ele>262.6</ele><time>2026-05-04T11:43:51.001Z</time></trkpt><trkpt lat="41.50036276988782" lon="-0.02757385178009299"><ele>262.8</ele><time>2026-05-04T11:43:52.001Z</time></trkpt><trkpt lat="41.50035901840078" lon="-0.02743102679924648"><ele>263.0</ele><time>2026-05-04T11:43:53.001Z</time></trkpt><trkpt lat="41.50035616959523" lon="-0.027283020190489036"><ele>263.2</ele><time>2026-05-04T11:43:54.001Z</time></trkpt><trkpt lat="41.50035302944919" lon="-0.02713988925217401"><ele>263.4</ele><time>2026-05-04T11:43:55.001Z</time></trkpt><trkpt lat="41.50034560210845" lon="-0.026995634526636662"><ele>263.59999999999997</ele><time>2026-05-04T11:43:56.001Z</time></trkpt><trkpt lat="41.500340703791174" lon="-0.0268499618774827"><ele>263.8</ele><time>2026-05-04T11:43:57.001Z</time></trkpt><trkpt lat="41.50034067815046" lon="-0.026702000777643797"><ele>264.0</ele><time>2026-05-04T11:43:58.001Z</time></trkpt><trkpt lat="41.500336771571114" lon="-0.026557070912189163"><ele>264.59999999999997</ele><time>2026-05-04T11:43:59.001Z</time></trkpt><trkpt lat="41.50033257600401" lon="-0.02641098453578699"><ele>265.2</ele><time>2026-05-04T11:44:00.001Z</time></trkpt><trkpt lat="41.500330841672344" lon="-0.026263492479480656"><ele>265.79999999999995</ele><time>2026-05-04T11:44:01.001Z</time></trkpt><trkpt lat="41.500329532688816" lon="-0.026112878870441905"><ele>266.4</ele><time>2026-05-04T11:44:02.001Z</time></trkpt><trkpt lat="41.50032489579559" lon="-0.025962816521418526"><ele>267.0</ele><time>2026-05-04T11:44:03.001Z</time></trkpt><trkpt lat="41.500331091573194" lon="-0.02581352674585021"><ele>266.5</ele><time>2026-05-04T11:44:04.001Z</time></trkpt><trkpt lat="41.50034103363126" lon="-0.025667534821338586"><ele>266.0</ele><time>2026-05-04T11:44:05.001Z</time></trkpt><trkpt lat="41.50035410128803" lon="-0.025513608192930397"><ele>265.5</ele><time>2026-05-04T11:44:06.001Z</time></trkpt><trkpt lat="41.50037281939215" lon="-0.025358410412146384"><ele>265.0</ele><time>2026-05-04T11:44:07.001Z</time></trkpt><trkpt lat="41.50038982139838" lon="-0.025205426181419847"><ele>265.0</ele><time>2026-05-04T11:44:08.001Z</time></trkpt><trkpt lat="41.50041114890544" lon="-0.025052883238140058"><ele>265.0</ele><time>2026-05-04T11:44:09.001Z</time></trkpt><trkpt lat="41.50043882773686" lon="-0.02490068825268673"><ele>265.0</ele><time>2026-05-04T11:44:10.001Z</time></trkpt><trkpt lat="41.50046587865027" lon="-0.02475110180179826"><ele>265.0</ele><time>2026-05-04T11:44:11.001Z</time></trkpt><trkpt lat="41.500494964036456" lon="-0.024603564836126413"><ele>265.5</ele><time>2026-05-04T11:44:12.001Z</time></trkpt><trkpt lat="41.50052191973436" lon="-0.02445616543636966"><ele>266.0</ele><time>2026-05-04T11:44:13.001Z</time></trkpt><trkpt lat="41.5005491692048" lon="-0.024308625236928283"><ele>266.5</ele><time>2026-05-04T11:44:14.001Z</time></trkpt><trkpt lat="41.50057773644282" lon="-0.024158295577446875"><ele>267.0</ele><time>2026-05-04T11:44:15.001Z</time></trkpt><trkpt lat="41.50060163848358" lon="-0.024012024935230546"><ele>268.0</ele><time>2026-05-04T11:44:16.001Z</time></trkpt><trkpt lat="41.500627211761504" lon="-0.023866286084995202"><ele>269.0</ele><time>2026-05-04T11:44:17.001Z</time></trkpt><trkpt lat="41.500652981844816" lon="-0.02372360375321385"><ele>270.0</ele><time>2026-05-04T11:44:18.001Z</time></trkpt><trkpt lat="41.50068416557162" lon="-0.023574765407558648"><ele>271.0</ele><time>2026-05-04T11:44:19.001Z</time></trkpt><trkpt lat="41.50071403595498" lon="-0.02342804927038181"><ele>272.5</ele><time>2026-05-04T11:44:20.001Z</time></trkpt><trkpt lat="41.500736583474634" lon="-0.02328038779290718"><ele>274.0</ele><time>2026-05-04T11:44:21.001Z</time></trkpt><trkpt lat="41.50075531179052" lon="-0.023137559727520948"><ele>275.5</ele><time>2026-05-04T11:44:22.001Z</time></trkpt><trkpt lat="41.50079503575618" lon="-0.022994047869014586"><ele>277.0</ele><time>2026-05-04T11:44:23.001Z</time></trkpt><trkpt lat="41.50082761241171" lon="-0.022838482460149485"><ele>277.0</ele><time>2026-05-04T11:44:24.001Z</time></trkpt><trkpt lat="41.50085551211661" lon="-0.0226872310073786"><ele>277.0</ele><time>2026-05-04T11:44:25.001Z</time></trkpt><trkpt lat="41.50088547581906" lon="-0.02252479017669071"><ele>277.0</ele><time>2026-05-04T11:44:26.001Z</time></trkpt><trkpt lat="41.50090898687399" lon="-0.02242581331131403"><ele>277.0</ele><time>2026-05-04T11:44:27.001Z</time></trkpt><trkpt lat="41.5009114646562" lon="-0.022283291391983283"><ele>277.0</ele><time>2026-05-04T11:44:28.001Z</time></trkpt><trkpt lat="41.50093949954818" lon="-0.02215072687722511"><ele>277.6</ele><time>2026-05-04T11:44:29.001Z</time></trkpt><trkpt lat="41.5009682762381" lon="-0.02201682756251591"><ele>278.2</ele><time>2026-05-04T11:44:30.001Z</time></trkpt><trkpt lat="41.50099180238205" lon="-0.02189043736230941"><ele>278.8</ele><time>2026-05-04T11:44:31.001Z</time></trkpt><trkpt lat="41.50101754120917" lon="-0.02176187052500879"><ele>279.4</ele><time>2026-05-04T11:44:32.001Z</time></trkpt><trkpt lat="41.5010358058167" lon="-0.02163702759739147"><ele>280.0</ele><time>2026-05-04T11:44:33.001Z</time></trkpt><trkpt lat="41.501054823139405" lon="-0.021512918859611676"><ele>280.8</ele><time>2026-05-04T11:44:34.001Z</time></trkpt><trkpt lat="41.501080036279156" lon="-0.021388310380775055"><ele>281.6</ele><time>2026-05-04T11:44:35.001Z</time></trkpt><trkpt lat="41.501110053411374" lon="-0.021270440230099493"><ele>282.4</ele><time>2026-05-04T11:44:36.001Z</time></trkpt><trkpt lat="41.501127183786956" lon="-0.021154665022133323"><ele>283.2</ele><time>2026-05-04T11:44:37.001Z</time></trkpt><trkpt lat="41.501143069697555" lon="-0.02103945021057678"><ele>284.0</ele><time>2026-05-04T11:44:38Z</time></trkpt><trkpt lat="41.50116739214501" lon="-0.02092361113444245"><ele>284.6666666666667</ele><time>2026-05-04T11:44:39Z</time></trkpt><trkpt lat="41.501193480354694" lon="-0.020807820226454152"><ele>285.33333333333337</ele><time>2026-05-04T11:44:40Z</time></trkpt><trkpt lat="41.50121491234152" lon="-0.020698465019400022"><ele>286.0</ele><time>2026-05-04T11:44:41Z</time></trkpt><trkpt lat="41.50123213275254" lon="-0.020588824348553587"><ele>286.6666666666667</ele><time>2026-05-04T11:44:42Z</time></trkpt><trkpt lat="41.50124727382335" lon="-0.020475878581432166"><ele>287.3333333333333</ele><time>2026-05-04T11:44:43Z</time></trkpt><trkpt lat="41.50126141097169" lon="-0.020361446813391384"><ele>288.0</ele><time>2026-05-04T11:44:44Z</time></trkpt><trkpt lat="41.50127709410177" lon="-0.020246676390460874"><ele>287.6666666666667</ele><time>2026-05-04T11:44:45Z</time></trkpt><trkpt lat="41.50129446470693" lon="-0.020135162263128153"><ele>287.3333333333333</ele><time>2026-05-04T11:44:46Z</time></trkpt><trkpt lat="41.50130875521526" lon="-0.020022666512336862"><ele>287.0</ele><time>2026-05-04T11:44:47Z</time></trkpt><trkpt lat="41.50132702176792" lon="-0.019913472253811345"><ele>286.66666666666663</ele><time>2026-05-04T11:44:48Z</time></trkpt><trkpt lat="41.50133160195863" lon="-0.01980399957129751"><ele>286.3333333333333</ele><time>2026-05-04T11:44:49Z</time></trkpt><trkpt lat="41.50134023793035" lon="-0.019697268289468505"><ele>286.0</ele><time>2026-05-04T11:44:50Z</time></trkpt><trkpt lat="41.50132864344492" lon="-0.019590768720317803"><ele>286.0</ele><time>2026-05-04T11:44:51Z</time></trkpt><trkpt lat="41.50135566834148" lon="-0.01949233423347102"><ele>286.0</ele><time>2026-05-04T11:44:52Z</time></trkpt><trkpt lat="41.501376235113916" lon="-0.019398983298379902"><ele>286.0</ele><time>2026-05-04T11:44:53Z</time></trkpt><trkpt lat="41.50139654130509" lon="-0.019303464028848215"><ele>286.0</ele><time>2026-05-04T11:44:54Z</time></trkpt><trkpt lat="41.50149042671611" lon="-0.0191842159383989"><ele>286.0</ele><time>2026-05-04T11:44:55Z</time></trkpt><trkpt lat="41.50151841596581" lon="-0.019085332473851226"><ele>286.0</ele><time>2026-05-04T11:44:56Z</time></trkpt><trkpt lat="41.50154812016555" lon="-0.018986487624520737"><ele>286.8333333333333</ele><time>2026-05-04T11:44:57Z</time></trkpt><trkpt lat="41.5015748487585" lon="-0.018885621281221947"><ele>287.66666666666663</ele><time>2026-05-04T11:44:58Z</time></trkpt><trkpt lat="41.50160426415714" lon="-0.018787525018924917"><ele>288.5</ele><time>2026-05-04T11:44:59Z</time></trkpt><trkpt lat="41.50163626062689" lon="-0.018688707649911904"><ele>289.3333333333333</ele><time>2026-05-04T11:45:00Z</time></trkpt><trkpt lat="41.50167052007492" lon="-0.018588347831116958"><ele>290.1666666666667</ele><time>2026-05-04T11:45:01Z</time></trkpt><trkpt lat="41.50170934392433" lon="-0.018492494217740324"><ele>291.0</ele><time>2026-05-04T11:45:02Z</time></trkpt><trkpt lat="41.501753065583735" lon="-0.018396787954561837"><ele>291.6666666666667</ele><time>2026-05-04T11:45:03Z</time></trkpt><trkpt lat="41.5017964204295" lon="-0.018297278261765464"><ele>292.3333333333333</ele><time>2026-05-04T11:45:04Z</time></trkpt><trkpt lat="41.501840443528934" lon="-0.018200939287193626"><ele>293.0</ele><time>2026-05-04T11:45:05Z</time></trkpt><trkpt lat="41.501882324521674" lon="-0.018106470671959935"><ele>293.66666666666663</ele><time>2026-05-04T11:45:06Z</time></trkpt><trkpt lat="41.501924950739834" lon="-0.018008003942977375"><ele>294.3333333333333</ele><time>2026-05-04T11:45:07Z</time></trkpt><trkpt lat="41.501967077776065" lon="-0.017911801684813402"><ele>295.0</ele><time>2026-05-04T11:45:08Z</time></trkpt><trkpt lat="41.50201366595436" lon="-0.017809333905326782"><ele>295.0</ele><time>2026-05-04T11:45:09Z</time></trkpt><trkpt lat="41.50206463448404" lon="-0.0177042735791753"><ele>295.0</ele><time>2026-05-04T11:45:10Z</time></trkpt><trkpt lat="41.50211160024382" lon="-0.017607366099137274"><ele>295.0</ele><time>2026-05-04T11:45:11Z</time></trkpt><trkpt lat="41.50216009996784" lon="-0.017505227108821245"><ele>295.0</ele><time>2026-05-04T11:45:12Z</time></trkpt><trkpt lat="41.50221214766831" lon="-0.017403069452453058"><ele>295.0</ele><time>2026-05-04T11:45:13Z</time></trkpt><trkpt lat="41.50225765605397" lon="-0.01729016718279307"><ele>295.2</ele><time>2026-05-04T11:45:14Z</time></trkpt><trkpt lat="41.50230918147204" lon="-0.017171967773823436"><ele>295.4</ele><time>2026-05-04T11:45:15Z</time></trkpt><trkpt lat="41.50236343314294" lon="-0.01705568084223295"><ele>295.6</ele><time>2026-05-04T11:45:16Z</time></trkpt><trkpt lat="41.50241990918715" lon="-0.0169314445266396"><ele>295.8</ele><time>2026-05-04T11:45:17Z</time></trkpt><trkpt lat="41.502482767802206" lon="-0.016819346685308167"><ele>296.0</ele><time>2026-05-04T11:45:18Z</time></trkpt><trkpt lat="41.50254543073313" lon="-0.016690180848686224"><ele>296.2</ele><time>2026-05-04T11:45:19Z</time></trkpt><trkpt lat="41.502602965262746" lon="-0.016559775795453847"><ele>296.40000000000003</ele><time>2026-05-04T11:45:20Z</time></trkpt><trkpt lat="41.50266139206479" lon="-0.016432829110342814"><ele>296.6</ele><time>2026-05-04T11:45:21Z</time></trkpt><trkpt lat="41.502724262888115" lon="-0.016317675589021433"><ele>296.8</ele><time>2026-05-04T11:45:22Z</time></trkpt><trkpt lat="41.50278317379709" lon="-0.016188597411826464"><ele>297.0</ele><time>2026-05-04T11:45:23Z</time></trkpt><trkpt lat="41.50284351086003" lon="-0.016060756354641645"><ele>297.0</ele><time>2026-05-04T11:45:24Z</time></trkpt><trkpt lat="41.502903472612445" lon="-0.015934851286792243"><ele>297.0</ele><time>2026-05-04T11:45:25Z</time></trkpt><trkpt lat="41.50296737892913" lon="-0.015810285892442225"><ele>297.0</ele><time>2026-05-04T11:45:26Z</time></trkpt><trkpt lat="41.50303112040129" lon="-0.015693974635424525"><ele>297.0</ele><time>2026-05-04T11:45:27Z</time></trkpt><trkpt lat="41.50308777541498" lon="-0.015555441653151382"><ele>296.0</ele><time>2026-05-04T11:45:28Z</time></trkpt><trkpt lat="41.50314457968537" lon="-0.015422704948720438"><ele>295.0</ele><time>2026-05-04T11:45:29Z</time></trkpt><trkpt lat="41.50320399460014" lon="-0.015290102181493225"><ele>294.0</ele><time>2026-05-04T11:45:30Z</time></trkpt><trkpt lat="41.50326327862235" lon="-0.015151912433287593"><ele>293.0</ele><time>2026-05-04T11:45:31Z</time></trkpt><trkpt lat="41.5033256145265" lon="-0.015016032703882081"><ele>292.0</ele><time>2026-05-04T11:45:32Z</time></trkpt><trkpt lat="41.50338773590063" lon="-0.014882080269845919"><ele>291.0</ele><time>2026-05-04T11:45:33Z</time></trkpt><trkpt lat="41.50350436446701" lon="-0.01460105514546346"><ele>290.0</ele><time>2026-05-04T11:45:35Z</time></trkpt><trkpt lat="41.50355843019242" lon="-0.014457353832135277"><ele>290.0</ele><time>2026-05-04T11:45:36Z</time></trkpt><trkpt lat="41.50360862598285" lon="-0.01430974307288343"><ele>290.0</ele><time>2026-05-04T11:45:37Z</time></trkpt><trkpt lat="41.5036553564739" lon="-0.014163673847676377"><ele>290.0</ele><time>2026-05-04T11:45:38Z</time></trkpt><trkpt lat="41.50369913936072" lon="-0.014016178792663429"><ele>290.0</ele><time>2026-05-04T11:45:39Z</time></trkpt><trkpt lat="41.503739006089226" lon="-0.013868145884726813"><ele>287.75</ele><time>2026-05-04T11:45:40Z</time></trkpt><trkpt lat="41.503774457239" lon="-0.013716916181476252"><ele>285.5</ele><time>2026-05-04T11:45:41Z</time></trkpt><trkpt lat="41.50380538923493" lon="-0.013565264672959227"><ele>283.25</ele><time>2026-05-04T11:45:42Z</time></trkpt><trkpt lat="41.50383500953383" lon="-0.013412117654417525"><ele>281.0</ele><time>2026-05-04T11:45:43Z</time></trkpt><trkpt lat="41.503857781911464" lon="-0.01325936053253552"><ele>280.5</ele><time>2026-05-04T11:45:44Z</time></trkpt><trkpt lat="41.50387403899326" lon="-0.013103368604782253"><ele>280.0</ele><time>2026-05-04T11:45:45Z</time></trkpt><trkpt lat="41.50389095376692" lon="-0.012947208369468534"><ele>279.5</ele><time>2026-05-04T11:45:46Z</time></trkpt><trkpt lat="41.50390079212577" lon="-0.0127893503550897"><ele>279.0</ele><time>2026-05-04T11:45:47.001Z</time></trkpt><trkpt lat="41.50390847798747" lon="-0.01263796550129326"><ele>278.75</ele><time>2026-05-04T11:45:48.001Z</time></trkpt><trkpt lat="41.50391098598475" lon="-0.01248325600001845"><ele>278.5</ele><time>2026-05-04T11:45:49.001Z</time></trkpt><trkpt lat="41.50391648997365" lon="-0.012326268767993906"><ele>278.25</ele><time>2026-05-04T11:45:50.001Z</time></trkpt><trkpt lat="41.503912308351104" lon="-0.01217014615778719"><ele>278.0</ele><time>2026-05-04T11:45:51.001Z</time></trkpt><trkpt lat="41.50390425174533" lon="-0.012016506639041096"><ele>278.0</ele><time>2026-05-04T11:45:52.001Z</time></trkpt><trkpt lat="41.50389451515043" lon="-0.011858328279921537"><ele>278.0</ele><time>2026-05-04T11:45:53.001Z</time></trkpt><trkpt lat="41.50388098042185" lon="-0.01170052688391976"><ele>278.0</ele><time>2026-05-04T11:45:54.001Z</time></trkpt><trkpt lat="41.50386438771756" lon="-0.011545581512178466"><ele>278.0</ele><time>2026-05-04T11:45:55.001Z</time></trkpt><trkpt lat="41.50384677894763" lon="-0.011389316065528923"><ele>276.75</ele><time>2026-05-04T11:45:56.001Z</time></trkpt><trkpt lat="41.503812596819806" lon="-0.011234405326024523"><ele>275.5</ele><time>2026-05-04T11:45:57.001Z</time></trkpt><trkpt lat="41.50378929308687" lon="-0.011084361343872681"><ele>274.25</ele><time>2026-05-04T11:45:58.001Z</time></trkpt><trkpt lat="41.50376270196203" lon="-0.010932549008925659"><ele>273.0</ele><time>2026-05-04T11:45:59.001Z</time></trkpt><trkpt lat="41.503737654859826" lon="-0.010776079815748317"><ele>271.5</ele><time>2026-05-04T11:46:00.001Z</time></trkpt><trkpt lat="41.50371195244355" lon="-0.010619801911148738"><ele>270.0</ele><time>2026-05-04T11:46:01.001Z</time></trkpt><trkpt lat="41.503684468239655" lon="-0.010461617941401977"><ele>268.5</ele><time>2026-05-04T11:46:02.001Z</time></trkpt><trkpt lat="41.50365713040561" lon="-0.010303032368679613"><ele>267.0</ele><time>2026-05-04T11:46:03.001Z</time></trkpt><trkpt lat="41.503628663194185" lon="-0.010146807490791433"><ele>267.0</ele><time>2026-05-04T11:46:04.001Z</time></trkpt><trkpt lat="41.503604934027265" lon="-0.009992207216319127"><ele>267.0</ele><time>2026-05-04T11:46:05.001Z</time></trkpt><trkpt lat="41.503583001669625" lon="-0.009834376360033521"><ele>267.0</ele><time>2026-05-04T11:46:06.001Z</time></trkpt><trkpt lat="41.503556144178994" lon="-0.009678036751279644"><ele>267.0</ele><time>2026-05-04T11:46:07.001Z</time></trkpt><trkpt lat="41.503530895544344" lon="-0.009526356309663678"><ele>266.5</ele><time>2026-05-04T11:46:08.001Z</time></trkpt><trkpt lat="41.50350460739178" lon="-0.00937194621504001"><ele>266.0</ele><time>2026-05-04T11:46:09.001Z</time></trkpt><trkpt lat="41.50347762563823" lon="-0.009220399527243794"><ele>265.5</ele><time>2026-05-04T11:46:10.001Z</time></trkpt><trkpt lat="41.50345208261945" lon="-0.009071422046503571"><ele>265.0</ele><time>2026-05-04T11:46:11.001Z</time></trkpt><trkpt lat="41.503429183527956" lon="-0.008920773436365407"><ele>266.25</ele><time>2026-05-04T11:46:12.001Z</time></trkpt><trkpt lat="41.50340560118396" lon="-0.008772834152696422"><ele>267.5</ele><time>2026-05-04T11:46:13.001Z</time></trkpt><trkpt lat="41.503371580762405" lon="-0.008625100340005253"><ele>268.75</ele><time>2026-05-04T11:46:14.001Z</time></trkpt><trkpt lat="41.503337829222616" lon="-0.008486982195102227"><ele>270.0</ele><time>2026-05-04T11:46:15.001Z</time></trkpt><trkpt lat="41.50330818264269" lon="-0.008339635122603101"><ele>271.4</ele><time>2026-05-04T11:46:16.001Z</time></trkpt><trkpt lat="41.50328473790254" lon="-0.008200193354532643"><ele>272.8</ele><time>2026-05-04T11:46:17.001Z</time></trkpt><trkpt lat="41.5032571041347" lon="-0.008059099584557874"><ele>274.2</ele><time>2026-05-04T11:46:18.001Z</time></trkpt><trkpt lat="41.5032373637372" lon="-0.007916307033115428"><ele>275.6</ele><time>2026-05-04T11:46:19.001Z</time></trkpt><trkpt lat="41.50321784390273" lon="-0.007774905479308734"><ele>277.0</ele><time>2026-05-04T11:46:20.001Z</time></trkpt><trkpt lat="41.50319561988796" lon="-0.007636454387775075"><ele>277.0</ele><time>2026-05-04T11:46:21.001Z</time></trkpt><trkpt lat="41.50316891838139" lon="-0.00749758359814745"><ele>277.0</ele><time>2026-05-04T11:46:22.001Z</time></trkpt><trkpt lat="41.503141177451575" lon="-0.007360023947268898"><ele>277.0</ele><time>2026-05-04T11:46:23.001Z</time></trkpt><trkpt lat="41.50312148533956" lon="-0.007227771493792984"><ele>277.0</ele><time>2026-05-04T11:46:24.001Z</time></trkpt><trkpt lat="41.50310193993926" lon="-0.007092889651625787"><ele>277.0</ele><time>2026-05-04T11:46:25.001Z</time></trkpt><trkpt lat="41.503076373373474" lon="-0.006955089685957288"><ele>277.2</ele><time>2026-05-04T11:46:26.001Z</time></trkpt><trkpt lat="41.50305513668615" lon="-0.0068182198106442405"><ele>277.4</ele><time>2026-05-04T11:46:27.001Z</time></trkpt><trkpt lat="41.50303006063924" lon="-0.006678269167015533"><ele>277.6</ele><time>2026-05-04T11:46:28.001Z</time></trkpt><trkpt lat="41.50300573156275" lon="-0.006535720526517727"><ele>277.8</ele><time>2026-05-04T11:46:29.001Z</time></trkpt><trkpt lat="41.5029824869862" lon="-0.006392518979854312"><ele>278.0</ele><time>2026-05-04T11:46:30.001Z</time></trkpt><trkpt lat="41.50295034715484" lon="-0.006243654775243296"><ele>277.4</ele><time>2026-05-04T11:46:31.001Z</time></trkpt><trkpt lat="41.50292978276245" lon="-0.00609504684606562"><ele>276.8</ele><time>2026-05-04T11:46:32.001Z</time></trkpt><trkpt lat="41.50290888901782" lon="-0.0059505593991494524"><ele>276.2</ele><time>2026-05-04T11:46:33.001Z</time></trkpt><trkpt lat="41.50287977308174" lon="-0.005807253264607884"><ele>275.6</ele><time>2026-05-04T11:46:34.001Z</time></trkpt><trkpt lat="41.50285271630261" lon="-0.005660372824421146"><ele>275.0</ele><time>2026-05-04T11:46:35.001Z</time></trkpt><trkpt lat="41.50282622350635" lon="-0.005515789555300338"><ele>274.6</ele><time>2026-05-04T11:46:36.001Z</time></trkpt><trkpt lat="41.50280462984097" lon="-0.00536800313025738"><ele>274.2</ele><time>2026-05-04T11:46:37.001Z</time></trkpt><trkpt lat="41.502800264186824" lon="-0.005215652713640366"><ele>273.8</ele><time>2026-05-04T11:46:38.001Z</time></trkpt><trkpt lat="41.50276533084178" lon="-0.005053880766584732"><ele>273.4</ele><time>2026-05-04T11:46:39.001Z</time></trkpt><trkpt lat="41.50274528619362" lon="-0.004939366550770568"><ele>273.0</ele><time>2026-05-04T11:46:40.001Z</time></trkpt><trkpt lat="41.50270649155306" lon="-0.004789126759399157"><ele>273.0</ele><time>2026-05-04T11:46:41.001Z</time></trkpt><trkpt lat="41.50268096882517" lon="-0.0046450725776346095"><ele>273.0</ele><time>2026-05-04T11:46:42.001Z</time></trkpt><trkpt lat="41.50265541776433" lon="-0.004501806193787254"><ele>273.0</ele><time>2026-05-04T11:46:43Z</time></trkpt><trkpt lat="41.50263495452284" lon="-0.0043512452693159585"><ele>273.0</ele><time>2026-05-04T11:46:44Z</time></trkpt><trkpt lat="41.50261473720465" lon="-0.004208225242388727"><ele>273.0</ele><time>2026-05-04T11:46:45Z</time></trkpt><trkpt lat="41.50259365176638" lon="-0.004067242068021608"><ele>273.8</ele><time>2026-05-04T11:46:46Z</time></trkpt><trkpt lat="41.50257970227275" lon="-0.003925344405494435"><ele>274.6</ele><time>2026-05-04T11:46:47Z</time></trkpt><trkpt lat="41.50256319221601" lon="-0.0037808855136303044"><ele>275.4</ele><time>2026-05-04T11:46:48Z</time></trkpt><trkpt lat="41.50255510313145" lon="-0.0036412591082400493"><ele>276.2</ele><time>2026-05-04T11:46:49Z</time></trkpt><trkpt lat="41.50254677287592" lon="-0.0034999507477585286"><ele>277.0</ele><time>2026-05-04T11:46:50Z</time></trkpt><trkpt lat="41.50254027256455" lon="-0.0033625770186925122"><ele>277.8</ele><time>2026-05-04T11:46:51Z</time></trkpt><trkpt lat="41.50253431386207" lon="-0.0032218414159527107"><ele>278.6</ele><time>2026-05-04T11:46:52Z</time></trkpt><trkpt lat="41.50252878289714" lon="-0.0030832829951784515"><ele>279.40000000000003</ele><time>2026-05-04T11:46:53Z</time></trkpt><trkpt lat="41.50252788674804" lon="-0.002944960584559322"><ele>280.2</ele><time>2026-05-04T11:46:54Z</time></trkpt><trkpt lat="41.50252689067678" lon="-0.002808824566330183"><ele>281.0</ele><time>2026-05-04T11:46:55Z</time></trkpt><trkpt lat="41.50252343066463" lon="-0.002672004006840799"><ele>281.0</ele><time>2026-05-04T11:46:56Z</time></trkpt><trkpt lat="41.50252364278228" lon="-0.0025386368403932788"><ele>281.0</ele><time>2026-05-04T11:46:57Z</time></trkpt><trkpt lat="41.5025232271767" lon="-0.0024086704540737403"><ele>281.0</ele><time>2026-05-04T11:46:58Z</time></trkpt><trkpt lat="41.50253018097032" lon="-0.0022801524358070997"><ele>281.0</ele><time>2026-05-04T11:46:59Z</time></trkpt><trkpt lat="41.502532957716696" lon="-0.0021450765359508203"><ele>281.0</ele><time>2026-05-04T11:47:00Z</time></trkpt><trkpt lat="41.5025358172796" lon="-0.002016018073196413"><ele>281.2</ele><time>2026-05-04T11:47:01Z</time></trkpt><trkpt lat="41.50253925921974" lon="-0.001885141882763698"><ele>281.40000000000003</ele><time>2026-05-04T11:47:02Z</time></trkpt><trkpt lat="41.50254323584021" lon="-0.0017577246205172864"><ele>281.6</ele><time>2026-05-04T11:47:03Z</time></trkpt><trkpt lat="41.502541470808644" lon="-0.0016336482267550793"><ele>281.8</ele><time>2026-05-04T11:47:04Z</time></trkpt><trkpt lat="41.50255190375787" lon="-0.0015105893291905627"><ele>282.0</ele><time>2026-05-04T11:47:05Z</time></trkpt><trkpt lat="41.50256158464756" lon="-0.0013871676061878702"><ele>282.6</ele><time>2026-05-04T11:47:06Z</time></trkpt><trkpt lat="41.50257471075511" lon="-0.0012645246816314723"><ele>283.2</ele><time>2026-05-04T11:47:07Z</time></trkpt><trkpt lat="41.50259716786915" lon="-0.0011360305174856532"><ele>283.8</ele><time>2026-05-04T11:47:08Z</time></trkpt><trkpt lat="41.50260956366503" lon="-0.0010241465988240393"><ele>284.4</ele><time>2026-05-04T11:47:09Z</time></trkpt><trkpt lat="41.50263129485878" lon="-9.048114862783481E-4"><ele>285.0</ele><time>2026-05-04T11:47:10Z</time></trkpt><trkpt lat="41.50265290045758" lon="-7.867471951738266E-4"><ele>285.4</ele><time>2026-05-04T11:47:11Z</time></trkpt><trkpt lat="41.50267868573943" lon="-6.73004045906752E-4"><ele>285.8</ele><time>2026-05-04T11:47:12Z</time></trkpt><trkpt lat="41.50271215705844" lon="-5.577227715812053E-4"><ele>286.2</ele><time>2026-05-04T11:47:13Z</time></trkpt><trkpt lat="41.502738526653864" lon="-4.3720292053934026E-4"><ele>286.6</ele><time>2026-05-04T11:47:14Z</time></trkpt><trkpt lat="41.50276509126517" lon="-3.193131508226498E-4"><ele>287.0</ele><time>2026-05-04T11:47:15Z</time></trkpt><trkpt lat="41.50280493764397" lon="-2.117272213938374E-4"><ele>287.0</ele><time>2026-05-04T11:47:16Z</time></trkpt><trkpt lat="41.5028435939198" lon="-8.999176982421928E-5"><ele>287.0</ele><time>2026-05-04T11:47:17Z</time></trkpt><trkpt lat="41.50288148895334" lon="2.452001274703846E-5"><ele>287.0</ele><time>2026-05-04T11:47:18Z</time></trkpt><trkpt lat="41.50291916723351" lon="1.3432965844157167E-4"><ele>287.0</ele><time>2026-05-04T11:47:19Z</time></trkpt><trkpt lat="41.50296664036819" lon="2.487349976747062E-4"><ele>287.0</ele><time>2026-05-04T11:47:20Z</time></trkpt><trkpt lat="41.50301536322116" lon="3.5427493284663817E-4"><ele>288.4</ele><time>2026-05-04T11:47:21Z</time></trkpt><trkpt lat="41.503063578920795" lon="4.6038035308698E-4"><ele>289.79999999999995</ele><time>2026-05-04T11:47:22Z</time></trkpt><trkpt lat="41.50311798125447" lon="5.703465853972423E-4"><ele>291.2</ele><time>2026-05-04T11:47:23Z</time></trkpt><trkpt lat="41.50317006153694" lon="6.748808102903243E-4"><ele>292.59999999999997</ele><time>2026-05-04T11:47:24Z</time></trkpt><trkpt lat="41.50322531794912" lon="7.799818822685634E-4"><ele>294.0</ele><time>2026-05-04T11:47:25Z</time></trkpt><trkpt lat="41.503285993098075" lon="8.800866930174253E-4"><ele>294.0</ele><time>2026-05-04T11:47:26Z</time></trkpt><trkpt lat="41.50334650005903" lon="9.825981159756062E-4"><ele>294.0</ele><time>2026-05-04T11:47:27Z</time></trkpt><trkpt lat="41.50340390886209" lon="0.0010826393351247082"><ele>294.0</ele><time>2026-05-04T11:47:28Z</time></trkpt><trkpt lat="41.50346578388801" lon="0.0011749167721244477"><ele>294.0</ele><time>2026-05-04T11:47:29Z</time></trkpt><trkpt lat="41.50353324054758" lon="0.0012738595900942532"><ele>294.0</ele><time>2026-05-04T11:47:30Z</time></trkpt><trkpt lat="41.503604806873234" lon="0.0013702324192603804"><ele>294.0</ele><time>2026-05-04T11:47:31Z</time></trkpt><trkpt lat="41.50366302814379" lon="0.001458482871149614"><ele>294.0</ele><time>2026-05-04T11:47:32Z</time></trkpt><trkpt lat="41.503728134017926" lon="0.0015563656652436077"><ele>294.0</ele><time>2026-05-04T11:47:33Z</time></trkpt><trkpt lat="41.50379373347556" lon="0.001652529251714378"><ele>294.0</ele><time>2026-05-04T11:47:34Z</time></trkpt><trkpt lat="41.50385557128539" lon="0.0017428044858187077"><ele>294.0</ele><time>2026-05-04T11:47:35Z</time></trkpt><trkpt lat="41.50391774959792" lon="0.0018452145897752343"><ele>295.2</ele><time>2026-05-04T11:47:36Z</time></trkpt><trkpt lat="41.503986508310184" lon="0.0019403246681051565"><ele>296.4</ele><time>2026-05-04T11:47:37Z</time></trkpt><trkpt lat="41.50404661331085" lon="0.002033833954947628"><ele>297.6</ele><time>2026-05-04T11:47:38Z</time></trkpt><trkpt lat="41.504104770214646" lon="0.0021301204078946335"><ele>298.8</ele><time>2026-05-04T11:47:39Z</time></trkpt><trkpt lat="41.504165635709306" lon="0.0022286324399694328"><ele>300.0</ele><time>2026-05-04T11:47:40Z</time></trkpt><trkpt lat="41.504222344134725" lon="0.002327446221470948"><ele>300.0</ele><time>2026-05-04T11:47:41Z</time></trkpt><trkpt lat="41.50427778307592" lon="0.002430704710363433"><ele>300.0</ele><time>2026-05-04T11:47:42Z</time></trkpt><trkpt lat="41.504334390643166" lon="0.0025341374680765867"><ele>300.0</ele><time>2026-05-04T11:47:43Z</time></trkpt><trkpt lat="41.5043920139849" lon="0.00264596321440678"><ele>300.0</ele><time>2026-05-04T11:47:44Z</time></trkpt><trkpt lat="41.50444453387982" lon="0.0027499612862102642"><ele>300.0</ele><time>2026-05-04T11:47:45Z</time></trkpt><trkpt lat="41.50449354739563" lon="0.0028630005206901846"><ele>299.8</ele><time>2026-05-04T11:47:46Z</time></trkpt><trkpt lat="41.504538347011305" lon="0.0029700741094113373"><ele>299.6</ele><time>2026-05-04T11:47:47Z</time></trkpt><trkpt lat="41.50458424603311" lon="0.0030870106369403146"><ele>299.4</ele><time>2026-05-04T11:47:48Z</time></trkpt><trkpt lat="41.504616891660284" lon="0.003203577265245358"><ele>299.2</ele><time>2026-05-04T11:47:49Z</time></trkpt><trkpt lat="41.504665009212005" lon="0.003318192440916227"><ele>299.0</ele><time>2026-05-04T11:47:50Z</time></trkpt><trkpt lat="41.50469358919626" lon="0.003431714958075626"><ele>299.8</ele><time>2026-05-04T11:47:51Z</time></trkpt><trkpt lat="41.504729301238676" lon="0.003547408264248686"><ele>300.59999999999997</ele><time>2026-05-04T11:47:52Z</time></trkpt><trkpt lat="41.50476100427442" lon="0.0036747568639988936"><ele>301.4</ele><time>2026-05-04T11:47:53Z</time></trkpt><trkpt lat="41.50479090874528" lon="0.003786859720594741"><ele>302.2</ele><time>2026-05-04T11:47:54Z</time></trkpt><trkpt lat="41.50481480954124" lon="0.00391251311057301"><ele>303.0</ele><time>2026-05-04T11:47:55Z</time></trkpt><trkpt lat="41.50483941912174" lon="0.004036830668692969"><ele>303.0</ele><time>2026-05-04T11:47:56Z</time></trkpt><trkpt lat="41.504863252014" lon="0.004159128685347702"><ele>303.0</ele><time>2026-05-04T11:47:57Z</time></trkpt><trkpt lat="41.504879439743235" lon="0.004281684231627591"><ele>303.0</ele><time>2026-05-04T11:47:58.001Z</time></trkpt><trkpt lat="41.50489191345447" lon="0.004398129769291056"><ele>303.0</ele><time>2026-05-04T11:47:59.001Z</time></trkpt><trkpt lat="41.50491110574682" lon="0.004528021010532701"><ele>303.0</ele><time>2026-05-04T11:48:00.001Z</time></trkpt><trkpt lat="41.50492337028059" lon="0.004660847006510412"><ele>303.0</ele><time>2026-05-04T11:48:01.001Z</time></trkpt><trkpt lat="41.50492841522166" lon="0.0047812108176643305"><ele>303.0</ele><time>2026-05-04T11:48:02.001Z</time></trkpt><trkpt lat="41.50492482302305" lon="0.004908433988339033"><ele>303.0</ele><time>2026-05-04T11:48:03.001Z</time></trkpt><trkpt lat="41.50493282580893" lon="0.005041045961396793"><ele>303.0</ele><time>2026-05-04T11:48:04.001Z</time></trkpt><trkpt lat="41.504934211469205" lon="0.005169639331802481"><ele>303.0</ele><time>2026-05-04T11:48:05.001Z</time></trkpt><trkpt lat="41.50492714307926" lon="0.005294159778239447"><ele>303.6</ele><time>2026-05-04T11:48:06.001Z</time></trkpt><trkpt lat="41.504923737184264" lon="0.00541938858137148"><ele>304.20000000000005</ele><time>2026-05-04T11:48:07.001Z</time></trkpt><trkpt lat="41.50491737983966" lon="0.005548816834736032"><ele>304.8</ele><time>2026-05-04T11:48:08.001Z</time></trkpt><trkpt lat="41.50490573558014" lon="0.005678035562888517"><ele>305.40000000000003</ele><time>2026-05-04T11:48:09.001Z</time></trkpt><trkpt lat="41.50489715079193" lon="0.005808324417888912"><ele>306.0</ele><time>2026-05-04T11:48:10.001Z</time></trkpt><trkpt lat="41.50488883508488" lon="0.0059368574144001394"><ele>306.6</ele><time>2026-05-04T11:48:11.001Z</time></trkpt><trkpt lat="41.504875128680105" lon="0.006063681605781861"><ele>307.20000000000005</ele><time>2026-05-04T11:48:12.001Z</time></trkpt><trkpt lat="41.50486389687154" lon="0.0062001816200036326"><ele>307.79999999999995</ele><time>2026-05-04T11:48:13.001Z</time></trkpt><trkpt lat="41.5048506301405" lon="0.006331428989577276"><ele>308.4</ele><time>2026-05-04T11:48:14.001Z</time></trkpt><trkpt lat="41.50483416163905" lon="0.006459086220583945"><ele>309.0</ele><time>2026-05-04T11:48:15.001Z</time></trkpt><trkpt lat="41.50481702347688" lon="0.006594895418189005"><ele>309.4</ele><time>2026-05-04T11:48:16.001Z</time></trkpt><trkpt lat="41.5048075205765" lon="0.006731563879127239"><ele>309.79999999999995</ele><time>2026-05-04T11:48:17.001Z</time></trkpt><trkpt lat="41.5047924664044" lon="0.006865958802295687"><ele>310.20000000000005</ele><time>2026-05-04T11:48:18.001Z</time></trkpt><trkpt lat="41.50477735990682" lon="0.007001264759808425"><ele>310.6</ele><time>2026-05-04T11:48:19.001Z</time></trkpt><trkpt lat="41.50476212397888" lon="0.0071331745444053775"><ele>311.0</ele><time>2026-05-04T11:48:20.001Z</time></trkpt><trkpt lat="41.50475355367899" lon="0.00727214546748089"><ele>311.0</ele><time>2026-05-04T11:48:21.001Z</time></trkpt><trkpt lat="41.504737497659384" lon="0.0074066155433659695"><ele>311.0</ele><time>2026-05-04T11:48:22.001Z</time></trkpt><trkpt lat="41.504724691918966" lon="0.00754749281301235"><ele>311.0</ele><time>2026-05-04T11:48:23.001Z</time></trkpt><trkpt lat="41.50470611810762" lon="0.0076789650943309435"><ele>311.0</ele><time>2026-05-04T11:48:24.001Z</time></trkpt><trkpt lat="41.50469576355357" lon="0.007817258470738882"><ele>311.0</ele><time>2026-05-04T11:48:25.001Z</time></trkpt><trkpt lat="41.50468030371892" lon="0.007957903581857542"><ele>311.2</ele><time>2026-05-04T11:48:26.001Z</time></trkpt><trkpt lat="41.50465678709915" lon="0.008099499791452181"><ele>311.40000000000003</ele><time>2026-05-04T11:48:27.001Z</time></trkpt><trkpt lat="41.50463739452688" lon="0.008244891763395363"><ele>311.6</ele><time>2026-05-04T11:48:28.001Z</time></trkpt><trkpt lat="41.50463204913784" lon="0.00838902223693631"><ele>311.8</ele><time>2026-05-04T11:48:29.001Z</time></trkpt><trkpt lat="41.504616721884794" lon="0.008540602964163055"><ele>312.0</ele><time>2026-05-04T11:48:30.001Z</time></trkpt><trkpt lat="41.50459396735367" lon="0.008694625095784168"><ele>312.25</ele><time>2026-05-04T11:48:31.001Z</time></trkpt><trkpt lat="41.50457679901502" lon="0.008853621959748946"><ele>312.5</ele><time>2026-05-04T11:48:32.001Z</time></trkpt><trkpt lat="41.50456176796661" lon="0.009014669715596077"><ele>312.75</ele><time>2026-05-04T11:48:33.001Z</time></trkpt><trkpt lat="41.50454565036084" lon="0.009172608501653898"><ele>313.0</ele><time>2026-05-04T11:48:34.001Z</time></trkpt><trkpt lat="41.5045308686186" lon="0.009330116981250523"><ele>312.5</ele><time>2026-05-04T11:48:35.001Z</time></trkpt><trkpt lat="41.50451656020008" lon="0.00948667242257576"><ele>312.0</ele><time>2026-05-04T11:48:36.001Z</time></trkpt><trkpt lat="41.50450149017509" lon="0.009641910505753483"><ele>311.5</ele><time>2026-05-04T11:48:37.001Z</time></trkpt><trkpt lat="41.504481269848455" lon="0.009795070206112071"><ele>311.0</ele><time>2026-05-04T11:48:38.001Z</time></trkpt><trkpt lat="41.50446961931669" lon="0.009953796402148548"><ele>310.5</ele><time>2026-05-04T11:48:39.001Z</time></trkpt><trkpt lat="41.50445196748392" lon="0.01010911566972927"><ele>310.0</ele><time>2026-05-04T11:48:40.001Z</time></trkpt><trkpt lat="41.50443692759922" lon="0.0102627483478326"><ele>309.5</ele><time>2026-05-04T11:48:41.001Z</time></trkpt><trkpt lat="41.50442195227561" lon="0.010419062693090288"><ele>309.0</ele><time>2026-05-04T11:48:42.001Z</time></trkpt><trkpt lat="41.50440353348616" lon="0.010570790975894204"><ele>309.0</ele><time>2026-05-04T11:48:43.001Z</time></trkpt><trkpt lat="41.50438988975421" lon="0.010725651269569472"><ele>309.0</ele><time>2026-05-04T11:48:44.001Z</time></trkpt><trkpt lat="41.50437637239824" lon="0.01088193254020587"><ele>309.0</ele><time>2026-05-04T11:48:45.001Z</time></trkpt><trkpt lat="41.50435600645144" lon="0.01102948562210202"><ele>309.0</ele><time>2026-05-04T11:48:46.001Z</time></trkpt><trkpt lat="41.50433820231347" lon="0.011181924143614703"><ele>309.25</ele><time>2026-05-04T11:48:47.001Z</time></trkpt><trkpt lat="41.50432335310009" lon="0.011333886870608316"><ele>309.5</ele><time>2026-05-04T11:48:48.001Z</time></trkpt><trkpt lat="41.50431271879388" lon="0.011482042747869889"><ele>309.75</ele><time>2026-05-04T11:48:49Z</time></trkpt><trkpt lat="41.50429604091735" lon="0.011630343409946677"><ele>310.0</ele><time>2026-05-04T11:48:50Z</time></trkpt><trkpt lat="41.50427986812323" lon="0.011779476014748082"><ele>310.0</ele><time>2026-05-04T11:48:51Z</time></trkpt><trkpt lat="41.504265696695654" lon="0.011932962978858751"><ele>310.0</ele><time>2026-05-04T11:48:52Z</time></trkpt><trkpt lat="41.50424900466306" lon="0.012084036261234922"><ele>310.0</ele><time>2026-05-04T11:48:53Z</time></trkpt><trkpt lat="41.50423272030388" lon="0.012236531221846704"><ele>310.0</ele><time>2026-05-04T11:48:54Z</time></trkpt><trkpt lat="41.50421497870184" lon="0.012388026575300042"><ele>310.25</ele><time>2026-05-04T11:48:55Z</time></trkpt><trkpt lat="41.504193956160435" lon="0.012535613181767486"><ele>310.5</ele><time>2026-05-04T11:48:56Z</time></trkpt><trkpt lat="41.50418194355833" lon="0.012694779234445208"><ele>310.75</ele><time>2026-05-04T11:48:57Z</time></trkpt><trkpt lat="41.50416761813492" lon="0.01285072510777836"><ele>311.0</ele><time>2026-05-04T11:48:58Z</time></trkpt><trkpt lat="41.50415222737897" lon="0.013004687202475239"><ele>311.0</ele><time>2026-05-04T11:48:59Z</time></trkpt><trkpt lat="41.50413792884029" lon="0.013158014760474396"><ele>311.0</ele><time>2026-05-04T11:49:00Z</time></trkpt><trkpt lat="41.50412131231674" lon="0.013313134222853806"><ele>311.0</ele><time>2026-05-04T11:49:01Z</time></trkpt><trkpt lat="41.504102845717185" lon="0.013467729545705685"><ele>311.0</ele><time>2026-05-04T11:49:02Z</time></trkpt><trkpt lat="41.504086736339865" lon="0.013624752743781113"><ele>310.75</ele><time>2026-05-04T11:49:03Z</time></trkpt><trkpt lat="41.504071570097885" lon="0.013782027953291798"><ele>310.5</ele><time>2026-05-04T11:49:04Z</time></trkpt><trkpt lat="41.504058655186995" lon="0.013940381355098888"><ele>310.25</ele><time>2026-05-04T11:49:05Z</time></trkpt><trkpt lat="41.50404235132035" lon="0.014095512370289037"><ele>310.0</ele><time>2026-05-04T11:49:06Z</time></trkpt><trkpt lat="41.50402772848055" lon="0.014249961353170975"><ele>309.75</ele><time>2026-05-04T11:49:07Z</time></trkpt><trkpt lat="41.50401153644133" lon="0.014407365959889992"><ele>309.5</ele><time>2026-05-04T11:49:08Z</time></trkpt><trkpt lat="41.50399732644204" lon="0.014564628798403662"><ele>309.25</ele><time>2026-05-04T11:49:09Z</time></trkpt><trkpt lat="41.50398079714825" lon="0.014721422917416708"><ele>309.0</ele><time>2026-05-04T11:49:10Z</time></trkpt><trkpt lat="41.503963840650755" lon="0.014878600025717417"><ele>308.25</ele><time>2026-05-04T11:49:11Z</time></trkpt><trkpt lat="41.503945836767315" lon="0.015034091600521009"><ele>307.5</ele><time>2026-05-04T11:49:12Z</time></trkpt><trkpt lat="41.50392930555092" lon="0.015193614191296261"><ele>306.75</ele><time>2026-05-04T11:49:13Z</time></trkpt><trkpt lat="41.50391040190049" lon="0.015351090986430393"><ele>306.0</ele><time>2026-05-04T11:49:14Z</time></trkpt><trkpt lat="41.50389133699562" lon="0.015507478426821382"><ele>306.0</ele><time>2026-05-04T11:49:15Z</time></trkpt><trkpt lat="41.50387359815866" lon="0.01566266678698695"><ele>306.0</ele><time>2026-05-04T11:49:16Z</time></trkpt><trkpt lat="41.503854555592945" lon="0.01582689686666567"><ele>306.0</ele><time>2026-05-04T11:49:17Z</time></trkpt><trkpt lat="41.50383371869023" lon="0.015984593385462466"><ele>306.0</ele><time>2026-05-04T11:49:18Z</time></trkpt><trkpt lat="41.50381344435429" lon="0.016141169898359425"><ele>306.25</ele><time>2026-05-04T11:49:19Z</time></trkpt><trkpt lat="41.50379347441132" lon="0.016298072175758772"><ele>306.5</ele><time>2026-05-04T11:49:20Z</time></trkpt><trkpt lat="41.503770613011234" lon="0.01645172587082062"><ele>306.75</ele><time>2026-05-04T11:49:21Z</time></trkpt><trkpt lat="41.50374862606021" lon="0.01661080860961016"><ele>307.0</ele><time>2026-05-04T11:49:22Z</time></trkpt><trkpt lat="41.503727518151784" lon="0.016769981005771515"><ele>307.0</ele><time>2026-05-04T11:49:23Z</time></trkpt><trkpt lat="41.50370471529102" lon="0.016927436395129305"><ele>307.0</ele><time>2026-05-04T11:49:24Z</time></trkpt><trkpt lat="41.50368434287953" lon="0.017085154095526328"><ele>307.0</ele><time>2026-05-04T11:49:25Z</time></trkpt><trkpt lat="41.50366089920225" lon="0.01724293453457258"><ele>307.0</ele><time>2026-05-04T11:49:26Z</time></trkpt><trkpt lat="41.50363928346947" lon="0.017403030237801407"><ele>305.25</ele><time>2026-05-04T11:49:27Z</time></trkpt><trkpt lat="41.50361993685213" lon="0.017559283073000087"><ele>303.5</ele><time>2026-05-04T11:49:28Z</time></trkpt><trkpt lat="41.50359831183944" lon="0.01771603144854074"><ele>301.75</ele><time>2026-05-04T11:49:29Z</time></trkpt><trkpt lat="41.50357724802701" lon="0.01787630123074098"><ele>300.0</ele><time>2026-05-04T11:49:30Z</time></trkpt><trkpt lat="41.50356011839251" lon="0.01803813554359033"><ele>300.0</ele><time>2026-05-04T11:49:31Z</time></trkpt><trkpt lat="41.503538000552766" lon="0.01819532736821353"><ele>300.0</ele><time>2026-05-04T11:49:32Z</time></trkpt><trkpt lat="41.50351735939867" lon="0.01834940580119886"><ele>300.0</ele><time>2026-05-04T11:49:33Z</time></trkpt><trkpt lat="41.503496524475786" lon="0.01850497734147368"><ele>300.0</ele><time>2026-05-04T11:49:34Z</time></trkpt><trkpt lat="41.50347673943659" lon="0.018654699452453728"><ele>298.25</ele><time>2026-05-04T11:49:35Z</time></trkpt><trkpt lat="41.5034631818192" lon="0.018807806971417002"><ele>296.5</ele><time>2026-05-04T11:49:36Z</time></trkpt><trkpt lat="41.50344303252298" lon="0.01896665688248447"><ele>294.75</ele><time>2026-05-04T11:49:37Z</time></trkpt><trkpt lat="41.50343161861085" lon="0.019116023905924675"><ele>293.0</ele><time>2026-05-04T11:49:38Z</time></trkpt><trkpt lat="41.50339089399896" lon="0.019274068131475162"><ele>292.25</ele><time>2026-05-04T11:49:39Z</time></trkpt><trkpt lat="41.503370475199" lon="0.01943152197668842"><ele>291.5</ele><time>2026-05-04T11:49:40Z</time></trkpt><trkpt lat="41.503347539774694" lon="0.019588329844714633"><ele>290.75</ele><time>2026-05-04T11:49:41Z</time></trkpt><trkpt lat="41.50332453530033" lon="0.019744336938227622"><ele>290.0</ele><time>2026-05-04T11:49:42Z</time></trkpt><trkpt lat="41.50330324604875" lon="0.0198990716146023"><ele>289.25</ele><time>2026-05-04T11:49:43Z</time></trkpt><trkpt lat="41.503282551605835" lon="0.020052974446861063"><ele>288.5</ele><time>2026-05-04T11:49:44Z</time></trkpt><trkpt lat="41.503261886749286" lon="0.02020934426879596"><ele>287.75</ele><time>2026-05-04T11:49:45Z</time></trkpt><trkpt lat="41.50323928489317" lon="0.020361360052790153"><ele>287.0</ele><time>2026-05-04T11:49:46Z</time></trkpt><trkpt lat="41.5032168447142" lon="0.020514384478171416"><ele>287.0</ele><time>2026-05-04T11:49:47Z</time></trkpt><trkpt lat="41.50319893250535" lon="0.020662105698213907"><ele>287.0</ele><time>2026-05-04T11:49:48Z</time></trkpt><trkpt lat="41.503178584622695" lon="0.020810866089424788"><ele>287.0</ele><time>2026-05-04T11:49:49Z</time></trkpt><trkpt lat="41.503157937731665" lon="0.02096149933501753"><ele>287.0</ele><time>2026-05-04T11:49:50Z</time></trkpt><trkpt lat="41.5031353201841" lon="0.02110586632019168"><ele>286.75</ele><time>2026-05-04T11:49:51Z</time></trkpt><trkpt lat="41.50311845345193" lon="0.021253701622349148"><ele>286.5</ele><time>2026-05-04T11:49:52Z</time></trkpt><trkpt lat="41.503099474219184" lon="0.02140317247083264"><ele>286.25</ele><time>2026-05-04T11:49:53Z</time></trkpt><trkpt lat="41.50307722364811" lon="0.02155345783186493"><ele>286.0</ele><time>2026-05-04T11:49:54Z</time></trkpt><trkpt lat="41.503057733043555" lon="0.02170549792392623"><ele>285.5</ele><time>2026-05-04T11:49:55Z</time></trkpt><trkpt lat="41.503035883268865" lon="0.02185540903538839"><ele>285.0</ele><time>2026-05-04T11:49:56Z</time></trkpt><trkpt lat="41.50301364455849" lon="0.022007984806994573"><ele>284.5</ele><time>2026-05-04T11:49:57Z</time></trkpt><trkpt lat="41.50299362714028" lon="0.022157748557934582"><ele>284.0</ele><time>2026-05-04T11:49:58Z</time></trkpt><trkpt lat="41.50297215664241" lon="0.02231452526036474"><ele>284.0</ele><time>2026-05-04T11:49:59Z</time></trkpt><trkpt lat="41.5029507901014" lon="0.022466683694664254"><ele>284.0</ele><time>2026-05-04T11:50:00Z</time></trkpt><trkpt lat="41.502930749347904" lon="0.02261898984197798"><ele>284.0</ele><time>2026-05-04T11:50:01Z</time></trkpt><trkpt lat="41.50291306407562" lon="0.022772998259713233"><ele>284.0</ele><time>2026-05-04T11:50:02.001Z</time></trkpt><trkpt lat="41.502893909608865" lon="0.02292810203142"><ele>283.75</ele><time>2026-05-04T11:50:03.001Z</time></trkpt><trkpt lat="41.50287371083562" lon="0.0230832736925352"><ele>283.5</ele><time>2026-05-04T11:50:04.001Z</time></trkpt><trkpt lat="41.502854979854796" lon="0.02323594114986819"><ele>283.25</ele><time>2026-05-04T11:50:05.001Z</time></trkpt><trkpt lat="41.50283047883371" lon="0.02338944157587266"><ele>283.0</ele><time>2026-05-04T11:50:06.001Z</time></trkpt><trkpt lat="41.502810426632244" lon="0.023546600591554938"><ele>283.0</ele><time>2026-05-04T11:50:07.001Z</time></trkpt><trkpt lat="41.50278882657051" lon="0.023703320982572475"><ele>283.0</ele><time>2026-05-04T11:50:08.001Z</time></trkpt><trkpt lat="41.50276899425013" lon="0.02385802368176083"><ele>283.0</ele><time>2026-05-04T11:50:09.001Z</time></trkpt><trkpt lat="41.50274799548344" lon="0.024013153866585025"><ele>283.0</ele><time>2026-05-04T11:50:10.001Z</time></trkpt><trkpt lat="41.50272352399099" lon="0.02416918991856882"><ele>282.5</ele><time>2026-05-04T11:50:11.001Z</time></trkpt><trkpt lat="41.50270189740882" lon="0.024324611293927215"><ele>282.0</ele><time>2026-05-04T11:50:12.001Z</time></trkpt><trkpt lat="41.502682718862815" lon="0.024481479361019798"><ele>281.5</ele><time>2026-05-04T11:50:13.001Z</time></trkpt><trkpt lat="41.5026626117177" lon="0.024638449699713152"><ele>281.0</ele><time>2026-05-04T11:50:14.001Z</time></trkpt><trkpt lat="41.50264182700123" lon="0.02479512911862694"><ele>281.0</ele><time>2026-05-04T11:50:15.001Z</time></trkpt><trkpt lat="41.50261859020029" lon="0.0249476254521932"><ele>281.0</ele><time>2026-05-04T11:50:16.001Z</time></trkpt><trkpt lat="41.50259463395299" lon="0.02509945044480564"><ele>281.0</ele><time>2026-05-04T11:50:17.001Z</time></trkpt><trkpt lat="41.50257969016493" lon="0.025253966780977244"><ele>281.0</ele><time>2026-05-04T11:50:18.001Z</time></trkpt><trkpt lat="41.502557377543845" lon="0.025407649280061326"><ele>281.0</ele><time>2026-05-04T11:50:19.001Z</time></trkpt><trkpt lat="41.50253927421939" lon="0.025557748769202835"><ele>281.0</ele><time>2026-05-04T11:50:20.001Z</time></trkpt><trkpt lat="41.5025134926251" lon="0.02570857115714351"><ele>281.0</ele><time>2026-05-04T11:50:21.001Z</time></trkpt><trkpt lat="41.50249094333277" lon="0.025862439336517617"><ele>281.0</ele><time>2026-05-04T11:50:22.001Z</time></trkpt><trkpt lat="41.50247231279568" lon="0.026017024604097952"><ele>281.0</ele><time>2026-05-04T11:50:23.001Z</time></trkpt><trkpt lat="41.502451536879605" lon="0.026167755786065432"><ele>281.0</ele><time>2026-05-04T11:50:24.001Z</time></trkpt><trkpt lat="41.50243261394285" lon="0.026317492750847746"><ele>281.0</ele><time>2026-05-04T11:50:25.001Z</time></trkpt><trkpt lat="41.50241235600212" lon="0.02647297144496418"><ele>281.0</ele><time>2026-05-04T11:50:26.001Z</time></trkpt><trkpt lat="41.502387255296824" lon="0.026629412916011477"><ele>281.25</ele><time>2026-05-04T11:50:27.001Z</time></trkpt><trkpt lat="41.502368989752" lon="0.02677883721723691"><ele>281.5</ele><time>2026-05-04T11:50:28.001Z</time></trkpt><trkpt lat="41.50235452879152" lon="0.026926565376661778"><ele>281.75</ele><time>2026-05-04T11:50:29.001Z</time></trkpt><trkpt lat="41.50233119586873" lon="0.027077612373810768"><ele>282.0</ele><time>2026-05-04T11:50:30.001Z</time></trkpt><trkpt lat="41.50231038454855" lon="0.027227036981845514"><ele>282.0</ele><time>2026-05-04T11:50:31.001Z</time></trkpt><trkpt lat="41.50228710484439" lon="0.02737252199629346"><ele>282.0</ele><time>2026-05-04T11:50:32.001Z</time></trkpt><trkpt lat="41.50226604855591" lon="0.027528249854435825"><ele>282.0</ele><time>2026-05-04T11:50:33.001Z</time></trkpt><trkpt lat="41.50224203185666" lon="0.027658671647894834"><ele>282.0</ele><time>2026-05-04T11:50:34.001Z</time></trkpt><trkpt lat="41.502232945942694" lon="0.02780850064182196"><ele>282.0</ele><time>2026-05-04T11:50:35.001Z</time></trkpt><trkpt lat="41.50220910578637" lon="0.027952949729162777"><ele>282.6</ele><time>2026-05-04T11:50:36.001Z</time></trkpt><trkpt lat="41.502187255114286" lon="0.02809848070741123"><ele>283.2</ele><time>2026-05-04T11:50:37.001Z</time></trkpt><trkpt lat="41.50216797794985" lon="0.028241330240986535"><ele>283.8</ele><time>2026-05-04T11:50:38.001Z</time></trkpt><trkpt lat="41.5021503060881" lon="0.02838215831936011"><ele>284.4</ele><time>2026-05-04T11:50:39.001Z</time></trkpt><trkpt lat="41.50213094310881" lon="0.02852742661655844"><ele>285.0</ele><time>2026-05-04T11:50:40.001Z</time></trkpt><trkpt lat="41.50210924009292" lon="0.028670833628367514"><ele>285.2</ele><time>2026-05-04T11:50:41.001Z</time></trkpt><trkpt lat="41.50209866386825" lon="0.028815988537614096"><ele>285.4</ele><time>2026-05-04T11:50:42.001Z</time></trkpt><trkpt lat="41.50207407191239" lon="0.028958663848603905"><ele>285.6</ele><time>2026-05-04T11:50:43.001Z</time></trkpt><trkpt lat="41.50205046524433" lon="0.029104099730493774"><ele>285.8</ele><time>2026-05-04T11:50:44.001Z</time></trkpt><trkpt lat="41.50203435939917" lon="0.029249709618243334"><ele>286.0</ele><time>2026-05-04T11:50:45.001Z</time></trkpt><trkpt lat="41.502015488549986" lon="0.02939553600381584"><ele>286.6</ele><time>2026-05-04T11:50:46.001Z</time></trkpt><trkpt lat="41.50199545836626" lon="0.02953656966986789"><ele>287.20000000000005</ele><time>2026-05-04T11:50:47.001Z</time></trkpt><trkpt lat="41.501977040624" lon="0.02968429417959955"><ele>287.79999999999995</ele><time>2026-05-04T11:50:48.001Z</time></trkpt><trkpt lat="41.501957417521105" lon="0.02982467581093038"><ele>288.4</ele><time>2026-05-04T11:50:49.001Z</time></trkpt><trkpt lat="41.50194778224872" lon="0.02998627608382727"><ele>289.0</ele><time>2026-05-04T11:50:50.001Z</time></trkpt><trkpt lat="41.501925878238815" lon="0.03011892778122359"><ele>289.25</ele><time>2026-05-04T11:50:51.001Z</time></trkpt><trkpt lat="41.50189075369654" lon="0.0302174366545797"><ele>289.5</ele><time>2026-05-04T11:50:52.001Z</time></trkpt><trkpt lat="41.50186973202098" lon="0.030421645484441335"><ele>289.75</ele><time>2026-05-04T11:50:53.001Z</time></trkpt><trkpt lat="41.501850580164444" lon="0.030570461825598312"><ele>290.0</ele><time>2026-05-04T11:50:54.001Z</time></trkpt><trkpt lat="41.50183811031836" lon="0.030721754999781893"><ele>289.75</ele><time>2026-05-04T11:50:55Z</time></trkpt><trkpt lat="41.50181921338123" lon="0.03087535350986228"><ele>289.5</ele><time>2026-05-04T11:50:56Z</time></trkpt><trkpt lat="41.50179684310547" lon="0.031028903424435587"><ele>289.25</ele><time>2026-05-04T11:50:57Z</time></trkpt><trkpt lat="41.50177928107481" lon="0.031180951256462915"><ele>289.0</ele><time>2026-05-04T11:50:58Z</time></trkpt><trkpt lat="41.50175912168398" lon="0.0313314488890309"><ele>289.0</ele><time>2026-05-04T11:50:59Z</time></trkpt><trkpt lat="41.50174506041803" lon="0.03148252364926236"><ele>289.0</ele><time>2026-05-04T11:51:00Z</time></trkpt><trkpt lat="41.50171876513984" lon="0.031630853079041364"><ele>289.0</ele><time>2026-05-04T11:51:01Z</time></trkpt><trkpt lat="41.501692352961015" lon="0.031778766231862605"><ele>289.0</ele><time>2026-05-04T11:51:02Z</time></trkpt><trkpt lat="41.5016637199601" lon="0.03193837092768748"><ele>289.2</ele><time>2026-05-04T11:51:03Z</time></trkpt><trkpt lat="41.50164278455159" lon="0.032078388480829195"><ele>289.4</ele><time>2026-05-04T11:51:04Z</time></trkpt><trkpt lat="41.501628926472364" lon="0.032226734439583675"><ele>289.6</ele><time>2026-05-04T11:51:05Z</time></trkpt><trkpt lat="41.50161437805327" lon="0.03237828660184522"><ele>289.8</ele><time>2026-05-04T11:51:06Z</time></trkpt><trkpt lat="41.50158753758442" lon="0.03252313105691908"><ele>290.0</ele><time>2026-05-04T11:51:07Z</time></trkpt><trkpt lat="41.50157265339553" lon="0.03267141205329727"><ele>290.0</ele><time>2026-05-04T11:51:08Z</time></trkpt><trkpt lat="41.5015355150916" lon="0.03281988000690651"><ele>290.0</ele><time>2026-05-04T11:51:09Z</time></trkpt><trkpt lat="41.501461655121496" lon="0.03298096905117247"><ele>290.0</ele><time>2026-05-04T11:51:10Z</time></trkpt><trkpt lat="41.501511633539124" lon="0.033115731787044474"><ele>290.0</ele><time>2026-05-04T11:51:11Z</time></trkpt><trkpt lat="41.50149300985261" lon="0.03326173587752398"><ele>290.4</ele><time>2026-05-04T11:51:12Z</time></trkpt><trkpt lat="41.501475275835766" lon="0.033410750590842433"><ele>290.8</ele><time>2026-05-04T11:51:13Z</time></trkpt><trkpt lat="41.501454794618546" lon="0.03355917802994393"><ele>291.2</ele><time>2026-05-04T11:51:14Z</time></trkpt><trkpt lat="41.501435574887516" lon="0.03370565613641845"><ele>291.6</ele><time>2026-05-04T11:51:15Z</time></trkpt><trkpt lat="41.501419025668675" lon="0.03385136083204617"><ele>292.0</ele><time>2026-05-04T11:51:16Z</time></trkpt><trkpt lat="41.50140215608137" lon="0.03399751166533802"><ele>292.2</ele><time>2026-05-04T11:51:17Z</time></trkpt><trkpt lat="41.50138385236676" lon="0.03414422161960492"><ele>292.4</ele><time>2026-05-04T11:51:18Z</time></trkpt><trkpt lat="41.50136947818722" lon="0.03428976702182812"><ele>292.6</ele><time>2026-05-04T11:51:19Z</time></trkpt><trkpt lat="41.501359354907784" lon="0.03443151982515722"><ele>292.8</ele><time>2026-05-04T11:51:20Z</time></trkpt><trkpt lat="41.501351580908036" lon="0.03457673082362359"><ele>293.0</ele><time>2026-05-04T11:51:21Z</time></trkpt><trkpt lat="41.50134411443398" lon="0.03472123961051365"><ele>293.0</ele><time>2026-05-04T11:51:22Z</time></trkpt><trkpt lat="41.50134049209723" lon="0.03486821302652553"><ele>293.0</ele><time>2026-05-04T11:51:23Z</time></trkpt><trkpt lat="41.50133515255782" lon="0.03501553550936889"><ele>293.0</ele><time>2026-05-04T11:51:24Z</time></trkpt><trkpt lat="41.501335857260216" lon="0.03516520862917326"><ele>293.0</ele><time>2026-05-04T11:51:25Z</time></trkpt><trkpt lat="41.50133882101017" lon="0.03530887191203441"><ele>293.0</ele><time>2026-05-04T11:51:26Z</time></trkpt><trkpt lat="41.5013396809652" lon="0.03545809589927894"><ele>293.0</ele><time>2026-05-04T11:51:27Z</time></trkpt><trkpt lat="41.50134178068844" lon="0.03561344175798726"><ele>293.0</ele><time>2026-05-04T11:51:28Z</time></trkpt><trkpt lat="41.501345907221726" lon="0.03576720347472783"><ele>293.0</ele><time>2026-05-04T11:51:29Z</time></trkpt><trkpt lat="41.50135127080456" lon="0.03592036124164017"><ele>293.0</ele><time>2026-05-04T11:51:30Z</time></trkpt><trkpt lat="41.501359035446676" lon="0.036079398365206385"><ele>292.75</ele><time>2026-05-04T11:51:31Z</time></trkpt><trkpt lat="41.50136358007177" lon="0.036240556025917796"><ele>292.5</ele><time>2026-05-04T11:51:32Z</time></trkpt><trkpt lat="41.50136760183037" lon="0.036395021998988905"><ele>292.25</ele><time>2026-05-04T11:51:33Z</time></trkpt><trkpt lat="41.50137222593928" lon="0.036557028992102086"><ele>292.0</ele><time>2026-05-04T11:51:34Z</time></trkpt><trkpt lat="41.50137593049164" lon="0.03671410314310889"><ele>291.5</ele><time>2026-05-04T11:51:35Z</time></trkpt><trkpt lat="41.501378865190155" lon="0.03687940593819548"><ele>291.0</ele><time>2026-05-04T11:51:36Z</time></trkpt><trkpt lat="41.50138369263218" lon="0.03703750743886677"><ele>290.5</ele><time>2026-05-04T11:51:37Z</time></trkpt><trkpt lat="41.50138473549192" lon="0.03719436760931498"><ele>290.0</ele><time>2026-05-04T11:51:38Z</time></trkpt><trkpt lat="41.50138804164968" lon="0.03735230830986654"><ele>290.0</ele><time>2026-05-04T11:51:39Z</time></trkpt><trkpt lat="41.50139061561615" lon="0.037512185644107195"><ele>290.0</ele><time>2026-05-04T11:51:40Z</time></trkpt><trkpt lat="41.50139255274341" lon="0.037669507153293945"><ele>290.0</ele><time>2026-05-04T11:51:41Z</time></trkpt><trkpt lat="41.50139729741302" lon="0.03782713589882196"><ele>290.0</ele><time>2026-05-04T11:51:42Z</time></trkpt><trkpt lat="41.5014000702471" lon="0.037984988818666764"><ele>290.0</ele><time>2026-05-04T11:51:43Z</time></trkpt><trkpt lat="41.5014045279093" lon="0.03814445991312509"><ele>290.0</ele><time>2026-05-04T11:51:44Z</time></trkpt><trkpt lat="41.50140662290131" lon="0.03830141090860151"><ele>290.0</ele><time>2026-05-04T11:51:45Z</time></trkpt><trkpt lat="41.50140901265216" lon="0.038456302180195204"><ele>290.0</ele><time>2026-05-04T11:51:46Z</time></trkpt><trkpt lat="41.50141247333376" lon="0.038612834746460094"><ele>289.75</ele><time>2026-05-04T11:51:47Z</time></trkpt><trkpt lat="41.50141535898573" lon="0.03876935682211271"><ele>289.5</ele><time>2026-05-04T11:51:48Z</time></trkpt><trkpt lat="41.50142157389308" lon="0.03892781889980746"><ele>289.25</ele><time>2026-05-04T11:51:49Z</time></trkpt><trkpt lat="41.50142773758037" lon="0.03908641790486572"><ele>289.0</ele><time>2026-05-04T11:51:50Z</time></trkpt><trkpt lat="41.50143368993846" lon="0.03924398672906634"><ele>288.5</ele><time>2026-05-04T11:51:51Z</time></trkpt><trkpt lat="41.501437653731486" lon="0.03936575620188343"><ele>288.0</ele><time>2026-05-04T11:51:52Z</time></trkpt><trkpt lat="41.50143792070203" lon="0.03955560489786896"><ele>287.5</ele><time>2026-05-04T11:51:53Z</time></trkpt><trkpt lat="41.50144513300616" lon="0.03971114937292629"><ele>287.0</ele><time>2026-05-04T11:51:54Z</time></trkpt><trkpt lat="41.501447883266856" lon="0.03986700657569015"><ele>286.5</ele><time>2026-05-04T11:51:55.001Z</time></trkpt><trkpt lat="41.5014547381348" lon="0.04002124829910523"><ele>286.0</ele><time>2026-05-04T11:51:56.001Z</time></trkpt><trkpt lat="41.501459906490126" lon="0.04017621544377169"><ele>285.5</ele><time>2026-05-04T11:51:57.001Z</time></trkpt><trkpt lat="41.50145870749136" lon="0.04033601349251489"><ele>285.0</ele><time>2026-05-04T11:51:58.001Z</time></trkpt><trkpt lat="41.5014690225298" lon="0.04048293287103609"><ele>285.0</ele><time>2026-05-04T11:51:59.001Z</time></trkpt><trkpt lat="41.501479323244226" lon="0.04063761584697958"><ele>285.0</ele><time>2026-05-04T11:52:00.001Z</time></trkpt><trkpt lat="41.50146038879261" lon="0.04079536867686759"><ele>285.0</ele><time>2026-05-04T11:52:01.001Z</time></trkpt><trkpt lat="41.50147317201368" lon="0.040942703466268875"><ele>285.0</ele><time>2026-05-04T11:52:02.001Z</time></trkpt><trkpt lat="41.501481916177035" lon="0.04109252229976568"><ele>285.25</ele><time>2026-05-04T11:52:03.001Z</time></trkpt><trkpt lat="41.50148566986742" lon="0.04124646084661332"><ele>285.5</ele><time>2026-05-04T11:52:04.001Z</time></trkpt><trkpt lat="41.50149103354405" lon="0.04140320006293863"><ele>285.75</ele><time>2026-05-04T11:52:05.001Z</time></trkpt><trkpt lat="41.501494989527416" lon="0.04155376546473192"><ele>286.0</ele><time>2026-05-04T11:52:06.001Z</time></trkpt><trkpt lat="41.50150295465561" lon="0.04170258729866433"><ele>286.25</ele><time>2026-05-04T11:52:07.001Z</time></trkpt><trkpt lat="41.501508297313826" lon="0.04185687652887497"><ele>286.5</ele><time>2026-05-04T11:52:08.001Z</time></trkpt><trkpt lat="41.50151484289102" lon="0.04201344099237649"><ele>286.75</ele><time>2026-05-04T11:52:09.001Z</time></trkpt><trkpt lat="41.50152132570744" lon="0.04216597441234359"><ele>287.0</ele><time>2026-05-04T11:52:10.001Z</time></trkpt><trkpt lat="41.501521387640544" lon="0.04231503551971456"><ele>287.25</ele><time>2026-05-04T11:52:11.001Z</time></trkpt><trkpt lat="41.50153412156642" lon="0.04246490610881178"><ele>287.5</ele><time>2026-05-04T11:52:12.001Z</time></trkpt><trkpt lat="41.501534702298365" lon="0.042620823958044646"><ele>287.75</ele><time>2026-05-04T11:52:13.001Z</time></trkpt><trkpt lat="41.50153970044405" lon="0.04276906837614489"><ele>288.0</ele><time>2026-05-04T11:52:14.001Z</time></trkpt><trkpt lat="41.50154389461857" lon="0.04292380485017397"><ele>288.0</ele><time>2026-05-04T11:52:15.001Z</time></trkpt><trkpt lat="41.501548074432336" lon="0.04307378523698933"><ele>288.0</ele><time>2026-05-04T11:52:16.001Z</time></trkpt><trkpt lat="41.50155462604289" lon="0.04322862742587"><ele>288.0</ele><time>2026-05-04T11:52:17.001Z</time></trkpt><trkpt lat="41.50155768574406" lon="0.04336652793189497"><ele>288.0</ele><time>2026-05-04T11:52:18.001Z</time></trkpt><trkpt lat="41.50156427629788" lon="0.043507465032364044"><ele>288.0</ele><time>2026-05-04T11:52:19.001Z</time></trkpt><trkpt lat="41.5015716132326" lon="0.043676528148039684"><ele>288.0</ele><time>2026-05-04T11:52:20.001Z</time></trkpt><trkpt lat="41.501578151700436" lon="0.04382500335598417"><ele>288.0</ele><time>2026-05-04T11:52:21.001Z</time></trkpt><trkpt lat="41.501584598945506" lon="0.04397858950541605"><ele>288.0</ele><time>2026-05-04T11:52:22.001Z</time></trkpt><trkpt lat="41.501591617027145" lon="0.04412451097118012"><ele>288.0</ele><time>2026-05-04T11:52:23.001Z</time></trkpt><trkpt lat="41.501602025789786" lon="0.044272255177330584"><ele>288.0</ele><time>2026-05-04T11:52:24.001Z</time></trkpt><trkpt lat="41.501618368651364" lon="0.04441747619075669"><ele>288.0</ele><time>2026-05-04T11:52:25.001Z</time></trkpt><trkpt lat="41.501630510894124" lon="0.04456568855548258"><ele>288.0</ele><time>2026-05-04T11:52:26.001Z</time></trkpt><trkpt lat="41.5016442437052" lon="0.044712255103724216"><ele>288.0</ele><time>2026-05-04T11:52:27.001Z</time></trkpt><trkpt lat="41.50166073156185" lon="0.04485978676620523"><ele>288.0</ele><time>2026-05-04T11:52:28.001Z</time></trkpt><trkpt lat="41.50167599648133" lon="0.04500803233369266"><ele>288.0</ele><time>2026-05-04T11:52:29.001Z</time></trkpt><trkpt lat="41.50169309906121" lon="0.04515432982744221"><ele>288.25</ele><time>2026-05-04T11:52:30.001Z</time></trkpt><trkpt lat="41.50170974407539" lon="0.045298230641303186"><ele>288.5</ele><time>2026-05-04T11:52:31.001Z</time></trkpt><trkpt lat="41.50173582306304" lon="0.04544877015018594"><ele>288.75</ele><time>2026-05-04T11:52:32.001Z</time></trkpt><trkpt lat="41.5017559194046" lon="0.04559851789371765"><ele>289.0</ele><time>2026-05-04T11:52:33.001Z</time></trkpt><trkpt lat="41.50177852021909" lon="0.04574690758204888"><ele>288.8</ele><time>2026-05-04T11:52:34.001Z</time></trkpt><trkpt lat="41.50180232703433" lon="0.04589307301067436"><ele>288.59999999999997</ele><time>2026-05-04T11:52:35.001Z</time></trkpt><trkpt lat="41.501829975951956" lon="0.04603605292276384"><ele>288.4</ele><time>2026-05-04T11:52:36.001Z</time></trkpt><trkpt lat="41.50185952591528" lon="0.04618093905985301"><ele>288.2</ele><time>2026-05-04T11:52:37.001Z</time></trkpt><trkpt lat="41.50188823154054" lon="0.046321524568785404"><ele>288.0</ele><time>2026-05-04T11:52:38.001Z</time></trkpt><trkpt lat="41.50191687183808" lon="0.04646403534957747"><ele>288.0</ele><time>2026-05-04T11:52:39.001Z</time></trkpt><trkpt lat="41.50195118315597" lon="0.046605154493627995"><ele>288.0</ele><time>2026-05-04T11:52:40.001Z</time></trkpt><trkpt lat="41.50198643510296" lon="0.04674930117577275"><ele>288.0</ele><time>2026-05-04T11:52:41.001Z</time></trkpt><trkpt lat="41.5020238348989" lon="0.04688894990213371"><ele>288.0</ele><time>2026-05-04T11:52:42.001Z</time></trkpt><trkpt lat="41.502059505572866" lon="0.04702723733432009"><ele>288.0</ele><time>2026-05-04T11:52:43.001Z</time></trkpt><trkpt lat="41.50209523554062" lon="0.04716638823325953"><ele>288.0</ele><time>2026-05-04T11:52:44.001Z</time></trkpt><trkpt lat="41.50213373639389" lon="0.04730312110995015"><ele>288.0</ele><time>2026-05-04T11:52:45.001Z</time></trkpt><trkpt lat="41.502173273843844" lon="0.04743931488877362"><ele>288.0</ele><time>2026-05-04T11:52:46.001Z</time></trkpt><trkpt lat="41.5022164145378" lon="0.04757411058454192"><ele>288.0</ele><time>2026-05-04T11:52:47.001Z</time></trkpt><trkpt lat="41.50225788962424" lon="0.047716563001506576"><ele>288.0</ele><time>2026-05-04T11:52:48.001Z</time></trkpt><trkpt lat="41.50230359855335" lon="0.04785272223406707"><ele>288.0</ele><time>2026-05-04T11:52:49.001Z</time></trkpt><trkpt lat="41.502346729060754" lon="0.0479967287641112"><ele>288.0</ele><time>2026-05-04T11:52:50.001Z</time></trkpt><trkpt lat="41.502393060925606" lon="0.04813477658325725"><ele>288.0</ele><time>2026-05-04T11:52:51.001Z</time></trkpt><trkpt lat="41.50244087314934" lon="0.04826969592172336"><ele>288.0</ele><time>2026-05-04T11:52:52.001Z</time></trkpt><trkpt lat="41.502493126333476" lon="0.04840789380357219"><ele>288.0</ele><time>2026-05-04T11:52:53.001Z</time></trkpt><trkpt lat="41.50254744164074" lon="0.04854432570337748"><ele>288.0</ele><time>2026-05-04T11:52:54.001Z</time></trkpt><trkpt lat="41.50259616053923" lon="0.04867548214532422"><ele>288.0</ele><time>2026-05-04T11:52:55.001Z</time></trkpt><trkpt lat="41.50265114577927" lon="0.048810358770407895"><ele>288.0</ele><time>2026-05-04T11:52:56.001Z</time></trkpt><trkpt lat="41.50270413532823" lon="0.048943958505328"><ele>288.0</ele><time>2026-05-04T11:52:57.001Z</time></trkpt><trkpt lat="41.50276273689112" lon="0.04908078992803247"><ele>288.0</ele><time>2026-05-04T11:52:58.001Z</time></trkpt><trkpt lat="41.50281708280341" lon="0.04920851488876534"><ele>288.0</ele><time>2026-05-04T11:52:59.001Z</time></trkpt><trkpt lat="41.50287315451724" lon="0.049339930817292744"><ele>288.0</ele><time>2026-05-04T11:53:00.001Z</time></trkpt><trkpt lat="41.502932962509774" lon="0.04947000146076724"><ele>288.0</ele><time>2026-05-04T11:53:01Z</time></trkpt><trkpt lat="41.5029962210934" lon="0.04959283418092538"><ele>288.0</ele><time>2026-05-04T11:53:02Z</time></trkpt><trkpt lat="41.503054075507876" lon="0.04972303527885642"><ele>288.0</ele><time>2026-05-04T11:53:03Z</time></trkpt><trkpt lat="41.50311561181832" lon="0.04985035687133805"><ele>288.0</ele><time>2026-05-04T11:53:04Z</time></trkpt><trkpt lat="41.50317901413691" lon="0.049977831910705796"><ele>288.0</ele><time>2026-05-04T11:53:05Z</time></trkpt><trkpt lat="41.5032424445856" lon="0.05010426707808798"><ele>288.0</ele><time>2026-05-04T11:53:06Z</time></trkpt><trkpt lat="41.50330463737859" lon="0.05023199440281042"><ele>288.0</ele><time>2026-05-04T11:53:07Z</time></trkpt><trkpt lat="41.50336683691168" lon="0.050357953187824676"><ele>288.0</ele><time>2026-05-04T11:53:08Z</time></trkpt><trkpt lat="41.50343032181058" lon="0.05048601589409044"><ele>288.0</ele><time>2026-05-04T11:53:09Z</time></trkpt><trkpt lat="41.50349372960765" lon="0.0506139340881202"><ele>288.0</ele><time>2026-05-04T11:53:10Z</time></trkpt><trkpt lat="41.503557685465246" lon="0.05073677255476362"><ele>288.0</ele><time>2026-05-04T11:53:11Z</time></trkpt><trkpt lat="41.503621789201446" lon="0.05086503204497646"><ele>288.0</ele><time>2026-05-04T11:53:12Z</time></trkpt><trkpt lat="41.503682244379384" lon="0.05099167427236744"><ele>287.5</ele><time>2026-05-04T11:53:13Z</time></trkpt><trkpt lat="41.50374432101803" lon="0.05111597108356394"><ele>287.0</ele><time>2026-05-04T11:53:14Z</time></trkpt><trkpt lat="41.50380800672927" lon="0.051242216627395865"><ele>286.5</ele><time>2026-05-04T11:53:15Z</time></trkpt><trkpt lat="41.50387241169731" lon="0.05136616416542682"><ele>286.0</ele><time>2026-05-04T11:53:16Z</time></trkpt><trkpt lat="41.503933698838104" lon="0.05149353840742096"><ele>286.0</ele><time>2026-05-04T11:53:17Z</time></trkpt><trkpt lat="41.50399339970916" lon="0.05161908017489081"><ele>286.0</ele><time>2026-05-04T11:53:18Z</time></trkpt><trkpt lat="41.504055083287795" lon="0.051744154251498774"><ele>286.0</ele><time>2026-05-04T11:53:19Z</time></trkpt><trkpt lat="41.50411495406071" lon="0.051874696241231005"><ele>286.0</ele><time>2026-05-04T11:53:20Z</time></trkpt><trkpt lat="41.50418379215827" lon="0.05198246356880453"><ele>286.0</ele><time>2026-05-04T11:53:21Z</time></trkpt><trkpt lat="41.50424514519569" lon="0.052126149680255314"><ele>286.0</ele><time>2026-05-04T11:53:22Z</time></trkpt><trkpt lat="41.5043056342464" lon="0.05224086906282998"><ele>286.0</ele><time>2026-05-04T11:53:23Z</time></trkpt><trkpt lat="41.50436948229678" lon="0.05236852491164012"><ele>286.0</ele><time>2026-05-04T11:53:24Z</time></trkpt><trkpt lat="41.504428731885696" lon="0.05250602867984337"><ele>286.0</ele><time>2026-05-04T11:53:25Z</time></trkpt><trkpt lat="41.50446692758506" lon="0.05263842372049147"><ele>286.0</ele><time>2026-05-04T11:53:26Z</time></trkpt><trkpt lat="41.50454876277648" lon="0.05275361033117834"><ele>286.5</ele><time>2026-05-04T11:53:27Z</time></trkpt><trkpt lat="41.50461534816742" lon="0.05286777895310473"><ele>287.0</ele><time>2026-05-04T11:53:28Z</time></trkpt><trkpt lat="41.50467982390526" lon="0.053015196201523604"><ele>287.5</ele><time>2026-05-04T11:53:29Z</time></trkpt><trkpt lat="41.5047595751282" lon="0.05319280788094297"><ele>288.0</ele><time>2026-05-04T11:53:30Z</time></trkpt><trkpt lat="41.50482606414156" lon="0.05333344667441705"><ele>288.0</ele><time>2026-05-04T11:53:31Z</time></trkpt><trkpt lat="41.50492278555796" lon="0.05349728449170229"><ele>288.0</ele><time>2026-05-04T11:53:33Z</time></trkpt><trkpt lat="41.504980436190834" lon="0.05361322427212727"><ele>288.0</ele><time>2026-05-04T11:53:34Z</time></trkpt><trkpt lat="41.505050818650915" lon="0.053753475163350176"><ele>288.0</ele><time>2026-05-04T11:53:35Z</time></trkpt><trkpt lat="41.505112659148146" lon="0.05388012809642015"><ele>288.0</ele><time>2026-05-04T11:53:36Z</time></trkpt><trkpt lat="41.50517252319197" lon="0.05400617982427098"><ele>288.0</ele><time>2026-05-04T11:53:37Z</time></trkpt><trkpt lat="41.50523606993055" lon="0.05413358298634938"><ele>288.0</ele><time>2026-05-04T11:53:38Z</time></trkpt><trkpt lat="41.505294267810775" lon="0.05426104603892691"><ele>288.0</ele><time>2026-05-04T11:53:39Z</time></trkpt><trkpt lat="41.50535812093046" lon="0.054386673187066324"><ele>288.0</ele><time>2026-05-04T11:53:40Z</time></trkpt><trkpt lat="41.50542335675866" lon="0.05451277746597648"><ele>288.0</ele><time>2026-05-04T11:53:41Z</time></trkpt><trkpt lat="41.505488663042875" lon="0.05463787175255726"><ele>288.0</ele><time>2026-05-04T11:53:42Z</time></trkpt><trkpt lat="41.505549768810624" lon="0.05476453887896932"><ele>288.0</ele><time>2026-05-04T11:53:43Z</time></trkpt><trkpt lat="41.5056140351735" lon="0.0548905236882996"><ele>288.25</ele><time>2026-05-04T11:53:44Z</time></trkpt><trkpt lat="41.50567543000536" lon="0.05501928611339154"><ele>288.5</ele><time>2026-05-04T11:53:45Z</time></trkpt><trkpt lat="41.50573582704898" lon="0.05514674093380077"><ele>288.75</ele><time>2026-05-04T11:53:46Z</time></trkpt><trkpt lat="41.505800696197454" lon="0.055273231887298505"><ele>289.0</ele><time>2026-05-04T11:53:47Z</time></trkpt><trkpt lat="41.50586401205361" lon="0.055400043087093294"><ele>289.0</ele><time>2026-05-04T11:53:48Z</time></trkpt><trkpt lat="41.505927078716105" lon="0.05552622566644828"><ele>289.0</ele><time>2026-05-04T11:53:49Z</time></trkpt><trkpt lat="41.50598901927786" lon="0.05565331413670022"><ele>289.0</ele><time>2026-05-04T11:53:50Z</time></trkpt><trkpt lat="41.50605056011845" lon="0.05577952339137053"><ele>289.0</ele><time>2026-05-04T11:53:51Z</time></trkpt><trkpt lat="41.50611392531011" lon="0.055906303892731934"><ele>289.0</ele><time>2026-05-04T11:53:52Z</time></trkpt><trkpt lat="41.50617914099728" lon="0.05603218793113412"><ele>289.0</ele><time>2026-05-04T11:53:53Z</time></trkpt><trkpt lat="41.506240164992256" lon="0.05615816054046771"><ele>289.0</ele><time>2026-05-04T11:53:54Z</time></trkpt><trkpt lat="41.506304512660364" lon="0.05628491767559937"><ele>289.0</ele><time>2026-05-04T11:53:55Z</time></trkpt><trkpt lat="41.506369484897256" lon="0.05641081451161357"><ele>288.5</ele><time>2026-05-04T11:53:56Z</time></trkpt><trkpt lat="41.506433832266566" lon="0.05653877516472117"><ele>288.0</ele><time>2026-05-04T11:53:57Z</time></trkpt><trkpt lat="41.50649812901744" lon="0.05666780242018163"><ele>287.5</ele><time>2026-05-04T11:53:58Z</time></trkpt><trkpt lat="41.50655824417284" lon="0.05679419388673176"><ele>287.0</ele><time>2026-05-04T11:53:59Z</time></trkpt><trkpt lat="41.506622297865285" lon="0.05692158425481263"><ele>286.75</ele><time>2026-05-04T11:54:00Z</time></trkpt><trkpt lat="41.50668842845501" lon="0.057048363832090165"><ele>286.5</ele><time>2026-05-04T11:54:01.001Z</time></trkpt><trkpt lat="41.50675113295642" lon="0.05717525439089338"><ele>286.25</ele><time>2026-05-04T11:54:02.001Z</time></trkpt><trkpt lat="41.50681423688864" lon="0.057303121877140754"><ele>286.0</ele><time>2026-05-04T11:54:03.001Z</time></trkpt><trkpt lat="41.506877578846414" lon="0.05743102260932609"><ele>285.75</ele><time>2026-05-04T11:54:04.001Z</time></trkpt><trkpt lat="41.506941070664446" lon="0.057559405750028526"><ele>285.5</ele><time>2026-05-04T11:54:05.001Z</time></trkpt><trkpt lat="41.50700534930408" lon="0.05768587700309414"><ele>285.25</ele><time>2026-05-04T11:54:06.001Z</time></trkpt><trkpt lat="41.50706881725013" lon="0.057814098028772555"><ele>285.0</ele><time>2026-05-04T11:54:07.001Z</time></trkpt><trkpt lat="41.50712937215967" lon="0.05794306050372481"><ele>284.75</ele><time>2026-05-04T11:54:08.001Z</time></trkpt><trkpt lat="41.50718751341504" lon="0.05807124605486338"><ele>284.5</ele><time>2026-05-04T11:54:09.001Z</time></trkpt><trkpt lat="41.50725004052232" lon="0.058199968476016745"><ele>284.25</ele><time>2026-05-04T11:54:10.001Z</time></trkpt><trkpt lat="41.5073108499086" lon="0.05832858579605672"><ele>284.0</ele><time>2026-05-04T11:54:11.001Z</time></trkpt><trkpt lat="41.507372946304905" lon="0.05845506823378216"><ele>284.0</ele><time>2026-05-04T11:54:12.001Z</time></trkpt><trkpt lat="41.50743717289565" lon="0.05858208628226668"><ele>284.0</ele><time>2026-05-04T11:54:13.001Z</time></trkpt><trkpt lat="41.50750143008732" lon="0.05871080825853447"><ele>284.0</ele><time>2026-05-04T11:54:14.001Z</time></trkpt><trkpt lat="41.5075670237852" lon="0.058838091359495436"><ele>284.0</ele><time>2026-05-04T11:54:15.001Z</time></trkpt><trkpt lat="41.507630147474025" lon="0.058963484601009655"><ele>284.0</ele><time>2026-05-04T11:54:16.001Z</time></trkpt><trkpt lat="41.50769274611796" lon="0.05908908557402654"><ele>284.0</ele><time>2026-05-04T11:54:17.001Z</time></trkpt><trkpt lat="41.50775423794019" lon="0.059219511388856894"><ele>284.0</ele><time>2026-05-04T11:54:18.001Z</time></trkpt><trkpt lat="41.507810639438944" lon="0.05934712329503071"><ele>284.0</ele><time>2026-05-04T11:54:19.001Z</time></trkpt><trkpt lat="41.507870382352564" lon="0.05947804505467274"><ele>284.25</ele><time>2026-05-04T11:54:20.001Z</time></trkpt><trkpt lat="41.50792981301153" lon="0.0596095465759337"><ele>284.5</ele><time>2026-05-04T11:54:21.001Z</time></trkpt><trkpt lat="41.50799147543851" lon="0.059740618964725434"><ele>284.75</ele><time>2026-05-04T11:54:22.001Z</time></trkpt><trkpt lat="41.50805179865864" lon="0.05986689185711723"><ele>285.0</ele><time>2026-05-04T11:54:23.001Z</time></trkpt><trkpt lat="41.50811161254056" lon="0.05999677147348425"><ele>285.0</ele><time>2026-05-04T11:54:24.001Z</time></trkpt><trkpt lat="41.50816843110449" lon="0.06012593897732933"><ele>285.0</ele><time>2026-05-04T11:54:25.001Z</time></trkpt><trkpt lat="41.50822686910147" lon="0.06025810783870859"><ele>285.0</ele><time>2026-05-04T11:54:26.001Z</time></trkpt><trkpt lat="41.50828313863049" lon="0.060390366966680396"><ele>285.0</ele><time>2026-05-04T11:54:27.001Z</time></trkpt><trkpt lat="41.50833919933092" lon="0.06052748445420707"><ele>285.0</ele><time>2026-05-04T11:54:28.001Z</time></trkpt><trkpt lat="41.50838544023263" lon="0.06066460206476303"><ele>285.0</ele><time>2026-05-04T11:54:29.001Z</time></trkpt><trkpt lat="41.50843758604852" lon="0.060798965835096315"><ele>285.0</ele><time>2026-05-04T11:54:30.001Z</time></trkpt><trkpt lat="41.50848566604064" lon="0.060940242401941194"><ele>285.0</ele><time>2026-05-04T11:54:31.001Z</time></trkpt><trkpt lat="41.50853180439252" lon="0.061081147034937514"><ele>284.5</ele><time>2026-05-04T11:54:32.001Z</time></trkpt><trkpt lat="41.50857416967268" lon="0.06121778115555443"><ele>284.0</ele><time>2026-05-04T11:54:33.001Z</time></trkpt><trkpt lat="41.50862030543617" lon="0.06135932603721136"><ele>283.5</ele><time>2026-05-04T11:54:34.001Z</time></trkpt><trkpt lat="41.50866500336118" lon="0.06149961961882027"><ele>283.0</ele><time>2026-05-04T11:54:35.001Z</time></trkpt><trkpt lat="41.508706975150126" lon="0.06164145653681899"><ele>283.5</ele><time>2026-05-04T11:54:36.001Z</time></trkpt><trkpt lat="41.50874636253488" lon="0.061781621766255415"><ele>284.0</ele><time>2026-05-04T11:54:37.001Z</time></trkpt><trkpt lat="41.508787114996565" lon="0.06192508940432601"><ele>284.5</ele><time>2026-05-04T11:54:38.001Z</time></trkpt><trkpt lat="41.508823933157146" lon="0.0620697816170364"><ele>285.0</ele><time>2026-05-04T11:54:39.001Z</time></trkpt><trkpt lat="41.5088594267415" lon="0.06221664286552497"><ele>285.0</ele><time>2026-05-04T11:54:40.001Z</time></trkpt><trkpt lat="41.508893097856195" lon="0.062365680089178525"><ele>285.0</ele><time>2026-05-04T11:54:41.001Z</time></trkpt><trkpt lat="41.508923128290164" lon="0.06250825938123573"><ele>285.0</ele><time>2026-05-04T11:54:42.001Z</time></trkpt><trkpt lat="41.50895672712786" lon="0.06265290914379572"><ele>285.0</ele><time>2026-05-04T11:54:43.001Z</time></trkpt><trkpt lat="41.5089901622599" lon="0.06279834357553421"><ele>285.0</ele><time>2026-05-04T11:54:44.001Z</time></trkpt><trkpt lat="41.50902347129759" lon="0.06294829184010847"><ele>285.0</ele><time>2026-05-04T11:54:45.001Z</time></trkpt><trkpt lat="41.509054409881706" lon="0.06309514692119414"><ele>285.0</ele><time>2026-05-04T11:54:46.001Z</time></trkpt><trkpt lat="41.5090785575129" lon="0.06324238548140312"><ele>285.0</ele><time>2026-05-04T11:54:47.001Z</time></trkpt><trkpt lat="41.50910203641208" lon="0.0633939508541547"><ele>285.0</ele><time>2026-05-04T11:54:48.001Z</time></trkpt><trkpt lat="41.509128627285556" lon="0.06354415967792469"><ele>285.0</ele><time>2026-05-04T11:54:49.001Z</time></trkpt><trkpt lat="41.509150638185446" lon="0.06369130756538509"><ele>285.0</ele><time>2026-05-04T11:54:50.001Z</time></trkpt><trkpt lat="41.50916690865574" lon="0.06384301499709251"><ele>285.0</ele><time>2026-05-04T11:54:51.001Z</time></trkpt><trkpt lat="41.509185915327464" lon="0.06399592271725019"><ele>286.25</ele><time>2026-05-04T11:54:52.001Z</time></trkpt><trkpt lat="41.509209765645764" lon="0.06414908558305543"><ele>287.5</ele><time>2026-05-04T11:54:53.001Z</time></trkpt><trkpt lat="41.50923002341984" lon="0.06430131305482609"><ele>288.75</ele><time>2026-05-04T11:54:54.001Z</time></trkpt><trkpt lat="41.50924817830572" lon="0.06445306761280212"><ele>290.0</ele><time>2026-05-04T11:54:55.001Z</time></trkpt><trkpt lat="41.509261722455996" lon="0.06460833143399293"><ele>290.0</ele><time>2026-05-04T11:54:56.001Z</time></trkpt><trkpt lat="41.509272664111045" lon="0.06476040618851667"><ele>290.0</ele><time>2026-05-04T11:54:57.001Z</time></trkpt><trkpt lat="41.50928347702695" lon="0.06491566084818852"><ele>290.0</ele><time>2026-05-04T11:54:58.001Z</time></trkpt><trkpt lat="41.509293234727195" lon="0.06506971208722691"><ele>290.0</ele><time>2026-05-04T11:54:59.001Z</time></trkpt><trkpt lat="41.50930013291431" lon="0.06522296164510279"><ele>289.75</ele><time>2026-05-04T11:55:00.001Z</time></trkpt><trkpt lat="41.509306572251454" lon="0.06537572251888527"><ele>289.5</ele><time>2026-05-04T11:55:01.001Z</time></trkpt><trkpt lat="41.50931403152485" lon="0.06552846443344322"><ele>289.25</ele><time>2026-05-04T11:55:02.001Z</time></trkpt><trkpt lat="41.50931849376647" lon="0.06568101365890026"><ele>289.0</ele><time>2026-05-04T11:55:03.001Z</time></trkpt><trkpt lat="41.50932210116946" lon="0.06583619338641616"><ele>288.25</ele><time>2026-05-04T11:55:04.001Z</time></trkpt><trkpt lat="41.509325006785936" lon="0.0659912053727181"><ele>287.5</ele><time>2026-05-04T11:55:05.001Z</time></trkpt><trkpt lat="41.509323625830696" lon="0.06614762796487725"><ele>286.75</ele><time>2026-05-04T11:55:06.001Z</time></trkpt><trkpt lat="41.509320543310906" lon="0.06630379871343028"><ele>286.0</ele><time>2026-05-04T11:55:07Z</time></trkpt><trkpt lat="41.509315810826266" lon="0.06645908278948964"><ele>284.75</ele><time>2026-05-04T11:55:08Z</time></trkpt><trkpt lat="41.50930746334266" lon="0.066614034325704"><ele>283.5</ele><time>2026-05-04T11:55:09Z</time></trkpt><trkpt lat="41.50929730686679" lon="0.06676732641383216"><ele>282.25</ele><time>2026-05-04T11:55:10Z</time></trkpt><trkpt lat="41.509287885848224" lon="0.06691829705737846"><ele>281.0</ele><time>2026-05-04T11:55:11Z</time></trkpt><trkpt lat="41.50927653023892" lon="0.06707484800165875"><ele>281.0</ele><time>2026-05-04T11:55:12Z</time></trkpt><trkpt lat="41.509260564072434" lon="0.06723229451724916"><ele>281.0</ele><time>2026-05-04T11:55:13Z</time></trkpt><trkpt lat="41.50924440328968" lon="0.06738324485463522"><ele>281.0</ele><time>2026-05-04T11:55:14Z</time></trkpt><trkpt lat="41.509229081811846" lon="0.0675392471709769"><ele>281.0</ele><time>2026-05-04T11:55:15Z</time></trkpt><trkpt lat="41.50921257263451" lon="0.06769281309171335"><ele>280.75</ele><time>2026-05-04T11:55:16Z</time></trkpt><trkpt lat="41.509194378333994" lon="0.06784787073309506"><ele>280.5</ele><time>2026-05-04T11:55:17Z</time></trkpt><trkpt lat="41.509175607114166" lon="0.06799925561162805"><ele>280.25</ele><time>2026-05-04T11:55:18Z</time></trkpt><trkpt lat="41.50915441953356" lon="0.06814978640762231"><ele>280.0</ele><time>2026-05-04T11:55:19Z</time></trkpt><trkpt lat="41.50912885298789" lon="0.06830499397803368"><ele>279.25</ele><time>2026-05-04T11:55:20Z</time></trkpt><trkpt lat="41.50910141113893" lon="0.0684587423802924"><ele>278.5</ele><time>2026-05-04T11:55:21Z</time></trkpt><trkpt lat="41.50907627112716" lon="0.06860896021647507"><ele>277.75</ele><time>2026-05-04T11:55:22Z</time></trkpt><trkpt lat="41.50905407088646" lon="0.068761848892689"><ele>277.0</ele><time>2026-05-04T11:55:23Z</time></trkpt><trkpt lat="41.50903090082196" lon="0.06891708758651435"><ele>277.0</ele><time>2026-05-04T11:55:24Z</time></trkpt><trkpt lat="41.509008382788146" lon="0.06906515810071952"><ele>277.0</ele><time>2026-05-04T11:55:25Z</time></trkpt><trkpt lat="41.508983303868284" lon="0.06921456199657205"><ele>277.0</ele><time>2026-05-04T11:55:26Z</time></trkpt><trkpt lat="41.50895601199135" lon="0.06936933179997304"><ele>277.0</ele><time>2026-05-04T11:55:27Z</time></trkpt><trkpt lat="41.50892784524599" lon="0.06951984392655915"><ele>276.75</ele><time>2026-05-04T11:55:28Z</time></trkpt><trkpt lat="41.50890021111276" lon="0.06967137270512838"><ele>276.5</ele><time>2026-05-04T11:55:29Z</time></trkpt><trkpt lat="41.5088733469109" lon="0.0698204006819842"><ele>276.25</ele><time>2026-05-04T11:55:30Z</time></trkpt><trkpt lat="41.508850340157025" lon="0.06997336014953465"><ele>276.0</ele><time>2026-05-04T11:55:31Z</time></trkpt><trkpt lat="41.50882081617546" lon="0.07012566666638335"><ele>276.0</ele><time>2026-05-04T11:55:32Z</time></trkpt><trkpt lat="41.50878958441914" lon="0.07027742399005288"><ele>276.0</ele><time>2026-05-04T11:55:33Z</time></trkpt><trkpt lat="41.50876184791953" lon="0.07042500484808736"><ele>276.0</ele><time>2026-05-04T11:55:34Z</time></trkpt><trkpt lat="41.50873383479823" lon="0.07057866368961987"><ele>276.0</ele><time>2026-05-04T11:55:35Z</time></trkpt><trkpt lat="41.50870721883003" lon="0.07072817635056396"><ele>276.0</ele><time>2026-05-04T11:55:36Z</time></trkpt><trkpt lat="41.50868117805388" lon="0.07088304951716858"><ele>276.0</ele><time>2026-05-04T11:55:37Z</time></trkpt><trkpt lat="41.50865368311123" lon="0.07103941089735522"><ele>276.0</ele><time>2026-05-04T11:55:38Z</time></trkpt><trkpt lat="41.5086331381835" lon="0.07119083967293348"><ele>276.0</ele><time>2026-05-04T11:55:39Z</time></trkpt><trkpt lat="41.508611011865135" lon="0.07134690609167033"><ele>276.0</ele><time>2026-05-04T11:55:40Z</time></trkpt><trkpt lat="41.50859165492265" lon="0.07149708912187391"><ele>276.0</ele><time>2026-05-04T11:55:41Z</time></trkpt><trkpt lat="41.508568883307085" lon="0.07165219102011686"><ele>276.0</ele><time>2026-05-04T11:55:42Z</time></trkpt><trkpt lat="41.50855163796156" lon="0.07180800182801363"><ele>276.0</ele><time>2026-05-04T11:55:43Z</time></trkpt><trkpt lat="41.50853863948833" lon="0.07195993397479152"><ele>276.0</ele><time>2026-05-04T11:55:44Z</time></trkpt><trkpt lat="41.508525275946624" lon="0.07211716310286637"><ele>276.0</ele><time>2026-05-04T11:55:45Z</time></trkpt><trkpt lat="41.50850999635093" lon="0.0722666455068172"><ele>276.0</ele><time>2026-05-04T11:55:46Z</time></trkpt><trkpt lat="41.50849885609804" lon="0.07242043299042535"><ele>276.0</ele><time>2026-05-04T11:55:47Z</time></trkpt><trkpt lat="41.508488577137534" lon="0.07257659381101603"><ele>276.0</ele><time>2026-05-04T11:55:48Z</time></trkpt><trkpt lat="41.50847755554019" lon="0.07272924139441951"><ele>276.0</ele><time>2026-05-04T11:55:49Z</time></trkpt><trkpt lat="41.508471619156985" lon="0.07288607142502276"><ele>276.0</ele><time>2026-05-04T11:55:50Z</time></trkpt><trkpt lat="41.508464288577095" lon="0.07303810697891319"><ele>276.0</ele><time>2026-05-04T11:55:51Z</time></trkpt><trkpt lat="41.50845935857736" lon="0.07319414428158258"><ele>276.0</ele><time>2026-05-04T11:55:52Z</time></trkpt><trkpt lat="41.50845509831748" lon="0.0733503852778086"><ele>276.0</ele><time>2026-05-04T11:55:53Z</time></trkpt><trkpt lat="41.50845488205492" lon="0.07350178339957994"><ele>276.0</ele><time>2026-05-04T11:55:54Z</time></trkpt><trkpt lat="41.508453635107124" lon="0.07365593463933523"><ele>276.0</ele><time>2026-05-04T11:55:55Z</time></trkpt><trkpt lat="41.508454895728825" lon="0.07381279649729834"><ele>276.0</ele><time>2026-05-04T11:55:56Z</time></trkpt><trkpt lat="41.50845636867209" lon="0.07396692335432202"><ele>276.0</ele><time>2026-05-04T11:55:57Z</time></trkpt><trkpt lat="41.50845814986155" lon="0.07412099130194956"><ele>276.0</ele><time>2026-05-04T11:55:58Z</time></trkpt><trkpt lat="41.508463821777696" lon="0.07427123674737873"><ele>276.0</ele><time>2026-05-04T11:55:59Z</time></trkpt><trkpt lat="41.50847058337449" lon="0.07442629701954986"><ele>276.75</ele><time>2026-05-04T11:56:00Z</time></trkpt><trkpt lat="41.50847754220665" lon="0.07458432306254538"><ele>277.5</ele><time>2026-05-04T11:56:01Z</time></trkpt><trkpt lat="41.50848159747347" lon="0.07473548623487428"><ele>278.25</ele><time>2026-05-04T11:56:02Z</time></trkpt><trkpt lat="41.50849123818701" lon="0.0748855140890003"><ele>279.0</ele><time>2026-05-04T11:56:03Z</time></trkpt><trkpt lat="41.50850787544407" lon="0.07503944794167249"><ele>279.0</ele><time>2026-05-04T11:56:04Z</time></trkpt><trkpt lat="41.50852070185522" lon="0.07518955988433289"><ele>279.0</ele><time>2026-05-04T11:56:05Z</time></trkpt><trkpt lat="41.50853446957202" lon="0.07534023754493933"><ele>279.0</ele><time>2026-05-04T11:56:06Z</time></trkpt><trkpt lat="41.50854913543058" lon="0.0754908225253345"><ele>279.0</ele><time>2026-05-04T11:56:07Z</time></trkpt><trkpt lat="41.50856665405217" lon="0.07563966418049718"><ele>279.0</ele><time>2026-05-04T11:56:08Z</time></trkpt><trkpt lat="41.50858455515438" lon="0.07578853489028385"><ele>279.0</ele><time>2026-05-04T11:56:09Z</time></trkpt><trkpt lat="41.50860774688737" lon="0.07594143137673988"><ele>279.0</ele><time>2026-05-04T11:56:10.001Z</time></trkpt><trkpt lat="41.508624134271145" lon="0.07609048168457588"><ele>279.0</ele><time>2026-05-04T11:56:11.001Z</time></trkpt><trkpt lat="41.50864151507055" lon="0.07623247622243161"><ele>279.0</ele><time>2026-05-04T11:56:12.001Z</time></trkpt><trkpt lat="41.50866776850597" lon="0.07638390073836278"><ele>279.0</ele><time>2026-05-04T11:56:13.001Z</time></trkpt><trkpt lat="41.5086935750703" lon="0.07653290135141107"><ele>279.0</ele><time>2026-05-04T11:56:14.001Z</time></trkpt><trkpt lat="41.508720202534064" lon="0.07668165954047786"><ele>279.0</ele><time>2026-05-04T11:56:15.001Z</time></trkpt><trkpt lat="41.50874377590089" lon="0.07682852521938971"><ele>279.5</ele><time>2026-05-04T11:56:16.001Z</time></trkpt><trkpt lat="41.50877065245108" lon="0.07697652641744354"><ele>280.0</ele><time>2026-05-04T11:56:17.001Z</time></trkpt><trkpt lat="41.50880048114534" lon="0.07712215196328759"><ele>280.5</ele><time>2026-05-04T11:56:18.001Z</time></trkpt><trkpt lat="41.50883275925721" lon="0.07726750410870231"><ele>281.0</ele><time>2026-05-04T11:56:19.001Z</time></trkpt><trkpt lat="41.508866865745084" lon="0.07741700800138682"><ele>280.5</ele><time>2026-05-04T11:56:20.001Z</time></trkpt><trkpt lat="41.50889284217638" lon="0.07754896257332634"><ele>280.0</ele><time>2026-05-04T11:56:21.001Z</time></trkpt><trkpt lat="41.508924593993946" lon="0.07769737834498437"><ele>279.5</ele><time>2026-05-04T11:56:22.001Z</time></trkpt><trkpt lat="41.508958012166474" lon="0.07784699137956329"><ele>279.0</ele><time>2026-05-04T11:56:23.001Z</time></trkpt><trkpt lat="41.50899626216292" lon="0.07799248415879381"><ele>279.0</ele><time>2026-05-04T11:56:24.001Z</time></trkpt><trkpt lat="41.509036299379254" lon="0.07813266663108835"><ele>279.0</ele><time>2026-05-04T11:56:25.001Z</time></trkpt><trkpt lat="41.50907728188742" lon="0.07827460271997988"><ele>279.0</ele><time>2026-05-04T11:56:26.001Z</time></trkpt><trkpt lat="41.509120249198965" lon="0.07841704876792135"><ele>279.0</ele><time>2026-05-04T11:56:27.001Z</time></trkpt><trkpt lat="41.50916583015951" lon="0.07856552375187038"><ele>279.0</ele><time>2026-05-04T11:56:28.001Z</time></trkpt><trkpt lat="41.509210633152335" lon="0.07871042967563775"><ele>279.0</ele><time>2026-05-04T11:56:29.001Z</time></trkpt><trkpt lat="41.50925972429338" lon="0.07885209868664778"><ele>279.0</ele><time>2026-05-04T11:56:30.001Z</time></trkpt><trkpt lat="41.50930767006999" lon="0.0789923685796299"><ele>279.0</ele><time>2026-05-04T11:56:31.001Z</time></trkpt><trkpt lat="41.50935690519275" lon="0.07913722272311688"><ele>279.0</ele><time>2026-05-04T11:56:32.001Z</time></trkpt><trkpt lat="41.50940009965711" lon="0.07927580489546089"><ele>279.0</ele><time>2026-05-04T11:56:33.001Z</time></trkpt><trkpt lat="41.50944785821827" lon="0.07941528635403611"><ele>279.0</ele><time>2026-05-04T11:56:34.001Z</time></trkpt><trkpt lat="41.5094931599386" lon="0.07955814176097532"><ele>279.0</ele><time>2026-05-04T11:56:35.001Z</time></trkpt><trkpt lat="41.50953687039685" lon="0.07969560086247493"><ele>279.2</ele><time>2026-05-04T11:56:36.001Z</time></trkpt><trkpt lat="41.50958439668504" lon="0.07982810536232797"><ele>279.4</ele><time>2026-05-04T11:56:37.001Z</time></trkpt><trkpt lat="41.509631152354785" lon="0.07996254995624304"><ele>279.6</ele><time>2026-05-04T11:56:38.001Z</time></trkpt><trkpt lat="41.509678227367445" lon="0.08009780300458515"><ele>279.8</ele><time>2026-05-04T11:56:39.001Z</time></trkpt><trkpt lat="41.50972512526338" lon="0.080233645329275"><ele>280.0</ele><time>2026-05-04T11:56:40.001Z</time></trkpt><trkpt lat="41.50977412023726" lon="0.08037052964615979"><ele>280.0</ele><time>2026-05-04T11:56:41.001Z</time></trkpt><trkpt lat="41.50982352045512" lon="0.0805029174926199"><ele>280.0</ele><time>2026-05-04T11:56:42.001Z</time></trkpt><trkpt lat="41.5098745744684" lon="0.08063830441493035"><ele>280.0</ele><time>2026-05-04T11:56:43.001Z</time></trkpt><trkpt lat="41.50992537075073" lon="0.0807763589544625"><ele>280.0</ele><time>2026-05-04T11:56:44.001Z</time></trkpt><trkpt lat="41.509973924332826" lon="0.0809164997849641"><ele>279.0</ele><time>2026-05-04T11:56:45.001Z</time></trkpt><trkpt lat="41.51002159789199" lon="0.08105332311441239"><ele>278.0</ele><time>2026-05-04T11:56:46.001Z</time></trkpt><trkpt lat="41.5100723978767" lon="0.08119738960867277"><ele>277.0</ele><time>2026-05-04T11:56:47.001Z</time></trkpt><trkpt lat="41.510120362627404" lon="0.08133581243042459"><ele>276.0</ele><time>2026-05-04T11:56:48.001Z</time></trkpt><trkpt lat="41.5101679265464" lon="0.08147479792121719"><ele>276.2</ele><time>2026-05-04T11:56:49.001Z</time></trkpt><trkpt lat="41.51021748865362" lon="0.08161176223853663"><ele>276.40000000000003</ele><time>2026-05-04T11:56:50.001Z</time></trkpt><trkpt lat="41.510267025782255" lon="0.08174229595920067"><ele>276.6</ele><time>2026-05-04T11:56:51.001Z</time></trkpt><trkpt lat="41.51031486403106" lon="0.08187108283086882"><ele>276.8</ele><time>2026-05-04T11:56:52.001Z</time></trkpt><trkpt lat="41.5103644426693" lon="0.08200327100356197"><ele>277.0</ele><time>2026-05-04T11:56:53.001Z</time></trkpt><trkpt lat="41.51041077748371" lon="0.08213587610989183"><ele>276.6</ele><time>2026-05-04T11:56:54.001Z</time></trkpt><trkpt lat="41.51045793183776" lon="0.08226179324960056"><ele>276.2</ele><time>2026-05-04T11:56:55.001Z</time></trkpt><trkpt lat="41.51050236412386" lon="0.08239498007679749"><ele>275.8</ele><time>2026-05-04T11:56:56.001Z</time></trkpt><trkpt lat="41.51054756371559" lon="0.08252446859718274"><ele>275.4</ele><time>2026-05-04T11:56:57.001Z</time></trkpt><trkpt lat="41.5105932935902" lon="0.08265127595262427"><ele>275.0</ele><time>2026-05-04T11:56:58.001Z</time></trkpt><trkpt lat="41.51063854512758" lon="0.082776211918098"><ele>275.0</ele><time>2026-05-04T11:56:59.001Z</time></trkpt><trkpt lat="41.51068648188504" lon="0.08290362217125588"><ele>275.0</ele><time>2026-05-04T11:57:00.001Z</time></trkpt><trkpt lat="41.51073175661836" lon="0.08302550489950256"><ele>275.0</ele><time>2026-05-04T11:57:01.001Z</time></trkpt><trkpt lat="41.51077938977731" lon="0.08315540717243479"><ele>275.0</ele><time>2026-05-04T11:57:02.001Z</time></trkpt><trkpt lat="41.51082448667743" lon="0.08327982590891334"><ele>275.0</ele><time>2026-05-04T11:57:03.001Z</time></trkpt><trkpt lat="41.51087060280914" lon="0.08340254624255404"><ele>275.4</ele><time>2026-05-04T11:57:04.001Z</time></trkpt><trkpt lat="41.51091779029616" lon="0.08352641344485372"><ele>275.8</ele><time>2026-05-04T11:57:05.001Z</time></trkpt><trkpt lat="41.5109601006998" lon="0.08364776924203185"><ele>276.2</ele><time>2026-05-04T11:57:06.001Z</time></trkpt><trkpt lat="41.51100342971141" lon="0.08377050167680641"><ele>276.6</ele><time>2026-05-04T11:57:07.001Z</time></trkpt><trkpt lat="41.511051593909826" lon="0.08389144351714073"><ele>277.0</ele><time>2026-05-04T11:57:08.001Z</time></trkpt><trkpt lat="41.511095237024385" lon="0.0840144612205503"><ele>277.0</ele><time>2026-05-04T11:57:09.001Z</time></trkpt><trkpt lat="41.51113945722208" lon="0.08413731179633975"><ele>277.0</ele><time>2026-05-04T11:57:10.001Z</time></trkpt><trkpt lat="41.51118270743448" lon="0.0842629368770027"><ele>277.0</ele><time>2026-05-04T11:57:11.001Z</time></trkpt><trkpt lat="41.51122716875426" lon="0.08438761650238405"><ele>277.0</ele><time>2026-05-04T11:57:12.001Z</time></trkpt><trkpt lat="41.51127214062143" lon="0.08451060956014173"><ele>277.0</ele><time>2026-05-04T11:57:13Z</time></trkpt><trkpt lat="41.511315682126494" lon="0.08463477851922166"><ele>277.0</ele><time>2026-05-04T11:57:14Z</time></trkpt><trkpt lat="41.511365480142786" lon="0.08475694005074597"><ele>277.0</ele><time>2026-05-04T11:57:15Z</time></trkpt><trkpt lat="41.5114119189775" lon="0.08488179201557536"><ele>277.0</ele><time>2026-05-04T11:57:16Z</time></trkpt><trkpt lat="41.51145606995036" lon="0.08500831821053402"><ele>277.0</ele><time>2026-05-04T11:57:17Z</time></trkpt><trkpt lat="41.51150025341913" lon="0.08513398909004007"><ele>277.0</ele><time>2026-05-04T11:57:18Z</time></trkpt><trkpt lat="41.511547512209205" lon="0.0852635608904198"><ele>277.2</ele><time>2026-05-04T11:57:19Z</time></trkpt><trkpt lat="41.511590953621955" lon="0.08539333629714292"><ele>277.4</ele><time>2026-05-04T11:57:20Z</time></trkpt><trkpt lat="41.51163976279133" lon="0.08552182766934278"><ele>277.6</ele><time>2026-05-04T11:57:21Z</time></trkpt><trkpt lat="41.5116833768122" lon="0.08565693870585493"><ele>277.8</ele><time>2026-05-04T11:57:22Z</time></trkpt><trkpt lat="41.511733848305695" lon="0.08578804044012565"><ele>278.0</ele><time>2026-05-04T11:57:23Z</time></trkpt><trkpt lat="41.51177415856722" lon="0.08591848812917909"><ele>279.0</ele><time>2026-05-04T11:57:24Z</time></trkpt><trkpt lat="41.51182936928369" lon="0.08605409446630906"><ele>280.0</ele><time>2026-05-04T11:57:25Z</time></trkpt><trkpt lat="41.51188826850935" lon="0.08618423007950636"><ele>281.0</ele><time>2026-05-04T11:57:26Z</time></trkpt><trkpt lat="41.51195625716454" lon="0.08634745705894667"><ele>282.0</ele><time>2026-05-04T11:57:27Z</time></trkpt><trkpt lat="41.51197659663971" lon="0.08646611113282088"><ele>282.0</ele><time>2026-05-04T11:57:28Z</time></trkpt><trkpt lat="41.512013025288596" lon="0.08659536716161516"><ele>282.0</ele><time>2026-05-04T11:57:29Z</time></trkpt><trkpt lat="41.51205863074238" lon="0.08672213844178876"><ele>282.0</ele><time>2026-05-04T11:57:30Z</time></trkpt><trkpt lat="41.51207368020543" lon="0.0868507110476238"><ele>282.0</ele><time>2026-05-04T11:57:31Z</time></trkpt><trkpt lat="41.51210088783073" lon="0.08699432745187591"><ele>282.0</ele><time>2026-05-04T11:57:32Z</time></trkpt><trkpt lat="41.51221180259301" lon="0.08711929447059366"><ele>281.75</ele><time>2026-05-04T11:57:33Z</time></trkpt><trkpt lat="41.5122666753198" lon="0.08724860967486087"><ele>281.5</ele><time>2026-05-04T11:57:34Z</time></trkpt><trkpt lat="41.51232039082487" lon="0.08738280640534063"><ele>281.25</ele><time>2026-05-04T11:57:35Z</time></trkpt><trkpt lat="41.51236953192237" lon="0.0875261033131769"><ele>281.0</ele><time>2026-05-04T11:57:36Z</time></trkpt><trkpt lat="41.51241458681946" lon="0.08766798627697654"><ele>281.0</ele><time>2026-05-04T11:57:37Z</time></trkpt><trkpt lat="41.51246209608393" lon="0.087806968458931"><ele>281.0</ele><time>2026-05-04T11:57:38Z</time></trkpt><trkpt lat="41.512506521989884" lon="0.08794606117286939"><ele>281.0</ele><time>2026-05-04T11:57:39Z</time></trkpt><trkpt lat="41.51255386723872" lon="0.08808012331793104"><ele>281.0</ele><time>2026-05-04T11:57:40Z</time></trkpt><trkpt lat="41.51260188537839" lon="0.08821680796551512"><ele>281.6</ele><time>2026-05-04T11:57:41Z</time></trkpt><trkpt lat="41.512652123204745" lon="0.08835758576093079"><ele>282.20000000000005</ele><time>2026-05-04T11:57:42Z</time></trkpt><trkpt lat="41.51269700308367" lon="0.08851938350287214"><ele>282.79999999999995</ele><time>2026-05-04T11:57:43Z</time></trkpt><trkpt lat="41.512748296413875" lon="0.08860604088490594"><ele>283.4</ele><time>2026-05-04T11:57:44Z</time></trkpt><trkpt lat="41.51279530334039" lon="0.08873212744883331"><ele>284.0</ele><time>2026-05-04T11:57:45Z</time></trkpt><trkpt lat="41.512841224322514" lon="0.0888640388904637"><ele>284.0</ele><time>2026-05-04T11:57:46Z</time></trkpt><trkpt lat="41.512884099733505" lon="0.08899821121093643"><ele>284.0</ele><time>2026-05-04T11:57:47Z</time></trkpt><trkpt lat="41.51293190322258" lon="0.0891291685034763"><ele>284.0</ele><time>2026-05-04T11:57:48Z</time></trkpt><trkpt lat="41.51297867136782" lon="0.08925765486015852"><ele>284.0</ele><time>2026-05-04T11:57:49Z</time></trkpt><trkpt lat="41.51302582402093" lon="0.08938836468100858"><ele>284.0</ele><time>2026-05-04T11:57:50Z</time></trkpt><trkpt lat="41.513071857270155" lon="0.08951689561552412"><ele>284.59999999999997</ele><time>2026-05-04T11:57:51Z</time></trkpt><trkpt lat="41.513118671410524" lon="0.08964695124222694"><ele>285.2</ele><time>2026-05-04T11:57:52Z</time></trkpt><trkpt lat="41.51316727264785" lon="0.08977506167960926"><ele>285.79999999999995</ele><time>2026-05-04T11:57:53Z</time></trkpt><trkpt lat="41.513212371389656" lon="0.08990170252010142"><ele>286.4</ele><time>2026-05-04T11:57:54Z</time></trkpt><trkpt lat="41.51325957067738" lon="0.09002824005227113"><ele>287.0</ele><time>2026-05-04T11:57:55Z</time></trkpt><trkpt lat="41.5133047136398" lon="0.09015759449245443"><ele>287.0</ele><time>2026-05-04T11:57:56Z</time></trkpt><trkpt lat="41.51334790231324" lon="0.09028969281711664"><ele>287.0</ele><time>2026-05-04T11:57:57Z</time></trkpt><trkpt lat="41.51338450394924" lon="0.09042180600578371"><ele>287.0</ele><time>2026-05-04T11:57:58Z</time></trkpt><trkpt lat="41.513420134048125" lon="0.09055732058146948"><ele>287.0</ele><time>2026-05-04T11:57:59Z</time></trkpt><trkpt lat="41.51345378860282" lon="0.09069439062026005"><ele>287.0</ele><time>2026-05-04T11:58:00Z</time></trkpt><trkpt lat="41.51348220267717" lon="0.09083011636520882"><ele>287.4</ele><time>2026-05-04T11:58:01Z</time></trkpt><trkpt lat="41.513504973247436" lon="0.09096575136907592"><ele>287.79999999999995</ele><time>2026-05-04T11:58:02Z</time></trkpt><trkpt lat="41.513527602663665" lon="0.09110260577583461"><ele>288.2</ele><time>2026-05-04T11:58:03Z</time></trkpt><trkpt lat="41.513542988105975" lon="0.09123945273104606"><ele>288.59999999999997</ele><time>2026-05-04T11:58:04Z</time></trkpt><trkpt lat="41.51355712506719" lon="0.091375367874371"><ele>289.0</ele><time>2026-05-04T11:58:05Z</time></trkpt><trkpt lat="41.51357091248986" lon="0.09151384660568627"><ele>289.4</ele><time>2026-05-04T11:58:06Z</time></trkpt><trkpt lat="41.51357788944097" lon="0.09165179254801652"><ele>289.79999999999995</ele><time>2026-05-04T11:58:07Z</time></trkpt><trkpt lat="41.51357732105423" lon="0.09179359727541096"><ele>290.20000000000005</ele><time>2026-05-04T11:58:08.001Z</time></trkpt><trkpt lat="41.51357480251197" lon="0.09193033607736338"><ele>290.6</ele><time>2026-05-04T11:58:09.001Z</time></trkpt><trkpt lat="41.51356892239611" lon="0.0920682180321232"><ele>291.0</ele><time>2026-05-04T11:58:10.001Z</time></trkpt><trkpt lat="41.513557733241555" lon="0.09220560640544415"><ele>291.0</ele><time>2026-05-04T11:58:11.001Z</time></trkpt><trkpt lat="41.513550728883615" lon="0.09234442041745983"><ele>291.0</ele><time>2026-05-04T11:58:12.001Z</time></trkpt><trkpt lat="41.51354239302305" lon="0.09248050606913333"><ele>291.0</ele><time>2026-05-04T11:58:13.001Z</time></trkpt><trkpt lat="41.5135275925782" lon="0.09261482729576345"><ele>291.0</ele><time>2026-05-04T11:58:14.001Z</time></trkpt><trkpt lat="41.513512691305706" lon="0.09274792276065982"><ele>291.0</ele><time>2026-05-04T11:58:15.001Z</time></trkpt><trkpt lat="41.513498274460204" lon="0.09287670254000241"><ele>291.6</ele><time>2026-05-04T11:58:16.001Z</time></trkpt><trkpt lat="41.5134840990046" lon="0.09300877718135568"><ele>292.20000000000005</ele><time>2026-05-04T11:58:17.001Z</time></trkpt><trkpt lat="41.51347356636353" lon="0.09314107148656244"><ele>292.79999999999995</ele><time>2026-05-04T11:58:18.001Z</time></trkpt><trkpt lat="41.51345692210561" lon="0.09326832686275383"><ele>293.4</ele><time>2026-05-04T11:58:19.001Z</time></trkpt><trkpt lat="41.51344579944968" lon="0.09339005698306804"><ele>294.0</ele><time>2026-05-04T11:58:20.001Z</time></trkpt><trkpt lat="41.513431359905624" lon="0.09351684846984004"><ele>294.59999999999997</ele><time>2026-05-04T11:58:21.001Z</time></trkpt><trkpt lat="41.51341473870415" lon="0.0936419796212423"><ele>295.2</ele><time>2026-05-04T11:58:22.001Z</time></trkpt><trkpt lat="41.51340055790276" lon="0.09376722907634076"><ele>295.79999999999995</ele><time>2026-05-04T11:58:23.001Z</time></trkpt><trkpt lat="41.513386227550924" lon="0.09389063757420724"><ele>296.4</ele><time>2026-05-04T11:58:24.001Z</time></trkpt><trkpt lat="41.51337429680562" lon="0.09401190470201375"><ele>297.0</ele><time>2026-05-04T11:58:25.001Z</time></trkpt><trkpt lat="41.51335706371905" lon="0.09414033058254229"><ele>298.0</ele><time>2026-05-04T11:58:26.001Z</time></trkpt><trkpt lat="41.51334460520233" lon="0.09425448712117626"><ele>299.0</ele><time>2026-05-04T11:58:27.001Z</time></trkpt><trkpt lat="41.51333249931396" lon="0.09437530492714903"><ele>300.0</ele><time>2026-05-04T11:58:28.001Z</time></trkpt><trkpt lat="41.51331808651016" lon="0.09449445964973185"><ele>301.0</ele><time>2026-05-04T11:58:29.001Z</time></trkpt><trkpt lat="41.513302379379795" lon="0.09461062745685772"><ele>302.0</ele><time>2026-05-04T11:58:30.001Z</time></trkpt><trkpt lat="41.513288954322974" lon="0.09472592797488018"><ele>303.0</ele><time>2026-05-04T11:58:31.001Z</time></trkpt><trkpt lat="41.513281045978395" lon="0.09484458725403944"><ele>304.0</ele><time>2026-05-04T11:58:32.001Z</time></trkpt><trkpt lat="41.51326560791222" lon="0.09496244877690338"><ele>305.0</ele><time>2026-05-04T11:58:33.001Z</time></trkpt><trkpt lat="41.513252077732254" lon="0.09508140681526149"><ele>306.0</ele><time>2026-05-04T11:58:34.001Z</time></trkpt><trkpt lat="41.51323732519577" lon="0.09519912362525121"><ele>307.0</ele><time>2026-05-04T11:58:35.001Z</time></trkpt><trkpt lat="41.51322845667494" lon="0.09531619186380254"><ele>308.0</ele><time>2026-05-04T11:58:36.001Z</time></trkpt><trkpt lat="41.51320985744325" lon="0.09543392447908718"><ele>309.0</ele><time>2026-05-04T11:58:37.001Z</time></trkpt><trkpt lat="41.51319550587585" lon="0.09555583136438278"><ele>309.0</ele><time>2026-05-04T11:58:38.001Z</time></trkpt><trkpt lat="41.51318481368468" lon="0.09566911074247818"><ele>309.0</ele><time>2026-05-04T11:58:39.001Z</time></trkpt><trkpt lat="41.51317211327094" lon="0.09578639274881463"><ele>309.0</ele><time>2026-05-04T11:58:40.001Z</time></trkpt><trkpt lat="41.513160428966074" lon="0.09590507687197826"><ele>309.0</ele><time>2026-05-04T11:58:41.001Z</time></trkpt><trkpt lat="41.51313999353622" lon="0.09602502756207998"><ele>309.0</ele><time>2026-05-04T11:58:42.001Z</time></trkpt><trkpt lat="41.51312698891119" lon="0.09613958981663247"><ele>309.0</ele><time>2026-05-04T11:58:43.001Z</time></trkpt><trkpt lat="41.51311746467758" lon="0.09625715307068947"><ele>309.4</ele><time>2026-05-04T11:58:44.001Z</time></trkpt><trkpt lat="41.51310015273509" lon="0.09637955138320946"><ele>309.79999999999995</ele><time>2026-05-04T11:58:45.001Z</time></trkpt><trkpt lat="41.51308670681458" lon="0.09649332417962718"><ele>310.20000000000005</ele><time>2026-05-04T11:58:46.001Z</time></trkpt><trkpt lat="41.513076463317105" lon="0.09661168014799695"><ele>310.6</ele><time>2026-05-04T11:58:47.001Z</time></trkpt><trkpt lat="41.513060983227675" lon="0.09673282277761017"><ele>311.0</ele><time>2026-05-04T11:58:48.001Z</time></trkpt><trkpt lat="41.51304545106505" lon="0.09685111450091267"><ele>311.6</ele><time>2026-05-04T11:58:49.001Z</time></trkpt><trkpt lat="41.51303124008575" lon="0.096969942493659"><ele>312.20000000000005</ele><time>2026-05-04T11:58:50.001Z</time></trkpt><trkpt lat="41.51301600103227" lon="0.0970887754970372"><ele>312.79999999999995</ele><time>2026-05-04T11:58:51.001Z</time></trkpt><trkpt lat="41.5130041784969" lon="0.09720888168274845"><ele>313.4</ele><time>2026-05-04T11:58:52.001Z</time></trkpt><trkpt lat="41.51299438444675" lon="0.09732827216411892"><ele>314.0</ele><time>2026-05-04T11:58:53.001Z</time></trkpt><trkpt lat="41.51297958893885" lon="0.09745529461641379"><ele>315.2</ele><time>2026-05-04T11:58:54.001Z</time></trkpt><trkpt lat="41.51296530977553" lon="0.09757202415495143"><ele>316.4</ele><time>2026-05-04T11:58:55.001Z</time></trkpt><trkpt lat="41.512951105877214" lon="0.0976938274965717"><ele>317.6</ele><time>2026-05-04T11:58:56.001Z</time></trkpt><trkpt lat="41.512935622086324" lon="0.09781827486342737"><ele>318.8</ele><time>2026-05-04T11:58:57.001Z</time></trkpt><trkpt lat="41.51292292606234" lon="0.09794104694437077"><ele>320.0</ele><time>2026-05-04T11:58:58.001Z</time></trkpt><trkpt lat="41.512909335388116" lon="0.09806891964304541"><ele>320.0</ele><time>2026-05-04T11:58:59.001Z</time></trkpt><trkpt lat="41.512895246209524" lon="0.09819541482230731"><ele>320.0</ele><time>2026-05-04T11:59:00.001Z</time></trkpt><trkpt lat="41.51287967207215" lon="0.0983236079731082"><ele>320.0</ele><time>2026-05-04T11:59:01.001Z</time></trkpt><trkpt lat="41.51286467008408" lon="0.09845569411595667"><ele>320.0</ele><time>2026-05-04T11:59:02.001Z</time></trkpt><trkpt lat="41.51284903655608" lon="0.09858974908548634"><ele>320.0</ele><time>2026-05-04T11:59:03.001Z</time></trkpt><trkpt lat="41.51283344081099" lon="0.09872341114296529"><ele>320.0</ele><time>2026-05-04T11:59:04.001Z</time></trkpt><trkpt lat="41.51281720955002" lon="0.09885723362160768"><ele>320.0</ele><time>2026-05-04T11:59:05.001Z</time></trkpt><trkpt lat="41.51279856803455" lon="0.0989943691956808"><ele>320.0</ele><time>2026-05-04T11:59:06.001Z</time></trkpt><trkpt lat="41.51278179111008" lon="0.09913276926474764"><ele>320.0</ele><time>2026-05-04T11:59:07.001Z</time></trkpt><trkpt lat="41.512767662352196" lon="0.09927121941598996"><ele>320.0</ele><time>2026-05-04T11:59:08.001Z</time></trkpt><trkpt lat="41.51275249616691" lon="0.09941438591026812"><ele>320.0</ele><time>2026-05-04T11:59:09.001Z</time></trkpt><trkpt lat="41.51273785149721" lon="0.09955419464755075"><ele>320.0</ele><time>2026-05-04T11:59:10.001Z</time></trkpt><trkpt lat="41.512726580403644" lon="0.09971362696274948"><ele>320.0</ele><time>2026-05-04T11:59:11.001Z</time></trkpt><trkpt lat="41.51272911457081" lon="0.09984351816102527"><ele>320.0</ele><time>2026-05-04T11:59:12.001Z</time></trkpt><trkpt lat="41.51272699868084" lon="0.09998817370909098"><ele>320.0</ele><time>2026-05-04T11:59:13.001Z</time></trkpt><trkpt lat="41.512728880208485" lon="0.10013801815270074"><ele>319.8</ele><time>2026-05-04T11:59:14.001Z</time></trkpt><trkpt lat="41.51273819746004" lon="0.10028755299376745"><ele>319.6</ele><time>2026-05-04T11:59:15.001Z</time></trkpt><trkpt lat="41.51274911642422" lon="0.10043833625223966"><ele>319.4</ele><time>2026-05-04T11:59:16.001Z</time></trkpt><trkpt lat="41.51276700650651" lon="0.10058617067679168"><ele>319.2</ele><time>2026-05-04T11:59:17.001Z</time></trkpt><trkpt lat="41.512794928181904" lon="0.10073022889321083"><ele>319.0</ele><time>2026-05-04T11:59:18.001Z</time></trkpt><trkpt lat="41.512826152592936" lon="0.1008720334540506"><ele>319.0</ele><time>2026-05-04T11:59:19Z</time></trkpt><trkpt lat="41.512861426201965" lon="0.10101268634852645"><ele>319.0</ele><time>2026-05-04T11:59:20Z</time></trkpt><trkpt lat="41.51289649999156" lon="0.10115401934798561"><ele>319.0</ele><time>2026-05-04T11:59:21Z</time></trkpt><trkpt lat="41.51293976128045" lon="0.10129439287578224"><ele>319.0</ele><time>2026-05-04T11:59:22Z</time></trkpt><trkpt lat="41.51298573254185" lon="0.10143487084406361"><ele>318.75</ele><time>2026-05-04T11:59:23Z</time></trkpt><trkpt lat="41.51303326122574" lon="0.10157018927088528"><ele>318.5</ele><time>2026-05-04T11:59:24Z</time></trkpt><trkpt lat="41.51307678745264" lon="0.10171192769627158"><ele>318.25</ele><time>2026-05-04T11:59:25Z</time></trkpt><trkpt lat="41.513123316292926" lon="0.10185573654695944"><ele>318.0</ele><time>2026-05-04T11:59:26Z</time></trkpt><trkpt lat="41.51316881670271" lon="0.10200054550657561"><ele>318.0</ele><time>2026-05-04T11:59:27Z</time></trkpt><trkpt lat="41.51321461278466" lon="0.10214120192775615"><ele>318.0</ele><time>2026-05-04T11:59:28Z</time></trkpt><trkpt lat="41.51326468915739" lon="0.10228287948947822"><ele>318.0</ele><time>2026-05-04T11:59:29Z</time></trkpt><trkpt lat="41.51331147295838" lon="0.10242546202866737"><ele>318.0</ele><time>2026-05-04T11:59:30Z</time></trkpt><trkpt lat="41.51335610326983" lon="0.10256897412997024"><ele>318.25</ele><time>2026-05-04T11:59:31Z</time></trkpt><trkpt lat="41.513402208418114" lon="0.10270937989052714"><ele>318.5</ele><time>2026-05-04T11:59:32Z</time></trkpt><trkpt lat="41.51344685207089" lon="0.1028465312104378"><ele>318.75</ele><time>2026-05-04T11:59:33Z</time></trkpt><trkpt lat="41.513492241315554" lon="0.10298276218241406"><ele>319.0</ele><time>2026-05-04T11:59:34Z</time></trkpt><trkpt lat="41.51353930833579" lon="0.1031243362790564"><ele>319.0</ele><time>2026-05-04T11:59:35Z</time></trkpt><trkpt lat="41.51357879479345" lon="0.10326164639500833"><ele>319.0</ele><time>2026-05-04T11:59:36Z</time></trkpt><trkpt lat="41.51362454141214" lon="0.10340265047090234"><ele>319.0</ele><time>2026-05-04T11:59:37Z</time></trkpt><trkpt lat="41.51367039096741" lon="0.10354072962817283"><ele>319.0</ele><time>2026-05-04T11:59:38Z</time></trkpt><trkpt lat="41.51371054795919" lon="0.10367604373286045"><ele>319.0</ele><time>2026-05-04T11:59:39Z</time></trkpt><trkpt lat="41.5137562602595" lon="0.10381971011140173"><ele>319.0</ele><time>2026-05-04T11:59:40Z</time></trkpt><trkpt lat="41.51380302056954" lon="0.1039586641608069"><ele>319.0</ele><time>2026-05-04T11:59:41Z</time></trkpt><trkpt lat="41.51384277016962" lon="0.10409810685017781"><ele>319.0</ele><time>2026-05-04T11:59:42Z</time></trkpt><trkpt lat="41.51389079470757" lon="0.10423607331450241"><ele>319.0</ele><time>2026-05-04T11:59:43Z</time></trkpt><trkpt lat="41.51394129438148" lon="0.10437309328025515"><ele>318.75</ele><time>2026-05-04T11:59:44Z</time></trkpt><trkpt lat="41.51398566661988" lon="0.10451504383163482"><ele>318.5</ele><time>2026-05-04T11:59:45Z</time></trkpt><trkpt lat="41.51402584191138" lon="0.1046583080798158"><ele>318.25</ele><time>2026-05-04T11:59:46Z</time></trkpt><trkpt lat="41.5140739733912" lon="0.10480184924906745"><ele>318.0</ele><time>2026-05-04T11:59:47Z</time></trkpt><trkpt lat="41.514125184250965" lon="0.10494308174599778"><ele>317.75</ele><time>2026-05-04T11:59:48Z</time></trkpt><trkpt lat="41.514170033787536" lon="0.10508754662791658"><ele>317.5</ele><time>2026-05-04T11:59:49Z</time></trkpt><trkpt lat="41.51421035258067" lon="0.10523226053469943"><ele>317.25</ele><time>2026-05-04T11:59:50Z</time></trkpt><trkpt lat="41.51425560502507" lon="0.10537655004477627"><ele>317.0</ele><time>2026-05-04T11:59:51Z</time></trkpt><trkpt lat="41.51430686400437" lon="0.10552201781950393"><ele>317.0</ele><time>2026-05-04T11:59:52Z</time></trkpt><trkpt lat="41.51435517301428" lon="0.10566509659702691"><ele>317.0</ele><time>2026-05-04T11:59:53Z</time></trkpt><trkpt lat="41.5144008771319" lon="0.10580689437209076"><ele>317.0</ele><time>2026-05-04T11:59:54Z</time></trkpt><trkpt lat="41.51444701661295" lon="0.10595098324368592"><ele>317.0</ele><time>2026-05-04T11:59:55Z</time></trkpt><trkpt lat="41.514489301781026" lon="0.10609706096685552"><ele>316.75</ele><time>2026-05-04T11:59:56Z</time></trkpt><trkpt lat="41.51453635904225" lon="0.1062419580044534"><ele>316.5</ele><time>2026-05-04T11:59:57Z</time></trkpt><trkpt lat="41.51458363446915" lon="0.10638735597659676"><ele>316.25</ele><time>2026-05-04T11:59:58Z</time></trkpt><trkpt lat="41.51463165632302" lon="0.10653233569769316"><ele>316.0</ele><time>2026-05-04T11:59:59Z</time></trkpt><trkpt lat="41.51467670242876" lon="0.10667839999539379"><ele>315.75</ele><time>2026-05-04T12:00:00Z</time></trkpt><trkpt lat="41.51472395206597" lon="0.10682376918288376"><ele>315.5</ele><time>2026-05-04T12:00:01Z</time></trkpt><trkpt lat="41.51476763249029" lon="0.10696867014955413"><ele>315.25</ele><time>2026-05-04T12:00:02Z</time></trkpt><trkpt lat="41.51481589659978" lon="0.1071148424384196"><ele>315.0</ele><time>2026-05-04T12:00:03Z</time></trkpt><trkpt lat="41.5148616023233" lon="0.107260032866109"><ele>315.0</ele><time>2026-05-04T12:00:04Z</time></trkpt><trkpt lat="41.51491021397101" lon="0.10740177644727777"><ele>315.0</ele><time>2026-05-04T12:00:05Z</time></trkpt><trkpt lat="41.51495795309753" lon="0.10754376922919681"><ele>315.0</ele><time>2026-05-04T12:00:06Z</time></trkpt><trkpt lat="41.515000232352435" lon="0.10768823580797543"><ele>315.0</ele><time>2026-05-04T12:00:07Z</time></trkpt><trkpt lat="41.515044137499956" lon="0.10782906189969628"><ele>314.75</ele><time>2026-05-04T12:00:08Z</time></trkpt><trkpt lat="41.51509123883509" lon="0.10796927588358203"><ele>314.5</ele><time>2026-05-04T12:00:09Z</time></trkpt><trkpt lat="41.5151375278019" lon="0.1081120188635341"><ele>314.25</ele><time>2026-05-04T12:00:10Z</time></trkpt><trkpt lat="41.51518127234335" lon="0.10824946301472106"><ele>314.0</ele><time>2026-05-04T12:00:11Z</time></trkpt><trkpt lat="41.51522625024364" lon="0.10838567652206496"><ele>314.0</ele><time>2026-05-04T12:00:12Z</time></trkpt><trkpt lat="41.515269276679035" lon="0.10851667237442628"><ele>314.0</ele><time>2026-05-04T12:00:13Z</time></trkpt><trkpt lat="41.51532724377988" lon="0.10866289309563783"><ele>314.0</ele><time>2026-05-04T12:00:14Z</time></trkpt><trkpt lat="41.51535937810145" lon="0.1087916906956759"><ele>314.0</ele><time>2026-05-04T12:00:15Z</time></trkpt><trkpt lat="41.51540290426554" lon="0.10892565514784801"><ele>314.0</ele><time>2026-05-04T12:00:16.001Z</time></trkpt><trkpt lat="41.515441855107234" lon="0.10906590873907943"><ele>314.59999999999997</ele><time>2026-05-04T12:00:17.001Z</time></trkpt><trkpt lat="41.5154860053803" lon="0.10920424614698099"><ele>315.2</ele><time>2026-05-04T12:00:18.001Z</time></trkpt><trkpt lat="41.515532205124934" lon="0.1093411637941451"><ele>315.79999999999995</ele><time>2026-05-04T12:00:19.001Z</time></trkpt><trkpt lat="41.515574839674905" lon="0.10947995321051274"><ele>316.4</ele><time>2026-05-04T12:00:20.001Z</time></trkpt><trkpt lat="41.515615431653664" lon="0.10961829374504568"><ele>317.0</ele><time>2026-05-04T12:00:21.001Z</time></trkpt><trkpt lat="41.51565725577565" lon="0.10975236053706815"><ele>317.0</ele><time>2026-05-04T12:00:22.001Z</time></trkpt><trkpt lat="41.51570212675993" lon="0.1098887038422219"><ele>317.0</ele><time>2026-05-04T12:00:23.001Z</time></trkpt><trkpt lat="41.515747234143426" lon="0.11002766593931403"><ele>317.0</ele><time>2026-05-04T12:00:24.001Z</time></trkpt><trkpt lat="41.51579095593795" lon="0.11016603496861455"><ele>317.0</ele><time>2026-05-04T12:00:25.001Z</time></trkpt><trkpt lat="41.51583343004526" lon="0.11030533514866836"><ele>316.75</ele><time>2026-05-04T12:00:26.001Z</time></trkpt><trkpt lat="41.51587791808446" lon="0.11044302614708928"><ele>316.5</ele><time>2026-05-04T12:00:27.001Z</time></trkpt><trkpt lat="41.515917455358554" lon="0.11058378301944377"><ele>316.25</ele><time>2026-05-04T12:00:28.001Z</time></trkpt><trkpt lat="41.51595957471054" lon="0.11072459464692713"><ele>316.0</ele><time>2026-05-04T12:00:29.001Z</time></trkpt><trkpt lat="41.51601073144872" lon="0.11086176694485203"><ele>315.8</ele><time>2026-05-04T12:00:30.001Z</time></trkpt><trkpt lat="41.5160559312475" lon="0.1109980658017943"><ele>315.6</ele><time>2026-05-04T12:00:31.001Z</time></trkpt><trkpt lat="41.516094620045195" lon="0.11114146485653498"><ele>315.4</ele><time>2026-05-04T12:00:32.001Z</time></trkpt><trkpt lat="41.516134886141884" lon="0.11127983549621637"><ele>315.2</ele><time>2026-05-04T12:00:33.001Z</time></trkpt><trkpt lat="41.51617892939386" lon="0.11141767092288307"><ele>315.0</ele><time>2026-05-04T12:00:34.001Z</time></trkpt><trkpt lat="41.51622232981832" lon="0.111549962800755"><ele>315.2</ele><time>2026-05-04T12:00:35.001Z</time></trkpt><trkpt lat="41.516265911049466" lon="0.11168654561482266"><ele>315.4</ele><time>2026-05-04T12:00:36.001Z</time></trkpt><trkpt lat="41.51630628820513" lon="0.11182292169231535"><ele>315.6</ele><time>2026-05-04T12:00:37.001Z</time></trkpt><trkpt lat="41.51634748290281" lon="0.11195926154587434"><ele>315.8</ele><time>2026-05-04T12:00:38.001Z</time></trkpt><trkpt lat="41.516390984447916" lon="0.11209972483701924"><ele>316.0</ele><time>2026-05-04T12:00:39.001Z</time></trkpt><trkpt lat="41.51643881911496" lon="0.11223422234725149"><ele>316.0</ele><time>2026-05-04T12:00:40.001Z</time></trkpt><trkpt lat="41.5164808911359" lon="0.11236706262921292"><ele>316.0</ele><time>2026-05-04T12:00:41.001Z</time></trkpt><trkpt lat="41.51652460110528" lon="0.11250196530344421"><ele>316.0</ele><time>2026-05-04T12:00:42.001Z</time></trkpt><trkpt lat="41.51656972035592" lon="0.11263857727000973"><ele>316.0</ele><time>2026-05-04T12:00:43.001Z</time></trkpt><trkpt lat="41.51662164760868" lon="0.11277620702268411"><ele>316.0</ele><time>2026-05-04T12:00:44.001Z</time></trkpt><trkpt lat="41.51666918169661" lon="0.11291187641119728"><ele>316.0</ele><time>2026-05-04T12:00:45.001Z</time></trkpt><trkpt lat="41.5167054059884" lon="0.11303945185358653"><ele>316.0</ele><time>2026-05-04T12:00:46.001Z</time></trkpt><trkpt lat="41.51674958808066" lon="0.1131542075974666"><ele>316.0</ele><time>2026-05-04T12:00:47.001Z</time></trkpt><trkpt lat="41.51679028218333" lon="0.11332381932689282"><ele>316.0</ele><time>2026-05-04T12:00:48.001Z</time></trkpt><trkpt lat="41.516834045006455" lon="0.11346256901359211"><ele>316.0</ele><time>2026-05-04T12:00:49.001Z</time></trkpt><trkpt lat="41.51687509889877" lon="0.11360258828320528"><ele>316.0</ele><time>2026-05-04T12:00:50.001Z</time></trkpt><trkpt lat="41.51692019460282" lon="0.11374161163318289"><ele>316.0</ele><time>2026-05-04T12:00:51.001Z</time></trkpt><trkpt lat="41.516964888044996" lon="0.11388419496211577"><ele>316.0</ele><time>2026-05-04T12:00:52.001Z</time></trkpt><trkpt lat="41.51700963940862" lon="0.11402535029959708"><ele>316.0</ele><time>2026-05-04T12:00:53.001Z</time></trkpt><trkpt lat="41.517055076205395" lon="0.11416562437501013"><ele>316.5</ele><time>2026-05-04T12:00:54.001Z</time></trkpt><trkpt lat="41.517102054642706" lon="0.1143064427864406"><ele>317.0</ele><time>2026-05-04T12:00:55.001Z</time></trkpt><trkpt lat="41.517143396121526" lon="0.114448400415629"><ele>317.5</ele><time>2026-05-04T12:00:56.001Z</time></trkpt><trkpt lat="41.51718808746593" lon="0.11458747602595483"><ele>318.0</ele><time>2026-05-04T12:00:57.001Z</time></trkpt><trkpt lat="41.51723388098307" lon="0.11472880421033377"><ele>318.0</ele><time>2026-05-04T12:00:58.001Z</time></trkpt><trkpt lat="41.51727905008751" lon="0.1148686452796168"><ele>318.0</ele><time>2026-05-04T12:00:59.001Z</time></trkpt><trkpt lat="41.51732384039222" lon="0.11500923967058153"><ele>318.0</ele><time>2026-05-04T12:01:00.001Z</time></trkpt><trkpt lat="41.517369294603846" lon="0.11514940610536112"><ele>318.0</ele><time>2026-05-04T12:01:01.001Z</time></trkpt><trkpt lat="41.517413683649515" lon="0.11529213635044104"><ele>317.5</ele><time>2026-05-04T12:01:02.001Z</time></trkpt><trkpt lat="41.51746232576104" lon="0.1154304970499443"><ele>317.0</ele><time>2026-05-04T12:01:03.001Z</time></trkpt><trkpt lat="41.517507887783715" lon="0.11557027938872912"><ele>316.5</ele><time>2026-05-04T12:01:04.001Z</time></trkpt><trkpt lat="41.51755570554805" lon="0.11570976453377237"><ele>316.0</ele><time>2026-05-04T12:01:05.001Z</time></trkpt><trkpt lat="41.517599934292335" lon="0.11585226595339657"><ele>315.75</ele><time>2026-05-04T12:01:06.001Z</time></trkpt><trkpt lat="41.517640945869694" lon="0.11599698249914728"><ele>315.5</ele><time>2026-05-04T12:01:07.001Z</time></trkpt><trkpt lat="41.51768463163023" lon="0.11614126984622024"><ele>315.25</ele><time>2026-05-04T12:01:08.001Z</time></trkpt><trkpt lat="41.51773077573138" lon="0.11628398955602791"><ele>315.0</ele><time>2026-05-04T12:01:09.001Z</time></trkpt><trkpt lat="41.517776418688925" lon="0.1164195108733643"><ele>315.0</ele><time>2026-05-04T12:01:10.001Z</time></trkpt><trkpt lat="41.517822684659315" lon="0.11656033213983016"><ele>315.0</ele><time>2026-05-04T12:01:11.001Z</time></trkpt><trkpt lat="41.51786995338337" lon="0.1167022448854116"><ele>315.0</ele><time>2026-05-04T12:01:12.001Z</time></trkpt><trkpt lat="41.517915469606464" lon="0.11684088119587947"><ele>315.0</ele><time>2026-05-04T12:01:13.001Z</time></trkpt><trkpt lat="41.51796014216001" lon="0.11698324666354973"><ele>315.0</ele><time>2026-05-04T12:01:14.001Z</time></trkpt><trkpt lat="41.51800270539925" lon="0.11712566673749045"><ele>315.0</ele><time>2026-05-04T12:01:15.001Z</time></trkpt><trkpt lat="41.51804723386518" lon="0.11726527030144032"><ele>315.0</ele><time>2026-05-04T12:01:16.001Z</time></trkpt><trkpt lat="41.51809223064519" lon="0.11740478988845171"><ele>315.0</ele><time>2026-05-04T12:01:17.001Z</time></trkpt><trkpt lat="41.51813982370174" lon="0.11754774346074827"><ele>314.5</ele><time>2026-05-04T12:01:18.001Z</time></trkpt><trkpt lat="41.51818566224287" lon="0.11768735835475863"><ele>314.0</ele><time>2026-05-04T12:01:19.001Z</time></trkpt><trkpt lat="41.51823074925822" lon="0.11782790959480856"><ele>313.5</ele><time>2026-05-04T12:01:20.001Z</time></trkpt><trkpt lat="41.51827418039526" lon="0.11797189988392733"><ele>313.0</ele><time>2026-05-04T12:01:21.001Z</time></trkpt><trkpt lat="41.51831858589724" lon="0.11811102571980435"><ele>313.25</ele><time>2026-05-04T12:01:22.001Z</time></trkpt><trkpt lat="41.518367025712315" lon="0.11825165969314003"><ele>313.5</ele><time>2026-05-04T12:01:23.001Z</time></trkpt><trkpt lat="41.518413697656065" lon="0.11839096210536618"><ele>313.75</ele><time>2026-05-04T12:01:24.001Z</time></trkpt><trkpt lat="41.51845850365399" lon="0.11852961328107199"><ele>314.0</ele><time>2026-05-04T12:01:25Z</time></trkpt><trkpt lat="41.51850335359971" lon="0.11866869464669423"><ele>314.0</ele><time>2026-05-04T12:01:26Z</time></trkpt><trkpt lat="41.518547302961814" lon="0.11880875128174116"><ele>314.0</ele><time>2026-05-04T12:01:27Z</time></trkpt><trkpt lat="41.5185939816015" lon="0.11894757415869837"><ele>314.0</ele><time>2026-05-04T12:01:28Z</time></trkpt><trkpt lat="41.51863902365217" lon="0.11908630941823323"><ele>314.0</ele><time>2026-05-04T12:01:29Z</time></trkpt><trkpt lat="41.518682547949524" lon="0.11922552012343011"><ele>314.0</ele><time>2026-05-04T12:01:30Z</time></trkpt><trkpt lat="41.518728092951804" lon="0.1193662055438099"><ele>314.0</ele><time>2026-05-04T12:01:31Z</time></trkpt><trkpt lat="41.51877275366076" lon="0.11950506084019868"><ele>314.0</ele><time>2026-05-04T12:01:32Z</time></trkpt><trkpt lat="41.51881581495811" lon="0.11964521635124825"><ele>314.0</ele><time>2026-05-04T12:01:33Z</time></trkpt><trkpt lat="41.5188610425408" lon="0.11978569727050904"><ele>313.5</ele><time>2026-05-04T12:01:34Z</time></trkpt><trkpt lat="41.518905568359976" lon="0.11992723352956997"><ele>313.0</ele><time>2026-05-04T12:01:35Z</time></trkpt><trkpt lat="41.51894747524973" lon="0.12007033043075918"><ele>312.5</ele><time>2026-05-04T12:01:36Z</time></trkpt><trkpt lat="41.51899086464104" lon="0.12021351840272082"><ele>312.0</ele><time>2026-05-04T12:01:37Z</time></trkpt><trkpt lat="41.51903753151375" lon="0.1203576480137507"><ele>312.0</ele><time>2026-05-04T12:01:38Z</time></trkpt><trkpt lat="41.519084033331055" lon="0.12050290009236918"><ele>312.0</ele><time>2026-05-04T12:01:39Z</time></trkpt><trkpt lat="41.51912963945239" lon="0.12064896350577486"><ele>312.0</ele><time>2026-05-04T12:01:40Z</time></trkpt><trkpt lat="41.51917511564983" lon="0.12079169674464767"><ele>312.0</ele><time>2026-05-04T12:01:41Z</time></trkpt><trkpt lat="41.51921907340176" lon="0.1209358287130838"><ele>311.75</ele><time>2026-05-04T12:01:42Z</time></trkpt><trkpt lat="41.51925921733517" lon="0.121082048937818"><ele>311.5</ele><time>2026-05-04T12:01:43Z</time></trkpt><trkpt lat="41.519294659879534" lon="0.12122998896683394"><ele>311.25</ele><time>2026-05-04T12:01:44Z</time></trkpt><trkpt lat="41.51933128681169" lon="0.1213798494649582"><ele>311.0</ele><time>2026-05-04T12:01:45Z</time></trkpt><trkpt lat="41.51936949953139" lon="0.12152594635131811"><ele>310.0</ele><time>2026-05-04T12:01:46Z</time></trkpt><trkpt lat="41.51940636176525" lon="0.12167616620300731"><ele>309.0</ele><time>2026-05-04T12:01:47Z</time></trkpt><trkpt lat="41.51943759294969" lon="0.12182450528038623"><ele>308.0</ele><time>2026-05-04T12:01:48Z</time></trkpt><trkpt lat="41.519466074277794" lon="0.12197336467605274"><ele>307.0</ele><time>2026-05-04T12:01:49Z</time></trkpt><trkpt lat="41.51949436359984" lon="0.1221256959367913"><ele>307.0</ele><time>2026-05-04T12:01:50Z</time></trkpt><trkpt lat="41.519516082280475" lon="0.12227744005699986"><ele>307.0</ele><time>2026-05-04T12:01:51Z</time></trkpt><trkpt lat="41.51953766655352" lon="0.12243150864545045"><ele>307.0</ele><time>2026-05-04T12:01:52Z</time></trkpt><trkpt lat="41.51955656012336" lon="0.12258195264063577"><ele>307.0</ele><time>2026-05-04T12:01:53Z</time></trkpt><trkpt lat="41.51957247503117" lon="0.12273465493853077"><ele>305.5</ele><time>2026-05-04T12:01:54Z</time></trkpt><trkpt lat="41.519589143245604" lon="0.12288670188493168"><ele>304.0</ele><time>2026-05-04T12:01:55Z</time></trkpt><trkpt lat="41.51960415801506" lon="0.1230374507397565"><ele>302.5</ele><time>2026-05-04T12:01:56Z</time></trkpt><trkpt lat="41.519615623806956" lon="0.12318743022482902"><ele>301.0</ele><time>2026-05-04T12:01:57Z</time></trkpt><trkpt lat="41.51962343480442" lon="0.12333230006682737"><ele>300.0</ele><time>2026-05-04T12:01:58Z</time></trkpt><trkpt lat="41.519631116768046" lon="0.12347929718635305"><ele>299.0</ele><time>2026-05-04T12:01:59Z</time></trkpt><trkpt lat="41.51963087610674" lon="0.12361704859665265"><ele>298.0</ele><time>2026-05-04T12:02:00Z</time></trkpt><trkpt lat="41.51962771315043" lon="0.12393344223078633"><ele>298.5</ele><time>2026-05-04T12:02:02Z</time></trkpt><trkpt lat="41.51962602871486" lon="0.12408198829419341"><ele>299.0</ele><time>2026-05-04T12:02:03Z</time></trkpt><trkpt lat="41.51962117722291" lon="0.12423513894139128"><ele>299.5</ele><time>2026-05-04T12:02:04Z</time></trkpt><trkpt lat="41.51961522594984" lon="0.12438419367003872"><ele>300.0</ele><time>2026-05-04T12:02:05Z</time></trkpt><trkpt lat="41.51960837277025" lon="0.12453512888373199"><ele>300.0</ele><time>2026-05-04T12:02:06Z</time></trkpt><trkpt lat="41.519601326130946" lon="0.1246858670085762"><ele>300.0</ele><time>2026-05-04T12:02:07Z</time></trkpt><trkpt lat="41.51959331017328" lon="0.12483203023877655"><ele>300.0</ele><time>2026-05-04T12:02:08Z</time></trkpt><trkpt lat="41.519584064968036" lon="0.12498011200421116"><ele>300.0</ele><time>2026-05-04T12:02:09Z</time></trkpt><trkpt lat="41.51957632853623" lon="0.1251272077214341"><ele>300.0</ele><time>2026-05-04T12:02:10Z</time></trkpt><trkpt lat="41.51956603175465" lon="0.12527314276287935"><ele>299.5</ele><time>2026-05-04T12:02:11Z</time></trkpt><trkpt lat="41.51955348209386" lon="0.12541949529525934"><ele>299.0</ele><time>2026-05-04T12:02:12Z</time></trkpt><trkpt lat="41.51953463987156" lon="0.12557185646290636"><ele>298.5</ele><time>2026-05-04T12:02:13.001Z</time></trkpt><trkpt lat="41.51952161875995" lon="0.1257240834055532"><ele>298.0</ele><time>2026-05-04T12:02:14.001Z</time></trkpt><trkpt lat="41.51950811422914" lon="0.12587035906329938"><ele>299.5</ele><time>2026-05-04T12:02:15.001Z</time></trkpt><trkpt lat="41.51949171020455" lon="0.12602159574133512"><ele>301.0</ele><time>2026-05-04T12:02:16.001Z</time></trkpt><trkpt lat="41.519478095888076" lon="0.12616736640403708"><ele>302.5</ele><time>2026-05-04T12:02:17.001Z</time></trkpt><trkpt lat="41.5194634741076" lon="0.12631206252549906"><ele>304.0</ele><time>2026-05-04T12:02:18.001Z</time></trkpt><trkpt lat="41.51945213726737" lon="0.12646609230574843"><ele>305.0</ele><time>2026-05-04T12:02:19.001Z</time></trkpt><trkpt lat="41.51943620284347" lon="0.1266173406580901"><ele>306.0</ele><time>2026-05-04T12:02:20.001Z</time></trkpt><trkpt lat="41.51942448013764" lon="0.12676608624667093"><ele>307.0</ele><time>2026-05-04T12:02:21.001Z</time></trkpt><trkpt lat="41.51941341440228" lon="0.12691449823556325"><ele>308.0</ele><time>2026-05-04T12:02:22.001Z</time></trkpt><trkpt lat="41.51940242551612" lon="0.12706150918843795"><ele>309.0</ele><time>2026-05-04T12:02:23.001Z</time></trkpt><trkpt lat="41.519389908759536" lon="0.12721148594009077"><ele>309.0</ele><time>2026-05-04T12:02:24.001Z</time></trkpt><trkpt lat="41.51937488793378" lon="0.12736118886862438"><ele>309.0</ele><time>2026-05-04T12:02:25.001Z</time></trkpt><trkpt lat="41.51935924639398" lon="0.12751460952021587"><ele>309.0</ele><time>2026-05-04T12:02:26.001Z</time></trkpt><trkpt lat="41.51934800231656" lon="0.12766597734870067"><ele>309.0</ele><time>2026-05-04T12:02:27.001Z</time></trkpt><trkpt lat="41.519334032989676" lon="0.12781754988238253"><ele>309.25</ele><time>2026-05-04T12:02:28.001Z</time></trkpt><trkpt lat="41.519319961009394" lon="0.12796612937886623"><ele>309.5</ele><time>2026-05-04T12:02:29.001Z</time></trkpt><trkpt lat="41.51930766395595" lon="0.12811573803439552"><ele>309.75</ele><time>2026-05-04T12:02:30.001Z</time></trkpt><trkpt lat="41.519295822455994" lon="0.12826649499127785"><ele>310.0</ele><time>2026-05-04T12:02:31.001Z</time></trkpt><trkpt lat="41.51928185160783" lon="0.1284146292543338"><ele>309.6</ele><time>2026-05-04T12:02:32.001Z</time></trkpt><trkpt lat="41.51926549564713" lon="0.1285642891062624"><ele>309.2</ele><time>2026-05-04T12:02:33.001Z</time></trkpt><trkpt lat="41.519250544083846" lon="0.12871407260844972"><ele>308.8</ele><time>2026-05-04T12:02:34.001Z</time></trkpt><trkpt lat="41.5192364221353" lon="0.12886246581933694"><ele>308.4</ele><time>2026-05-04T12:02:35.001Z</time></trkpt><trkpt lat="41.51922456527185" lon="0.12900943987478844"><ele>308.0</ele><time>2026-05-04T12:02:36.001Z</time></trkpt><trkpt lat="41.51921174326497" lon="0.12915389571367422"><ele>307.0</ele><time>2026-05-04T12:02:37.001Z</time></trkpt><trkpt lat="41.51919987803988" lon="0.12930366848181643"><ele>306.0</ele><time>2026-05-04T12:02:38.001Z</time></trkpt><trkpt lat="41.51918579914441" lon="0.12945206009198398"><ele>305.0</ele><time>2026-05-04T12:02:39.001Z</time></trkpt><trkpt lat="41.51917279787495" lon="0.12960154088430947"><ele>304.0</ele><time>2026-05-04T12:02:40.001Z</time></trkpt><trkpt lat="41.51916576115191" lon="0.1297581610553674"><ele>303.4</ele><time>2026-05-04T12:02:41.001Z</time></trkpt><trkpt lat="41.519149043269344" lon="0.1299011531269311"><ele>302.79999999999995</ele><time>2026-05-04T12:02:42.001Z</time></trkpt><trkpt lat="41.51914224713911" lon="0.13005650653310394"><ele>302.20000000000005</ele><time>2026-05-04T12:02:43.001Z</time></trkpt><trkpt lat="41.51912283703643" lon="0.13019159189372964"><ele>301.6</ele><time>2026-05-04T12:02:44.001Z</time></trkpt><trkpt lat="41.519121741296836" lon="0.13035286583758657"><ele>301.0</ele><time>2026-05-04T12:02:45.001Z</time></trkpt><trkpt lat="41.51909107103413" lon="0.1304942170491026"><ele>301.0</ele><time>2026-05-04T12:02:46.001Z</time></trkpt><trkpt lat="41.519093181920184" lon="0.13064258428993528"><ele>301.0</ele><time>2026-05-04T12:02:47.001Z</time></trkpt><trkpt lat="41.51906887834687" lon="0.1307943301919123"><ele>301.0</ele><time>2026-05-04T12:02:48.001Z</time></trkpt><trkpt lat="41.51901533687348" lon="0.13094075979052278"><ele>301.0</ele><time>2026-05-04T12:02:49.001Z</time></trkpt><trkpt lat="41.518970289554176" lon="0.13110013891984273"><ele>301.0</ele><time>2026-05-04T12:02:50.001Z</time></trkpt><trkpt lat="41.51895747468469" lon="0.13124380632016414"><ele>301.0</ele><time>2026-05-04T12:02:51.001Z</time></trkpt><trkpt lat="41.5190156593139" lon="0.13138911973137826"><ele>301.0</ele><time>2026-05-04T12:02:52.001Z</time></trkpt><trkpt lat="41.519004321756306" lon="0.13153669465778026"><ele>301.0</ele><time>2026-05-04T12:02:53.001Z</time></trkpt><trkpt lat="41.518989981926445" lon="0.13168588627318153"><ele>301.6</ele><time>2026-05-04T12:02:54.001Z</time></trkpt><trkpt lat="41.51897638435338" lon="0.1318328171709236"><ele>302.20000000000005</ele><time>2026-05-04T12:02:55.001Z</time></trkpt><trkpt lat="41.51896295355548" lon="0.13197915732683235"><ele>302.79999999999995</ele><time>2026-05-04T12:02:56.001Z</time></trkpt><trkpt lat="41.51895190754402" lon="0.1321253868873232"><ele>303.4</ele><time>2026-05-04T12:02:57.001Z</time></trkpt><trkpt lat="41.51893841516368" lon="0.13226949273270025"><ele>304.0</ele><time>2026-05-04T12:02:58.001Z</time></trkpt><trkpt lat="41.518926059351394" lon="0.132414165951447"><ele>304.59999999999997</ele><time>2026-05-04T12:02:59.001Z</time></trkpt><trkpt lat="41.51891412270076" lon="0.13256113621328042"><ele>305.2</ele><time>2026-05-04T12:03:00.001Z</time></trkpt><trkpt lat="41.51890091787849" lon="0.1326993206496625"><ele>305.79999999999995</ele><time>2026-05-04T12:03:01.001Z</time></trkpt><trkpt lat="41.518888515544184" lon="0.13284358269336866"><ele>306.4</ele><time>2026-05-04T12:03:02.001Z</time></trkpt><trkpt lat="41.518878592430326" lon="0.13298237924191886"><ele>307.0</ele><time>2026-05-04T12:03:03.001Z</time></trkpt><trkpt lat="41.51886253502557" lon="0.13313420792656258"><ele>306.6</ele><time>2026-05-04T12:03:04.001Z</time></trkpt><trkpt lat="41.51884918760384" lon="0.13327965493961505"><ele>306.2</ele><time>2026-05-04T12:03:05.001Z</time></trkpt><trkpt lat="41.51883703331177" lon="0.13342231488268305"><ele>305.8</ele><time>2026-05-04T12:03:06.001Z</time></trkpt><trkpt lat="41.51882163534645" lon="0.13357175573429034"><ele>305.4</ele><time>2026-05-04T12:03:07.001Z</time></trkpt><trkpt lat="41.51881003526278" lon="0.13371876125526155"><ele>305.0</ele><time>2026-05-04T12:03:08.001Z</time></trkpt><trkpt lat="41.51879847908005" lon="0.13386361346781095"><ele>305.0</ele><time>2026-05-04T12:03:09.001Z</time></trkpt><trkpt lat="41.518782489329006" lon="0.13401375542485353"><ele>305.0</ele><time>2026-05-04T12:03:10.001Z</time></trkpt><trkpt lat="41.518765188674074" lon="0.13416436584482322"><ele>305.0</ele><time>2026-05-04T12:03:11.001Z</time></trkpt><trkpt lat="41.518751793717605" lon="0.13431518904820683"><ele>305.0</ele><time>2026-05-04T12:03:12.001Z</time></trkpt><trkpt lat="41.51874099539031" lon="0.13445935658499666"><ele>305.0</ele><time>2026-05-04T12:03:13.001Z</time></trkpt><trkpt lat="41.518727479396205" lon="0.13460710363595715"><ele>305.0</ele><time>2026-05-04T12:03:14.001Z</time></trkpt><trkpt lat="41.518714429163886" lon="0.13474521028549222"><ele>305.0</ele><time>2026-05-04T12:03:15.001Z</time></trkpt><trkpt lat="41.51870370475794" lon="0.13489702065045558"><ele>305.0</ele><time>2026-05-04T12:03:16.001Z</time></trkpt><trkpt lat="41.51868845955015" lon="0.13503577417013582"><ele>305.0</ele><time>2026-05-04T12:03:17.001Z</time></trkpt><trkpt lat="41.51866558647097" lon="0.1351350030082156"><ele>304.75</ele><time>2026-05-04T12:03:18.001Z</time></trkpt><trkpt lat="41.518633025094104" lon="0.13521579201650452"><ele>304.5</ele><time>2026-05-04T12:03:19.001Z</time></trkpt><trkpt lat="41.51862498657142" lon="0.13540440554406805"><ele>304.25</ele><time>2026-05-04T12:03:20.001Z</time></trkpt><trkpt lat="41.51864233831304" lon="0.13563031248877996"><ele>304.0</ele><time>2026-05-04T12:03:21.001Z</time></trkpt><trkpt lat="41.518639460456875" lon="0.13591862981187752"><ele>304.0</ele><time>2026-05-04T12:03:22.001Z</time></trkpt><trkpt lat="41.51860211361569" lon="0.13608033992041957"><ele>304.0</ele><time>2026-05-04T12:03:24.002Z</time></trkpt><trkpt lat="41.51858723632179" lon="0.13623407972191898"><ele>304.0</ele><time>2026-05-04T12:03:25.002Z</time></trkpt><trkpt lat="41.51857730848325" lon="0.13638712662958052"><ele>304.0</ele><time>2026-05-04T12:03:26.002Z</time></trkpt><trkpt lat="41.51856613688161" lon="0.13653392138095746"><ele>304.0</ele><time>2026-05-04T12:03:27.002Z</time></trkpt><trkpt lat="41.518555494518246" lon="0.13667996883193234"><ele>304.0</ele><time>2026-05-04T12:03:28.002Z</time></trkpt><trkpt lat="41.51854613722521" lon="0.1368254455323564"><ele>304.0</ele><time>2026-05-04T12:03:29.002Z</time></trkpt><trkpt lat="41.5185345822336" lon="0.13697594860394186"><ele>304.0</ele><time>2026-05-04T12:03:30.002Z</time></trkpt><trkpt lat="41.518518199567055" lon="0.13712427286468862"><ele>304.0</ele><time>2026-05-04T12:03:31Z</time></trkpt><trkpt lat="41.518503771471764" lon="0.13727564901880562"><ele>303.8</ele><time>2026-05-04T12:03:32Z</time></trkpt><trkpt lat="41.51849011528943" lon="0.13742748132866464"><ele>303.59999999999997</ele><time>2026-05-04T12:03:33Z</time></trkpt><trkpt lat="41.51847127018424" lon="0.13757061631266085"><ele>303.4</ele><time>2026-05-04T12:03:34Z</time></trkpt><trkpt lat="41.51845786504299" lon="0.1377212968534319"><ele>303.2</ele><time>2026-05-04T12:03:35Z</time></trkpt><trkpt lat="41.518444551104565" lon="0.13786797024165073"><ele>303.0</ele><time>2026-05-04T12:03:36Z</time></trkpt><trkpt lat="41.51843296334822" lon="0.13801396759552573"><ele>303.0</ele><time>2026-05-04T12:03:37Z</time></trkpt><trkpt lat="41.51842234959723" lon="0.13816342451154542"><ele>303.0</ele><time>2026-05-04T12:03:38Z</time></trkpt><trkpt lat="41.51840949433042" lon="0.13831350998302042"><ele>303.0</ele><time>2026-05-04T12:03:39Z</time></trkpt><trkpt lat="41.51839798922697" lon="0.13846330525795503"><ele>303.0</ele><time>2026-05-04T12:03:40Z</time></trkpt><trkpt lat="41.51838484098184" lon="0.13861137887338917"><ele>303.0</ele><time>2026-05-04T12:03:41Z</time></trkpt><trkpt lat="41.51837197960797" lon="0.13876267832178174"><ele>303.0</ele><time>2026-05-04T12:03:42Z</time></trkpt><trkpt lat="41.518354181679" lon="0.13890825559161354"><ele>303.0</ele><time>2026-05-04T12:03:43Z</time></trkpt><trkpt lat="41.5183341558603" lon="0.13905566639256836"><ele>303.0</ele><time>2026-05-04T12:03:44Z</time></trkpt><trkpt lat="41.51831818251621" lon="0.13920536946832412"><ele>303.0</ele><time>2026-05-04T12:03:45Z</time></trkpt><trkpt lat="41.518298089757344" lon="0.13935641733782733"><ele>303.0</ele><time>2026-05-04T12:03:46Z</time></trkpt><trkpt lat="41.518268911165094" lon="0.13948907244573386"><ele>303.0</ele><time>2026-05-04T12:03:47Z</time></trkpt><trkpt lat="41.51824080974618" lon="0.13963876091077146"><ele>303.0</ele><time>2026-05-04T12:03:48Z</time></trkpt><trkpt lat="41.518211597543775" lon="0.13979006886897882"><ele>302.75</ele><time>2026-05-04T12:03:49Z</time></trkpt><trkpt lat="41.51818603820968" lon="0.1399407911257358"><ele>302.5</ele><time>2026-05-04T12:03:50Z</time></trkpt><trkpt lat="41.51815652559812" lon="0.14008741721807136"><ele>302.25</ele><time>2026-05-04T12:03:51Z</time></trkpt><trkpt lat="41.51812258223917" lon="0.14023068219567883"><ele>302.0</ele><time>2026-05-04T12:03:52Z</time></trkpt><trkpt lat="41.51808913511554" lon="0.1403761738453609"><ele>302.0</ele><time>2026-05-04T12:03:53Z</time></trkpt><trkpt lat="41.518047588931964" lon="0.1405165710816398"><ele>302.0</ele><time>2026-05-04T12:03:54Z</time></trkpt><trkpt lat="41.517998371374595" lon="0.14065448661057248"><ele>302.0</ele><time>2026-05-04T12:03:55Z</time></trkpt><trkpt lat="41.51795748471397" lon="0.14079989469009332"><ele>302.0</ele><time>2026-05-04T12:03:56Z</time></trkpt><trkpt lat="41.51791031428682" lon="0.14094115527008674"><ele>302.0</ele><time>2026-05-04T12:03:57Z</time></trkpt><trkpt lat="41.517858363724976" lon="0.14107921145805663"><ele>302.0</ele><time>2026-05-04T12:03:58Z</time></trkpt><trkpt lat="41.51780229043104" lon="0.14121306192379446"><ele>302.0</ele><time>2026-05-04T12:03:59Z</time></trkpt><trkpt lat="41.51774389937239" lon="0.14134865027648613"><ele>302.0</ele><time>2026-05-04T12:04:00Z</time></trkpt><trkpt lat="41.51768488686934" lon="0.14148504452404762"><ele>301.5</ele><time>2026-05-04T12:04:01Z</time></trkpt><trkpt lat="41.517624556873436" lon="0.1416189086533197"><ele>301.0</ele><time>2026-05-04T12:04:02Z</time></trkpt><trkpt lat="41.517556096332235" lon="0.1417471613425021"><ele>300.5</ele><time>2026-05-04T12:04:03Z</time></trkpt><trkpt lat="41.51748590015227" lon="0.14187085300126753"><ele>300.0</ele><time>2026-05-04T12:04:04Z</time></trkpt><trkpt lat="41.51741314956201" lon="0.14199400560288591"><ele>300.0</ele><time>2026-05-04T12:04:05Z</time></trkpt><trkpt lat="41.51734015174407" lon="0.1421186350356744"><ele>300.0</ele><time>2026-05-04T12:04:06Z</time></trkpt><trkpt lat="41.51725995600565" lon="0.14223268347653467"><ele>300.0</ele><time>2026-05-04T12:04:07Z</time></trkpt><trkpt lat="41.51718137104147" lon="0.14234581793746484"><ele>300.0</ele><time>2026-05-04T12:04:08Z</time></trkpt><trkpt lat="41.51710297643798" lon="0.14246578981045036"><ele>299.5</ele><time>2026-05-04T12:04:09Z</time></trkpt><trkpt lat="41.51702207113841" lon="0.1425791927698633"><ele>299.0</ele><time>2026-05-04T12:04:10Z</time></trkpt><trkpt lat="41.516938164479505" lon="0.14268511843495568"><ele>298.5</ele><time>2026-05-04T12:04:11Z</time></trkpt><trkpt lat="41.516853726965756" lon="0.14279050332776055"><ele>298.0</ele><time>2026-05-04T12:04:12Z</time></trkpt><trkpt lat="41.516767586790685" lon="0.14289593891721541"><ele>298.0</ele><time>2026-05-04T12:04:13Z</time></trkpt><trkpt lat="41.51667965859435" lon="0.142999043932803"><ele>298.0</ele><time>2026-05-04T12:04:14Z</time></trkpt><trkpt lat="41.51659159318258" lon="0.14310407796783237"><ele>298.0</ele><time>2026-05-04T12:04:15Z</time></trkpt><trkpt lat="41.51650391220067" lon="0.14320909658777112"><ele>298.0</ele><time>2026-05-04T12:04:16.001Z</time></trkpt><trkpt lat="41.51641660079163" lon="0.14331519295602382"><ele>297.0</ele><time>2026-05-04T12:04:17.001Z</time></trkpt><trkpt lat="41.51633115347925" lon="0.14341496094768022"><ele>296.0</ele><time>2026-05-04T12:04:18.001Z</time></trkpt><trkpt lat="41.51624626997089" lon="0.1435194103798284"><ele>295.0</ele><time>2026-05-04T12:04:19.001Z</time></trkpt><trkpt lat="41.516160780290924" lon="0.14362391876168068"><ele>294.0</ele><time>2026-05-04T12:04:20.001Z</time></trkpt><trkpt lat="41.51607680541433" lon="0.1437320587819003"><ele>293.75</ele><time>2026-05-04T12:04:21.001Z</time></trkpt><trkpt lat="41.51599501362112" lon="0.14383942322490634"><ele>293.5</ele><time>2026-05-04T12:04:22.001Z</time></trkpt><trkpt lat="41.51591842762811" lon="0.1439523591044256"><ele>293.25</ele><time>2026-05-04T12:04:23.001Z</time></trkpt><trkpt lat="41.51584262013277" lon="0.14407278228606538"><ele>293.0</ele><time>2026-05-04T12:04:24.001Z</time></trkpt><trkpt lat="41.515767896111" lon="0.14419745919446178"><ele>291.5</ele><time>2026-05-04T12:04:25.001Z</time></trkpt><trkpt lat="41.51569460883216" lon="0.14431695090317048"><ele>290.0</ele><time>2026-05-04T12:04:26.001Z</time></trkpt><trkpt lat="41.51562557657191" lon="0.144444288224749"><ele>288.5</ele><time>2026-05-04T12:04:27.001Z</time></trkpt><trkpt lat="41.51555720354984" lon="0.14457239174418218"><ele>287.0</ele><time>2026-05-04T12:04:28.001Z</time></trkpt><trkpt lat="41.515491791856064" lon="0.144702691995603"><ele>287.0</ele><time>2026-05-04T12:04:29.001Z</time></trkpt><trkpt lat="41.515427039745965" lon="0.14484317735959698"><ele>287.0</ele><time>2026-05-04T12:04:30.001Z</time></trkpt><trkpt lat="41.5153629439722" lon="0.1449758182121468"><ele>287.0</ele><time>2026-05-04T12:04:31.001Z</time></trkpt><trkpt lat="41.515307035365616" lon="0.14511405395854401"><ele>287.0</ele><time>2026-05-04T12:04:32.001Z</time></trkpt><trkpt lat="41.51525255398666" lon="0.14525623863825268"><ele>285.0</ele><time>2026-05-04T12:04:33.001Z</time></trkpt><trkpt lat="41.515207537676275" lon="0.14539627505955705"><ele>283.0</ele><time>2026-05-04T12:04:34.001Z</time></trkpt><trkpt lat="41.51515294546724" lon="0.14554341478051575"><ele>281.0</ele><time>2026-05-04T12:04:35.001Z</time></trkpt><trkpt lat="41.515102583744785" lon="0.14568342615768462"><ele>279.0</ele><time>2026-05-04T12:04:36.001Z</time></trkpt><trkpt lat="41.515060546773775" lon="0.1458298640750329"><ele>278.25</ele><time>2026-05-04T12:04:37.001Z</time></trkpt><trkpt lat="41.515021291612705" lon="0.14597836917309429"><ele>277.5</ele><time>2026-05-04T12:04:38.001Z</time></trkpt><trkpt lat="41.514984195115574" lon="0.14613080880379054"><ele>276.75</ele><time>2026-05-04T12:04:39.001Z</time></trkpt><trkpt lat="41.514948357269006" lon="0.14627878060851587"><ele>276.0</ele><time>2026-05-04T12:04:40.001Z</time></trkpt><trkpt lat="41.51491835910084" lon="0.1464262497379223"><ele>275.75</ele><time>2026-05-04T12:04:41.001Z</time></trkpt><trkpt lat="41.51488984983053" lon="0.14657966929240046"><ele>275.5</ele><time>2026-05-04T12:04:42.001Z</time></trkpt><trkpt lat="41.51486467617766" lon="0.14673262388155353"><ele>275.25</ele><time>2026-05-04T12:04:43.001Z</time></trkpt><trkpt lat="41.51483629805116" lon="0.14688732374904565"><ele>275.0</ele><time>2026-05-04T12:04:44.001Z</time></trkpt><trkpt lat="41.51481750431749" lon="0.14704077145716524"><ele>275.0</ele><time>2026-05-04T12:04:45.001Z</time></trkpt><trkpt lat="41.51480145720282" lon="0.1472004954493038"><ele>275.0</ele><time>2026-05-04T12:04:46.001Z</time></trkpt><trkpt lat="41.5147863062161" lon="0.14736140183184124"><ele>275.0</ele><time>2026-05-04T12:04:47.001Z</time></trkpt><trkpt lat="41.514776567731936" lon="0.14751535566939386"><ele>275.0</ele><time>2026-05-04T12:04:48.001Z</time></trkpt><trkpt lat="41.514770712280786" lon="0.14767030447635968"><ele>274.25</ele><time>2026-05-04T12:04:49.001Z</time></trkpt><trkpt lat="41.5147648463631" lon="0.14783180482257438"><ele>273.5</ele><time>2026-05-04T12:04:50.001Z</time></trkpt><trkpt lat="41.514758092605724" lon="0.147992252447707"><ele>272.75</ele><time>2026-05-04T12:04:51.001Z</time></trkpt><trkpt lat="41.51475591795322" lon="0.14814828886549453"><ele>272.0</ele><time>2026-05-04T12:04:52.001Z</time></trkpt><trkpt lat="41.51476496545062" lon="0.1483038210206337"><ele>272.0</ele><time>2026-05-04T12:04:53.001Z</time></trkpt><trkpt lat="41.514772363618654" lon="0.14846428455332172"><ele>272.0</ele><time>2026-05-04T12:04:54.001Z</time></trkpt><trkpt lat="41.51478430586957" lon="0.1486223284653708"><ele>272.0</ele><time>2026-05-04T12:04:55.001Z</time></trkpt><trkpt lat="41.51479485083676" lon="0.1487782385627497"><ele>272.0</ele><time>2026-05-04T12:04:56.001Z</time></trkpt><trkpt lat="41.51481331021784" lon="0.14893386048328175"><ele>272.0</ele><time>2026-05-04T12:04:57.001Z</time></trkpt><trkpt lat="41.514835173463396" lon="0.1490903817174029"><ele>272.0</ele><time>2026-05-04T12:04:58.001Z</time></trkpt><trkpt lat="41.51485588508346" lon="0.14924242322726267"><ele>272.0</ele><time>2026-05-04T12:04:59.001Z</time></trkpt><trkpt lat="41.51487940944619" lon="0.14939746217457914"><ele>272.0</ele><time>2026-05-04T12:05:00.001Z</time></trkpt><trkpt lat="41.51490587521951" lon="0.14955006373248916"><ele>272.0</ele><time>2026-05-04T12:05:01.001Z</time></trkpt><trkpt lat="41.51493852856485" lon="0.14970200506330458"><ele>272.0</ele><time>2026-05-04T12:05:02.001Z</time></trkpt><trkpt lat="41.51497133618519" lon="0.14985502362243786"><ele>272.0</ele><time>2026-05-04T12:05:03.001Z</time></trkpt><trkpt lat="41.51500436593521" lon="0.1500107398465123"><ele>272.0</ele><time>2026-05-04T12:05:04.001Z</time></trkpt><trkpt lat="41.51503571716662" lon="0.15016056762585428"><ele>271.5</ele><time>2026-05-04T12:05:05.001Z</time></trkpt><trkpt lat="41.515068487321614" lon="0.15031351363720316"><ele>271.0</ele><time>2026-05-04T12:05:06.001Z</time></trkpt><trkpt lat="41.51510358306392" lon="0.15046196098707984"><ele>270.5</ele><time>2026-05-04T12:05:07.001Z</time></trkpt><trkpt lat="41.51513785047694" lon="0.1506123568699849"><ele>270.0</ele><time>2026-05-04T12:05:08.001Z</time></trkpt><trkpt lat="41.51517182951666" lon="0.1507656695190306"><ele>269.75</ele><time>2026-05-04T12:05:09.001Z</time></trkpt><trkpt lat="41.51520454891089" lon="0.15091366704502895"><ele>269.5</ele><time>2026-05-04T12:05:10.001Z</time></trkpt><trkpt lat="41.5152409770025" lon="0.15106748767813755"><ele>269.25</ele><time>2026-05-04T12:05:11.001Z</time></trkpt><trkpt lat="41.515273818082036" lon="0.15121456529411043"><ele>269.0</ele><time>2026-05-04T12:05:12.001Z</time></trkpt><trkpt lat="41.51531265090835" lon="0.1513637903642533"><ele>269.0</ele><time>2026-05-04T12:05:13.001Z</time></trkpt><trkpt lat="41.51534977358881" lon="0.1515107298018047"><ele>269.0</ele><time>2026-05-04T12:05:14.001Z</time></trkpt><trkpt lat="41.515387562947645" lon="0.1516602597594704"><ele>269.0</ele><time>2026-05-04T12:05:15.001Z</time></trkpt><trkpt lat="41.51541894554704" lon="0.1518111159088877"><ele>269.0</ele><time>2026-05-04T12:05:16.001Z</time></trkpt><trkpt lat="41.515450340767615" lon="0.15196126721775283"><ele>269.25</ele><time>2026-05-04T12:05:17.001Z</time></trkpt><trkpt lat="41.515486497803806" lon="0.1521083561543281"><ele>269.5</ele><time>2026-05-04T12:05:18.001Z</time></trkpt><trkpt lat="41.51552071718045" lon="0.15225778632493356"><ele>269.75</ele><time>2026-05-04T12:05:19.001Z</time></trkpt><trkpt lat="41.51555468204789" lon="0.15240736051335477"><ele>270.0</ele><time>2026-05-04T12:05:20.001Z</time></trkpt><trkpt lat="41.51559365250294" lon="0.15255704767710718"><ele>269.25</ele><time>2026-05-04T12:05:21.001Z</time></trkpt><trkpt lat="41.515624622936734" lon="0.15270774506930576"><ele>268.5</ele><time>2026-05-04T12:05:22.001Z</time></trkpt><trkpt lat="41.51565722743075" lon="0.15285553076482464"><ele>267.75</ele><time>2026-05-04T12:05:23.001Z</time></trkpt><trkpt lat="41.515690986368575" lon="0.15300583898527634"><ele>267.0</ele><time>2026-05-04T12:05:24.001Z</time></trkpt><trkpt lat="41.515728027132454" lon="0.15315684939690918"><ele>266.75</ele><time>2026-05-04T12:05:25.001Z</time></trkpt><trkpt lat="41.51576195580704" lon="0.15330328140549102"><ele>266.5</ele><time>2026-05-04T12:05:26.001Z</time></trkpt><trkpt lat="41.51580017973456" lon="0.15345552952217992"><ele>266.25</ele><time>2026-05-04T12:05:27.002Z</time></trkpt><trkpt lat="41.515834171433156" lon="0.15360347410091135"><ele>266.0</ele><time>2026-05-04T12:05:28.002Z</time></trkpt><trkpt lat="41.51587100736239" lon="0.15375173211923124"><ele>266.0</ele><time>2026-05-04T12:05:29.002Z</time></trkpt><trkpt lat="41.51590129785592" lon="0.15390218518266843"><ele>266.0</ele><time>2026-05-04T12:05:30.002Z</time></trkpt><trkpt lat="41.515938822258185" lon="0.15404810632428195"><ele>266.0</ele><time>2026-05-04T12:05:31.002Z</time></trkpt><trkpt lat="41.51597165254052" lon="0.15419823336296054"><ele>266.0</ele><time>2026-05-04T12:05:32.002Z</time></trkpt><trkpt lat="41.51600630258057" lon="0.1543454090575896"><ele>266.0</ele><time>2026-05-04T12:05:33.002Z</time></trkpt><trkpt lat="41.51603742345587" lon="0.15448895187905998"><ele>266.0</ele><time>2026-05-04T12:05:34.002Z</time></trkpt><trkpt lat="41.516075123461455" lon="0.15463901539101038"><ele>266.0</ele><time>2026-05-04T12:05:35.002Z</time></trkpt><trkpt lat="41.51610618209302" lon="0.1547873465563724"><ele>266.0</ele><time>2026-05-04T12:05:36.002Z</time></trkpt><trkpt lat="41.516135273953765" lon="0.15493352662863336"><ele>266.0</ele><time>2026-05-04T12:05:37Z</time></trkpt><trkpt lat="41.51616754310302" lon="0.1550800562961368"><ele>266.0</ele><time>2026-05-04T12:05:38Z</time></trkpt><trkpt lat="41.51620469801159" lon="0.1552255675146771"><ele>266.0</ele><time>2026-05-04T12:05:39Z</time></trkpt><trkpt lat="41.51623857728687" lon="0.15537111935228803"><ele>266.0</ele><time>2026-05-04T12:05:40Z</time></trkpt><trkpt lat="41.51627415449817" lon="0.1555133651505783"><ele>266.0</ele><time>2026-05-04T12:05:41Z</time></trkpt><trkpt lat="41.51630764182751" lon="0.15565990166053822"><ele>266.0</ele><time>2026-05-04T12:05:42Z</time></trkpt><trkpt lat="41.516340346715204" lon="0.15580421459459198"><ele>266.0</ele><time>2026-05-04T12:05:43Z</time></trkpt><trkpt lat="41.51637051399448" lon="0.1559497823177264"><ele>266.0</ele><time>2026-05-04T12:05:44Z</time></trkpt><trkpt lat="41.51640942138168" lon="0.15609264572103151"><ele>265.75</ele><time>2026-05-04T12:05:45Z</time></trkpt><trkpt lat="41.51644610435244" lon="0.1562372673747871"><ele>265.5</ele><time>2026-05-04T12:05:46Z</time></trkpt><trkpt lat="41.516479594420765" lon="0.15638141038924"><ele>265.25</ele><time>2026-05-04T12:05:47Z</time></trkpt><trkpt lat="41.5165119108945" lon="0.15652650018726205"><ele>265.0</ele><time>2026-05-04T12:05:48Z</time></trkpt><trkpt lat="41.516544014288144" lon="0.1566713234865177"><ele>265.75</ele><time>2026-05-04T12:05:49Z</time></trkpt><trkpt lat="41.516579473811596" lon="0.15681606276167445"><ele>266.5</ele><time>2026-05-04T12:05:50Z</time></trkpt><trkpt lat="41.51661335105768" lon="0.15695821915542402"><ele>267.25</ele><time>2026-05-04T12:05:51Z</time></trkpt><trkpt lat="41.51664891567644" lon="0.15710362922820162"><ele>268.0</ele><time>2026-05-04T12:05:52Z</time></trkpt><trkpt lat="41.51668101667113" lon="0.15724477636001277"><ele>268.25</ele><time>2026-05-04T12:05:53Z</time></trkpt><trkpt lat="41.51671565403807" lon="0.15738536592139463"><ele>268.5</ele><time>2026-05-04T12:05:54Z</time></trkpt><trkpt lat="41.51675079054807" lon="0.15753211867703307"><ele>268.75</ele><time>2026-05-04T12:05:55Z</time></trkpt><trkpt lat="41.51678176584353" lon="0.15766982636620502"><ele>269.0</ele><time>2026-05-04T12:05:56Z</time></trkpt><trkpt lat="41.5168169767192" lon="0.15782926064759403"><ele>269.0</ele><time>2026-05-04T12:05:57Z</time></trkpt><trkpt lat="41.51684546929652" lon="0.15795676065820471"><ele>269.0</ele><time>2026-05-04T12:05:58Z</time></trkpt><trkpt lat="41.5168755792744" lon="0.1580946825946058"><ele>269.0</ele><time>2026-05-04T12:05:59Z</time></trkpt><trkpt lat="41.516908162245244" lon="0.15825101146776907"><ele>269.0</ele><time>2026-05-04T12:06:00Z</time></trkpt><trkpt lat="41.516941176232855" lon="0.15838201340072847"><ele>269.0</ele><time>2026-05-04T12:06:01Z</time></trkpt><trkpt lat="41.516979226747345" lon="0.15853590745888552"><ele>269.0</ele><time>2026-05-04T12:06:02Z</time></trkpt><trkpt lat="41.51701385883234" lon="0.15868248901613777"><ele>269.0</ele><time>2026-05-04T12:06:03Z</time></trkpt><trkpt lat="41.517043031604" lon="0.1588248097573231"><ele>269.0</ele><time>2026-05-04T12:06:04Z</time></trkpt><trkpt lat="41.517075365517144" lon="0.15897027929565255"><ele>269.0</ele><time>2026-05-04T12:06:05Z</time></trkpt><trkpt lat="41.51710860499981" lon="0.1591180546273208"><ele>269.25</ele><time>2026-05-04T12:06:06Z</time></trkpt><trkpt lat="41.51714204195863" lon="0.15926710937230204"><ele>269.5</ele><time>2026-05-04T12:06:07Z</time></trkpt><trkpt lat="41.51717701745642" lon="0.15941876109830186"><ele>269.75</ele><time>2026-05-04T12:06:08Z</time></trkpt><trkpt lat="41.517211892404994" lon="0.15956835526997684"><ele>270.0</ele><time>2026-05-04T12:06:09Z</time></trkpt><trkpt lat="41.51724726481063" lon="0.15971867452710511"><ele>270.0</ele><time>2026-05-04T12:06:10Z</time></trkpt><trkpt lat="41.517277697253014" lon="0.15986263230872086"><ele>270.0</ele><time>2026-05-04T12:06:11Z</time></trkpt><trkpt lat="41.517313147570945" lon="0.16001044248746465"><ele>270.0</ele><time>2026-05-04T12:06:12Z</time></trkpt><trkpt lat="41.5173467134859" lon="0.16015266592421498"><ele>270.0</ele><time>2026-05-04T12:06:13Z</time></trkpt><trkpt lat="41.51737849447886" lon="0.1602938438806803"><ele>269.8</ele><time>2026-05-04T12:06:14Z</time></trkpt><trkpt lat="41.51741270339654" lon="0.16043590892921009"><ele>269.6</ele><time>2026-05-04T12:06:15Z</time></trkpt><trkpt lat="41.51744869259233" lon="0.16057836077875634"><ele>269.4</ele><time>2026-05-04T12:06:16.001Z</time></trkpt><trkpt lat="41.517485749367445" lon="0.16071792892926845"><ele>269.2</ele><time>2026-05-04T12:06:17.001Z</time></trkpt><trkpt lat="41.517520207350366" lon="0.16085828017234974"><ele>269.0</ele><time>2026-05-04T12:06:18.001Z</time></trkpt><trkpt lat="41.51755742021731" lon="0.16100069830309696"><ele>269.0</ele><time>2026-05-04T12:06:19.001Z</time></trkpt><trkpt lat="41.517587408555926" lon="0.16114755994619182"><ele>269.0</ele><time>2026-05-04T12:06:20.001Z</time></trkpt><trkpt lat="41.517623511047105" lon="0.1612879889190521"><ele>269.0</ele><time>2026-05-04T12:06:21.001Z</time></trkpt><trkpt lat="41.51765634407194" lon="0.16142944886510444"><ele>269.0</ele><time>2026-05-04T12:06:22.001Z</time></trkpt><trkpt lat="41.51768986997752" lon="0.16156874763409174"><ele>269.0</ele><time>2026-05-04T12:06:23.001Z</time></trkpt><trkpt lat="41.51771934946105" lon="0.16171400195531918"><ele>269.0</ele><time>2026-05-04T12:06:24.001Z</time></trkpt><trkpt lat="41.51774635765806" lon="0.16185635607000262"><ele>269.0</ele><time>2026-05-04T12:06:25.001Z</time></trkpt><trkpt lat="41.51778193554124" lon="0.16200291800824287"><ele>269.0</ele><time>2026-05-04T12:06:26.001Z</time></trkpt><trkpt lat="41.517817359246884" lon="0.16214978835250368"><ele>269.0</ele><time>2026-05-04T12:06:27.001Z</time></trkpt><trkpt lat="41.51784768938096" lon="0.16229411188347267"><ele>268.75</ele><time>2026-05-04T12:06:28.001Z</time></trkpt><trkpt lat="41.51787869795583" lon="0.16244004111332602"><ele>268.5</ele><time>2026-05-04T12:06:29.001Z</time></trkpt><trkpt lat="41.517911222449385" lon="0.16258231503218143"><ele>268.25</ele><time>2026-05-04T12:06:30.001Z</time></trkpt><trkpt lat="41.51794180918451" lon="0.16272763048739552"><ele>268.0</ele><time>2026-05-04T12:06:31.001Z</time></trkpt><trkpt lat="41.51797080652542" lon="0.1628746136364684"><ele>269.25</ele><time>2026-05-04T12:06:32.001Z</time></trkpt><trkpt lat="41.51799970018214" lon="0.16302520157224185"><ele>270.5</ele><time>2026-05-04T12:06:33.001Z</time></trkpt><trkpt lat="41.51802704478932" lon="0.16317481516625307"><ele>271.75</ele><time>2026-05-04T12:06:34.001Z</time></trkpt><trkpt lat="41.51804795300331" lon="0.16332892730137102"><ele>273.0</ele><time>2026-05-04T12:06:35.001Z</time></trkpt><trkpt lat="41.518069003299765" lon="0.1634820270051816"><ele>273.25</ele><time>2026-05-04T12:06:36.001Z</time></trkpt><trkpt lat="41.518091938440165" lon="0.16363856588824977"><ele>273.5</ele><time>2026-05-04T12:06:37.001Z</time></trkpt><trkpt lat="41.51810945081594" lon="0.1637931911816388"><ele>273.75</ele><time>2026-05-04T12:06:38.001Z</time></trkpt><trkpt lat="41.518122956354716" lon="0.16394602443374895"><ele>274.0</ele><time>2026-05-04T12:06:39.001Z</time></trkpt><trkpt lat="41.51813805960416" lon="0.1641005622631913"><ele>274.0</ele><time>2026-05-04T12:06:40.001Z</time></trkpt><trkpt lat="41.51815355174357" lon="0.1642554872927291"><ele>274.0</ele><time>2026-05-04T12:06:41.001Z</time></trkpt><trkpt lat="41.51816794966241" lon="0.16440793853060165"><ele>274.0</ele><time>2026-05-04T12:06:42.001Z</time></trkpt><trkpt lat="41.518183032033846" lon="0.16456052996001083"><ele>274.0</ele><time>2026-05-04T12:06:43.001Z</time></trkpt><trkpt lat="41.51819930821427" lon="0.16471279099335748"><ele>274.25</ele><time>2026-05-04T12:06:44.001Z</time></trkpt><trkpt lat="41.51821483562722" lon="0.16486405888496425"><ele>274.5</ele><time>2026-05-04T12:06:45.001Z</time></trkpt><trkpt lat="41.51822877552065" lon="0.16501395726444568"><ele>274.75</ele><time>2026-05-04T12:06:46.001Z</time></trkpt><trkpt lat="41.51824305321036" lon="0.16516457447989194"><ele>275.0</ele><time>2026-05-04T12:06:47.001Z</time></trkpt><trkpt lat="41.51825872993273" lon="0.16531059303806622"><ele>275.0</ele><time>2026-05-04T12:06:48.001Z</time></trkpt><trkpt lat="41.5182743033957" lon="0.16546019604740175"><ele>275.0</ele><time>2026-05-04T12:06:49.001Z</time></trkpt><trkpt lat="41.51828626144922" lon="0.16560929945112257"><ele>275.0</ele><time>2026-05-04T12:06:50.001Z</time></trkpt><trkpt lat="41.51829929112673" lon="0.16575598941077976"><ele>275.0</ele><time>2026-05-04T12:06:51.001Z</time></trkpt><trkpt lat="41.518316603570085" lon="0.16590548826933268"><ele>275.0</ele><time>2026-05-04T12:06:52.001Z</time></trkpt><trkpt lat="41.51833172389172" lon="0.1660516106259042"><ele>275.0</ele><time>2026-05-04T12:06:53.001Z</time></trkpt><trkpt lat="41.51834598935742" lon="0.16620934326418912"><ele>275.0</ele><time>2026-05-04T12:06:54.001Z</time></trkpt><trkpt lat="41.51837067903682" lon="0.1663374419773045"><ele>275.0</ele><time>2026-05-04T12:06:55.001Z</time></trkpt><trkpt lat="41.51840193361229" lon="0.16646621516945956"><ele>275.0</ele><time>2026-05-04T12:06:56.001Z</time></trkpt><trkpt lat="41.51840579195891" lon="0.16666545095684948"><ele>275.0</ele><time>2026-05-04T12:06:57.001Z</time></trkpt><trkpt lat="41.518428594196486" lon="0.16693053859813858"><ele>275.0</ele><time>2026-05-04T12:06:58.001Z</time></trkpt><trkpt lat="41.518436164594874" lon="0.16709105825971374"><ele>275.0</ele><time>2026-05-04T12:07:00.001Z</time></trkpt><trkpt lat="41.51845000550928" lon="0.16724280213718548"><ele>275.0</ele><time>2026-05-04T12:07:01.001Z</time></trkpt><trkpt lat="41.518466501414046" lon="0.1673918471208992"><ele>275.0</ele><time>2026-05-04T12:07:02.001Z</time></trkpt><trkpt lat="41.518482041406884" lon="0.16754412703425392"><ele>275.0</ele><time>2026-05-04T12:07:03.001Z</time></trkpt><trkpt lat="41.51849573146857" lon="0.16769735743751424"><ele>275.0</ele><time>2026-05-04T12:07:04.001Z</time></trkpt><trkpt lat="41.51851303054816" lon="0.1678501691636905"><ele>275.0</ele><time>2026-05-04T12:07:05.001Z</time></trkpt><trkpt lat="41.518527904527986" lon="0.16799940145969422"><ele>275.0</ele><time>2026-05-04T12:07:06.001Z</time></trkpt><trkpt lat="41.51854282458063" lon="0.16815413523666525"><ele>275.0</ele><time>2026-05-04T12:07:07.001Z</time></trkpt><trkpt lat="41.51855715055151" lon="0.16830693538968938"><ele>275.0</ele><time>2026-05-04T12:07:08.001Z</time></trkpt><trkpt lat="41.518571658760195" lon="0.16845934885988126"><ele>275.0</ele><time>2026-05-04T12:07:09.001Z</time></trkpt><trkpt lat="41.518587729807706" lon="0.16861497186950122"><ele>274.75</ele><time>2026-05-04T12:07:10.001Z</time></trkpt><trkpt lat="41.51860229432883" lon="0.1687667576463204"><ele>274.5</ele><time>2026-05-04T12:07:11.001Z</time></trkpt><trkpt lat="41.51861686495587" lon="0.16891736222437753"><ele>274.25</ele><time>2026-05-04T12:07:12.001Z</time></trkpt><trkpt lat="41.51863248070658" lon="0.16907175536582245"><ele>274.0</ele><time>2026-05-04T12:07:13.001Z</time></trkpt><trkpt lat="41.51864636683812" lon="0.1692245977422768"><ele>274.0</ele><time>2026-05-04T12:07:14.001Z</time></trkpt><trkpt lat="41.51865992613317" lon="0.16937416826224613"><ele>274.0</ele><time>2026-05-04T12:07:15.001Z</time></trkpt><trkpt lat="41.51867419975653" lon="0.16952296682032997"><ele>274.0</ele><time>2026-05-04T12:07:16.001Z</time></trkpt><trkpt lat="41.518688390238154" lon="0.16967774670900737"><ele>274.0</ele><time>2026-05-04T12:07:17.001Z</time></trkpt><trkpt lat="41.51870444626819" lon="0.16983097766989041"><ele>274.25</ele><time>2026-05-04T12:07:18.001Z</time></trkpt><trkpt lat="41.518719152529826" lon="0.1699858556412729"><ele>274.5</ele><time>2026-05-04T12:07:19.001Z</time></trkpt><trkpt lat="41.51873552437629" lon="0.17013816028433001"><ele>274.75</ele><time>2026-05-04T12:07:20.001Z</time></trkpt><trkpt lat="41.51874875703052" lon="0.17029266695929587"><ele>275.0</ele><time>2026-05-04T12:07:21.001Z</time></trkpt><trkpt lat="41.51876307619766" lon="0.17044839428818762"><ele>276.5</ele><time>2026-05-04T12:07:22.001Z</time></trkpt><trkpt lat="41.51877688967678" lon="0.17060107605578484"><ele>278.0</ele><time>2026-05-04T12:07:23.001Z</time></trkpt><trkpt lat="41.5187915713297" lon="0.17075552754978382"><ele>279.5</ele><time>2026-05-04T12:07:24.001Z</time></trkpt><trkpt lat="41.518807444652566" lon="0.17090998322400547"><ele>281.0</ele><time>2026-05-04T12:07:25.001Z</time></trkpt><trkpt lat="41.51882373831907" lon="0.17106303241436024"><ele>281.0</ele><time>2026-05-04T12:07:26.001Z</time></trkpt><trkpt lat="41.51883848240076" lon="0.17121412427770968"><ele>281.0</ele><time>2026-05-04T12:07:27.001Z</time></trkpt><trkpt lat="41.51885359728748" lon="0.17136925849103554"><ele>281.0</ele><time>2026-05-04T12:07:28.001Z</time></trkpt><trkpt lat="41.51887103960864" lon="0.1715188794801984"><ele>281.0</ele><time>2026-05-04T12:07:29.001Z</time></trkpt><trkpt lat="41.51888585488846" lon="0.1716707013398069"><ele>280.75</ele><time>2026-05-04T12:07:30.002Z</time></trkpt><trkpt lat="41.51889947639838" lon="0.17181928113632552"><ele>280.5</ele><time>2026-05-04T12:07:31.002Z</time></trkpt><trkpt lat="41.51891654954727" lon="0.17197141144947575"><ele>280.25</ele><time>2026-05-04T12:07:32.002Z</time></trkpt><trkpt lat="41.51893394361259" lon="0.17212081343868726"><ele>280.0</ele><time>2026-05-04T12:07:33.002Z</time></trkpt><trkpt lat="41.5189498138873" lon="0.17227080415774457"><ele>279.5</ele><time>2026-05-04T12:07:34.002Z</time></trkpt><trkpt lat="41.518962925646896" lon="0.17242529146241184"><ele>279.0</ele><time>2026-05-04T12:07:35.002Z</time></trkpt><trkpt lat="41.518978278061894" lon="0.17257404729375947"><ele>278.5</ele><time>2026-05-04T12:07:36.002Z</time></trkpt><trkpt lat="41.51899215708471" lon="0.1727271682707443"><ele>278.0</ele><time>2026-05-04T12:07:37.002Z</time></trkpt><trkpt lat="41.51900932087895" lon="0.17287782967204357"><ele>278.0</ele><time>2026-05-04T12:07:38.002Z</time></trkpt><trkpt lat="41.51902447257205" lon="0.17302939764837122"><ele>278.0</ele><time>2026-05-04T12:07:39.002Z</time></trkpt><trkpt lat="41.51903961033873" lon="0.17318065453139003"><ele>278.0</ele><time>2026-05-04T12:07:40.002Z</time></trkpt><trkpt lat="41.519053531311556" lon="0.17333113302072442"><ele>278.0</ele><time>2026-05-04T12:07:41.002Z</time></trkpt><trkpt lat="41.51907009185399" lon="0.17348144810131"><ele>278.0</ele><time>2026-05-04T12:07:42.002Z</time></trkpt><trkpt lat="41.51908512618977" lon="0.1736334077431745"><ele>278.0</ele><time>2026-05-04T12:07:43Z</time></trkpt><trkpt lat="41.5191015719048" lon="0.17378092597052366"><ele>278.0</ele><time>2026-05-04T12:07:44Z</time></trkpt><trkpt lat="41.5191141752796" lon="0.1739326653001382"><ele>278.0</ele><time>2026-05-04T12:07:45Z</time></trkpt><trkpt lat="41.51912517837973" lon="0.17408164682975497"><ele>278.2</ele><time>2026-05-04T12:07:46Z</time></trkpt><trkpt lat="41.51913799646686" lon="0.17423316439656053"><ele>278.4</ele><time>2026-05-04T12:07:47Z</time></trkpt><trkpt lat="41.51915145239506" lon="0.17438202993116705"><ele>278.59999999999997</ele><time>2026-05-04T12:07:48Z</time></trkpt><trkpt lat="41.51916316886683" lon="0.1745316141283491"><ele>278.8</ele><time>2026-05-04T12:07:49Z</time></trkpt><trkpt lat="41.51918104835662" lon="0.17467607668949095"><ele>279.0</ele><time>2026-05-04T12:07:50Z</time></trkpt><trkpt lat="41.51919630982672" lon="0.17482739977179135"><ele>279.2</ele><time>2026-05-04T12:07:51Z</time></trkpt><trkpt lat="41.51920930805682" lon="0.17497548028669166"><ele>279.4</ele><time>2026-05-04T12:07:52Z</time></trkpt><trkpt lat="41.519225302477196" lon="0.17512400379050264"><ele>279.6</ele><time>2026-05-04T12:07:53Z</time></trkpt><trkpt lat="41.51923841650623" lon="0.17527090456347474"><ele>279.8</ele><time>2026-05-04T12:07:54Z</time></trkpt><trkpt lat="41.51925118395835" lon="0.17542053112377942"><ele>280.0</ele><time>2026-05-04T12:07:55Z</time></trkpt><trkpt lat="41.51926471889062" lon="0.1755728208484178"><ele>280.0</ele><time>2026-05-04T12:07:56Z</time></trkpt><trkpt lat="41.519278899752315" lon="0.17572106472705207"><ele>280.0</ele><time>2026-05-04T12:07:57Z</time></trkpt><trkpt lat="41.519292291524195" lon="0.17586852855250834"><ele>280.0</ele><time>2026-05-04T12:07:58Z</time></trkpt><trkpt lat="41.51930860083823" lon="0.17602113026729288"><ele>280.0</ele><time>2026-05-04T12:07:59Z</time></trkpt><trkpt lat="41.51932289485723" lon="0.17617206492362864"><ele>280.0</ele><time>2026-05-04T12:08:00Z</time></trkpt><trkpt lat="41.519335303929495" lon="0.17632403526328358"><ele>280.0</ele><time>2026-05-04T12:08:01Z</time></trkpt><trkpt lat="41.519348598597574" lon="0.1764772345562418"><ele>280.0</ele><time>2026-05-04T12:08:02Z</time></trkpt><trkpt lat="41.51936199389257" lon="0.17662683079874628"><ele>280.0</ele><time>2026-05-04T12:08:03Z</time></trkpt><trkpt lat="41.519377650413944" lon="0.17677924982006227"><ele>280.0</ele><time>2026-05-04T12:08:04Z</time></trkpt><trkpt lat="41.51939335065088" lon="0.1769314353648329"><ele>280.0</ele><time>2026-05-04T12:08:05Z</time></trkpt><trkpt lat="41.51940822280686" lon="0.17708228882152155"><ele>280.0</ele><time>2026-05-04T12:08:06Z</time></trkpt><trkpt lat="41.519425077825694" lon="0.17723406916299037"><ele>280.0</ele><time>2026-05-04T12:08:07Z</time></trkpt><trkpt lat="41.51944100630524" lon="0.17738809538400774"><ele>280.0</ele><time>2026-05-04T12:08:08Z</time></trkpt><trkpt lat="41.519458103433806" lon="0.17754303288721404"><ele>280.0</ele><time>2026-05-04T12:08:09Z</time></trkpt><trkpt lat="41.51947232908909" lon="0.17769843543498998"><ele>280.0</ele><time>2026-05-04T12:08:10Z</time></trkpt><trkpt lat="41.519486659565274" lon="0.17785146250266803"><ele>280.0</ele><time>2026-05-04T12:08:11Z</time></trkpt><trkpt lat="41.51949999813184" lon="0.17800600837289898"><ele>280.0</ele><time>2026-05-04T12:08:12Z</time></trkpt><trkpt lat="41.51951409535271" lon="0.17816321013139227"><ele>280.0</ele><time>2026-05-04T12:08:13Z</time></trkpt><trkpt lat="41.51952713175993" lon="0.17831811104751208"><ele>280.0</ele><time>2026-05-04T12:08:14Z</time></trkpt><trkpt lat="41.51954083168107" lon="0.17847425405426953"><ele>280.0</ele><time>2026-05-04T12:08:15Z</time></trkpt><trkpt lat="41.51955440800857" lon="0.17863171463596825"><ele>281.0</ele><time>2026-05-04T12:08:16Z</time></trkpt><trkpt lat="41.51957070556673" lon="0.17878804223063396"><ele>282.0</ele><time>2026-05-04T12:08:17Z</time></trkpt><trkpt lat="41.51958763443919" lon="0.17894353799393622"><ele>283.0</ele><time>2026-05-04T12:08:18Z</time></trkpt><trkpt lat="41.51960412791842" lon="0.1790998718159433"><ele>284.0</ele><time>2026-05-04T12:08:19Z</time></trkpt><trkpt lat="41.519619225891596" lon="0.17925472784995614"><ele>284.0</ele><time>2026-05-04T12:08:20.001Z</time></trkpt><trkpt lat="41.51963314073161" lon="0.1794138630020556"><ele>284.0</ele><time>2026-05-04T12:08:21.001Z</time></trkpt><trkpt lat="41.51965051343147" lon="0.17956651434197665"><ele>284.0</ele><time>2026-05-04T12:08:22.001Z</time></trkpt><trkpt lat="41.51966572199798" lon="0.17972252059629235"><ele>284.0</ele><time>2026-05-04T12:08:23.001Z</time></trkpt><trkpt lat="41.51968184202008" lon="0.17987514949208294"><ele>283.75</ele><time>2026-05-04T12:08:24.001Z</time></trkpt><trkpt lat="41.51969552954403" lon="0.1800279445376018"><ele>283.5</ele><time>2026-05-04T12:08:25.001Z</time></trkpt><trkpt lat="41.51970871587159" lon="0.18018380811724818"><ele>283.25</ele><time>2026-05-04T12:08:26.001Z</time></trkpt><trkpt lat="41.519722125399895" lon="0.1803388796388606"><ele>283.0</ele><time>2026-05-04T12:08:27.001Z</time></trkpt><trkpt lat="41.519737270376545" lon="0.18049361555483193"><ele>283.0</ele><time>2026-05-04T12:08:28.001Z</time></trkpt><trkpt lat="41.51975525920629" lon="0.1806466336433312"><ele>283.0</ele><time>2026-05-04T12:08:29.001Z</time></trkpt><trkpt lat="41.519770284660645" lon="0.1808039185239132"><ele>283.0</ele><time>2026-05-04T12:08:30.001Z</time></trkpt><trkpt lat="41.51978333414244" lon="0.18096023308876752"><ele>283.0</ele><time>2026-05-04T12:08:31.001Z</time></trkpt><trkpt lat="41.51979877887343" lon="0.18111467595380534"><ele>282.75</ele><time>2026-05-04T12:08:32.001Z</time></trkpt><trkpt lat="41.519811440652425" lon="0.1812690159587686"><ele>282.5</ele><time>2026-05-04T12:08:33.001Z</time></trkpt><trkpt lat="41.51982937294937" lon="0.1814265985632873"><ele>282.25</ele><time>2026-05-04T12:08:34.001Z</time></trkpt><trkpt lat="41.5198395976173" lon="0.1815810105733315"><ele>282.0</ele><time>2026-05-04T12:08:35.001Z</time></trkpt><trkpt lat="41.5198575481655" lon="0.18173653612440302"><ele>282.5</ele><time>2026-05-04T12:08:36.001Z</time></trkpt><trkpt lat="41.51987277596448" lon="0.18189012650671565"><ele>283.0</ele><time>2026-05-04T12:08:37.001Z</time></trkpt><trkpt lat="41.51989070632248" lon="0.18204369225957392"><ele>283.5</ele><time>2026-05-04T12:08:38.001Z</time></trkpt><trkpt lat="41.51989928809614" lon="0.18220058860730282"><ele>284.0</ele><time>2026-05-04T12:08:39.001Z</time></trkpt><trkpt lat="41.519916375117624" lon="0.18235283259774052"><ele>284.0</ele><time>2026-05-04T12:08:40.001Z</time></trkpt><trkpt lat="41.51993113525371" lon="0.18250928565377494"><ele>284.0</ele><time>2026-05-04T12:08:41.001Z</time></trkpt><trkpt lat="41.519949074941735" lon="0.18266402785457933"><ele>284.0</ele><time>2026-05-04T12:08:42.001Z</time></trkpt><trkpt lat="41.519964815844304" lon="0.18281931049939845"><ele>284.0</ele><time>2026-05-04T12:08:43.001Z</time></trkpt><trkpt lat="41.51998184724541" lon="0.18297276994072906"><ele>284.0</ele><time>2026-05-04T12:08:44.001Z</time></trkpt><trkpt lat="41.519994854931376" lon="0.18312437378924043"><ele>284.0</ele><time>2026-05-04T12:08:45.001Z</time></trkpt><trkpt lat="41.520010776166274" lon="0.18328029426752235"><ele>284.0</ele><time>2026-05-04T12:08:46.001Z</time></trkpt><trkpt lat="41.5200245355862" lon="0.1834324907126337"><ele>284.0</ele><time>2026-05-04T12:08:47.001Z</time></trkpt><trkpt lat="41.520039827826885" lon="0.18358275518924433"><ele>284.25</ele><time>2026-05-04T12:08:48.001Z</time></trkpt><trkpt lat="41.52005541111348" lon="0.18373557893228398"><ele>284.5</ele><time>2026-05-04T12:08:49.001Z</time></trkpt><trkpt lat="41.52006805298158" lon="0.18388802221850825"><ele>284.75</ele><time>2026-05-04T12:08:50.001Z</time></trkpt><trkpt lat="41.520085458006484" lon="0.1840379892141602"><ele>285.0</ele><time>2026-05-04T12:08:51.001Z</time></trkpt><trkpt lat="41.52010429252916" lon="0.18418834799923076"><ele>285.25</ele><time>2026-05-04T12:08:52.001Z</time></trkpt><trkpt lat="41.52011975611823" lon="0.18433992186401996"><ele>285.5</ele><time>2026-05-04T12:08:53.001Z</time></trkpt><trkpt lat="41.520133658136835" lon="0.18448916757546305"><ele>285.75</ele><time>2026-05-04T12:08:54.001Z</time></trkpt><trkpt lat="41.52014773601579" lon="0.18463845092155082"><ele>286.0</ele><time>2026-05-04T12:08:55.001Z</time></trkpt><trkpt lat="41.520160832375645" lon="0.18479283707336652"><ele>285.5</ele><time>2026-05-04T12:08:56.001Z</time></trkpt><trkpt lat="41.52017594491215" lon="0.18494370740065844"><ele>285.0</ele><time>2026-05-04T12:08:57.001Z</time></trkpt><trkpt lat="41.52019153893656" lon="0.1850936747717193"><ele>284.5</ele><time>2026-05-04T12:08:58.001Z</time></trkpt><trkpt lat="41.52020695479382" lon="0.1852459760657745"><ele>284.0</ele><time>2026-05-04T12:08:59.001Z</time></trkpt><trkpt lat="41.520218878789585" lon="0.1853965760186355"><ele>284.0</ele><time>2026-05-04T12:09:00.001Z</time></trkpt><trkpt lat="41.52023464034815" lon="0.1855494004000664"><ele>284.0</ele><time>2026-05-04T12:09:01.001Z</time></trkpt><trkpt lat="41.52025089945793" lon="0.18570053769382425"><ele>284.0</ele><time>2026-05-04T12:09:02.001Z</time></trkpt><trkpt lat="41.520265631013345" lon="0.1858528190609208"><ele>284.0</ele><time>2026-05-04T12:09:03.001Z</time></trkpt><trkpt lat="41.520281850772044" lon="0.1860064288216049"><ele>284.75</ele><time>2026-05-04T12:09:04.001Z</time></trkpt><trkpt lat="41.520299251746415" lon="0.1861560812475847"><ele>285.5</ele><time>2026-05-04T12:09:05.001Z</time></trkpt><trkpt lat="41.520314841516914" lon="0.1863089985313896"><ele>286.25</ele><time>2026-05-04T12:09:06.001Z</time></trkpt><trkpt lat="41.52032618055577" lon="0.1864594322858039"><ele>287.0</ele><time>2026-05-04T12:09:07.001Z</time></trkpt><trkpt lat="41.520342459999846" lon="0.1866117228536219"><ele>287.0</ele><time>2026-05-04T12:09:08.001Z</time></trkpt><trkpt lat="41.52035786585795" lon="0.18676201539807752"><ele>287.0</ele><time>2026-05-04T12:09:09.001Z</time></trkpt><trkpt lat="41.52037174471333" lon="0.18691326312638673"><ele>287.0</ele><time>2026-05-04T12:09:10.001Z</time></trkpt><trkpt lat="41.52038735580235" lon="0.1870671564450265"><ele>287.0</ele><time>2026-05-04T12:09:11.001Z</time></trkpt><trkpt lat="41.52040019123128" lon="0.18721579143323153"><ele>287.5</ele><time>2026-05-04T12:09:12.001Z</time></trkpt><trkpt lat="41.520413655357046" lon="0.18736725625066625"><ele>288.0</ele><time>2026-05-04T12:09:13.001Z</time></trkpt><trkpt lat="41.52042762981173" lon="0.18751736763828716"><ele>288.5</ele><time>2026-05-04T12:09:14.001Z</time></trkpt><trkpt lat="41.52044645756551" lon="0.18766742927928154"><ele>289.0</ele><time>2026-05-04T12:09:15.001Z</time></trkpt><trkpt lat="41.52046246839302" lon="0.18781681518752424"><ele>289.0</ele><time>2026-05-04T12:09:16.001Z</time></trkpt><trkpt lat="41.52047892484044" lon="0.18796770175452607"><ele>289.0</ele><time>2026-05-04T12:09:17.001Z</time></trkpt><trkpt lat="41.520493960760405" lon="0.18811640958325632"><ele>289.0</ele><time>2026-05-04T12:09:18.001Z</time></trkpt><trkpt lat="41.520508471475054" lon="0.18826881331056194"><ele>289.0</ele><time>2026-05-04T12:09:19.001Z</time></trkpt><trkpt lat="41.52052561222545" lon="0.1884163126405497"><ele>288.75</ele><time>2026-05-04T12:09:20.001Z</time></trkpt><trkpt lat="41.52053893902206" lon="0.18856617383228289"><ele>288.5</ele><time>2026-05-04T12:09:21.001Z</time></trkpt><trkpt lat="41.52055260270198" lon="0.18871644776010787"><ele>288.25</ele><time>2026-05-04T12:09:22.001Z</time></trkpt><trkpt lat="41.52056507872185" lon="0.18886792779639042"><ele>288.0</ele><time>2026-05-04T12:09:23.001Z</time></trkpt><trkpt lat="41.52057966926882" lon="0.18901577224458796"><ele>288.0</ele><time>2026-05-04T12:09:24.001Z</time></trkpt><trkpt lat="41.52059340935627" lon="0.18916651219534192"><ele>288.0</ele><time>2026-05-04T12:09:25.001Z</time></trkpt><trkpt lat="41.5206052233131" lon="0.1893146613178569"><ele>288.0</ele><time>2026-05-04T12:09:26.001Z</time></trkpt><trkpt lat="41.52062191203362" lon="0.18946402469923843"><ele>288.0</ele><time>2026-05-04T12:09:27.001Z</time></trkpt><trkpt lat="41.520636597112265" lon="0.18961114383856728"><ele>288.0</ele><time>2026-05-04T12:09:28.001Z</time></trkpt><trkpt lat="41.52065259695175" lon="0.18975963568334794"><ele>288.4</ele><time>2026-05-04T12:09:29.001Z</time></trkpt><trkpt lat="41.520666456979214" lon="0.18991051360114194"><ele>288.8</ele><time>2026-05-04T12:09:30.001Z</time></trkpt><trkpt lat="41.52068220977276" lon="0.19005854668893069"><ele>289.2</ele><time>2026-05-04T12:09:31.001Z</time></trkpt><trkpt lat="41.52069439215714" lon="0.19019652915203142"><ele>289.6</ele><time>2026-05-04T12:09:32.001Z</time></trkpt><trkpt lat="41.52070843151667" lon="0.1903510281546448"><ele>290.0</ele><time>2026-05-04T12:09:33.001Z</time></trkpt><trkpt lat="41.520723129533195" lon="0.19049759312462183"><ele>290.0</ele><time>2026-05-04T12:09:34.001Z</time></trkpt><trkpt lat="41.520739705486555" lon="0.19064525392354617"><ele>290.0</ele><time>2026-05-04T12:09:35.001Z</time></trkpt><trkpt lat="41.520753338084525" lon="0.19079138759478043"><ele>290.0</ele><time>2026-05-04T12:09:36.001Z</time></trkpt><trkpt lat="41.52076494167721" lon="0.19094074059984154"><ele>290.0</ele><time>2026-05-04T12:09:37.001Z</time></trkpt><trkpt lat="41.52077991543232" lon="0.19109122574653692"><ele>290.0</ele><time>2026-05-04T12:09:38.001Z</time></trkpt><trkpt lat="41.5207924303862" lon="0.19124465057394913"><ele>289.75</ele><time>2026-05-04T12:09:39.002Z</time></trkpt><trkpt lat="41.52080622897652" lon="0.19139583570673405"><ele>289.5</ele><time>2026-05-04T12:09:40.002Z</time></trkpt><trkpt lat="41.52082307353445" lon="0.19154561944425383"><ele>289.25</ele><time>2026-05-04T12:09:41.002Z</time></trkpt><trkpt lat="41.52083652716861" lon="0.19169719788378176"><ele>289.0</ele><time>2026-05-04T12:09:42.002Z</time></trkpt><trkpt lat="41.52084883151887" lon="0.19185174229614674"><ele>289.75</ele><time>2026-05-04T12:09:43.002Z</time></trkpt><trkpt lat="41.52086272026685" lon="0.19200475830100205"><ele>290.5</ele><time>2026-05-04T12:09:44.002Z</time></trkpt><trkpt lat="41.520871622146544" lon="0.19216312704124755"><ele>291.25</ele><time>2026-05-04T12:09:45.002Z</time></trkpt><trkpt lat="41.52087910868415" lon="0.19231709095658042"><ele>292.0</ele><time>2026-05-04T12:09:46.002Z</time></trkpt><trkpt lat="41.52088700867892" lon="0.19247098570195145"><ele>292.5</ele><time>2026-05-04T12:09:47.002Z</time></trkpt><trkpt lat="41.52089022317821" lon="0.1926304499586328"><ele>293.0</ele><time>2026-05-04T12:09:48.002Z</time></trkpt><trkpt lat="41.520888433668574" lon="0.19278712127805256"><ele>293.5</ele><time>2026-05-04T12:09:49Z</time></trkpt><trkpt lat="41.52088310085882" lon="0.1929430629073449"><ele>294.0</ele><time>2026-05-04T12:09:50Z</time></trkpt><trkpt lat="41.52087689085066" lon="0.19309851554306354"><ele>294.0</ele><time>2026-05-04T12:09:51Z</time></trkpt><trkpt lat="41.52086787719383" lon="0.19325742080253225"><ele>294.0</ele><time>2026-05-04T12:09:52Z</time></trkpt><trkpt lat="41.52086248849459" lon="0.19341070011538644"><ele>294.0</ele><time>2026-05-04T12:09:53Z</time></trkpt><trkpt lat="41.52084873119325" lon="0.19356428170102988"><ele>294.0</ele><time>2026-05-04T12:09:54Z</time></trkpt><trkpt lat="41.52083652393038" lon="0.19371887313474334"><ele>294.0</ele><time>2026-05-04T12:09:55Z</time></trkpt><trkpt lat="41.52082197237761" lon="0.19387258191924386"><ele>294.0</ele><time>2026-05-04T12:09:56Z</time></trkpt><trkpt lat="41.52080856700398" lon="0.19402853575547896"><ele>294.0</ele><time>2026-05-04T12:09:57Z</time></trkpt><trkpt lat="41.52079531622154" lon="0.1941855405621404"><ele>294.0</ele><time>2026-05-04T12:09:58Z</time></trkpt><trkpt lat="41.52076661519022" lon="0.19449765446855488"><ele>294.25</ele><time>2026-05-04T12:10:00Z</time></trkpt><trkpt lat="41.52075788353868" lon="0.19465162080998694"><ele>294.5</ele><time>2026-05-04T12:10:01Z</time></trkpt><trkpt lat="41.52074571126294" lon="0.19480547554743644"><ele>294.75</ele><time>2026-05-04T12:10:02Z</time></trkpt><trkpt lat="41.52073010513313" lon="0.19495849688029"><ele>295.0</ele><time>2026-05-04T12:10:03Z</time></trkpt><trkpt lat="41.52071667520342" lon="0.19510903008152755"><ele>295.25</ele><time>2026-05-04T12:10:04Z</time></trkpt><trkpt lat="41.520705064593834" lon="0.1952586834523103"><ele>295.5</ele><time>2026-05-04T12:10:05Z</time></trkpt><trkpt lat="41.52069139417004" lon="0.1954068467909381"><ele>295.75</ele><time>2026-05-04T12:10:06Z</time></trkpt><trkpt lat="41.52067923488108" lon="0.19555630552389844"><ele>296.0</ele><time>2026-05-04T12:10:07Z</time></trkpt><trkpt lat="41.520667800831475" lon="0.19570610672926952"><ele>296.0</ele><time>2026-05-04T12:10:08Z</time></trkpt><trkpt lat="41.520656077137645" lon="0.19585580569069147"><ele>296.0</ele><time>2026-05-04T12:10:09Z</time></trkpt><trkpt lat="41.520640895125226" lon="0.19600306026952946"><ele>296.0</ele><time>2026-05-04T12:10:10Z</time></trkpt><trkpt lat="41.52062762711603" lon="0.1961522399396794"><ele>296.0</ele><time>2026-05-04T12:10:11Z</time></trkpt><trkpt lat="41.52061720718962" lon="0.1963020709264544"><ele>296.0</ele><time>2026-05-04T12:10:12Z</time></trkpt><trkpt lat="41.5206050056982" lon="0.1964533377364214"><ele>296.33333333333337</ele><time>2026-05-04T12:10:13Z</time></trkpt><trkpt lat="41.52058954802822" lon="0.1966062337588063"><ele>296.6666666666667</ele><time>2026-05-04T12:10:14Z</time></trkpt><trkpt lat="41.520564103206084" lon="0.19691236355130531"><ele>297.0</ele><time>2026-05-04T12:10:16Z</time></trkpt><trkpt lat="41.52055247846797" lon="0.19706654676527607"><ele>297.0</ele><time>2026-05-04T12:10:17Z</time></trkpt><trkpt lat="41.520540767246125" lon="0.19722251431592822"><ele>297.0</ele><time>2026-05-04T12:10:18Z</time></trkpt><trkpt lat="41.5205263163006" lon="0.19737909118511596"><ele>297.0</ele><time>2026-05-04T12:10:19Z</time></trkpt><trkpt lat="41.52051444699606" lon="0.19753419451643225"><ele>297.0</ele><time>2026-05-04T12:10:20Z</time></trkpt><trkpt lat="41.52050338323741" lon="0.19768640285697517"><ele>297.25</ele><time>2026-05-04T12:10:21Z</time></trkpt><trkpt lat="41.52049084081109" lon="0.19783783391106283"><ele>297.5</ele><time>2026-05-04T12:10:22Z</time></trkpt><trkpt lat="41.52047653460178" lon="0.19798636574131212"><ele>297.75</ele><time>2026-05-04T12:10:23Z</time></trkpt><trkpt lat="41.52046402657686" lon="0.19813456669955243"><ele>298.0</ele><time>2026-05-04T12:10:24Z</time></trkpt><trkpt lat="41.52045030351767" lon="0.19828489896874654"><ele>298.2</ele><time>2026-05-04T12:10:25Z</time></trkpt><trkpt lat="41.52044586004929" lon="0.19843282437461607"><ele>298.4</ele><time>2026-05-04T12:10:26Z</time></trkpt><trkpt lat="41.52044216756369" lon="0.19857560586486395"><ele>298.59999999999997</ele><time>2026-05-04T12:10:27Z</time></trkpt><trkpt lat="41.520462974040264" lon="0.19869141837245538"><ele>298.8</ele><time>2026-05-04T12:10:28Z</time></trkpt><trkpt lat="41.52046694405877" lon="0.1988186263241641"><ele>299.0</ele><time>2026-05-04T12:10:29Z</time></trkpt><trkpt lat="41.52040038677561" lon="0.1990103102138922"><ele>299.75</ele><time>2026-05-04T12:10:30Z</time></trkpt><trkpt lat="41.52038395743989" lon="0.19915897895261506"><ele>300.5</ele><time>2026-05-04T12:10:31Z</time></trkpt><trkpt lat="41.52036377508884" lon="0.1993210089068084"><ele>301.25</ele><time>2026-05-04T12:10:32Z</time></trkpt><trkpt lat="41.520316427296656" lon="0.19947914798167507"><ele>302.0</ele><time>2026-05-04T12:10:33Z</time></trkpt><trkpt lat="41.52033689987242" lon="0.19960447928950956"><ele>302.0</ele><time>2026-05-04T12:10:34.001Z</time></trkpt><trkpt lat="41.52031987033945" lon="0.19975728890243488"><ele>302.0</ele><time>2026-05-04T12:10:35.001Z</time></trkpt><trkpt lat="41.52031194294414" lon="0.19989595177131497"><ele>302.0</ele><time>2026-05-04T12:10:36.001Z</time></trkpt><trkpt lat="41.52029864183067" lon="0.20004368060155736"><ele>302.0</ele><time>2026-05-04T12:10:37.001Z</time></trkpt><trkpt lat="41.520286372531906" lon="0.20019067888126285"><ele>302.0</ele><time>2026-05-04T12:10:38.001Z</time></trkpt><trkpt lat="41.5202743912014" lon="0.20033629836717418"><ele>302.0</ele><time>2026-05-04T12:10:39.001Z</time></trkpt><trkpt lat="41.52026321320626" lon="0.200478622202822"><ele>302.0</ele><time>2026-05-04T12:10:40.001Z</time></trkpt><trkpt lat="41.52025140797586" lon="0.20062858530226096"><ele>302.0</ele><time>2026-05-04T12:10:41.001Z</time></trkpt><trkpt lat="41.520242270364456" lon="0.2007729418284952"><ele>302.0</ele><time>2026-05-04T12:10:42.001Z</time></trkpt><trkpt lat="41.52021870200399" lon="0.20092839649490316"><ele>302.0</ele><time>2026-05-04T12:10:43.001Z</time></trkpt><trkpt lat="41.520221173638866" lon="0.20107455676520075"><ele>302.2</ele><time>2026-05-04T12:10:44.001Z</time></trkpt><trkpt lat="41.520209006916055" lon="0.20122435364779126"><ele>302.4</ele><time>2026-05-04T12:10:45.001Z</time></trkpt><trkpt lat="41.52019538896958" lon="0.2013725278787788"><ele>302.6</ele><time>2026-05-04T12:10:46.001Z</time></trkpt><trkpt lat="41.520184572941005" lon="0.20152148683077342"><ele>302.8</ele><time>2026-05-04T12:10:47.001Z</time></trkpt><trkpt lat="41.520175225719605" lon="0.20166884640699115"><ele>303.0</ele><time>2026-05-04T12:10:48.001Z</time></trkpt><trkpt lat="41.520164818393276" lon="0.20181575092157747"><ele>303.0</ele><time>2026-05-04T12:10:49.001Z</time></trkpt><trkpt lat="41.52015214473262" lon="0.20196651534021573"><ele>303.0</ele><time>2026-05-04T12:10:50.001Z</time></trkpt><trkpt lat="41.52014121539551" lon="0.2021184762685497"><ele>303.0</ele><time>2026-05-04T12:10:51.001Z</time></trkpt><trkpt lat="41.520126770855036" lon="0.2022675737475405"><ele>303.0</ele><time>2026-05-04T12:10:52.001Z</time></trkpt><trkpt lat="41.52011220620815" lon="0.20241260440271866"><ele>303.0</ele><time>2026-05-04T12:10:53.001Z</time></trkpt><trkpt lat="41.52009665326899" lon="0.20256369554453885"><ele>303.0</ele><time>2026-05-04T12:10:54.001Z</time></trkpt><trkpt lat="41.520084439255385" lon="0.20270828968349966"><ele>303.0</ele><time>2026-05-04T12:10:55.001Z</time></trkpt><trkpt lat="41.52007260198527" lon="0.20285253324802646"><ele>303.0</ele><time>2026-05-04T12:10:56.001Z</time></trkpt><trkpt lat="41.5200628386505" lon="0.20298943499753938"><ele>303.0</ele><time>2026-05-04T12:10:57.001Z</time></trkpt><trkpt lat="41.520048073564034" lon="0.20312712782684764"><ele>302.8</ele><time>2026-05-04T12:10:58.001Z</time></trkpt><trkpt lat="41.52003904735736" lon="0.20326484348415896"><ele>302.6</ele><time>2026-05-04T12:10:59.001Z</time></trkpt><trkpt lat="41.52002759214" lon="0.2034010818261185"><ele>302.4</ele><time>2026-05-04T12:11:00.001Z</time></trkpt><trkpt lat="41.52001837340692" lon="0.2035414361551977"><ele>302.2</ele><time>2026-05-04T12:11:01.001Z</time></trkpt><trkpt lat="41.52000273158068" lon="0.2036815581550386"><ele>302.0</ele><time>2026-05-04T12:11:02.001Z</time></trkpt><trkpt lat="41.51998744379698" lon="0.20381840207893498"><ele>302.0</ele><time>2026-05-04T12:11:03.001Z</time></trkpt><trkpt lat="41.51997783013145" lon="0.20395916200640216"><ele>302.0</ele><time>2026-05-04T12:11:04.001Z</time></trkpt><trkpt lat="41.51996979495608" lon="0.20409663368575634"><ele>302.0</ele><time>2026-05-04T12:11:05.001Z</time></trkpt><trkpt lat="41.51995408489477" lon="0.20422793356228383"><ele>302.0</ele><time>2026-05-04T12:11:06.001Z</time></trkpt><trkpt lat="41.51993424694529" lon="0.20435799765950258"><ele>302.0</ele><time>2026-05-04T12:11:07.001Z</time></trkpt><trkpt lat="41.51991660990533" lon="0.20448209604767031"><ele>302.1666666666667</ele><time>2026-05-04T12:11:08.001Z</time></trkpt><trkpt lat="41.519907530657136" lon="0.20460605385669584"><ele>302.33333333333337</ele><time>2026-05-04T12:11:09.001Z</time></trkpt><trkpt lat="41.519895826764994" lon="0.204717016121845"><ele>302.5</ele><time>2026-05-04T12:11:10.001Z</time></trkpt><trkpt lat="41.519880053926215" lon="0.20482681150654708"><ele>302.6666666666667</ele><time>2026-05-04T12:11:11.001Z</time></trkpt><trkpt lat="41.51985672471707" lon="0.20492967412496862"><ele>302.8333333333333</ele><time>2026-05-04T12:11:12.001Z</time></trkpt><trkpt lat="41.51984786439097" lon="0.20502742760869017"><ele>303.0</ele><time>2026-05-04T12:11:13.001Z</time></trkpt><trkpt lat="41.519842773447124" lon="0.20512165975618385"><ele>303.0</ele><time>2026-05-04T12:11:14.001Z</time></trkpt><trkpt lat="41.51983739218008" lon="0.20521385861809874"><ele>303.0</ele><time>2026-05-04T12:11:15.001Z</time></trkpt><trkpt lat="41.51982061957841" lon="0.20530600528642867"><ele>303.0</ele><time>2026-05-04T12:11:16.001Z</time></trkpt><trkpt lat="41.51980793630561" lon="0.20539964623207932"><ele>303.0</ele><time>2026-05-04T12:11:17.001Z</time></trkpt><trkpt lat="41.519803018894436" lon="0.2054996716316811"><ele>303.0</ele><time>2026-05-04T12:11:18.001Z</time></trkpt><trkpt lat="41.519797040202384" lon="0.20559157168356385"><ele>303.0</ele><time>2026-05-04T12:11:19.001Z</time></trkpt><trkpt lat="41.51977155859486" lon="0.2057339489713927"><ele>303.1666666666667</ele><time>2026-05-04T12:11:21.001Z</time></trkpt><trkpt lat="41.51976747098566" lon="0.20585568334951185"><ele>303.3333333333333</ele><time>2026-05-04T12:11:23.001Z</time></trkpt><trkpt lat="41.51974931161602" lon="0.20594353350454692"><ele>303.5</ele><time>2026-05-04T12:11:25.001Z</time></trkpt><trkpt lat="41.51969339936764" lon="0.20600815706745135"><ele>303.66666666666663</ele><time>2026-05-04T12:11:28.001Z</time></trkpt><trkpt lat="41.5196465960826" lon="0.20608257649802614"><ele>303.8333333333333</ele><time>2026-05-04T12:11:30.001Z</time></trkpt><trkpt lat="41.5196450991316" lon="0.20619379547293856"><ele>304.0</ele><time>2026-05-04T12:11:32.001Z</time></trkpt><trkpt lat="41.51963783146324" lon="0.2063168960895813"><ele>304.0</ele><time>2026-05-04T12:11:35.001Z</time></trkpt><trkpt lat="41.519653654385806" lon="0.2064240248786273"><ele>304.0</ele><time>2026-05-04T12:11:37.001Z</time></trkpt><trkpt lat="41.51967601329149" lon="0.2065709221944748"><ele>304.0</ele><time>2026-05-04T12:11:39.001Z</time></trkpt><trkpt lat="41.51971816044288" lon="0.20668363555432093"><ele>304.0</ele><time>2026-05-04T12:11:41.001Z</time></trkpt><trkpt lat="41.51988710338179" lon="0.20661249056636463"><ele>304.0</ele><time>2026-05-04T12:11:48.001Z</time></trkpt><trkpt lat="41.51992133802708" lon="0.20652371933258767"><ele>304.0</ele><time>2026-05-04T12:11:49.001Z</time></trkpt><trkpt lat="41.51996396944751" lon="0.206448225026118"><ele>304.0</ele><time>2026-05-04T12:11:50.001Z</time></trkpt><trkpt lat="41.52005924310351" lon="0.2063537179584949"><ele>304.0</ele><time>2026-05-04T12:11:52.001Z</time></trkpt><trkpt lat="41.52014595863183" lon="0.20631077441864265"><ele>304.0</ele><time>2026-05-04T12:11:54.001Z</time></trkpt><trkpt lat="41.520191247904464" lon="0.2062326507520632"><ele>304.0</ele><time>2026-05-04T12:11:57Z</time></trkpt><trkpt lat="41.520128623008745" lon="0.20622143119170633"><ele>304.0</ele><time>2026-05-04T12:27:33Z</time></trkpt><trkpt lat="41.52006406069811" lon="0.20625334517169314"><ele>304.0</ele><time>2026-05-04T12:27:47.001Z</time></trkpt><trkpt lat="41.520010482107956" lon="0.20630791745020507"><ele>304.0</ele><time>2026-05-04T12:27:49.001Z</time></trkpt><trkpt lat="41.51996441623171" lon="0.20637399632193668"><ele>304.0</ele><time>2026-05-04T12:27:51.001Z</time></trkpt><trkpt lat="41.519894464115474" lon="0.20642836825835043"><ele>304.0</ele><time>2026-05-04T12:27:54.001Z</time></trkpt><trkpt lat="41.51981953324205" lon="0.20648642345771134"><ele>304.0</ele><time>2026-05-04T12:27:56.001Z</time></trkpt><trkpt lat="41.519782305278916" lon="0.2066478019071199"><ele>303.8333333333333</ele><time>2026-05-04T12:27:58.001Z</time></trkpt><trkpt lat="41.5197793103721" lon="0.20674277513413344"><ele>303.66666666666663</ele><time>2026-05-04T12:27:59.001Z</time></trkpt><trkpt lat="41.51977667254665" lon="0.20684269102351507"><ele>303.5</ele><time>2026-05-04T12:28:00.001Z</time></trkpt><trkpt lat="41.5197698839158" lon="0.20694571237871967"><ele>303.3333333333333</ele><time>2026-05-04T12:28:01.001Z</time></trkpt><trkpt lat="41.51975910010721" lon="0.2070498915262748"><ele>303.1666666666667</ele><time>2026-05-04T12:28:02.001Z</time></trkpt><trkpt lat="41.51974816400044" lon="0.20716374290951953"><ele>303.0</ele><time>2026-05-04T12:28:03.001Z</time></trkpt><trkpt lat="41.51973936728612" lon="0.2072712302329413"><ele>303.4</ele><time>2026-05-04T12:28:04.001Z</time></trkpt><trkpt lat="41.51972894978484" lon="0.20738697120478805"><ele>303.8</ele><time>2026-05-04T12:28:05.001Z</time></trkpt><trkpt lat="41.51971526061679" lon="0.20750366328139228"><ele>304.2</ele><time>2026-05-04T12:28:06.001Z</time></trkpt><trkpt lat="41.51970498125928" lon="0.20762176478161734"><ele>304.6</ele><time>2026-05-04T12:28:07.001Z</time></trkpt><trkpt lat="41.51969150025523" lon="0.20774442258931025"><ele>305.0</ele><time>2026-05-04T12:28:08.001Z</time></trkpt><trkpt lat="41.51968233257848" lon="0.20787073141757428"><ele>305.0</ele><time>2026-05-04T12:28:09.001Z</time></trkpt><trkpt lat="41.5196696809101" lon="0.20799822542015986"><ele>305.0</ele><time>2026-05-04T12:28:10.001Z</time></trkpt><trkpt lat="41.51966200962198" lon="0.2081252893075717"><ele>305.0</ele><time>2026-05-04T12:28:11.001Z</time></trkpt><trkpt lat="41.51964963379779" lon="0.2082637601544519"><ele>305.0</ele><time>2026-05-04T12:28:12.001Z</time></trkpt><trkpt lat="41.519637854360234" lon="0.20839291700124457"><ele>305.0</ele><time>2026-05-04T12:28:13.001Z</time></trkpt><trkpt lat="41.519627380105184" lon="0.2085228527535113"><ele>305.4</ele><time>2026-05-04T12:28:14.001Z</time></trkpt><trkpt lat="41.51961471102529" lon="0.20865611510214746"><ele>305.8</ele><time>2026-05-04T12:28:15.001Z</time></trkpt><trkpt lat="41.519606013517716" lon="0.20878993134317234"><ele>306.2</ele><time>2026-05-04T12:28:16.001Z</time></trkpt><trkpt lat="41.519596684997715" lon="0.20892590942963915"><ele>306.6</ele><time>2026-05-04T12:28:17.001Z</time></trkpt><trkpt lat="41.51958371295129" lon="0.20905918023050712"><ele>307.0</ele><time>2026-05-04T12:28:18.001Z</time></trkpt><trkpt lat="41.51957524523847" lon="0.20919177269699704"><ele>307.0</ele><time>2026-05-04T12:28:19.001Z</time></trkpt><trkpt lat="41.51956265773142" lon="0.20932572548147035"><ele>307.0</ele><time>2026-05-04T12:28:20.001Z</time></trkpt><trkpt lat="41.51955348765666" lon="0.2094597236419905"><ele>307.0</ele><time>2026-05-04T12:28:21.001Z</time></trkpt><trkpt lat="41.519545371925005" lon="0.20959631048356506"><ele>307.0</ele><time>2026-05-04T12:28:22.001Z</time></trkpt><trkpt lat="41.51953498856239" lon="0.20973054971082747"><ele>307.0</ele><time>2026-05-04T12:28:23.001Z</time></trkpt><trkpt lat="41.51951887672925" lon="0.20986777309999263"><ele>307.0</ele><time>2026-05-04T12:28:24.001Z</time></trkpt><trkpt lat="41.519506093037926" lon="0.21000781000368943"><ele>307.0</ele><time>2026-05-04T12:28:25.001Z</time></trkpt><trkpt lat="41.51949766378076" lon="0.21014511239291142"><ele>307.0</ele><time>2026-05-04T12:28:26.001Z</time></trkpt><trkpt lat="41.519487918478355" lon="0.21028112329370371"><ele>307.0</ele><time>2026-05-04T12:28:27.001Z</time></trkpt><trkpt lat="41.51947471657411" lon="0.2104170287783459"><ele>307.0</ele><time>2026-05-04T12:28:28.001Z</time></trkpt><trkpt lat="41.51946406332171" lon="0.21055432017990272"><ele>307.0</ele><time>2026-05-04T12:28:29.001Z</time></trkpt><trkpt lat="41.51945126405347" lon="0.21069127875118107"><ele>307.0</ele><time>2026-05-04T12:28:30.001Z</time></trkpt><trkpt lat="41.51944042510267" lon="0.21082821665356052"><ele>307.0</ele><time>2026-05-04T12:28:31.001Z</time></trkpt><trkpt lat="41.519427362443956" lon="0.21096658097040688"><ele>307.0</ele><time>2026-05-04T12:28:32.001Z</time></trkpt><trkpt lat="41.51941406633336" lon="0.2111003915816065"><ele>307.0</ele><time>2026-05-04T12:28:33.001Z</time></trkpt><trkpt lat="41.51940304719693" lon="0.21123422059157232"><ele>307.0</ele><time>2026-05-04T12:28:34.001Z</time></trkpt><trkpt lat="41.519393833024736" lon="0.21136363866741525"><ele>307.0</ele><time>2026-05-04T12:28:35.001Z</time></trkpt><trkpt lat="41.51938180379937" lon="0.21149828168955984"><ele>307.0</ele><time>2026-05-04T12:28:36.001Z</time></trkpt><trkpt lat="41.51937153752875" lon="0.2116300822076198"><ele>307.0</ele><time>2026-05-04T12:28:37.001Z</time></trkpt><trkpt lat="41.5193600878175" lon="0.21175998306262828"><ele>307.0</ele><time>2026-05-04T12:28:38.001Z</time></trkpt><trkpt lat="41.519350007249294" lon="0.2118902462180388"><ele>307.0</ele><time>2026-05-04T12:28:39.001Z</time></trkpt><trkpt lat="41.51934035289782" lon="0.21202181219962002"><ele>307.0</ele><time>2026-05-04T12:28:40.001Z</time></trkpt><trkpt lat="41.51932905767265" lon="0.21215461954993164"><ele>307.0</ele><time>2026-05-04T12:28:41.001Z</time></trkpt><trkpt lat="41.51931728368827" lon="0.21228444110967432"><ele>307.0</ele><time>2026-05-04T12:28:42.001Z</time></trkpt><trkpt lat="41.51930194628523" lon="0.21241243966530776"><ele>307.0</ele><time>2026-05-04T12:28:43Z</time></trkpt><trkpt lat="41.519293870082876" lon="0.21253739924202444"><ele>307.0</ele><time>2026-05-04T12:28:44Z</time></trkpt><trkpt lat="41.5192838261261" lon="0.21266546293952082"><ele>307.0</ele><time>2026-05-04T12:28:45Z</time></trkpt><trkpt lat="41.51927270546828" lon="0.2127950132889651"><ele>307.0</ele><time>2026-05-04T12:28:46Z</time></trkpt><trkpt lat="41.519263146553975" lon="0.21292531606493925"><ele>307.0</ele><time>2026-05-04T12:28:47Z</time></trkpt><trkpt lat="41.519252655485765" lon="0.21305814107736815"><ele>307.0</ele><time>2026-05-04T12:28:48Z</time></trkpt><trkpt lat="41.51923806767655" lon="0.2131901236100046"><ele>307.0</ele><time>2026-05-04T12:28:49Z</time></trkpt><trkpt lat="41.51922921889192" lon="0.2133201903292131"><ele>307.0</ele><time>2026-05-04T12:28:50Z</time></trkpt><trkpt lat="41.51921975132976" lon="0.21344987063300408"><ele>307.0</ele><time>2026-05-04T12:28:51Z</time></trkpt><trkpt lat="41.519211880120864" lon="0.21358361403730194"><ele>307.0</ele><time>2026-05-04T12:28:52Z</time></trkpt><trkpt lat="41.519202740785424" lon="0.21371619069986741"><ele>307.0</ele><time>2026-05-04T12:28:53Z</time></trkpt><trkpt lat="41.51918923359518" lon="0.21384784086308803"><ele>307.0</ele><time>2026-05-04T12:28:54Z</time></trkpt><trkpt lat="41.51917855701646" lon="0.2139808114022345"><ele>307.0</ele><time>2026-05-04T12:28:55Z</time></trkpt><trkpt lat="41.51916584533092" lon="0.21411331060455843"><ele>307.0</ele><time>2026-05-04T12:28:56Z</time></trkpt><trkpt lat="41.51915663253775" lon="0.21424453886645026"><ele>307.0</ele><time>2026-05-04T12:28:57Z</time></trkpt><trkpt lat="41.51914646053838" lon="0.214374093678563"><ele>307.0</ele><time>2026-05-04T12:28:58Z</time></trkpt><trkpt lat="41.51913606944378" lon="0.21450707192210014"><ele>307.6</ele><time>2026-05-04T12:28:59Z</time></trkpt><trkpt lat="41.519121943537755" lon="0.21464279117654336"><ele>308.2</ele><time>2026-05-04T12:29:00Z</time></trkpt><trkpt lat="41.51910686722873" lon="0.21476561155055032"><ele>308.8</ele><time>2026-05-04T12:29:01Z</time></trkpt><trkpt lat="41.51909891935351" lon="0.2148927865151815"><ele>309.4</ele><time>2026-05-04T12:29:02Z</time></trkpt><trkpt lat="41.519084249311916" lon="0.2150198108207936"><ele>310.0</ele><time>2026-05-04T12:29:03Z</time></trkpt><trkpt lat="41.5190764859004" lon="0.21514723069849054"><ele>310.2</ele><time>2026-05-04T12:29:04Z</time></trkpt><trkpt lat="41.51906599092082" lon="0.21527514088423325"><ele>310.4</ele><time>2026-05-04T12:29:05Z</time></trkpt><trkpt lat="41.519056360875474" lon="0.2154041685197931"><ele>310.6</ele><time>2026-05-04T12:29:06Z</time></trkpt><trkpt lat="41.51904669854351" lon="0.21553171864066392"><ele>310.8</ele><time>2026-05-04T12:29:07Z</time></trkpt><trkpt lat="41.51903867379645" lon="0.2156615572987151"><ele>311.0</ele><time>2026-05-04T12:29:08Z</time></trkpt><trkpt lat="41.5190322496585" lon="0.21579156232640087"><ele>311.2</ele><time>2026-05-04T12:29:09Z</time></trkpt><trkpt lat="41.519021482572136" lon="0.21592341052145575"><ele>311.40000000000003</ele><time>2026-05-04T12:29:10Z</time></trkpt><trkpt lat="41.5190113158292" lon="0.21605541273466652"><ele>311.6</ele><time>2026-05-04T12:29:11Z</time></trkpt><trkpt lat="41.518997007351516" lon="0.2161895674035493"><ele>311.8</ele><time>2026-05-04T12:29:12Z</time></trkpt><trkpt lat="41.518985726110074" lon="0.2163254866750047"><ele>312.0</ele><time>2026-05-04T12:29:13Z</time></trkpt><trkpt lat="41.518966909949306" lon="0.21645981862233002"><ele>312.2</ele><time>2026-05-04T12:29:14Z</time></trkpt><trkpt lat="41.51895696338198" lon="0.21659715086656595"><ele>312.4</ele><time>2026-05-04T12:29:15Z</time></trkpt><trkpt lat="41.51894689165765" lon="0.21673524591630897"><ele>312.6</ele><time>2026-05-04T12:29:16Z</time></trkpt><trkpt lat="41.51893638446437" lon="0.21687328465584169"><ele>312.8</ele><time>2026-05-04T12:29:17Z</time></trkpt><trkpt lat="41.518925790203404" lon="0.21701154194427413"><ele>313.0</ele><time>2026-05-04T12:29:18Z</time></trkpt><trkpt lat="41.518914108316025" lon="0.21715096260456865"><ele>313.0</ele><time>2026-05-04T12:29:19Z</time></trkpt><trkpt lat="41.518902378726374" lon="0.21729217392499697"><ele>313.0</ele><time>2026-05-04T12:29:20Z</time></trkpt><trkpt lat="41.51889169784246" lon="0.21743081653250354"><ele>313.0</ele><time>2026-05-04T12:29:21Z</time></trkpt><trkpt lat="41.51888040988426" lon="0.21756965992953914"><ele>313.0</ele><time>2026-05-04T12:29:22Z</time></trkpt><trkpt lat="41.51886972335405" lon="0.21770724188015425"><ele>313.0</ele><time>2026-05-04T12:29:23Z</time></trkpt><trkpt lat="41.51885873312644" lon="0.21784718394240724"><ele>313.0</ele><time>2026-05-04T12:29:24Z</time></trkpt><trkpt lat="41.518845321404164" lon="0.21798272717862233"><ele>313.0</ele><time>2026-05-04T12:29:25Z</time></trkpt><trkpt lat="41.518835618352426" lon="0.21812250643698275"><ele>313.0</ele><time>2026-05-04T12:29:26Z</time></trkpt><trkpt lat="41.51882373004675" lon="0.21825871425953117"><ele>313.0</ele><time>2026-05-04T12:29:27Z</time></trkpt><trkpt lat="41.51881193810101" lon="0.2183954072203461"><ele>313.0</ele><time>2026-05-04T12:29:28Z</time></trkpt><trkpt lat="41.51879798098718" lon="0.2185348033046813"><ele>313.0</ele><time>2026-05-04T12:29:29Z</time></trkpt><trkpt lat="41.51878631836595" lon="0.2186757972053991"><ele>313.0</ele><time>2026-05-04T12:29:30Z</time></trkpt><trkpt lat="41.51877445783229" lon="0.21881433710483422"><ele>313.0</ele><time>2026-05-04T12:29:31Z</time></trkpt><trkpt lat="41.51876496398548" lon="0.21895631493055231"><ele>313.0</ele><time>2026-05-04T12:29:32Z</time></trkpt><trkpt lat="41.51875610848235" lon="0.21909523258656377"><ele>313.0</ele><time>2026-05-04T12:29:33Z</time></trkpt><trkpt lat="41.518743616576394" lon="0.21923533737834"><ele>313.2</ele><time>2026-05-04T12:29:34Z</time></trkpt><trkpt lat="41.518731997254605" lon="0.21937886759440392"><ele>313.4</ele><time>2026-05-04T12:29:35Z</time></trkpt><trkpt lat="41.51871901129776" lon="0.21951686965590816"><ele>313.59999999999997</ele><time>2026-05-04T12:29:36Z</time></trkpt><trkpt lat="41.518707791777096" lon="0.2196565017018643"><ele>313.8</ele><time>2026-05-04T12:29:37Z</time></trkpt><trkpt lat="41.518695516542465" lon="0.21979567159829363"><ele>314.0</ele><time>2026-05-04T12:29:38Z</time></trkpt><trkpt lat="41.51868223578104" lon="0.21993547681242423"><ele>314.2</ele><time>2026-05-04T12:29:39Z</time></trkpt><trkpt lat="41.51866928701843" lon="0.22007523561071837"><ele>314.4</ele><time>2026-05-04T12:29:40Z</time></trkpt><trkpt lat="41.518658825147824" lon="0.22021689737943131"><ele>314.6</ele><time>2026-05-04T12:29:41Z</time></trkpt><trkpt lat="41.51864978640335" lon="0.22035632133863625"><ele>314.8</ele><time>2026-05-04T12:29:42Z</time></trkpt><trkpt lat="41.51864162385219" lon="0.2204934702679961"><ele>315.0</ele><time>2026-05-04T12:29:43Z</time></trkpt><trkpt lat="41.51863083306546" lon="0.2206298466526272"><ele>315.2</ele><time>2026-05-04T12:29:44Z</time></trkpt><trkpt lat="41.51861993657282" lon="0.22076588949644266"><ele>315.4</ele><time>2026-05-04T12:29:45Z</time></trkpt><trkpt lat="41.51860891851609" lon="0.22090147960799586"><ele>315.6</ele><time>2026-05-04T12:29:46Z</time></trkpt><trkpt lat="41.5185963798571" lon="0.2210388741112217"><ele>315.8</ele><time>2026-05-04T12:29:47Z</time></trkpt><trkpt lat="41.51858418452258" lon="0.22117696146961863"><ele>316.0</ele><time>2026-05-04T12:29:48Z</time></trkpt><trkpt lat="41.51857153824915" lon="0.22131426396375387"><ele>316.0</ele><time>2026-05-04T12:29:49Z</time></trkpt><trkpt lat="41.518558089077764" lon="0.22144861525114715"><ele>316.0</ele><time>2026-05-04T12:29:50Z</time></trkpt><trkpt lat="41.51854635060769" lon="0.22158530158642947"><ele>316.0</ele><time>2026-05-04T12:29:51Z</time></trkpt><trkpt lat="41.51853662233842" lon="0.2217223253107734"><ele>316.0</ele><time>2026-05-04T12:29:52Z</time></trkpt><trkpt lat="41.518526090608724" lon="0.221859695371113"><ele>316.0</ele><time>2026-05-04T12:29:53.001Z</time></trkpt><trkpt lat="41.51851645617395" lon="0.2219958941229079"><ele>316.2</ele><time>2026-05-04T12:29:54.001Z</time></trkpt><trkpt lat="41.518505892082814" lon="0.22213555859409942"><ele>316.40000000000003</ele><time>2026-05-04T12:29:55.001Z</time></trkpt><trkpt lat="41.51849648471919" lon="0.22227249546838124"><ele>316.6</ele><time>2026-05-04T12:29:56.001Z</time></trkpt><trkpt lat="41.51848765139215" lon="0.22240767413460943"><ele>316.8</ele><time>2026-05-04T12:29:57.001Z</time></trkpt><trkpt lat="41.518475877157854" lon="0.22254309368443076"><ele>317.0</ele><time>2026-05-04T12:29:58.001Z</time></trkpt><trkpt lat="41.51846340115538" lon="0.22267929593607982"><ele>317.6</ele><time>2026-05-04T12:29:59.001Z</time></trkpt><trkpt lat="41.518452493521444" lon="0.22281885026237386"><ele>318.2</ele><time>2026-05-04T12:30:00.001Z</time></trkpt><trkpt lat="41.51844079219441" lon="0.22295435500693814"><ele>318.8</ele><time>2026-05-04T12:30:01.001Z</time></trkpt><trkpt lat="41.51842689807375" lon="0.22309121771206789"><ele>319.4</ele><time>2026-05-04T12:30:02.001Z</time></trkpt><trkpt lat="41.51841507503631" lon="0.2232281518005487"><ele>320.0</ele><time>2026-05-04T12:30:03.001Z</time></trkpt><trkpt lat="41.51840453152397" lon="0.2233667831928521"><ele>320.6</ele><time>2026-05-04T12:30:04.001Z</time></trkpt><trkpt lat="41.51839504398147" lon="0.22350356440309946"><ele>321.2</ele><time>2026-05-04T12:30:05.001Z</time></trkpt><trkpt lat="41.51838562283345" lon="0.22364175479472123"><ele>321.79999999999995</ele><time>2026-05-04T12:30:06.001Z</time></trkpt><trkpt lat="41.51837571516507" lon="0.2237781347611106"><ele>322.4</ele><time>2026-05-04T12:30:07.001Z</time></trkpt><trkpt lat="41.51836439626846" lon="0.2239163438535516"><ele>323.0</ele><time>2026-05-04T12:30:08.001Z</time></trkpt><trkpt lat="41.51835100265456" lon="0.2240522633569989"><ele>323.0</ele><time>2026-05-04T12:30:09.001Z</time></trkpt><trkpt lat="41.518339575631536" lon="0.22418560724767614"><ele>323.0</ele><time>2026-05-04T12:30:10.001Z</time></trkpt><trkpt lat="41.518326569033604" lon="0.22432152860564664"><ele>323.0</ele><time>2026-05-04T12:30:11.001Z</time></trkpt><trkpt lat="41.518315105613794" lon="0.2244562046972193"><ele>323.0</ele><time>2026-05-04T12:30:12.001Z</time></trkpt><trkpt lat="41.518302818545294" lon="0.22459075478214213"><ele>323.0</ele><time>2026-05-04T12:30:13.001Z</time></trkpt><trkpt lat="41.51829176357989" lon="0.22472657204595062"><ele>323.2</ele><time>2026-05-04T12:30:14.001Z</time></trkpt><trkpt lat="41.51828127666849" lon="0.2248617732981734"><ele>323.4</ele><time>2026-05-04T12:30:15.001Z</time></trkpt><trkpt lat="41.518270150646664" lon="0.22499652996577385"><ele>323.59999999999997</ele><time>2026-05-04T12:30:16.001Z</time></trkpt><trkpt lat="41.518259037391054" lon="0.2251314339703246"><ele>323.79999999999995</ele><time>2026-05-04T12:30:17.001Z</time></trkpt><trkpt lat="41.518247071043724" lon="0.22526562894721672"><ele>324.0</ele><time>2026-05-04T12:30:18.001Z</time></trkpt><trkpt lat="41.51823559413086" lon="0.2253991406424772"><ele>324.0</ele><time>2026-05-04T12:30:19.001Z</time></trkpt><trkpt lat="41.51822415777768" lon="0.22553359050062632"><ele>324.0</ele><time>2026-05-04T12:30:20.001Z</time></trkpt><trkpt lat="41.51821422872238" lon="0.22566696166838346"><ele>324.0</ele><time>2026-05-04T12:30:21.001Z</time></trkpt><trkpt lat="41.518206562535624" lon="0.22580110318083693"><ele>324.0</ele><time>2026-05-04T12:30:22.001Z</time></trkpt><trkpt lat="41.51819572997103" lon="0.2259332103989998"><ele>324.0</ele><time>2026-05-04T12:30:23.001Z</time></trkpt><trkpt lat="41.51818464634749" lon="0.22606665304000015"><ele>324.79999999999995</ele><time>2026-05-04T12:30:24.001Z</time></trkpt><trkpt lat="41.51817279870759" lon="0.2261992332284721"><ele>325.59999999999997</ele><time>2026-05-04T12:30:25.001Z</time></trkpt><trkpt lat="41.51816013540025" lon="0.2263342508621384"><ele>326.4</ele><time>2026-05-04T12:30:26.001Z</time></trkpt><trkpt lat="41.51814741300575" lon="0.22646836329124204"><ele>327.2</ele><time>2026-05-04T12:30:27.001Z</time></trkpt><trkpt lat="41.51813536567861" lon="0.22660300417438417"><ele>328.0</ele><time>2026-05-04T12:30:28.001Z</time></trkpt><trkpt lat="41.51812133442698" lon="0.2267385576124747"><ele>328.2</ele><time>2026-05-04T12:30:29.001Z</time></trkpt><trkpt lat="41.518110508251695" lon="0.22687402724089786"><ele>328.4</ele><time>2026-05-04T12:30:30.001Z</time></trkpt><trkpt lat="41.51810181200874" lon="0.227005994114153"><ele>328.59999999999997</ele><time>2026-05-04T12:30:31.001Z</time></trkpt><trkpt lat="41.51809308293843" lon="0.22713733795229524"><ele>328.79999999999995</ele><time>2026-05-04T12:30:32.001Z</time></trkpt><trkpt lat="41.518084660066776" lon="0.22726767928766053"><ele>329.0</ele><time>2026-05-04T12:30:33.001Z</time></trkpt><trkpt lat="41.51807564309665" lon="0.22739892879101598"><ele>329.4</ele><time>2026-05-04T12:30:34.001Z</time></trkpt><trkpt lat="41.518063159254034" lon="0.2275300992779052"><ele>329.79999999999995</ele><time>2026-05-04T12:30:35.001Z</time></trkpt><trkpt lat="41.518050842518996" lon="0.22766374517761012"><ele>330.20000000000005</ele><time>2026-05-04T12:30:36.001Z</time></trkpt><trkpt lat="41.51803857283516" lon="0.22779568426633748"><ele>330.6</ele><time>2026-05-04T12:30:37.001Z</time></trkpt><trkpt lat="41.518029079439444" lon="0.22792661219438642"><ele>331.0</ele><time>2026-05-04T12:30:38.001Z</time></trkpt><trkpt lat="41.518018676720494" lon="0.2280612270943401"><ele>331.6</ele><time>2026-05-04T12:30:39.001Z</time></trkpt><trkpt lat="41.51800802041753" lon="0.22819273611386737"><ele>332.20000000000005</ele><time>2026-05-04T12:30:40.001Z</time></trkpt><trkpt lat="41.51799536785347" lon="0.22832461592091133"><ele>332.79999999999995</ele><time>2026-05-04T12:30:41.001Z</time></trkpt><trkpt lat="41.51798367073557" lon="0.22845668956045534"><ele>333.4</ele><time>2026-05-04T12:30:42.001Z</time></trkpt><trkpt lat="41.51797312918693" lon="0.22859001101766205"><ele>334.0</ele><time>2026-05-04T12:30:43.001Z</time></trkpt><trkpt lat="41.51796445183784" lon="0.22872458643074176"><ele>334.0</ele><time>2026-05-04T12:30:44.001Z</time></trkpt><trkpt lat="41.51795213176951" lon="0.2288581429246297"><ele>334.0</ele><time>2026-05-04T12:30:45.001Z</time></trkpt><trkpt lat="41.51793788060039" lon="0.22899282683657812"><ele>334.0</ele><time>2026-05-04T12:30:46.001Z</time></trkpt><trkpt lat="41.51792557935502" lon="0.22912870643556382"><ele>334.0</ele><time>2026-05-04T12:30:47.001Z</time></trkpt><trkpt lat="41.51791481309995" lon="0.22926524940693205"><ele>334.0</ele><time>2026-05-04T12:30:48.001Z</time></trkpt><trkpt lat="41.51790429022071" lon="0.22940216567159102"><ele>334.0</ele><time>2026-05-04T12:30:48.999Z</time></trkpt><trkpt lat="41.51789322711737" lon="0.22953739243117802"><ele>334.0</ele><time>2026-05-04T12:30:49.999Z</time></trkpt><trkpt lat="41.5178817686208" lon="0.22967563911827624"><ele>334.0</ele><time>2026-05-04T12:30:50.999Z</time></trkpt><trkpt lat="41.51787120146001" lon="0.22981468683494802"><ele>334.0</ele><time>2026-05-04T12:30:51.999Z</time></trkpt><trkpt lat="41.51785850721146" lon="0.22995412607105775"><ele>334.0</ele><time>2026-05-04T12:30:52.999Z</time></trkpt><trkpt lat="41.51784862599128" lon="0.23009491796829448"><ele>334.0</ele><time>2026-05-04T12:30:53.999Z</time></trkpt><trkpt lat="41.51783914068444" lon="0.23023599138228143"><ele>334.0</ele><time>2026-05-04T12:30:55Z</time></trkpt><trkpt lat="41.517826442059814" lon="0.23037623105243626"><ele>334.0</ele><time>2026-05-04T12:30:56Z</time></trkpt><trkpt lat="41.517814065048256" lon="0.23051661710333407"><ele>334.0</ele><time>2026-05-04T12:30:57Z</time></trkpt><trkpt lat="41.517802040662474" lon="0.23065624191257106"><ele>334.0</ele><time>2026-05-04T12:30:58Z</time></trkpt><trkpt lat="41.5177909797025" lon="0.23079476519063064"><ele>334.0</ele><time>2026-05-04T12:30:59Z</time></trkpt><trkpt lat="41.517779854697416" lon="0.23093170456511444"><ele>334.0</ele><time>2026-05-04T12:31:00Z</time></trkpt><trkpt lat="41.51776845939034" lon="0.23106906016740145"><ele>334.0</ele><time>2026-05-04T12:31:01Z</time></trkpt><trkpt lat="41.517757334662214" lon="0.23120673592014956"><ele>334.0</ele><time>2026-05-04T12:31:02Z</time></trkpt><trkpt lat="41.51774499513397" lon="0.23134064865069218"><ele>334.0</ele><time>2026-05-04T12:31:03Z</time></trkpt><trkpt lat="41.51773447186086" lon="0.23147489058095244"><ele>334.4</ele><time>2026-05-04T12:31:04Z</time></trkpt><trkpt lat="41.51772256689377" lon="0.23160936308867028"><ele>334.79999999999995</ele><time>2026-05-04T12:31:05Z</time></trkpt><trkpt lat="41.51771339632253" lon="0.23174753224839262"><ele>335.20000000000005</ele><time>2026-05-04T12:31:06Z</time></trkpt><trkpt lat="41.51770139525156" lon="0.2318822152771838"><ele>335.6</ele><time>2026-05-04T12:31:07Z</time></trkpt><trkpt lat="41.51769119477531" lon="0.2320176214687873"><ele>336.0</ele><time>2026-05-04T12:31:08Z</time></trkpt><trkpt lat="41.51768064018789" lon="0.23215362282042384"><ele>336.0</ele><time>2026-05-04T12:31:09Z</time></trkpt><trkpt lat="41.51766990907156" lon="0.23228855459003353"><ele>336.0</ele><time>2026-05-04T12:31:10Z</time></trkpt><trkpt lat="41.517658236193036" lon="0.23242277960503854"><ele>336.0</ele><time>2026-05-04T12:31:11Z</time></trkpt><trkpt lat="41.51764641746557" lon="0.23255933399638098"><ele>336.0</ele><time>2026-05-04T12:31:12Z</time></trkpt><trkpt lat="41.51763541450194" lon="0.23269386770778477"><ele>336.0</ele><time>2026-05-04T12:31:13Z</time></trkpt><trkpt lat="41.51762272008768" lon="0.23282823018439544"><ele>336.4</ele><time>2026-05-04T12:31:14Z</time></trkpt><trkpt lat="41.51761058791803" lon="0.2329612353313119"><ele>336.8</ele><time>2026-05-04T12:31:15Z</time></trkpt><trkpt lat="41.51759746166719" lon="0.2330954843730446"><ele>337.2</ele><time>2026-05-04T12:31:16Z</time></trkpt><trkpt lat="41.5175873825859" lon="0.23322791255506758"><ele>337.59999999999997</ele><time>2026-05-04T12:31:17Z</time></trkpt><trkpt lat="41.51757823445915" lon="0.23335823479476658"><ele>338.0</ele><time>2026-05-04T12:31:18Z</time></trkpt><trkpt lat="41.51756581967372" lon="0.2334923145724832"><ele>338.4</ele><time>2026-05-04T12:31:19Z</time></trkpt><trkpt lat="41.517556182886274" lon="0.23362686647939643"><ele>338.79999999999995</ele><time>2026-05-04T12:31:20Z</time></trkpt><trkpt lat="41.517546860686245" lon="0.23375911932320106"><ele>339.2</ele><time>2026-05-04T12:31:21Z</time></trkpt><trkpt lat="41.51753747999648" lon="0.23389186537451434"><ele>339.6</ele><time>2026-05-04T12:31:22Z</time></trkpt><trkpt lat="41.51752592978494" lon="0.23402609680077674"><ele>340.0</ele><time>2026-05-04T12:31:23Z</time></trkpt><trkpt lat="41.51751478960215" lon="0.23416030479374478"><ele>340.0</ele><time>2026-05-04T12:31:24Z</time></trkpt><trkpt lat="41.51750155659807" lon="0.23429609948605584"><ele>340.0</ele><time>2026-05-04T12:31:25Z</time></trkpt><trkpt lat="41.51749088155552" lon="0.23443307423379608"><ele>340.0</ele><time>2026-05-04T12:31:26Z</time></trkpt><trkpt lat="41.517480470113135" lon="0.23456779941161776"><ele>340.0</ele><time>2026-05-04T12:31:27Z</time></trkpt><trkpt lat="41.51747072997109" lon="0.2347034965871707"><ele>340.0</ele><time>2026-05-04T12:31:28Z</time></trkpt><trkpt lat="41.517460533003515" lon="0.2348393764897075"><ele>340.2</ele><time>2026-05-04T12:31:29Z</time></trkpt><trkpt lat="41.517446495438094" lon="0.23497496059635717"><ele>340.4</ele><time>2026-05-04T12:31:30Z</time></trkpt><trkpt lat="41.51743225362272" lon="0.23511129797675423"><ele>340.6</ele><time>2026-05-04T12:31:31Z</time></trkpt><trkpt lat="41.517419140916" lon="0.23525036438309382"><ele>340.8</ele><time>2026-05-04T12:31:32Z</time></trkpt><trkpt lat="41.51740774375034" lon="0.2353892237357787"><ele>341.0</ele><time>2026-05-04T12:31:33Z</time></trkpt><trkpt lat="41.51739694019341" lon="0.23552384508864188"><ele>341.4</ele><time>2026-05-04T12:31:34Z</time></trkpt><trkpt lat="41.517384372137776" lon="0.23565845832779064"><ele>341.8</ele><time>2026-05-04T12:31:35Z</time></trkpt><trkpt lat="41.51737314856085" lon="0.2357960715639397"><ele>342.2</ele><time>2026-05-04T12:31:36Z</time></trkpt><trkpt lat="41.51736278766989" lon="0.23593245188745243"><ele>342.59999999999997</ele><time>2026-05-04T12:31:37Z</time></trkpt><trkpt lat="41.517351418009945" lon="0.23607091887759915"><ele>343.0</ele><time>2026-05-04T12:31:38Z</time></trkpt><trkpt lat="41.517340215793254" lon="0.23620756653201316"><ele>343.0</ele><time>2026-05-04T12:31:39Z</time></trkpt><trkpt lat="41.517329133418656" lon="0.23634528083405953"><ele>343.0</ele><time>2026-05-04T12:31:40Z</time></trkpt><trkpt lat="41.51731716878758" lon="0.23648362278287002"><ele>343.0</ele><time>2026-05-04T12:31:41Z</time></trkpt><trkpt lat="41.51730509584062" lon="0.2366215608557365"><ele>343.0</ele><time>2026-05-04T12:31:42Z</time></trkpt><trkpt lat="41.517294430809876" lon="0.23675995810328823"><ele>343.0</ele><time>2026-05-04T12:31:43Z</time></trkpt><trkpt lat="41.51728307904573" lon="0.23689816212303172"><ele>343.0</ele><time>2026-05-04T12:31:44Z</time></trkpt><trkpt lat="41.51727059787883" lon="0.23703691052453288"><ele>343.0</ele><time>2026-05-04T12:31:45Z</time></trkpt><trkpt lat="41.51725885228831" lon="0.23717342533748412"><ele>343.0</ele><time>2026-05-04T12:31:46Z</time></trkpt><trkpt lat="41.517249659165685" lon="0.23731057999669294"><ele>343.0</ele><time>2026-05-04T12:31:47Z</time></trkpt><trkpt lat="41.51724087856409" lon="0.23744511409700278"><ele>343.0</ele><time>2026-05-04T12:31:48Z</time></trkpt><trkpt lat="41.517229352128744" lon="0.23757973134478208"><ele>343.2</ele><time>2026-05-04T12:31:49Z</time></trkpt><trkpt lat="41.517216602712544" lon="0.2377141948120327"><ele>343.4</ele><time>2026-05-04T12:31:50Z</time></trkpt><trkpt lat="41.51720414041138" lon="0.2378476678642912"><ele>343.59999999999997</ele><time>2026-05-04T12:31:51Z</time></trkpt><trkpt lat="41.51719073172923" lon="0.2379821451817266"><ele>343.79999999999995</ele><time>2026-05-04T12:31:52Z</time></trkpt><trkpt lat="41.517180134039215" lon="0.23811356403956319"><ele>344.0</ele><time>2026-05-04T12:31:53Z</time></trkpt><trkpt lat="41.51716935878825" lon="0.2382454437049115"><ele>344.4</ele><time>2026-05-04T12:31:54Z</time></trkpt><trkpt lat="41.5171593258396" lon="0.23837602654666765"><ele>344.79999999999995</ele><time>2026-05-04T12:31:55Z</time></trkpt><trkpt lat="41.51715042538724" lon="0.23850700774929998"><ele>345.20000000000005</ele><time>2026-05-04T12:31:56Z</time></trkpt><trkpt lat="41.51713903812817" lon="0.23863836473011144"><ele>345.6</ele><time>2026-05-04T12:31:57Z</time></trkpt><trkpt lat="41.5171311033687" lon="0.23876504670320722"><ele>346.0</ele><time>2026-05-04T12:31:58Z</time></trkpt><trkpt lat="41.517121012362985" lon="0.2388935628797161"><ele>346.20000000000005</ele><time>2026-05-04T12:31:59Z</time></trkpt><trkpt lat="41.51711115809087" lon="0.23902440425650337"><ele>346.40000000000003</ele><time>2026-05-04T12:32:00Z</time></trkpt><trkpt lat="41.517100850595234" lon="0.23915707243703543"><ele>346.6</ele><time>2026-05-04T12:32:01Z</time></trkpt><trkpt lat="41.517089361711186" lon="0.23928940502398724"><ele>346.8</ele><time>2026-05-04T12:32:02Z</time></trkpt><trkpt lat="41.51707697289278" lon="0.23941944184618483"><ele>347.0</ele><time>2026-05-04T12:32:03Z</time></trkpt><trkpt lat="41.51706384990047" lon="0.23955127715017546"><ele>347.0</ele><time>2026-05-04T12:32:04Z</time></trkpt><trkpt lat="41.517050641910906" lon="0.23968384565763656"><ele>347.0</ele><time>2026-05-04T12:32:05Z</time></trkpt><trkpt lat="41.51703697363031" lon="0.23981749018610868"><ele>347.0</ele><time>2026-05-04T12:32:06Z</time></trkpt><trkpt lat="41.517028532240246" lon="0.23994824935226639"><ele>347.0</ele><time>2026-05-04T12:32:07.001Z</time></trkpt><trkpt lat="41.51701956524454" lon="0.2400805757727483"><ele>347.0</ele><time>2026-05-04T12:32:08.001Z</time></trkpt><trkpt lat="41.51700973740275" lon="0.24021639537729522"><ele>347.0</ele><time>2026-05-04T12:32:09.001Z</time></trkpt><trkpt lat="41.51699673165482" lon="0.2403506915101248"><ele>347.0</ele><time>2026-05-04T12:32:10.001Z</time></trkpt><trkpt lat="41.51698309095528" lon="0.24048236413143567"><ele>347.0</ele><time>2026-05-04T12:32:11.001Z</time></trkpt><trkpt lat="41.51697369428936" lon="0.2406129989524716"><ele>347.0</ele><time>2026-05-04T12:32:12.001Z</time></trkpt><trkpt lat="41.516959573226785" lon="0.24074737356488604"><ele>347.0</ele><time>2026-05-04T12:32:13.001Z</time></trkpt><trkpt lat="41.51694856690564" lon="0.2408821026690762"><ele>347.20000000000005</ele><time>2026-05-04T12:32:14.001Z</time></trkpt><trkpt lat="41.51693800238856" lon="0.24101426420915253"><ele>347.4</ele><time>2026-05-04T12:32:15.001Z</time></trkpt><trkpt lat="41.51692724825691" lon="0.24114774506424566"><ele>347.6</ele><time>2026-05-04T12:32:16.001Z</time></trkpt><trkpt lat="41.51691739748878" lon="0.24128176457024023"><ele>347.79999999999995</ele><time>2026-05-04T12:32:17.001Z</time></trkpt><trkpt lat="41.516907959813224" lon="0.24141518850864815"><ele>348.0</ele><time>2026-05-04T12:32:18.001Z</time></trkpt><trkpt lat="41.51689567145511" lon="0.24154932175316748"><ele>348.4</ele><time>2026-05-04T12:32:19.001Z</time></trkpt><trkpt lat="41.51688390096912" lon="0.24168432552305197"><ele>348.79999999999995</ele><time>2026-05-04T12:32:20.001Z</time></trkpt><trkpt lat="41.51687275950655" lon="0.2418187358156692"><ele>349.2</ele><time>2026-05-04T12:32:21.001Z</time></trkpt><trkpt lat="41.51686415055386" lon="0.24195583555367045"><ele>349.6</ele><time>2026-05-04T12:32:22.001Z</time></trkpt><trkpt lat="41.516855101292144" lon="0.2420906974614004"><ele>350.0</ele><time>2026-05-04T12:32:23.001Z</time></trkpt><trkpt lat="41.516843703125566" lon="0.24222737388922952"><ele>350.2</ele><time>2026-05-04T12:32:24.001Z</time></trkpt><trkpt lat="41.51683275677351" lon="0.2423628191047995"><ele>350.4</ele><time>2026-05-04T12:32:25.001Z</time></trkpt><trkpt lat="41.51682245917558" lon="0.24249956439727416"><ele>350.6</ele><time>2026-05-04T12:32:26.001Z</time></trkpt><trkpt lat="41.5168111570129" lon="0.24263831375344164"><ele>350.8</ele><time>2026-05-04T12:32:27.001Z</time></trkpt><trkpt lat="41.51679982645581" lon="0.24277776467910794"><ele>351.0</ele><time>2026-05-04T12:32:28.001Z</time></trkpt><trkpt lat="41.516788526640035" lon="0.24291564558484152"><ele>351.0</ele><time>2026-05-04T12:32:29.001Z</time></trkpt><trkpt lat="41.51677658185307" lon="0.24305220371387304"><ele>351.0</ele><time>2026-05-04T12:32:30.001Z</time></trkpt><trkpt lat="41.516768022029765" lon="0.2431911381258121"><ele>351.0</ele><time>2026-05-04T12:32:31.001Z</time></trkpt><trkpt lat="41.516757907974984" lon="0.24332860054286745"><ele>351.0</ele><time>2026-05-04T12:32:32.001Z</time></trkpt><trkpt lat="41.51674590947768" lon="0.24346450486082208"><ele>351.0</ele><time>2026-05-04T12:32:33.001Z</time></trkpt><trkpt lat="41.516734700581296" lon="0.24360218424606364"><ele>351.20000000000005</ele><time>2026-05-04T12:32:34.001Z</time></trkpt><trkpt lat="41.516722937398335" lon="0.2437431210675117"><ele>351.40000000000003</ele><time>2026-05-04T12:32:35.001Z</time></trkpt><trkpt lat="41.51670947207127" lon="0.24387848691086333"><ele>351.6</ele><time>2026-05-04T12:32:36.001Z</time></trkpt><trkpt lat="41.51669883303781" lon="0.24402012474884616"><ele>351.8</ele><time>2026-05-04T12:32:37.001Z</time></trkpt><trkpt lat="41.51668858031304" lon="0.24415859733825718"><ele>352.0</ele><time>2026-05-04T12:32:38.001Z</time></trkpt><trkpt lat="41.516677223829355" lon="0.244299083346253"><ele>352.0</ele><time>2026-05-04T12:32:39.001Z</time></trkpt><trkpt lat="41.516665352494975" lon="0.24443601488441644"><ele>352.0</ele><time>2026-05-04T12:32:40.001Z</time></trkpt><trkpt lat="41.51665538010711" lon="0.24457383384228557"><ele>352.0</ele><time>2026-05-04T12:32:41.001Z</time></trkpt><trkpt lat="41.51664512696374" lon="0.24471141843658875"><ele>352.0</ele><time>2026-05-04T12:32:42.001Z</time></trkpt><trkpt lat="41.51663418396386" lon="0.24484936083736247"><ele>352.0</ele><time>2026-05-04T12:32:43.001Z</time></trkpt><trkpt lat="41.51662066917875" lon="0.24498913208011014"><ele>352.20000000000005</ele><time>2026-05-04T12:32:44.001Z</time></trkpt><trkpt lat="41.51661104087368" lon="0.24512808920023557"><ele>352.4</ele><time>2026-05-04T12:32:45.001Z</time></trkpt><trkpt lat="41.516600770464265" lon="0.24527287991154678"><ele>352.6</ele><time>2026-05-04T12:32:46.001Z</time></trkpt><trkpt lat="41.516587366997314" lon="0.24541445397545397"><ele>352.79999999999995</ele><time>2026-05-04T12:32:47.001Z</time></trkpt><trkpt lat="41.51657737701721" lon="0.2455533443014829"><ele>353.0</ele><time>2026-05-04T12:32:48.001Z</time></trkpt><trkpt lat="41.51656673729977" lon="0.2456928201368628"><ele>353.2</ele><time>2026-05-04T12:32:49.001Z</time></trkpt><trkpt lat="41.51655716548609" lon="0.24583132234807314"><ele>353.4</ele><time>2026-05-04T12:32:50.001Z</time></trkpt><trkpt lat="41.51654477025944" lon="0.2459720388840292"><ele>353.59999999999997</ele><time>2026-05-04T12:32:51.001Z</time></trkpt><trkpt lat="41.51653359319319" lon="0.24611108583132052"><ele>353.79999999999995</ele><time>2026-05-04T12:32:52.001Z</time></trkpt><trkpt lat="41.51652110148927" lon="0.24625045244374597"><ele>354.0</ele><time>2026-05-04T12:32:53.001Z</time></trkpt><trkpt lat="41.51650630835366" lon="0.2463901898770328"><ele>354.0</ele><time>2026-05-04T12:32:54.001Z</time></trkpt><trkpt lat="41.51649391433748" lon="0.24652892865506612"><ele>354.0</ele><time>2026-05-04T12:32:55Z</time></trkpt><trkpt lat="41.51648436154169" lon="0.24667038092307503"><ele>354.0</ele><time>2026-05-04T12:32:56Z</time></trkpt><trkpt lat="41.51647245186555" lon="0.24681094966309117"><ele>354.0</ele><time>2026-05-04T12:32:57Z</time></trkpt><trkpt lat="41.5164600678136" lon="0.24694869171456105"><ele>354.0</ele><time>2026-05-04T12:32:58Z</time></trkpt><trkpt lat="41.516447536284325" lon="0.24708681813663871"><ele>354.0</ele><time>2026-05-04T12:32:59Z</time></trkpt><trkpt lat="41.51643657727568" lon="0.24722695268858916"><ele>354.0</ele><time>2026-05-04T12:33:00Z</time></trkpt><trkpt lat="41.51642562342605" lon="0.24736365162008575"><ele>354.0</ele><time>2026-05-04T12:33:01Z</time></trkpt><trkpt lat="41.51641439838533" lon="0.2475008341938796"><ele>354.0</ele><time>2026-05-04T12:33:02Z</time></trkpt><trkpt lat="41.516404556244524" lon="0.247635631879529"><ele>354.0</ele><time>2026-05-04T12:33:03Z</time></trkpt><trkpt lat="41.516393532561075" lon="0.2477702868171683"><ele>354.0</ele><time>2026-05-04T12:33:04Z</time></trkpt><trkpt lat="41.5163808524678" lon="0.2479059896585008"><ele>354.0</ele><time>2026-05-04T12:33:05Z</time></trkpt><trkpt lat="41.51636897354914" lon="0.248040537486943"><ele>354.0</ele><time>2026-05-04T12:33:06Z</time></trkpt><trkpt lat="41.5163591636664" lon="0.24817720497267962"><ele>354.0</ele><time>2026-05-04T12:33:07Z</time></trkpt><trkpt lat="41.51634968211735" lon="0.24831168528324357"><ele>354.0</ele><time>2026-05-04T12:33:08Z</time></trkpt><trkpt lat="41.516338713757584" lon="0.24844586828489387"><ele>354.4</ele><time>2026-05-04T12:33:09Z</time></trkpt><trkpt lat="41.516328854158154" lon="0.24857919328677153"><ele>354.79999999999995</ele><time>2026-05-04T12:33:10Z</time></trkpt><trkpt lat="41.51631730596645" lon="0.24871282264178912"><ele>355.20000000000005</ele><time>2026-05-04T12:33:11Z</time></trkpt><trkpt lat="41.51630619371424" lon="0.2488470952617294"><ele>355.6</ele><time>2026-05-04T12:33:12Z</time></trkpt><trkpt lat="41.51629514359455" lon="0.24898261733016708"><ele>356.0</ele><time>2026-05-04T12:33:13Z</time></trkpt><trkpt lat="41.51628406691113" lon="0.2491177701548674"><ele>356.20000000000005</ele><time>2026-05-04T12:33:14Z</time></trkpt><trkpt lat="41.51627296078409" lon="0.2492525592630783"><ele>356.40000000000003</ele><time>2026-05-04T12:33:15Z</time></trkpt><trkpt lat="41.51626122637607" lon="0.2493875903754933"><ele>356.6</ele><time>2026-05-04T12:33:16Z</time></trkpt><trkpt lat="41.51624937091747" lon="0.2495232880559318"><ele>356.8</ele><time>2026-05-04T12:33:17Z</time></trkpt><trkpt lat="41.51623877450063" lon="0.24965906440705798"><ele>357.0</ele><time>2026-05-04T12:33:18Z</time></trkpt><trkpt lat="41.51622788049844" lon="0.24979668095446447"><ele>357.20000000000005</ele><time>2026-05-04T12:33:19Z</time></trkpt><trkpt lat="41.51621511147035" lon="0.24993367184323526"><ele>357.4</ele><time>2026-05-04T12:33:20Z</time></trkpt><trkpt lat="41.51620239290611" lon="0.250071765403993"><ele>357.6</ele><time>2026-05-04T12:33:21Z</time></trkpt><trkpt lat="41.516191199492766" lon="0.2502112347240391"><ele>357.79999999999995</ele><time>2026-05-04T12:33:22Z</time></trkpt><trkpt lat="41.516180237171206" lon="0.2503514799462699"><ele>358.0</ele><time>2026-05-04T12:33:23Z</time></trkpt><trkpt lat="41.51616847634333" lon="0.2504894776966033"><ele>358.2</ele><time>2026-05-04T12:33:24Z</time></trkpt><trkpt lat="41.51615751342107" lon="0.2506271541355965"><ele>358.4</ele><time>2026-05-04T12:33:25Z</time></trkpt><trkpt lat="41.516147749486144" lon="0.25076625280003345"><ele>358.59999999999997</ele><time>2026-05-04T12:33:26Z</time></trkpt><trkpt lat="41.5161367373677" lon="0.25090560330294664"><ele>358.79999999999995</ele><time>2026-05-04T12:33:27Z</time></trkpt><trkpt lat="41.51612515441062" lon="0.2510431530773067"><ele>359.0</ele><time>2026-05-04T12:33:28Z</time></trkpt><trkpt lat="41.51611369973454" lon="0.25118256844580056"><ele>359.0</ele><time>2026-05-04T12:33:29Z</time></trkpt><trkpt lat="41.51610055255629" lon="0.25132233181648295"><ele>359.0</ele><time>2026-05-04T12:33:30Z</time></trkpt><trkpt lat="41.51608908151431" lon="0.25146201579818706"><ele>359.0</ele><time>2026-05-04T12:33:31Z</time></trkpt><trkpt lat="41.516077512667216" lon="0.25160249464817125"><ele>359.0</ele><time>2026-05-04T12:33:32Z</time></trkpt><trkpt lat="41.51606597282914" lon="0.2517433989293377"><ele>359.0</ele><time>2026-05-04T12:33:33Z</time></trkpt><trkpt lat="41.516054142640115" lon="0.2518823998295343"><ele>359.0</ele><time>2026-05-04T12:33:34Z</time></trkpt><trkpt lat="41.516041358210174" lon="0.25202148455416973"><ele>359.0</ele><time>2026-05-04T12:33:35Z</time></trkpt><trkpt lat="41.51603017153056" lon="0.25215989735857036"><ele>359.0</ele><time>2026-05-04T12:33:36Z</time></trkpt><trkpt lat="41.516018208192044" lon="0.2522992276737036"><ele>359.0</ele><time>2026-05-04T12:33:37Z</time></trkpt><trkpt lat="41.516004838650886" lon="0.25244276961735207"><ele>359.0</ele><time>2026-05-04T12:33:38Z</time></trkpt><trkpt lat="41.51599150184148" lon="0.25258290084329404"><ele>359.2</ele><time>2026-05-04T12:33:39Z</time></trkpt><trkpt lat="41.51597719620971" lon="0.25272305206284496"><ele>359.4</ele><time>2026-05-04T12:33:40Z</time></trkpt><trkpt lat="41.51596343651545" lon="0.2528656686317142"><ele>359.6</ele><time>2026-05-04T12:33:41Z</time></trkpt><trkpt lat="41.51595040719796" lon="0.2530059814252181"><ele>359.8</ele><time>2026-05-04T12:33:42Z</time></trkpt><trkpt lat="41.5159381184981" lon="0.2531471895960758"><ele>360.0</ele><time>2026-05-04T12:33:43Z</time></trkpt><trkpt lat="41.51592513782108" lon="0.2532859110011756"><ele>360.2</ele><time>2026-05-04T12:33:44Z</time></trkpt><trkpt lat="41.51591144546656" lon="0.253425450968622"><ele>360.4</ele><time>2026-05-04T12:33:45Z</time></trkpt><trkpt lat="41.515897911503274" lon="0.25356444177224735"><ele>360.6</ele><time>2026-05-04T12:33:46Z</time></trkpt><trkpt lat="41.51588616619909" lon="0.25370601042641466"><ele>360.8</ele><time>2026-05-04T12:33:47Z</time></trkpt><trkpt lat="41.51587312786699" lon="0.25384623921491817"><ele>361.0</ele><time>2026-05-04T12:33:48Z</time></trkpt><trkpt lat="41.51585838432945" lon="0.2539852514413655"><ele>361.0</ele><time>2026-05-04T12:33:49Z</time></trkpt><trkpt lat="41.51584255548005" lon="0.2541258057662387"><ele>361.0</ele><time>2026-05-04T12:33:50Z</time></trkpt><trkpt lat="41.51582637799714" lon="0.2542661140225966"><ele>361.0</ele><time>2026-05-04T12:33:51Z</time></trkpt><trkpt lat="41.515811509892366" lon="0.2544095262556641"><ele>361.0</ele><time>2026-05-04T12:33:52Z</time></trkpt><trkpt lat="41.515796361418644" lon="0.2545508041467348"><ele>361.0</ele><time>2026-05-04T12:33:53Z</time></trkpt><trkpt lat="41.51578075890749" lon="0.25469498190602496"><ele>361.0</ele><time>2026-05-04T12:33:54Z</time></trkpt><trkpt lat="41.51576627080758" lon="0.25483724867263163"><ele>361.0</ele><time>2026-05-04T12:33:55Z</time></trkpt><trkpt lat="41.51575300911882" lon="0.2549780844238129"><ele>361.0</ele><time>2026-05-04T12:33:56Z</time></trkpt><trkpt lat="41.51573956312451" lon="0.2551200919372076"><ele>361.0</ele><time>2026-05-04T12:33:57Z</time></trkpt><trkpt lat="41.515725505995064" lon="0.25526175411055774"><ele>361.0</ele><time>2026-05-04T12:33:58Z</time></trkpt><trkpt lat="41.51571177976763" lon="0.25540510089650514"><ele>361.0</ele><time>2026-05-04T12:33:59Z</time></trkpt><trkpt lat="41.51569723058218" lon="0.25554621388980425"><ele>361.0</ele><time>2026-05-04T12:34:00Z</time></trkpt><trkpt lat="41.515682132611474" lon="0.25568679713626996"><ele>361.0</ele><time>2026-05-04T12:34:01Z</time></trkpt><trkpt lat="41.51566599203451" lon="0.2558290914307257"><ele>361.0</ele><time>2026-05-04T12:34:02Z</time></trkpt><trkpt lat="41.51565026822003" lon="0.25596981697913457"><ele>361.0</ele><time>2026-05-04T12:34:03Z</time></trkpt><trkpt lat="41.51563524445475" lon="0.25611302186280993"><ele>361.20000000000005</ele><time>2026-05-04T12:34:04.001Z</time></trkpt><trkpt lat="41.515620139033146" lon="0.25625239431511"><ele>361.40000000000003</ele><time>2026-05-04T12:34:05.001Z</time></trkpt><trkpt lat="41.51560930577617" lon="0.2563910130967545"><ele>361.6</ele><time>2026-05-04T12:34:06.001Z</time></trkpt><trkpt lat="41.51559861941935" lon="0.2565303514944764"><ele>361.8</ele><time>2026-05-04T12:34:07.001Z</time></trkpt><trkpt lat="41.51558500782828" lon="0.2566681642915569"><ele>362.0</ele><time>2026-05-04T12:34:08.001Z</time></trkpt><trkpt lat="41.515567738931146" lon="0.25680751512079253"><ele>362.20000000000005</ele><time>2026-05-04T12:34:09.001Z</time></trkpt><trkpt lat="41.515552485808826" lon="0.25694614110524433"><ele>362.4</ele><time>2026-05-04T12:34:10.001Z</time></trkpt><trkpt lat="41.51553818960512" lon="0.2570851573654037"><ele>362.6</ele><time>2026-05-04T12:34:11.001Z</time></trkpt><trkpt lat="41.515523876520014" lon="0.25722333260178964"><ele>362.79999999999995</ele><time>2026-05-04T12:34:12.001Z</time></trkpt><trkpt lat="41.515511468437104" lon="0.25736206749324"><ele>363.0</ele><time>2026-05-04T12:34:13.001Z</time></trkpt><trkpt lat="41.515497917366424" lon="0.25749957709275767"><ele>363.0</ele><time>2026-05-04T12:34:14.001Z</time></trkpt><trkpt lat="41.515482916899586" lon="0.25763938746636805"><ele>363.0</ele><time>2026-05-04T12:34:15.001Z</time></trkpt><trkpt lat="41.51546904292052" lon="0.25777807881915626"><ele>363.0</ele><time>2026-05-04T12:34:16.001Z</time></trkpt><trkpt lat="41.51545451633629" lon="0.2579178562224427"><ele>363.0</ele><time>2026-05-04T12:34:17.001Z</time></trkpt><trkpt lat="41.51544082745452" lon="0.2580581616164588"><ele>363.0</ele><time>2026-05-04T12:34:18.001Z</time></trkpt><trkpt lat="41.51542554524209" lon="0.25819547165241913"><ele>363.2</ele><time>2026-05-04T12:34:19.001Z</time></trkpt><trkpt lat="41.515411821273744" lon="0.258332121580398"><ele>363.4</ele><time>2026-05-04T12:34:20.001Z</time></trkpt><trkpt lat="41.515398267714616" lon="0.2584696434342723"><ele>363.59999999999997</ele><time>2026-05-04T12:34:21.001Z</time></trkpt><trkpt lat="41.515384562076015" lon="0.25860668571471457"><ele>363.79999999999995</ele><time>2026-05-04T12:34:22.001Z</time></trkpt><trkpt lat="41.51536900334426" lon="0.25874685213663023"><ele>364.0</ele><time>2026-05-04T12:34:23.001Z</time></trkpt><trkpt lat="41.51535591188753" lon="0.2588853930207003"><ele>364.0</ele><time>2026-05-04T12:34:24.001Z</time></trkpt><trkpt lat="41.51534117048925" lon="0.25902431858038033"><ele>364.0</ele><time>2026-05-04T12:34:25.001Z</time></trkpt><trkpt lat="41.515326238628745" lon="0.2591631081899475"><ele>364.0</ele><time>2026-05-04T12:34:26.001Z</time></trkpt><trkpt lat="41.515310531527454" lon="0.25930144919033954"><ele>364.0</ele><time>2026-05-04T12:34:27.001Z</time></trkpt><trkpt lat="41.51529788054482" lon="0.259440746417109"><ele>364.0</ele><time>2026-05-04T12:34:28.001Z</time></trkpt><trkpt lat="41.515283385245226" lon="0.2595820180653037"><ele>364.0</ele><time>2026-05-04T12:34:29.001Z</time></trkpt><trkpt lat="41.51526842689158" lon="0.259721170901403"><ele>364.0</ele><time>2026-05-04T12:34:30.001Z</time></trkpt><trkpt lat="41.515255070988495" lon="0.2598622363403059"><ele>364.0</ele><time>2026-05-04T12:34:31.001Z</time></trkpt><trkpt lat="41.51524154216551" lon="0.2600019166542882"><ele>364.0</ele><time>2026-05-04T12:34:32.001Z</time></trkpt><trkpt lat="41.51522582428261" lon="0.2601420560411329"><ele>364.0</ele><time>2026-05-04T12:34:33.001Z</time></trkpt><trkpt lat="41.51521065605813" lon="0.260282777881623"><ele>364.0</ele><time>2026-05-04T12:34:34.001Z</time></trkpt><trkpt lat="41.5151958537295" lon="0.26042081126627603"><ele>364.0</ele><time>2026-05-04T12:34:35.001Z</time></trkpt><trkpt lat="41.51518055045277" lon="0.26055752759941503"><ele>364.0</ele><time>2026-05-04T12:34:36.001Z</time></trkpt><trkpt lat="41.51516555383967" lon="0.2606952600082548"><ele>364.0</ele><time>2026-05-04T12:34:37.001Z</time></trkpt><trkpt lat="41.51515188674256" lon="0.26083299049037567"><ele>364.0</ele><time>2026-05-04T12:34:38.001Z</time></trkpt><trkpt lat="41.51513943810171" lon="0.2609706727808929"><ele>364.4</ele><time>2026-05-04T12:34:39.001Z</time></trkpt><trkpt lat="41.515124993050534" lon="0.26110737887292546"><ele>364.79999999999995</ele><time>2026-05-04T12:34:40.001Z</time></trkpt><trkpt lat="41.515111392749965" lon="0.2612457779120917"><ele>365.20000000000005</ele><time>2026-05-04T12:34:41.001Z</time></trkpt><trkpt lat="41.51509773528076" lon="0.26138221769514364"><ele>365.6</ele><time>2026-05-04T12:34:42.001Z</time></trkpt><trkpt lat="41.515081560684436" lon="0.26152078214129587"><ele>366.0</ele><time>2026-05-04T12:34:43.001Z</time></trkpt><trkpt lat="41.515066363190726" lon="0.2616619259129182"><ele>366.0</ele><time>2026-05-04T12:34:44.001Z</time></trkpt><trkpt lat="41.51505059914949" lon="0.2618040784959253"><ele>366.0</ele><time>2026-05-04T12:34:45.001Z</time></trkpt><trkpt lat="41.515036791050264" lon="0.2619439713996803"><ele>366.0</ele><time>2026-05-04T12:34:46.001Z</time></trkpt><trkpt lat="41.51502064981803" lon="0.2620844913942149"><ele>366.0</ele><time>2026-05-04T12:34:47.001Z</time></trkpt><trkpt lat="41.51500584848895" lon="0.26222514294407623"><ele>366.0</ele><time>2026-05-04T12:34:48.001Z</time></trkpt><trkpt lat="41.51498934533176" lon="0.26236805367542804"><ele>366.20000000000005</ele><time>2026-05-04T12:34:49.001Z</time></trkpt><trkpt lat="41.514975079517384" lon="0.2625060860829329"><ele>366.40000000000003</ele><time>2026-05-04T12:34:50.001Z</time></trkpt><trkpt lat="41.51496068117469" lon="0.26264608690474944"><ele>366.6</ele><time>2026-05-04T12:34:51.001Z</time></trkpt><trkpt lat="41.51494900726637" lon="0.2627859037238009"><ele>366.8</ele><time>2026-05-04T12:34:52.001Z</time></trkpt><trkpt lat="41.51493702052025" lon="0.26292567416420304"><ele>367.0</ele><time>2026-05-04T12:34:53.001Z</time></trkpt><trkpt lat="41.51492279520611" lon="0.26306729854827055"><ele>367.20000000000005</ele><time>2026-05-04T12:34:54.001Z</time></trkpt><trkpt lat="41.51490900805194" lon="0.26321113990721845"><ele>367.4</ele><time>2026-05-04T12:34:55.001Z</time></trkpt><trkpt lat="41.51489445818383" lon="0.26335191127580915"><ele>367.6</ele><time>2026-05-04T12:34:56.001Z</time></trkpt><trkpt lat="41.51487877759864" lon="0.26349355667243096"><ele>367.79999999999995</ele><time>2026-05-04T12:34:57.001Z</time></trkpt><trkpt lat="41.51486522829304" lon="0.26363360349817966"><ele>368.0</ele><time>2026-05-04T12:34:58.001Z</time></trkpt><trkpt lat="41.51485215636132" lon="0.26377258998059405"><ele>368.0</ele><time>2026-05-04T12:34:59.001Z</time></trkpt><trkpt lat="41.51483739518814" lon="0.26391407107474935"><ele>368.0</ele><time>2026-05-04T12:35:00.001Z</time></trkpt><trkpt lat="41.514822116833486" lon="0.26405470169196216"><ele>368.0</ele><time>2026-05-04T12:35:01Z</time></trkpt><trkpt lat="41.51480793342253" lon="0.26419240832178736"><ele>368.0</ele><time>2026-05-04T12:35:02Z</time></trkpt><trkpt lat="41.51479360956663" lon="0.2643307073859467"><ele>368.0</ele><time>2026-05-04T12:35:03Z</time></trkpt><trkpt lat="41.51477938202371" lon="0.2644696903015758"><ele>368.2</ele><time>2026-05-04T12:35:04Z</time></trkpt><trkpt lat="41.51476504748595" lon="0.2646098337601399"><ele>368.4</ele><time>2026-05-04T12:35:05Z</time></trkpt><trkpt lat="41.51475205797642" lon="0.264749833015764"><ele>368.59999999999997</ele><time>2026-05-04T12:35:06Z</time></trkpt><trkpt lat="41.514738036141836" lon="0.26489099482031725"><ele>368.79999999999995</ele><time>2026-05-04T12:35:07Z</time></trkpt><trkpt lat="41.51472343985057" lon="0.26503193026072774"><ele>369.0</ele><time>2026-05-04T12:35:08Z</time></trkpt><trkpt lat="41.51470949535922" lon="0.2651726525463706"><ele>369.2</ele><time>2026-05-04T12:35:09Z</time></trkpt><trkpt lat="41.51469430605812" lon="0.26531556281819363"><ele>369.4</ele><time>2026-05-04T12:35:10Z</time></trkpt><trkpt lat="41.51467906966183" lon="0.26545792255425393"><ele>369.6</ele><time>2026-05-04T12:35:11Z</time></trkpt><trkpt lat="41.514664192859286" lon="0.2656001975585542"><ele>369.8</ele><time>2026-05-04T12:35:12Z</time></trkpt><trkpt lat="41.514648027505615" lon="0.26574295829518385"><ele>370.0</ele><time>2026-05-04T12:35:13Z</time></trkpt><trkpt lat="41.514633214465384" lon="0.26588822876204105"><ele>370.2</ele><time>2026-05-04T12:35:14Z</time></trkpt><trkpt lat="41.51461692885421" lon="0.26602892914077575"><ele>370.4</ele><time>2026-05-04T12:35:15Z</time></trkpt><trkpt lat="41.514601692489414" lon="0.26617181194180217"><ele>370.6</ele><time>2026-05-04T12:35:16Z</time></trkpt><trkpt lat="41.51458759315416" lon="0.2663121831327321"><ele>370.8</ele><time>2026-05-04T12:35:17Z</time></trkpt><trkpt lat="41.51457471133301" lon="0.26645213424307873"><ele>371.0</ele><time>2026-05-04T12:35:18Z</time></trkpt><trkpt lat="41.51456148884273" lon="0.2665910172180934"><ele>371.0</ele><time>2026-05-04T12:35:19Z</time></trkpt><trkpt lat="41.51454907152413" lon="0.2667284620103869"><ele>371.0</ele><time>2026-05-04T12:35:20Z</time></trkpt><trkpt lat="41.51453458280335" lon="0.26686666574563295"><ele>371.0</ele><time>2026-05-04T12:35:21Z</time></trkpt><trkpt lat="41.514520524573484" lon="0.26700482039355566"><ele>371.0</ele><time>2026-05-04T12:35:22Z</time></trkpt><trkpt lat="41.51450443979222" lon="0.2671445967334488"><ele>371.0</ele><time>2026-05-04T12:35:23Z</time></trkpt><trkpt lat="41.51449023040609" lon="0.2672802857198684"><ele>371.0</ele><time>2026-05-04T12:35:24Z</time></trkpt><trkpt lat="41.51447631604356" lon="0.26741788804332267"><ele>371.0</ele><time>2026-05-04T12:35:25Z</time></trkpt><trkpt lat="41.51446168613843" lon="0.2675560822978664"><ele>371.0</ele><time>2026-05-04T12:35:26Z</time></trkpt><trkpt lat="41.514448474241384" lon="0.2676937809213114"><ele>371.0</ele><time>2026-05-04T12:35:27Z</time></trkpt><trkpt lat="41.51443411273545" lon="0.26782972743674355"><ele>371.0</ele><time>2026-05-04T12:35:28Z</time></trkpt><trkpt lat="41.51441945637101" lon="0.2679675030047613"><ele>371.0</ele><time>2026-05-04T12:35:29Z</time></trkpt><trkpt lat="41.51440528552554" lon="0.26810431290023784"><ele>371.0</ele><time>2026-05-04T12:35:30Z</time></trkpt><trkpt lat="41.51439038057191" lon="0.26823971273420283"><ele>371.0</ele><time>2026-05-04T12:35:31Z</time></trkpt><trkpt lat="41.514375739966326" lon="0.2683756999638458"><ele>371.0</ele><time>2026-05-04T12:35:32Z</time></trkpt><trkpt lat="41.514361591798654" lon="0.26851168683459775"><ele>371.0</ele><time>2026-05-04T12:35:33Z</time></trkpt><trkpt lat="41.514347457373894" lon="0.26864778862391875"><ele>371.20000000000005</ele><time>2026-05-04T12:35:34Z</time></trkpt><trkpt lat="41.51433506285586" lon="0.26878393028777675"><ele>371.40000000000003</ele><time>2026-05-04T12:35:35Z</time></trkpt><trkpt lat="41.514321710182244" lon="0.26892055436977086"><ele>371.6</ele><time>2026-05-04T12:35:36Z</time></trkpt><trkpt lat="41.51430849450491" lon="0.26905950363858544"><ele>371.8</ele><time>2026-05-04T12:35:37Z</time></trkpt><trkpt lat="41.51429601913085" lon="0.269193943619115"><ele>372.0</ele><time>2026-05-04T12:35:38Z</time></trkpt><trkpt lat="41.5142819801586" lon="0.2693310832234897"><ele>372.20000000000005</ele><time>2026-05-04T12:35:39Z</time></trkpt><trkpt lat="41.5142669170925" lon="0.26947097037393253"><ele>372.4</ele><time>2026-05-04T12:35:40Z</time></trkpt><trkpt lat="41.51425394625575" lon="0.26961231952565334"><ele>372.6</ele><time>2026-05-04T12:35:41Z</time></trkpt><trkpt lat="41.51424108911667" lon="0.26975124717606536"><ele>372.79999999999995</ele><time>2026-05-04T12:35:42Z</time></trkpt><trkpt lat="41.51422713261833" lon="0.2698917510136706"><ele>373.0</ele><time>2026-05-04T12:35:43Z</time></trkpt><trkpt lat="41.51421225856685" lon="0.2700324371174354"><ele>373.0</ele><time>2026-05-04T12:35:44Z</time></trkpt><trkpt lat="41.51419728729334" lon="0.27017380915770467"><ele>373.0</ele><time>2026-05-04T12:35:45Z</time></trkpt><trkpt lat="41.51418138419839" lon="0.27031421111450765"><ele>373.0</ele><time>2026-05-04T12:35:46Z</time></trkpt><trkpt lat="41.51416447298209" lon="0.27045682742570515"><ele>373.0</ele><time>2026-05-04T12:35:47Z</time></trkpt><trkpt lat="41.51414815280512" lon="0.2705991550423231"><ele>373.0</ele><time>2026-05-04T12:35:48Z</time></trkpt><trkpt lat="41.51413190148852" lon="0.27074067106390737"><ele>373.0</ele><time>2026-05-04T12:35:49Z</time></trkpt><trkpt lat="41.514117371311144" lon="0.2708825317921371"><ele>373.0</ele><time>2026-05-04T12:35:50Z</time></trkpt><trkpt lat="41.51409801626353" lon="0.27102141265929364"><ele>373.0</ele><time>2026-05-04T12:35:51Z</time></trkpt><trkpt lat="41.51407775953123" lon="0.2711663102471383"><ele>373.0</ele><time>2026-05-04T12:35:52Z</time></trkpt><trkpt lat="41.514064010523235" lon="0.27131099627466754"><ele>373.0</ele><time>2026-05-04T12:35:53.001Z</time></trkpt><trkpt lat="41.514048178849485" lon="0.27145220711681617"><ele>372.79999999999995</ele><time>2026-05-04T12:35:54.001Z</time></trkpt><trkpt lat="41.514034799762044" lon="0.2715963007227417"><ele>372.6</ele><time>2026-05-04T12:35:55.001Z</time></trkpt><trkpt lat="41.51401807431518" lon="0.2717417474984531"><ele>372.4</ele><time>2026-05-04T12:35:56.001Z</time></trkpt><trkpt lat="41.51399372530596" lon="0.27188931007401795"><ele>372.20000000000005</ele><time>2026-05-04T12:35:57.001Z</time></trkpt><trkpt lat="41.51397157742366" lon="0.2720364371372791"><ele>372.0</ele><time>2026-05-04T12:35:58.001Z</time></trkpt><trkpt lat="41.513969440113186" lon="0.27217202539654944"><ele>371.5</ele><time>2026-05-04T12:35:59.001Z</time></trkpt><trkpt lat="41.513937299139045" lon="0.27234538858606594"><ele>371.0</ele><time>2026-05-04T12:36:00.001Z</time></trkpt><trkpt lat="41.5139151977129" lon="0.2724953782308837"><ele>370.5</ele><time>2026-05-04T12:36:01.001Z</time></trkpt><trkpt lat="41.51389270111067" lon="0.27264860877689356"><ele>370.0</ele><time>2026-05-04T12:36:02.001Z</time></trkpt><trkpt lat="41.513865928411406" lon="0.2727979018699454"><ele>370.0</ele><time>2026-05-04T12:36:03.001Z</time></trkpt><trkpt lat="41.51384237896208" lon="0.27294741358516716"><ele>370.0</ele><time>2026-05-04T12:36:04.001Z</time></trkpt><trkpt lat="41.51381935627358" lon="0.27309793758124157"><ele>370.0</ele><time>2026-05-04T12:36:05.001Z</time></trkpt><trkpt lat="41.513788562826406" lon="0.2732445189519249"><ele>370.0</ele><time>2026-05-04T12:36:06.001Z</time></trkpt><trkpt lat="41.51375807105796" lon="0.2733950247182802"><ele>368.75</ele><time>2026-05-04T12:36:07.001Z</time></trkpt><trkpt lat="41.513725934263185" lon="0.27354099554780437"><ele>367.5</ele><time>2026-05-04T12:36:08.001Z</time></trkpt><trkpt lat="41.51369756082208" lon="0.2736885514524994"><ele>366.25</ele><time>2026-05-04T12:36:09.001Z</time></trkpt><trkpt lat="41.51366745905797" lon="0.2738319415325966"><ele>365.0</ele><time>2026-05-04T12:36:10.001Z</time></trkpt><trkpt lat="41.51363253525005" lon="0.273978455076807"><ele>362.75</ele><time>2026-05-04T12:36:11.001Z</time></trkpt><trkpt lat="41.51359852644948" lon="0.27412508861027296"><ele>360.5</ele><time>2026-05-04T12:36:12.001Z</time></trkpt><trkpt lat="41.51356026716726" lon="0.2742758639757764"><ele>358.25</ele><time>2026-05-04T12:36:13.001Z</time></trkpt><trkpt lat="41.51352235822043" lon="0.2744228163288715"><ele>356.0</ele><time>2026-05-04T12:36:14.001Z</time></trkpt><trkpt lat="41.51348435761547" lon="0.27456555065469607"><ele>356.0</ele><time>2026-05-04T12:36:15.001Z</time></trkpt><trkpt lat="41.513446939347816" lon="0.27470971127803756"><ele>356.0</ele><time>2026-05-04T12:36:16.001Z</time></trkpt><trkpt lat="41.51340586717368" lon="0.2748529169828998"><ele>356.0</ele><time>2026-05-04T12:36:17.001Z</time></trkpt><trkpt lat="41.513367979143716" lon="0.27499721292618867"><ele>356.0</ele><time>2026-05-04T12:36:18.001Z</time></trkpt><trkpt lat="41.513336784587466" lon="0.2751389272226287"><ele>354.75</ele><time>2026-05-04T12:36:19.001Z</time></trkpt><trkpt lat="41.51330224910126" lon="0.2752839796567944"><ele>353.5</ele><time>2026-05-04T12:36:20.001Z</time></trkpt><trkpt lat="41.51326901058589" lon="0.275427535906389"><ele>352.25</ele><time>2026-05-04T12:36:21.001Z</time></trkpt><trkpt lat="41.51323578295695" lon="0.27557438713552196"><ele>351.0</ele><time>2026-05-04T12:36:22.001Z</time></trkpt><trkpt lat="41.51320217173978" lon="0.2757197182055141"><ele>350.75</ele><time>2026-05-04T12:36:23.001Z</time></trkpt><trkpt lat="41.51317023555148" lon="0.27586322315926337"><ele>350.5</ele><time>2026-05-04T12:36:24.001Z</time></trkpt><trkpt lat="41.5131394372447" lon="0.27600946963240125"><ele>350.25</ele><time>2026-05-04T12:36:25.001Z</time></trkpt><trkpt lat="41.51310674245055" lon="0.276154931313533"><ele>350.0</ele><time>2026-05-04T12:36:26.001Z</time></trkpt><trkpt lat="41.51307803119397" lon="0.27630391289844924"><ele>350.5</ele><time>2026-05-04T12:36:27.001Z</time></trkpt><trkpt lat="41.513051758310816" lon="0.2764499701031858"><ele>351.0</ele><time>2026-05-04T12:36:28.001Z</time></trkpt><trkpt lat="41.51302745551749" lon="0.27659926906441984"><ele>351.5</ele><time>2026-05-04T12:36:29.001Z</time></trkpt><trkpt lat="41.513001198773175" lon="0.2767476266631589"><ele>352.0</ele><time>2026-05-04T12:36:30.001Z</time></trkpt><trkpt lat="41.51297695963913" lon="0.27689681620088896"><ele>352.0</ele><time>2026-05-04T12:36:31.001Z</time></trkpt><trkpt lat="41.51295150669842" lon="0.2770430590829131"><ele>352.0</ele><time>2026-05-04T12:36:32.001Z</time></trkpt><trkpt lat="41.512929084640184" lon="0.27719009517214144"><ele>352.0</ele><time>2026-05-04T12:36:33.001Z</time></trkpt><trkpt lat="41.512905742380646" lon="0.27734287004585023"><ele>352.0</ele><time>2026-05-04T12:36:34.001Z</time></trkpt><trkpt lat="41.51288544438124" lon="0.2774949039604474"><ele>349.25</ele><time>2026-05-04T12:36:35.001Z</time></trkpt><trkpt lat="41.51286662175077" lon="0.2776426551361804"><ele>346.5</ele><time>2026-05-04T12:36:36.001Z</time></trkpt><trkpt lat="41.51284707879362" lon="0.2778000343729989"><ele>343.75</ele><time>2026-05-04T12:36:37.001Z</time></trkpt><trkpt lat="41.51283002231808" lon="0.2779529490514477"><ele>341.0</ele><time>2026-05-04T12:36:38.001Z</time></trkpt><trkpt lat="41.51281352380596" lon="0.2781054098653641"><ele>340.5</ele><time>2026-05-04T12:36:39.001Z</time></trkpt><trkpt lat="41.512796076103726" lon="0.278257987726548"><ele>340.0</ele><time>2026-05-04T12:36:40.001Z</time></trkpt><trkpt lat="41.512779118685806" lon="0.27841203941903686"><ele>339.5</ele><time>2026-05-04T12:36:41.001Z</time></trkpt><trkpt lat="41.51276475055369" lon="0.27855855700087034"><ele>339.0</ele><time>2026-05-04T12:36:42.001Z</time></trkpt><trkpt lat="41.512748495073325" lon="0.27870840815030967"><ele>339.0</ele><time>2026-05-04T12:36:43.001Z</time></trkpt><trkpt lat="41.51273991640787" lon="0.27885056446174267"><ele>339.0</ele><time>2026-05-04T12:36:44.001Z</time></trkpt><trkpt lat="41.51272412956668" lon="0.2789961191745622"><ele>339.0</ele><time>2026-05-04T12:36:45.001Z</time></trkpt><trkpt lat="41.51271174882903" lon="0.27914287842984403"><ele>339.0</ele><time>2026-05-04T12:36:46.001Z</time></trkpt><trkpt lat="41.51270635939963" lon="0.27929007394374655"><ele>339.0</ele><time>2026-05-04T12:36:47.001Z</time></trkpt><trkpt lat="41.512696461207696" lon="0.2794369714876656"><ele>339.0</ele><time>2026-05-04T12:36:48.001Z</time></trkpt><trkpt lat="41.51269374147445" lon="0.27959018385567574"><ele>339.0</ele><time>2026-05-04T12:36:49.001Z</time></trkpt><trkpt lat="41.512691262126886" lon="0.27974725862944705"><ele>339.0</ele><time>2026-05-04T12:36:50.001Z</time></trkpt><trkpt lat="41.51268436706901" lon="0.27989848915746596"><ele>339.0</ele><time>2026-05-04T12:36:51.001Z</time></trkpt><trkpt lat="41.51267820979691" lon="0.2800503377403701"><ele>339.0</ele><time>2026-05-04T12:36:52.001Z</time></trkpt><trkpt lat="41.51267192314252" lon="0.28019789543971757"><ele>339.0</ele><time>2026-05-04T12:36:53.001Z</time></trkpt><trkpt lat="41.512668187283815" lon="0.28034949912675844"><ele>339.0</ele><time>2026-05-04T12:36:54.001Z</time></trkpt><trkpt lat="41.512664971787984" lon="0.2804977651133127"><ele>339.0</ele><time>2026-05-04T12:36:55.001Z</time></trkpt><trkpt lat="41.51266119524804" lon="0.28064610846143523"><ele>339.0</ele><time>2026-05-04T12:36:56.001Z</time></trkpt><trkpt lat="41.51266175196032" lon="0.28080004287049753"><ele>337.5</ele><time>2026-05-04T12:36:57.001Z</time></trkpt><trkpt lat="41.51266241994435" lon="0.28094741461297296"><ele>336.0</ele><time>2026-05-04T12:36:58.001Z</time></trkpt><trkpt lat="41.5126614500938" lon="0.28109877815136347"><ele>334.5</ele><time>2026-05-04T12:36:59.001Z</time></trkpt><trkpt lat="41.512660605127635" lon="0.2812517241601887"><ele>333.0</ele><time>2026-05-04T12:37:00.001Z</time></trkpt><trkpt lat="41.512662761994086" lon="0.28140433245790686"><ele>330.5</ele><time>2026-05-04T12:37:01.001Z</time></trkpt><trkpt lat="41.51266455611604" lon="0.28155587751522343"><ele>328.0</ele><time>2026-05-04T12:37:02.001Z</time></trkpt><trkpt lat="41.51266785186972" lon="0.2817103959006901"><ele>325.5</ele><time>2026-05-04T12:37:03.001Z</time></trkpt><trkpt lat="41.51267388134133" lon="0.2818611825226235"><ele>323.0</ele><time>2026-05-04T12:37:04.001Z</time></trkpt><trkpt lat="41.51267542965539" lon="0.28201039114310456"><ele>323.0</ele><time>2026-05-04T12:37:05.001Z</time></trkpt><trkpt lat="41.51268096429115" lon="0.2821650770703153"><ele>323.0</ele><time>2026-05-04T12:37:06.001Z</time></trkpt><trkpt lat="41.512683897954034" lon="0.28231200948097995"><ele>323.0</ele><time>2026-05-04T12:37:07Z</time></trkpt><trkpt lat="41.51268959587574" lon="0.2824639888388248"><ele>323.0</ele><time>2026-05-04T12:37:08Z</time></trkpt><trkpt lat="41.51269389542102" lon="0.2826174929253626"><ele>320.0</ele><time>2026-05-04T12:37:09Z</time></trkpt><trkpt lat="41.5126983680537" lon="0.2827713736409122"><ele>317.0</ele><time>2026-05-04T12:37:10Z</time></trkpt><trkpt lat="41.51270485995336" lon="0.2829250155594078"><ele>314.0</ele><time>2026-05-04T12:37:11Z</time></trkpt><trkpt lat="41.51270793178732" lon="0.28308002907036983"><ele>311.0</ele><time>2026-05-04T12:37:12Z</time></trkpt><trkpt lat="41.51271289593923" lon="0.2832312529176893"><ele>308.25</ele><time>2026-05-04T12:37:13Z</time></trkpt><trkpt lat="41.51271603578687" lon="0.283386518523033"><ele>305.5</ele><time>2026-05-04T12:37:14Z</time></trkpt><trkpt lat="41.512722735722704" lon="0.2835313744438348"><ele>302.75</ele><time>2026-05-04T12:37:15Z</time></trkpt><trkpt lat="41.51272536302258" lon="0.28368834076561145"><ele>300.0</ele><time>2026-05-04T12:37:16Z</time></trkpt><trkpt lat="41.51273187992795" lon="0.2838346460349542"><ele>297.25</ele><time>2026-05-04T12:37:17Z</time></trkpt><trkpt lat="41.51274315143716" lon="0.283978906408361"><ele>294.5</ele><time>2026-05-04T12:37:18Z</time></trkpt><trkpt lat="41.512740597620926" lon="0.2841385930095005"><ele>291.75</ele><time>2026-05-04T12:37:19Z</time></trkpt><trkpt lat="41.51274803645684" lon="0.2842876001999864"><ele>289.0</ele><time>2026-05-04T12:37:20Z</time></trkpt><trkpt lat="41.512751405331166" lon="0.28444096075336595"><ele>289.0</ele><time>2026-05-04T12:37:21Z</time></trkpt><trkpt lat="41.51275785065177" lon="0.2845954643184567"><ele>289.0</ele><time>2026-05-04T12:37:22Z</time></trkpt><trkpt lat="41.51276134209253" lon="0.2847565754251136"><ele>289.0</ele><time>2026-05-04T12:37:23Z</time></trkpt><trkpt lat="41.512764335048544" lon="0.2849123707938855"><ele>289.0</ele><time>2026-05-04T12:37:24Z</time></trkpt><trkpt lat="41.51276467371587" lon="0.2850691818163388"><ele>286.75</ele><time>2026-05-04T12:37:25Z</time></trkpt><trkpt lat="41.512769257784065" lon="0.2852237947142328"><ele>284.5</ele><time>2026-05-04T12:37:26Z</time></trkpt><trkpt lat="41.5127744092374" lon="0.2853763836932051"><ele>282.25</ele><time>2026-05-04T12:37:27Z</time></trkpt><trkpt lat="41.51278006894578" lon="0.285523676254711"><ele>280.0</ele><time>2026-05-04T12:37:28Z</time></trkpt><trkpt lat="41.512775030090246" lon="0.28567747310986463"><ele>278.25</ele><time>2026-05-04T12:37:29Z</time></trkpt><trkpt lat="41.512792781774394" lon="0.28583009405582543"><ele>276.5</ele><time>2026-05-04T12:37:30Z</time></trkpt><trkpt lat="41.51276842258833" lon="0.2859741167694703"><ele>274.75</ele><time>2026-05-04T12:37:31Z</time></trkpt><trkpt lat="41.51276746089836" lon="0.28612207456667593"><ele>273.0</ele><time>2026-05-04T12:37:32Z</time></trkpt><trkpt lat="41.51275827179469" lon="0.2862761424916633"><ele>272.0</ele><time>2026-05-04T12:37:33Z</time></trkpt><trkpt lat="41.51275409579949" lon="0.28643204840429437"><ele>271.0</ele><time>2026-05-04T12:37:34Z</time></trkpt><trkpt lat="41.512753216153996" lon="0.28658891172573536"><ele>270.0</ele><time>2026-05-04T12:37:35Z</time></trkpt><trkpt lat="41.51275100799855" lon="0.28674242864897087"><ele>269.0</ele><time>2026-05-04T12:37:36Z</time></trkpt><trkpt lat="41.51275244405389" lon="0.2868947517221721"><ele>269.0</ele><time>2026-05-04T12:37:37Z</time></trkpt><trkpt lat="41.51275339577311" lon="0.287046463709244"><ele>269.0</ele><time>2026-05-04T12:37:38Z</time></trkpt><trkpt lat="41.512762424580224" lon="0.2871980920660486"><ele>269.0</ele><time>2026-05-04T12:37:39Z</time></trkpt><trkpt lat="41.51276732649757" lon="0.2873558554087005"><ele>269.0</ele><time>2026-05-04T12:37:40Z</time></trkpt><trkpt lat="41.51276808858536" lon="0.2875065282166902"><ele>267.25</ele><time>2026-05-04T12:37:41Z</time></trkpt><trkpt lat="41.51276521833103" lon="0.28765774962592927"><ele>265.5</ele><time>2026-05-04T12:37:42Z</time></trkpt><trkpt lat="41.51276402203363" lon="0.287808629010054"><ele>263.75</ele><time>2026-05-04T12:37:43Z</time></trkpt><trkpt lat="41.512764241869" lon="0.28796322108613254"><ele>262.0</ele><time>2026-05-04T12:37:44Z</time></trkpt><trkpt lat="41.51276658474476" lon="0.28811851772171915"><ele>260.25</ele><time>2026-05-04T12:37:45Z</time></trkpt><trkpt lat="41.512766948852615" lon="0.28827436541113854"><ele>258.5</ele><time>2026-05-04T12:37:46Z</time></trkpt><trkpt lat="41.51276054396474" lon="0.2884277185121811"><ele>256.75</ele><time>2026-05-04T12:37:47Z</time></trkpt><trkpt lat="41.51274771507697" lon="0.28858139350443385"><ele>255.0</ele><time>2026-05-04T12:37:48Z</time></trkpt><trkpt lat="41.512738337463986" lon="0.2887342066951685"><ele>255.0</ele><time>2026-05-04T12:37:49Z</time></trkpt><trkpt lat="41.512731662682775" lon="0.28888382970234394"><ele>255.0</ele><time>2026-05-04T12:37:50Z</time></trkpt><trkpt lat="41.51272654725148" lon="0.2890265876829227"><ele>255.0</ele><time>2026-05-04T12:37:51Z</time></trkpt><trkpt lat="41.51271142174792" lon="0.2891833038447445"><ele>255.0</ele><time>2026-05-04T12:37:52Z</time></trkpt><trkpt lat="41.51269343931088" lon="0.2893362888829158"><ele>253.75</ele><time>2026-05-04T12:37:53Z</time></trkpt><trkpt lat="41.51267021723446" lon="0.2894862189178782"><ele>252.5</ele><time>2026-05-04T12:37:54Z</time></trkpt><trkpt lat="41.51264836835702" lon="0.2896312173730051"><ele>251.25</ele><time>2026-05-04T12:37:55Z</time></trkpt><trkpt lat="41.5126233590529" lon="0.28978018991008536"><ele>250.0</ele><time>2026-05-04T12:37:56Z</time></trkpt><trkpt lat="41.51259808371175" lon="0.28992898362725084"><ele>249.0</ele><time>2026-05-04T12:37:57Z</time></trkpt><trkpt lat="41.51256877464488" lon="0.29007803873706356"><ele>248.0</ele><time>2026-05-04T12:37:58Z</time></trkpt><trkpt lat="41.51254046026315" lon="0.29022498490079635"><ele>247.0</ele><time>2026-05-04T12:37:59Z</time></trkpt><trkpt lat="41.512508050725" lon="0.29037490403182115"><ele>246.0</ele><time>2026-05-04T12:38:00.001Z</time></trkpt><trkpt lat="41.51247128062821" lon="0.29052216371316747"><ele>244.75</ele><time>2026-05-04T12:38:01.001Z</time></trkpt><trkpt lat="41.512432827170194" lon="0.290666968855783"><ele>243.5</ele><time>2026-05-04T12:38:02.001Z</time></trkpt><trkpt lat="41.5123936723179" lon="0.2908129210232855"><ele>242.25</ele><time>2026-05-04T12:38:03.001Z</time></trkpt><trkpt lat="41.512352201835554" lon="0.29095549956392225"><ele>241.0</ele><time>2026-05-04T12:38:04.001Z</time></trkpt><trkpt lat="41.51230451083607" lon="0.2910922353437132"><ele>241.0</ele><time>2026-05-04T12:38:05.001Z</time></trkpt><trkpt lat="41.5122550362916" lon="0.29123235408986914"><ele>241.0</ele><time>2026-05-04T12:38:06.001Z</time></trkpt><trkpt lat="41.51220983795651" lon="0.29137582131494766"><ele>241.0</ele><time>2026-05-04T12:38:07.001Z</time></trkpt><trkpt lat="41.51216581569572" lon="0.2915248198088757"><ele>241.0</ele><time>2026-05-04T12:38:08.001Z</time></trkpt><trkpt lat="41.51211586437158" lon="0.29166850158504637"><ele>240.25</ele><time>2026-05-04T12:38:09.001Z</time></trkpt><trkpt lat="41.512062319681945" lon="0.2918030436008745"><ele>239.5</ele><time>2026-05-04T12:38:10.001Z</time></trkpt><trkpt lat="41.51200929161399" lon="0.29193967501764684"><ele>238.75</ele><time>2026-05-04T12:38:11.001Z</time></trkpt><trkpt lat="41.51195529519682" lon="0.2920825827780154"><ele>238.0</ele><time>2026-05-04T12:38:12.001Z</time></trkpt><trkpt lat="41.511898912698555" lon="0.2922204833799582"><ele>235.75</ele><time>2026-05-04T12:38:13.001Z</time></trkpt><trkpt lat="41.51183966612554" lon="0.29236015451917585"><ele>233.5</ele><time>2026-05-04T12:38:14.001Z</time></trkpt><trkpt lat="41.5117768360175" lon="0.2924976656095339"><ele>231.25</ele><time>2026-05-04T12:38:15.001Z</time></trkpt><trkpt lat="41.511715301680724" lon="0.29263478276709715"><ele>229.0</ele><time>2026-05-04T12:38:16.001Z</time></trkpt><trkpt lat="41.51165169179865" lon="0.2927669642329634"><ele>229.0</ele><time>2026-05-04T12:38:17.001Z</time></trkpt><trkpt lat="41.511590212698394" lon="0.29290069633288535"><ele>229.0</ele><time>2026-05-04T12:38:18.001Z</time></trkpt><trkpt lat="41.511524953913465" lon="0.29303078482339256"><ele>229.0</ele><time>2026-05-04T12:38:19.001Z</time></trkpt><trkpt lat="41.5114629340623" lon="0.2931593243067066"><ele>229.0</ele><time>2026-05-04T12:38:20.001Z</time></trkpt><trkpt lat="41.51140152495213" lon="0.2932922908369069"><ele>228.75</ele><time>2026-05-04T12:38:21.001Z</time></trkpt><trkpt lat="41.511337544932" lon="0.29341578436409327"><ele>228.5</ele><time>2026-05-04T12:38:22.001Z</time></trkpt><trkpt lat="41.511272062116404" lon="0.29353764325223614"><ele>228.25</ele><time>2026-05-04T12:38:23.001Z</time></trkpt><trkpt lat="41.511214548664555" lon="0.2936769856834212"><ele>228.0</ele><time>2026-05-04T12:38:24.001Z</time></trkpt><trkpt lat="41.511139209669096" lon="0.2938000038285203"><ele>228.0</ele><time>2026-05-04T12:38:25.001Z</time></trkpt><trkpt lat="41.51108059986048" lon="0.29392040898748517"><ele>228.0</ele><time>2026-05-04T12:38:26.001Z</time></trkpt><trkpt lat="41.51101707950925" lon="0.29403570236108045"><ele>228.0</ele><time>2026-05-04T12:38:27.001Z</time></trkpt><trkpt lat="41.510958915233125" lon="0.2941630253381231"><ele>228.0</ele><time>2026-05-04T12:38:28.001Z</time></trkpt><trkpt lat="41.51090253858105" lon="0.2942911325825668"><ele>228.0</ele><time>2026-05-04T12:38:29.001Z</time></trkpt><trkpt lat="41.51083342252517" lon="0.2944089709795524"><ele>225.25</ele><time>2026-05-04T12:38:30.001Z</time></trkpt><trkpt lat="41.51077886384612" lon="0.29453977726644986"><ele>222.5</ele><time>2026-05-04T12:38:31.001Z</time></trkpt><trkpt lat="41.51073373962179" lon="0.2946741910395348"><ele>219.75</ele><time>2026-05-04T12:38:32.001Z</time></trkpt><trkpt lat="41.51064760634132" lon="0.29479088306664525"><ele>217.0</ele><time>2026-05-04T12:38:33.001Z</time></trkpt><trkpt lat="41.51057928958967" lon="0.2949098222327528"><ele>217.0</ele><time>2026-05-04T12:38:34.001Z</time></trkpt><trkpt lat="41.51052068137597" lon="0.2950294452562299"><ele>217.0</ele><time>2026-05-04T12:38:35.001Z</time></trkpt><trkpt lat="41.51046501113187" lon="0.29515116155153015"><ele>217.0</ele><time>2026-05-04T12:38:36.001Z</time></trkpt><trkpt lat="41.5104063592765" lon="0.29527303830398194"><ele>217.0</ele><time>2026-05-04T12:38:37.001Z</time></trkpt><trkpt lat="41.51034944885589" lon="0.29539601290796574"><ele>217.0</ele><time>2026-05-04T12:38:38.001Z</time></trkpt><trkpt lat="41.51029133323952" lon="0.2955217100643688"><ele>216.2</ele><time>2026-05-04T12:38:39.001Z</time></trkpt><trkpt lat="41.51023190266479" lon="0.29564679226267054"><ele>215.39999999999998</ele><time>2026-05-04T12:38:40.001Z</time></trkpt><trkpt lat="41.51017134180902" lon="0.2957745661245269"><ele>214.60000000000002</ele><time>2026-05-04T12:38:41.001Z</time></trkpt><trkpt lat="41.51011700090666" lon="0.2959039059022479"><ele>213.8</ele><time>2026-05-04T12:38:42.001Z</time></trkpt><trkpt lat="41.51006359604949" lon="0.2960318812434005"><ele>213.0</ele><time>2026-05-04T12:38:43.001Z</time></trkpt><trkpt lat="41.5100099103654" lon="0.2961569153526315"><ele>213.0</ele><time>2026-05-04T12:38:44.001Z</time></trkpt><trkpt lat="41.50995726879833" lon="0.2962847503242151"><ele>213.0</ele><time>2026-05-04T12:38:45.001Z</time></trkpt><trkpt lat="41.50990722131694" lon="0.29641349255854765"><ele>213.0</ele><time>2026-05-04T12:38:46.001Z</time></trkpt><trkpt lat="41.509858654480944" lon="0.2965425936344313"><ele>213.0</ele><time>2026-05-04T12:38:47.001Z</time></trkpt><trkpt lat="41.509811560919395" lon="0.296673995433981"><ele>213.0</ele><time>2026-05-04T12:38:48.001Z</time></trkpt><trkpt lat="41.50976496630712" lon="0.2968063153250272"><ele>212.8</ele><time>2026-05-04T12:38:49.001Z</time></trkpt><trkpt lat="41.50971853267461" lon="0.2969391516926547"><ele>212.60000000000002</ele><time>2026-05-04T12:38:50.001Z</time></trkpt><trkpt lat="41.509677516156444" lon="0.29707293716050887"><ele>212.39999999999998</ele><time>2026-05-04T12:38:51.001Z</time></trkpt><trkpt lat="41.50963784766174" lon="0.2972036831151658"><ele>212.2</ele><time>2026-05-04T12:38:52.001Z</time></trkpt><trkpt lat="41.50959207777954" lon="0.2973368132420265"><ele>212.0</ele><time>2026-05-04T12:38:53.001Z</time></trkpt><trkpt lat="41.509551130077504" lon="0.2974699008398548"><ele>209.8</ele><time>2026-05-04T12:38:54.001Z</time></trkpt><trkpt lat="41.509511966266366" lon="0.29760150836592214"><ele>207.6</ele><time>2026-05-04T12:38:55.001Z</time></trkpt><trkpt lat="41.50947653671308" lon="0.2977373490291035"><ele>205.4</ele><time>2026-05-04T12:38:56.001Z</time></trkpt><trkpt lat="41.5094422596005" lon="0.29787509923533523"><ele>203.20000000000002</ele><time>2026-05-04T12:38:57.001Z</time></trkpt><trkpt lat="41.509412602354985" lon="0.29801526251123683"><ele>201.0</ele><time>2026-05-04T12:38:58.001Z</time></trkpt><trkpt lat="41.509381796273296" lon="0.29815584336093826"><ele>200.8</ele><time>2026-05-04T12:38:59.001Z</time></trkpt><trkpt lat="41.509349648048364" lon="0.298292770395101"><ele>200.60000000000002</ele><time>2026-05-04T12:39:00.001Z</time></trkpt><trkpt lat="41.50932342326799" lon="0.29843600932049447"><ele>200.4</ele><time>2026-05-04T12:39:01.001Z</time></trkpt><trkpt lat="41.50930067384458" lon="0.2985791669470077"><ele>200.2</ele><time>2026-05-04T12:39:02.001Z</time></trkpt><trkpt lat="41.509269862474525" lon="0.2987228702970775"><ele>200.0</ele><time>2026-05-04T12:39:03.001Z</time></trkpt><trkpt lat="41.50923877253582" lon="0.2988635135863617"><ele>200.0</ele><time>2026-05-04T12:39:04.001Z</time></trkpt><trkpt lat="41.509212849322395" lon="0.29900445059583264"><ele>200.0</ele><time>2026-05-04T12:39:05.001Z</time></trkpt><trkpt lat="41.50919218610599" lon="0.299145566450051"><ele>200.0</ele><time>2026-05-04T12:39:06.001Z</time></trkpt><trkpt lat="41.5091689914681" lon="0.2992836463822158"><ele>200.0</ele><time>2026-05-04T12:39:07.001Z</time></trkpt><trkpt lat="41.50914409973052" lon="0.2994231707880553"><ele>200.0</ele><time>2026-05-04T12:39:08.001Z</time></trkpt><trkpt lat="41.50912123645016" lon="0.2995656418781828"><ele>200.0</ele><time>2026-05-04T12:39:09.001Z</time></trkpt><trkpt lat="41.509096321297605" lon="0.2997045426765477"><ele>200.0</ele><time>2026-05-04T12:39:10.001Z</time></trkpt><trkpt lat="41.509071653897905" lon="0.2998459912256123"><ele>200.0</ele><time>2026-05-04T12:39:11.001Z</time></trkpt><trkpt lat="41.50905016627893" lon="0.29998679662481764"><ele>200.0</ele><time>2026-05-04T12:39:12.001Z</time></trkpt><trkpt lat="41.509028473061655" lon="0.30013023125543853"><ele>200.0</ele><time>2026-05-04T12:39:13Z</time></trkpt><trkpt lat="41.509008028975444" lon="0.3002713839755979"><ele>199.8</ele><time>2026-05-04T12:39:14Z</time></trkpt><trkpt lat="41.508989413960244" lon="0.30041414811004963"><ele>199.6</ele><time>2026-05-04T12:39:15Z</time></trkpt><trkpt lat="41.50897152818173" lon="0.3005543019488263"><ele>199.39999999999998</ele><time>2026-05-04T12:39:16Z</time></trkpt><trkpt lat="41.50895643250957" lon="0.30070176005064847"><ele>199.2</ele><time>2026-05-04T12:39:17Z</time></trkpt><trkpt lat="41.50894061658488" lon="0.30084673948192314"><ele>199.0</ele><time>2026-05-04T12:39:18Z</time></trkpt><trkpt lat="41.50892369516678" lon="0.30099346504706675"><ele>199.6</ele><time>2026-05-04T12:39:19Z</time></trkpt><trkpt lat="41.50890915554617" lon="0.3011382653576374"><ele>200.2</ele><time>2026-05-04T12:39:20Z</time></trkpt><trkpt lat="41.508894220880954" lon="0.30128833638150626"><ele>200.79999999999998</ele><time>2026-05-04T12:39:21Z</time></trkpt><trkpt lat="41.50888851097696" lon="0.3014351375690654"><ele>201.39999999999998</ele><time>2026-05-04T12:39:22Z</time></trkpt><trkpt lat="41.508880934911076" lon="0.3015862822992219"><ele>202.0</ele><time>2026-05-04T12:39:23Z</time></trkpt><trkpt lat="41.50888517278998" lon="0.30173272716061594"><ele>202.0</ele><time>2026-05-04T12:39:24Z</time></trkpt><trkpt lat="41.508879293753786" lon="0.3018838185017361"><ele>202.0</ele><time>2026-05-04T12:39:25Z</time></trkpt><trkpt lat="41.50887753257992" lon="0.3020325612905808"><ele>202.0</ele><time>2026-05-04T12:39:26Z</time></trkpt><trkpt lat="41.50886954340182" lon="0.3021796832420874"><ele>202.0</ele><time>2026-05-04T12:39:27Z</time></trkpt><trkpt lat="41.50886197620301" lon="0.30232257915814625"><ele>202.0</ele><time>2026-05-04T12:39:28Z</time></trkpt><trkpt lat="41.50886317402377" lon="0.3024693889247986"><ele>201.6</ele><time>2026-05-04T12:39:29Z</time></trkpt><trkpt lat="41.50886911090613" lon="0.302614589006563"><ele>201.2</ele><time>2026-05-04T12:39:30Z</time></trkpt><trkpt lat="41.508882272949826" lon="0.3027625705350501"><ele>200.8</ele><time>2026-05-04T12:39:31Z</time></trkpt><trkpt lat="41.50889111977535" lon="0.30291317498052805"><ele>200.4</ele><time>2026-05-04T12:39:32Z</time></trkpt><trkpt lat="41.508898586472206" lon="0.3030599171864652"><ele>200.0</ele><time>2026-05-04T12:39:33Z</time></trkpt><trkpt lat="41.508905498150085" lon="0.30320800971755796"><ele>198.8</ele><time>2026-05-04T12:39:34Z</time></trkpt><trkpt lat="41.50891859666512" lon="0.3033561359486032"><ele>197.6</ele><time>2026-05-04T12:39:35Z</time></trkpt><trkpt lat="41.50893192099092" lon="0.3035057637230631"><ele>196.39999999999998</ele><time>2026-05-04T12:39:36Z</time></trkpt><trkpt lat="41.50894518694746" lon="0.3036532452408051"><ele>195.2</ele><time>2026-05-04T12:39:37Z</time></trkpt><trkpt lat="41.50896683632253" lon="0.3038006068673271"><ele>194.0</ele><time>2026-05-04T12:39:38Z</time></trkpt><trkpt lat="41.50898607746633" lon="0.3039462177565787"><ele>192.79999999999998</ele><time>2026-05-04T12:39:39Z</time></trkpt><trkpt lat="41.509002207595636" lon="0.30409153829365465"><ele>191.6</ele><time>2026-05-04T12:39:40Z</time></trkpt><trkpt lat="41.509019968576915" lon="0.3042374778153677"><ele>190.4</ele><time>2026-05-04T12:39:41Z</time></trkpt><trkpt lat="41.5090374450556" lon="0.30438623922373576"><ele>189.2</ele><time>2026-05-04T12:39:42Z</time></trkpt><trkpt lat="41.50905552032391" lon="0.3045327229394684"><ele>188.0</ele><time>2026-05-04T12:39:43Z</time></trkpt><trkpt lat="41.50907901684104" lon="0.3046756944866525"><ele>186.5</ele><time>2026-05-04T12:39:44Z</time></trkpt><trkpt lat="41.509086053691355" lon="0.3048349066149021"><ele>185.0</ele><time>2026-05-04T12:39:45Z</time></trkpt><trkpt lat="41.50911671532689" lon="0.30495784989121794"><ele>183.5</ele><time>2026-05-04T12:39:46Z</time></trkpt><trkpt lat="41.50916864244468" lon="0.3051109404805759"><ele>182.0</ele><time>2026-05-04T12:39:47Z</time></trkpt><trkpt lat="41.50920056206082" lon="0.30525823216710113"><ele>182.0</ele><time>2026-05-04T12:39:48Z</time></trkpt><trkpt lat="41.5092327685274" lon="0.3054050269410437"><ele>182.0</ele><time>2026-05-04T12:39:49Z</time></trkpt><trkpt lat="41.509266017103265" lon="0.305549772486796"><ele>182.0</ele><time>2026-05-04T12:39:50Z</time></trkpt><trkpt lat="41.509302127680954" lon="0.3056916708994792"><ele>182.0</ele><time>2026-05-04T12:39:51Z</time></trkpt><trkpt lat="41.50933949669256" lon="0.3058331554384677"><ele>181.0</ele><time>2026-05-04T12:39:52Z</time></trkpt><trkpt lat="41.509377197810096" lon="0.30597081398065135"><ele>180.0</ele><time>2026-05-04T12:39:53Z</time></trkpt><trkpt lat="41.50941317221539" lon="0.30611256125845104"><ele>179.0</ele><time>2026-05-04T12:39:54Z</time></trkpt><trkpt lat="41.50945198141892" lon="0.30625386075135347"><ele>178.0</ele><time>2026-05-04T12:39:55Z</time></trkpt><trkpt lat="41.50949398806425" lon="0.3063960171076309"><ele>177.0</ele><time>2026-05-04T12:39:56Z</time></trkpt><trkpt lat="41.50953649573946" lon="0.3065363446343489"><ele>177.75</ele><time>2026-05-04T12:39:57Z</time></trkpt><trkpt lat="41.50958403787703" lon="0.30667518152882794"><ele>178.5</ele><time>2026-05-04T12:39:58Z</time></trkpt><trkpt lat="41.50963120633445" lon="0.30681180364647614"><ele>179.25</ele><time>2026-05-04T12:39:59Z</time></trkpt><trkpt lat="41.509680354677755" lon="0.30695079934011976"><ele>180.0</ele><time>2026-05-04T12:40:00Z</time></trkpt><trkpt lat="41.509731069234384" lon="0.3070922053714048"><ele>180.0</ele><time>2026-05-04T12:40:01Z</time></trkpt><trkpt lat="41.50978255108462" lon="0.30723012461985705"><ele>180.0</ele><time>2026-05-04T12:40:02Z</time></trkpt><trkpt lat="41.50983727796753" lon="0.30736742428684843"><ele>180.0</ele><time>2026-05-04T12:40:03Z</time></trkpt><trkpt lat="41.50989287175278" lon="0.3075063932700885"><ele>180.0</ele><time>2026-05-04T12:40:04Z</time></trkpt><trkpt lat="41.50994947760683" lon="0.3076425601820418"><ele>177.75</ele><time>2026-05-04T12:40:05Z</time></trkpt><trkpt lat="41.51000616417195" lon="0.3077752156007531"><ele>175.5</ele><time>2026-05-04T12:40:06Z</time></trkpt><trkpt lat="41.51006349345296" lon="0.307907246954889"><ele>173.25</ele><time>2026-05-04T12:40:07Z</time></trkpt><trkpt lat="41.51012152390032" lon="0.30803700791415434"><ele>171.0</ele><time>2026-05-04T12:40:08Z</time></trkpt><trkpt lat="41.51018037817249" lon="0.3081653527457302"><ele>171.0</ele><time>2026-05-04T12:40:09Z</time></trkpt><trkpt lat="41.51022127294629" lon="0.30826015173687693"><ele>171.0</ele><time>2026-05-04T12:40:10Z</time></trkpt><trkpt lat="41.51030842691986" lon="0.3084167808367397"><ele>171.0</ele><time>2026-05-04T12:40:11Z</time></trkpt><trkpt lat="41.51037747095904" lon="0.30854293560272994"><ele>171.0</ele><time>2026-05-04T12:40:12Z</time></trkpt><trkpt lat="41.5104422065602" lon="0.3086673633708519"><ele>170.5</ele><time>2026-05-04T12:40:13.001Z</time></trkpt><trkpt lat="41.51050804011613" lon="0.308791168466705"><ele>170.0</ele><time>2026-05-04T12:40:14.001Z</time></trkpt><trkpt lat="41.5105716724891" lon="0.3089166312693319"><ele>169.5</ele><time>2026-05-04T12:40:15.001Z</time></trkpt><trkpt lat="41.510642698763974" lon="0.30903689841633064"><ele>169.0</ele><time>2026-05-04T12:40:16.001Z</time></trkpt><trkpt lat="41.510711789895346" lon="0.30915551548321735"><ele>169.0</ele><time>2026-05-04T12:40:17.001Z</time></trkpt><trkpt lat="41.510781585189434" lon="0.30927673626218605"><ele>169.0</ele><time>2026-05-04T12:40:18.001Z</time></trkpt><trkpt lat="41.51085741442403" lon="0.30939199346418356"><ele>169.0</ele><time>2026-05-04T12:40:19.001Z</time></trkpt><trkpt lat="41.510929250924114" lon="0.3095143553945235"><ele>169.0</ele><time>2026-05-04T12:40:20.001Z</time></trkpt><trkpt lat="41.51099958061575" lon="0.30963200656780965"><ele>168.5</ele><time>2026-05-04T12:40:21.001Z</time></trkpt><trkpt lat="41.51107204267245" lon="0.30975166150256095"><ele>168.0</ele><time>2026-05-04T12:40:22.001Z</time></trkpt><trkpt lat="41.511147997210024" lon="0.30986822740993625"><ele>167.5</ele><time>2026-05-04T12:40:23.001Z</time></trkpt><trkpt lat="41.51122386473237" lon="0.3099843344288304"><ele>167.0</ele><time>2026-05-04T12:40:24.001Z</time></trkpt><trkpt lat="41.511291744259516" lon="0.310103329754037"><ele>166.5</ele><time>2026-05-04T12:40:25.001Z</time></trkpt><trkpt lat="41.51135352138637" lon="0.3102342040532053"><ele>166.0</ele><time>2026-05-04T12:40:26.001Z</time></trkpt><trkpt lat="41.51143302914739" lon="0.3103457128878413"><ele>165.5</ele><time>2026-05-04T12:40:27.001Z</time></trkpt><trkpt lat="41.511510159507715" lon="0.3104641286105028"><ele>165.0</ele><time>2026-05-04T12:40:28.014Z</time></trkpt><trkpt lat="41.511586495249446" lon="0.3105815792766755"><ele>164.0</ele><time>2026-05-04T12:40:29.021Z</time></trkpt><trkpt lat="41.5116591844382" lon="0.3106963254205591"><ele>163.0</ele><time>2026-05-04T12:40:30.022Z</time></trkpt><trkpt lat="41.51172916166315" lon="0.3108067904095452"><ele>162.0</ele><time>2026-05-04T12:40:31.022Z</time></trkpt><trkpt lat="41.511797573644216" lon="0.3109318222758684"><ele>161.0</ele><time>2026-05-04T12:40:32.023Z</time></trkpt><trkpt lat="41.51192367546401" lon="0.311136497184924"><ele>161.0</ele><time>2026-05-04T12:40:34.001Z</time></trkpt><trkpt lat="41.511983853638" lon="0.31125167097647355"><ele>161.0</ele><time>2026-05-04T12:40:35.001Z</time></trkpt><trkpt lat="41.51206555559111" lon="0.3113932499183963"><ele>161.0</ele><time>2026-05-04T12:40:36.001Z</time></trkpt><trkpt lat="41.51212519012198" lon="0.3115200112964478"><ele>161.0</ele><time>2026-05-04T12:40:37.001Z</time></trkpt><trkpt lat="41.51212719166872" lon="0.31166114721074983"><ele>161.60000000000002</ele><time>2026-05-04T12:40:38.001Z</time></trkpt><trkpt lat="41.51215435164564" lon="0.3117891402486607"><ele>162.2</ele><time>2026-05-04T12:40:39.001Z</time></trkpt><trkpt lat="41.512140279060375" lon="0.3119282884145632"><ele>162.8</ele><time>2026-05-04T12:40:40.001Z</time></trkpt><trkpt lat="41.51214636480194" lon="0.3120646342129805"><ele>163.39999999999998</ele><time>2026-05-04T12:40:41.001Z</time></trkpt><trkpt lat="41.512153364318074" lon="0.31220092758997264"><ele>164.0</ele><time>2026-05-04T12:40:42.001Z</time></trkpt><trkpt lat="41.51216019989872" lon="0.31233861947868086"><ele>164.0</ele><time>2026-05-04T12:40:43.001Z</time></trkpt><trkpt lat="41.51216501741717" lon="0.31247532826282964"><ele>164.0</ele><time>2026-05-04T12:40:44.001Z</time></trkpt><trkpt lat="41.51216922319166" lon="0.3126151573005033"><ele>164.0</ele><time>2026-05-04T12:40:45.001Z</time></trkpt><trkpt lat="41.51217367855176" lon="0.3127544653634837"><ele>164.0</ele><time>2026-05-04T12:40:46.001Z</time></trkpt><trkpt lat="41.51218119047866" lon="0.31289180086677676"><ele>164.0</ele><time>2026-05-04T12:40:47.001Z</time></trkpt><trkpt lat="41.512189206910136" lon="0.31303492641731084"><ele>163.2</ele><time>2026-05-04T12:40:48.001Z</time></trkpt><trkpt lat="41.51220017031991" lon="0.3131724208046243"><ele>162.39999999999998</ele><time>2026-05-04T12:40:49.001Z</time></trkpt><trkpt lat="41.51221408437037" lon="0.31331340681467407"><ele>161.6</ele><time>2026-05-04T12:40:50.001Z</time></trkpt><trkpt lat="41.51222831147108" lon="0.3134517277948936"><ele>160.8</ele><time>2026-05-04T12:40:51.001Z</time></trkpt><trkpt lat="41.5122489193203" lon="0.3135899727471129"><ele>160.0</ele><time>2026-05-04T12:40:52.001Z</time></trkpt><trkpt lat="41.51227557062139" lon="0.31372591763637486"><ele>160.0</ele><time>2026-05-04T12:40:53.001Z</time></trkpt><trkpt lat="41.5123030497136" lon="0.31385980721678897"><ele>160.0</ele><time>2026-05-04T12:40:54.001Z</time></trkpt><trkpt lat="41.51233516044624" lon="0.31400024840976926"><ele>160.0</ele><time>2026-05-04T12:40:55.001Z</time></trkpt><trkpt lat="41.51237008711526" lon="0.31413288343834345"><ele>160.0</ele><time>2026-05-04T12:40:56.001Z</time></trkpt><trkpt lat="41.512405664721285" lon="0.3142715992302627"><ele>160.0</ele><time>2026-05-04T12:40:57.001Z</time></trkpt><trkpt lat="41.51244427025275" lon="0.3144018638787728"><ele>158.8</ele><time>2026-05-04T12:40:58.001Z</time></trkpt><trkpt lat="41.51248568199584" lon="0.3145389185087666"><ele>157.6</ele><time>2026-05-04T12:40:59.001Z</time></trkpt><trkpt lat="41.51253160814429" lon="0.3146694981316648"><ele>156.4</ele><time>2026-05-04T12:41:00.001Z</time></trkpt><trkpt lat="41.51258257391261" lon="0.3147985117174154"><ele>155.2</ele><time>2026-05-04T12:41:01.001Z</time></trkpt><trkpt lat="41.51263609497912" lon="0.314925942386639"><ele>154.0</ele><time>2026-05-04T12:41:02.001Z</time></trkpt><trkpt lat="41.51269087040177" lon="0.31504875181538855"><ele>154.0</ele><time>2026-05-04T12:41:03.001Z</time></trkpt><trkpt lat="41.512749490584795" lon="0.3151721910401586"><ele>154.0</ele><time>2026-05-04T12:41:04.001Z</time></trkpt><trkpt lat="41.512812281020494" lon="0.3152876339597693"><ele>154.0</ele><time>2026-05-04T12:41:05.001Z</time></trkpt><trkpt lat="41.51287709610806" lon="0.31539946508006816"><ele>154.0</ele><time>2026-05-04T12:41:06.001Z</time></trkpt><trkpt lat="41.51293909886448" lon="0.31551604376834885"><ele>154.0</ele><time>2026-05-04T12:41:07.001Z</time></trkpt><trkpt lat="41.513008035657954" lon="0.3156246603223395"><ele>152.6</ele><time>2026-05-04T12:41:08.001Z</time></trkpt><trkpt lat="41.51307807614728" lon="0.3157301658123258"><ele>151.2</ele><time>2026-05-04T12:41:09.001Z</time></trkpt><trkpt lat="41.5131525705053" lon="0.31583290057567875"><ele>149.79999999999998</ele><time>2026-05-04T12:41:10.001Z</time></trkpt><trkpt lat="41.5132295804432" lon="0.31593125106686293"><ele>148.4</ele><time>2026-05-04T12:41:11.001Z</time></trkpt><trkpt lat="41.51331059813306" lon="0.3160250289592091"><ele>147.0</ele><time>2026-05-04T12:41:12.001Z</time></trkpt><trkpt lat="41.51338978316808" lon="0.31611829404281283"><ele>147.0</ele><time>2026-05-04T12:41:13.001Z</time></trkpt><trkpt lat="41.51347122346151" lon="0.3162103197731566"><ele>147.0</ele><time>2026-05-04T12:41:14.001Z</time></trkpt><trkpt lat="41.51355185980049" lon="0.31629815240582976"><ele>147.0</ele><time>2026-05-04T12:41:15.001Z</time></trkpt><trkpt lat="41.51363452880298" lon="0.316384673021814"><ele>147.0</ele><time>2026-05-04T12:41:16.001Z</time></trkpt><trkpt lat="41.513721567436335" lon="0.31646945807335725"><ele>147.0</ele><time>2026-05-04T12:41:17.001Z</time></trkpt><trkpt lat="41.51380761061717" lon="0.3165491435461081"><ele>146.6</ele><time>2026-05-04T12:41:18.001Z</time></trkpt><trkpt lat="41.51389423845355" lon="0.31663012833822823"><ele>146.2</ele><time>2026-05-04T12:41:19Z</time></trkpt><trkpt lat="41.513979936540395" lon="0.31671377114452975"><ele>145.8</ele><time>2026-05-04T12:41:20Z</time></trkpt><trkpt lat="41.51406642591756" lon="0.3167949499393723"><ele>145.4</ele><time>2026-05-04T12:41:21Z</time></trkpt><trkpt lat="41.514150009270196" lon="0.3168794087540781"><ele>145.0</ele><time>2026-05-04T12:41:22Z</time></trkpt><trkpt lat="41.5142387806932" lon="0.3169645043174976"><ele>145.0</ele><time>2026-05-04T12:41:23Z</time></trkpt><trkpt lat="41.51432279892355" lon="0.31704983900023215"><ele>145.0</ele><time>2026-05-04T12:41:24Z</time></trkpt><trkpt lat="41.514407449738485" lon="0.3171382218534214"><ele>145.0</ele><time>2026-05-04T12:41:25Z</time></trkpt><trkpt lat="41.51448881418323" lon="0.3172308850302788"><ele>145.0</ele><time>2026-05-04T12:41:26Z</time></trkpt><trkpt lat="41.51456912877676" lon="0.3173239506989698"><ele>145.0</ele><time>2026-05-04T12:41:27Z</time></trkpt><trkpt lat="41.51464535521098" lon="0.31742233639119755"><ele>144.0</ele><time>2026-05-04T12:41:28Z</time></trkpt><trkpt lat="41.514721917307384" lon="0.3175261414972829"><ele>143.0</ele><time>2026-05-04T12:41:29Z</time></trkpt><trkpt lat="41.51479440644794" lon="0.3176324296179944"><ele>142.0</ele><time>2026-05-04T12:41:30Z</time></trkpt><trkpt lat="41.51486540009079" lon="0.3177381167946311"><ele>141.0</ele><time>2026-05-04T12:41:31Z</time></trkpt><trkpt lat="41.51493062571957" lon="0.31784415192891774"><ele>140.0</ele><time>2026-05-04T12:41:32Z</time></trkpt><trkpt lat="41.51499389856368" lon="0.31795258108247054"><ele>140.0</ele><time>2026-05-04T12:41:33Z</time></trkpt><trkpt lat="41.51505805392341" lon="0.31805922465710607"><ele>140.0</ele><time>2026-05-04T12:41:34Z</time></trkpt><trkpt lat="41.51512012129614" lon="0.31816772689493034"><ele>140.0</ele><time>2026-05-04T12:41:35Z</time></trkpt><trkpt lat="41.51517833440449" lon="0.31827698084459993"><ele>140.0</ele><time>2026-05-04T12:41:36Z</time></trkpt><trkpt lat="41.515240038148455" lon="0.31838807806614267"><ele>140.0</ele><time>2026-05-04T12:41:37Z</time></trkpt><trkpt lat="41.51529868353482" lon="0.3184941457899641"><ele>140.2</ele><time>2026-05-04T12:41:38Z</time></trkpt><trkpt lat="41.51535876429032" lon="0.31859856265066283"><ele>140.4</ele><time>2026-05-04T12:41:39Z</time></trkpt><trkpt lat="41.51541751453978" lon="0.31870718957136934"><ele>140.6</ele><time>2026-05-04T12:41:40Z</time></trkpt><trkpt lat="41.51547658729365" lon="0.31881707690612154"><ele>140.8</ele><time>2026-05-04T12:41:41Z</time></trkpt><trkpt lat="41.51553312861875" lon="0.3189261764576324"><ele>141.0</ele><time>2026-05-04T12:41:42Z</time></trkpt><trkpt lat="41.515591131711375" lon="0.31902994954515806"><ele>140.0</ele><time>2026-05-04T12:41:43Z</time></trkpt><trkpt lat="41.5156521386652" lon="0.3191343228034416"><ele>139.0</ele><time>2026-05-04T12:41:44Z</time></trkpt><trkpt lat="41.515709717010914" lon="0.31924671724468623"><ele>138.0</ele><time>2026-05-04T12:41:45Z</time></trkpt><trkpt lat="41.51576663464267" lon="0.3193609033423333"><ele>137.0</ele><time>2026-05-04T12:41:46Z</time></trkpt><trkpt lat="41.51582538648575" lon="0.3194676864800805"><ele>136.0</ele><time>2026-05-04T12:41:47Z</time></trkpt><trkpt lat="41.515881348402395" lon="0.31957749286281406"><ele>136.0</ele><time>2026-05-04T12:41:48Z</time></trkpt><trkpt lat="41.515947020896554" lon="0.3196833712019967"><ele>136.0</ele><time>2026-05-04T12:41:49Z</time></trkpt><trkpt lat="41.51600944099487" lon="0.31979521750398404"><ele>136.0</ele><time>2026-05-04T12:41:50Z</time></trkpt><trkpt lat="41.51607010893391" lon="0.3199132314335751"><ele>136.0</ele><time>2026-05-04T12:41:51Z</time></trkpt><trkpt lat="41.516131473911074" lon="0.32002940648106937"><ele>136.0</ele><time>2026-05-04T12:41:52Z</time></trkpt><trkpt lat="41.516197073557905" lon="0.3201466704963649"><ele>135.2</ele><time>2026-05-04T12:41:53Z</time></trkpt><trkpt lat="41.51625805201276" lon="0.3202585923087765"><ele>134.39999999999998</ele><time>2026-05-04T12:41:54Z</time></trkpt><trkpt lat="41.51632167469813" lon="0.32037378874593697"><ele>133.6</ele><time>2026-05-04T12:41:55Z</time></trkpt><trkpt lat="41.5163875476431" lon="0.3204859199328162"><ele>132.79999999999998</ele><time>2026-05-04T12:41:56Z</time></trkpt><trkpt lat="41.51644829613454" lon="0.3205940146130778"><ele>132.0</ele><time>2026-05-04T12:41:57Z</time></trkpt><trkpt lat="41.516515652244756" lon="0.3207095351888598"><ele>131.6</ele><time>2026-05-04T12:41:58Z</time></trkpt><trkpt lat="41.51657775876999" lon="0.3208220461467192"><ele>131.2</ele><time>2026-05-04T12:41:59Z</time></trkpt><trkpt lat="41.51663850339113" lon="0.32094010129398576"><ele>130.8</ele><time>2026-05-04T12:42:00Z</time></trkpt><trkpt lat="41.5167037541033" lon="0.3210573280392175"><ele>130.4</ele><time>2026-05-04T12:42:01Z</time></trkpt><trkpt lat="41.5167676189554" lon="0.3211736368626737"><ele>130.0</ele><time>2026-05-04T12:42:02Z</time></trkpt><trkpt lat="41.51683581232897" lon="0.32128510622932344"><ele>130.0</ele><time>2026-05-04T12:42:03Z</time></trkpt><trkpt lat="41.51690002765321" lon="0.3213975082451627"><ele>130.0</ele><time>2026-05-04T12:42:04Z</time></trkpt><trkpt lat="41.51696194873393" lon="0.32151181228355347"><ele>130.0</ele><time>2026-05-04T12:42:05Z</time></trkpt><trkpt lat="41.517023988369004" lon="0.32162857700741804"><ele>130.0</ele><time>2026-05-04T12:42:06Z</time></trkpt><trkpt lat="41.517087361131516" lon="0.32174417905652913"><ele>130.0</ele><time>2026-05-04T12:42:07Z</time></trkpt><trkpt lat="41.517143884594994" lon="0.3218653910354287"><ele>129.2</ele><time>2026-05-04T12:42:08Z</time></trkpt><trkpt lat="41.51719895733774" lon="0.32198857996893054"><ele>128.4</ele><time>2026-05-04T12:42:09Z</time></trkpt><trkpt lat="41.51724754141174" lon="0.3221177878814609"><ele>127.6</ele><time>2026-05-04T12:42:10Z</time></trkpt><trkpt lat="41.51729653580232" lon="0.322241193461576"><ele>126.8</ele><time>2026-05-04T12:42:11Z</time></trkpt><trkpt lat="41.51734500660765" lon="0.3223630532959516"><ele>126.0</ele><time>2026-05-04T12:42:12.001Z</time></trkpt><trkpt lat="41.51739017870448" lon="0.32248703263227"><ele>125.6</ele><time>2026-05-04T12:42:13.001Z</time></trkpt><trkpt lat="41.51743670378153" lon="0.32261044980967984"><ele>125.19999999999999</ele><time>2026-05-04T12:42:14.001Z</time></trkpt><trkpt lat="41.51748067383191" lon="0.3227321975038947"><ele>124.80000000000001</ele><time>2026-05-04T12:42:15.001Z</time></trkpt><trkpt lat="41.51752256491044" lon="0.3228527269854318"><ele>124.4</ele><time>2026-05-04T12:42:16.001Z</time></trkpt><trkpt lat="41.517562530313235" lon="0.32297760666077974"><ele>124.0</ele><time>2026-05-04T12:42:17.001Z</time></trkpt><trkpt lat="41.517599926686614" lon="0.32310376528288576"><ele>124.0</ele><time>2026-05-04T12:42:18.001Z</time></trkpt><trkpt lat="41.51764613545605" lon="0.32322024999260857"><ele>124.0</ele><time>2026-05-04T12:42:19.001Z</time></trkpt><trkpt lat="41.51768090615773" lon="0.32334529921439037"><ele>124.0</ele><time>2026-05-04T12:42:20.001Z</time></trkpt><trkpt lat="41.51771588709757" lon="0.32347161149594816"><ele>124.0</ele><time>2026-05-04T12:42:21.001Z</time></trkpt><trkpt lat="41.51775401264395" lon="0.32358917422816125"><ele>124.0</ele><time>2026-05-04T12:42:22.001Z</time></trkpt><trkpt lat="41.51779006182528" lon="0.32371388602859313"><ele>124.0</ele><time>2026-05-04T12:42:23.001Z</time></trkpt><trkpt lat="41.51782487917005" lon="0.3238363938394946"><ele>124.0</ele><time>2026-05-04T12:42:24.001Z</time></trkpt><trkpt lat="41.51786190092234" lon="0.32395573552366375"><ele>124.0</ele><time>2026-05-04T12:42:25.001Z</time></trkpt><trkpt lat="41.51789375287574" lon="0.32407763203076567"><ele>124.0</ele><time>2026-05-04T12:42:26.001Z</time></trkpt><trkpt lat="41.51792496916545" lon="0.3242000647087665"><ele>124.0</ele><time>2026-05-04T12:42:27.001Z</time></trkpt><trkpt lat="41.5179519730529" lon="0.3243233446673088"><ele>122.80000000000001</ele><time>2026-05-04T12:42:28.001Z</time></trkpt><trkpt lat="41.51797872721088" lon="0.32444610834656384"><ele>121.60000000000001</ele><time>2026-05-04T12:42:29.001Z</time></trkpt><trkpt lat="41.51800515304545" lon="0.3245705629193015"><ele>120.4</ele><time>2026-05-04T12:42:30.001Z</time></trkpt><trkpt lat="41.51803225506346" lon="0.3246957650675989"><ele>119.2</ele><time>2026-05-04T12:42:31.001Z</time></trkpt><trkpt lat="41.51805763862798" lon="0.32482138756749296"><ele>118.0</ele><time>2026-05-04T12:42:32.001Z</time></trkpt><trkpt lat="41.51808425766104" lon="0.324946618287065"><ele>117.80000000000001</ele><time>2026-05-04T12:42:33.001Z</time></trkpt><trkpt lat="41.51811283693078" lon="0.32506957590842356"><ele>117.60000000000001</ele><time>2026-05-04T12:42:34.001Z</time></trkpt><trkpt lat="41.518142950690525" lon="0.32519345609206723"><ele>117.39999999999999</ele><time>2026-05-04T12:42:35.001Z</time></trkpt><trkpt lat="41.51816903818009" lon="0.32531725854201"><ele>117.19999999999999</ele><time>2026-05-04T12:42:36.001Z</time></trkpt><trkpt lat="41.51819494101603" lon="0.3254398165867495"><ele>117.0</ele><time>2026-05-04T12:42:37.001Z</time></trkpt><trkpt lat="41.51822041057529" lon="0.32556346787075857"><ele>116.66666666666667</ele><time>2026-05-04T12:42:38.001Z</time></trkpt><trkpt lat="41.51824237713462" lon="0.32568291320976156"><ele>116.33333333333334</ele><time>2026-05-04T12:42:39.001Z</time></trkpt><trkpt lat="41.51826121320567" lon="0.3257957051103369"><ele>116.0</ele><time>2026-05-04T12:42:40.001Z</time></trkpt><trkpt lat="41.518282013477766" lon="0.32589840455923735"><ele>115.66666666666667</ele><time>2026-05-04T12:42:41.001Z</time></trkpt><trkpt lat="41.518302990836915" lon="0.32600074354466024"><ele>115.33333333333334</ele><time>2026-05-04T12:42:42.001Z</time></trkpt><trkpt lat="41.51832320668703" lon="0.32609725004704493"><ele>115.0</ele><time>2026-05-04T12:42:43.001Z</time></trkpt><trkpt lat="41.51833993197377" lon="0.3261913979911363"><ele>114.99999999999999</ele><time>2026-05-04T12:42:44.001Z</time></trkpt><trkpt lat="41.518348386516806" lon="0.3262814467862748"><ele>115.0</ele><time>2026-05-04T12:42:45.001Z</time></trkpt><trkpt lat="41.5183466673259" lon="0.32637508248322183"><ele>114.99999999999999</ele><time>2026-05-04T12:42:46.001Z</time></trkpt><trkpt lat="41.51834045456537" lon="0.3264748252022309"><ele>114.99999999999999</ele><time>2026-05-04T12:42:47.001Z</time></trkpt><trkpt lat="41.51834645995784" lon="0.3265771107484558"><ele>115.0</ele><time>2026-05-04T12:42:48.001Z</time></trkpt><trkpt lat="41.51837444968759" lon="0.326675518710061"><ele>114.99999999999999</ele><time>2026-05-04T12:42:49.001Z</time></trkpt><trkpt lat="41.51841733011416" lon="0.32675671936654443"><ele>114.99999999999999</ele><time>2026-05-04T12:42:50.001Z</time></trkpt><trkpt lat="41.51847118331266" lon="0.32683307776387366"><ele>114.83333333333334</ele><time>2026-05-04T12:42:51.001Z</time></trkpt><trkpt lat="41.518518180384945" lon="0.3269209584330442"><ele>114.66666666666667</ele><time>2026-05-04T12:42:52.001Z</time></trkpt><trkpt lat="41.51855965861889" lon="0.32701848192904087"><ele>114.5</ele><time>2026-05-04T12:42:53.001Z</time></trkpt><trkpt lat="41.51859437671995" lon="0.3271204703200898"><ele>114.33333333333334</ele><time>2026-05-04T12:42:54.001Z</time></trkpt><trkpt lat="41.51862599056625" lon="0.327227275919072"><ele>114.16666666666667</ele><time>2026-05-04T12:42:55.001Z</time></trkpt><trkpt lat="41.518654331217945" lon="0.32733915207642655"><ele>114.0</ele><time>2026-05-04T12:42:56.001Z</time></trkpt><trkpt lat="41.518680194974586" lon="0.32745631471395525"><ele>113.4</ele><time>2026-05-04T12:42:57.001Z</time></trkpt><trkpt lat="41.51870494815722" lon="0.32757622820695925"><ele>112.80000000000001</ele><time>2026-05-04T12:42:58.001Z</time></trkpt><trkpt lat="41.51873172424482" lon="0.32769980318360914"><ele>112.19999999999999</ele><time>2026-05-04T12:42:59.001Z</time></trkpt><trkpt lat="41.51876033545568" lon="0.32782429936954616"><ele>111.6</ele><time>2026-05-04T12:43:00.001Z</time></trkpt><trkpt lat="41.518785163989754" lon="0.3279522066448977"><ele>111.0</ele><time>2026-05-04T12:43:01.001Z</time></trkpt><trkpt lat="41.51881138226954" lon="0.32808141274712604"><ele>110.4</ele><time>2026-05-04T12:43:02.001Z</time></trkpt><trkpt lat="41.518841854989056" lon="0.32821316742768636"><ele>109.8</ele><time>2026-05-04T12:43:03.001Z</time></trkpt><trkpt lat="41.518869343133304" lon="0.3283462304381633"><ele>109.20000000000002</ele><time>2026-05-04T12:43:04.001Z</time></trkpt><trkpt lat="41.518899892843784" lon="0.32847708314380886"><ele>108.60000000000001</ele><time>2026-05-04T12:43:05.001Z</time></trkpt><trkpt lat="41.518930122260514" lon="0.32860651165072735"><ele>108.0</ele><time>2026-05-04T12:43:06.001Z</time></trkpt><trkpt lat="41.51895726815024" lon="0.3287363687551132"><ele>108.0</ele><time>2026-05-04T12:43:07.001Z</time></trkpt><trkpt lat="41.518986785391995" lon="0.3288645619361193"><ele>108.00000000000001</ele><time>2026-05-04T12:43:08.001Z</time></trkpt><trkpt lat="41.51901551239945" lon="0.3289878680827433"><ele>108.00000000000001</ele><time>2026-05-04T12:43:09.001Z</time></trkpt><trkpt lat="41.51903835537024" lon="0.329113186872993"><ele>108.0</ele><time>2026-05-04T12:43:10.001Z</time></trkpt><trkpt lat="41.5190637660533" lon="0.32923672941574555"><ele>108.0</ele><time>2026-05-04T12:43:11.001Z</time></trkpt><trkpt lat="41.51909281969873" lon="0.32935607166920594"><ele>107.60000000000001</ele><time>2026-05-04T12:43:12.001Z</time></trkpt><trkpt lat="41.519120718356376" lon="0.3294773472053768"><ele>107.20000000000002</ele><time>2026-05-04T12:43:13.001Z</time></trkpt><trkpt lat="41.51914501608554" lon="0.32959782782601293"><ele>106.8</ele><time>2026-05-04T12:43:14.001Z</time></trkpt><trkpt lat="41.519171648487195" lon="0.3297212864947533"><ele>106.4</ele><time>2026-05-04T12:43:15.001Z</time></trkpt><trkpt lat="41.51919790500344" lon="0.32984297167393684"><ele>106.0</ele><time>2026-05-04T12:43:16.001Z</time></trkpt><trkpt lat="41.519223514869694" lon="0.3299599951994206"><ele>105.83333333333334</ele><time>2026-05-04T12:43:17.001Z</time></trkpt><trkpt lat="41.519245954690604" lon="0.33006947583973656"><ele>105.66666666666667</ele><time>2026-05-04T12:43:18.001Z</time></trkpt><trkpt lat="41.519270879578926" lon="0.330173881470394"><ele>105.5</ele><time>2026-05-04T12:43:19.001Z</time></trkpt><trkpt lat="41.51929569276456" lon="0.3302783652020367"><ele>105.33333333333334</ele><time>2026-05-04T12:43:20.001Z</time></trkpt><trkpt lat="41.51931776540023" lon="0.3303812801651421"><ele>105.16666666666667</ele><time>2026-05-04T12:43:21.001Z</time></trkpt><trkpt lat="41.5193391379397" lon="0.3304858935577529"><ele>105.0</ele><time>2026-05-04T12:43:22.001Z</time></trkpt><trkpt lat="41.519364382926966" lon="0.3305882767020442"><ele>105.0</ele><time>2026-05-04T12:43:23.001Z</time></trkpt><trkpt lat="41.51938321468497" lon="0.33069200493925843"><ele>105.0</ele><time>2026-05-04T12:43:24.001Z</time></trkpt><trkpt lat="41.51940147718063" lon="0.33079789638783247"><ele>105.0</ele><time>2026-05-04T12:43:25Z</time></trkpt><trkpt lat="41.5194217183341" lon="0.3309054633693903"><ele>105.0</ele><time>2026-05-04T12:43:26Z</time></trkpt><trkpt lat="41.519447139414645" lon="0.3310136259411486"><ele>105.0</ele><time>2026-05-04T12:43:27Z</time></trkpt><trkpt lat="41.51947751287219" lon="0.33112114316908625"><ele>105.0</ele><time>2026-05-04T12:43:28Z</time></trkpt><trkpt lat="41.51950541866575" lon="0.3312294389934594"><ele>105.0</ele><time>2026-05-04T12:43:29Z</time></trkpt><trkpt lat="41.519530132738964" lon="0.33134167126630687"><ele>105.0</ele><time>2026-05-04T12:43:30Z</time></trkpt><trkpt lat="41.519552219724446" lon="0.33145791435349814"><ele>105.0</ele><time>2026-05-04T12:43:31Z</time></trkpt><trkpt lat="41.519576674681154" lon="0.3315766237404253"><ele>105.0</ele><time>2026-05-04T12:43:32Z</time></trkpt><trkpt lat="41.51960067858443" lon="0.3316958276702045"><ele>105.0</ele><time>2026-05-04T12:43:33Z</time></trkpt><trkpt lat="41.51961721448215" lon="0.3318185737933618"><ele>105.6</ele><time>2026-05-04T12:43:34Z</time></trkpt><trkpt lat="41.51964388728226" lon="0.33194111347218647"><ele>106.2</ele><time>2026-05-04T12:43:35Z</time></trkpt><trkpt lat="41.5196731818568" lon="0.33206347417311655"><ele>106.80000000000001</ele><time>2026-05-04T12:43:36Z</time></trkpt><trkpt lat="41.51970358023911" lon="0.3321868384529066"><ele>107.4</ele><time>2026-05-04T12:43:37Z</time></trkpt><trkpt lat="41.51973538648625" lon="0.3323088140960649"><ele>108.0</ele><time>2026-05-04T12:43:38Z</time></trkpt><trkpt lat="41.51975203262851" lon="0.3324319685518862"><ele>108.0</ele><time>2026-05-04T12:43:39Z</time></trkpt><trkpt lat="41.51977790624525" lon="0.33255024805528227"><ele>108.0</ele><time>2026-05-04T12:43:40Z</time></trkpt><trkpt lat="41.51980325610189" lon="0.33266613309177645"><ele>108.0</ele><time>2026-05-04T12:43:41Z</time></trkpt><trkpt lat="41.51982793169101" lon="0.3327789357367281"><ele>108.0</ele><time>2026-05-04T12:43:42Z</time></trkpt><trkpt lat="41.51985187519021" lon="0.332888391738222"><ele>108.0</ele><time>2026-05-04T12:43:43Z</time></trkpt><trkpt lat="41.5198762408162" lon="0.33300081248288566"><ele>108.0</ele><time>2026-05-04T12:43:44Z</time></trkpt><trkpt lat="41.51990070569894" lon="0.3331141206261978"><ele>108.16666666666667</ele><time>2026-05-04T12:43:45Z</time></trkpt><trkpt lat="41.51992461068045" lon="0.333224835427569"><ele>108.33333333333334</ele><time>2026-05-04T12:43:46Z</time></trkpt><trkpt lat="41.51994795486867" lon="0.3333329529729066"><ele>108.5</ele><time>2026-05-04T12:43:47Z</time></trkpt><trkpt lat="41.519971620218364" lon="0.33344255806566153"><ele>108.66666666666667</ele><time>2026-05-04T12:43:48Z</time></trkpt><trkpt lat="41.519994693267876" lon="0.3335494198334015"><ele>108.83333333333334</ele><time>2026-05-04T12:43:49Z</time></trkpt><trkpt lat="41.5200176442099" lon="0.33365571613220985"><ele>109.0</ele><time>2026-05-04T12:43:50Z</time></trkpt><trkpt lat="41.52004009406996" lon="0.3337596916659"><ele>109.00000000000001</ele><time>2026-05-04T12:43:51Z</time></trkpt><trkpt lat="41.52006265227915" lon="0.3338641690888286"><ele>109.0</ele><time>2026-05-04T12:43:52Z</time></trkpt><trkpt lat="41.52008557599116" lon="0.3339703421503619"><ele>109.0</ele><time>2026-05-04T12:43:53Z</time></trkpt><trkpt lat="41.52010642511295" lon="0.33406682950417876"><ele>109.0</ele><time>2026-05-04T12:43:54Z</time></trkpt><trkpt lat="41.52012591563971" lon="0.33415599569251087"><ele>109.00000000000001</ele><time>2026-05-04T12:43:55Z</time></trkpt><trkpt lat="41.52014469625501" lon="0.3342419145475816"><ele>109.0</ele><time>2026-05-04T12:43:56Z</time></trkpt><trkpt lat="41.52017577488307" lon="0.3343840949579591"><ele>109.00000000000001</ele><time>2026-05-04T12:43:58Z</time></trkpt><trkpt lat="41.52019900459863" lon="0.3344718753225735"><ele>109.0</ele><time>2026-05-04T12:44:00Z</time></trkpt><trkpt lat="41.52021379881124" lon="0.3345589857089995"><ele>109.0</ele><time>2026-05-04T12:44:04Z</time></trkpt><trkpt lat="41.5202136445897" lon="0.33474602576644635"><ele>109.0</ele><time>2026-05-04T12:45:11.001Z</time></trkpt><trkpt lat="41.52022380618154" lon="0.3346595266647573"><ele>109.00000000000001</ele><time>2026-05-04T12:45:41Z</time></trkpt><trkpt lat="41.52015971900822" lon="0.334724865626077"><ele>109.0</ele><time>2026-05-04T12:51:43.001Z</time></trkpt><trkpt lat="41.52024580308946" lon="0.33475117447376057"><ele>108.50000000000001</ele><time>2026-05-04T12:51:56.999Z</time></trkpt><trkpt lat="41.52027454866742" lon="0.33483743658231346"><ele>108.0</ele><time>2026-05-04T12:51:58.999Z</time></trkpt><trkpt lat="41.52030586438687" lon="0.3349817000541328"><ele>107.5</ele><time>2026-05-04T12:52:00.999Z</time></trkpt><trkpt lat="41.52034049092417" lon="0.33514121599712476"><ele>107.0</ele><time>2026-05-04T12:52:02.999Z</time></trkpt><trkpt lat="41.520359700113225" lon="0.3352297108478048"><ele>106.50000000000001</ele><time>2026-05-04T12:52:03.999Z</time></trkpt><trkpt lat="41.520377852744055" lon="0.33531321579990253"><ele>106.0</ele><time>2026-05-04T12:52:04.999Z</time></trkpt><trkpt lat="41.5203967817848" lon="0.3354003455032776"><ele>106.16666666666667</ele><time>2026-05-04T12:52:05.999Z</time></trkpt><trkpt lat="41.52041669051597" lon="0.3354919846828758"><ele>106.33333333333334</ele><time>2026-05-04T12:52:06.999Z</time></trkpt><trkpt lat="41.52043812750112" lon="0.335584848516469"><ele>106.5</ele><time>2026-05-04T12:52:08Z</time></trkpt><trkpt lat="41.52046035580887" lon="0.3356794217488007"><ele>106.66666666666666</ele><time>2026-05-04T12:52:09Z</time></trkpt><trkpt lat="41.52048726450094" lon="0.335779866659831"><ele>106.83333333333333</ele><time>2026-05-04T12:52:10Z</time></trkpt><trkpt lat="41.52051737136885" lon="0.3358758458268878"><ele>107.0</ele><time>2026-05-04T12:52:11Z</time></trkpt><trkpt lat="41.52054908731279" lon="0.3359733106952692"><ele>106.99999999999999</ele><time>2026-05-04T12:52:12Z</time></trkpt><trkpt lat="41.52059306648502" lon="0.33606940545906355"><ele>107.0</ele><time>2026-05-04T12:52:13Z</time></trkpt><trkpt lat="41.52063175790642" lon="0.33615956740090297"><ele>107.0</ele><time>2026-05-04T12:52:14Z</time></trkpt><trkpt lat="41.520666568397594" lon="0.33624068907228305"><ele>107.0</ele><time>2026-05-04T12:52:15Z</time></trkpt><trkpt lat="41.52071433462615" lon="0.33632899432600366"><ele>106.99999999999999</ele><time>2026-05-04T12:52:17Z</time></trkpt><trkpt lat="41.520761075881836" lon="0.33645748525402025"><ele>107.0</ele><time>2026-05-04T12:52:20Z</time></trkpt><trkpt lat="41.52079613946978" lon="0.3365982943090861"><ele>106.99999999999999</ele><time>2026-05-04T12:52:22Z</time></trkpt><trkpt lat="41.52089246059298" lon="0.33666717823216924"><ele>107.0</ele><time>2026-05-04T12:52:24Z</time></trkpt><trkpt lat="41.520969686730396" lon="0.33664972561623097"><ele>107.0</ele><time>2026-05-04T12:52:26Z</time></trkpt><trkpt lat="41.52101471091976" lon="0.3367822135730824"><ele>107.0</ele><time>2026-05-04T12:52:27Z</time></trkpt><trkpt lat="41.52105913174921" lon="0.3368447408038497"><ele>106.99999999999999</ele><time>2026-05-04T12:52:28Z</time></trkpt><trkpt lat="41.521106670682705" lon="0.3369132298344466"><ele>107.0</ele><time>2026-05-04T12:52:29Z</time></trkpt><trkpt lat="41.521157665401226" lon="0.33698666590801396"><ele>106.99999999999999</ele><time>2026-05-04T12:52:30Z</time></trkpt><trkpt lat="41.52121207219568" lon="0.3370643242345776"><ele>107.0</ele><time>2026-05-04T12:52:31Z</time></trkpt><trkpt lat="41.521269441388256" lon="0.33714505835799363"><ele>107.0</ele><time>2026-05-04T12:52:32Z</time></trkpt><trkpt lat="41.521327604325016" lon="0.33722685668541924"><ele>107.0</ele><time>2026-05-04T12:52:33Z</time></trkpt><trkpt lat="41.521388162074665" lon="0.3373120229528611"><ele>106.99999999999999</ele><time>2026-05-04T12:52:34Z</time></trkpt><trkpt lat="41.521451074962066" lon="0.3374005013885867"><ele>107.0</ele><time>2026-05-04T12:52:35Z</time></trkpt><trkpt lat="41.52151513799165" lon="0.33749059733936615"><ele>106.39999999999999</ele><time>2026-05-04T12:52:36Z</time></trkpt><trkpt lat="41.521579746281965" lon="0.3375814601703017"><ele>105.79999999999998</ele><time>2026-05-04T12:52:37Z</time></trkpt><trkpt lat="41.52164615375549" lon="0.3376748532749061"><ele>105.2</ele><time>2026-05-04T12:52:38Z</time></trkpt><trkpt lat="41.52171325227175" lon="0.3377690346582848"><ele>104.6</ele><time>2026-05-04T12:52:39Z</time></trkpt><trkpt lat="41.521781493113735" lon="0.3378648036185191"><ele>104.0</ele><time>2026-05-04T12:52:40Z</time></trkpt><trkpt lat="41.52184913415698" lon="0.3379597307899004"><ele>104.0</ele><time>2026-05-04T12:52:41Z</time></trkpt><trkpt lat="41.52191679771555" lon="0.338054940305468"><ele>104.0</ele><time>2026-05-04T12:52:42Z</time></trkpt><trkpt lat="41.521986020301455" lon="0.33815245248421966"><ele>104.0</ele><time>2026-05-04T12:52:43Z</time></trkpt><trkpt lat="41.522057540027795" lon="0.3382532005143649"><ele>104.0</ele><time>2026-05-04T12:52:44Z</time></trkpt><trkpt lat="41.52212551320264" lon="0.3383491278438878"><ele>104.0</ele><time>2026-05-04T12:52:45Z</time></trkpt><trkpt lat="41.52219533195806" lon="0.33844780814114406"><ele>104.0</ele><time>2026-05-04T12:52:46Z</time></trkpt><trkpt lat="41.522268627347955" lon="0.33855140229385333"><ele>104.0</ele><time>2026-05-04T12:52:47Z</time></trkpt><trkpt lat="41.52234223094667" lon="0.33865532127109815"><ele>104.0</ele><time>2026-05-04T12:52:48Z</time></trkpt><trkpt lat="41.5224157982552" lon="0.33875912331891694"><ele>104.0</ele><time>2026-05-04T12:52:49Z</time></trkpt><trkpt lat="41.52249027921033" lon="0.338864214414623"><ele>104.0</ele><time>2026-05-04T12:52:50Z</time></trkpt><trkpt lat="41.522573375730936" lon="0.3389531266174156"><ele>104.0</ele><time>2026-05-04T12:52:51Z</time></trkpt><trkpt lat="41.522636577713634" lon="0.33905709306198356"><ele>104.0</ele><time>2026-05-04T12:52:52Z</time></trkpt><trkpt lat="41.52270067048503" lon="0.33915591388260413"><ele>104.0</ele><time>2026-05-04T12:52:53Z</time></trkpt><trkpt lat="41.522772152827066" lon="0.3392508074968916"><ele>104.0</ele><time>2026-05-04T12:52:54Z</time></trkpt><trkpt lat="41.52284506973749" lon="0.3393442976911637"><ele>104.0</ele><time>2026-05-04T12:52:55Z</time></trkpt><trkpt lat="41.52291390189238" lon="0.33943071779510064"><ele>103.99999999999999</ele><time>2026-05-04T12:52:56Z</time></trkpt><trkpt lat="41.52297307372586" lon="0.33951446768627974"><ele>104.0</ele><time>2026-05-04T12:52:57Z</time></trkpt><trkpt lat="41.52302898680292" lon="0.3395938100610589"><ele>104.0</ele><time>2026-05-04T12:52:58Z</time></trkpt><trkpt lat="41.523070507749395" lon="0.33968430136014977"><ele>104.0</ele><time>2026-05-04T12:52:59Z</time></trkpt><trkpt lat="41.523127571546425" lon="0.33975270560224047"><ele>103.99999999999999</ele><time>2026-05-04T12:53:00Z</time></trkpt><trkpt lat="41.52317481445158" lon="0.3398232549626722"><ele>104.0</ele><time>2026-05-04T12:53:01Z</time></trkpt><trkpt lat="41.52321723654992" lon="0.3398867756933713"><ele>103.99999999999999</ele><time>2026-05-04T12:53:02Z</time></trkpt><trkpt lat="41.52329689157957" lon="0.3399817648365229"><ele>104.0</ele><time>2026-05-04T12:53:04Z</time></trkpt><trkpt lat="41.52334871145221" lon="0.3400693007653977"><ele>104.0</ele><time>2026-05-04T12:53:06Z</time></trkpt><trkpt lat="41.523378481394936" lon="0.3401634122587152"><ele>104.0</ele><time>2026-05-04T12:53:08Z</time></trkpt><trkpt lat="41.52339879882907" lon="0.3402624413376173"><ele>103.99999999999999</ele><time>2026-05-04T12:53:11Z</time></trkpt><trkpt lat="41.52342398529818" lon="0.34034328543391423"><ele>104.0</ele><time>2026-05-04T12:53:13Z</time></trkpt><trkpt lat="41.5234423224763" lon="0.34045515441587293"><ele>103.83333333333333</ele><time>2026-05-04T12:53:15.001Z</time></trkpt><trkpt lat="41.523469599685185" lon="0.3406082076555647"><ele>103.66666666666666</ele><time>2026-05-04T12:53:17.001Z</time></trkpt><trkpt lat="41.52354562812883" lon="0.34073445017405535"><ele>103.5</ele><time>2026-05-04T12:53:19.001Z</time></trkpt><trkpt lat="41.523564611256035" lon="0.3408146403551886"><ele>103.33333333333334</ele><time>2026-05-04T12:53:20.001Z</time></trkpt><trkpt lat="41.52358605184908" lon="0.3408959944621885"><ele>103.16666666666667</ele><time>2026-05-04T12:53:21.001Z</time></trkpt><trkpt lat="41.52360875737111" lon="0.3409842214601049"><ele>103.0</ele><time>2026-05-04T12:53:22.001Z</time></trkpt><trkpt lat="41.52363160527176" lon="0.3410745821147772"><ele>103.00000000000001</ele><time>2026-05-04T12:53:23.001Z</time></trkpt><trkpt lat="41.52365530772502" lon="0.34117339222256526"><ele>103.0</ele><time>2026-05-04T12:53:24.001Z</time></trkpt><trkpt lat="41.5236834000036" lon="0.3412768440734683"><ele>103.0</ele><time>2026-05-04T12:53:25.001Z</time></trkpt><trkpt lat="41.523709718450824" lon="0.34138243935192053"><ele>103.0</ele><time>2026-05-04T12:53:26.001Z</time></trkpt><trkpt lat="41.523737442027496" lon="0.34149077849794757"><ele>103.00000000000001</ele><time>2026-05-04T12:53:27.001Z</time></trkpt><trkpt lat="41.523760908403254" lon="0.34160144161228984"><ele>103.0</ele><time>2026-05-04T12:53:28.001Z</time></trkpt><trkpt lat="41.52378873411022" lon="0.34171262270649655"><ele>103.0</ele><time>2026-05-04T12:53:29.001Z</time></trkpt><trkpt lat="41.523817128394185" lon="0.34182607173485857"><ele>103.0</ele><time>2026-05-04T12:53:30.001Z</time></trkpt><trkpt lat="41.52384387826193" lon="0.3419430366609371"><ele>103.0</ele><time>2026-05-04T12:53:31.001Z</time></trkpt><trkpt lat="41.52387853572908" lon="0.3420592843281849"><ele>103.0</ele><time>2026-05-04T12:53:32.001Z</time></trkpt><trkpt lat="41.523915554685594" lon="0.34218195714263644"><ele>103.0</ele><time>2026-05-04T12:53:33.001Z</time></trkpt><trkpt lat="41.523949338369356" lon="0.3423073712643002"><ele>103.0</ele><time>2026-05-04T12:53:34.001Z</time></trkpt><trkpt lat="41.52397711449971" lon="0.3424381574937952"><ele>103.0</ele><time>2026-05-04T12:53:35.001Z</time></trkpt><trkpt lat="41.52401112471526" lon="0.3425645570583031"><ele>103.0</ele><time>2026-05-04T12:53:36.001Z</time></trkpt><trkpt lat="41.524043423953515" lon="0.3426936120719875"><ele>103.0</ele><time>2026-05-04T12:53:37.001Z</time></trkpt><trkpt lat="41.52407770528185" lon="0.3428254150181721"><ele>103.0</ele><time>2026-05-04T12:53:38.001Z</time></trkpt><trkpt lat="41.52411332368502" lon="0.34295796347787616"><ele>103.0</ele><time>2026-05-04T12:53:39.001Z</time></trkpt><trkpt lat="41.524147029019645" lon="0.34309315592065187"><ele>103.0</ele><time>2026-05-04T12:53:40.001Z</time></trkpt><trkpt lat="41.52417784022542" lon="0.34321966688461086"><ele>103.0</ele><time>2026-05-04T12:53:41.001Z</time></trkpt><trkpt lat="41.524214204565816" lon="0.34335540820271776"><ele>103.0</ele><time>2026-05-04T12:53:42.001Z</time></trkpt><trkpt lat="41.52425056487041" lon="0.3434732277413767"><ele>103.0</ele><time>2026-05-04T12:53:43.001Z</time></trkpt><trkpt lat="41.52428539116371" lon="0.3436181898677974"><ele>103.0</ele><time>2026-05-04T12:53:44.001Z</time></trkpt><trkpt lat="41.52432228477433" lon="0.34373568025869744"><ele>103.0</ele><time>2026-05-04T12:53:45.001Z</time></trkpt><trkpt lat="41.52435833632457" lon="0.3438633274808437"><ele>103.0</ele><time>2026-05-04T12:53:46.001Z</time></trkpt><trkpt lat="41.524389453563415" lon="0.3440018028798109"><ele>103.0</ele><time>2026-05-04T12:53:47.001Z</time></trkpt><trkpt lat="41.524421649382624" lon="0.3441339067499084"><ele>103.0</ele><time>2026-05-04T12:53:48.001Z</time></trkpt><trkpt lat="41.524459732890456" lon="0.34426883159813215"><ele>102.2</ele><time>2026-05-04T12:53:49.001Z</time></trkpt><trkpt lat="41.52449699944914" lon="0.3443944491880481"><ele>101.4</ele><time>2026-05-04T12:53:50.001Z</time></trkpt><trkpt lat="41.52453406611172" lon="0.34453451103880617"><ele>100.60000000000001</ele><time>2026-05-04T12:53:51.001Z</time></trkpt><trkpt lat="41.52456715053414" lon="0.3446618481234513"><ele>99.80000000000001</ele><time>2026-05-04T12:53:52.001Z</time></trkpt><trkpt lat="41.52460263970467" lon="0.34479778384793197"><ele>99.0</ele><time>2026-05-04T12:53:53.001Z</time></trkpt><trkpt lat="41.524636100166916" lon="0.34493581545779073"><ele>98.6</ele><time>2026-05-04T12:53:54.001Z</time></trkpt><trkpt lat="41.524669427126945" lon="0.345071412639695"><ele>98.2</ele><time>2026-05-04T12:53:54.998Z</time></trkpt><trkpt lat="41.524703771164646" lon="0.3452035900741423"><ele>97.8</ele><time>2026-05-04T12:53:55.998Z</time></trkpt><trkpt lat="41.52473864891721" lon="0.34532904602107806"><ele>97.39999999999999</ele><time>2026-05-04T12:53:56.998Z</time></trkpt><trkpt lat="41.52477560124748" lon="0.34545995925542833"><ele>97.0</ele><time>2026-05-04T12:53:57.998Z</time></trkpt><trkpt lat="41.524813179209666" lon="0.3455852466690244"><ele>97.0</ele><time>2026-05-04T12:53:58.998Z</time></trkpt><trkpt lat="41.524847863131434" lon="0.34571508051449557"><ele>97.0</ele><time>2026-05-04T12:53:59.999Z</time></trkpt><trkpt lat="41.52488272494961" lon="0.3458482731691052"><ele>97.0</ele><time>2026-05-04T12:54:00.999Z</time></trkpt><trkpt lat="41.5249168590381" lon="0.34597914317473605"><ele>97.0</ele><time>2026-05-04T12:54:01.999Z</time></trkpt><trkpt lat="41.52495533998922" lon="0.3461098939537143"><ele>97.0</ele><time>2026-05-04T12:54:02.999Z</time></trkpt><trkpt lat="41.5249930198935" lon="0.3462394133067681"><ele>97.0</ele><time>2026-05-04T12:54:03.999Z</time></trkpt><trkpt lat="41.525029610947385" lon="0.3463701408742714"><ele>97.0</ele><time>2026-05-04T12:54:04.999Z</time></trkpt><trkpt lat="41.52506453910413" lon="0.3465018606590995"><ele>97.0</ele><time>2026-05-04T12:54:05.999Z</time></trkpt><trkpt lat="41.52509975869137" lon="0.3466345070356974"><ele>97.0</ele><time>2026-05-04T12:54:06.999Z</time></trkpt><trkpt lat="41.525134601096454" lon="0.34676192079472207"><ele>97.0</ele><time>2026-05-04T12:54:07.999Z</time></trkpt><trkpt lat="41.525166893050105" lon="0.34689060202613214"><ele>98.6</ele><time>2026-05-04T12:54:08.999Z</time></trkpt><trkpt lat="41.52520035818457" lon="0.3470219462431464"><ele>100.19999999999999</ele><time>2026-05-04T12:54:09.999Z</time></trkpt><trkpt lat="41.52522749983713" lon="0.34714616816641103"><ele>101.8</ele><time>2026-05-04T12:54:10.999Z</time></trkpt><trkpt lat="41.52526162027448" lon="0.3472719371003481"><ele>103.4</ele><time>2026-05-04T12:54:11.999Z</time></trkpt><trkpt lat="41.52529301020989" lon="0.3473962000211921"><ele>105.0</ele><time>2026-05-04T12:54:12.999Z</time></trkpt><trkpt lat="41.525321746842465" lon="0.3475221667222176"><ele>106.0</ele><time>2026-05-04T12:54:13.999Z</time></trkpt><trkpt lat="41.525354577974305" lon="0.34764167716955535"><ele>107.0</ele><time>2026-05-04T12:54:14.999Z</time></trkpt><trkpt lat="41.52537251754228" lon="0.34776955945650656"><ele>108.0</ele><time>2026-05-04T12:54:15.999Z</time></trkpt><trkpt lat="41.525389661600464" lon="0.3479021162248039"><ele>109.0</ele><time>2026-05-04T12:54:16.999Z</time></trkpt><trkpt lat="41.52540553514376" lon="0.3480252326977219"><ele>110.0</ele><time>2026-05-04T12:54:17.999Z</time></trkpt><trkpt lat="41.525408532006914" lon="0.3481591462542473"><ele>110.2</ele><time>2026-05-04T12:54:18.999Z</time></trkpt><trkpt lat="41.52540820124698" lon="0.3482822820450522"><ele>110.4</ele><time>2026-05-04T12:54:19.999Z</time></trkpt><trkpt lat="41.525399369572554" lon="0.3484032725758937"><ele>110.6</ele><time>2026-05-04T12:54:20.999Z</time></trkpt><trkpt lat="41.5253870182246" lon="0.34852373773923695"><ele>110.8</ele><time>2026-05-04T12:54:21.999Z</time></trkpt><trkpt lat="41.5253683654442" lon="0.3486418851446273"><ele>111.0</ele><time>2026-05-04T12:54:22.999Z</time></trkpt><trkpt lat="41.525346191593144" lon="0.34875701070288606"><ele>114.33333333333333</ele><time>2026-05-04T12:54:23.999Z</time></trkpt><trkpt lat="41.52532503274904" lon="0.3488710792755642"><ele>117.66666666666666</ele><time>2026-05-04T12:54:24.999Z</time></trkpt><trkpt lat="41.52529884078613" lon="0.34898338263323153"><ele>121.0</ele><time>2026-05-04T12:54:26Z</time></trkpt><trkpt lat="41.52527156228456" lon="0.34909416836813784"><ele>124.33333333333333</ele><time>2026-05-04T12:54:27Z</time></trkpt><trkpt lat="41.52524357226466" lon="0.3492035034439263"><ele>127.66666666666666</ele><time>2026-05-04T12:54:28Z</time></trkpt><trkpt lat="41.525217454843954" lon="0.3493133495588061"><ele>131.0</ele><time>2026-05-04T12:54:29Z</time></trkpt><trkpt lat="41.52519049693517" lon="0.3494226507538087"><ele>131.0</ele><time>2026-05-04T12:54:30Z</time></trkpt><trkpt lat="41.52516447460402" lon="0.3495303287608636"><ele>131.0</ele><time>2026-05-04T12:54:31Z</time></trkpt><trkpt lat="41.52513773567432" lon="0.3496376717975104"><ele>131.0</ele><time>2026-05-04T12:54:32Z</time></trkpt><trkpt lat="41.525109950869435" lon="0.3497452486639941"><ele>131.0</ele><time>2026-05-04T12:54:33Z</time></trkpt><trkpt lat="41.52508394271628" lon="0.34985321700881694"><ele>131.0</ele><time>2026-05-04T12:54:34Z</time></trkpt><trkpt lat="41.52505530315581" lon="0.34996086500271983"><ele>131.0</ele><time>2026-05-04T12:54:35Z</time></trkpt><trkpt lat="41.52502618646641" lon="0.3500666120527259"><ele>130.16666666666666</ele><time>2026-05-04T12:54:36Z</time></trkpt><trkpt lat="41.52499551114549" lon="0.3501719694588076"><ele>129.33333333333331</ele><time>2026-05-04T12:54:37Z</time></trkpt><trkpt lat="41.52496944445845" lon="0.35027754495077795"><ele>128.5</ele><time>2026-05-04T12:54:38Z</time></trkpt><trkpt lat="41.524940076898396" lon="0.35038428996840354"><ele>127.66666666666666</ele><time>2026-05-04T12:54:39Z</time></trkpt><trkpt lat="41.52491280927013" lon="0.3504910549609708"><ele>126.83333333333333</ele><time>2026-05-04T12:54:40Z</time></trkpt><trkpt lat="41.52488539823996" lon="0.35059568454776"><ele>126.0</ele><time>2026-05-04T12:54:41Z</time></trkpt><trkpt lat="41.52485792553223" lon="0.35070024828851665"><ele>125.83333333333333</ele><time>2026-05-04T12:54:42Z</time></trkpt><trkpt lat="41.52482998211048" lon="0.3508019957709253"><ele>125.66666666666666</ele><time>2026-05-04T12:54:43Z</time></trkpt><trkpt lat="41.52480384422633" lon="0.3509063382402517"><ele>125.5</ele><time>2026-05-04T12:54:44Z</time></trkpt><trkpt lat="41.524776357387076" lon="0.3510092542955585"><ele>125.33333333333333</ele><time>2026-05-04T12:54:45Z</time></trkpt><trkpt lat="41.524745436042586" lon="0.35111150046256134"><ele>125.16666666666666</ele><time>2026-05-04T12:54:46Z</time></trkpt><trkpt lat="41.524715016197035" lon="0.35121212400012874"><ele>125.0</ele><time>2026-05-04T12:54:47Z</time></trkpt><trkpt lat="41.52468594237924" lon="0.3513118511988268"><ele>124.49999999999999</ele><time>2026-05-04T12:54:48Z</time></trkpt><trkpt lat="41.524657718358945" lon="0.3514134360758096"><ele>124.0</ele><time>2026-05-04T12:54:49Z</time></trkpt><trkpt lat="41.52463121661213" lon="0.3515163653250619"><ele>123.5</ele><time>2026-05-04T12:54:50Z</time></trkpt><trkpt lat="41.52460570010288" lon="0.35161913922541105"><ele>123.0</ele><time>2026-05-04T12:54:51Z</time></trkpt><trkpt lat="41.524579961825005" lon="0.3517212915242037"><ele>122.49999999999999</ele><time>2026-05-04T12:54:52Z</time></trkpt><trkpt lat="41.52455426864288" lon="0.35182254198630797"><ele>122.0</ele><time>2026-05-04T12:54:53Z</time></trkpt><trkpt lat="41.52452558419282" lon="0.35192522083910827"><ele>126.99999999999999</ele><time>2026-05-04T12:54:54Z</time></trkpt><trkpt lat="41.52449654619892" lon="0.35202892513572986"><ele>132.0</ele><time>2026-05-04T12:54:55Z</time></trkpt><trkpt lat="41.5244678928488" lon="0.3521335613636567"><ele>137.0</ele><time>2026-05-04T12:54:56Z</time></trkpt><trkpt lat="41.52443815128133" lon="0.35223828231990434"><ele>142.0</ele><time>2026-05-04T12:54:57Z</time></trkpt><trkpt lat="41.524408781171694" lon="0.3523445357424644"><ele>147.0</ele><time>2026-05-04T12:54:58Z</time></trkpt><trkpt lat="41.52437904727888" lon="0.35244969409629556"><ele>152.0</ele><time>2026-05-04T12:54:59Z</time></trkpt><trkpt lat="41.52435058879943" lon="0.35255518891933924"><ele>152.0</ele><time>2026-05-04T12:55:00Z</time></trkpt><trkpt lat="41.52432233752714" lon="0.35266373419525476"><ele>152.0</ele><time>2026-05-04T12:55:01Z</time></trkpt><trkpt lat="41.52429391584163" lon="0.3527718816030085"><ele>152.0</ele><time>2026-05-04T12:55:02Z</time></trkpt><trkpt lat="41.52426228419091" lon="0.3528793261623392"><ele>152.0</ele><time>2026-05-04T12:55:03Z</time></trkpt><trkpt lat="41.52423040429529" lon="0.3529866317640814"><ele>152.0</ele><time>2026-05-04T12:55:04Z</time></trkpt><trkpt lat="41.52420017114027" lon="0.35309375469326465"><ele>152.0</ele><time>2026-05-04T12:55:05Z</time></trkpt><trkpt lat="41.52417165678033" lon="0.35319984301451846"><ele>150.83333333333331</ele><time>2026-05-04T12:55:06Z</time></trkpt><trkpt lat="41.52414103688062" lon="0.35330483822407105"><ele>149.66666666666666</ele><time>2026-05-04T12:55:07Z</time></trkpt><trkpt lat="41.524113170587405" lon="0.3534113062909916"><ele>148.5</ele><time>2026-05-04T12:55:08Z</time></trkpt><trkpt lat="41.52408742422631" lon="0.353516429131589"><ele>147.33333333333334</ele><time>2026-05-04T12:55:09Z</time></trkpt><trkpt lat="41.524060918836035" lon="0.3536218174586637"><ele>146.16666666666669</ele><time>2026-05-04T12:55:10Z</time></trkpt><trkpt lat="41.52403494935192" lon="0.3537237664851013"><ele>145.0</ele><time>2026-05-04T12:55:11Z</time></trkpt><trkpt lat="41.52400850122772" lon="0.35382346255422864"><ele>146.16666666666669</ele><time>2026-05-04T12:55:12Z</time></trkpt><trkpt lat="41.52398118941703" lon="0.3539224542086995"><ele>147.33333333333334</ele><time>2026-05-04T12:55:13Z</time></trkpt><trkpt lat="41.523956177317864" lon="0.3540218674279878"><ele>148.5</ele><time>2026-05-04T12:55:14Z</time></trkpt><trkpt lat="41.5239306107564" lon="0.3541225635431665"><ele>149.66666666666666</ele><time>2026-05-04T12:55:15.001Z</time></trkpt><trkpt lat="41.523904319544414" lon="0.3542203341011193"><ele>150.83333333333331</ele><time>2026-05-04T12:55:16.001Z</time></trkpt><trkpt lat="41.523876887408456" lon="0.35431890852165293"><ele>152.0</ele><time>2026-05-04T12:55:17.001Z</time></trkpt><trkpt lat="41.523847420948556" lon="0.35441956147025366"><ele>152.0</ele><time>2026-05-04T12:55:18.001Z</time></trkpt><trkpt lat="41.52382032212296" lon="0.35451666341027194"><ele>152.0</ele><time>2026-05-04T12:55:19.001Z</time></trkpt><trkpt lat="41.52379449279676" lon="0.35461734630971203"><ele>152.0</ele><time>2026-05-04T12:55:20.001Z</time></trkpt><trkpt lat="41.523770387500335" lon="0.35471672657646985"><ele>152.0</ele><time>2026-05-04T12:55:21.001Z</time></trkpt><trkpt lat="41.523744898576496" lon="0.35481642992830764"><ele>152.0</ele><time>2026-05-04T12:55:22.001Z</time></trkpt><trkpt lat="41.52371729045693" lon="0.35491493246898775"><ele>152.0</ele><time>2026-05-04T12:55:23.001Z</time></trkpt><trkpt lat="41.52369212752374" lon="0.3550133037070679"><ele>153.0</ele><time>2026-05-04T12:55:24.001Z</time></trkpt><trkpt lat="41.52366876295542" lon="0.3551119070610135"><ele>154.0</ele><time>2026-05-04T12:55:25.001Z</time></trkpt><trkpt lat="41.52364410624717" lon="0.35521111901005753"><ele>155.0</ele><time>2026-05-04T12:55:26.001Z</time></trkpt><trkpt lat="41.523618282545286" lon="0.35530936673022095"><ele>156.0</ele><time>2026-05-04T12:55:27.001Z</time></trkpt><trkpt lat="41.52359184252498" lon="0.3554064135617602"><ele>157.0</ele><time>2026-05-04T12:55:28.001Z</time></trkpt><trkpt lat="41.523564512091575" lon="0.3555033815055544"><ele>158.0</ele><time>2026-05-04T12:55:29.001Z</time></trkpt><trkpt lat="41.52353979716255" lon="0.35560156377291713"><ele>158.0</ele><time>2026-05-04T12:55:30.001Z</time></trkpt><trkpt lat="41.523513913624384" lon="0.35569993807469186"><ele>158.0</ele><time>2026-05-04T12:55:31.001Z</time></trkpt><trkpt lat="41.52348891207339" lon="0.35579667453096075"><ele>158.0</ele><time>2026-05-04T12:55:32.001Z</time></trkpt><trkpt lat="41.523462085722905" lon="0.3558922056438116"><ele>158.0</ele><time>2026-05-04T12:55:33.001Z</time></trkpt><trkpt lat="41.52343667668922" lon="0.35599048143767215"><ele>158.0</ele><time>2026-05-04T12:55:34.001Z</time></trkpt><trkpt lat="41.52341855264676" lon="0.3560911280372647"><ele>158.0</ele><time>2026-05-04T12:55:35.001Z</time></trkpt><trkpt lat="41.52340025963151" lon="0.3561920865505939"><ele>158.0</ele><time>2026-05-04T12:55:36.001Z</time></trkpt><trkpt lat="41.52338434270116" lon="0.35629372503854934"><ele>158.0</ele><time>2026-05-04T12:55:37.001Z</time></trkpt><trkpt lat="41.523372373626074" lon="0.35639780351555644"><ele>158.0</ele><time>2026-05-04T12:55:38.001Z</time></trkpt><trkpt lat="41.5233646688208" lon="0.35650284547181965"><ele>158.0</ele><time>2026-05-04T12:55:39.001Z</time></trkpt><trkpt lat="41.523360245221276" lon="0.35661227093730713"><ele>158.0</ele><time>2026-05-04T12:55:40.001Z</time></trkpt><trkpt lat="41.52335814774641" lon="0.35672284188537645"><ele>158.0</ele><time>2026-05-04T12:55:41.001Z</time></trkpt><trkpt lat="41.52336492263381" lon="0.3568349767956762"><ele>157.83333333333331</ele><time>2026-05-04T12:55:42.001Z</time></trkpt><trkpt lat="41.523375214070455" lon="0.3569471920223134"><ele>157.66666666666666</ele><time>2026-05-04T12:55:43.001Z</time></trkpt><trkpt lat="41.52338857071333" lon="0.3570587261992849"><ele>157.5</ele><time>2026-05-04T12:55:44.001Z</time></trkpt><trkpt lat="41.523403375011206" lon="0.3571718664848215"><ele>157.33333333333334</ele><time>2026-05-04T12:55:45.001Z</time></trkpt><trkpt lat="41.52341648213229" lon="0.35729087707023444"><ele>157.16666666666669</ele><time>2026-05-04T12:55:46.001Z</time></trkpt><trkpt lat="41.52343575138132" lon="0.3574094936907343"><ele>157.0</ele><time>2026-05-04T12:55:47.001Z</time></trkpt><trkpt lat="41.52345493886338" lon="0.3575296220942786"><ele>157.0</ele><time>2026-05-04T12:55:48.001Z</time></trkpt><trkpt lat="41.52347109706741" lon="0.35764851384382285"><ele>157.0</ele><time>2026-05-04T12:55:49.001Z</time></trkpt><trkpt lat="41.523486643284926" lon="0.35777189545755933"><ele>157.0</ele><time>2026-05-04T12:55:50.001Z</time></trkpt><trkpt lat="41.52350017100075" lon="0.3578948781813102"><ele>157.0</ele><time>2026-05-04T12:55:51.001Z</time></trkpt><trkpt lat="41.5235182709127" lon="0.3580130158021524"><ele>157.0</ele><time>2026-05-04T12:55:52.001Z</time></trkpt><trkpt lat="41.52353665412946" lon="0.3581362517471676"><ele>158.39999999999998</ele><time>2026-05-04T12:55:53.001Z</time></trkpt><trkpt lat="41.52355507319347" lon="0.35825807297085327"><ele>159.79999999999998</ele><time>2026-05-04T12:55:54.001Z</time></trkpt><trkpt lat="41.52357496710355" lon="0.3583744281175058"><ele>161.2</ele><time>2026-05-04T12:55:55.001Z</time></trkpt><trkpt lat="41.52359340711381" lon="0.35849812564011463"><ele>162.6</ele><time>2026-05-04T12:55:56.001Z</time></trkpt><trkpt lat="41.52361212498129" lon="0.3586191581441868"><ele>164.0</ele><time>2026-05-04T12:55:57.001Z</time></trkpt><trkpt lat="41.52363171878138" lon="0.3587428945211886"><ele>165.39999999999998</ele><time>2026-05-04T12:55:58.001Z</time></trkpt><trkpt lat="41.523647893738165" lon="0.3588682350070764"><ele>166.8</ele><time>2026-05-04T12:55:59.001Z</time></trkpt><trkpt lat="41.52366607859819" lon="0.3589912460055668"><ele>168.2</ele><time>2026-05-04T12:56:00.001Z</time></trkpt><trkpt lat="41.52368520591931" lon="0.3591131270798502"><ele>169.60000000000002</ele><time>2026-05-04T12:56:00.999Z</time></trkpt><trkpt lat="41.523708624206265" lon="0.3592340895284879"><ele>171.0</ele><time>2026-05-04T12:56:01.999Z</time></trkpt><trkpt lat="41.52373526323574" lon="0.359353529815078"><ele>172.4</ele><time>2026-05-04T12:56:02.999Z</time></trkpt><trkpt lat="41.523759401963225" lon="0.3594747380416685"><ele>173.8</ele><time>2026-05-04T12:56:03.999Z</time></trkpt><trkpt lat="41.52377721632058" lon="0.35959472284532057"><ele>175.20000000000002</ele><time>2026-05-04T12:56:04.999Z</time></trkpt><trkpt lat="41.523796837583255" lon="0.3597128317815029"><ele>176.60000000000002</ele><time>2026-05-04T12:56:05.999Z</time></trkpt><trkpt lat="41.52381630198313" lon="0.3598367453640253"><ele>178.0</ele><time>2026-05-04T12:56:06.999Z</time></trkpt><trkpt lat="41.52382212953642" lon="0.35995951486525135"><ele>178.4</ele><time>2026-05-04T12:56:07.999Z</time></trkpt><trkpt lat="41.523837337161126" lon="0.3600810903628254"><ele>178.8</ele><time>2026-05-04T12:56:08.999Z</time></trkpt><trkpt lat="41.5238513570236" lon="0.3602009820608311"><ele>179.2</ele><time>2026-05-04T12:56:09.999Z</time></trkpt><trkpt lat="41.52386554171483" lon="0.36032033255302837"><ele>179.6</ele><time>2026-05-04T12:56:10.999Z</time></trkpt><trkpt lat="41.52387725520781" lon="0.360442443914217"><ele>180.0</ele><time>2026-05-04T12:56:11.999Z</time></trkpt><trkpt lat="41.523887986524606" lon="0.36056580763303053"><ele>180.6</ele><time>2026-05-04T12:56:12.999Z</time></trkpt><trkpt lat="41.52389762037352" lon="0.3606881838972003"><ele>181.2</ele><time>2026-05-04T12:56:13.999Z</time></trkpt><trkpt lat="41.52390027839183" lon="0.3608143397674571"><ele>181.8</ele><time>2026-05-04T12:56:14.999Z</time></trkpt><trkpt lat="41.52389719657006" lon="0.3609428060677016"><ele>182.4</ele><time>2026-05-04T12:56:15.999Z</time></trkpt><trkpt lat="41.523894476047545" lon="0.3610710632038702"><ele>183.0</ele><time>2026-05-04T12:56:16.999Z</time></trkpt><trkpt lat="41.523886859877216" lon="0.3611997581982164"><ele>183.0</ele><time>2026-05-04T12:56:17.999Z</time></trkpt><trkpt lat="41.523877050200184" lon="0.36132779450136654"><ele>183.0</ele><time>2026-05-04T12:56:18.999Z</time></trkpt><trkpt lat="41.52386599659123" lon="0.3614574866745347"><ele>183.0</ele><time>2026-05-04T12:56:19.999Z</time></trkpt><trkpt lat="41.523852796870564" lon="0.3615879087896509"><ele>183.0</ele><time>2026-05-04T12:56:20.999Z</time></trkpt><trkpt lat="41.52383918924838" lon="0.36171977478374373"><ele>183.0</ele><time>2026-05-04T12:56:21.999Z</time></trkpt><trkpt lat="41.52382596367007" lon="0.36185485571833126"><ele>182.8</ele><time>2026-05-04T12:56:22.999Z</time></trkpt><trkpt lat="41.52381132335119" lon="0.3619895103566543"><ele>182.60000000000002</ele><time>2026-05-04T12:56:23.999Z</time></trkpt><trkpt lat="41.52379785916607" lon="0.3621251018720976"><ele>182.39999999999998</ele><time>2026-05-04T12:56:24.999Z</time></trkpt><trkpt lat="41.52378445942718" lon="0.36226148063718955"><ele>182.2</ele><time>2026-05-04T12:56:25.999Z</time></trkpt><trkpt lat="41.52376951949551" lon="0.36239899081165106"><ele>182.0</ele><time>2026-05-04T12:56:26.999Z</time></trkpt><trkpt lat="41.52375248831411" lon="0.3625372977449345"><ele>182.0</ele><time>2026-05-04T12:56:27.999Z</time></trkpt><trkpt lat="41.5237375084827" lon="0.3626764424277977"><ele>182.0</ele><time>2026-05-04T12:56:29Z</time></trkpt><trkpt lat="41.52372158637865" lon="0.3628177286956854"><ele>182.0</ele><time>2026-05-04T12:56:30Z</time></trkpt><trkpt lat="41.52370174440788" lon="0.3629566960894945"><ele>182.0</ele><time>2026-05-04T12:56:31Z</time></trkpt><trkpt lat="41.523683479580136" lon="0.36309811069722664"><ele>182.0</ele><time>2026-05-04T12:56:32Z</time></trkpt><trkpt lat="41.5236712063528" lon="0.3632350681426475"><ele>182.66666666666666</ele><time>2026-05-04T12:56:33Z</time></trkpt><trkpt lat="41.52366052094172" lon="0.36336595267381994"><ele>183.33333333333331</ele><time>2026-05-04T12:56:34Z</time></trkpt><trkpt lat="41.52364869129153" lon="0.36348702299965957"><ele>184.0</ele><time>2026-05-04T12:56:35Z</time></trkpt><trkpt lat="41.52363362022063" lon="0.36359941641994287"><ele>184.66666666666666</ele><time>2026-05-04T12:56:36Z</time></trkpt><trkpt lat="41.52360792172982" lon="0.3637012961656874"><ele>185.33333333333334</ele><time>2026-05-04T12:56:37Z</time></trkpt><trkpt lat="41.52356655851896" lon="0.36379658164906986"><ele>186.0</ele><time>2026-05-04T12:56:38Z</time></trkpt><trkpt lat="41.523512943547466" lon="0.3638743774896767"><ele>186.0</ele><time>2026-05-04T12:56:39Z</time></trkpt><trkpt lat="41.523452887657236" lon="0.3639402881285123"><ele>186.0</ele><time>2026-05-04T12:56:40Z</time></trkpt><trkpt lat="41.52338537019558" lon="0.36398446407514884"><ele>186.0</ele><time>2026-05-04T12:56:41Z</time></trkpt><trkpt lat="41.523308574211796" lon="0.3640068929651848"><ele>186.0</ele><time>2026-05-04T12:56:42Z</time></trkpt><trkpt lat="41.52323004762541" lon="0.36400961692318046"><ele>186.0</ele><time>2026-05-04T12:56:43Z</time></trkpt><trkpt lat="41.52315247463222" lon="0.3640040761426467"><ele>186.0</ele><time>2026-05-04T12:56:44Z</time></trkpt><trkpt lat="41.523067661694064" lon="0.36399172805753166"><ele>186.0</ele><time>2026-05-04T12:56:45Z</time></trkpt><trkpt lat="41.52298209258223" lon="0.3639797715572583"><ele>186.0</ele><time>2026-05-04T12:56:46Z</time></trkpt><trkpt lat="41.52289494161532" lon="0.36397294579973277"><ele>186.0</ele><time>2026-05-04T12:56:47Z</time></trkpt><trkpt lat="41.52280670564313" lon="0.3639769970351205"><ele>186.0</ele><time>2026-05-04T12:56:48Z</time></trkpt><trkpt lat="41.52271694830764" lon="0.3639846159310727"><ele>186.0</ele><time>2026-05-04T12:56:49Z</time></trkpt><trkpt lat="41.522625669385185" lon="0.36399726420523676"><ele>186.0</ele><time>2026-05-04T12:56:50Z</time></trkpt><trkpt lat="41.52253465136609" lon="0.36402010942068147"><ele>186.60000000000002</ele><time>2026-05-04T12:56:51Z</time></trkpt><trkpt lat="41.52244146037855" lon="0.36405272405759753"><ele>187.2</ele><time>2026-05-04T12:56:52Z</time></trkpt><trkpt lat="41.522347518325105" lon="0.3640942205758838"><ele>187.8</ele><time>2026-05-04T12:56:53Z</time></trkpt><trkpt lat="41.52225770803401" lon="0.36415042098856254"><ele>188.39999999999998</ele><time>2026-05-04T12:56:54Z</time></trkpt><trkpt lat="41.52216699927256" lon="0.3642102708390474"><ele>189.0</ele><time>2026-05-04T12:56:55Z</time></trkpt><trkpt lat="41.522074800316354" lon="0.36427207713819737"><ele>189.0</ele><time>2026-05-04T12:56:56Z</time></trkpt><trkpt lat="41.52198499806163" lon="0.36434165572546806"><ele>189.0</ele><time>2026-05-04T12:56:57Z</time></trkpt><trkpt lat="41.52189664033545" lon="0.3644150952483894"><ele>189.0</ele><time>2026-05-04T12:56:58Z</time></trkpt><trkpt lat="41.52179131678401" lon="0.3644654912337796"><ele>189.0</ele><time>2026-05-04T12:56:59Z</time></trkpt><trkpt lat="41.52169814876843" lon="0.3645385700183804"><ele>189.0</ele><time>2026-05-04T12:57:00Z</time></trkpt><trkpt lat="41.52160343582185" lon="0.3646136347696964"><ele>189.0</ele><time>2026-05-04T12:57:01Z</time></trkpt><trkpt lat="41.521507840997565" lon="0.3646915980395886"><ele>189.0</ele><time>2026-05-04T12:57:02Z</time></trkpt><trkpt lat="41.521416332630174" lon="0.364765252373592"><ele>189.0</ele><time>2026-05-04T12:57:03Z</time></trkpt><trkpt lat="41.521322549023196" lon="0.3648367948573407"><ele>189.0</ele><time>2026-05-04T12:57:04Z</time></trkpt><trkpt lat="41.52123857692188" lon="0.36492639029475304"><ele>189.0</ele><time>2026-05-04T12:57:05Z</time></trkpt><trkpt lat="41.52114572680165" lon="0.36499178281031625"><ele>188.2</ele><time>2026-05-04T12:57:06Z</time></trkpt><trkpt lat="41.52105382269015" lon="0.36505673925160365"><ele>187.39999999999998</ele><time>2026-05-04T12:57:07Z</time></trkpt><trkpt lat="41.52096188236571" lon="0.3651259145079258"><ele>186.6</ele><time>2026-05-04T12:57:08Z</time></trkpt><trkpt lat="41.52086993888231" lon="0.36519452715665834"><ele>185.8</ele><time>2026-05-04T12:57:09Z</time></trkpt><trkpt lat="41.52077751749423" lon="0.3652654121567026"><ele>185.0</ele><time>2026-05-04T12:57:10.001Z</time></trkpt><trkpt lat="41.520680766548594" lon="0.3653276792208983"><ele>185.0</ele><time>2026-05-04T12:57:11.001Z</time></trkpt><trkpt lat="41.52058759103757" lon="0.36540084662350625"><ele>185.0</ele><time>2026-05-04T12:57:12.001Z</time></trkpt><trkpt lat="41.520489324394404" lon="0.3654662894997104"><ele>185.0</ele><time>2026-05-04T12:57:13.001Z</time></trkpt><trkpt lat="41.520393141860964" lon="0.3655355118366794"><ele>185.0</ele><time>2026-05-04T12:57:14.001Z</time></trkpt><trkpt lat="41.5202953794062" lon="0.36560950654128255"><ele>185.0</ele><time>2026-05-04T12:57:15.001Z</time></trkpt><trkpt lat="41.52019827948792" lon="0.36567878235939727"><ele>184.2</ele><time>2026-05-04T12:57:16.001Z</time></trkpt><trkpt lat="41.52010276342586" lon="0.36575004416409135"><ele>183.4</ele><time>2026-05-04T12:57:17.001Z</time></trkpt><trkpt lat="41.52000997032231" lon="0.3658241388828116"><ele>182.60000000000002</ele><time>2026-05-04T12:57:18.001Z</time></trkpt><trkpt lat="41.51991481106986" lon="0.36589822709314407"><ele>181.8</ele><time>2026-05-04T12:57:19.001Z</time></trkpt><trkpt lat="41.51981981784203" lon="0.36596799351604103"><ele>181.0</ele><time>2026-05-04T12:57:20.001Z</time></trkpt><trkpt lat="41.51972122905936" lon="0.36603616108437165"><ele>181.0</ele><time>2026-05-04T12:57:21.001Z</time></trkpt><trkpt lat="41.51962300276852" lon="0.366100609326341"><ele>181.0</ele><time>2026-05-04T12:57:22.001Z</time></trkpt><trkpt lat="41.5195224336699" lon="0.36616792059381964"><ele>181.0</ele><time>2026-05-04T12:57:23.001Z</time></trkpt><trkpt lat="41.5194190429269" lon="0.36623145231081955"><ele>181.0</ele><time>2026-05-04T12:57:24.001Z</time></trkpt><trkpt lat="41.5193146100167" lon="0.366292209306935"><ele>181.20000000000002</ele><time>2026-05-04T12:57:25.001Z</time></trkpt><trkpt lat="41.51921129588028" lon="0.36634101577522055"><ele>181.4</ele><time>2026-05-04T12:57:26.001Z</time></trkpt><trkpt lat="41.51910598087237" lon="0.3663902140116006"><ele>181.6</ele><time>2026-05-04T12:57:27.001Z</time></trkpt><trkpt lat="41.51899535954221" lon="0.36640820781108224"><ele>181.8</ele><time>2026-05-04T12:57:28.001Z</time></trkpt><trkpt lat="41.51889057164231" lon="0.3664559463913682"><ele>182.0</ele><time>2026-05-04T12:57:29.001Z</time></trkpt><trkpt lat="41.518782080606876" lon="0.36648809516145864"><ele>180.0</ele><time>2026-05-04T12:57:30.001Z</time></trkpt><trkpt lat="41.5186741025831" lon="0.36652039949034004"><ele>178.0</ele><time>2026-05-04T12:57:31.001Z</time></trkpt><trkpt lat="41.51856854630066" lon="0.36655418020273856"><ele>176.0</ele><time>2026-05-04T12:57:32.001Z</time></trkpt><trkpt lat="41.51846339923826" lon="0.3665939689833895"><ele>174.0</ele><time>2026-05-04T12:57:33.001Z</time></trkpt><trkpt lat="41.518358782858236" lon="0.36664334481385935"><ele>172.0</ele><time>2026-05-04T12:57:34.001Z</time></trkpt><trkpt lat="41.51825681645885" lon="0.3666958335237894"><ele>172.0</ele><time>2026-05-04T12:57:35.001Z</time></trkpt><trkpt lat="41.518156065357545" lon="0.3667592028109834"><ele>172.0</ele><time>2026-05-04T12:57:36.001Z</time></trkpt><trkpt lat="41.51806164124107" lon="0.36682968850582537"><ele>172.0</ele><time>2026-05-04T12:57:37.001Z</time></trkpt><trkpt lat="41.51796603395927" lon="0.36691145252963464"><ele>172.0</ele><time>2026-05-04T12:57:38.001Z</time></trkpt><trkpt lat="41.517876518663954" lon="0.3669969528261889"><ele>172.0</ele><time>2026-05-04T12:57:39.001Z</time></trkpt><trkpt lat="41.517791784750756" lon="0.3670915844451707"><ele>170.6</ele><time>2026-05-04T12:57:40.001Z</time></trkpt><trkpt lat="41.51771335653922" lon="0.3671937502645077"><ele>169.2</ele><time>2026-05-04T12:57:41.001Z</time></trkpt><trkpt lat="41.51763672567257" lon="0.367301717836675"><ele>167.8</ele><time>2026-05-04T12:57:42.001Z</time></trkpt><trkpt lat="41.517564404200186" lon="0.3674138898648694"><ele>166.4</ele><time>2026-05-04T12:57:43.001Z</time></trkpt><trkpt lat="41.51749215848358" lon="0.3675234974479593"><ele>165.0</ele><time>2026-05-04T12:57:44.001Z</time></trkpt><trkpt lat="41.51741871381329" lon="0.3676330341788899"><ele>164.8</ele><time>2026-05-04T12:57:45.001Z</time></trkpt><trkpt lat="41.517347674734935" lon="0.36774019061627317"><ele>164.6</ele><time>2026-05-04T12:57:46.001Z</time></trkpt><trkpt lat="41.51727620865633" lon="0.3678478497587625"><ele>164.39999999999998</ele><time>2026-05-04T12:57:47.001Z</time></trkpt><trkpt lat="41.51720387250836" lon="0.3679541954314904"><ele>164.2</ele><time>2026-05-04T12:57:48.001Z</time></trkpt><trkpt lat="41.51712873429619" lon="0.36805711813236647"><ele>164.0</ele><time>2026-05-04T12:57:49.001Z</time></trkpt><trkpt lat="41.517051560387685" lon="0.36815306903625283"><ele>162.6</ele><time>2026-05-04T12:57:50.001Z</time></trkpt><trkpt lat="41.516967334049966" lon="0.3682416638451826"><ele>161.2</ele><time>2026-05-04T12:57:51.001Z</time></trkpt><trkpt lat="41.516877459033715" lon="0.3683254761378692"><ele>159.79999999999998</ele><time>2026-05-04T12:57:52.001Z</time></trkpt><trkpt lat="41.51678625604326" lon="0.36839991024461743"><ele>158.39999999999998</ele><time>2026-05-04T12:57:53.001Z</time></trkpt><trkpt lat="41.51668850683182" lon="0.3684650226134131"><ele>157.0</ele><time>2026-05-04T12:57:54.001Z</time></trkpt><trkpt lat="41.51659021013737" lon="0.3685166480160108"><ele>157.0</ele><time>2026-05-04T12:57:55.001Z</time></trkpt><trkpt lat="41.51648610032929" lon="0.36855883225548397"><ele>157.0</ele><time>2026-05-04T12:57:56.001Z</time></trkpt><trkpt lat="41.51638096811427" lon="0.368590487005165"><ele>157.0</ele><time>2026-05-04T12:57:57.001Z</time></trkpt><trkpt lat="41.516272481140405" lon="0.36861436530695074"><ele>157.0</ele><time>2026-05-04T12:57:58.001Z</time></trkpt><trkpt lat="41.516165477225286" lon="0.36862629820883336"><ele>157.0</ele><time>2026-05-04T12:57:59.001Z</time></trkpt><trkpt lat="41.51605617671369" lon="0.3686282473108945"><ele>156.6</ele><time>2026-05-04T12:58:00.002Z</time></trkpt><trkpt lat="41.51594780861378" lon="0.36861568517038995"><ele>156.2</ele><time>2026-05-04T12:58:01.002Z</time></trkpt><trkpt lat="41.51583862960611" lon="0.3685941379603142"><ele>155.8</ele><time>2026-05-04T12:58:02.002Z</time></trkpt><trkpt lat="41.51572874953561" lon="0.3685619827933966"><ele>155.4</ele><time>2026-05-04T12:58:03.002Z</time></trkpt><trkpt lat="41.515622897506255" lon="0.36851594389371667"><ele>155.0</ele><time>2026-05-04T12:58:04.002Z</time></trkpt><trkpt lat="41.51551913329988" lon="0.36845845880131217"><ele>155.0</ele><time>2026-05-04T12:58:05.002Z</time></trkpt><trkpt lat="41.51542118921554" lon="0.3683948391671928"><ele>155.0</ele><time>2026-05-04T12:58:06.002Z</time></trkpt><trkpt lat="41.515327350120096" lon="0.3683230710699395"><ele>155.0</ele><time>2026-05-04T12:58:06.999Z</time></trkpt><trkpt lat="41.51523416020277" lon="0.36824633952241986"><ele>155.0</ele><time>2026-05-04T12:58:07.999Z</time></trkpt><trkpt lat="41.51514445327537" lon="0.3681684333795527"><ele>155.0</ele><time>2026-05-04T12:58:08.999Z</time></trkpt><trkpt lat="41.51505427113772" lon="0.3680835131661908"><ele>154.4</ele><time>2026-05-04T12:58:09.999Z</time></trkpt><trkpt lat="41.514967009300506" lon="0.36799100322747746"><ele>153.8</ele><time>2026-05-04T12:58:10.999Z</time></trkpt><trkpt lat="41.51488361874443" lon="0.3678962467961881"><ele>153.2</ele><time>2026-05-04T12:58:11.999Z</time></trkpt><trkpt lat="41.51480161001996" lon="0.3678040875811658"><ele>152.6</ele><time>2026-05-04T12:58:12.999Z</time></trkpt><trkpt lat="41.51471587891289" lon="0.3677222582968024"><ele>152.0</ele><time>2026-05-04T12:58:13.999Z</time></trkpt><trkpt lat="41.514626369255254" lon="0.3676468987610439"><ele>152.2</ele><time>2026-05-04T12:58:14.999Z</time></trkpt><trkpt lat="41.51453678784939" lon="0.3675805986078653"><ele>152.39999999999998</ele><time>2026-05-04T12:58:15.999Z</time></trkpt><trkpt lat="41.51444017410487" lon="0.36753211685372267"><ele>152.60000000000002</ele><time>2026-05-04T12:58:16.999Z</time></trkpt><trkpt lat="41.51434117459219" lon="0.367495775379554"><ele>152.8</ele><time>2026-05-04T12:58:17.999Z</time></trkpt><trkpt lat="41.5142451451422" lon="0.36746778739331065"><ele>153.0</ele><time>2026-05-04T12:58:18.999Z</time></trkpt><trkpt lat="41.514145056977334" lon="0.36745610347143676"><ele>153.0</ele><time>2026-05-04T12:58:19.999Z</time></trkpt><trkpt lat="41.51404775630926" lon="0.36745813674109973"><ele>153.0</ele><time>2026-05-04T12:58:20.999Z</time></trkpt><trkpt lat="41.51395138602953" lon="0.36746532676150595"><ele>153.0</ele><time>2026-05-04T12:58:21.999Z</time></trkpt><trkpt lat="41.51385807273036" lon="0.3674574362742691"><ele>153.0</ele><time>2026-05-04T12:58:22.999Z</time></trkpt><trkpt lat="41.5137679495048" lon="0.3674326084423487"><ele>153.0</ele><time>2026-05-04T12:58:24Z</time></trkpt><trkpt lat="41.51368161094667" lon="0.3673732118306866"><ele>152.8</ele><time>2026-05-04T12:58:25Z</time></trkpt><trkpt lat="41.51359492381104" lon="0.36731470458669946"><ele>152.60000000000002</ele><time>2026-05-04T12:58:26Z</time></trkpt><trkpt lat="41.51350155215996" lon="0.36727275886303407"><ele>152.39999999999998</ele><time>2026-05-04T12:58:27Z</time></trkpt><trkpt lat="41.51340354503684" lon="0.3672568310716201"><ele>152.2</ele><time>2026-05-04T12:58:28Z</time></trkpt><trkpt lat="41.51330335859029" lon="0.36726246793403133"><ele>152.0</ele><time>2026-05-04T12:58:29Z</time></trkpt><trkpt lat="41.51320500316536" lon="0.36729246850086195"><ele>152.0</ele><time>2026-05-04T12:58:30Z</time></trkpt><trkpt lat="41.51311378812446" lon="0.3673446340715464"><ele>152.0</ele><time>2026-05-04T12:58:31Z</time></trkpt><trkpt lat="41.51302892314515" lon="0.36741515973905114"><ele>152.0</ele><time>2026-05-04T12:58:32Z</time></trkpt><trkpt lat="41.51295206363722" lon="0.36750259076633185"><ele>152.0</ele><time>2026-05-04T12:58:33Z</time></trkpt><trkpt lat="41.512887044548705" lon="0.36760695499698676"><ele>152.0</ele><time>2026-05-04T12:58:34Z</time></trkpt><trkpt lat="41.51283644930059" lon="0.36772397391222533"><ele>151.4</ele><time>2026-05-04T12:58:35Z</time></trkpt><trkpt lat="41.512800376729906" lon="0.36785077444780717"><ele>150.79999999999998</ele><time>2026-05-04T12:58:36Z</time></trkpt><trkpt lat="41.51278330900831" lon="0.36798187942222166"><ele>150.2</ele><time>2026-05-04T12:58:37Z</time></trkpt><trkpt lat="41.512767498485104" lon="0.3681091932327223"><ele>149.6</ele><time>2026-05-04T12:58:38Z</time></trkpt><trkpt lat="41.51278381496039" lon="0.3682172653500028"><ele>149.0</ele><time>2026-05-04T12:58:39Z</time></trkpt><trkpt lat="41.51266458441979" lon="0.3682910616549733"><ele>148.8</ele><time>2026-05-04T12:58:40Z</time></trkpt><trkpt lat="41.51258714630311" lon="0.36833404604606373"><ele>148.60000000000002</ele><time>2026-05-04T12:58:41Z</time></trkpt><trkpt lat="41.51250247520369" lon="0.36830096602059764"><ele>148.4</ele><time>2026-05-04T12:58:42Z</time></trkpt><trkpt lat="41.512415025412935" lon="0.3682620009820615"><ele>148.20000000000002</ele><time>2026-05-04T12:58:43Z</time></trkpt><trkpt lat="41.512321649038846" lon="0.3682320627607708"><ele>148.0</ele><time>2026-05-04T12:58:44Z</time></trkpt><trkpt lat="41.51223568819026" lon="0.36817187602684326"><ele>148.0</ele><time>2026-05-04T12:58:45Z</time></trkpt><trkpt lat="41.51214562140858" lon="0.3681072794498329"><ele>148.0</ele><time>2026-05-04T12:58:46Z</time></trkpt><trkpt lat="41.51205830012212" lon="0.36804308595661966"><ele>148.0</ele><time>2026-05-04T12:58:47Z</time></trkpt><trkpt lat="41.511973322448505" lon="0.36796770961936753"><ele>148.0</ele><time>2026-05-04T12:58:48Z</time></trkpt><trkpt lat="41.511890111782975" lon="0.3678835386852733"><ele>148.0</ele><time>2026-05-04T12:58:49Z</time></trkpt><trkpt lat="41.511811080811974" lon="0.3677926549917721"><ele>147.20000000000002</ele><time>2026-05-04T12:58:50Z</time></trkpt><trkpt lat="41.5117391236639" lon="0.36769508684203234"><ele>146.4</ele><time>2026-05-04T12:58:51Z</time></trkpt><trkpt lat="41.511663829882146" lon="0.3675981049348823"><ele>145.60000000000002</ele><time>2026-05-04T12:58:52Z</time></trkpt><trkpt lat="41.51159094450521" lon="0.36749752793481916"><ele>144.8</ele><time>2026-05-04T12:58:53Z</time></trkpt><trkpt lat="41.51151980164262" lon="0.3673975568584849"><ele>144.0</ele><time>2026-05-04T12:58:54Z</time></trkpt><trkpt lat="41.51144834157448" lon="0.36729394287823375"><ele>144.4</ele><time>2026-05-04T12:58:55Z</time></trkpt><trkpt lat="41.51137534581253" lon="0.36718681111265916"><ele>144.8</ele><time>2026-05-04T12:58:56Z</time></trkpt><trkpt lat="41.511302741267" lon="0.3670804049312434"><ele>145.2</ele><time>2026-05-04T12:58:57.001Z</time></trkpt><trkpt lat="41.51122947308513" lon="0.36697251832050815"><ele>145.6</ele><time>2026-05-04T12:58:58.001Z</time></trkpt><trkpt lat="41.511154159056574" lon="0.3668696921309911"><ele>146.0</ele><time>2026-05-04T12:58:59.001Z</time></trkpt><trkpt lat="41.51107531337818" lon="0.3667717240930282"><ele>145.4</ele><time>2026-05-04T12:59:00.001Z</time></trkpt><trkpt lat="41.51099970118426" lon="0.36666426227883436"><ele>144.8</ele><time>2026-05-04T12:59:01.001Z</time></trkpt><trkpt lat="41.51092558777049" lon="0.3665624389042137"><ele>144.20000000000002</ele><time>2026-05-04T12:59:02.001Z</time></trkpt><trkpt lat="41.51084797716545" lon="0.3664679551463343"><ele>143.6</ele><time>2026-05-04T12:59:03.001Z</time></trkpt><trkpt lat="41.510768018453014" lon="0.36636953540186407"><ele>143.0</ele><time>2026-05-04T12:59:04.001Z</time></trkpt><trkpt lat="41.5106842343169" lon="0.36627500150120224"><ele>143.0</ele><time>2026-05-04T12:59:05.001Z</time></trkpt><trkpt lat="41.51059910922724" lon="0.36618141857585595"><ele>143.0</ele><time>2026-05-04T12:59:06.001Z</time></trkpt><trkpt lat="41.5105162720359" lon="0.3660830061181537"><ele>143.0</ele><time>2026-05-04T12:59:07.001Z</time></trkpt><trkpt lat="41.5104224104445" lon="0.3659969874017058"><ele>143.0</ele><time>2026-05-04T12:59:08.001Z</time></trkpt><trkpt lat="41.51033315024153" lon="0.3659094935123006"><ele>143.0</ele><time>2026-05-04T12:59:09.001Z</time></trkpt><trkpt lat="41.51023674280813" lon="0.36582790132580867"><ele>142.20000000000002</ele><time>2026-05-04T12:59:10.001Z</time></trkpt><trkpt lat="41.51014068058952" lon="0.36575437283010753"><ele>141.4</ele><time>2026-05-04T12:59:11.001Z</time></trkpt><trkpt lat="41.51004150004621" lon="0.36568445010799394"><ele>140.60000000000002</ele><time>2026-05-04T12:59:12.001Z</time></trkpt><trkpt lat="41.50993957416884" lon="0.36561916442225467"><ele>139.8</ele><time>2026-05-04T12:59:13.001Z</time></trkpt><trkpt lat="41.50983888529539" lon="0.3655624531766477"><ele>139.0</ele><time>2026-05-04T12:59:14.001Z</time></trkpt><trkpt lat="41.50973405472093" lon="0.3655074456253128"><ele>139.0</ele><time>2026-05-04T12:59:15.001Z</time></trkpt><trkpt lat="41.50962758405589" lon="0.36545999055672745"><ele>139.0</ele><time>2026-05-04T12:59:16.001Z</time></trkpt><trkpt lat="41.50951831087492" lon="0.36541848430195006"><ele>139.0</ele><time>2026-05-04T12:59:17.001Z</time></trkpt><trkpt lat="41.50940847519047" lon="0.365383288638299"><ele>139.0</ele><time>2026-05-04T12:59:18.001Z</time></trkpt><trkpt lat="41.50929733216211" lon="0.3653583080521832"><ele>135.75</ele><time>2026-05-04T12:59:19.001Z</time></trkpt><trkpt lat="41.509183153868975" lon="0.3653261063005899"><ele>132.5</ele><time>2026-05-04T12:59:20.001Z</time></trkpt><trkpt lat="41.50906878674942" lon="0.36530660934682313"><ele>129.25</ele><time>2026-05-04T12:59:21.001Z</time></trkpt><trkpt lat="41.508957910196976" lon="0.36529690263424713"><ele>126.0</ele><time>2026-05-04T12:59:22.001Z</time></trkpt><trkpt lat="41.50884763678383" lon="0.36529592521006876"><ele>123.5</ele><time>2026-05-04T12:59:23.001Z</time></trkpt><trkpt lat="41.508729667022" lon="0.36529540029388274"><ele>121.0</ele><time>2026-05-04T12:59:24.001Z</time></trkpt><trkpt lat="41.5086154159067" lon="0.3653039031208493"><ele>118.5</ele><time>2026-05-04T12:59:25.001Z</time></trkpt><trkpt lat="41.50850479929902" lon="0.3653133925516097"><ele>116.0</ele><time>2026-05-04T12:59:26.001Z</time></trkpt><trkpt lat="41.50839485998833" lon="0.36533366004492235"><ele>116.0</ele><time>2026-05-04T12:59:27.001Z</time></trkpt><trkpt lat="41.50828587407492" lon="0.36535533352635713"><ele>116.0</ele><time>2026-05-04T12:59:28.001Z</time></trkpt><trkpt lat="41.508178771511844" lon="0.3653903746446345"><ele>116.0</ele><time>2026-05-04T12:59:29.001Z</time></trkpt><trkpt lat="41.50807212193973" lon="0.3654296903540751"><ele>116.0</ele><time>2026-05-04T12:59:30.001Z</time></trkpt><trkpt lat="41.507967646107964" lon="0.3654727047858264"><ele>116.0</ele><time>2026-05-04T12:59:31.001Z</time></trkpt><trkpt lat="41.50786657472868" lon="0.36552138118623484"><ele>116.4</ele><time>2026-05-04T12:59:32.001Z</time></trkpt><trkpt lat="41.50776510623429" lon="0.3655751308935832"><ele>116.8</ele><time>2026-05-04T12:59:33.001Z</time></trkpt><trkpt lat="41.50766779452244" lon="0.36563112171123957"><ele>117.20000000000002</ele><time>2026-05-04T12:59:34.001Z</time></trkpt><trkpt lat="41.5075712455652" lon="0.36569197533389974"><ele>117.60000000000001</ele><time>2026-05-04T12:59:35.001Z</time></trkpt><trkpt lat="41.50747256628664" lon="0.36576042928802827"><ele>118.0</ele><time>2026-05-04T12:59:36.001Z</time></trkpt><trkpt lat="41.507376548428276" lon="0.36583074384762854"><ele>118.0</ele><time>2026-05-04T12:59:37.001Z</time></trkpt><trkpt lat="41.50728171118844" lon="0.36590871407415554"><ele>118.00000000000001</ele><time>2026-05-04T12:59:38.001Z</time></trkpt><trkpt lat="41.50718806804171" lon="0.3659882819287801"><ele>118.00000000000001</ele><time>2026-05-04T12:59:39.001Z</time></trkpt><trkpt lat="41.507097583916114" lon="0.3660666750248127"><ele>118.0</ele><time>2026-05-04T12:59:40.001Z</time></trkpt><trkpt lat="41.507010804292285" lon="0.36615032342484505"><ele>118.0</ele><time>2026-05-04T12:59:41.002Z</time></trkpt><trkpt lat="41.506925625850606" lon="0.36623942847035446"><ele>117.80000000000001</ele><time>2026-05-04T12:59:42.002Z</time></trkpt><trkpt lat="41.506840619798794" lon="0.3663288902544958"><ele>117.60000000000001</ele><time>2026-05-04T12:59:43.002Z</time></trkpt><trkpt lat="41.50675604370854" lon="0.36641320558595425"><ele>117.39999999999999</ele><time>2026-05-04T12:59:44.002Z</time></trkpt><trkpt lat="41.506674581748875" lon="0.36650312936455404"><ele>117.19999999999999</ele><time>2026-05-04T12:59:45.002Z</time></trkpt><trkpt lat="41.50659364268317" lon="0.36659393525361594"><ele>117.0</ele><time>2026-05-04T12:59:46.002Z</time></trkpt><trkpt lat="41.5065120245175" lon="0.3666846321785298"><ele>116.6</ele><time>2026-05-04T12:59:47.002Z</time></trkpt><trkpt lat="41.50643159003682" lon="0.3667767824311042"><ele>116.19999999999999</ele><time>2026-05-04T12:59:48.002Z</time></trkpt><trkpt lat="41.50635029156937" lon="0.3668707023411677"><ele>115.8</ele><time>2026-05-04T12:59:49.002Z</time></trkpt><trkpt lat="41.506269163276954" lon="0.36696174407820337"><ele>115.4</ele><time>2026-05-04T12:59:50.002Z</time></trkpt><trkpt lat="41.506186433000444" lon="0.3670514911883731"><ele>115.0</ele><time>2026-05-04T12:59:51.002Z</time></trkpt><trkpt lat="41.50610440558255" lon="0.36714153772746283"><ele>115.6</ele><time>2026-05-04T12:59:52.002Z</time></trkpt><trkpt lat="41.506021877964386" lon="0.36723162568039736"><ele>116.2</ele><time>2026-05-04T12:59:53.002Z</time></trkpt><trkpt lat="41.5059417893811" lon="0.3673293940964587"><ele>116.80000000000001</ele><time>2026-05-04T12:59:54.002Z</time></trkpt><trkpt lat="41.50586072585075" lon="0.3674195653135642"><ele>117.4</ele><time>2026-05-04T12:59:55.002Z</time></trkpt><trkpt lat="41.50578036826098" lon="0.3675108305203198"><ele>118.0</ele><time>2026-05-04T12:59:56.002Z</time></trkpt><trkpt lat="41.50569820436119" lon="0.36760330461397034"><ele>118.0</ele><time>2026-05-04T12:59:57.002Z</time></trkpt><trkpt lat="41.5056159400087" lon="0.36769501530194226"><ele>118.00000000000001</ele><time>2026-05-04T12:59:58.002Z</time></trkpt><trkpt lat="41.50553294301053" lon="0.36778493115550326"><ele>118.00000000000001</ele><time>2026-05-04T12:59:59.002Z</time></trkpt><trkpt lat="41.505450251412434" lon="0.3678806518329999"><ele>118.0</ele><time>2026-05-04T13:00:00.002Z</time></trkpt><trkpt lat="41.505368412797594" lon="0.36797431810827735"><ele>118.0</ele><time>2026-05-04T13:00:01.002Z</time></trkpt><trkpt lat="41.505285851556174" lon="0.36806553725590324"><ele>118.0</ele><time>2026-05-04T13:00:02.002Z</time></trkpt><trkpt lat="41.50520469674752" lon="0.36815869921233646"><ele>118.00000000000001</ele><time>2026-05-04T13:00:03.002Z</time></trkpt><trkpt lat="41.505121493905975" lon="0.36824951703016706"><ele>118.00000000000001</ele><time>2026-05-04T13:00:04.002Z</time></trkpt><trkpt lat="41.505037971849305" lon="0.36834152564598027"><ele>118.0</ele><time>2026-05-04T13:00:05.002Z</time></trkpt><trkpt lat="41.504957875837725" lon="0.3684354193923235"><ele>118.0</ele><time>2026-05-04T13:00:06.002Z</time></trkpt><trkpt lat="41.50487717312404" lon="0.3685292502448974"><ele>118.0</ele><time>2026-05-04T13:00:07.002Z</time></trkpt><trkpt lat="41.504794908060155" lon="0.3686168258332601"><ele>118.00000000000001</ele><time>2026-05-04T13:00:08.002Z</time></trkpt><trkpt lat="41.50471358334657" lon="0.36870838311599197"><ele>118.00000000000001</ele><time>2026-05-04T13:00:09.002Z</time></trkpt><trkpt lat="41.50463055636095" lon="0.36880329386581356"><ele>118.0</ele><time>2026-05-04T13:00:10.002Z</time></trkpt><trkpt lat="41.50454822792652" lon="0.3688988119822013"><ele>118.0</ele><time>2026-05-04T13:00:11.002Z</time></trkpt><trkpt lat="41.50446546589076" lon="0.3689920779671125"><ele>117.60000000000001</ele><time>2026-05-04T13:00:12.002Z</time></trkpt><trkpt lat="41.50438253263282" lon="0.3690860690393228"><ele>117.20000000000002</ele><time>2026-05-04T13:00:13Z</time></trkpt><trkpt lat="41.50429845418709" lon="0.36918014190068665"><ele>116.8</ele><time>2026-05-04T13:00:14Z</time></trkpt><trkpt lat="41.50421517842349" lon="0.3692744347914777"><ele>116.4</ele><time>2026-05-04T13:00:15Z</time></trkpt><trkpt lat="41.504132464054784" lon="0.36936734777778185"><ele>116.0</ele><time>2026-05-04T13:00:16Z</time></trkpt><trkpt lat="41.50404906216283" lon="0.3694604764555442"><ele>116.0</ele><time>2026-05-04T13:00:17Z</time></trkpt><trkpt lat="41.50396574825366" lon="0.36955350901348727"><ele>116.0</ele><time>2026-05-04T13:00:18Z</time></trkpt><trkpt lat="41.50388505081103" lon="0.3696464245498148"><ele>116.0</ele><time>2026-05-04T13:00:19Z</time></trkpt><trkpt lat="41.50380323889846" lon="0.3697407551990028"><ele>116.0</ele><time>2026-05-04T13:00:20Z</time></trkpt><trkpt lat="41.50372033674592" lon="0.3698339391358262"><ele>116.0</ele><time>2026-05-04T13:00:21Z</time></trkpt><trkpt lat="41.503637012863294" lon="0.3699272094801708"><ele>115.4</ele><time>2026-05-04T13:00:22Z</time></trkpt><trkpt lat="41.50355362641994" lon="0.37002198124337254"><ele>114.8</ele><time>2026-05-04T13:00:23Z</time></trkpt><trkpt lat="41.503469364874604" lon="0.37011583569224554"><ele>114.20000000000002</ele><time>2026-05-04T13:00:24Z</time></trkpt><trkpt lat="41.50338650828104" lon="0.3702089324972503"><ele>113.60000000000001</ele><time>2026-05-04T13:00:25Z</time></trkpt><trkpt lat="41.50330501919747" lon="0.3703037090086124"><ele>113.0</ele><time>2026-05-04T13:00:26Z</time></trkpt><trkpt lat="41.50322288707248" lon="0.3703965124766799"><ele>113.0</ele><time>2026-05-04T13:00:27Z</time></trkpt><trkpt lat="41.50314247388691" lon="0.37048702354314667"><ele>113.00000000000001</ele><time>2026-05-04T13:00:28Z</time></trkpt><trkpt lat="41.50306119978364" lon="0.3705790280858809"><ele>113.00000000000001</ele><time>2026-05-04T13:00:29Z</time></trkpt><trkpt lat="41.5029811063401" lon="0.37067118339601035"><ele>113.0</ele><time>2026-05-04T13:00:30Z</time></trkpt><trkpt lat="41.50290096212327" lon="0.3707635071196645"><ele>113.0</ele><time>2026-05-04T13:00:31Z</time></trkpt><trkpt lat="41.50282062971746" lon="0.37085360965836406"><ele>113.0</ele><time>2026-05-04T13:00:32Z</time></trkpt><trkpt lat="41.502739209086734" lon="0.3709442694681211"><ele>113.00000000000001</ele><time>2026-05-04T13:00:33Z</time></trkpt><trkpt lat="41.50265635292528" lon="0.37103682132049887"><ele>113.00000000000001</ele><time>2026-05-04T13:00:34Z</time></trkpt><trkpt lat="41.50257433885858" lon="0.37112869853098607"><ele>113.0</ele><time>2026-05-04T13:00:35Z</time></trkpt><trkpt lat="41.50249280211023" lon="0.3712194012250378"><ele>113.0</ele><time>2026-05-04T13:00:36Z</time></trkpt><trkpt lat="41.50241248749215" lon="0.3713083987517566"><ele>113.2</ele><time>2026-05-04T13:00:37Z</time></trkpt><trkpt lat="41.502331400763765" lon="0.37139922656897756"><ele>113.4</ele><time>2026-05-04T13:00:38Z</time></trkpt><trkpt lat="41.50225005912734" lon="0.37149039336294015"><ele>113.60000000000001</ele><time>2026-05-04T13:00:39Z</time></trkpt><trkpt lat="41.50216964085502" lon="0.371580133720588"><ele>113.80000000000001</ele><time>2026-05-04T13:00:40Z</time></trkpt><trkpt lat="41.50208967012555" lon="0.3716706270807168"><ele>114.0</ele><time>2026-05-04T13:00:41Z</time></trkpt><trkpt lat="41.502007645421635" lon="0.371759690677205"><ele>114.2</ele><time>2026-05-04T13:00:42Z</time></trkpt><trkpt lat="41.501924780187245" lon="0.3718507750382904"><ele>114.4</ele><time>2026-05-04T13:00:43Z</time></trkpt><trkpt lat="41.50184243442892" lon="0.3719423306164281"><ele>114.6</ele><time>2026-05-04T13:00:44Z</time></trkpt><trkpt lat="41.50176152325355" lon="0.3720354353424412"><ele>114.8</ele><time>2026-05-04T13:00:45Z</time></trkpt><trkpt lat="41.50168357172332" lon="0.372127062775463"><ele>115.0</ele><time>2026-05-04T13:00:46Z</time></trkpt><trkpt lat="41.501602798218684" lon="0.3722175532202485"><ele>115.4</ele><time>2026-05-04T13:00:47Z</time></trkpt><trkpt lat="41.50152075536534" lon="0.37230937056755253"><ele>115.8</ele><time>2026-05-04T13:00:48.001Z</time></trkpt><trkpt lat="41.50143773379615" lon="0.37240227566728873"><ele>116.19999999999999</ele><time>2026-05-04T13:00:49.001Z</time></trkpt><trkpt lat="41.50135367394034" lon="0.3724948907075738"><ele>116.6</ele><time>2026-05-04T13:00:50.001Z</time></trkpt><trkpt lat="41.50126996596041" lon="0.37258923115738507"><ele>117.0</ele><time>2026-05-04T13:00:51.001Z</time></trkpt><trkpt lat="41.50118780827679" lon="0.37268124034365246"><ele>117.0</ele><time>2026-05-04T13:00:52.001Z</time></trkpt><trkpt lat="41.50110332055839" lon="0.3727736287352024"><ele>116.99999999999999</ele><time>2026-05-04T13:00:53.001Z</time></trkpt><trkpt lat="41.50102015453559" lon="0.37286773585296573"><ele>116.99999999999999</ele><time>2026-05-04T13:00:54.001Z</time></trkpt><trkpt lat="41.50093760105001" lon="0.3729619558335229"><ele>117.0</ele><time>2026-05-04T13:00:55.001Z</time></trkpt><trkpt lat="41.500855775620344" lon="0.37305766783749"><ele>117.0</ele><time>2026-05-04T13:00:56.001Z</time></trkpt><trkpt lat="41.50077441674618" lon="0.3731508234217343"><ele>117.39999999999999</ele><time>2026-05-04T13:00:57.001Z</time></trkpt><trkpt lat="41.50069400781013" lon="0.3732428446393972"><ele>117.79999999999998</ele><time>2026-05-04T13:00:58.001Z</time></trkpt><trkpt lat="41.500610965034156" lon="0.3733322588436235"><ele>118.2</ele><time>2026-05-04T13:00:59.001Z</time></trkpt><trkpt lat="41.500529206572686" lon="0.3734239871207666"><ele>118.6</ele><time>2026-05-04T13:01:00.001Z</time></trkpt><trkpt lat="41.50044949357302" lon="0.3735165435585601"><ele>119.0</ele><time>2026-05-04T13:01:01.001Z</time></trkpt><trkpt lat="41.50036854270045" lon="0.37360891497881643"><ele>119.0</ele><time>2026-05-04T13:01:02.001Z</time></trkpt><trkpt lat="41.50028546141195" lon="0.3737025057276639"><ele>119.0</ele><time>2026-05-04T13:01:03.001Z</time></trkpt><trkpt lat="41.50020626119783" lon="0.37379666247720206"><ele>119.0</ele><time>2026-05-04T13:01:04.001Z</time></trkpt><trkpt lat="41.500125118772615" lon="0.37388951081081384"><ele>119.0</ele><time>2026-05-04T13:01:05.001Z</time></trkpt><trkpt lat="41.500040791035815" lon="0.37397749906421474"><ele>119.0</ele><time>2026-05-04T13:01:06.001Z</time></trkpt><trkpt lat="41.499958509740715" lon="0.3740683313076195"><ele>119.0</ele><time>2026-05-04T13:01:07.001Z</time></trkpt><trkpt lat="41.499874768505116" lon="0.37415966134426404"><ele>119.0</ele><time>2026-05-04T13:01:08.001Z</time></trkpt><trkpt lat="41.49979306511857" lon="0.37424989147471316"><ele>119.0</ele><time>2026-05-04T13:01:09.001Z</time></trkpt><trkpt lat="41.49971199145448" lon="0.37433857288732897"><ele>119.0</ele><time>2026-05-04T13:01:10.001Z</time></trkpt><trkpt lat="41.49963244688683" lon="0.3744280777304902"><ele>119.0</ele><time>2026-05-04T13:01:11.001Z</time></trkpt><trkpt lat="41.49955387475249" lon="0.3745184833309855"><ele>120.6</ele><time>2026-05-04T13:01:12.001Z</time></trkpt><trkpt lat="41.49947343504659" lon="0.3746083410702643"><ele>122.2</ele><time>2026-05-04T13:01:13.001Z</time></trkpt><trkpt lat="41.49939438679065" lon="0.37469773812695517"><ele>123.79999999999998</ele><time>2026-05-04T13:01:14.001Z</time></trkpt><trkpt lat="41.49931445647326" lon="0.3747874845096836"><ele>125.39999999999999</ele><time>2026-05-04T13:01:15.001Z</time></trkpt><trkpt lat="41.49923422425957" lon="0.3748755713167939"><ele>127.0</ele><time>2026-05-04T13:01:16.001Z</time></trkpt><trkpt lat="41.49915570342418" lon="0.3749624134141549"><ele>127.0</ele><time>2026-05-04T13:01:17.001Z</time></trkpt><trkpt lat="41.49907747319112" lon="0.37504908421691713"><ele>126.99999999999999</ele><time>2026-05-04T13:01:18.001Z</time></trkpt><trkpt lat="41.49899833040555" lon="0.37513245865713096"><ele>126.99999999999999</ele><time>2026-05-04T13:01:19.001Z</time></trkpt><trkpt lat="41.49892099082053" lon="0.3752179902987583"><ele>127.0</ele><time>2026-05-04T13:01:20.001Z</time></trkpt><trkpt lat="41.49884028024246" lon="0.37530295182536866"><ele>127.0</ele><time>2026-05-04T13:01:21.001Z</time></trkpt><trkpt lat="41.49876488687272" lon="0.37539076462154836"><ele>128.2</ele><time>2026-05-04T13:01:22.001Z</time></trkpt><trkpt lat="41.498685882167344" lon="0.3754759218094388"><ele>129.39999999999998</ele><time>2026-05-04T13:01:23.001Z</time></trkpt><trkpt lat="41.49860662655752" lon="0.3755625499233154"><ele>130.60000000000002</ele><time>2026-05-04T13:01:24.001Z</time></trkpt><trkpt lat="41.49852852974403" lon="0.37564670529479743"><ele>131.8</ele><time>2026-05-04T13:01:25.001Z</time></trkpt><trkpt lat="41.49845002168777" lon="0.3757302088979443"><ele>133.0</ele><time>2026-05-04T13:01:26.001Z</time></trkpt><trkpt lat="41.49837086530935" lon="0.3758134149681611"><ele>133.0</ele><time>2026-05-04T13:01:27.001Z</time></trkpt><trkpt lat="41.498292332741414" lon="0.3758987454949165"><ele>133.0</ele><time>2026-05-04T13:01:28.001Z</time></trkpt><trkpt lat="41.49821343281362" lon="0.3759834025909537"><ele>133.0</ele><time>2026-05-04T13:01:29.001Z</time></trkpt><trkpt lat="41.49813411107157" lon="0.37607022778211907"><ele>133.0</ele><time>2026-05-04T13:01:30.001Z</time></trkpt><trkpt lat="41.498052460546994" lon="0.37615689051285983"><ele>133.0</ele><time>2026-05-04T13:01:31.001Z</time></trkpt><trkpt lat="41.49797583199931" lon="0.37624279808977246"><ele>133.20000000000002</ele><time>2026-05-04T13:01:32.001Z</time></trkpt><trkpt lat="41.49789582887852" lon="0.37632620497650004"><ele>133.4</ele><time>2026-05-04T13:01:33.002Z</time></trkpt><trkpt lat="41.497813933409276" lon="0.37641070055726733"><ele>133.60000000000002</ele><time>2026-05-04T13:01:34.002Z</time></trkpt><trkpt lat="41.49773635114868" lon="0.3764955093524302"><ele>133.8</ele><time>2026-05-04T13:01:35.002Z</time></trkpt><trkpt lat="41.49765710349513" lon="0.3765791593535046"><ele>134.0</ele><time>2026-05-04T13:01:36.002Z</time></trkpt><trkpt lat="41.497576391787426" lon="0.3766621500116375"><ele>133.4</ele><time>2026-05-04T13:01:37.002Z</time></trkpt><trkpt lat="41.497498018699545" lon="0.37674813990444367"><ele>132.8</ele><time>2026-05-04T13:01:38.002Z</time></trkpt><trkpt lat="41.497419271951955" lon="0.3768329622022434"><ele>132.2</ele><time>2026-05-04T13:01:39.002Z</time></trkpt><trkpt lat="41.497339605855394" lon="0.37691599793771663"><ele>131.6</ele><time>2026-05-04T13:01:40.002Z</time></trkpt><trkpt lat="41.497259317407334" lon="0.3770016693226847"><ele>131.0</ele><time>2026-05-04T13:01:41.002Z</time></trkpt><trkpt lat="41.497177875019325" lon="0.3770895108656291"><ele>131.0</ele><time>2026-05-04T13:01:42.002Z</time></trkpt><trkpt lat="41.49709594759315" lon="0.3771782221332362"><ele>131.0</ele><time>2026-05-04T13:01:43.002Z</time></trkpt><trkpt lat="41.49701502243777" lon="0.3772677964438133"><ele>131.0</ele><time>2026-05-04T13:01:44.002Z</time></trkpt><trkpt lat="41.49693276432375" lon="0.37735580607000674"><ele>131.0</ele><time>2026-05-04T13:01:45.002Z</time></trkpt><trkpt lat="41.49685302702453" lon="0.3774447357881012"><ele>131.0</ele><time>2026-05-04T13:01:46.002Z</time></trkpt><trkpt lat="41.49677452983044" lon="0.37753761741650793"><ele>131.6</ele><time>2026-05-04T13:01:47.002Z</time></trkpt><trkpt lat="41.49669260024456" lon="0.37763139828754577"><ele>132.2</ele><time>2026-05-04T13:01:48.002Z</time></trkpt><trkpt lat="41.496609548409275" lon="0.377721882390669"><ele>132.8</ele><time>2026-05-04T13:01:49.002Z</time></trkpt><trkpt lat="41.49652838570423" lon="0.3778105535376267"><ele>133.4</ele><time>2026-05-04T13:01:50.002Z</time></trkpt><trkpt lat="41.496446263183536" lon="0.3778985650381462"><ele>134.0</ele><time>2026-05-04T13:01:51.002Z</time></trkpt><trkpt lat="41.49636162711122" lon="0.377985564712811"><ele>134.2</ele><time>2026-05-04T13:01:52.002Z</time></trkpt><trkpt lat="41.49627954046911" lon="0.37807516348210224"><ele>134.4</ele><time>2026-05-04T13:01:53.002Z</time></trkpt><trkpt lat="41.49619923850461" lon="0.3781674269532528"><ele>134.6</ele><time>2026-05-04T13:01:54.002Z</time></trkpt><trkpt lat="41.49611862659956" lon="0.37825877043457723"><ele>134.8</ele><time>2026-05-04T13:01:55.002Z</time></trkpt><trkpt lat="41.496038324567564" lon="0.3783485647060692"><ele>135.0</ele><time>2026-05-04T13:01:56.002Z</time></trkpt><trkpt lat="41.49595643851338" lon="0.37843660244148636"><ele>135.0</ele><time>2026-05-04T13:01:57.002Z</time></trkpt><trkpt lat="41.495875508479735" lon="0.3785271525825849"><ele>135.0</ele><time>2026-05-04T13:01:58.002Z</time></trkpt><trkpt lat="41.49579372156074" lon="0.3786177931546101"><ele>135.0</ele><time>2026-05-04T13:01:59.002Z</time></trkpt><trkpt lat="41.49571228030991" lon="0.3787106392664114"><ele>135.0</ele><time>2026-05-04T13:02:00.002Z</time></trkpt><trkpt lat="41.49563148328226" lon="0.37880071219893513"><ele>135.0</ele><time>2026-05-04T13:02:01.002Z</time></trkpt><trkpt lat="41.49555335557731" lon="0.37889277263335547"><ele>135.0</ele><time>2026-05-04T13:02:02.002Z</time></trkpt><trkpt lat="41.49547392864353" lon="0.37898491422042013"><ele>135.0</ele><time>2026-05-04T13:02:03.002Z</time></trkpt><trkpt lat="41.49539212472988" lon="0.3790774259281022"><ele>135.0</ele><time>2026-05-04T13:02:04.002Z</time></trkpt><trkpt lat="41.49531339891881" lon="0.3791682109808948"><ele>135.0</ele><time>2026-05-04T13:02:05.002Z</time></trkpt><trkpt lat="41.49523568066363" lon="0.37926067011122755"><ele>135.0</ele><time>2026-05-04T13:02:06.002Z</time></trkpt><trkpt lat="41.49514303826075" lon="0.37933583318746955"><ele>135.2</ele><time>2026-05-04T13:02:07.002Z</time></trkpt><trkpt lat="41.495070756732" lon="0.3794417532424878"><ele>135.4</ele><time>2026-05-04T13:02:08.002Z</time></trkpt><trkpt lat="41.49498808624043" lon="0.37953364232197634"><ele>135.6</ele><time>2026-05-04T13:02:09.002Z</time></trkpt><trkpt lat="41.49490520017879" lon="0.3796284422841885"><ele>135.8</ele><time>2026-05-04T13:02:10.002Z</time></trkpt><trkpt lat="41.49481883377168" lon="0.3797218909604504"><ele>136.0</ele><time>2026-05-04T13:02:11.002Z</time></trkpt><trkpt lat="41.49473590730494" lon="0.37982011502339186"><ele>136.0</ele><time>2026-05-04T13:02:12.002Z</time></trkpt><trkpt lat="41.4946546968962" lon="0.37990960469782215"><ele>136.0</ele><time>2026-05-04T13:02:13.002Z</time></trkpt><trkpt lat="41.494573956313765" lon="0.3799981317749987"><ele>136.0</ele><time>2026-05-04T13:02:14.002Z</time></trkpt><trkpt lat="41.494494850447325" lon="0.38008383268447954"><ele>136.0</ele><time>2026-05-04T13:02:15.002Z</time></trkpt><trkpt lat="41.49441444176987" lon="0.3801729062254597"><ele>136.0</ele><time>2026-05-04T13:02:16.002Z</time></trkpt><trkpt lat="41.49433224149915" lon="0.3802612303530144"><ele>136.4</ele><time>2026-05-04T13:02:17.002Z</time></trkpt><trkpt lat="41.49425274664018" lon="0.3803490962885875"><ele>136.8</ele><time>2026-05-04T13:02:18.003Z</time></trkpt><trkpt lat="41.4941727740277" lon="0.3804405269851717"><ele>137.20000000000002</ele><time>2026-05-04T13:02:19.001Z</time></trkpt><trkpt lat="41.494092586967604" lon="0.3805336848936188"><ele>137.6</ele><time>2026-05-04T13:02:20.001Z</time></trkpt><trkpt lat="41.49401397151183" lon="0.38062502959898553"><ele>138.0</ele><time>2026-05-04T13:02:21.001Z</time></trkpt><trkpt lat="41.49393382368699" lon="0.3807131468868088"><ele>138.4</ele><time>2026-05-04T13:02:22.001Z</time></trkpt><trkpt lat="41.49385574433891" lon="0.38080407383847403"><ele>138.8</ele><time>2026-05-04T13:02:23Z</time></trkpt><trkpt lat="41.49377463446723" lon="0.38089348783120885"><ele>139.2</ele><time>2026-05-04T13:02:24.001Z</time></trkpt><trkpt lat="41.49369216225068" lon="0.3809821508998237"><ele>139.6</ele><time>2026-05-04T13:02:25Z</time></trkpt><trkpt lat="41.493608238709264" lon="0.3810719804955559"><ele>140.0</ele><time>2026-05-04T13:02:26Z</time></trkpt><trkpt lat="41.49352352090745" lon="0.38116261954791014"><ele>140.0</ele><time>2026-05-04T13:02:27Z</time></trkpt><trkpt lat="41.493439954954155" lon="0.3812565110685691"><ele>140.0</ele><time>2026-05-04T13:02:28Z</time></trkpt><trkpt lat="41.493355385726716" lon="0.38134266701302383"><ele>140.0</ele><time>2026-05-04T13:02:29Z</time></trkpt><trkpt lat="41.49327135960643" lon="0.381427077485906"><ele>140.0</ele><time>2026-05-04T13:02:30Z</time></trkpt><trkpt lat="41.49318884071514" lon="0.38151098222220897"><ele>140.0</ele><time>2026-05-04T13:02:31Z</time></trkpt><trkpt lat="41.49310217678354" lon="0.38159045109203626"><ele>140.0</ele><time>2026-05-04T13:02:32Z</time></trkpt><trkpt lat="41.49301236998685" lon="0.3816663331742189"><ele>140.0</ele><time>2026-05-04T13:02:33Z</time></trkpt><trkpt lat="41.49292174848455" lon="0.38173706429720755"><ele>140.0</ele><time>2026-05-04T13:02:34Z</time></trkpt><trkpt lat="41.49282841149118" lon="0.38180205601503636"><ele>140.0</ele><time>2026-05-04T13:02:35Z</time></trkpt><trkpt lat="41.49273545295328" lon="0.38186979491809253"><ele>140.0</ele><time>2026-05-04T13:02:36Z</time></trkpt><trkpt lat="41.49264557145669" lon="0.3819378336303276"><ele>140.0</ele><time>2026-05-04T13:02:37Z</time></trkpt><trkpt lat="41.49255349623663" lon="0.38199606754054677"><ele>140.0</ele><time>2026-05-04T13:02:38Z</time></trkpt><trkpt lat="41.49246091484559" lon="0.3820504605278083"><ele>140.0</ele><time>2026-05-04T13:02:39.001Z</time></trkpt><trkpt lat="41.492363754904346" lon="0.382103936195934"><ele>140.0</ele><time>2026-05-04T13:02:40.001Z</time></trkpt><trkpt lat="41.49226651197027" lon="0.3821553613066701"><ele>140.0</ele><time>2026-05-04T13:02:41.001Z</time></trkpt><trkpt lat="41.49216784223424" lon="0.3822085307674238"><ele>140.0</ele><time>2026-05-04T13:02:42.001Z</time></trkpt><trkpt lat="41.49206982054154" lon="0.38226068323316853"><ele>140.0</ele><time>2026-05-04T13:02:43.001Z</time></trkpt><trkpt lat="41.49196868720854" lon="0.3822953829369809"><ele>140.0</ele><time>2026-05-04T13:02:44.001Z</time></trkpt><trkpt lat="41.49186672949137" lon="0.38233910297702667"><ele>140.0</ele><time>2026-05-04T13:02:45.001Z</time></trkpt><trkpt lat="41.49176341964128" lon="0.38238312251117007"><ele>140.0</ele><time>2026-05-04T13:02:46.001Z</time></trkpt><trkpt lat="41.491660543569765" lon="0.38241684603073944"><ele>140.0</ele><time>2026-05-04T13:02:47.001Z</time></trkpt><trkpt lat="41.49155674242491" lon="0.3824511334445583"><ele>140.0</ele><time>2026-05-04T13:02:48.001Z</time></trkpt><trkpt lat="41.491452234164015" lon="0.38248254102975043"><ele>140.0</ele><time>2026-05-04T13:02:49.001Z</time></trkpt><trkpt lat="41.49134645363446" lon="0.3825078271743467"><ele>140.0</ele><time>2026-05-04T13:02:50.001Z</time></trkpt><trkpt lat="41.49124191826349" lon="0.38252402228118376"><ele>140.0</ele><time>2026-05-04T13:02:51.001Z</time></trkpt><trkpt lat="41.49113429428585" lon="0.3825438962988457"><ele>139.8</ele><time>2026-05-04T13:02:52.001Z</time></trkpt><trkpt lat="41.49102636780509" lon="0.38256339163381564"><ele>139.6</ele><time>2026-05-04T13:02:53.001Z</time></trkpt><trkpt lat="41.490918023813315" lon="0.3825831757018492"><ele>139.4</ele><time>2026-05-04T13:02:54.001Z</time></trkpt><trkpt lat="41.49080948262496" lon="0.3825998657205056"><ele>139.2</ele><time>2026-05-04T13:02:55.001Z</time></trkpt><trkpt lat="41.490702940418004" lon="0.38261265456464877"><ele>139.0</ele><time>2026-05-04T13:02:56.001Z</time></trkpt><trkpt lat="41.49059554623282" lon="0.3826319238318369"><ele>139.0</ele><time>2026-05-04T13:02:57.001Z</time></trkpt><trkpt lat="41.49048779751589" lon="0.3826505037780293"><ele>139.0</ele><time>2026-05-04T13:02:58.001Z</time></trkpt><trkpt lat="41.49038032805417" lon="0.3826687513368126"><ele>139.0</ele><time>2026-05-04T13:02:59.001Z</time></trkpt><trkpt lat="41.49027051459321" lon="0.3826831655461607"><ele>139.0</ele><time>2026-05-04T13:03:00.001Z</time></trkpt><trkpt lat="41.49016218951646" lon="0.38270357871407384"><ele>139.0</ele><time>2026-05-04T13:03:01.001Z</time></trkpt><trkpt lat="41.49005522256346" lon="0.38271955519448636"><ele>139.0</ele><time>2026-05-04T13:03:02.001Z</time></trkpt><trkpt lat="41.489947761832966" lon="0.38273706607126223"><ele>139.0</ele><time>2026-05-04T13:03:03.001Z</time></trkpt><trkpt lat="41.489840021662616" lon="0.38275336419434647"><ele>139.0</ele><time>2026-05-04T13:03:04.001Z</time></trkpt><trkpt lat="41.48973234522608" lon="0.38277122726609686"><ele>139.0</ele><time>2026-05-04T13:03:05.001Z</time></trkpt><trkpt lat="41.489623496253415" lon="0.38278395529630926"><ele>139.0</ele><time>2026-05-04T13:03:06.001Z</time></trkpt><trkpt lat="41.489517074459386" lon="0.382799376805116"><ele>139.2</ele><time>2026-05-04T13:03:07.001Z</time></trkpt><trkpt lat="41.489409817620086" lon="0.3828172169820673"><ele>139.4</ele><time>2026-05-04T13:03:08.001Z</time></trkpt><trkpt lat="41.48930203164178" lon="0.38283674309484794"><ele>139.6</ele><time>2026-05-04T13:03:09.001Z</time></trkpt><trkpt lat="41.489191320485034" lon="0.3828534066529984"><ele>139.8</ele><time>2026-05-04T13:03:10.001Z</time></trkpt><trkpt lat="41.4890844434221" lon="0.38286860956888386"><ele>140.0</ele><time>2026-05-04T13:03:11.001Z</time></trkpt><trkpt lat="41.488980265062494" lon="0.3828817547075204"><ele>140.0</ele><time>2026-05-04T13:03:12.001Z</time></trkpt><trkpt lat="41.4888748974861" lon="0.3829003260215209"><ele>140.0</ele><time>2026-05-04T13:03:13.001Z</time></trkpt><trkpt lat="41.48876904398317" lon="0.3829189057943506"><ele>140.0</ele><time>2026-05-04T13:03:14.001Z</time></trkpt><trkpt lat="41.48866392941553" lon="0.38293490594385576"><ele>140.0</ele><time>2026-05-04T13:03:15.001Z</time></trkpt><trkpt lat="41.488557124875996" lon="0.3829520328842546"><ele>140.0</ele><time>2026-05-04T13:03:16.001Z</time></trkpt><trkpt lat="41.48844899386207" lon="0.38296787957076794"><ele>140.4</ele><time>2026-05-04T13:03:17.001Z</time></trkpt><trkpt lat="41.488340879626804" lon="0.38297933608068213"><ele>140.8</ele><time>2026-05-04T13:03:18.001Z</time></trkpt><trkpt lat="41.488233587115914" lon="0.3829943763552311"><ele>141.2</ele><time>2026-05-04T13:03:19.001Z</time></trkpt><trkpt lat="41.48812588148403" lon="0.3830104135729674"><ele>141.6</ele><time>2026-05-04T13:03:20.001Z</time></trkpt><trkpt lat="41.48801888578002" lon="0.38302088886216135"><ele>142.0</ele><time>2026-05-04T13:03:21.001Z</time></trkpt><trkpt lat="41.48791478059501" lon="0.3830317419116929"><ele>142.4</ele><time>2026-05-04T13:03:22.001Z</time></trkpt><trkpt lat="41.48780905732961" lon="0.3830513812327874"><ele>142.79999999999998</ele><time>2026-05-04T13:03:23.001Z</time></trkpt><trkpt lat="41.48770328328158" lon="0.3830728260462311"><ele>143.2</ele><time>2026-05-04T13:03:24.001Z</time></trkpt><trkpt lat="41.48759826369594" lon="0.3830901051459282"><ele>143.6</ele><time>2026-05-04T13:03:25.001Z</time></trkpt><trkpt lat="41.48749240635623" lon="0.38310560808356625"><ele>144.0</ele><time>2026-05-04T13:03:26.001Z</time></trkpt><trkpt lat="41.48738793140901" lon="0.38312121418973716"><ele>144.0</ele><time>2026-05-04T13:03:27.001Z</time></trkpt><trkpt lat="41.487283221287974" lon="0.3831394353646719"><ele>144.0</ele><time>2026-05-04T13:03:28.001Z</time></trkpt><trkpt lat="41.48717836335856" lon="0.38315598563008246"><ele>144.0</ele><time>2026-05-04T13:03:29.001Z</time></trkpt><trkpt lat="41.48707369581652" lon="0.3831714261679408"><ele>144.0</ele><time>2026-05-04T13:03:30.001Z</time></trkpt><trkpt lat="41.48696919716483" lon="0.3831874329450336"><ele>144.0</ele><time>2026-05-04T13:03:31.001Z</time></trkpt><trkpt lat="41.4868635707454" lon="0.3832065486976131"><ele>144.0</ele><time>2026-05-04T13:03:32.001Z</time></trkpt><trkpt lat="41.48675956957773" lon="0.3832221563081904"><ele>144.0</ele><time>2026-05-04T13:03:33.001Z</time></trkpt><trkpt lat="41.48665644196997" lon="0.383240267241705"><ele>144.0</ele><time>2026-05-04T13:03:34.001Z</time></trkpt><trkpt lat="41.48655231794494" lon="0.3832546504574866"><ele>144.0</ele><time>2026-05-04T13:03:35.002Z</time></trkpt><trkpt lat="41.486446744733655" lon="0.3832770578224561"><ele>144.0</ele><time>2026-05-04T13:03:36.002Z</time></trkpt><trkpt lat="41.48634155847643" lon="0.3832977320851038"><ele>144.0</ele><time>2026-05-04T13:03:37.002Z</time></trkpt><trkpt lat="41.486236323222286" lon="0.3833159495816745"><ele>144.0</ele><time>2026-05-04T13:03:38.002Z</time></trkpt><trkpt lat="41.486132161773575" lon="0.38332836403333664"><ele>144.0</ele><time>2026-05-04T13:03:39.002Z</time></trkpt><trkpt lat="41.486029141092445" lon="0.3833385476687724"><ele>144.0</ele><time>2026-05-04T13:03:40.002Z</time></trkpt><trkpt lat="41.485925644245334" lon="0.38335610043448015"><ele>144.0</ele><time>2026-05-04T13:03:41.002Z</time></trkpt><trkpt lat="41.48581986952988" lon="0.38337698283198307"><ele>144.0</ele><time>2026-05-04T13:03:42.002Z</time></trkpt><trkpt lat="41.485714700624996" lon="0.3833932816317275"><ele>144.0</ele><time>2026-05-04T13:03:43.002Z</time></trkpt><trkpt lat="41.48561096955424" lon="0.38341214590904293"><ele>144.0</ele><time>2026-05-04T13:03:44.002Z</time></trkpt><trkpt lat="41.48550519913878" lon="0.3834300333454708"><ele>144.0</ele><time>2026-05-04T13:03:45.002Z</time></trkpt><trkpt lat="41.48539900164261" lon="0.3834440718676935"><ele>144.0</ele><time>2026-05-04T13:03:46.002Z</time></trkpt><trkpt lat="41.48529685439015" lon="0.3834554285270486"><ele>144.0</ele><time>2026-05-04T13:03:47.002Z</time></trkpt><trkpt lat="41.48519877709198" lon="0.3834678072530564"><ele>144.0</ele><time>2026-05-04T13:03:48.002Z</time></trkpt><trkpt lat="41.48509753445527" lon="0.38348700914685674"><ele>144.0</ele><time>2026-05-04T13:03:49.002Z</time></trkpt><trkpt lat="41.48499524037602" lon="0.3835071691637079"><ele>144.0</ele><time>2026-05-04T13:03:50.002Z</time></trkpt><trkpt lat="41.4848918347708" lon="0.3835261249385705"><ele>144.0</ele><time>2026-05-04T13:03:51.002Z</time></trkpt><trkpt lat="41.48479148004034" lon="0.3835406488257225"><ele>144.0</ele><time>2026-05-04T13:03:52.002Z</time></trkpt><trkpt lat="41.48468894335193" lon="0.38355770917145104"><ele>144.0</ele><time>2026-05-04T13:03:53.002Z</time></trkpt><trkpt lat="41.48458450550551" lon="0.3835764271857104"><ele>144.0</ele><time>2026-05-04T13:03:54.002Z</time></trkpt><trkpt lat="41.48448019209802" lon="0.383589821475958"><ele>144.0</ele><time>2026-05-04T13:03:55.002Z</time></trkpt><trkpt lat="41.48437620710389" lon="0.383605733392603"><ele>144.0</ele><time>2026-05-04T13:03:56.002Z</time></trkpt><trkpt lat="41.48427081054833" lon="0.3836223795976087"><ele>144.2</ele><time>2026-05-04T13:03:57.002Z</time></trkpt><trkpt lat="41.48416506914336" lon="0.38363698543405805"><ele>144.4</ele><time>2026-05-04T13:03:58.002Z</time></trkpt><trkpt lat="41.48406190034912" lon="0.38365084385865006"><ele>144.6</ele><time>2026-05-04T13:03:59.002Z</time></trkpt><trkpt lat="41.4839593285377" lon="0.3836590269144879"><ele>144.8</ele><time>2026-05-04T13:04:00.002Z</time></trkpt><trkpt lat="41.48385750263902" lon="0.38367063545369495"><ele>145.0</ele><time>2026-05-04T13:04:01.002Z</time></trkpt><trkpt lat="41.48375422236513" lon="0.38369119800417617"><ele>145.0</ele><time>2026-05-04T13:04:02.002Z</time></trkpt><trkpt lat="41.483649881005014" lon="0.3837100435169526"><ele>145.0</ele><time>2026-05-04T13:04:03.002Z</time></trkpt><trkpt lat="41.4835471336699" lon="0.38372770827105424"><ele>145.0</ele><time>2026-05-04T13:04:04.002Z</time></trkpt><trkpt lat="41.48344182953605" lon="0.3837304614282999"><ele>145.0</ele><time>2026-05-04T13:04:05.002Z</time></trkpt><trkpt lat="41.4833382269476" lon="0.3837465062844448"><ele>145.0</ele><time>2026-05-04T13:04:06.002Z</time></trkpt><trkpt lat="41.483235663639505" lon="0.38376239019016073"><ele>145.0</ele><time>2026-05-04T13:04:07.002Z</time></trkpt><trkpt lat="41.48313020961419" lon="0.3837787217789293"><ele>145.0</ele><time>2026-05-04T13:04:08.002Z</time></trkpt><trkpt lat="41.483026326521674" lon="0.3837948100762026"><ele>145.0</ele><time>2026-05-04T13:04:09.002Z</time></trkpt><trkpt lat="41.482920482859754" lon="0.3838112020088253"><ele>145.0</ele><time>2026-05-04T13:04:10.002Z</time></trkpt><trkpt lat="41.48281543448221" lon="0.38382747077268414"><ele>145.0</ele><time>2026-05-04T13:04:11.002Z</time></trkpt><trkpt lat="41.482710523110256" lon="0.38385613914932903"><ele>145.0</ele><time>2026-05-04T13:04:12.002Z</time></trkpt><trkpt lat="41.482605857210324" lon="0.3838637795448536"><ele>145.0</ele><time>2026-05-04T13:04:13.002Z</time></trkpt><trkpt lat="41.482500066615955" lon="0.38388739704606734"><ele>145.0</ele><time>2026-05-04T13:04:14.002Z</time></trkpt><trkpt lat="41.48239285174439" lon="0.38391084974813217"><ele>145.0</ele><time>2026-05-04T13:04:15.002Z</time></trkpt><trkpt lat="41.48228776913458" lon="0.3839244497965698"><ele>145.0</ele><time>2026-05-04T13:04:16.002Z</time></trkpt><trkpt lat="41.48218390345267" lon="0.38393860475239666"><ele>145.8</ele><time>2026-05-04T13:04:17.002Z</time></trkpt><trkpt lat="41.48207658669252" lon="0.38395418629159966"><ele>146.6</ele><time>2026-05-04T13:04:18.002Z</time></trkpt><trkpt lat="41.481968357437346" lon="0.383971714543993"><ele>147.4</ele><time>2026-05-04T13:04:19.002Z</time></trkpt><trkpt lat="41.481862163023024" lon="0.3839906009106214"><ele>148.2</ele><time>2026-05-04T13:04:20.002Z</time></trkpt><trkpt lat="41.48175597040863" lon="0.384008076377535"><ele>149.0</ele><time>2026-05-04T13:04:21.002Z</time></trkpt><trkpt lat="41.48165093453598" lon="0.3840190264021282"><ele>149.0</ele><time>2026-05-04T13:04:22.002Z</time></trkpt><trkpt lat="41.48154584197777" lon="0.38403992060785896"><ele>149.0</ele><time>2026-05-04T13:04:23.003Z</time></trkpt><trkpt lat="41.48144159402445" lon="0.38405766953865145"><ele>149.0</ele><time>2026-05-04T13:04:24.003Z</time></trkpt><trkpt lat="41.48133685185274" lon="0.3840745449553389"><ele>149.0</ele><time>2026-05-04T13:04:25Z</time></trkpt><trkpt lat="41.481233884261414" lon="0.38408436798531126"><ele>149.0</ele><time>2026-05-04T13:04:26Z</time></trkpt><trkpt lat="41.48113075799012" lon="0.3841046172950955"><ele>149.0</ele><time>2026-05-04T13:04:27Z</time></trkpt><trkpt lat="41.48102690657861" lon="0.38412692132644727"><ele>149.0</ele><time>2026-05-04T13:04:28Z</time></trkpt><trkpt lat="41.480923800199726" lon="0.38414651292490487"><ele>149.0</ele><time>2026-05-04T13:04:29Z</time></trkpt><trkpt lat="41.4808229326101" lon="0.3841687648712858"><ele>149.0</ele><time>2026-05-04T13:04:30Z</time></trkpt><trkpt lat="41.480722933991416" lon="0.38420180885638794"><ele>149.0</ele><time>2026-05-04T13:04:31Z</time></trkpt><trkpt lat="41.480622469624315" lon="0.38424588589273034"><ele>149.0</ele><time>2026-05-04T13:04:32Z</time></trkpt><trkpt lat="41.48052407218584" lon="0.3842957091559964"><ele>149.0</ele><time>2026-05-04T13:04:33Z</time></trkpt><trkpt lat="41.48042823549967" lon="0.3843559981692846"><ele>149.0</ele><time>2026-05-04T13:04:34Z</time></trkpt><trkpt lat="41.48033353003044" lon="0.38441544162367314"><ele>149.0</ele><time>2026-05-04T13:04:35Z</time></trkpt><trkpt lat="41.480241591211666" lon="0.3844865501311423"><ele>149.0</ele><time>2026-05-04T13:04:36Z</time></trkpt><trkpt lat="41.48015241551364" lon="0.38456249111780433"><ele>149.0</ele><time>2026-05-04T13:04:37Z</time></trkpt><trkpt lat="41.480063806769294" lon="0.38464660314181426"><ele>149.0</ele><time>2026-05-04T13:04:38Z</time></trkpt><trkpt lat="41.479979644396195" lon="0.38473493254965724"><ele>149.0</ele><time>2026-05-04T13:04:39Z</time></trkpt><trkpt lat="41.47989736795762" lon="0.3848276994085412"><ele>149.0</ele><time>2026-05-04T13:04:40Z</time></trkpt><trkpt lat="41.479813713044074" lon="0.3849143661604459"><ele>149.0</ele><time>2026-05-04T13:04:41Z</time></trkpt><trkpt lat="41.479731012953344" lon="0.384998981121145"><ele>149.0</ele><time>2026-05-04T13:04:42Z</time></trkpt><trkpt lat="41.4796501605113" lon="0.38508797193539146"><ele>149.0</ele><time>2026-05-04T13:04:43Z</time></trkpt><trkpt lat="41.47956858663386" lon="0.3851793389546954"><ele>149.0</ele><time>2026-05-04T13:04:44Z</time></trkpt><trkpt lat="41.47948626322685" lon="0.38526796375063527"><ele>149.0</ele><time>2026-05-04T13:04:45Z</time></trkpt><trkpt lat="41.47940636896075" lon="0.38535635645737515"><ele>149.0</ele><time>2026-05-04T13:04:46Z</time></trkpt><trkpt lat="41.47932611316048" lon="0.38544273617479996"><ele>149.0</ele><time>2026-05-04T13:04:47Z</time></trkpt><trkpt lat="41.47924760312653" lon="0.385529734270876"><ele>149.0</ele><time>2026-05-04T13:04:48Z</time></trkpt><trkpt lat="41.47916935481837" lon="0.38561431251481143"><ele>149.0</ele><time>2026-05-04T13:04:49Z</time></trkpt><trkpt lat="41.47908933289894" lon="0.3857047665649396"><ele>149.0</ele><time>2026-05-04T13:04:50Z</time></trkpt><trkpt lat="41.47901046436681" lon="0.38579262896818517"><ele>149.0</ele><time>2026-05-04T13:04:51Z</time></trkpt><trkpt lat="41.47893227937024" lon="0.3858812280688915"><ele>149.0</ele><time>2026-05-04T13:04:52Z</time></trkpt><trkpt lat="41.478852609382805" lon="0.3859679153658227"><ele>149.0</ele><time>2026-05-04T13:04:53Z</time></trkpt><trkpt lat="41.478771419305566" lon="0.3860520803925499"><ele>149.0</ele><time>2026-05-04T13:04:54Z</time></trkpt><trkpt lat="41.478690122568075" lon="0.38613892791044513"><ele>149.0</ele><time>2026-05-04T13:04:55Z</time></trkpt><trkpt lat="41.47860989930133" lon="0.38622746816529513"><ele>149.0</ele><time>2026-05-04T13:04:56Z</time></trkpt><trkpt lat="41.47853082452722" lon="0.38631385771103566"><ele>149.4</ele><time>2026-05-04T13:04:57Z</time></trkpt><trkpt lat="41.47845114066829" lon="0.38640376607633803"><ele>149.8</ele><time>2026-05-04T13:04:58Z</time></trkpt><trkpt lat="41.47837000275431" lon="0.38649250143192093"><ele>150.2</ele><time>2026-05-04T13:04:59Z</time></trkpt><trkpt lat="41.47828997046709" lon="0.3865824261495346"><ele>150.6</ele><time>2026-05-04T13:05:00Z</time></trkpt><trkpt lat="41.478207916792044" lon="0.38666806285428784"><ele>151.0</ele><time>2026-05-04T13:05:01Z</time></trkpt><trkpt lat="41.47812542805469" lon="0.38675282738583217"><ele>151.0</ele><time>2026-05-04T13:05:02Z</time></trkpt><trkpt lat="41.47804281384851" lon="0.3868407370957189"><ele>151.0</ele><time>2026-05-04T13:05:03Z</time></trkpt><trkpt lat="41.477962045357984" lon="0.3869301186241486"><ele>151.0</ele><time>2026-05-04T13:05:04Z</time></trkpt><trkpt lat="41.477881067910964" lon="0.3870185582850178"><ele>151.0</ele><time>2026-05-04T13:05:05Z</time></trkpt><trkpt lat="41.477799337890296" lon="0.38710606071313347"><ele>151.0</ele><time>2026-05-04T13:05:06Z</time></trkpt><trkpt lat="41.47771685769672" lon="0.3871932183262974"><ele>151.4</ele><time>2026-05-04T13:05:07Z</time></trkpt><trkpt lat="41.47763258179353" lon="0.3872807540956332"><ele>151.8</ele><time>2026-05-04T13:05:08.001Z</time></trkpt><trkpt lat="41.47754876360277" lon="0.3873732468754221"><ele>152.20000000000002</ele><time>2026-05-04T13:05:09.001Z</time></trkpt><trkpt lat="41.47746450196003" lon="0.3874631741120841"><ele>152.6</ele><time>2026-05-04T13:05:10.001Z</time></trkpt><trkpt lat="41.47738003044491" lon="0.387553270219695"><ele>153.0</ele><time>2026-05-04T13:05:11.001Z</time></trkpt><trkpt lat="41.477296402074174" lon="0.3876425570929284"><ele>153.0</ele><time>2026-05-04T13:05:12.001Z</time></trkpt><trkpt lat="41.47721394679739" lon="0.3877322934274187"><ele>153.0</ele><time>2026-05-04T13:05:13.001Z</time></trkpt><trkpt lat="41.47713318180097" lon="0.38782228158901616"><ele>153.0</ele><time>2026-05-04T13:05:14.001Z</time></trkpt><trkpt lat="41.47705180228049" lon="0.38791131176379684"><ele>153.0</ele><time>2026-05-04T13:05:15.001Z</time></trkpt><trkpt lat="41.47697074608419" lon="0.38800021726064265"><ele>153.0</ele><time>2026-05-04T13:05:16.001Z</time></trkpt><trkpt lat="41.47689107351407" lon="0.3880925373799126"><ele>152.8</ele><time>2026-05-04T13:05:17.001Z</time></trkpt><trkpt lat="41.47681207930333" lon="0.3881851678905993"><ele>152.60000000000002</ele><time>2026-05-04T13:05:18.001Z</time></trkpt><trkpt lat="41.47673576222642" lon="0.3882802609819006"><ele>152.39999999999998</ele><time>2026-05-04T13:05:19.001Z</time></trkpt><trkpt lat="41.476663240698365" lon="0.38838107250926657"><ele>152.2</ele><time>2026-05-04T13:05:20.001Z</time></trkpt><trkpt lat="41.47659309575605" lon="0.3884832212805323"><ele>152.0</ele><time>2026-05-04T13:05:21.001Z</time></trkpt><trkpt lat="41.47652247867352" lon="0.3885904432357569"><ele>152.0</ele><time>2026-05-04T13:05:22.001Z</time></trkpt><trkpt lat="41.476452217542224" lon="0.38870042562326285"><ele>152.0</ele><time>2026-05-04T13:05:23.001Z</time></trkpt><trkpt lat="41.47638249614567" lon="0.3888113641695624"><ele>152.0</ele><time>2026-05-04T13:05:24.001Z</time></trkpt><trkpt lat="41.47631268009383" lon="0.3889245281490039"><ele>152.0</ele><time>2026-05-04T13:05:25.001Z</time></trkpt><trkpt lat="41.476244669651166" lon="0.3890370872642826"><ele>152.0</ele><time>2026-05-04T13:05:26.001Z</time></trkpt><trkpt lat="41.47617449797736" lon="0.38914744954624864"><ele>151.6</ele><time>2026-05-04T13:05:27.001Z</time></trkpt><trkpt lat="41.476104220911004" lon="0.38925924992125616"><ele>151.2</ele><time>2026-05-04T13:05:28.001Z</time></trkpt><trkpt lat="41.47603675456197" lon="0.3893696618553513"><ele>150.8</ele><time>2026-05-04T13:05:29.001Z</time></trkpt><trkpt lat="41.475970293556294" lon="0.3894823884194631"><ele>150.4</ele><time>2026-05-04T13:05:30.001Z</time></trkpt><trkpt lat="41.47589975889387" lon="0.3895918431404663"><ele>150.0</ele><time>2026-05-04T13:05:31.001Z</time></trkpt><trkpt lat="41.47583057148942" lon="0.3897016499476403"><ele>149.6</ele><time>2026-05-04T13:05:32.001Z</time></trkpt><trkpt lat="41.475762949295344" lon="0.3898131238848804"><ele>149.2</ele><time>2026-05-04T13:05:33.001Z</time></trkpt><trkpt lat="41.47569412654167" lon="0.38992492428542236"><ele>148.8</ele><time>2026-05-04T13:05:34.001Z</time></trkpt><trkpt lat="41.4756255462499" lon="0.39003660715676663"><ele>148.4</ele><time>2026-05-04T13:05:35.001Z</time></trkpt><trkpt lat="41.475558199450354" lon="0.39015007230144"><ele>148.0</ele><time>2026-05-04T13:05:36.001Z</time></trkpt><trkpt lat="41.475491161834135" lon="0.3902624525828936"><ele>147.4</ele><time>2026-05-04T13:05:37.001Z</time></trkpt><trkpt lat="41.475426620061775" lon="0.39037556337200113"><ele>146.8</ele><time>2026-05-04T13:05:38.001Z</time></trkpt><trkpt lat="41.47535805230383" lon="0.39048624917663516"><ele>146.2</ele><time>2026-05-04T13:05:39.001Z</time></trkpt><trkpt lat="41.47529009754845" lon="0.3905991178658934"><ele>145.6</ele><time>2026-05-04T13:05:40.001Z</time></trkpt><trkpt lat="41.47522144428125" lon="0.3907093099470323"><ele>145.0</ele><time>2026-05-04T13:05:41.001Z</time></trkpt><trkpt lat="41.475151734618706" lon="0.39081924992823036"><ele>144.2</ele><time>2026-05-04T13:05:42.001Z</time></trkpt><trkpt lat="41.47508266293011" lon="0.3909274338560841"><ele>143.4</ele><time>2026-05-04T13:05:43.001Z</time></trkpt><trkpt lat="41.47501133824077" lon="0.39103604304689155"><ele>142.6</ele><time>2026-05-04T13:05:44.001Z</time></trkpt><trkpt lat="41.47493952626409" lon="0.3911405799822298"><ele>141.8</ele><time>2026-05-04T13:05:45.001Z</time></trkpt><trkpt lat="41.47486912386398" lon="0.39124495397073605"><ele>141.0</ele><time>2026-05-04T13:05:46.001Z</time></trkpt><trkpt lat="41.47479997967674" lon="0.391351762488676"><ele>141.0</ele><time>2026-05-04T13:05:47.001Z</time></trkpt><trkpt lat="41.474731991822644" lon="0.39145968973174855"><ele>141.0</ele><time>2026-05-04T13:05:48.001Z</time></trkpt><trkpt lat="41.47466478857764" lon="0.39156708535032253"><ele>141.0</ele><time>2026-05-04T13:05:49.001Z</time></trkpt><trkpt lat="41.47459951410065" lon="0.39167503788559893"><ele>141.0</ele><time>2026-05-04T13:05:50.001Z</time></trkpt><trkpt lat="41.47453140248908" lon="0.3917850890170584"><ele>141.0</ele><time>2026-05-04T13:05:51.001Z</time></trkpt><trkpt lat="41.474464105324664" lon="0.3918953832741872"><ele>140.8</ele><time>2026-05-04T13:05:52.001Z</time></trkpt><trkpt lat="41.47439340708569" lon="0.39200518726026296"><ele>140.6</ele><time>2026-05-04T13:05:53.002Z</time></trkpt><trkpt lat="41.474328452656366" lon="0.3921126839669323"><ele>140.4</ele><time>2026-05-04T13:05:54.002Z</time></trkpt><trkpt lat="41.474263500087254" lon="0.39222629832114836"><ele>140.2</ele><time>2026-05-04T13:05:55.002Z</time></trkpt><trkpt lat="41.47419534289163" lon="0.39233381981696475"><ele>140.0</ele><time>2026-05-04T13:05:56.002Z</time></trkpt><trkpt lat="41.474128474767916" lon="0.39243784008455557"><ele>139.6</ele><time>2026-05-04T13:05:57.002Z</time></trkpt><trkpt lat="41.474058634260174" lon="0.39254663502803316"><ele>139.2</ele><time>2026-05-04T13:05:58.002Z</time></trkpt><trkpt lat="41.47398759634672" lon="0.3926526630823045"><ele>138.8</ele><time>2026-05-04T13:05:59.002Z</time></trkpt><trkpt lat="41.47391809663792" lon="0.3927571134761061"><ele>138.4</ele><time>2026-05-04T13:06:00.002Z</time></trkpt><trkpt lat="41.473849660076915" lon="0.3928658117420137"><ele>138.0</ele><time>2026-05-04T13:06:01.002Z</time></trkpt><trkpt lat="41.47378125851545" lon="0.3929763016266268"><ele>137.6</ele><time>2026-05-04T13:06:02.002Z</time></trkpt><trkpt lat="41.47371398439172" lon="0.3930876681257491"><ele>137.20000000000002</ele><time>2026-05-04T13:06:03.002Z</time></trkpt><trkpt lat="41.47364574610478" lon="0.3931980704882838"><ele>136.8</ele><time>2026-05-04T13:06:04.002Z</time></trkpt><trkpt lat="41.47357673161158" lon="0.3933068006531911"><ele>136.4</ele><time>2026-05-04T13:06:05.002Z</time></trkpt><trkpt lat="41.473509565597496" lon="0.3934140787012643"><ele>136.0</ele><time>2026-05-04T13:06:06.002Z</time></trkpt><trkpt lat="41.473442930375136" lon="0.3935228631620364"><ele>136.0</ele><time>2026-05-04T13:06:07.002Z</time></trkpt><trkpt lat="41.47337622932322" lon="0.39362879753754776"><ele>136.0</ele><time>2026-05-04T13:06:08.002Z</time></trkpt><trkpt lat="41.47330840989846" lon="0.39373815858033107"><ele>136.0</ele><time>2026-05-04T13:06:09.002Z</time></trkpt><trkpt lat="41.47324154040738" lon="0.3938467813222501"><ele>136.0</ele><time>2026-05-04T13:06:10.002Z</time></trkpt><trkpt lat="41.47317454022338" lon="0.3939555771073633"><ele>136.0</ele><time>2026-05-04T13:06:11.002Z</time></trkpt><trkpt lat="41.473105759090885" lon="0.39406422453080175"><ele>135.8</ele><time>2026-05-04T13:06:12.002Z</time></trkpt><trkpt lat="41.47303713355934" lon="0.39417078095328484"><ele>135.6</ele><time>2026-05-04T13:06:13.002Z</time></trkpt><trkpt lat="41.472967555136044" lon="0.39427587950002513"><ele>135.4</ele><time>2026-05-04T13:06:14.002Z</time></trkpt><trkpt lat="41.4729024742247" lon="0.3943847882554161"><ele>135.2</ele><time>2026-05-04T13:06:15.002Z</time></trkpt><trkpt lat="41.47283312787059" lon="0.39449530608322947"><ele>135.0</ele><time>2026-05-04T13:06:16.002Z</time></trkpt><trkpt lat="41.472767090840016" lon="0.39460347406824686"><ele>134.0</ele><time>2026-05-04T13:06:17.002Z</time></trkpt><trkpt lat="41.472699915061284" lon="0.3947145918647165"><ele>133.0</ele><time>2026-05-04T13:06:18.002Z</time></trkpt><trkpt lat="41.47263250834272" lon="0.394819875456212"><ele>132.0</ele><time>2026-05-04T13:06:19.002Z</time></trkpt><trkpt lat="41.472565559317296" lon="0.39492911041938333"><ele>131.0</ele><time>2026-05-04T13:06:20.002Z</time></trkpt><trkpt lat="41.47249788385829" lon="0.39504110544169285"><ele>130.0</ele><time>2026-05-04T13:06:21.002Z</time></trkpt><trkpt lat="41.472433663856535" lon="0.3951490054834073"><ele>130.0</ele><time>2026-05-04T13:06:22.002Z</time></trkpt><trkpt lat="41.47236577509312" lon="0.39525767393965294"><ele>130.0</ele><time>2026-05-04T13:06:23.002Z</time></trkpt><trkpt lat="41.47229654554682" lon="0.39536496447636427"><ele>130.0</ele><time>2026-05-04T13:06:24.002Z</time></trkpt><trkpt lat="41.47222844342055" lon="0.39547166623509633"><ele>130.0</ele><time>2026-05-04T13:06:25.002Z</time></trkpt><trkpt lat="41.47216004601574" lon="0.39558060894631436"><ele>130.0</ele><time>2026-05-04T13:06:26.002Z</time></trkpt><trkpt lat="41.472093951098294" lon="0.3956872444629932"><ele>130.2</ele><time>2026-05-04T13:06:27.002Z</time></trkpt><trkpt lat="41.472025745448065" lon="0.3957950659170458"><ele>130.4</ele><time>2026-05-04T13:06:28.002Z</time></trkpt><trkpt lat="41.47195627916518" lon="0.3959034455217746"><ele>130.6</ele><time>2026-05-04T13:06:29.002Z</time></trkpt><trkpt lat="41.47188840170572" lon="0.3960138995370681"><ele>130.8</ele><time>2026-05-04T13:06:30.002Z</time></trkpt><trkpt lat="41.47182526718429" lon="0.39612148823210663"><ele>131.0</ele><time>2026-05-04T13:06:31Z</time></trkpt><trkpt lat="41.47176156445191" lon="0.39623173564908065"><ele>130.8</ele><time>2026-05-04T13:06:32Z</time></trkpt><trkpt lat="41.47169467214666" lon="0.3963389214624925"><ele>130.6</ele><time>2026-05-04T13:06:33Z</time></trkpt><trkpt lat="41.47162677886579" lon="0.3964456423941723"><ele>130.4</ele><time>2026-05-04T13:06:34Z</time></trkpt><trkpt lat="41.471557182240446" lon="0.396552656606668"><ele>130.2</ele><time>2026-05-04T13:06:35Z</time></trkpt><trkpt lat="41.47149037624884" lon="0.39666039675093"><ele>130.0</ele><time>2026-05-04T13:06:36Z</time></trkpt><trkpt lat="41.47142256868944" lon="0.3967693717077268"><ele>130.0</ele><time>2026-05-04T13:06:37Z</time></trkpt><trkpt lat="41.4713553947008" lon="0.39687548203105255"><ele>130.0</ele><time>2026-05-04T13:06:38Z</time></trkpt><trkpt lat="41.47128670238084" lon="0.39698365804077695"><ele>130.0</ele><time>2026-05-04T13:06:39Z</time></trkpt><trkpt lat="41.471218514337885" lon="0.39709495279204554"><ele>130.0</ele><time>2026-05-04T13:06:40Z</time></trkpt><trkpt lat="41.47115184097419" lon="0.39720264896862356"><ele>130.0</ele><time>2026-05-04T13:06:41Z</time></trkpt><trkpt lat="41.47108373846217" lon="0.3973114358361121"><ele>129.6</ele><time>2026-05-04T13:06:42Z</time></trkpt><trkpt lat="41.47101852756519" lon="0.3974165034359688"><ele>129.2</ele><time>2026-05-04T13:06:43Z</time></trkpt><trkpt lat="41.47095124809194" lon="0.39752852350981777"><ele>128.8</ele><time>2026-05-04T13:06:44Z</time></trkpt><trkpt lat="41.470884605865535" lon="0.3976352207495216"><ele>128.4</ele><time>2026-05-04T13:06:45Z</time></trkpt><trkpt lat="41.47081906894598" lon="0.3977436301012553"><ele>128.0</ele><time>2026-05-04T13:06:46Z</time></trkpt><trkpt lat="41.47075202010343" lon="0.3978505921463198"><ele>128.0</ele><time>2026-05-04T13:06:47Z</time></trkpt><trkpt lat="41.470682334644444" lon="0.3979584059648473"><ele>128.0</ele><time>2026-05-04T13:06:48Z</time></trkpt><trkpt lat="41.47061064949623" lon="0.398069593287199"><ele>128.0</ele><time>2026-05-04T13:06:49Z</time></trkpt><trkpt lat="41.470542330824166" lon="0.3981795473585207"><ele>128.0</ele><time>2026-05-04T13:06:50Z</time></trkpt><trkpt lat="41.47047420454615" lon="0.39829077885076153"><ele>128.0</ele><time>2026-05-04T13:06:51Z</time></trkpt><trkpt lat="41.47040825732065" lon="0.39840009091661444"><ele>128.0</ele><time>2026-05-04T13:06:52Z</time></trkpt><trkpt lat="41.470342700116106" lon="0.3985070722012864"><ele>128.0</ele><time>2026-05-04T13:06:53Z</time></trkpt><trkpt lat="41.47027431458213" lon="0.3986163954377391"><ele>128.0</ele><time>2026-05-04T13:06:54Z</time></trkpt><trkpt lat="41.470206135000744" lon="0.39872424198143047"><ele>128.0</ele><time>2026-05-04T13:06:55Z</time></trkpt><trkpt lat="41.470140300948366" lon="0.39883003492214847"><ele>128.0</ele><time>2026-05-04T13:06:56Z</time></trkpt><trkpt lat="41.47007117050973" lon="0.3989423576837239"><ele>128.0</ele><time>2026-05-04T13:06:57Z</time></trkpt><trkpt lat="41.47000458486575" lon="0.3990492547650664"><ele>128.0</ele><time>2026-05-04T13:06:58Z</time></trkpt><trkpt lat="41.469935539215584" lon="0.3991557935633798"><ele>128.0</ele><time>2026-05-04T13:06:59Z</time></trkpt><trkpt lat="41.4698677260034" lon="0.3992627855712306"><ele>128.0</ele><time>2026-05-04T13:07:00Z</time></trkpt><trkpt lat="41.46979654667963" lon="0.39936450025379294"><ele>128.0</ele><time>2026-05-04T13:07:01Z</time></trkpt><trkpt lat="41.469724925613804" lon="0.39946545715198756"><ele>128.0</ele><time>2026-05-04T13:07:02Z</time></trkpt><trkpt lat="41.469652191766876" lon="0.3995678159830508"><ele>128.0</ele><time>2026-05-04T13:07:03Z</time></trkpt><trkpt lat="41.46957863531668" lon="0.3996701743643791"><ele>128.0</ele><time>2026-05-04T13:07:04Z</time></trkpt><trkpt lat="41.46950344590442" lon="0.39977226070589184"><ele>128.0</ele><time>2026-05-04T13:07:05Z</time></trkpt><trkpt lat="41.46942804554837" lon="0.3998695448900158"><ele>128.0</ele><time>2026-05-04T13:07:06Z</time></trkpt><trkpt lat="41.46935263274363" lon="0.39996937552009443"><ele>127.60000000000001</ele><time>2026-05-04T13:07:07Z</time></trkpt><trkpt lat="41.46928121699206" lon="0.4000674370255865"><ele>127.20000000000002</ele><time>2026-05-04T13:07:08Z</time></trkpt><trkpt lat="41.469208671195986" lon="0.400169598176314"><ele>126.8</ele><time>2026-05-04T13:07:09Z</time></trkpt><trkpt lat="41.46913333986337" lon="0.40026943211198796"><ele>126.4</ele><time>2026-05-04T13:07:10.001Z</time></trkpt><trkpt lat="41.46906050326974" lon="0.400367924515829"><ele>126.0</ele><time>2026-05-04T13:07:11.001Z</time></trkpt><trkpt lat="41.468990696555394" lon="0.40046409919723613"><ele>126.19999999999999</ele><time>2026-05-04T13:07:12.001Z</time></trkpt><trkpt lat="41.46891846057781" lon="0.4005630642846191"><ele>126.39999999999999</ele><time>2026-05-04T13:07:13.001Z</time></trkpt><trkpt lat="41.46884327616071" lon="0.4006582066166365"><ele>126.6</ele><time>2026-05-04T13:07:14.001Z</time></trkpt><trkpt lat="41.46876845677125" lon="0.4007544879046668"><ele>126.8</ele><time>2026-05-04T13:07:15.001Z</time></trkpt><trkpt lat="41.46869508902688" lon="0.4008508213067258"><ele>127.0</ele><time>2026-05-04T13:07:16.001Z</time></trkpt><trkpt lat="41.46862416647728" lon="0.40094591240063515"><ele>127.0</ele><time>2026-05-04T13:07:17.001Z</time></trkpt><trkpt lat="41.468552424818405" lon="0.4010428080477659"><ele>126.99999999999999</ele><time>2026-05-04T13:07:18.001Z</time></trkpt><trkpt lat="41.468482110583146" lon="0.4011397378759381"><ele>126.99999999999999</ele><time>2026-05-04T13:07:19.001Z</time></trkpt><trkpt lat="41.46841177795144" lon="0.4012375973043492"><ele>127.0</ele><time>2026-05-04T13:07:20.001Z</time></trkpt><trkpt lat="41.46833900042941" lon="0.40133445635569304"><ele>127.0</ele><time>2026-05-04T13:07:21.001Z</time></trkpt><trkpt lat="41.468265955924124" lon="0.4014296775894409"><ele>127.6</ele><time>2026-05-04T13:07:22.001Z</time></trkpt><trkpt lat="41.46819234504682" lon="0.40152402372657847"><ele>128.2</ele><time>2026-05-04T13:07:23.001Z</time></trkpt><trkpt lat="41.46812027615581" lon="0.40161984156859487"><ele>128.8</ele><time>2026-05-04T13:07:24.001Z</time></trkpt><trkpt lat="41.468049293728285" lon="0.4017156168507033"><ele>129.4</ele><time>2026-05-04T13:07:25.001Z</time></trkpt><trkpt lat="41.46797582247422" lon="0.40181234109104563"><ele>130.0</ele><time>2026-05-04T13:07:26.001Z</time></trkpt><trkpt lat="41.467902975380284" lon="0.40190971065031106"><ele>130.0</ele><time>2026-05-04T13:07:27.001Z</time></trkpt><trkpt lat="41.467829713661835" lon="0.40200437744145334"><ele>130.0</ele><time>2026-05-04T13:07:28.001Z</time></trkpt><trkpt lat="41.46775849989977" lon="0.4021006324897461"><ele>130.0</ele><time>2026-05-04T13:07:29.001Z</time></trkpt><trkpt lat="41.46768938738139" lon="0.4021956617534723"><ele>130.0</ele><time>2026-05-04T13:07:30.001Z</time></trkpt><trkpt lat="41.46761677082991" lon="0.40229202738683695"><ele>130.0</ele><time>2026-05-04T13:07:31.001Z</time></trkpt><trkpt lat="41.467545570147564" lon="0.40238948143397135"><ele>130.2</ele><time>2026-05-04T13:07:32.001Z</time></trkpt><trkpt lat="41.467473268833736" lon="0.402490235772795"><ele>130.4</ele><time>2026-05-04T13:07:33.001Z</time></trkpt><trkpt lat="41.46739726150692" lon="0.4025915623363934"><ele>130.6</ele><time>2026-05-04T13:07:34.001Z</time></trkpt><trkpt lat="41.467319016961774" lon="0.4026957373069705"><ele>130.8</ele><time>2026-05-04T13:07:35.001Z</time></trkpt><trkpt lat="41.46724382281225" lon="0.4028003725956656"><ele>131.0</ele><time>2026-05-04T13:07:36.001Z</time></trkpt><trkpt lat="41.46716736220189" lon="0.4029032478337192"><ele>129.8</ele><time>2026-05-04T13:07:37.001Z</time></trkpt><trkpt lat="41.467089885486686" lon="0.40300224383159317"><ele>128.6</ele><time>2026-05-04T13:07:38.001Z</time></trkpt><trkpt lat="41.46701118421368" lon="0.40309959114968924"><ele>127.4</ele><time>2026-05-04T13:07:39.001Z</time></trkpt><trkpt lat="41.46692256984673" lon="0.4031865430863682"><ele>126.2</ele><time>2026-05-04T13:07:40.001Z</time></trkpt><trkpt lat="41.466832763766625" lon="0.403260106715375"><ele>125.0</ele><time>2026-05-04T13:07:41.001Z</time></trkpt><trkpt lat="41.46673446240152" lon="0.4033188849096431"><ele>125.0</ele><time>2026-05-04T13:07:42.001Z</time></trkpt><trkpt lat="41.46663223912989" lon="0.40336546076817176"><ele>125.0</ele><time>2026-05-04T13:07:43.001Z</time></trkpt><trkpt lat="41.46652867613366" lon="0.4034015040841655"><ele>125.0</ele><time>2026-05-04T13:07:44.001Z</time></trkpt><trkpt lat="41.46642339474601" lon="0.4034260515712526"><ele>125.0</ele><time>2026-05-04T13:07:45.001Z</time></trkpt><trkpt lat="41.46631439175566" lon="0.40344084207947944"><ele>125.0</ele><time>2026-05-04T13:07:46.001Z</time></trkpt><trkpt lat="41.466203794299275" lon="0.4034531365186371"><ele>124.75</ele><time>2026-05-04T13:07:47.001Z</time></trkpt><trkpt lat="41.4660969047588" lon="0.40346337396179394"><ele>124.5</ele><time>2026-05-04T13:07:48.001Z</time></trkpt><trkpt lat="41.465990952938185" lon="0.4034771399370574"><ele>124.25</ele><time>2026-05-04T13:07:49.001Z</time></trkpt><trkpt lat="41.46578037908054" lon="0.40350596364784563"><ele>124.0</ele><time>2026-05-04T13:07:51.001Z</time></trkpt><trkpt lat="41.465675522477895" lon="0.403522859046097"><ele>124.0</ele><time>2026-05-04T13:07:52.001Z</time></trkpt><trkpt lat="41.46556721200001" lon="0.4035411837254264"><ele>124.0</ele><time>2026-05-04T13:07:53.001Z</time></trkpt><trkpt lat="41.465458102373155" lon="0.4035778228529264"><ele>124.0</ele><time>2026-05-04T13:07:54.001Z</time></trkpt><trkpt lat="41.46535548608178" lon="0.4036327618481695"><ele>124.0</ele><time>2026-05-04T13:07:55.001Z</time></trkpt><trkpt lat="41.46524689957406" lon="0.4037002052344835"><ele>123.4</ele><time>2026-05-04T13:07:56.001Z</time></trkpt><trkpt lat="41.46515180373074" lon="0.4037931593298008"><ele>122.80000000000001</ele><time>2026-05-04T13:07:57.001Z</time></trkpt><trkpt lat="41.46505889778623" lon="0.4038650931218889"><ele>122.19999999999999</ele><time>2026-05-04T13:07:58.002Z</time></trkpt><trkpt lat="41.464978305032105" lon="0.40396100109739114"><ele>121.6</ele><time>2026-05-04T13:07:59.002Z</time></trkpt><trkpt lat="41.464889353594145" lon="0.40402899291935407"><ele>121.0</ele><time>2026-05-04T13:08:00.002Z</time></trkpt><trkpt lat="41.464821869575914" lon="0.40409208859101575"><ele>119.0</ele><time>2026-05-04T13:08:01.002Z</time></trkpt><trkpt lat="41.46473384177384" lon="0.4041751220385712"><ele>117.0</ele><time>2026-05-04T13:08:03.002Z</time></trkpt><trkpt lat="41.46451243858198" lon="0.4043890006431165"><ele>115.0</ele><time>2026-05-04T13:08:04.002Z</time></trkpt><trkpt lat="41.464420815443205" lon="0.40447276610385946"><ele>114.25</ele><time>2026-05-04T13:08:05.002Z</time></trkpt><trkpt lat="41.46432793431331" lon="0.40455862161746736"><ele>113.5</ele><time>2026-05-04T13:08:06.002Z</time></trkpt><trkpt lat="41.464240293499515" lon="0.4046486591991916"><ele>112.75</ele><time>2026-05-04T13:08:07.002Z</time></trkpt><trkpt lat="41.464148264213094" lon="0.4047366543723266"><ele>112.0</ele><time>2026-05-04T13:08:08.002Z</time></trkpt><trkpt lat="41.46405568002008" lon="0.4048226023601038"><ele>112.0</ele><time>2026-05-04T13:08:09.002Z</time></trkpt><trkpt lat="41.46396875487168" lon="0.40491179402718575"><ele>111.99999999999999</ele><time>2026-05-04T13:08:10.002Z</time></trkpt><trkpt lat="41.46388269531863" lon="0.4049963514197547"><ele>111.99999999999999</ele><time>2026-05-04T13:08:11.002Z</time></trkpt><trkpt lat="41.463799037133526" lon="0.4050773077164726"><ele>112.0</ele><time>2026-05-04T13:08:12.002Z</time></trkpt><trkpt lat="41.46371612045399" lon="0.40514902472205866"><ele>112.0</ele><time>2026-05-04T13:08:13.002Z</time></trkpt><trkpt lat="41.463639731354135" lon="0.4052117286193622"><ele>111.50000000000001</ele><time>2026-05-04T13:08:14.002Z</time></trkpt><trkpt lat="41.463570215107325" lon="0.40526628548635474"><ele>111.0</ele><time>2026-05-04T13:08:15.002Z</time></trkpt><trkpt lat="41.4635004869306" lon="0.40531857224211076"><ele>110.5</ele><time>2026-05-04T13:08:16.002Z</time></trkpt><trkpt lat="41.46342595798275" lon="0.4053507227637255"><ele>110.0</ele><time>2026-05-04T13:08:17.002Z</time></trkpt><trkpt lat="41.46335220245677" lon="0.405351501562715"><ele>109.50000000000001</ele><time>2026-05-04T13:08:18.002Z</time></trkpt><trkpt lat="41.4632689859735" lon="0.40535728024097606"><ele>109.0</ele><time>2026-05-04T13:08:19.002Z</time></trkpt><trkpt lat="41.463165633296036" lon="0.4054902780760869"><ele>109.4</ele><time>2026-05-04T13:08:21.002Z</time></trkpt><trkpt lat="41.46313479937519" lon="0.405597202980945"><ele>109.80000000000001</ele><time>2026-05-04T13:08:22.002Z</time></trkpt><trkpt lat="41.46309613778392" lon="0.40570091308229383"><ele>110.19999999999999</ele><time>2026-05-04T13:08:23.002Z</time></trkpt><trkpt lat="41.4630350177051" lon="0.4057893951566176"><ele>110.6</ele><time>2026-05-04T13:08:24.002Z</time></trkpt><trkpt lat="41.46296161529061" lon="0.40587122626869515"><ele>111.0</ele><time>2026-05-04T13:08:25.002Z</time></trkpt><trkpt lat="41.462873372064294" lon="0.40594478651376703"><ele>110.0</ele><time>2026-05-04T13:08:26.002Z</time></trkpt><trkpt lat="41.4627801758567" lon="0.4060125251040879"><ele>109.0</ele><time>2026-05-04T13:08:27.002Z</time></trkpt><trkpt lat="41.46269258486052" lon="0.4060875182042868"><ele>108.0</ele><time>2026-05-04T13:08:28.002Z</time></trkpt><trkpt lat="41.462604691823984" lon="0.4061643548047236"><ele>107.0</ele><time>2026-05-04T13:08:29.002Z</time></trkpt><trkpt lat="41.46251262879739" lon="0.40624688464191927"><ele>106.0</ele><time>2026-05-04T13:08:30.002Z</time></trkpt><trkpt lat="41.46242371109174" lon="0.4063330241052227"><ele>105.19999999999999</ele><time>2026-05-04T13:08:31.002Z</time></trkpt><trkpt lat="41.46233100575857" lon="0.4064183009201894"><ele>104.39999999999999</ele><time>2026-05-04T13:08:32.002Z</time></trkpt><trkpt lat="41.46223875308104" lon="0.4065049315830595"><ele>103.6</ele><time>2026-05-04T13:08:33.002Z</time></trkpt><trkpt lat="41.46214791737091" lon="0.40658830404722823"><ele>102.8</ele><time>2026-05-04T13:08:34.002Z</time></trkpt><trkpt lat="41.46205338150017" lon="0.4066711766563625"><ele>102.0</ele><time>2026-05-04T13:08:35.002Z</time></trkpt><trkpt lat="41.46196271368485" lon="0.40675651413181846"><ele>101.6</ele><time>2026-05-04T13:08:36.002Z</time></trkpt><trkpt lat="41.461872527786" lon="0.4068426524821814"><ele>101.19999999999999</ele><time>2026-05-04T13:08:37Z</time></trkpt><trkpt lat="41.46178349872965" lon="0.4069266023691489"><ele>100.8</ele><time>2026-05-04T13:08:38Z</time></trkpt><trkpt lat="41.46169349848634" lon="0.4070121757917893"><ele>100.4</ele><time>2026-05-04T13:08:39Z</time></trkpt><trkpt lat="41.46160081281687" lon="0.4070952647758889"><ele>100.0</ele><time>2026-05-04T13:08:40Z</time></trkpt><trkpt lat="41.461511978296784" lon="0.4071802915257411"><ele>99.8</ele><time>2026-05-04T13:08:41Z</time></trkpt><trkpt lat="41.461419046224414" lon="0.40726403470182393"><ele>99.6</ele><time>2026-05-04T13:08:42Z</time></trkpt><trkpt lat="41.461329943460775" lon="0.4073480429339485"><ele>99.4</ele><time>2026-05-04T13:08:43Z</time></trkpt><trkpt lat="41.46123332113688" lon="0.4074102400156704"><ele>99.2</ele><time>2026-05-04T13:08:44Z</time></trkpt><trkpt lat="41.461161921437444" lon="0.4075054822331413"><ele>99.0</ele><time>2026-05-04T13:08:45Z</time></trkpt><trkpt lat="41.46108721331084" lon="0.4075722715548392"><ele>99.0</ele><time>2026-05-04T13:08:46Z</time></trkpt><trkpt lat="41.461016453753935" lon="0.40763697408855293"><ele>99.0</ele><time>2026-05-04T13:08:47Z</time></trkpt><trkpt lat="41.460945519792034" lon="0.40769140886810473"><ele>99.0</ele><time>2026-05-04T13:08:48Z</time></trkpt><trkpt lat="41.46086899143934" lon="0.4077181131036449"><ele>99.0</ele><time>2026-05-04T13:08:49Z</time></trkpt><trkpt lat="41.46079039901042" lon="0.4076727769646015"><ele>99.0</ele><time>2026-05-04T13:08:50Z</time></trkpt><trkpt lat="41.46072163291231" lon="0.4076820143938808"><ele>99.0</ele><time>2026-05-04T13:08:51Z</time></trkpt><trkpt lat="41.46064942570093" lon="0.40770986148322913"><ele>99.0</ele><time>2026-05-04T13:08:52Z</time></trkpt><trkpt lat="41.46059678328467" lon="0.40776341420722123"><ele>99.0</ele><time>2026-05-04T13:08:53.001Z</time></trkpt><trkpt lat="41.46057657938244" lon="0.4078669095201605"><ele>99.0</ele><time>2026-05-04T13:08:54.001Z</time></trkpt><trkpt lat="41.46061809731559" lon="0.40797238443986444"><ele>99.0</ele><time>2026-05-04T13:08:55.001Z</time></trkpt><trkpt lat="41.46066866469195" lon="0.40804724067983517"><ele>99.0</ele><time>2026-05-04T13:08:56.001Z</time></trkpt><trkpt lat="41.460730443925556" lon="0.4080861729700114"><ele>99.0</ele><time>2026-05-04T13:08:57.001Z</time></trkpt><trkpt lat="41.460800288784085" lon="0.4081079360212841"><ele>99.0</ele><time>2026-05-04T13:08:58.001Z</time></trkpt><trkpt lat="41.46093830187496" lon="0.4081789660833851"><ele>99.0</ele><time>2026-05-04T13:09:00.001Z</time></trkpt><trkpt lat="41.46100388858207" lon="0.4082430452082129"><ele>99.0</ele><time>2026-05-04T13:09:01.001Z</time></trkpt><trkpt lat="41.46107218430973" lon="0.408312654049044"><ele>99.0</ele><time>2026-05-04T13:09:02.001Z</time></trkpt><trkpt lat="41.46113991925711" lon="0.40838616746987133"><ele>99.0</ele><time>2026-05-04T13:09:03.001Z</time></trkpt><trkpt lat="41.46121150610854" lon="0.4084553011587324"><ele>99.66666666666667</ele><time>2026-05-04T13:09:04.001Z</time></trkpt><trkpt lat="41.461284883460614" lon="0.4085234366378645"><ele>100.33333333333334</ele><time>2026-05-04T13:09:05.001Z</time></trkpt><trkpt lat="41.461358217295434" lon="0.408598878119879"><ele>101.0</ele><time>2026-05-04T13:09:06.001Z</time></trkpt><trkpt lat="41.46142905023222" lon="0.40867108563175913"><ele>101.66666666666667</ele><time>2026-05-04T13:09:07.001Z</time></trkpt><trkpt lat="41.461487108689454" lon="0.4087645926865489"><ele>102.33333333333334</ele><time>2026-05-04T13:09:08.001Z</time></trkpt><trkpt lat="41.46155427580382" lon="0.40883761606817515"><ele>103.0</ele><time>2026-05-04T13:09:09.001Z</time></trkpt><trkpt lat="41.46161775669073" lon="0.4089141803539805"><ele>103.50000000000001</ele><time>2026-05-04T13:09:10.001Z</time></trkpt><trkpt lat="41.46167330214883" lon="0.4089919490565799"><ele>104.0</ele><time>2026-05-04T13:09:11.001Z</time></trkpt><trkpt lat="41.46171660270358" lon="0.40908474307032056"><ele>104.5</ele><time>2026-05-04T13:09:12.001Z</time></trkpt><trkpt lat="41.46177284595026" lon="0.4091656556055432"><ele>105.0</ele><time>2026-05-04T13:09:13.001Z</time></trkpt><trkpt lat="41.46182931588494" lon="0.4092471897688409"><ele>105.50000000000001</ele><time>2026-05-04T13:09:14.001Z</time></trkpt><trkpt lat="41.46189539018411" lon="0.40931448671236326"><ele>106.0</ele><time>2026-05-04T13:09:15.001Z</time></trkpt><trkpt lat="41.46193453112267" lon="0.409408959229673"><ele>106.00000000000001</ele><time>2026-05-04T13:09:16.001Z</time></trkpt><trkpt lat="41.46199858174558" lon="0.4094774183998581"><ele>106.0</ele><time>2026-05-04T13:09:17.001Z</time></trkpt><trkpt lat="41.46203716657648" lon="0.40957215742740744"><ele>106.0</ele><time>2026-05-04T13:09:18.001Z</time></trkpt><trkpt lat="41.46209229315052" lon="0.40965905909456307"><ele>106.0</ele><time>2026-05-04T13:09:19.001Z</time></trkpt><trkpt lat="41.46214840344261" lon="0.40974478314090435"><ele>106.00000000000001</ele><time>2026-05-04T13:09:20.001Z</time></trkpt><trkpt lat="41.46220599251473" lon="0.4098327664649897"><ele>106.0</ele><time>2026-05-04T13:09:21.001Z</time></trkpt><trkpt lat="41.46226389279896" lon="0.4099220320783735"><ele>106.00000000000001</ele><time>2026-05-04T13:09:22.001Z</time></trkpt><trkpt lat="41.46231424407545" lon="0.4100054195999633"><ele>106.0</ele><time>2026-05-04T13:09:23.001Z</time></trkpt><trkpt lat="41.46236378317265" lon="0.41009638585351266"><ele>106.0</ele><time>2026-05-04T13:09:24.001Z</time></trkpt><trkpt lat="41.46241248227437" lon="0.4101894802449538"><ele>106.0</ele><time>2026-05-04T13:09:25.001Z</time></trkpt><trkpt lat="41.4624615472328" lon="0.41028327397120257"><ele>106.00000000000001</ele><time>2026-05-04T13:09:26.001Z</time></trkpt><trkpt lat="41.46251251325957" lon="0.41038150269513185"><ele>106.0</ele><time>2026-05-04T13:09:27.001Z</time></trkpt><trkpt lat="41.46256304112409" lon="0.41047873656236544"><ele>105.83333333333334</ele><time>2026-05-04T13:09:28.001Z</time></trkpt><trkpt lat="41.46261902775897" lon="0.4105718639401756"><ele>105.66666666666667</ele><time>2026-05-04T13:09:29.001Z</time></trkpt><trkpt lat="41.46267250174788" lon="0.4106544559137365"><ele>105.5</ele><time>2026-05-04T13:09:30.001Z</time></trkpt><trkpt lat="41.462730729742894" lon="0.41071879450469245"><ele>105.33333333333334</ele><time>2026-05-04T13:09:31.001Z</time></trkpt><trkpt lat="41.462799845654814" lon="0.4107939499185883"><ele>105.16666666666667</ele><time>2026-05-04T13:09:33.001Z</time></trkpt><trkpt lat="41.46285709550431" lon="0.4108539202106156"><ele>105.0</ele><time>2026-05-04T13:09:35.001Z</time></trkpt><trkpt lat="41.462944994550234" lon="0.4109315285080149"><ele>105.16666666666667</ele><time>2026-05-04T13:09:37.001Z</time></trkpt><trkpt lat="41.46305467375883" lon="0.41102496144498885"><ele>105.33333333333334</ele><time>2026-05-04T13:09:39.001Z</time></trkpt><trkpt lat="41.46311854947783" lon="0.4110793755823943"><ele>105.5</ele><time>2026-05-04T13:09:40.001Z</time></trkpt><trkpt lat="41.46318369631757" lon="0.4111348725216431"><ele>105.66666666666667</ele><time>2026-05-04T13:09:41.001Z</time></trkpt><trkpt lat="41.463248541204344" lon="0.4111901122222135"><ele>105.83333333333334</ele><time>2026-05-04T13:09:42.001Z</time></trkpt><trkpt lat="41.46330767947587" lon="0.41124456709142126"><ele>106.0</ele><time>2026-05-04T13:09:43.001Z</time></trkpt><trkpt lat="41.46335832035197" lon="0.41129476508449536"><ele>105.66666666666667</ele><time>2026-05-04T13:09:44.001Z</time></trkpt><trkpt lat="41.46340969267251" lon="0.41134819510050963"><ele>105.33333333333334</ele><time>2026-05-04T13:09:45.002Z</time></trkpt><trkpt lat="41.463460397216714" lon="0.41140093160083185"><ele>105.0</ele><time>2026-05-04T13:09:46.002Z</time></trkpt><trkpt lat="41.46356117733137" lon="0.41152178881506274"><ele>104.66666666666666</ele><time>2026-05-04T13:09:48.002Z</time></trkpt><trkpt lat="41.46361537794767" lon="0.411586910448927"><ele>104.33333333333333</ele><time>2026-05-04T13:09:49.002Z</time></trkpt><trkpt lat="41.463669741501874" lon="0.41165399394448693"><ele>104.0</ele><time>2026-05-04T13:09:50.002Z</time></trkpt><trkpt lat="41.463728302076085" lon="0.41172769823904193"><ele>103.83333333333333</ele><time>2026-05-04T13:09:51.002Z</time></trkpt><trkpt lat="41.46378422696038" lon="0.41179928310135566"><ele>103.66666666666666</ele><time>2026-05-04T13:09:52.002Z</time></trkpt><trkpt lat="41.46384723903701" lon="0.411879939673424"><ele>103.5</ele><time>2026-05-04T13:09:53.002Z</time></trkpt><trkpt lat="41.46391124799437" lon="0.41196187230751485"><ele>103.33333333333334</ele><time>2026-05-04T13:09:54.002Z</time></trkpt><trkpt lat="41.463974095632786" lon="0.4120423192666651"><ele>103.16666666666667</ele><time>2026-05-04T13:09:55.002Z</time></trkpt><trkpt lat="41.46403544467087" lon="0.41211849874256756"><ele>103.0</ele><time>2026-05-04T13:09:56.002Z</time></trkpt><trkpt lat="41.464104873594444" lon="0.41216629126482957"><ele>103.00000000000001</ele><time>2026-05-04T13:09:57.002Z</time></trkpt><trkpt lat="41.46416047128582" lon="0.41222951267914654"><ele>103.0</ele><time>2026-05-04T13:09:58.002Z</time></trkpt><trkpt lat="41.4642250652221" lon="0.41227561743174257"><ele>103.0</ele><time>2026-05-04T13:09:59.002Z</time></trkpt><trkpt lat="41.46430209219445" lon="0.41231725854128337"><ele>103.0</ele><time>2026-05-04T13:10:00.002Z</time></trkpt><trkpt lat="41.4643723462723" lon="0.41234889266540226"><ele>103.00000000000001</ele><time>2026-05-04T13:10:01.002Z</time></trkpt><trkpt lat="41.46443294396353" lon="0.41240653374735015"><ele>103.0</ele><time>2026-05-04T13:10:02.002Z</time></trkpt><trkpt lat="41.46449244674757" lon="0.41246438641463057"><ele>103.00000000000001</ele><time>2026-05-04T13:10:03.002Z</time></trkpt><trkpt lat="41.46455047240843" lon="0.41253020224809633"><ele>103.0</ele><time>2026-05-04T13:10:04.002Z</time></trkpt><trkpt lat="41.464587443180164" lon="0.41261592075787473"><ele>103.0</ele><time>2026-05-04T13:10:05.002Z</time></trkpt><trkpt lat="41.46464954530443" lon="0.41268946183471983"><ele>103.0</ele><time>2026-05-04T13:10:06.002Z</time></trkpt><trkpt lat="41.464713378809904" lon="0.4127594286722949"><ele>103.00000000000001</ele><time>2026-05-04T13:10:07.002Z</time></trkpt><trkpt lat="41.464774046897034" lon="0.4128381233506825"><ele>103.0</ele><time>2026-05-04T13:10:08.002Z</time></trkpt><trkpt lat="41.46482975612645" lon="0.41291493954739766"><ele>102.99999999999999</ele><time>2026-05-04T13:10:09.002Z</time></trkpt><trkpt lat="41.464875598640944" lon="0.4129922184340469"><ele>103.0</ele><time>2026-05-04T13:10:10.002Z</time></trkpt><trkpt lat="41.464925938007944" lon="0.4130628194042537"><ele>103.0</ele><time>2026-05-04T13:10:11.002Z</time></trkpt><trkpt lat="41.46497420682124" lon="0.41312765444593075"><ele>103.0</ele><time>2026-05-04T13:10:12.002Z</time></trkpt><trkpt lat="41.465018514435286" lon="0.41319458301180967"><ele>103.0</ele><time>2026-05-04T13:10:13.002Z</time></trkpt><trkpt lat="41.46506365188512" lon="0.41326588444510054"><ele>102.99999999999999</ele><time>2026-05-04T13:10:14.002Z</time></trkpt><trkpt lat="41.46511161381282" lon="0.41333964884562524"><ele>103.0</ele><time>2026-05-04T13:10:15.002Z</time></trkpt><trkpt lat="41.465165098962274" lon="0.4134098946709786"><ele>103.00000000000001</ele><time>2026-05-04T13:10:16.002Z</time></trkpt><trkpt lat="41.4652212455481" lon="0.4134896304189304"><ele>103.0</ele><time>2026-05-04T13:10:17.002Z</time></trkpt><trkpt lat="41.46526574289051" lon="0.41358155868443186"><ele>103.0</ele><time>2026-05-04T13:10:18.002Z</time></trkpt><trkpt lat="41.46532259696123" lon="0.41366568091428396"><ele>103.0</ele><time>2026-05-04T13:10:19.002Z</time></trkpt><trkpt lat="41.46537810672842" lon="0.4137478141281161"><ele>103.00000000000001</ele><time>2026-05-04T13:10:20.002Z</time></trkpt><trkpt lat="41.46543236281054" lon="0.41382809230729084"><ele>103.0</ele><time>2026-05-04T13:10:21.002Z</time></trkpt><trkpt lat="41.46548380138622" lon="0.41390419797009104"><ele>102.99999999999999</ele><time>2026-05-04T13:10:22.002Z</time></trkpt><trkpt lat="41.46553309086927" lon="0.4139774526073463"><ele>103.0</ele><time>2026-05-04T13:10:23.002Z</time></trkpt><trkpt lat="41.465578804959264" lon="0.4140452104246152"><ele>103.0</ele><time>2026-05-04T13:10:24.002Z</time></trkpt><trkpt lat="41.465625812040734" lon="0.41411484899487555"><ele>103.0</ele><time>2026-05-04T13:10:25.002Z</time></trkpt><trkpt lat="41.46567362902425" lon="0.41418568746169376"><ele>103.0</ele><time>2026-05-04T13:10:26.002Z</time></trkpt><trkpt lat="41.4657275237832" lon="0.41426552995728505"><ele>102.99999999999999</ele><time>2026-05-04T13:10:27.002Z</time></trkpt><trkpt lat="41.465781077987856" lon="0.4143448677305283"><ele>103.0</ele><time>2026-05-04T13:10:28.002Z</time></trkpt><trkpt lat="41.465837381873946" lon="0.4144282755880041"><ele>103.0</ele><time>2026-05-04T13:10:29.002Z</time></trkpt><trkpt lat="41.46589459419688" lon="0.4145151235305011"><ele>103.0</ele><time>2026-05-04T13:10:30.002Z</time></trkpt><trkpt lat="41.46595324411417" lon="0.41460079694053265"><ele>103.0</ele><time>2026-05-04T13:10:31.002Z</time></trkpt><trkpt lat="41.466015031919284" lon="0.4146914783063934"><ele>103.0</ele><time>2026-05-04T13:10:32.002Z</time></trkpt><trkpt lat="41.46607618528011" lon="0.41478293328675364"><ele>103.0</ele><time>2026-05-04T13:10:33.003Z</time></trkpt><trkpt lat="41.466140061130716" lon="0.41487845948846974"><ele>102.80000000000001</ele><time>2026-05-04T13:10:34.003Z</time></trkpt><trkpt lat="41.46620371728558" lon="0.4149736572215813"><ele>102.6</ele><time>2026-05-04T13:10:35.003Z</time></trkpt><trkpt lat="41.46626549103721" lon="0.415066075467584"><ele>102.4</ele><time>2026-05-04T13:10:36.003Z</time></trkpt><trkpt lat="41.46633489843613" lon="0.41516991351667104"><ele>102.19999999999999</ele><time>2026-05-04T13:10:37.003Z</time></trkpt><trkpt lat="41.46641104239273" lon="0.4152548730804536"><ele>102.0</ele><time>2026-05-04T13:10:38.003Z</time></trkpt><trkpt lat="41.4664746448695" lon="0.41535910613518534"><ele>102.39999999999999</ele><time>2026-05-04T13:10:39.003Z</time></trkpt><trkpt lat="41.46653958702322" lon="0.41546401556354556"><ele>102.8</ele><time>2026-05-04T13:10:40.003Z</time></trkpt><trkpt lat="41.4666058909978" lon="0.4155703996045029"><ele>103.2</ele><time>2026-05-04T13:10:41.003Z</time></trkpt><trkpt lat="41.466672532194394" lon="0.41567725378735493"><ele>103.6</ele><time>2026-05-04T13:10:42.003Z</time></trkpt><trkpt lat="41.46674053882224" lon="0.4157819308944855"><ele>104.0</ele><time>2026-05-04T13:10:43Z</time></trkpt><trkpt lat="41.46681277123911" lon="0.41588312662159527"><ele>104.2</ele><time>2026-05-04T13:10:44Z</time></trkpt><trkpt lat="41.466879645668826" lon="0.41598728982800875"><ele>104.4</ele><time>2026-05-04T13:10:45Z</time></trkpt><trkpt lat="41.46694874127153" lon="0.41609282722932445"><ele>104.6</ele><time>2026-05-04T13:10:46Z</time></trkpt><trkpt lat="41.46701694158687" lon="0.4161964750536591"><ele>104.8</ele><time>2026-05-04T13:10:47Z</time></trkpt><trkpt lat="41.46708268834525" lon="0.41630405818073"><ele>105.0</ele><time>2026-05-04T13:10:48Z</time></trkpt><trkpt lat="41.467146417627625" lon="0.4164145948431858"><ele>105.0</ele><time>2026-05-04T13:10:49Z</time></trkpt><trkpt lat="41.46720755125468" lon="0.41652696087786184"><ele>105.0</ele><time>2026-05-04T13:10:50Z</time></trkpt><trkpt lat="41.46726331079438" lon="0.4166438694508749"><ele>105.0</ele><time>2026-05-04T13:10:51Z</time></trkpt><trkpt lat="41.46732019508401" lon="0.41676439540278454"><ele>105.0</ele><time>2026-05-04T13:10:52Z</time></trkpt><trkpt lat="41.4673723925334" lon="0.41688654337434605"><ele>105.0</ele><time>2026-05-04T13:10:53Z</time></trkpt><trkpt lat="41.467423868045024" lon="0.41700811530101467"><ele>105.0</ele><time>2026-05-04T13:10:54Z</time></trkpt><trkpt lat="41.46747046958382" lon="0.4171358657937032"><ele>105.0</ele><time>2026-05-04T13:10:55Z</time></trkpt><trkpt lat="41.46751649737367" lon="0.4172644561449119"><ele>105.0</ele><time>2026-05-04T13:10:56Z</time></trkpt><trkpt lat="41.46756038167922" lon="0.4173929855466168"><ele>105.0</ele><time>2026-05-04T13:10:57Z</time></trkpt><trkpt lat="41.46760441167079" lon="0.4175193436578885"><ele>105.0</ele><time>2026-05-04T13:10:58Z</time></trkpt><trkpt lat="41.46764703587642" lon="0.41764618761793076"><ele>104.2</ele><time>2026-05-04T13:10:59Z</time></trkpt><trkpt lat="41.46769129276708" lon="0.41777550139489766"><ele>103.4</ele><time>2026-05-04T13:11:00Z</time></trkpt><trkpt lat="41.46773687870994" lon="0.4179023796807927"><ele>102.6</ele><time>2026-05-04T13:11:01Z</time></trkpt><trkpt lat="41.467785212052114" lon="0.4180301789135165"><ele>101.8</ele><time>2026-05-04T13:11:02Z</time></trkpt><trkpt lat="41.46783077602368" lon="0.41815701337517797"><ele>101.0</ele><time>2026-05-04T13:11:03Z</time></trkpt><trkpt lat="41.467874622771006" lon="0.41828465287613925"><ele>101.0</ele><time>2026-05-04T13:11:04Z</time></trkpt><trkpt lat="41.4679169826621" lon="0.41841151161632784"><ele>101.0</ele><time>2026-05-04T13:11:05Z</time></trkpt><trkpt lat="41.46796366901273" lon="0.4185364438129234"><ele>101.0</ele><time>2026-05-04T13:11:06Z</time></trkpt><trkpt lat="41.46800556009224" lon="0.4186604251711673"><ele>101.0</ele><time>2026-05-04T13:11:07Z</time></trkpt><trkpt lat="41.468047790000995" lon="0.418783974314912"><ele>101.0</ele><time>2026-05-04T13:11:08Z</time></trkpt><trkpt lat="41.46809334014931" lon="0.4189083714917271"><ele>101.0</ele><time>2026-05-04T13:11:09Z</time></trkpt><trkpt lat="41.46813781347254" lon="0.41903199215358905"><ele>101.0</ele><time>2026-05-04T13:11:10.001Z</time></trkpt><trkpt lat="41.46818167192002" lon="0.41915579340504433"><ele>101.0</ele><time>2026-05-04T13:11:11.001Z</time></trkpt><trkpt lat="41.46822733494562" lon="0.4192780587018771"><ele>101.0</ele><time>2026-05-04T13:11:12.001Z</time></trkpt><trkpt lat="41.46827409389855" lon="0.4194006147289962"><ele>101.0</ele><time>2026-05-04T13:11:13.001Z</time></trkpt><trkpt lat="41.46831811608476" lon="0.41952335001976165"><ele>101.0</ele><time>2026-05-04T13:11:14.001Z</time></trkpt><trkpt lat="41.46836366205022" lon="0.4196471859526515"><ele>101.0</ele><time>2026-05-04T13:11:15.001Z</time></trkpt><trkpt lat="41.468404954249905" lon="0.4197698633770714"><ele>101.0</ele><time>2026-05-04T13:11:16.001Z</time></trkpt><trkpt lat="41.46844933655851" lon="0.4198916983753948"><ele>101.0</ele><time>2026-05-04T13:11:17.001Z</time></trkpt><trkpt lat="41.4684932967931" lon="0.42001507378228353"><ele>101.0</ele><time>2026-05-04T13:11:18.001Z</time></trkpt><trkpt lat="41.468538934876484" lon="0.42013574161144657"><ele>100.6</ele><time>2026-05-04T13:11:19.001Z</time></trkpt><trkpt lat="41.46858260286854" lon="0.4202554068522247"><ele>100.19999999999999</ele><time>2026-05-04T13:11:20.001Z</time></trkpt><trkpt lat="41.468626559292055" lon="0.4203786380325257"><ele>99.80000000000001</ele><time>2026-05-04T13:11:21.001Z</time></trkpt><trkpt lat="41.46867145358094" lon="0.4204993322873495"><ele>99.4</ele><time>2026-05-04T13:11:22.001Z</time></trkpt><trkpt lat="41.46871506105429" lon="0.42062334370178933"><ele>99.0</ele><time>2026-05-04T13:11:23.001Z</time></trkpt><trkpt lat="41.46875956792497" lon="0.42074728302022185"><ele>99.80000000000001</ele><time>2026-05-04T13:11:24.001Z</time></trkpt><trkpt lat="41.468805630891275" lon="0.42087017600487514"><ele>100.60000000000001</ele><time>2026-05-04T13:11:25.001Z</time></trkpt><trkpt lat="41.468851726905356" lon="0.4209896070526158"><ele>101.4</ele><time>2026-05-04T13:11:26.001Z</time></trkpt><trkpt lat="41.46890243367178" lon="0.4211089553340442"><ele>102.2</ele><time>2026-05-04T13:11:27.001Z</time></trkpt><trkpt lat="41.4689558066748" lon="0.4212273048912984"><ele>103.0</ele><time>2026-05-04T13:11:28.001Z</time></trkpt><trkpt lat="41.46900644318503" lon="0.4213464221826914"><ele>103.0</ele><time>2026-05-04T13:11:29.001Z</time></trkpt><trkpt lat="41.469061622402485" lon="0.42146240153810344"><ele>103.0</ele><time>2026-05-04T13:11:30.001Z</time></trkpt><trkpt lat="41.469120090105925" lon="0.42157679320860786"><ele>103.0</ele><time>2026-05-04T13:11:31.001Z</time></trkpt><trkpt lat="41.46917794296709" lon="0.42169111840555956"><ele>103.0</ele><time>2026-05-04T13:11:32.001Z</time></trkpt><trkpt lat="41.46923569821854" lon="0.42180386403515824"><ele>103.0</ele><time>2026-05-04T13:11:33.001Z</time></trkpt><trkpt lat="41.46930107533317" lon="0.4219096187993626"><ele>103.0</ele><time>2026-05-04T13:11:34.001Z</time></trkpt><trkpt lat="41.46936788468138" lon="0.422013948506975"><ele>103.0</ele><time>2026-05-04T13:11:35.001Z</time></trkpt><trkpt lat="41.46943507848878" lon="0.4221141002429067"><ele>103.0</ele><time>2026-05-04T13:11:36.001Z</time></trkpt><trkpt lat="41.469501681997414" lon="0.4222177596095562"><ele>103.0</ele><time>2026-05-04T13:11:37.001Z</time></trkpt><trkpt lat="41.469568939701475" lon="0.42232158857247015"><ele>103.0</ele><time>2026-05-04T13:11:38.001Z</time></trkpt><trkpt lat="41.46964074369618" lon="0.4224195065289248"><ele>103.0</ele><time>2026-05-04T13:11:39.001Z</time></trkpt><trkpt lat="41.46971247737884" lon="0.42251967151233133"><ele>103.0</ele><time>2026-05-04T13:11:40.001Z</time></trkpt><trkpt lat="41.46978527595897" lon="0.4226176443623276"><ele>103.0</ele><time>2026-05-04T13:11:41.001Z</time></trkpt><trkpt lat="41.46985804249447" lon="0.4227163822497605"><ele>103.0</ele><time>2026-05-04T13:11:42.001Z</time></trkpt><trkpt lat="41.469933259502334" lon="0.42281015681911416"><ele>103.0</ele><time>2026-05-04T13:11:43.001Z</time></trkpt><trkpt lat="41.470005346792384" lon="0.4228958701049245"><ele>103.00000000000001</ele><time>2026-05-04T13:11:44.001Z</time></trkpt><trkpt lat="41.47007003453011" lon="0.422979704175368"><ele>103.0</ele><time>2026-05-04T13:11:45.001Z</time></trkpt><trkpt lat="41.470134214966045" lon="0.423063642616615"><ele>103.0</ele><time>2026-05-04T13:11:46.001Z</time></trkpt><trkpt lat="41.47019842007983" lon="0.423146703654053"><ele>103.0</ele><time>2026-05-04T13:11:47.001Z</time></trkpt><trkpt lat="41.47026182134981" lon="0.4232273821746607"><ele>103.00000000000001</ele><time>2026-05-04T13:11:48.001Z</time></trkpt><trkpt lat="41.47032097410818" lon="0.42331618814758054"><ele>103.0</ele><time>2026-05-04T13:11:49.001Z</time></trkpt><trkpt lat="41.47036160582673" lon="0.4234157486048812"><ele>103.00000000000001</ele><time>2026-05-04T13:11:50.001Z</time></trkpt><trkpt lat="41.47039330581304" lon="0.4235164684040757"><ele>103.0</ele><time>2026-05-04T13:11:51.001Z</time></trkpt><trkpt lat="41.47043120343997" lon="0.4236106660278466"><ele>103.0</ele><time>2026-05-04T13:11:52.001Z</time></trkpt><trkpt lat="41.470485826429965" lon="0.42368535483570996"><ele>103.0</ele><time>2026-05-04T13:11:53.001Z</time></trkpt><trkpt lat="41.470564873584436" lon="0.423730612411766"><ele>103.00000000000001</ele><time>2026-05-04T13:11:54.001Z</time></trkpt><trkpt lat="41.47064621908806" lon="0.4237324725921024"><ele>103.0</ele><time>2026-05-04T13:11:55.001Z</time></trkpt><trkpt lat="41.470729742953914" lon="0.42380414573593994"><ele>102.4</ele><time>2026-05-04T13:11:56.001Z</time></trkpt><trkpt lat="41.47081304835294" lon="0.4238510462835016"><ele>101.80000000000001</ele><time>2026-05-04T13:11:57.001Z</time></trkpt><trkpt lat="41.4708956743525" lon="0.42390499548900756"><ele>101.2</ele><time>2026-05-04T13:11:58.001Z</time></trkpt><trkpt lat="41.470982890265695" lon="0.4239590603382451"><ele>100.6</ele><time>2026-05-04T13:11:59.001Z</time></trkpt><trkpt lat="41.471073686571856" lon="0.42400743141645286"><ele>100.0</ele><time>2026-05-04T13:12:00.001Z</time></trkpt><trkpt lat="41.47116585496992" lon="0.4240613912166362"><ele>100.0</ele><time>2026-05-04T13:12:01.001Z</time></trkpt><trkpt lat="41.47125932555369" lon="0.4241151060643237"><ele>100.0</ele><time>2026-05-04T13:12:02.001Z</time></trkpt><trkpt lat="41.47135407575173" lon="0.42416399975120206"><ele>100.0</ele><time>2026-05-04T13:12:03.001Z</time></trkpt><trkpt lat="41.47145204082553" lon="0.42421283800115106"><ele>100.0</ele><time>2026-05-04T13:12:04.002Z</time></trkpt><trkpt lat="41.47154888774192" lon="0.424267254394144"><ele>100.0</ele><time>2026-05-04T13:12:05.002Z</time></trkpt><trkpt lat="41.47164453749201" lon="0.4243216208717442"><ele>100.4</ele><time>2026-05-04T13:12:06.002Z</time></trkpt><trkpt lat="41.47174036339932" lon="0.4243768431983706"><ele>100.8</ele><time>2026-05-04T13:12:07.002Z</time></trkpt><trkpt lat="41.471836307145544" lon="0.4244299299437992"><ele>101.19999999999999</ele><time>2026-05-04T13:12:08.002Z</time></trkpt><trkpt lat="41.47192967616749" lon="0.4244873217030401"><ele>101.6</ele><time>2026-05-04T13:12:09.002Z</time></trkpt><trkpt lat="41.47202021275546" lon="0.424554749931615"><ele>102.0</ele><time>2026-05-04T13:12:10.002Z</time></trkpt><trkpt lat="41.472106585788474" lon="0.4246319885833222"><ele>102.0</ele><time>2026-05-04T13:12:11.002Z</time></trkpt><trkpt lat="41.47218847307034" lon="0.4247195203598666"><ele>102.0</ele><time>2026-05-04T13:12:12.002Z</time></trkpt><trkpt lat="41.472266363034024" lon="0.42481051350463056"><ele>102.0</ele><time>2026-05-04T13:12:13.002Z</time></trkpt><trkpt lat="41.47233897657994" lon="0.42490774673795645"><ele>102.0</ele><time>2026-05-04T13:12:14.002Z</time></trkpt><trkpt lat="41.47240781512622" lon="0.42501097379638786"><ele>102.0</ele><time>2026-05-04T13:12:15.002Z</time></trkpt><trkpt lat="41.472472311979146" lon="0.42511852148306917"><ele>102.0</ele><time>2026-05-04T13:12:16.002Z</time></trkpt><trkpt lat="41.47253529678365" lon="0.42522964495869464"><ele>102.0</ele><time>2026-05-04T13:12:17.002Z</time></trkpt><trkpt lat="41.47259504292412" lon="0.42534674682819185"><ele>102.0</ele><time>2026-05-04T13:12:18.002Z</time></trkpt><trkpt lat="41.47265200482365" lon="0.4254650180640257"><ele>102.0</ele><time>2026-05-04T13:12:19.002Z</time></trkpt><trkpt lat="41.472711218079944" lon="0.4255822409657633"><ele>102.0</ele><time>2026-05-04T13:12:20.002Z</time></trkpt><trkpt lat="41.47277222678014" lon="0.4256984087761819"><ele>101.8</ele><time>2026-05-04T13:12:21.002Z</time></trkpt><trkpt lat="41.47283165624249" lon="0.4258141256931135"><ele>101.6</ele><time>2026-05-04T13:12:22.002Z</time></trkpt><trkpt lat="41.4728906815463" lon="0.4259297857993311"><ele>101.39999999999999</ele><time>2026-05-04T13:12:23.002Z</time></trkpt><trkpt lat="41.47295310526333" lon="0.42604413278378583"><ele>101.19999999999999</ele><time>2026-05-04T13:12:24.002Z</time></trkpt><trkpt lat="41.473013727498376" lon="0.42615671762468726"><ele>101.0</ele><time>2026-05-04T13:12:25.002Z</time></trkpt><trkpt lat="41.47307285169365" lon="0.4262721620089669"><ele>101.8</ele><time>2026-05-04T13:12:26.002Z</time></trkpt><trkpt lat="41.473131707881656" lon="0.4263853600455173"><ele>102.6</ele><time>2026-05-04T13:12:27.002Z</time></trkpt><trkpt lat="41.47319347954744" lon="0.42649697954118404"><ele>103.4</ele><time>2026-05-04T13:12:28.002Z</time></trkpt><trkpt lat="41.473253290077224" lon="0.4266104640863279"><ele>104.2</ele><time>2026-05-04T13:12:29.002Z</time></trkpt><trkpt lat="41.473311984477185" lon="0.42672280461162787"><ele>105.0</ele><time>2026-05-04T13:12:30.002Z</time></trkpt><trkpt lat="41.47337078121796" lon="0.4268367154750815"><ele>105.0</ele><time>2026-05-04T13:12:31.002Z</time></trkpt><trkpt lat="41.47342909325085" lon="0.42694830827717944"><ele>105.0</ele><time>2026-05-04T13:12:32.002Z</time></trkpt><trkpt lat="41.4734886162253" lon="0.42706023451656067"><ele>105.0</ele><time>2026-05-04T13:12:33.002Z</time></trkpt><trkpt lat="41.473549441307604" lon="0.42716976068852314"><ele>105.0</ele><time>2026-05-04T13:12:34.002Z</time></trkpt><trkpt lat="41.47361254227155" lon="0.42727923769011433"><ele>105.0</ele><time>2026-05-04T13:12:35.002Z</time></trkpt><trkpt lat="41.473676526703734" lon="0.42738850705741116"><ele>105.2</ele><time>2026-05-04T13:12:36.002Z</time></trkpt><trkpt lat="41.47374084167406" lon="0.42749657040551964"><ele>105.4</ele><time>2026-05-04T13:12:37.002Z</time></trkpt><trkpt lat="41.47380689992735" lon="0.4276083421176035"><ele>105.6</ele><time>2026-05-04T13:12:38.002Z</time></trkpt><trkpt lat="41.473873202226336" lon="0.42771937239936797"><ele>105.8</ele><time>2026-05-04T13:12:39.002Z</time></trkpt><trkpt lat="41.47393946701478" lon="0.42782896486171"><ele>106.0</ele><time>2026-05-04T13:12:40.002Z</time></trkpt><trkpt lat="41.47400817249705" lon="0.4279389728693456"><ele>104.8</ele><time>2026-05-04T13:12:41.002Z</time></trkpt><trkpt lat="41.47407675612905" lon="0.4280463142062419"><ele>103.6</ele><time>2026-05-04T13:12:42.002Z</time></trkpt><trkpt lat="41.474145968360105" lon="0.42815521485127417"><ele>102.4</ele><time>2026-05-04T13:12:43.002Z</time></trkpt><trkpt lat="41.474215275192506" lon="0.4282630488717927"><ele>101.2</ele><time>2026-05-04T13:12:44.002Z</time></trkpt><trkpt lat="41.47428752124756" lon="0.42836824845353133"><ele>100.0</ele><time>2026-05-04T13:12:45.002Z</time></trkpt><trkpt lat="41.47435774678077" lon="0.42847365539148535"><ele>100.0</ele><time>2026-05-04T13:12:46.002Z</time></trkpt><trkpt lat="41.47443110788767" lon="0.42857542330746196"><ele>100.0</ele><time>2026-05-04T13:12:47.002Z</time></trkpt><trkpt lat="41.47450474830649" lon="0.4286777148166576"><ele>100.0</ele><time>2026-05-04T13:12:48.002Z</time></trkpt><trkpt lat="41.474576141153356" lon="0.42878044082623307"><ele>100.0</ele><time>2026-05-04T13:12:49Z</time></trkpt><trkpt lat="41.47465003888942" lon="0.42888596440612087"><ele>100.0</ele><time>2026-05-04T13:12:50Z</time></trkpt><trkpt lat="41.47472211306693" lon="0.42899158357945694"><ele>100.2</ele><time>2026-05-04T13:12:51Z</time></trkpt><trkpt lat="41.47479449953543" lon="0.42909662955328604"><ele>100.4</ele><time>2026-05-04T13:12:52Z</time></trkpt><trkpt lat="41.47486576567214" lon="0.42920090036456054"><ele>100.6</ele><time>2026-05-04T13:12:53Z</time></trkpt><trkpt lat="41.47494014108347" lon="0.4293029512417496"><ele>100.8</ele><time>2026-05-04T13:12:54Z</time></trkpt><trkpt lat="41.47501374908455" lon="0.4294057806417167"><ele>101.0</ele><time>2026-05-04T13:12:55Z</time></trkpt><trkpt lat="41.47508647852502" lon="0.42951038916008893"><ele>101.0</ele><time>2026-05-04T13:12:56Z</time></trkpt><trkpt lat="41.47515780596428" lon="0.4296158689141423"><ele>101.0</ele><time>2026-05-04T13:12:57Z</time></trkpt><trkpt lat="41.47523040571012" lon="0.4297205247223537"><ele>101.0</ele><time>2026-05-04T13:12:58Z</time></trkpt><trkpt lat="41.47530371211469" lon="0.42982484648005853"><ele>101.0</ele><time>2026-05-04T13:12:59Z</time></trkpt><trkpt lat="41.47537660980953" lon="0.4299318837896465"><ele>101.0</ele><time>2026-05-04T13:13:00Z</time></trkpt><trkpt lat="41.47544852468035" lon="0.43003576077969313"><ele>101.4</ele><time>2026-05-04T13:13:01Z</time></trkpt><trkpt lat="41.47552131733957" lon="0.43013673503231237"><ele>101.8</ele><time>2026-05-04T13:13:02Z</time></trkpt><trkpt lat="41.475594680090865" lon="0.4302401649546936"><ele>102.2</ele><time>2026-05-04T13:13:03Z</time></trkpt><trkpt lat="41.47566886296378" lon="0.4303411560293853"><ele>102.60000000000001</ele><time>2026-05-04T13:13:04Z</time></trkpt><trkpt lat="41.47574203071486" lon="0.4304431462551307"><ele>103.0</ele><time>2026-05-04T13:13:05Z</time></trkpt><trkpt lat="41.47581549464325" lon="0.4305449804937729"><ele>102.0</ele><time>2026-05-04T13:13:06Z</time></trkpt><trkpt lat="41.47588859893818" lon="0.4306472910704025"><ele>101.0</ele><time>2026-05-04T13:13:07Z</time></trkpt><trkpt lat="41.47595827244141" lon="0.4307514371239765"><ele>100.0</ele><time>2026-05-04T13:13:08Z</time></trkpt><trkpt lat="41.476031094604274" lon="0.4308529477461245"><ele>99.0</ele><time>2026-05-04T13:13:09Z</time></trkpt><trkpt lat="41.47610381649602" lon="0.4309528543952927"><ele>98.0</ele><time>2026-05-04T13:13:10Z</time></trkpt><trkpt lat="41.47617678980578" lon="0.431050540439935"><ele>98.0</ele><time>2026-05-04T13:13:11Z</time></trkpt><trkpt lat="41.47624876590589" lon="0.4311494638513598"><ele>98.0</ele><time>2026-05-04T13:13:12Z</time></trkpt><trkpt lat="41.476319594989015" lon="0.43125022315206296"><ele>98.0</ele><time>2026-05-04T13:13:13Z</time></trkpt><trkpt lat="41.47639076022176" lon="0.4313527625139406"><ele>98.0</ele><time>2026-05-04T13:13:14Z</time></trkpt><trkpt lat="41.476461097114615" lon="0.43145465366411356"><ele>98.0</ele><time>2026-05-04T13:13:15Z</time></trkpt><trkpt lat="41.4765255585971" lon="0.43156020534804207"><ele>98.2</ele><time>2026-05-04T13:13:16Z</time></trkpt><trkpt lat="41.47659135415929" lon="0.4316658225392206"><ele>98.4</ele><time>2026-05-04T13:13:17Z</time></trkpt><trkpt lat="41.47665670831514" lon="0.43176998683206896"><ele>98.60000000000001</ele><time>2026-05-04T13:13:18Z</time></trkpt><trkpt lat="41.47672091966113" lon="0.4318739475254785"><ele>98.80000000000001</ele><time>2026-05-04T13:13:19Z</time></trkpt><trkpt lat="41.4767837619792" lon="0.4319791063857688"><ele>99.0</ele><time>2026-05-04T13:13:20Z</time></trkpt><trkpt lat="41.47684519228353" lon="0.43208926056858166"><ele>98.4</ele><time>2026-05-04T13:13:21Z</time></trkpt><trkpt lat="41.47690637297208" lon="0.4322037501375559"><ele>97.80000000000001</ele><time>2026-05-04T13:13:22Z</time></trkpt><trkpt lat="41.476966668794425" lon="0.43232075324627167"><ele>97.19999999999999</ele><time>2026-05-04T13:13:23.001Z</time></trkpt><trkpt lat="41.47702732903888" lon="0.4324351670171707"><ele>96.6</ele><time>2026-05-04T13:13:24.001Z</time></trkpt><trkpt lat="41.477088866459916" lon="0.4325539938715623"><ele>96.0</ele><time>2026-05-04T13:13:25.001Z</time></trkpt><trkpt lat="41.47714680979159" lon="0.43267117271194294"><ele>96.8</ele><time>2026-05-04T13:13:26.001Z</time></trkpt><trkpt lat="41.477207179297444" lon="0.4327868726185957"><ele>97.6</ele><time>2026-05-04T13:13:27.001Z</time></trkpt><trkpt lat="41.477266188681064" lon="0.4329009296337181"><ele>98.4</ele><time>2026-05-04T13:13:28.001Z</time></trkpt><trkpt lat="41.47732510552504" lon="0.4330157168189229"><ele>99.2</ele><time>2026-05-04T13:13:29.001Z</time></trkpt><trkpt lat="41.47738434803232" lon="0.4331320034397189"><ele>100.0</ele><time>2026-05-04T13:13:30.001Z</time></trkpt><trkpt lat="41.47744262426058" lon="0.43324500538377525"><ele>100.0</ele><time>2026-05-04T13:13:31.001Z</time></trkpt><trkpt lat="41.47750163044841" lon="0.43336035961868696"><ele>100.0</ele><time>2026-05-04T13:13:32.001Z</time></trkpt><trkpt lat="41.47755990026838" lon="0.4334768255168034"><ele>100.0</ele><time>2026-05-04T13:13:33.001Z</time></trkpt><trkpt lat="41.47762079650398" lon="0.4335908781356883"><ele>100.0</ele><time>2026-05-04T13:13:34.001Z</time></trkpt><trkpt lat="41.477680248252284" lon="0.43370741656300493"><ele>100.0</ele><time>2026-05-04T13:13:35.001Z</time></trkpt><trkpt lat="41.47773925793812" lon="0.43382366260747884"><ele>98.8</ele><time>2026-05-04T13:13:36.001Z</time></trkpt><trkpt lat="41.477798547175766" lon="0.43393815039100664"><ele>97.6</ele><time>2026-05-04T13:13:37.001Z</time></trkpt><trkpt lat="41.47785803321761" lon="0.4340539971982809"><ele>96.4</ele><time>2026-05-04T13:13:38.001Z</time></trkpt><trkpt lat="41.47791806694007" lon="0.4341708034928709"><ele>95.2</ele><time>2026-05-04T13:13:39.001Z</time></trkpt><trkpt lat="41.477976445900374" lon="0.4342886971907329"><ele>94.0</ele><time>2026-05-04T13:13:40.001Z</time></trkpt><trkpt lat="41.47803429456548" lon="0.4344035720653036"><ele>95.0</ele><time>2026-05-04T13:13:41.001Z</time></trkpt><trkpt lat="41.47809394183243" lon="0.43451879362733814"><ele>96.0</ele><time>2026-05-04T13:13:42.001Z</time></trkpt><trkpt lat="41.47815441294399" lon="0.43463458094929475"><ele>97.0</ele><time>2026-05-04T13:13:43.001Z</time></trkpt><trkpt lat="41.478215979563274" lon="0.4347502014810928"><ele>98.0</ele><time>2026-05-04T13:13:44.001Z</time></trkpt><trkpt lat="41.47827584548981" lon="0.43486636223873293"><ele>99.0</ele><time>2026-05-04T13:13:45.001Z</time></trkpt><trkpt lat="41.47833332873592" lon="0.43498340669426483"><ele>99.0</ele><time>2026-05-04T13:13:46.001Z</time></trkpt><trkpt lat="41.47839540250321" lon="0.4350951857764034"><ele>99.0</ele><time>2026-05-04T13:13:47.001Z</time></trkpt><trkpt lat="41.47845836087172" lon="0.4352102284601812"><ele>99.0</ele><time>2026-05-04T13:13:48.001Z</time></trkpt><trkpt lat="41.47851873610495" lon="0.43532567163218877"><ele>99.0</ele><time>2026-05-04T13:13:49.001Z</time></trkpt><trkpt lat="41.47857729312805" lon="0.4354435102015091"><ele>99.0</ele><time>2026-05-04T13:13:50.001Z</time></trkpt><trkpt lat="41.478635452642244" lon="0.4355621355155711"><ele>99.6</ele><time>2026-05-04T13:13:51.001Z</time></trkpt><trkpt lat="41.478693402240985" lon="0.43567909965983814"><ele>100.2</ele><time>2026-05-04T13:13:52.001Z</time></trkpt><trkpt lat="41.478752297249805" lon="0.43579680989098796"><ele>100.8</ele><time>2026-05-04T13:13:53.001Z</time></trkpt><trkpt lat="41.47881286030089" lon="0.43591128916091926"><ele>101.39999999999999</ele><time>2026-05-04T13:13:54.001Z</time></trkpt><trkpt lat="41.47887302791374" lon="0.43602642378364054"><ele>102.0</ele><time>2026-05-04T13:13:55.001Z</time></trkpt><trkpt lat="41.47893136829356" lon="0.43614308598797874"><ele>102.0</ele><time>2026-05-04T13:13:56.001Z</time></trkpt><trkpt lat="41.47898794549717" lon="0.4362582708914877"><ele>102.0</ele><time>2026-05-04T13:13:57.001Z</time></trkpt><trkpt lat="41.47904555848277" lon="0.43637491218379154"><ele>102.0</ele><time>2026-05-04T13:13:58.001Z</time></trkpt><trkpt lat="41.47910441378836" lon="0.43649213294428335"><ele>102.0</ele><time>2026-05-04T13:13:59.001Z</time></trkpt><trkpt lat="41.47916163558933" lon="0.43660747182802323"><ele>102.0</ele><time>2026-05-04T13:14:00.001Z</time></trkpt><trkpt lat="41.479219118095116" lon="0.43672255712316915"><ele>102.0</ele><time>2026-05-04T13:14:01.001Z</time></trkpt><trkpt lat="41.47927992511727" lon="0.4368374218124054"><ele>102.0</ele><time>2026-05-04T13:14:02.001Z</time></trkpt><trkpt lat="41.479335753875354" lon="0.4369540797146197"><ele>102.0</ele><time>2026-05-04T13:14:03.001Z</time></trkpt><trkpt lat="41.4793939647598" lon="0.43706833375979987"><ele>102.0</ele><time>2026-05-04T13:14:04.001Z</time></trkpt><trkpt lat="41.479454340161716" lon="0.43718281278989785"><ele>102.0</ele><time>2026-05-04T13:14:05.001Z</time></trkpt><trkpt lat="41.479513976748265" lon="0.43730104245255724"><ele>101.39999999999999</ele><time>2026-05-04T13:14:06.001Z</time></trkpt><trkpt lat="41.479575240617045" lon="0.4374160372878159"><ele>100.8</ele><time>2026-05-04T13:14:07.001Z</time></trkpt><trkpt lat="41.479635153759084" lon="0.43753137144840587"><ele>100.2</ele><time>2026-05-04T13:14:08.001Z</time></trkpt><trkpt lat="41.47969565312528" lon="0.43764991790472796"><ele>99.6</ele><time>2026-05-04T13:14:09.001Z</time></trkpt><trkpt lat="41.47975221460038" lon="0.43776683671281585"><ele>99.0</ele><time>2026-05-04T13:14:10.001Z</time></trkpt><trkpt lat="41.4798103620527" lon="0.4378804538647143"><ele>99.6</ele><time>2026-05-04T13:14:11.001Z</time></trkpt><trkpt lat="41.4798681234599" lon="0.4379961198882715"><ele>100.2</ele><time>2026-05-04T13:14:12.001Z</time></trkpt><trkpt lat="41.479923719679334" lon="0.43811010727294913"><ele>100.8</ele><time>2026-05-04T13:14:13.001Z</time></trkpt><trkpt lat="41.47998512464128" lon="0.43822515110526633"><ele>101.39999999999999</ele><time>2026-05-04T13:14:14.002Z</time></trkpt><trkpt lat="41.48004450011987" lon="0.4383400574434215"><ele>102.0</ele><time>2026-05-04T13:14:15.002Z</time></trkpt><trkpt lat="41.480104262345435" lon="0.4384557710476777"><ele>102.0</ele><time>2026-05-04T13:14:16.002Z</time></trkpt><trkpt lat="41.48016558962667" lon="0.43857221780763883"><ele>102.0</ele><time>2026-05-04T13:14:17.002Z</time></trkpt><trkpt lat="41.48022702917492" lon="0.43868709190215344"><ele>102.0</ele><time>2026-05-04T13:14:18.002Z</time></trkpt><trkpt lat="41.48028692543277" lon="0.4388020720523024"><ele>102.0</ele><time>2026-05-04T13:14:19.002Z</time></trkpt><trkpt lat="41.480345397778606" lon="0.4389193112787664"><ele>102.0</ele><time>2026-05-04T13:14:20.002Z</time></trkpt><trkpt lat="41.480405034222564" lon="0.439037363214037"><ele>103.0</ele><time>2026-05-04T13:14:21.002Z</time></trkpt><trkpt lat="41.48046352317819" lon="0.4391533178145798"><ele>104.0</ele><time>2026-05-04T13:14:22.002Z</time></trkpt><trkpt lat="41.480522526070835" lon="0.4392701178308449"><ele>104.99999999999999</ele><time>2026-05-04T13:14:23.002Z</time></trkpt><trkpt lat="41.480582194972214" lon="0.4393841244906714"><ele>106.0</ele><time>2026-05-04T13:14:24.002Z</time></trkpt><trkpt lat="41.4806444457134" lon="0.43949514735146805"><ele>107.0</ele><time>2026-05-04T13:14:25.002Z</time></trkpt><trkpt lat="41.480705643876554" lon="0.4396071327315121"><ele>106.8</ele><time>2026-05-04T13:14:26.002Z</time></trkpt><trkpt lat="41.48076611689206" lon="0.4397171834271922"><ele>106.6</ele><time>2026-05-04T13:14:27.002Z</time></trkpt><trkpt lat="41.480830330236635" lon="0.4398228907135473"><ele>106.39999999999999</ele><time>2026-05-04T13:14:28.002Z</time></trkpt><trkpt lat="41.480892493650224" lon="0.439930541968869"><ele>106.19999999999999</ele><time>2026-05-04T13:14:29.002Z</time></trkpt><trkpt lat="41.48095516331061" lon="0.4400339294561795"><ele>106.0</ele><time>2026-05-04T13:14:30.002Z</time></trkpt><trkpt lat="41.48101611499505" lon="0.44013980260967234"><ele>106.0</ele><time>2026-05-04T13:14:31.002Z</time></trkpt><trkpt lat="41.48107926006253" lon="0.44024250440794177"><ele>106.0</ele><time>2026-05-04T13:14:32.002Z</time></trkpt><trkpt lat="41.481141353234456" lon="0.44034366699460503"><ele>106.0</ele><time>2026-05-04T13:14:33.002Z</time></trkpt><trkpt lat="41.48120161278152" lon="0.4404457437658402"><ele>106.0</ele><time>2026-05-04T13:14:34.002Z</time></trkpt><trkpt lat="41.481263601209676" lon="0.44054618244645527"><ele>106.0</ele><time>2026-05-04T13:14:35.002Z</time></trkpt><trkpt lat="41.48132546390196" lon="0.44064617054553057"><ele>107.8</ele><time>2026-05-04T13:14:36.002Z</time></trkpt><trkpt lat="41.481389167648956" lon="0.44074714712537727"><ele>109.6</ele><time>2026-05-04T13:14:37.002Z</time></trkpt><trkpt lat="41.4814529249591" lon="0.44084773525203785"><ele>111.4</ele><time>2026-05-04T13:14:38.002Z</time></trkpt><trkpt lat="41.481516329638175" lon="0.4409479936588898"><ele>113.2</ele><time>2026-05-04T13:14:39.002Z</time></trkpt><trkpt lat="41.48157995288079" lon="0.44104932105486866"><ele>115.0</ele><time>2026-05-04T13:14:40.002Z</time></trkpt><trkpt lat="41.481643475984455" lon="0.4411532889788741"><ele>115.0</ele><time>2026-05-04T13:14:41.002Z</time></trkpt><trkpt lat="41.48170851971391" lon="0.44125618294792673"><ele>115.0</ele><time>2026-05-04T13:14:42.002Z</time></trkpt><trkpt lat="41.4817738289564" lon="0.4413601496429466"><ele>115.0</ele><time>2026-05-04T13:14:43.002Z</time></trkpt><trkpt lat="41.48184030488343" lon="0.44146586493580187"><ele>115.0</ele><time>2026-05-04T13:14:44.002Z</time></trkpt><trkpt lat="41.48190091225348" lon="0.44158009492882255"><ele>115.0</ele><time>2026-05-04T13:14:45.002Z</time></trkpt><trkpt lat="41.481967410509284" lon="0.44168724596864845"><ele>115.8</ele><time>2026-05-04T13:14:46.002Z</time></trkpt><trkpt lat="41.482035440831034" lon="0.4417948229176556"><ele>116.6</ele><time>2026-05-04T13:14:47.002Z</time></trkpt><trkpt lat="41.482102323264066" lon="0.44190283332684893"><ele>117.4</ele><time>2026-05-04T13:14:48.002Z</time></trkpt><trkpt lat="41.48217052625357" lon="0.44201130812542716"><ele>118.2</ele><time>2026-05-04T13:14:49.002Z</time></trkpt><trkpt lat="41.482239914214006" lon="0.4421234721362928"><ele>119.0</ele><time>2026-05-04T13:14:50.002Z</time></trkpt><trkpt lat="41.482307839674654" lon="0.44223494359250304"><ele>117.2</ele><time>2026-05-04T13:14:51.002Z</time></trkpt><trkpt lat="41.482376425679995" lon="0.44234483130271984"><ele>115.4</ele><time>2026-05-04T13:14:52.002Z</time></trkpt><trkpt lat="41.482444119591136" lon="0.4424544223090638"><ele>113.6</ele><time>2026-05-04T13:14:53.002Z</time></trkpt><trkpt lat="41.48251469806391" lon="0.44256439411122334"><ele>111.8</ele><time>2026-05-04T13:14:54.002Z</time></trkpt><trkpt lat="41.482582874585255" lon="0.442676821689239"><ele>110.0</ele><time>2026-05-04T13:14:55Z</time></trkpt><trkpt lat="41.48265237651006" lon="0.44278457442318675"><ele>110.0</ele><time>2026-05-04T13:14:56Z</time></trkpt><trkpt lat="41.48272083464622" lon="0.44289213375962416"><ele>110.0</ele><time>2026-05-04T13:14:57Z</time></trkpt><trkpt lat="41.48278847639623" lon="0.442999998045051"><ele>110.0</ele><time>2026-05-04T13:14:58Z</time></trkpt><trkpt lat="41.48285361920733" lon="0.44310819641662214"><ele>110.0</ele><time>2026-05-04T13:14:59Z</time></trkpt><trkpt lat="41.48292161324036" lon="0.44322141075432575"><ele>110.0</ele><time>2026-05-04T13:15:00Z</time></trkpt><trkpt lat="41.482986704907695" lon="0.44333566790108486"><ele>109.8</ele><time>2026-05-04T13:15:01Z</time></trkpt><trkpt lat="41.48304559039687" lon="0.4434541127749859"><ele>109.6</ele><time>2026-05-04T13:15:02Z</time></trkpt><trkpt lat="41.48309761170643" lon="0.44357676626423603"><ele>109.4</ele><time>2026-05-04T13:15:03Z</time></trkpt><trkpt lat="41.483144823343686" lon="0.44370671244831317"><ele>109.2</ele><time>2026-05-04T13:15:04Z</time></trkpt><trkpt lat="41.4831846754313" lon="0.4438391403047441"><ele>109.0</ele><time>2026-05-04T13:15:05Z</time></trkpt><trkpt lat="41.48322006309003" lon="0.44397575318408006"><ele>108.4</ele><time>2026-05-04T13:15:06Z</time></trkpt><trkpt lat="41.4832531320679" lon="0.4441141245636452"><ele>107.80000000000001</ele><time>2026-05-04T13:15:07Z</time></trkpt><trkpt lat="41.483283630062374" lon="0.44425257089432896"><ele>107.19999999999999</ele><time>2026-05-04T13:15:08Z</time></trkpt><trkpt lat="41.48331430537945" lon="0.4443931271091527"><ele>106.6</ele><time>2026-05-04T13:15:09Z</time></trkpt><trkpt lat="41.48334228047532" lon="0.4445313460533394"><ele>106.0</ele><time>2026-05-04T13:15:10Z</time></trkpt><trkpt lat="41.483371106889706" lon="0.44466657956798866"><ele>105.8</ele><time>2026-05-04T13:15:11Z</time></trkpt><trkpt lat="41.48340024909302" lon="0.44480208941389776"><ele>105.6</ele><time>2026-05-04T13:15:12Z</time></trkpt><trkpt lat="41.48342431483115" lon="0.44493706163430663"><ele>105.4</ele><time>2026-05-04T13:15:13Z</time></trkpt><trkpt lat="41.483455420885285" lon="0.4450677555488579"><ele>105.2</ele><time>2026-05-04T13:15:14Z</time></trkpt><trkpt lat="41.48349383418093" lon="0.4451971676618874"><ele>105.0</ele><time>2026-05-04T13:15:15Z</time></trkpt><trkpt lat="41.483532589385646" lon="0.4453306340761831"><ele>105.0</ele><time>2026-05-04T13:15:16Z</time></trkpt><trkpt lat="41.483577524224714" lon="0.44545679218497125"><ele>105.0</ele><time>2026-05-04T13:15:17Z</time></trkpt><trkpt lat="41.483628992377525" lon="0.4455810549896249"><ele>105.0</ele><time>2026-05-04T13:15:18Z</time></trkpt><trkpt lat="41.48368712028982" lon="0.44570007064934103"><ele>105.0</ele><time>2026-05-04T13:15:19Z</time></trkpt><trkpt lat="41.483748633180326" lon="0.44581273158449164"><ele>105.0</ele><time>2026-05-04T13:15:20Z</time></trkpt><trkpt lat="41.48381577005588" lon="0.4459223974570363"><ele>104.6</ele><time>2026-05-04T13:15:21Z</time></trkpt><trkpt lat="41.483888152718514" lon="0.4460232968948657"><ele>104.2</ele><time>2026-05-04T13:15:22Z</time></trkpt><trkpt lat="41.4839681707664" lon="0.4461171061610277"><ele>103.80000000000001</ele><time>2026-05-04T13:15:23Z</time></trkpt><trkpt lat="41.48404920331026" lon="0.4462087040237765"><ele>103.4</ele><time>2026-05-04T13:15:24Z</time></trkpt><trkpt lat="41.48413235120327" lon="0.44629813535139"><ele>103.0</ele><time>2026-05-04T13:15:25Z</time></trkpt><trkpt lat="41.48421882120332" lon="0.44638572569663054"><ele>103.0</ele><time>2026-05-04T13:15:26Z</time></trkpt><trkpt lat="41.48430418925779" lon="0.4464731225664826"><ele>103.0</ele><time>2026-05-04T13:15:27Z</time></trkpt><trkpt lat="41.48438823188674" lon="0.4465633234296256"><ele>103.0</ele><time>2026-05-04T13:15:28Z</time></trkpt><trkpt lat="41.48447055201884" lon="0.44665039471922857"><ele>103.0</ele><time>2026-05-04T13:15:29Z</time></trkpt><trkpt lat="41.48455355634317" lon="0.4467371995676007"><ele>103.0</ele><time>2026-05-04T13:15:30Z</time></trkpt><trkpt lat="41.48463479771075" lon="0.4468257008643028"><ele>103.4</ele><time>2026-05-04T13:15:31Z</time></trkpt><trkpt lat="41.48471653535262" lon="0.44691184265071043"><ele>103.80000000000001</ele><time>2026-05-04T13:15:32Z</time></trkpt><trkpt lat="41.484796540292976" lon="0.44699983643660185"><ele>104.2</ele><time>2026-05-04T13:15:33Z</time></trkpt><trkpt lat="41.484875514494064" lon="0.44709111999624934"><ele>104.6</ele><time>2026-05-04T13:15:34.001Z</time></trkpt><trkpt lat="41.484954338301876" lon="0.44718468753981516"><ele>105.0</ele><time>2026-05-04T13:15:35.001Z</time></trkpt><trkpt lat="41.48502850759921" lon="0.4472768753838372"><ele>105.0</ele><time>2026-05-04T13:15:36.001Z</time></trkpt><trkpt lat="41.48510086289487" lon="0.4473749608474896"><ele>105.0</ele><time>2026-05-04T13:15:37.001Z</time></trkpt><trkpt lat="41.485169882372965" lon="0.4474776104170926"><ele>105.0</ele><time>2026-05-04T13:15:38.001Z</time></trkpt><trkpt lat="41.485237007962496" lon="0.44758093023836537"><ele>105.0</ele><time>2026-05-04T13:15:39.001Z</time></trkpt><trkpt lat="41.485304025280904" lon="0.44768664485999216"><ele>105.0</ele><time>2026-05-04T13:15:40.001Z</time></trkpt><trkpt lat="41.485367539199366" lon="0.44779447238748904"><ele>108.0</ele><time>2026-05-04T13:15:41.001Z</time></trkpt><trkpt lat="41.485432525341494" lon="0.44790465251651673"><ele>111.0</ele><time>2026-05-04T13:15:42.001Z</time></trkpt><trkpt lat="41.48549785076011" lon="0.4480167480411318"><ele>114.0</ele><time>2026-05-04T13:15:43.001Z</time></trkpt><trkpt lat="41.485561862675546" lon="0.44812753191507615"><ele>117.0</ele><time>2026-05-04T13:15:44.001Z</time></trkpt><trkpt lat="41.48562495828679" lon="0.4482420943841489"><ele>120.0</ele><time>2026-05-04T13:15:45.001Z</time></trkpt><trkpt lat="41.485685386940276" lon="0.44835224804803536"><ele>120.0</ele><time>2026-05-04T13:15:46.001Z</time></trkpt><trkpt lat="41.48574879949943" lon="0.44846861902240603"><ele>120.0</ele><time>2026-05-04T13:15:47.001Z</time></trkpt><trkpt lat="41.48581070517358" lon="0.44858168213229865"><ele>120.0</ele><time>2026-05-04T13:15:48.001Z</time></trkpt><trkpt lat="41.48587273686386" lon="0.448695854809713"><ele>120.0</ele><time>2026-05-04T13:15:49.001Z</time></trkpt><trkpt lat="41.485935231455684" lon="0.4488098652660442"><ele>120.0</ele><time>2026-05-04T13:15:50.001Z</time></trkpt><trkpt lat="41.48599748583943" lon="0.44892270381472876"><ele>117.0</ele><time>2026-05-04T13:15:51.001Z</time></trkpt><trkpt lat="41.486059237383564" lon="0.4490380287379571"><ele>114.0</ele><time>2026-05-04T13:15:52.001Z</time></trkpt><trkpt lat="41.48612087681237" lon="0.44914998835132214"><ele>111.0</ele><time>2026-05-04T13:15:53.001Z</time></trkpt><trkpt lat="41.48617897855444" lon="0.449261800319195"><ele>108.0</ele><time>2026-05-04T13:15:54.001Z</time></trkpt><trkpt lat="41.486239106358" lon="0.4493745777925485"><ele>105.0</ele><time>2026-05-04T13:15:55.001Z</time></trkpt><trkpt lat="41.48630159139701" lon="0.4494841633188274"><ele>106.0</ele><time>2026-05-04T13:15:56.001Z</time></trkpt><trkpt lat="41.48636303363401" lon="0.4495985597547535"><ele>107.0</ele><time>2026-05-04T13:15:57.001Z</time></trkpt><trkpt lat="41.486426177798414" lon="0.44971635904919477"><ele>108.0</ele><time>2026-05-04T13:15:58.001Z</time></trkpt><trkpt lat="41.486490375597974" lon="0.44982881416327636"><ele>109.0</ele><time>2026-05-04T13:15:59.001Z</time></trkpt><trkpt lat="41.486556505002376" lon="0.4499364450665045"><ele>110.0</ele><time>2026-05-04T13:16:00.001Z</time></trkpt><trkpt lat="41.48662049410161" lon="0.4500510827197958"><ele>110.0</ele><time>2026-05-04T13:16:01.001Z</time></trkpt><trkpt lat="41.486684811021895" lon="0.4501646622784415"><ele>110.0</ele><time>2026-05-04T13:16:02.001Z</time></trkpt><trkpt lat="41.4867509730403" lon="0.45027472649114547"><ele>110.0</ele><time>2026-05-04T13:16:03.001Z</time></trkpt><trkpt lat="41.48681523696945" lon="0.45038814720298626"><ele>110.0</ele><time>2026-05-04T13:16:04.001Z</time></trkpt><trkpt lat="41.48688177388117" lon="0.4504982830537871"><ele>110.0</ele><time>2026-05-04T13:16:05.001Z</time></trkpt><trkpt lat="41.48695088865131" lon="0.45060829046878625"><ele>111.0</ele><time>2026-05-04T13:16:06.001Z</time></trkpt><trkpt lat="41.48701949771092" lon="0.45071623650908055"><ele>112.0</ele><time>2026-05-04T13:16:07.001Z</time></trkpt><trkpt lat="41.487088926731886" lon="0.4508245016379095"><ele>113.0</ele><time>2026-05-04T13:16:08.001Z</time></trkpt><trkpt lat="41.48715945474756" lon="0.45093399314673355"><ele>114.0</ele><time>2026-05-04T13:16:09.001Z</time></trkpt><trkpt lat="41.487229511332394" lon="0.451043106004107"><ele>115.0</ele><time>2026-05-04T13:16:10.001Z</time></trkpt><trkpt lat="41.48729921213014" lon="0.45115078635797645"><ele>115.0</ele><time>2026-05-04T13:16:11.001Z</time></trkpt><trkpt lat="41.48736917981237" lon="0.4512600257535828"><ele>115.0</ele><time>2026-05-04T13:16:12.001Z</time></trkpt><trkpt lat="41.48743721992758" lon="0.45136974212835385"><ele>115.0</ele><time>2026-05-04T13:16:13.001Z</time></trkpt><trkpt lat="41.48750661280943" lon="0.45148048167137333"><ele>115.0</ele><time>2026-05-04T13:16:14.001Z</time></trkpt><trkpt lat="41.48757532889725" lon="0.4515909323988408"><ele>115.0</ele><time>2026-05-04T13:16:15.001Z</time></trkpt><trkpt lat="41.48764550642425" lon="0.45169931801946295"><ele>115.2</ele><time>2026-05-04T13:16:16.001Z</time></trkpt><trkpt lat="41.48771500847953" lon="0.4518078704697929"><ele>115.4</ele><time>2026-05-04T13:16:17.001Z</time></trkpt><trkpt lat="41.487783101764315" lon="0.4519162584330642"><ele>115.6</ele><time>2026-05-04T13:16:18.001Z</time></trkpt><trkpt lat="41.48785068926969" lon="0.4520210485443683"><ele>115.8</ele><time>2026-05-04T13:16:19.001Z</time></trkpt><trkpt lat="41.487919208302095" lon="0.4521205100470597"><ele>116.0</ele><time>2026-05-04T13:16:20.001Z</time></trkpt><trkpt lat="41.48798965476741" lon="0.45222042581632804"><ele>116.0</ele><time>2026-05-04T13:16:21.001Z</time></trkpt><trkpt lat="41.48806086300384" lon="0.45231986185073675"><ele>116.0</ele><time>2026-05-04T13:16:22.001Z</time></trkpt><trkpt lat="41.48813500655642" lon="0.45241652204076815"><ele>116.0</ele><time>2026-05-04T13:16:23.001Z</time></trkpt><trkpt lat="41.48821159706923" lon="0.4525061016574896"><ele>116.0</ele><time>2026-05-04T13:16:24.001Z</time></trkpt><trkpt lat="41.488292090881764" lon="0.4525929719383574"><ele>116.0</ele><time>2026-05-04T13:16:25.001Z</time></trkpt><trkpt lat="41.488377374016316" lon="0.45267433689105696"><ele>116.0</ele><time>2026-05-04T13:16:26.001Z</time></trkpt><trkpt lat="41.48846058973324" lon="0.45275714075160517"><ele>116.0</ele><time>2026-05-04T13:16:27.001Z</time></trkpt><trkpt lat="41.48854599708953" lon="0.4528376307651338"><ele>116.0</ele><time>2026-05-04T13:16:28.002Z</time></trkpt><trkpt lat="41.48863275928014" lon="0.4529182086489"><ele>116.0</ele><time>2026-05-04T13:16:29.002Z</time></trkpt><trkpt lat="41.48871876316452" lon="0.45299978927474005"><ele>116.0</ele><time>2026-05-04T13:16:30.002Z</time></trkpt><trkpt lat="41.488807776875845" lon="0.45308104702441293"><ele>114.19999999999999</ele><time>2026-05-04T13:16:31.002Z</time></trkpt><trkpt lat="41.48889344184032" lon="0.45315886209912654"><ele>112.39999999999999</ele><time>2026-05-04T13:16:32.002Z</time></trkpt><trkpt lat="41.4889825386338" lon="0.4532404487766546"><ele>110.6</ele><time>2026-05-04T13:16:33.002Z</time></trkpt><trkpt lat="41.48906971780394" lon="0.4533186672669133"><ele>108.8</ele><time>2026-05-04T13:16:34.002Z</time></trkpt><trkpt lat="41.48915799442097" lon="0.4533953151209343"><ele>107.0</ele><time>2026-05-04T13:16:35.002Z</time></trkpt><trkpt lat="41.4892457115595" lon="0.4534696912013656"><ele>107.0</ele><time>2026-05-04T13:16:36.002Z</time></trkpt><trkpt lat="41.48933547850658" lon="0.4535461902064491"><ele>106.99999999999999</ele><time>2026-05-04T13:16:37.002Z</time></trkpt><trkpt lat="41.489422592249035" lon="0.4536197816199101"><ele>106.99999999999999</ele><time>2026-05-04T13:16:38.002Z</time></trkpt><trkpt lat="41.48950738189125" lon="0.4536921544644647"><ele>107.0</ele><time>2026-05-04T13:16:39.002Z</time></trkpt><trkpt lat="41.48959005943588" lon="0.45376302504977256"><ele>107.0</ele><time>2026-05-04T13:16:40.002Z</time></trkpt><trkpt lat="41.48967243345988" lon="0.4538316919717703"><ele>106.39999999999999</ele><time>2026-05-04T13:16:41.002Z</time></trkpt><trkpt lat="41.489753842904584" lon="0.453899842793434"><ele>105.79999999999998</ele><time>2026-05-04T13:16:42.002Z</time></trkpt><trkpt lat="41.489831709884314" lon="0.4539736906784893"><ele>105.2</ele><time>2026-05-04T13:16:43.002Z</time></trkpt><trkpt lat="41.489904047513775" lon="0.454051052107106"><ele>104.6</ele><time>2026-05-04T13:16:44.002Z</time></trkpt><trkpt lat="41.48996176046" lon="0.4541573496534487"><ele>104.0</ele><time>2026-05-04T13:16:45.002Z</time></trkpt><trkpt lat="41.49001799141609" lon="0.4542716427582711"><ele>104.0</ele><time>2026-05-04T13:16:46.002Z</time></trkpt><trkpt lat="41.49009169288569" lon="0.4543566836078151"><ele>104.0</ele><time>2026-05-04T13:16:47.002Z</time></trkpt><trkpt lat="41.4901838549399" lon="0.4544215542817716"><ele>104.0</ele><time>2026-05-04T13:16:48.002Z</time></trkpt><trkpt lat="41.49026301734248" lon="0.45451321140045847"><ele>104.0</ele><time>2026-05-04T13:16:49.002Z</time></trkpt><trkpt lat="41.49031900655" lon="0.4546346417890129"><ele>104.0</ele><time>2026-05-04T13:16:50.002Z</time></trkpt><trkpt lat="41.49037292173288" lon="0.45475601264778465"><ele>104.6</ele><time>2026-05-04T13:16:51.002Z</time></trkpt><trkpt lat="41.49042113472313" lon="0.4548836031454001"><ele>105.2</ele><time>2026-05-04T13:16:52.002Z</time></trkpt><trkpt lat="41.490464187528936" lon="0.45501000858959084"><ele>105.79999999999998</ele><time>2026-05-04T13:16:53.002Z</time></trkpt><trkpt lat="41.49050386099253" lon="0.4551394541615819"><ele>106.39999999999999</ele><time>2026-05-04T13:16:54.002Z</time></trkpt><trkpt lat="41.49054205266183" lon="0.4552711977762511"><ele>107.0</ele><time>2026-05-04T13:16:55.002Z</time></trkpt><trkpt lat="41.49057536440058" lon="0.45540088885505264"><ele>106.0</ele><time>2026-05-04T13:16:56.002Z</time></trkpt><trkpt lat="41.49061340091051" lon="0.4555297154419053"><ele>104.99999999999999</ele><time>2026-05-04T13:16:57.002Z</time></trkpt><trkpt lat="41.49064729363551" lon="0.45566108763818597"><ele>104.0</ele><time>2026-05-04T13:16:58.002Z</time></trkpt><trkpt lat="41.49068074578583" lon="0.45579161220240355"><ele>103.0</ele><time>2026-05-04T13:16:59.002Z</time></trkpt><trkpt lat="41.490714634466144" lon="0.45592028217502256"><ele>102.0</ele><time>2026-05-04T13:17:00.002Z</time></trkpt><trkpt lat="41.490749381928374" lon="0.45605095499699916"><ele>102.0</ele><time>2026-05-04T13:17:01Z</time></trkpt><trkpt lat="41.490785042501585" lon="0.45618147543868803"><ele>102.0</ele><time>2026-05-04T13:17:02Z</time></trkpt><trkpt lat="41.490821576394374" lon="0.4563111540050067"><ele>102.0</ele><time>2026-05-04T13:17:03Z</time></trkpt><trkpt lat="41.4908587160488" lon="0.45644192210559037"><ele>102.0</ele><time>2026-05-04T13:17:04Z</time></trkpt><trkpt lat="41.4908945009116" lon="0.4565746151712463"><ele>102.0</ele><time>2026-05-04T13:17:05Z</time></trkpt><trkpt lat="41.49093198645129" lon="0.4567037929415149"><ele>102.0</ele><time>2026-05-04T13:17:06Z</time></trkpt><trkpt lat="41.490970742516595" lon="0.4568302315358878"><ele>102.0</ele><time>2026-05-04T13:17:07Z</time></trkpt><trkpt lat="41.49101272732295" lon="0.456951706538282"><ele>102.0</ele><time>2026-05-04T13:17:08Z</time></trkpt><trkpt lat="41.491059470200106" lon="0.4570724861938871"><ele>102.0</ele><time>2026-05-04T13:17:09Z</time></trkpt><trkpt lat="41.491111542184235" lon="0.4571883559592162"><ele>102.0</ele><time>2026-05-04T13:17:10Z</time></trkpt><trkpt lat="41.49116730581477" lon="0.45730695184414005"><ele>102.19999999999999</ele><time>2026-05-04T13:17:11Z</time></trkpt><trkpt lat="41.49122971816021" lon="0.45741847210363445"><ele>102.4</ele><time>2026-05-04T13:17:12Z</time></trkpt><trkpt lat="41.49129831438483" lon="0.45752374993381995"><ele>102.6</ele><time>2026-05-04T13:17:13Z</time></trkpt><trkpt lat="41.49136277623917" lon="0.457627478124249"><ele>102.80000000000001</ele><time>2026-05-04T13:17:14Z</time></trkpt><trkpt lat="41.49142764197627" lon="0.45773213699496246"><ele>103.0</ele><time>2026-05-04T13:17:15Z</time></trkpt><trkpt lat="41.49149119406381" lon="0.45783449782946534"><ele>103.60000000000001</ele><time>2026-05-04T13:17:16Z</time></trkpt><trkpt lat="41.491553900590944" lon="0.45793571247401355"><ele>104.2</ele><time>2026-05-04T13:17:17Z</time></trkpt><trkpt lat="41.49161775408057" lon="0.45803880514101064"><ele>104.8</ele><time>2026-05-04T13:17:18Z</time></trkpt><trkpt lat="41.49168624654821" lon="0.45813610471412336"><ele>105.4</ele><time>2026-05-04T13:17:19Z</time></trkpt><trkpt lat="41.491748373853156" lon="0.4582343307040709"><ele>106.0</ele><time>2026-05-04T13:17:20Z</time></trkpt><trkpt lat="41.49180973663057" lon="0.45833331010804124"><ele>106.19999999999999</ele><time>2026-05-04T13:17:21Z</time></trkpt><trkpt lat="41.49187493384013" lon="0.4584329102878935"><ele>106.39999999999999</ele><time>2026-05-04T13:17:22Z</time></trkpt><trkpt lat="41.4919426590144" lon="0.45852894439270975"><ele>106.6</ele><time>2026-05-04T13:17:23Z</time></trkpt><trkpt lat="41.49201267969181" lon="0.4586267090343687"><ele>106.8</ele><time>2026-05-04T13:17:24Z</time></trkpt><trkpt lat="41.492087720169614" lon="0.4587144512856559"><ele>107.0</ele><time>2026-05-04T13:17:25Z</time></trkpt><trkpt lat="41.49216565010124" lon="0.45878748951772097"><ele>106.6</ele><time>2026-05-04T13:17:26Z</time></trkpt><trkpt lat="41.492243596641394" lon="0.4588541181898714"><ele>106.19999999999999</ele><time>2026-05-04T13:17:27Z</time></trkpt><trkpt lat="41.492326359667146" lon="0.4589135576827102"><ele>105.8</ele><time>2026-05-04T13:17:28Z</time></trkpt><trkpt lat="41.49241604678166" lon="0.45897175664752937"><ele>105.4</ele><time>2026-05-04T13:17:29Z</time></trkpt><trkpt lat="41.492502325400835" lon="0.4590256660234906"><ele>105.0</ele><time>2026-05-04T13:17:30Z</time></trkpt><trkpt lat="41.49258869829766" lon="0.4590709345438221"><ele>105.0</ele><time>2026-05-04T13:17:31Z</time></trkpt><trkpt lat="41.49267021530593" lon="0.4591197217883399"><ele>105.0</ele><time>2026-05-04T13:17:32Z</time></trkpt><trkpt lat="41.49274216645843" lon="0.4591794577885265"><ele>105.0</ele><time>2026-05-04T13:17:33Z</time></trkpt><trkpt lat="41.49281713234331" lon="0.4592276085079448"><ele>105.0</ele><time>2026-05-04T13:17:34Z</time></trkpt><trkpt lat="41.492897401739164" lon="0.45926992936614836"><ele>105.0</ele><time>2026-05-04T13:17:35Z</time></trkpt><trkpt lat="41.49297430248845" lon="0.45931704247666005"><ele>105.0</ele><time>2026-05-04T13:17:36Z</time></trkpt><trkpt lat="41.49304933841824" lon="0.4593611507263831"><ele>105.16666666666667</ele><time>2026-05-04T13:17:37Z</time></trkpt><trkpt lat="41.49311865677871" lon="0.4594048715948117"><ele>105.33333333333334</ele><time>2026-05-04T13:17:38.001Z</time></trkpt><trkpt lat="41.49318039994621" lon="0.45945571314005823"><ele>105.5</ele><time>2026-05-04T13:17:39.001Z</time></trkpt><trkpt lat="41.49324078449484" lon="0.4594988011347549"><ele>105.66666666666667</ele><time>2026-05-04T13:17:40.001Z</time></trkpt><trkpt lat="41.49335689198969" lon="0.4595669631800961"><ele>105.83333333333334</ele><time>2026-05-04T13:17:42.001Z</time></trkpt><trkpt lat="41.493418225508286" lon="0.4595974121121927"><ele>106.0</ele><time>2026-05-04T13:17:43.001Z</time></trkpt><trkpt lat="41.493484110656944" lon="0.4596363269084049"><ele>106.00000000000001</ele><time>2026-05-04T13:17:44.001Z</time></trkpt><trkpt lat="41.49354869185996" lon="0.4596740743191317"><ele>106.0</ele><time>2026-05-04T13:17:45.001Z</time></trkpt><trkpt lat="41.49361393471505" lon="0.45971333207000376"><ele>106.0</ele><time>2026-05-04T13:17:46.001Z</time></trkpt><trkpt lat="41.49368388062205" lon="0.459740602869224"><ele>106.0</ele><time>2026-05-04T13:17:47.001Z</time></trkpt><trkpt lat="41.49375703662461" lon="0.4597860927471965"><ele>106.00000000000001</ele><time>2026-05-04T13:17:48.001Z</time></trkpt><trkpt lat="41.49383435349788" lon="0.4598326403229709"><ele>106.0</ele><time>2026-05-04T13:17:49.001Z</time></trkpt><trkpt lat="41.49391041650561" lon="0.4598725230872076"><ele>106.16666666666667</ele><time>2026-05-04T13:17:50.001Z</time></trkpt><trkpt lat="41.493984381425335" lon="0.45992989385843547"><ele>106.33333333333334</ele><time>2026-05-04T13:17:51.001Z</time></trkpt><trkpt lat="41.49406567145869" lon="0.459980886869972"><ele>106.5</ele><time>2026-05-04T13:17:52.001Z</time></trkpt><trkpt lat="41.4941450316493" lon="0.4600306648275253"><ele>106.66666666666666</ele><time>2026-05-04T13:17:53.001Z</time></trkpt><trkpt lat="41.49422947035672" lon="0.4600759425343098"><ele>106.83333333333333</ele><time>2026-05-04T13:17:54.001Z</time></trkpt><trkpt lat="41.49430681517842" lon="0.46012499358722636"><ele>107.0</ele><time>2026-05-04T13:17:55.001Z</time></trkpt><trkpt lat="41.49439008152879" lon="0.46017129971095017"><ele>106.99999999999999</ele><time>2026-05-04T13:17:56.001Z</time></trkpt><trkpt lat="41.494469771971474" lon="0.4602124669776172"><ele>107.0</ele><time>2026-05-04T13:17:57.001Z</time></trkpt><trkpt lat="41.49454764928521" lon="0.46025786180750256"><ele>107.0</ele><time>2026-05-04T13:17:58.001Z</time></trkpt><trkpt lat="41.49462075374232" lon="0.460308545913758"><ele>107.0</ele><time>2026-05-04T13:17:59.001Z</time></trkpt><trkpt lat="41.49469309103945" lon="0.4603710006396345"><ele>106.99999999999999</ele><time>2026-05-04T13:18:00.001Z</time></trkpt><trkpt lat="41.49477108057264" lon="0.4604040359288656"><ele>107.0</ele><time>2026-05-04T13:18:01.001Z</time></trkpt><trkpt lat="41.49484573831236" lon="0.46045360945520736"><ele>106.99999999999999</ele><time>2026-05-04T13:18:02.001Z</time></trkpt><trkpt lat="41.49492656744946" lon="0.46050762335029455"><ele>107.0</ele><time>2026-05-04T13:18:03.001Z</time></trkpt><trkpt lat="41.49500571728591" lon="0.460561837789028"><ele>107.0</ele><time>2026-05-04T13:18:04.001Z</time></trkpt><trkpt lat="41.49508022453832" lon="0.4606148023530648"><ele>107.0</ele><time>2026-05-04T13:18:05.001Z</time></trkpt><trkpt lat="41.49516042853505" lon="0.46066728233529874"><ele>106.99999999999999</ele><time>2026-05-04T13:18:06.001Z</time></trkpt><trkpt lat="41.495236344410905" lon="0.46071925057742685"><ele>107.0</ele><time>2026-05-04T13:18:07.001Z</time></trkpt><trkpt lat="41.49531226679342" lon="0.460773085060177"><ele>106.99999999999999</ele><time>2026-05-04T13:18:08.001Z</time></trkpt><trkpt lat="41.49538023508395" lon="0.4608129964996238"><ele>107.0</ele><time>2026-05-04T13:18:09.001Z</time></trkpt><trkpt lat="41.495453567938114" lon="0.46085482897748203"><ele>107.0</ele><time>2026-05-04T13:18:10.001Z</time></trkpt><trkpt lat="41.49552438236097" lon="0.46089681821201706"><ele>107.0</ele><time>2026-05-04T13:18:11.001Z</time></trkpt><trkpt lat="41.495596682856586" lon="0.4609416057168245"><ele>106.99999999999999</ele><time>2026-05-04T13:18:12.001Z</time></trkpt><trkpt lat="41.49567754440874" lon="0.46097878361983663"><ele>107.0</ele><time>2026-05-04T13:18:13.001Z</time></trkpt><trkpt lat="41.49575092766387" lon="0.46102461894405744"><ele>106.99999999999999</ele><time>2026-05-04T13:18:14.001Z</time></trkpt><trkpt lat="41.495827322387576" lon="0.46106989771060614"><ele>107.0</ele><time>2026-05-04T13:18:15.001Z</time></trkpt><trkpt lat="41.49590567198225" lon="0.4611140672585461"><ele>107.0</ele><time>2026-05-04T13:18:16.001Z</time></trkpt><trkpt lat="41.495984678892384" lon="0.4611657747498654"><ele>107.0</ele><time>2026-05-04T13:18:17.001Z</time></trkpt><trkpt lat="41.49606452462268" lon="0.4612238985431875"><ele>106.99999999999999</ele><time>2026-05-04T13:18:18.001Z</time></trkpt><trkpt lat="41.496144255941836" lon="0.46127202706597453"><ele>107.0</ele><time>2026-05-04T13:18:19.001Z</time></trkpt><trkpt lat="41.49622771415381" lon="0.46131993543801375"><ele>107.6</ele><time>2026-05-04T13:18:20.001Z</time></trkpt><trkpt lat="41.496312659454034" lon="0.46136818775848"><ele>108.19999999999999</ele><time>2026-05-04T13:18:21.001Z</time></trkpt><trkpt lat="41.4963989074176" lon="0.46141815661295255"><ele>108.8</ele><time>2026-05-04T13:18:22.001Z</time></trkpt><trkpt lat="41.49648507629926" lon="0.4614755994954476"><ele>109.4</ele><time>2026-05-04T13:18:23.001Z</time></trkpt><trkpt lat="41.49656953676159" lon="0.4615318192891708"><ele>110.0</ele><time>2026-05-04T13:18:24.001Z</time></trkpt><trkpt lat="41.49665940189666" lon="0.46158032496134155"><ele>110.0</ele><time>2026-05-04T13:18:25.001Z</time></trkpt><trkpt lat="41.49674663730951" lon="0.4616351898348418"><ele>110.0</ele><time>2026-05-04T13:18:26.001Z</time></trkpt><trkpt lat="41.49683497104494" lon="0.46169108987744983"><ele>110.0</ele><time>2026-05-04T13:18:27.001Z</time></trkpt><trkpt lat="41.496927452428984" lon="0.46174277775834316"><ele>110.0</ele><time>2026-05-04T13:18:28.001Z</time></trkpt><trkpt lat="41.497021575967835" lon="0.4617945815565988"><ele>110.0</ele><time>2026-05-04T13:18:29.001Z</time></trkpt><trkpt lat="41.497111185045554" lon="0.46184857198576773"><ele>110.4</ele><time>2026-05-04T13:18:30.001Z</time></trkpt><trkpt lat="41.497202499586066" lon="0.46191229662944355"><ele>110.8</ele><time>2026-05-04T13:18:31.002Z</time></trkpt><trkpt lat="41.49729310108332" lon="0.46197358562074525"><ele>111.19999999999999</ele><time>2026-05-04T13:18:32.002Z</time></trkpt><trkpt lat="41.49738051119217" lon="0.4620327248125933"><ele>111.6</ele><time>2026-05-04T13:18:33.002Z</time></trkpt><trkpt lat="41.49747337489373" lon="0.4620881968300545"><ele>112.0</ele><time>2026-05-04T13:18:34.002Z</time></trkpt><trkpt lat="41.49756291245989" lon="0.46214192485832545"><ele>112.39999999999999</ele><time>2026-05-04T13:18:35.002Z</time></trkpt><trkpt lat="41.49765231530884" lon="0.4621985307584063"><ele>112.79999999999998</ele><time>2026-05-04T13:18:36.002Z</time></trkpt><trkpt lat="41.49774151279255" lon="0.46225573295904043"><ele>113.2</ele><time>2026-05-04T13:18:37.002Z</time></trkpt><trkpt lat="41.49782631502813" lon="0.46232384670985854"><ele>113.6</ele><time>2026-05-04T13:18:38.002Z</time></trkpt><trkpt lat="41.49790412489062" lon="0.462402118117384"><ele>114.0</ele><time>2026-05-04T13:18:39.002Z</time></trkpt><trkpt lat="41.49796846828853" lon="0.4624933188773523"><ele>114.0</ele><time>2026-05-04T13:18:40.002Z</time></trkpt><trkpt lat="41.498025467432" lon="0.46258750150501177"><ele>114.0</ele><time>2026-05-04T13:18:41.002Z</time></trkpt><trkpt lat="41.49807565629026" lon="0.46269237399083113"><ele>114.0</ele><time>2026-05-04T13:18:42.002Z</time></trkpt><trkpt lat="41.498118457477524" lon="0.46280333902943893"><ele>114.0</ele><time>2026-05-04T13:18:43.002Z</time></trkpt><trkpt lat="41.49815472833816" lon="0.46291800037660974"><ele>114.0</ele><time>2026-05-04T13:18:44.002Z</time></trkpt><trkpt lat="41.498189239174735" lon="0.4630326725919865"><ele>114.0</ele><time>2026-05-04T13:18:45.002Z</time></trkpt><trkpt lat="41.498226282065914" lon="0.4631499057903008"><ele>114.0</ele><time>2026-05-04T13:18:46.002Z</time></trkpt><trkpt lat="41.49826391817158" lon="0.46326620793146156"><ele>114.0</ele><time>2026-05-04T13:18:47.002Z</time></trkpt><trkpt lat="41.498273525297286" lon="0.4633955962418439"><ele>114.0</ele><time>2026-05-04T13:18:48.002Z</time></trkpt><trkpt lat="41.49827110470409" lon="0.4635257768701371"><ele>114.0</ele><time>2026-05-04T13:18:49.002Z</time></trkpt><trkpt lat="41.49831075098685" lon="0.46365541312487524"><ele>114.0</ele><time>2026-05-04T13:18:50.002Z</time></trkpt><trkpt lat="41.49838241805671" lon="0.46374814271169146"><ele>114.0</ele><time>2026-05-04T13:18:51.002Z</time></trkpt><trkpt lat="41.498449427891195" lon="0.4638399924552941"><ele>114.0</ele><time>2026-05-04T13:18:52.002Z</time></trkpt><trkpt lat="41.49852062026827" lon="0.4640876501112809"><ele>114.0</ele><time>2026-05-04T13:18:54.002Z</time></trkpt><trkpt lat="41.49855877587109" lon="0.4642078189396982"><ele>113.6</ele><time>2026-05-04T13:18:55.002Z</time></trkpt><trkpt lat="41.4985943826338" lon="0.46433052658523455"><ele>113.2</ele><time>2026-05-04T13:18:56.002Z</time></trkpt><trkpt lat="41.49862903996412" lon="0.4644538715307487"><ele>112.79999999999998</ele><time>2026-05-04T13:18:57.002Z</time></trkpt><trkpt lat="41.49866672870791" lon="0.46457736268122574"><ele>112.39999999999999</ele><time>2026-05-04T13:18:58.002Z</time></trkpt><trkpt lat="41.49870595954841" lon="0.46469989509575665"><ele>112.0</ele><time>2026-05-04T13:18:59.002Z</time></trkpt><trkpt lat="41.498742697830394" lon="0.46482334413517346"><ele>112.8</ele><time>2026-05-04T13:19:00.002Z</time></trkpt><trkpt lat="41.49878340952461" lon="0.4649434055189952"><ele>113.6</ele><time>2026-05-04T13:19:01.002Z</time></trkpt><trkpt lat="41.49882410341692" lon="0.46506393516575134"><ele>114.39999999999999</ele><time>2026-05-04T13:19:02.002Z</time></trkpt><trkpt lat="41.49886245957774" lon="0.4651858174718535"><ele>115.19999999999999</ele><time>2026-05-04T13:19:03.002Z</time></trkpt><trkpt lat="41.49890353714549" lon="0.4653071293695891"><ele>116.0</ele><time>2026-05-04T13:19:04.002Z</time></trkpt><trkpt lat="41.498947646819396" lon="0.4654283102424858"><ele>115.8</ele><time>2026-05-04T13:19:05.002Z</time></trkpt><trkpt lat="41.498989718505776" lon="0.4655537056957941"><ele>115.6</ele><time>2026-05-04T13:19:06.002Z</time></trkpt><trkpt lat="41.49903095564199" lon="0.46567817508030734"><ele>115.4</ele><time>2026-05-04T13:19:07Z</time></trkpt><trkpt lat="41.499078418617835" lon="0.46580031891490375"><ele>115.2</ele><time>2026-05-04T13:19:08Z</time></trkpt><trkpt lat="41.499124307488174" lon="0.46592493572952254"><ele>115.0</ele><time>2026-05-04T13:19:09Z</time></trkpt><trkpt lat="41.49917258765541" lon="0.4660487075348068"><ele>115.0</ele><time>2026-05-04T13:19:10Z</time></trkpt><trkpt lat="41.49922081905628" lon="0.4661724842484115"><ele>115.0</ele><time>2026-05-04T13:19:11Z</time></trkpt><trkpt lat="41.49927262359947" lon="0.4662948065529182"><ele>115.0</ele><time>2026-05-04T13:19:12Z</time></trkpt><trkpt lat="41.499326065884105" lon="0.46641466413237914"><ele>115.0</ele><time>2026-05-04T13:19:13Z</time></trkpt><trkpt lat="41.49938015203356" lon="0.46653271619283915"><ele>115.0</ele><time>2026-05-04T13:19:14Z</time></trkpt><trkpt lat="41.49943562734578" lon="0.46665262286357306"><ele>115.4</ele><time>2026-05-04T13:19:15Z</time></trkpt><trkpt lat="41.49949246332075" lon="0.4667710287583309"><ele>115.8</ele><time>2026-05-04T13:19:16Z</time></trkpt><trkpt lat="41.49954998024914" lon="0.46689007303572"><ele>116.19999999999999</ele><time>2026-05-04T13:19:17Z</time></trkpt><trkpt lat="41.4996088152536" lon="0.4670084362395472"><ele>116.6</ele><time>2026-05-04T13:19:18Z</time></trkpt><trkpt lat="41.49966958291695" lon="0.467123163172745"><ele>117.0</ele><time>2026-05-04T13:19:19Z</time></trkpt><trkpt lat="41.499731188710896" lon="0.467238677979442"><ele>117.0</ele><time>2026-05-04T13:19:20Z</time></trkpt><trkpt lat="41.499791319747274" lon="0.46735555902774684"><ele>116.99999999999999</ele><time>2026-05-04T13:19:21Z</time></trkpt><trkpt lat="41.49985279104575" lon="0.4674720456055467"><ele>116.99999999999999</ele><time>2026-05-04T13:19:22Z</time></trkpt><trkpt lat="41.49991599333676" lon="0.4675885177411074"><ele>117.0</ele><time>2026-05-04T13:19:23Z</time></trkpt><trkpt lat="41.499978905535414" lon="0.46770529493704277"><ele>117.0</ele><time>2026-05-04T13:19:24Z</time></trkpt><trkpt lat="41.50004143089651" lon="0.46782296880818286"><ele>117.0</ele><time>2026-05-04T13:19:25Z</time></trkpt><trkpt lat="41.50010453550067" lon="0.4679418826465846"><ele>116.99999999999999</ele><time>2026-05-04T13:19:26Z</time></trkpt><trkpt lat="41.500168145752646" lon="0.46805936988627855"><ele>116.99999999999999</ele><time>2026-05-04T13:19:27Z</time></trkpt><trkpt lat="41.50023018434854" lon="0.4681783825011178"><ele>117.0</ele><time>2026-05-04T13:19:28Z</time></trkpt><trkpt lat="41.50029238201979" lon="0.46829786870592605"><ele>117.0</ele><time>2026-05-04T13:19:29Z</time></trkpt><trkpt lat="41.50035514107144" lon="0.46841628177286326"><ele>116.39999999999999</ele><time>2026-05-04T13:19:30Z</time></trkpt><trkpt lat="41.50041812957779" lon="0.4685348390959764"><ele>115.79999999999998</ele><time>2026-05-04T13:19:31Z</time></trkpt><trkpt lat="41.50048123426689" lon="0.46865313778469"><ele>115.2</ele><time>2026-05-04T13:19:32Z</time></trkpt><trkpt lat="41.50054269000338" lon="0.46877363121581334"><ele>114.6</ele><time>2026-05-04T13:19:33Z</time></trkpt><trkpt lat="41.500598915159784" lon="0.4688987767006643"><ele>114.0</ele><time>2026-05-04T13:19:34Z</time></trkpt><trkpt lat="41.50065141520176" lon="0.4690252675903588"><ele>114.0</ele><time>2026-05-04T13:19:35Z</time></trkpt><trkpt lat="41.50070178502802" lon="0.4691527388037359"><ele>114.0</ele><time>2026-05-04T13:19:36Z</time></trkpt><trkpt lat="41.50074990777976" lon="0.46928207965772456"><ele>114.0</ele><time>2026-05-04T13:19:37Z</time></trkpt><trkpt lat="41.50079487353811" lon="0.46941347408584433"><ele>114.0</ele><time>2026-05-04T13:19:38Z</time></trkpt><trkpt lat="41.50083881639887" lon="0.4695433753397188"><ele>114.0</ele><time>2026-05-04T13:19:39Z</time></trkpt><trkpt lat="41.50088048581105" lon="0.46967656123466023"><ele>113.4</ele><time>2026-05-04T13:19:40Z</time></trkpt><trkpt lat="41.50091999929369" lon="0.46980893614083785"><ele>112.80000000000001</ele><time>2026-05-04T13:19:41Z</time></trkpt><trkpt lat="41.50096187045952" lon="0.4699402303443567"><ele>112.19999999999999</ele><time>2026-05-04T13:19:42Z</time></trkpt><trkpt lat="41.50100488950489" lon="0.47007246951303183"><ele>111.6</ele><time>2026-05-04T13:19:43Z</time></trkpt><trkpt lat="41.50104797885191" lon="0.47020491404501435"><ele>111.0</ele><time>2026-05-04T13:19:44Z</time></trkpt><trkpt lat="41.50109433837996" lon="0.4703360771425568"><ele>110.19999999999999</ele><time>2026-05-04T13:19:45Z</time></trkpt><trkpt lat="41.50114837669474" lon="0.4704616368037278"><ele>109.39999999999999</ele><time>2026-05-04T13:19:46Z</time></trkpt><trkpt lat="41.50120666298264" lon="0.4705832831743449"><ele>108.6</ele><time>2026-05-04T13:19:47.001Z</time></trkpt><trkpt lat="41.50126835158317" lon="0.47069987460935586"><ele>107.8</ele><time>2026-05-04T13:19:48.001Z</time></trkpt><trkpt lat="41.501337385037594" lon="0.47080774014113025"><ele>107.0</ele><time>2026-05-04T13:19:49.001Z</time></trkpt><trkpt lat="41.501410751342476" lon="0.4709121895512939"><ele>107.6</ele><time>2026-05-04T13:19:50.001Z</time></trkpt><trkpt lat="41.501487277553544" lon="0.47101149804307946"><ele>108.19999999999999</ele><time>2026-05-04T13:19:51.001Z</time></trkpt><trkpt lat="41.501568244014365" lon="0.471104176614218"><ele>108.8</ele><time>2026-05-04T13:19:52.001Z</time></trkpt><trkpt lat="41.50165358622517" lon="0.4711922851999235"><ele>109.4</ele><time>2026-05-04T13:19:53.001Z</time></trkpt><trkpt lat="41.5017405723794" lon="0.4712735614015597"><ele>110.0</ele><time>2026-05-04T13:19:54.001Z</time></trkpt><trkpt lat="41.501833344669116" lon="0.47134850262009836"><ele>110.0</ele><time>2026-05-04T13:19:55.001Z</time></trkpt><trkpt lat="41.50192925779937" lon="0.4714174891120107"><ele>110.0</ele><time>2026-05-04T13:19:56.001Z</time></trkpt><trkpt lat="41.50202818495756" lon="0.4714765273698657"><ele>110.0</ele><time>2026-05-04T13:19:57.001Z</time></trkpt><trkpt lat="41.50213032160566" lon="0.4715276392280996"><ele>110.0</ele><time>2026-05-04T13:19:58.001Z</time></trkpt><trkpt lat="41.50223418945858" lon="0.4715706740813485"><ele>110.0</ele><time>2026-05-04T13:19:59.001Z</time></trkpt><trkpt lat="41.50233926706942" lon="0.4716019337986439"><ele>110.4</ele><time>2026-05-04T13:20:00.001Z</time></trkpt><trkpt lat="41.50244748824304" lon="0.47162739253851754"><ele>110.8</ele><time>2026-05-04T13:20:01.001Z</time></trkpt><trkpt lat="41.502554944454765" lon="0.4716475879096182"><ele>111.19999999999999</ele><time>2026-05-04T13:20:02.001Z</time></trkpt><trkpt lat="41.502663455784806" lon="0.47166924018964224"><ele>111.6</ele><time>2026-05-04T13:20:03.001Z</time></trkpt><trkpt lat="41.50277132197275" lon="0.47169018925608447"><ele>112.0</ele><time>2026-05-04T13:20:04.001Z</time></trkpt><trkpt lat="41.502879729571866" lon="0.47171149124639117"><ele>111.19999999999999</ele><time>2026-05-04T13:20:05.001Z</time></trkpt><trkpt lat="41.502985856336416" lon="0.47173181376883244"><ele>110.39999999999999</ele><time>2026-05-04T13:20:06.001Z</time></trkpt><trkpt lat="41.50309187041967" lon="0.4717515367334343"><ele>109.60000000000001</ele><time>2026-05-04T13:20:07.001Z</time></trkpt><trkpt lat="41.503196336777755" lon="0.4717720654096784"><ele>108.80000000000001</ele><time>2026-05-04T13:20:08.001Z</time></trkpt><trkpt lat="41.503301792812614" lon="0.4717910175178911"><ele>108.0</ele><time>2026-05-04T13:20:09.001Z</time></trkpt><trkpt lat="41.50340602181513" lon="0.4718091439701919"><ele>108.0</ele><time>2026-05-04T13:20:10.001Z</time></trkpt><trkpt lat="41.50351130805458" lon="0.4718291715718698"><ele>108.00000000000001</ele><time>2026-05-04T13:20:11.001Z</time></trkpt><trkpt lat="41.503616601051384" lon="0.4718498895000707"><ele>108.00000000000001</ele><time>2026-05-04T13:20:12.001Z</time></trkpt><trkpt lat="41.503722473954056" lon="0.4718754427551667"><ele>108.0</ele><time>2026-05-04T13:20:13.001Z</time></trkpt><trkpt lat="41.50382774533376" lon="0.4719087851991453"><ele>108.0</ele><time>2026-05-04T13:20:14.001Z</time></trkpt><trkpt lat="41.50393130683415" lon="0.4719474054708192"><ele>108.0</ele><time>2026-05-04T13:20:15.001Z</time></trkpt><trkpt lat="41.50403509946966" lon="0.4719888446975844"><ele>108.00000000000001</ele><time>2026-05-04T13:20:16.001Z</time></trkpt><trkpt lat="41.504137270321145" lon="0.47203375053143987"><ele>108.00000000000001</ele><time>2026-05-04T13:20:17.001Z</time></trkpt><trkpt lat="41.50423793273066" lon="0.47208576274159175"><ele>108.0</ele><time>2026-05-04T13:20:18.001Z</time></trkpt><trkpt lat="41.50433494987534" lon="0.4721424891945772"><ele>108.0</ele><time>2026-05-04T13:20:19.001Z</time></trkpt><trkpt lat="41.50443084743935" lon="0.4722051433887312"><ele>108.0</ele><time>2026-05-04T13:20:20.001Z</time></trkpt><trkpt lat="41.50452655993335" lon="0.4722738310167071"><ele>108.00000000000001</ele><time>2026-05-04T13:20:21.001Z</time></trkpt><trkpt lat="41.50461942186317" lon="0.4723469205398888"><ele>108.00000000000001</ele><time>2026-05-04T13:20:22.001Z</time></trkpt><trkpt lat="41.504710848112694" lon="0.4724249388101468"><ele>108.0</ele><time>2026-05-04T13:20:23.001Z</time></trkpt><trkpt lat="41.5047999258005" lon="0.47250854952398175"><ele>108.0</ele><time>2026-05-04T13:20:24.001Z</time></trkpt><trkpt lat="41.50488582081537" lon="0.47259769690482617"><ele>108.2</ele><time>2026-05-04T13:20:25.001Z</time></trkpt><trkpt lat="41.504968485560156" lon="0.472689016476158"><ele>108.4</ele><time>2026-05-04T13:20:26.001Z</time></trkpt><trkpt lat="41.50504948817113" lon="0.472785053768619"><ele>108.60000000000001</ele><time>2026-05-04T13:20:27.001Z</time></trkpt><trkpt lat="41.505127004952755" lon="0.47288298970282855"><ele>108.80000000000001</ele><time>2026-05-04T13:20:28.001Z</time></trkpt><trkpt lat="41.50520037890197" lon="0.4729832805212704"><ele>109.0</ele><time>2026-05-04T13:20:29.001Z</time></trkpt><trkpt lat="41.505272176196506" lon="0.4730843907906469"><ele>109.0</ele><time>2026-05-04T13:20:30.001Z</time></trkpt><trkpt lat="41.50534401225655" lon="0.47318886033232643"><ele>109.0</ele><time>2026-05-04T13:20:31.001Z</time></trkpt><trkpt lat="41.505414372173846" lon="0.4732942282287806"><ele>109.0</ele><time>2026-05-04T13:20:32.001Z</time></trkpt><trkpt lat="41.50548281452184" lon="0.47339989769848934"><ele>109.0</ele><time>2026-05-04T13:20:33.001Z</time></trkpt><trkpt lat="41.50555380847812" lon="0.47350591105818185"><ele>109.0</ele><time>2026-05-04T13:20:34.001Z</time></trkpt><trkpt lat="41.5056253306801" lon="0.47361627572868786"><ele>109.4</ele><time>2026-05-04T13:20:35.001Z</time></trkpt><trkpt lat="41.50569451602526" lon="0.4737268614337654"><ele>109.80000000000001</ele><time>2026-05-04T13:20:36.001Z</time></trkpt><trkpt lat="41.50576389468899" lon="0.47383704087865147"><ele>110.19999999999999</ele><time>2026-05-04T13:20:37.001Z</time></trkpt><trkpt lat="41.50583575001891" lon="0.4739440076590072"><ele>110.6</ele><time>2026-05-04T13:20:38.001Z</time></trkpt><trkpt lat="41.50590820809141" lon="0.47405054393645213"><ele>111.0</ele><time>2026-05-04T13:20:39.001Z</time></trkpt><trkpt lat="41.50598030519767" lon="0.47415709933471645"><ele>111.0</ele><time>2026-05-04T13:20:40.002Z</time></trkpt><trkpt lat="41.506054617355886" lon="0.47425787362977156"><ele>111.0</ele><time>2026-05-04T13:20:41.002Z</time></trkpt><trkpt lat="41.506135863764634" lon="0.47435577610472274"><ele>111.0</ele><time>2026-05-04T13:20:42.002Z</time></trkpt><trkpt lat="41.50621698490755" lon="0.4744443429839945"><ele>111.0</ele><time>2026-05-04T13:20:43.002Z</time></trkpt><trkpt lat="41.50630355225451" lon="0.474526637226968"><ele>111.0</ele><time>2026-05-04T13:20:44.002Z</time></trkpt><trkpt lat="41.50639141790674" lon="0.47460520292729247"><ele>110.8</ele><time>2026-05-04T13:20:45.002Z</time></trkpt><trkpt lat="41.50648364524872" lon="0.47467841938756944"><ele>110.6</ele><time>2026-05-04T13:20:46.002Z</time></trkpt><trkpt lat="41.50657947397255" lon="0.4747427525472765"><ele>110.4</ele><time>2026-05-04T13:20:47.002Z</time></trkpt><trkpt lat="41.50667933869733" lon="0.47480077687857253"><ele>110.2</ele><time>2026-05-04T13:20:48.002Z</time></trkpt><trkpt lat="41.50678095794003" lon="0.4748518679879931"><ele>110.0</ele><time>2026-05-04T13:20:49.002Z</time></trkpt><trkpt lat="41.506884487067474" lon="0.4748922741041168"><ele>110.0</ele><time>2026-05-04T13:20:50.002Z</time></trkpt><trkpt lat="41.506989389450546" lon="0.4749221225052352"><ele>110.0</ele><time>2026-05-04T13:20:51.002Z</time></trkpt><trkpt lat="41.50709690407287" lon="0.4749462630297844"><ele>110.0</ele><time>2026-05-04T13:20:52.002Z</time></trkpt><trkpt lat="41.50720444516892" lon="0.47496262480680507"><ele>110.0</ele><time>2026-05-04T13:20:53.002Z</time></trkpt><trkpt lat="41.5073130509423" lon="0.4749667673849403"><ele>110.0</ele><time>2026-05-04T13:20:54.002Z</time></trkpt><trkpt lat="41.5074217043393" lon="0.4749699556442066"><ele>110.6</ele><time>2026-05-04T13:20:55.002Z</time></trkpt><trkpt lat="41.50753165862821" lon="0.47497015933292414"><ele>111.2</ele><time>2026-05-04T13:20:56.002Z</time></trkpt><trkpt lat="41.50763974805357" lon="0.4749659458329723"><ele>111.80000000000001</ele><time>2026-05-04T13:20:57.002Z</time></trkpt><trkpt lat="41.50774973302449" lon="0.47497512518445917"><ele>112.4</ele><time>2026-05-04T13:20:58.002Z</time></trkpt><trkpt lat="41.507854546913485" lon="0.4749742469313857"><ele>113.0</ele><time>2026-05-04T13:20:59.002Z</time></trkpt><trkpt lat="41.50796041328093" lon="0.4749795359087084"><ele>113.60000000000001</ele><time>2026-05-04T13:21:00.002Z</time></trkpt><trkpt lat="41.50806802191959" lon="0.47499448047855597"><ele>114.20000000000002</ele><time>2026-05-04T13:21:01.002Z</time></trkpt><trkpt lat="41.50817271223197" lon="0.47501372104109224"><ele>114.8</ele><time>2026-05-04T13:21:02.002Z</time></trkpt><trkpt lat="41.5082796086437" lon="0.4750451384486773"><ele>115.4</ele><time>2026-05-04T13:21:03.002Z</time></trkpt><trkpt lat="41.50838142820851" lon="0.4750780761234749"><ele>116.0</ele><time>2026-05-04T13:21:04.002Z</time></trkpt><trkpt lat="41.50848442747125" lon="0.4751127067697018"><ele>116.0</ele><time>2026-05-04T13:21:05.002Z</time></trkpt><trkpt lat="41.50858541558053" lon="0.47515257133834915"><ele>116.0</ele><time>2026-05-04T13:21:06.002Z</time></trkpt><trkpt lat="41.508686454214164" lon="0.47519903501085686"><ele>116.0</ele><time>2026-05-04T13:21:07.002Z</time></trkpt><trkpt lat="41.50878912793795" lon="0.47524783444806534"><ele>116.0</ele><time>2026-05-04T13:21:08.002Z</time></trkpt><trkpt lat="41.50889023686321" lon="0.475303736976385"><ele>116.0</ele><time>2026-05-04T13:21:09.002Z</time></trkpt><trkpt lat="41.50898825089972" lon="0.4753692524008734"><ele>114.19999999999999</ele><time>2026-05-04T13:21:10.002Z</time></trkpt><trkpt lat="41.50908383581234" lon="0.4754399871565842"><ele>112.39999999999999</ele><time>2026-05-04T13:21:11.002Z</time></trkpt><trkpt lat="41.50917923047946" lon="0.4755092122470723"><ele>110.6</ele><time>2026-05-04T13:21:12.002Z</time></trkpt><trkpt lat="41.50927412263463" lon="0.47557626980735074"><ele>108.8</ele><time>2026-05-04T13:21:13Z</time></trkpt><trkpt lat="41.509373376509586" lon="0.4756435218616867"><ele>107.0</ele><time>2026-05-04T13:21:14Z</time></trkpt><trkpt lat="41.50946705705007" lon="0.47571382612718943"><ele>107.0</ele><time>2026-05-04T13:21:15Z</time></trkpt><trkpt lat="41.50956554708817" lon="0.47578698202479924"><ele>106.99999999999999</ele><time>2026-05-04T13:21:16Z</time></trkpt><trkpt lat="41.50966172452487" lon="0.4758539229921008"><ele>106.99999999999999</ele><time>2026-05-04T13:21:17Z</time></trkpt><trkpt lat="41.50975653556612" lon="0.4759238980294759"><ele>107.0</ele><time>2026-05-04T13:21:18Z</time></trkpt><trkpt lat="41.509848927539196" lon="0.4759974335247493"><ele>107.0</ele><time>2026-05-04T13:21:19Z</time></trkpt><trkpt lat="41.50994385971192" lon="0.4760686828738245"><ele>106.8</ele><time>2026-05-04T13:21:20Z</time></trkpt><trkpt lat="41.51003871250376" lon="0.4761381432639569"><ele>106.6</ele><time>2026-05-04T13:21:21Z</time></trkpt><trkpt lat="41.51013327891133" lon="0.4762050522835347"><ele>106.39999999999999</ele><time>2026-05-04T13:21:22Z</time></trkpt><trkpt lat="41.51022670827335" lon="0.47627322848679887"><ele>106.19999999999999</ele><time>2026-05-04T13:21:23Z</time></trkpt><trkpt lat="41.51032181277297" lon="0.4763409631875164"><ele>106.0</ele><time>2026-05-04T13:21:24Z</time></trkpt><trkpt lat="41.51041683321417" lon="0.47640845290242734"><ele>107.4</ele><time>2026-05-04T13:21:25Z</time></trkpt><trkpt lat="41.510512118195315" lon="0.4764720972833831"><ele>108.8</ele><time>2026-05-04T13:21:26Z</time></trkpt><trkpt lat="41.510603804183845" lon="0.47654348510595235"><ele>110.20000000000002</ele><time>2026-05-04T13:21:27Z</time></trkpt><trkpt lat="41.51069597851578" lon="0.47660865254817525"><ele>111.60000000000001</ele><time>2026-05-04T13:21:28Z</time></trkpt><trkpt lat="41.51078998183875" lon="0.4766691548390256"><ele>113.0</ele><time>2026-05-04T13:21:29Z</time></trkpt><trkpt lat="41.510884921231195" lon="0.47672466855533424"><ele>113.0</ele><time>2026-05-04T13:21:30Z</time></trkpt><trkpt lat="41.51098156510624" lon="0.4767756495961425"><ele>113.00000000000001</ele><time>2026-05-04T13:21:31Z</time></trkpt><trkpt lat="41.51108046629719" lon="0.4768206708261674"><ele>113.00000000000001</ele><time>2026-05-04T13:21:32Z</time></trkpt><trkpt lat="41.51117929225101" lon="0.4768619042515149"><ele>113.0</ele><time>2026-05-04T13:21:33Z</time></trkpt><trkpt lat="41.51128000834376" lon="0.4769031018865136"><ele>113.0</ele><time>2026-05-04T13:21:34Z</time></trkpt><trkpt lat="41.5113824901445" lon="0.4769454940942389"><ele>112.2</ele><time>2026-05-04T13:21:35Z</time></trkpt><trkpt lat="41.51148681476862" lon="0.476983924403284"><ele>111.4</ele><time>2026-05-04T13:21:36Z</time></trkpt><trkpt lat="41.511590122868355" lon="0.47702275164071195"><ele>110.60000000000001</ele><time>2026-05-04T13:21:37Z</time></trkpt><trkpt lat="41.5116932336374" lon="0.47706303340988754"><ele>109.80000000000001</ele><time>2026-05-04T13:21:38Z</time></trkpt><trkpt lat="41.5117950985719" lon="0.47709876815463165"><ele>109.0</ele><time>2026-05-04T13:21:39Z</time></trkpt><trkpt lat="41.511899324892376" lon="0.477136107892852"><ele>109.0</ele><time>2026-05-04T13:21:40Z</time></trkpt><trkpt lat="41.512001362281715" lon="0.47717615153195725"><ele>109.0</ele><time>2026-05-04T13:21:41Z</time></trkpt><trkpt lat="41.512104500844956" lon="0.47721594788320976"><ele>109.0</ele><time>2026-05-04T13:21:42Z</time></trkpt><trkpt lat="41.51220858783171" lon="0.4772620770510584"><ele>109.0</ele><time>2026-05-04T13:21:43Z</time></trkpt><trkpt lat="41.512312484808476" lon="0.4773020426693153"><ele>109.0</ele><time>2026-05-04T13:21:44Z</time></trkpt><trkpt lat="41.512415282403914" lon="0.4773423796050569"><ele>109.6</ele><time>2026-05-04T13:21:45Z</time></trkpt><trkpt lat="41.51251746825439" lon="0.47738028687733547"><ele>110.2</ele><time>2026-05-04T13:21:46Z</time></trkpt><trkpt lat="41.512618106875784" lon="0.4774167921576966"><ele>110.79999999999998</ele><time>2026-05-04T13:21:47Z</time></trkpt><trkpt lat="41.5127185295084" lon="0.4774540999459689"><ele>111.39999999999999</ele><time>2026-05-04T13:21:48Z</time></trkpt><trkpt lat="41.51282141948171" lon="0.4774964769457857"><ele>112.0</ele><time>2026-05-04T13:21:49Z</time></trkpt><trkpt lat="41.51292406778535" lon="0.4775336823285022"><ele>112.8</ele><time>2026-05-04T13:21:50Z</time></trkpt><trkpt lat="41.513027238445495" lon="0.4775712680296454"><ele>113.6</ele><time>2026-05-04T13:21:51Z</time></trkpt><trkpt lat="41.51313008127275" lon="0.47760708576806304"><ele>114.39999999999999</ele><time>2026-05-04T13:21:52Z</time></trkpt><trkpt lat="41.51323196536666" lon="0.4776420986989441"><ele>115.19999999999999</ele><time>2026-05-04T13:21:53Z</time></trkpt><trkpt lat="41.5133332742326" lon="0.477680943867107"><ele>116.0</ele><time>2026-05-04T13:21:54Z</time></trkpt><trkpt lat="41.51343541978819" lon="0.4777186051548339"><ele>116.0</ele><time>2026-05-04T13:21:55Z</time></trkpt><trkpt lat="41.51353838343561" lon="0.4777561423772598"><ele>116.0</ele><time>2026-05-04T13:21:56Z</time></trkpt><trkpt lat="41.51364139294902" lon="0.4777932224287868"><ele>116.0</ele><time>2026-05-04T13:21:57Z</time></trkpt><trkpt lat="41.51374413714875" lon="0.47782996720875914"><ele>116.0</ele><time>2026-05-04T13:21:58Z</time></trkpt><trkpt lat="41.51384678556077" lon="0.4778675575858061"><ele>116.0</ele><time>2026-05-04T13:21:59Z</time></trkpt><trkpt lat="41.51394898739219" lon="0.47790987749535446"><ele>115.4</ele><time>2026-05-04T13:22:00.001Z</time></trkpt><trkpt lat="41.5140515910064" lon="0.4779506583732881"><ele>114.8</ele><time>2026-05-04T13:22:01.001Z</time></trkpt><trkpt lat="41.51415579240357" lon="0.47799308636739063"><ele>114.20000000000002</ele><time>2026-05-04T13:22:02.001Z</time></trkpt><trkpt lat="41.51426140692858" lon="0.4780297412855138"><ele>113.60000000000001</ele><time>2026-05-04T13:22:03.001Z</time></trkpt><trkpt lat="41.51436526205705" lon="0.47806398142342416"><ele>113.0</ele><time>2026-05-04T13:22:04.001Z</time></trkpt><trkpt lat="41.51446876056932" lon="0.47809428156323996"><ele>113.0</ele><time>2026-05-04T13:22:05.001Z</time></trkpt><trkpt lat="41.51456482091402" lon="0.47812673372803033"><ele>113.00000000000001</ele><time>2026-05-04T13:22:06.001Z</time></trkpt><trkpt lat="41.51467409005116" lon="0.47815366280952076"><ele>113.00000000000001</ele><time>2026-05-04T13:22:07.001Z</time></trkpt><trkpt lat="41.51478674156868" lon="0.47816856880145175"><ele>113.0</ele><time>2026-05-04T13:22:08.001Z</time></trkpt><trkpt lat="41.51490137926504" lon="0.4781815249301357"><ele>113.0</ele><time>2026-05-04T13:22:09.001Z</time></trkpt><trkpt lat="41.51501053046127" lon="0.4781653376048135"><ele>113.5</ele><time>2026-05-04T13:22:10.001Z</time></trkpt><trkpt lat="41.51513500231919" lon="0.4781884210875037"><ele>114.0</ele><time>2026-05-04T13:22:11.001Z</time></trkpt><trkpt lat="41.515280396589716" lon="0.47819683667841656"><ele>114.5</ele><time>2026-05-04T13:22:12.001Z</time></trkpt><trkpt lat="41.515443516293494" lon="0.47820627823534845"><ele>115.0</ele><time>2026-05-04T13:22:13.001Z</time></trkpt><trkpt lat="41.515606073843095" lon="0.478215687257817"><ele>115.0</ele><time>2026-05-04T13:22:14.001Z</time></trkpt><trkpt lat="41.51580811205231" lon="0.4782248150044222"><ele>115.0</ele><time>2026-05-04T13:22:15.001Z</time></trkpt><trkpt lat="41.5157005232178" lon="0.47820324911806655"><ele>115.0</ele><time>2026-05-04T13:22:16.001Z</time></trkpt><trkpt lat="41.515811945132114" lon="0.4782225580145311"><ele>115.0</ele><time>2026-05-04T13:22:17.001Z</time></trkpt><trkpt lat="41.515925409740454" lon="0.47822839332404116"><ele>115.0</ele><time>2026-05-04T13:22:18.001Z</time></trkpt><trkpt lat="41.516033584068836" lon="0.4782305852774263"><ele>115.0</ele><time>2026-05-04T13:22:19.001Z</time></trkpt><trkpt lat="41.516148363934036" lon="0.47822943305522647"><ele>115.0</ele><time>2026-05-04T13:22:20.001Z</time></trkpt><trkpt lat="41.516260921939235" lon="0.4782354983603592"><ele>115.0</ele><time>2026-05-04T13:22:21.001Z</time></trkpt><trkpt lat="41.51637241416956" lon="0.4782556986363571"><ele>115.0</ele><time>2026-05-04T13:22:22.001Z</time></trkpt><trkpt lat="41.51648981606785" lon="0.4782626837503604"><ele>115.6</ele><time>2026-05-04T13:22:23.001Z</time></trkpt><trkpt lat="41.516601062853134" lon="0.4782714145506418"><ele>116.2</ele><time>2026-05-04T13:22:24.001Z</time></trkpt><trkpt lat="41.51670981139228" lon="0.47828847691544635"><ele>116.80000000000001</ele><time>2026-05-04T13:22:25.001Z</time></trkpt><trkpt lat="41.51682015418119" lon="0.47830672498459664"><ele>117.4</ele><time>2026-05-04T13:22:26.001Z</time></trkpt><trkpt lat="41.5169294778419" lon="0.47833771138035375"><ele>118.0</ele><time>2026-05-04T13:22:27.001Z</time></trkpt><trkpt lat="41.51704123764555" lon="0.4783714825493412"><ele>118.25</ele><time>2026-05-04T13:22:28.001Z</time></trkpt><trkpt lat="41.51714966513535" lon="0.4784066879162635"><ele>118.5</ele><time>2026-05-04T13:22:29.001Z</time></trkpt><trkpt lat="41.517259246181936" lon="0.4784535608842795"><ele>118.75</ele><time>2026-05-04T13:22:30.001Z</time></trkpt><trkpt lat="41.51736640142351" lon="0.4785032115191794"><ele>119.0</ele><time>2026-05-04T13:22:31.001Z</time></trkpt><trkpt lat="41.51746868136269" lon="0.4785593245229076"><ele>119.0</ele><time>2026-05-04T13:22:32.001Z</time></trkpt><trkpt lat="41.51756995079834" lon="0.47861848173052873"><ele>119.0</ele><time>2026-05-04T13:22:33.001Z</time></trkpt><trkpt lat="41.517673142597246" lon="0.4786775802531208"><ele>119.0</ele><time>2026-05-04T13:22:34.001Z</time></trkpt><trkpt lat="41.51777314922378" lon="0.4787414207926282"><ele>119.0</ele><time>2026-05-04T13:22:35.001Z</time></trkpt><trkpt lat="41.51787326924721" lon="0.47880610965085296"><ele>119.0</ele><time>2026-05-04T13:22:36.001Z</time></trkpt><trkpt lat="41.517969432564556" lon="0.47887340030469494"><ele>117.80000000000001</ele><time>2026-05-04T13:22:37.001Z</time></trkpt><trkpt lat="41.518072107564706" lon="0.47893463204168873"><ele>116.60000000000001</ele><time>2026-05-04T13:22:38.001Z</time></trkpt><trkpt lat="41.51816814923068" lon="0.4790066361271672"><ele>115.4</ele><time>2026-05-04T13:22:39.001Z</time></trkpt><trkpt lat="41.518267215678556" lon="0.47907264931813437"><ele>114.2</ele><time>2026-05-04T13:22:40.001Z</time></trkpt><trkpt lat="41.51836246676985" lon="0.47913974666060993"><ele>113.0</ele><time>2026-05-04T13:22:41.001Z</time></trkpt><trkpt lat="41.51845917139335" lon="0.47920231095410415"><ele>113.0</ele><time>2026-05-04T13:22:42.001Z</time></trkpt><trkpt lat="41.51855437260483" lon="0.47926786147231"><ele>113.00000000000001</ele><time>2026-05-04T13:22:43.001Z</time></trkpt><trkpt lat="41.51865125115475" lon="0.47933490469526496"><ele>113.00000000000001</ele><time>2026-05-04T13:22:44.001Z</time></trkpt><trkpt lat="41.51874596977549" lon="0.4794056901404681"><ele>113.0</ele><time>2026-05-04T13:22:45.001Z</time></trkpt><trkpt lat="41.518842550058224" lon="0.4794708009920678"><ele>113.0</ele><time>2026-05-04T13:22:46.001Z</time></trkpt><trkpt lat="41.51894098636633" lon="0.47952043312296294"><ele>112.80000000000001</ele><time>2026-05-04T13:22:47.001Z</time></trkpt><trkpt lat="41.519042877696705" lon="0.47956457951237264"><ele>112.60000000000001</ele><time>2026-05-04T13:22:48.001Z</time></trkpt><trkpt lat="41.5191481900894" lon="0.4796091166885893"><ele>112.39999999999999</ele><time>2026-05-04T13:22:49.002Z</time></trkpt><trkpt lat="41.51925255584233" lon="0.47965228525477077"><ele>112.19999999999999</ele><time>2026-05-04T13:22:50.002Z</time></trkpt><trkpt lat="41.51935889216896" lon="0.479690717551041"><ele>112.0</ele><time>2026-05-04T13:22:51.002Z</time></trkpt><trkpt lat="41.51946671419373" lon="0.47973052110697306"><ele>112.8</ele><time>2026-05-04T13:22:52.002Z</time></trkpt><trkpt lat="41.5195701142954" lon="0.4797695313946795"><ele>113.6</ele><time>2026-05-04T13:22:53.002Z</time></trkpt><trkpt lat="41.51968486138382" lon="0.47980640261721774"><ele>114.39999999999999</ele><time>2026-05-04T13:22:54.002Z</time></trkpt><trkpt lat="41.51979410139942" lon="0.4798359864351211"><ele>115.19999999999999</ele><time>2026-05-04T13:22:55.002Z</time></trkpt><trkpt lat="41.519898236791846" lon="0.4798618651834405"><ele>116.0</ele><time>2026-05-04T13:22:56.002Z</time></trkpt><trkpt lat="41.519995150374996" lon="0.4799011456714782"><ele>116.0</ele><time>2026-05-04T13:22:57.002Z</time></trkpt><trkpt lat="41.52007014358807" lon="0.47992703430391453"><ele>116.0</ele><time>2026-05-04T13:22:58.002Z</time></trkpt><trkpt lat="41.52014435073163" lon="0.47995265160396894"><ele>116.0</ele><time>2026-05-04T13:22:59.002Z</time></trkpt><trkpt lat="41.52033791554773" lon="0.48001571925950576"><ele>116.0</ele><time>2026-05-04T13:23:00.002Z</time></trkpt><trkpt lat="41.52046189047826" lon="0.4800931501999681"><ele>116.19999999999999</ele><time>2026-05-04T13:23:01.002Z</time></trkpt><trkpt lat="41.52055412229738" lon="0.4800965697998973"><ele>116.39999999999999</ele><time>2026-05-04T13:23:02.002Z</time></trkpt><trkpt lat="41.52065804916528" lon="0.4801369738630634"><ele>116.6</ele><time>2026-05-04T13:23:03.002Z</time></trkpt><trkpt lat="41.520769777097115" lon="0.4801735332148128"><ele>116.8</ele><time>2026-05-04T13:23:04.002Z</time></trkpt><trkpt lat="41.52086761890198" lon="0.48020631926685103"><ele>117.0</ele><time>2026-05-04T13:23:05.002Z</time></trkpt><trkpt lat="41.52098614149479" lon="0.4802570196784517"><ele>117.0</ele><time>2026-05-04T13:23:06.002Z</time></trkpt><trkpt lat="41.52109568232327" lon="0.48029749696546664"><ele>117.0</ele><time>2026-05-04T13:23:07.002Z</time></trkpt><trkpt lat="41.5211925707647" lon="0.48034247662852264"><ele>117.0</ele><time>2026-05-04T13:23:08.002Z</time></trkpt><trkpt lat="41.52124039336959" lon="0.4803991143812847"><ele>117.0</ele><time>2026-05-04T13:23:09.002Z</time></trkpt><trkpt lat="41.521527157399795" lon="0.48045207418172514"><ele>117.0</ele><time>2026-05-04T13:23:11.002Z</time></trkpt><trkpt lat="41.52163627175024" lon="0.4804805951661273"><ele>116.99999999999999</ele><time>2026-05-04T13:23:12.002Z</time></trkpt><trkpt lat="41.52174210967054" lon="0.4805072807429304"><ele>116.99999999999999</ele><time>2026-05-04T13:23:13.002Z</time></trkpt><trkpt lat="41.521853721635686" lon="0.4805356381255461"><ele>117.0</ele><time>2026-05-04T13:23:14.002Z</time></trkpt><trkpt lat="41.5219649531639" lon="0.48055439138404643"><ele>117.0</ele><time>2026-05-04T13:23:15.002Z</time></trkpt><trkpt lat="41.522076865996866" lon="0.4805796559318398"><ele>117.0</ele><time>2026-05-04T13:23:16.002Z</time></trkpt><trkpt lat="41.52218823584868" lon="0.4806066116209861"><ele>117.0</ele><time>2026-05-04T13:23:17.002Z</time></trkpt><trkpt lat="41.522297301120275" lon="0.48063410120152117"><ele>117.0</ele><time>2026-05-04T13:23:18.002Z</time></trkpt><trkpt lat="41.522406079156994" lon="0.48066324208447603"><ele>117.0</ele><time>2026-05-04T13:23:18.999Z</time></trkpt><trkpt lat="41.52252175170695" lon="0.48069553408184235"><ele>117.0</ele><time>2026-05-04T13:23:19.999Z</time></trkpt><trkpt lat="41.522632873561754" lon="0.4807254439742814"><ele>117.0</ele><time>2026-05-04T13:23:20.999Z</time></trkpt><trkpt lat="41.52274688514428" lon="0.48075359462590517"><ele>117.0</ele><time>2026-05-04T13:23:21.999Z</time></trkpt><trkpt lat="41.52285792882928" lon="0.48078889340038383"><ele>117.0</ele><time>2026-05-04T13:23:22.999Z</time></trkpt><trkpt lat="41.522969538314214" lon="0.4808261660809672"><ele>117.75</ele><time>2026-05-04T13:23:23.999Z</time></trkpt><trkpt lat="41.5230808150832" lon="0.4808663866170315"><ele>118.5</ele><time>2026-05-04T13:23:24.999Z</time></trkpt><trkpt lat="41.5231897034319" lon="0.4809057798708932"><ele>119.25</ele><time>2026-05-04T13:23:25.999Z</time></trkpt><trkpt lat="41.52329950329286" lon="0.4809496507188999"><ele>120.0</ele><time>2026-05-04T13:23:26.999Z</time></trkpt><trkpt lat="41.5234082807209" lon="0.48099564189908756"><ele>120.0</ele><time>2026-05-04T13:23:27.999Z</time></trkpt><trkpt lat="41.52351602198847" lon="0.4810485363038053"><ele>120.0</ele><time>2026-05-04T13:23:28.999Z</time></trkpt><trkpt lat="41.52362106346033" lon="0.4811063666124337"><ele>120.0</ele><time>2026-05-04T13:23:30Z</time></trkpt><trkpt lat="41.523724688602336" lon="0.48116337593372754"><ele>120.0</ele><time>2026-05-04T13:23:31Z</time></trkpt><trkpt lat="41.52383003584137" lon="0.48123031441278247"><ele>119.0</ele><time>2026-05-04T13:23:32Z</time></trkpt><trkpt lat="41.52393163233875" lon="0.4812960103111569"><ele>118.0</ele><time>2026-05-04T13:23:33Z</time></trkpt><trkpt lat="41.524033716992896" lon="0.48136886715899063"><ele>117.0</ele><time>2026-05-04T13:23:34Z</time></trkpt><trkpt lat="41.524134698898905" lon="0.48143935525390996"><ele>116.0</ele><time>2026-05-04T13:23:35Z</time></trkpt><trkpt lat="41.5242351131456" lon="0.4815099709620859"><ele>116.0</ele><time>2026-05-04T13:23:36Z</time></trkpt><trkpt lat="41.5243352212861" lon="0.48158729104817544"><ele>116.0</ele><time>2026-05-04T13:23:37Z</time></trkpt><trkpt lat="41.524432741219954" lon="0.48166799569825364"><ele>116.0</ele><time>2026-05-04T13:23:38Z</time></trkpt><trkpt lat="41.524532736872814" lon="0.4817465687438757"><ele>116.0</ele><time>2026-05-04T13:23:39Z</time></trkpt><trkpt lat="41.52463181599333" lon="0.4818263857551656"><ele>115.5</ele><time>2026-05-04T13:23:40Z</time></trkpt><trkpt lat="41.524729564646485" lon="0.48190647763078587"><ele>115.0</ele><time>2026-05-04T13:23:41Z</time></trkpt><trkpt lat="41.5248236432498" lon="0.48197990215859454"><ele>114.5</ele><time>2026-05-04T13:23:42Z</time></trkpt><trkpt lat="41.524919188842055" lon="0.48206229033906733"><ele>114.0</ele><time>2026-05-04T13:23:43Z</time></trkpt><trkpt lat="41.52501903314864" lon="0.4821494760576221"><ele>114.0</ele><time>2026-05-04T13:23:44Z</time></trkpt><trkpt lat="41.52510676465909" lon="0.48222460570987086"><ele>114.0</ele><time>2026-05-04T13:23:45Z</time></trkpt><trkpt lat="41.52521216673037" lon="0.4822999172398003"><ele>114.0</ele><time>2026-05-04T13:23:46Z</time></trkpt><trkpt lat="41.525293160973455" lon="0.4823695624387103"><ele>114.0</ele><time>2026-05-04T13:23:47Z</time></trkpt><trkpt lat="41.525391997711004" lon="0.48251173605140796"><ele>115.75</ele><time>2026-05-04T13:23:49Z</time></trkpt><trkpt lat="41.52552970649752" lon="0.48257054209206107"><ele>117.5</ele><time>2026-05-04T13:23:50Z</time></trkpt><trkpt lat="41.525680457582375" lon="0.4826076811251879"><ele>119.25</ele><time>2026-05-04T13:23:51Z</time></trkpt><trkpt lat="41.525794349215865" lon="0.48264623912446003"><ele>121.0</ele><time>2026-05-04T13:23:52Z</time></trkpt><trkpt lat="41.525903276876555" lon="0.48267939640091806"><ele>121.0</ele><time>2026-05-04T13:23:53Z</time></trkpt><trkpt lat="41.526017432254044" lon="0.48270183530768174"><ele>121.0</ele><time>2026-05-04T13:23:54Z</time></trkpt><trkpt lat="41.52613551892156" lon="0.4827260456575878"><ele>121.0</ele><time>2026-05-04T13:23:55Z</time></trkpt><trkpt lat="41.52628499584238" lon="0.4827656476216036"><ele>121.0</ele><time>2026-05-04T13:23:56Z</time></trkpt><trkpt lat="41.52644814330771" lon="0.4827874212398147"><ele>121.0</ele><time>2026-05-04T13:23:57Z</time></trkpt><trkpt lat="41.52657090135369" lon="0.48277147924618286"><ele>121.0</ele><time>2026-05-04T13:23:58Z</time></trkpt><trkpt lat="41.52663858772239" lon="0.48271338766068916"><ele>121.0</ele><time>2026-05-04T13:23:59Z</time></trkpt><trkpt lat="41.52671950282901" lon="0.4827083238617705"><ele>121.0</ele><time>2026-05-04T13:24:00Z</time></trkpt><trkpt lat="41.52682391807796" lon="0.48271382931790524"><ele>121.0</ele><time>2026-05-04T13:24:01Z</time></trkpt><trkpt lat="41.52693710144422" lon="0.48274477349028266"><ele>121.0</ele><time>2026-05-04T13:24:02Z</time></trkpt><trkpt lat="41.52705010580917" lon="0.48278085069144383"><ele>121.0</ele><time>2026-05-04T13:24:03Z</time></trkpt><trkpt lat="41.52715917047796" lon="0.4828278688333417"><ele>121.0</ele><time>2026-05-04T13:24:04Z</time></trkpt><trkpt lat="41.527265008342965" lon="0.4828765282852893"><ele>121.0</ele><time>2026-05-04T13:24:05Z</time></trkpt><trkpt lat="41.52736166401678" lon="0.48293316257221214"><ele>121.0</ele><time>2026-05-04T13:24:06Z</time></trkpt><trkpt lat="41.527471021945246" lon="0.4829982568827695"><ele>121.4</ele><time>2026-05-04T13:24:07Z</time></trkpt><trkpt lat="41.527565863781795" lon="0.48308068670697113"><ele>121.8</ele><time>2026-05-04T13:24:08Z</time></trkpt><trkpt lat="41.52766028391916" lon="0.48315736695212796"><ele>122.20000000000002</ele><time>2026-05-04T13:24:09.001Z</time></trkpt><trkpt lat="41.527757504048914" lon="0.48322871466382905"><ele>122.60000000000001</ele><time>2026-05-04T13:24:10.001Z</time></trkpt><trkpt lat="41.52785418502379" lon="0.48330194562267226"><ele>123.0</ele><time>2026-05-04T13:24:11.001Z</time></trkpt><trkpt lat="41.52795162821538" lon="0.4833815739725842"><ele>123.0</ele><time>2026-05-04T13:24:12.001Z</time></trkpt><trkpt lat="41.528043747030075" lon="0.4834602992006732"><ele>123.00000000000001</ele><time>2026-05-04T13:24:13.001Z</time></trkpt><trkpt lat="41.52813760272636" lon="0.4835392860288229"><ele>123.00000000000001</ele><time>2026-05-04T13:24:14.001Z</time></trkpt><trkpt lat="41.52822928008867" lon="0.4836171314681138"><ele>123.0</ele><time>2026-05-04T13:24:15.001Z</time></trkpt><trkpt lat="41.52832648780592" lon="0.48368502084117715"><ele>123.0</ele><time>2026-05-04T13:24:16.001Z</time></trkpt><trkpt lat="41.52842423410732" lon="0.483753774325675"><ele>122.2</ele><time>2026-05-04T13:24:17.001Z</time></trkpt><trkpt lat="41.528517853585484" lon="0.48382387502909674"><ele>121.4</ele><time>2026-05-04T13:24:18.001Z</time></trkpt><trkpt lat="41.52861640143615" lon="0.48388426490388053"><ele>120.60000000000001</ele><time>2026-05-04T13:24:19.001Z</time></trkpt><trkpt lat="41.52871931705301" lon="0.4839355895640604"><ele>119.80000000000001</ele><time>2026-05-04T13:24:20.001Z</time></trkpt><trkpt lat="41.52882041026049" lon="0.4839838658638956"><ele>119.0</ele><time>2026-05-04T13:24:21.001Z</time></trkpt><trkpt lat="41.52892517492559" lon="0.4840226388599054"><ele>119.0</ele><time>2026-05-04T13:24:22.001Z</time></trkpt><trkpt lat="41.529032164276416" lon="0.48404957681645866"><ele>119.0</ele><time>2026-05-04T13:24:23.001Z</time></trkpt><trkpt lat="41.52914257548145" lon="0.48407265732097327"><ele>119.0</ele><time>2026-05-04T13:24:24.001Z</time></trkpt><trkpt lat="41.52925276402467" lon="0.48408538432119275"><ele>119.0</ele><time>2026-05-04T13:24:25.001Z</time></trkpt><trkpt lat="41.52936662324857" lon="0.48409630167998824"><ele>119.0</ele><time>2026-05-04T13:24:26.001Z</time></trkpt><trkpt lat="41.52947133814479" lon="0.4840927495965868"><ele>119.4</ele><time>2026-05-04T13:24:27.001Z</time></trkpt><trkpt lat="41.52956876560051" lon="0.48407515538141216"><ele>119.80000000000001</ele><time>2026-05-04T13:24:28.001Z</time></trkpt><trkpt lat="41.529659251948715" lon="0.48407118988743664"><ele>120.19999999999999</ele><time>2026-05-04T13:24:29.001Z</time></trkpt><trkpt lat="41.52974774494101" lon="0.4840990441228083"><ele>120.6</ele><time>2026-05-04T13:24:30.001Z</time></trkpt><trkpt lat="41.52984186528764" lon="0.4841554248332608"><ele>121.0</ele><time>2026-05-04T13:24:31.001Z</time></trkpt><trkpt lat="41.52984300336778" lon="0.48428152496121113"><ele>121.0</ele><time>2026-05-04T13:24:32.001Z</time></trkpt><trkpt lat="41.52976979616544" lon="0.4844117409700323"><ele>121.0</ele><time>2026-05-04T13:24:34.001Z</time></trkpt><trkpt lat="41.53003300748352" lon="0.4844058909928186"><ele>121.0</ele><time>2026-05-04T13:24:35.001Z</time></trkpt><trkpt lat="41.530091023029975" lon="0.4843512483340038"><ele>121.00000000000001</ele><time>2026-05-04T13:24:36.001Z</time></trkpt><trkpt lat="41.530123064765235" lon="0.4842469195356884"><ele>121.0</ele><time>2026-05-04T13:24:37.001Z</time></trkpt><trkpt lat="41.53013222438003" lon="0.4841324276429529"><ele>121.0</ele><time>2026-05-04T13:24:38.001Z</time></trkpt><trkpt lat="41.53014273034158" lon="0.4840183290245628"><ele>121.0</ele><time>2026-05-04T13:24:39.001Z</time></trkpt><trkpt lat="41.53018591176222" lon="0.4839135676043385"><ele>121.00000000000001</ele><time>2026-05-04T13:24:40.001Z</time></trkpt><trkpt lat="41.530277084437515" lon="0.4838504185554641"><ele>121.0</ele><time>2026-05-04T13:24:41.001Z</time></trkpt><trkpt lat="41.5303821572443" lon="0.4838739639521276"><ele>120.4</ele><time>2026-05-04T13:24:42.001Z</time></trkpt><trkpt lat="41.53047589494418" lon="0.48388224682465353"><ele>119.8</ele><time>2026-05-04T13:24:43.001Z</time></trkpt><trkpt lat="41.53057391074962" lon="0.4838725933713889"><ele>119.20000000000002</ele><time>2026-05-04T13:24:44.001Z</time></trkpt><trkpt lat="41.53067403074247" lon="0.48384479507862643"><ele>118.60000000000001</ele><time>2026-05-04T13:24:45.001Z</time></trkpt><trkpt lat="41.53077666325605" lon="0.4838210185115304"><ele>118.0</ele><time>2026-05-04T13:24:46.001Z</time></trkpt><trkpt lat="41.53088122079853" lon="0.4838012147049601"><ele>118.0</ele><time>2026-05-04T13:24:47.001Z</time></trkpt><trkpt lat="41.53098768128451" lon="0.4837809210200587"><ele>118.00000000000001</ele><time>2026-05-04T13:24:48.001Z</time></trkpt><trkpt lat="41.53109372219144" lon="0.4837615576386385"><ele>118.00000000000001</ele><time>2026-05-04T13:24:49.001Z</time></trkpt><trkpt lat="41.531197317455046" lon="0.48373695785411597"><ele>118.0</ele><time>2026-05-04T13:24:50.001Z</time></trkpt><trkpt lat="41.53130118353205" lon="0.4837173871795094"><ele>118.0</ele><time>2026-05-04T13:24:51.001Z</time></trkpt><trkpt lat="41.531406131892126" lon="0.4836970408209812"><ele>118.60000000000001</ele><time>2026-05-04T13:24:52.001Z</time></trkpt><trkpt lat="41.53151644972013" lon="0.483667568947848"><ele>119.20000000000002</ele><time>2026-05-04T13:24:53.001Z</time></trkpt><trkpt lat="41.531619753775196" lon="0.48363600324983463"><ele>119.8</ele><time>2026-05-04T13:24:54.002Z</time></trkpt><trkpt lat="41.53172138382673" lon="0.4836137418452103"><ele>120.4</ele><time>2026-05-04T13:24:55.002Z</time></trkpt><trkpt lat="41.531820422519615" lon="0.4835919750329579"><ele>121.0</ele><time>2026-05-04T13:24:56.002Z</time></trkpt><trkpt lat="41.53192211141767" lon="0.4835737362089993"><ele>121.0</ele><time>2026-05-04T13:24:57.002Z</time></trkpt><trkpt lat="41.53202944020264" lon="0.48357302460866736"><ele>121.0</ele><time>2026-05-04T13:24:58.002Z</time></trkpt><trkpt lat="41.53212928641426" lon="0.4835599026640385"><ele>121.0</ele><time>2026-05-04T13:24:59.002Z</time></trkpt><trkpt lat="41.53221603286421" lon="0.4835455195334035"><ele>121.0</ele><time>2026-05-04T13:25:00.002Z</time></trkpt><trkpt lat="41.532314758258885" lon="0.4835404666201911"><ele>121.0</ele><time>2026-05-04T13:25:01.002Z</time></trkpt><trkpt lat="41.532412070482636" lon="0.4835350029658556"><ele>122.6</ele><time>2026-05-04T13:25:02.002Z</time></trkpt><trkpt lat="41.53250370946013" lon="0.48353084363019755"><ele>124.19999999999999</ele><time>2026-05-04T13:25:03.002Z</time></trkpt><trkpt lat="41.53259794657177" lon="0.483530781020984"><ele>125.80000000000001</ele><time>2026-05-04T13:25:04.002Z</time></trkpt><trkpt lat="41.53269232134121" lon="0.4835296238355221"><ele>127.4</ele><time>2026-05-04T13:25:05.002Z</time></trkpt><trkpt lat="41.532779751030226" lon="0.48353134208037574"><ele>129.0</ele><time>2026-05-04T13:25:06.002Z</time></trkpt><trkpt lat="41.53286601806848" lon="0.48353140747174184"><ele>130.33333333333334</ele><time>2026-05-04T13:25:07.002Z</time></trkpt><trkpt lat="41.53295329105697" lon="0.4835456877869611"><ele>131.66666666666666</ele><time>2026-05-04T13:25:08.002Z</time></trkpt><trkpt lat="41.533041084339686" lon="0.48355801038411733"><ele>133.0</ele><time>2026-05-04T13:25:09.002Z</time></trkpt><trkpt lat="41.53312779028294" lon="0.4835676914397604"><ele>134.33333333333331</ele><time>2026-05-04T13:25:10.002Z</time></trkpt><trkpt lat="41.533214185354474" lon="0.48358106681482393"><ele>135.66666666666666</ele><time>2026-05-04T13:25:11.002Z</time></trkpt><trkpt lat="41.533299880953045" lon="0.48360004557813746"><ele>137.0</ele><time>2026-05-04T13:25:12.002Z</time></trkpt><trkpt lat="41.53338810354305" lon="0.48362149770041407"><ele>137.0</ele><time>2026-05-04T13:25:13.002Z</time></trkpt><trkpt lat="41.533463348686354" lon="0.48364400087336046"><ele>137.0</ele><time>2026-05-04T13:25:14.002Z</time></trkpt><trkpt lat="41.53355242773982" lon="0.48366865485710453"><ele>137.0</ele><time>2026-05-04T13:25:15.002Z</time></trkpt><trkpt lat="41.533638018510395" lon="0.4836908841764647"><ele>137.0</ele><time>2026-05-04T13:25:16.002Z</time></trkpt><trkpt lat="41.533724676409385" lon="0.48371540354106823"><ele>137.0</ele><time>2026-05-04T13:25:17.002Z</time></trkpt><trkpt lat="41.533812111791576" lon="0.4837338026564768"><ele>137.0</ele><time>2026-05-04T13:25:18.002Z</time></trkpt><trkpt lat="41.53390062254959" lon="0.4837604916150859"><ele>137.4</ele><time>2026-05-04T13:25:19.002Z</time></trkpt><trkpt lat="41.53398874249419" lon="0.483787572630988"><ele>137.79999999999998</ele><time>2026-05-04T13:25:20.002Z</time></trkpt><trkpt lat="41.53407990285451" lon="0.48381206390402776"><ele>138.2</ele><time>2026-05-04T13:25:21.002Z</time></trkpt><trkpt lat="41.53417106967662" lon="0.4838372979097105"><ele>138.6</ele><time>2026-05-04T13:25:22.002Z</time></trkpt><trkpt lat="41.53426610341015" lon="0.4838608499283651"><ele>139.0</ele><time>2026-05-04T13:25:23.002Z</time></trkpt><trkpt lat="41.53436008100234" lon="0.48388786062336825"><ele>139.0</ele><time>2026-05-04T13:25:24.002Z</time></trkpt><trkpt lat="41.534454852026784" lon="0.48391600822473274"><ele>139.0</ele><time>2026-05-04T13:25:24.999Z</time></trkpt><trkpt lat="41.534550732070414" lon="0.48394224384756857"><ele>139.0</ele><time>2026-05-04T13:25:25.999Z</time></trkpt><trkpt lat="41.53464855038437" lon="0.48396983264935606"><ele>139.0</ele><time>2026-05-04T13:25:26.999Z</time></trkpt><trkpt lat="41.53474947940201" lon="0.48399638050554317"><ele>139.0</ele><time>2026-05-04T13:25:27.999Z</time></trkpt><trkpt lat="41.534851734626116" lon="0.4840244408878792"><ele>139.0</ele><time>2026-05-04T13:25:28.999Z</time></trkpt><trkpt lat="41.534956613560574" lon="0.48405216128843837"><ele>139.0</ele><time>2026-05-04T13:25:29.999Z</time></trkpt><trkpt lat="41.53506061582667" lon="0.48407888788152015"><ele>139.0</ele><time>2026-05-04T13:25:30.999Z</time></trkpt><trkpt lat="41.53515640004714" lon="0.4841197384756525"><ele>139.0</ele><time>2026-05-04T13:25:31.999Z</time></trkpt><trkpt lat="41.53527325863128" lon="0.4841284015770902"><ele>139.0</ele><time>2026-05-04T13:25:32.999Z</time></trkpt><trkpt lat="41.535385292138315" lon="0.4841691118893042"><ele>139.0</ele><time>2026-05-04T13:25:33.999Z</time></trkpt><trkpt lat="41.53549281884712" lon="0.4841933331185192"><ele>139.0</ele><time>2026-05-04T13:25:34.999Z</time></trkpt><trkpt lat="41.53559660471038" lon="0.4842172150690921"><ele>139.0</ele><time>2026-05-04T13:25:36Z</time></trkpt><trkpt lat="41.53570071365817" lon="0.4842446870984978"><ele>139.0</ele><time>2026-05-04T13:25:37Z</time></trkpt><trkpt lat="41.535805544510254" lon="0.4842704326666853"><ele>139.0</ele><time>2026-05-04T13:25:38Z</time></trkpt><trkpt lat="41.53590842785643" lon="0.4842983576738413"><ele>139.0</ele><time>2026-05-04T13:25:39Z</time></trkpt><trkpt lat="41.53601349801995" lon="0.48432405884767915"><ele>139.0</ele><time>2026-05-04T13:25:40Z</time></trkpt><trkpt lat="41.53611145360016" lon="0.4843484703413203"><ele>139.0</ele><time>2026-05-04T13:25:41Z</time></trkpt><trkpt lat="41.536205437677324" lon="0.48437770582921963"><ele>139.0</ele><time>2026-05-04T13:25:42Z</time></trkpt><trkpt lat="41.53629047924506" lon="0.4844215160637202"><ele>139.0</ele><time>2026-05-04T13:25:43Z</time></trkpt><trkpt lat="41.536359683299615" lon="0.484504335052912"><ele>139.0</ele><time>2026-05-04T13:25:44Z</time></trkpt><trkpt lat="41.5364250490164" lon="0.4845950471951878"><ele>139.0</ele><time>2026-05-04T13:25:45Z</time></trkpt><trkpt lat="41.536509498402175" lon="0.48465099145774493"><ele>139.0</ele><time>2026-05-04T13:25:46Z</time></trkpt><trkpt lat="41.53660819829732" lon="0.48464738833135623"><ele>139.0</ele><time>2026-05-04T13:25:47Z</time></trkpt><trkpt lat="41.5367113874376" lon="0.48465091541138916"><ele>139.0</ele><time>2026-05-04T13:25:48Z</time></trkpt><trkpt lat="41.53680954930688" lon="0.4847027284636623"><ele>138.25</ele><time>2026-05-04T13:25:49Z</time></trkpt><trkpt lat="41.53689655056017" lon="0.48479734969398247"><ele>137.5</ele><time>2026-05-04T13:25:50Z</time></trkpt><trkpt lat="41.536975673046626" lon="0.4849036860382956"><ele>136.75</ele><time>2026-05-04T13:25:51Z</time></trkpt><trkpt lat="41.53705233742278" lon="0.48501634775898805"><ele>136.0</ele><time>2026-05-04T13:25:52Z</time></trkpt><trkpt lat="41.537112809770164" lon="0.48514210679401115"><ele>136.0</ele><time>2026-05-04T13:25:53Z</time></trkpt><trkpt lat="41.53717559196639" lon="0.48526902847019243"><ele>136.0</ele><time>2026-05-04T13:25:54Z</time></trkpt><trkpt lat="41.53724229935561" lon="0.485392550008538"><ele>136.0</ele><time>2026-05-04T13:25:55Z</time></trkpt><trkpt lat="41.537306161804544" lon="0.48550711111844"><ele>136.0</ele><time>2026-05-04T13:25:56Z</time></trkpt><trkpt lat="41.53737385418314" lon="0.48564763377461284"><ele>135.6</ele><time>2026-05-04T13:25:57Z</time></trkpt><trkpt lat="41.53743310005573" lon="0.4857766545164337"><ele>135.2</ele><time>2026-05-04T13:25:58Z</time></trkpt><trkpt lat="41.53749775684641" lon="0.48588155011390194"><ele>134.8</ele><time>2026-05-04T13:25:59Z</time></trkpt><trkpt lat="41.537564124033125" lon="0.4860024145644015"><ele>134.4</ele><time>2026-05-04T13:26:00Z</time></trkpt><trkpt lat="41.53762912444898" lon="0.48612762568858675"><ele>134.0</ele><time>2026-05-04T13:26:01Z</time></trkpt><trkpt lat="41.53769272500102" lon="0.48625161534152744"><ele>133.25</ele><time>2026-05-04T13:26:02Z</time></trkpt><trkpt lat="41.53775556935856" lon="0.48637621491297156"><ele>132.5</ele><time>2026-05-04T13:26:03Z</time></trkpt><trkpt lat="41.53781781708911" lon="0.48650293171679343"><ele>131.75</ele><time>2026-05-04T13:26:04Z</time></trkpt><trkpt lat="41.53788530722111" lon="0.4866301760347394"><ele>131.0</ele><time>2026-05-04T13:26:05Z</time></trkpt><trkpt lat="41.537948900255564" lon="0.4867547119493649"><ele>130.5</ele><time>2026-05-04T13:26:06Z</time></trkpt><trkpt lat="41.53801348115423" lon="0.4868806602838162"><ele>130.0</ele><time>2026-05-04T13:26:07Z</time></trkpt><trkpt lat="41.53807729985396" lon="0.4870067788102873"><ele>129.5</ele><time>2026-05-04T13:26:08Z</time></trkpt><trkpt lat="41.53814137451612" lon="0.487134290426007"><ele>129.0</ele><time>2026-05-04T13:26:09Z</time></trkpt><trkpt lat="41.53820174266528" lon="0.4872637354608339"><ele>128.0</ele><time>2026-05-04T13:26:10Z</time></trkpt><trkpt lat="41.538259714857794" lon="0.48739084729684035"><ele>127.0</ele><time>2026-05-04T13:26:11Z</time></trkpt><trkpt lat="41.53832549901302" lon="0.4875091173212114"><ele>126.0</ele><time>2026-05-04T13:26:12.001Z</time></trkpt><trkpt lat="41.53838632885633" lon="0.4876248517700215"><ele>125.0</ele><time>2026-05-04T13:26:13.001Z</time></trkpt><trkpt lat="41.538444262313625" lon="0.4877342173237275"><ele>124.0</ele><time>2026-05-04T13:26:14.001Z</time></trkpt><trkpt lat="41.53849837814152" lon="0.48783916037157415"><ele>123.6</ele><time>2026-05-04T13:26:15.001Z</time></trkpt><trkpt lat="41.538551221126816" lon="0.4879439655601187"><ele>123.2</ele><time>2026-05-04T13:26:16.001Z</time></trkpt><trkpt lat="41.53857066944387" lon="0.4880632958028521"><ele>122.79999999999998</ele><time>2026-05-04T13:26:17.001Z</time></trkpt><trkpt lat="41.53854694999201" lon="0.4881680841781017"><ele>122.39999999999999</ele><time>2026-05-04T13:26:18.001Z</time></trkpt><trkpt lat="41.53860368544001" lon="0.48836199322868395"><ele>122.0</ele><time>2026-05-04T13:26:21.001Z</time></trkpt><trkpt lat="41.53867955164713" lon="0.4884819314574141"><ele>122.0</ele><time>2026-05-04T13:26:22.001Z</time></trkpt><trkpt lat="41.538775748863706" lon="0.4884690415934374"><ele>121.99999999999999</ele><time>2026-05-04T13:26:23.001Z</time></trkpt><trkpt lat="41.53885443832665" lon="0.48840640093140864"><ele>121.99999999999999</ele><time>2026-05-04T13:26:24.001Z</time></trkpt><trkpt lat="41.53894334161209" lon="0.4885355864878037"><ele>122.0</ele><time>2026-05-04T13:26:25.001Z</time></trkpt><trkpt lat="41.539034206974165" lon="0.48859388599409925"><ele>122.0</ele><time>2026-05-04T13:26:26.001Z</time></trkpt><trkpt lat="41.539113737050606" lon="0.4886747805463733"><ele>122.0</ele><time>2026-05-04T13:26:27.001Z</time></trkpt><trkpt lat="41.53920036784358" lon="0.48874081022281546"><ele>121.99999999999999</ele><time>2026-05-04T13:26:28.001Z</time></trkpt><trkpt lat="41.539290474806535" lon="0.48880269828388556"><ele>121.99999999999999</ele><time>2026-05-04T13:26:29.001Z</time></trkpt><trkpt lat="41.539387141125616" lon="0.4888610498868004"><ele>122.0</ele><time>2026-05-04T13:26:30.001Z</time></trkpt><trkpt lat="41.539487883015255" lon="0.4889090612231674"><ele>122.0</ele><time>2026-05-04T13:26:31.001Z</time></trkpt><trkpt lat="41.53958864731521" lon="0.48895186116477074"><ele>122.19999999999999</ele><time>2026-05-04T13:26:32.001Z</time></trkpt><trkpt lat="41.53969058275955" lon="0.4890045338448921"><ele>122.39999999999999</ele><time>2026-05-04T13:26:33.001Z</time></trkpt><trkpt lat="41.539793803290785" lon="0.48906111312860634"><ele>122.60000000000001</ele><time>2026-05-04T13:26:34.001Z</time></trkpt><trkpt lat="41.53989989119977" lon="0.48911001356675265"><ele>122.80000000000001</ele><time>2026-05-04T13:26:35.001Z</time></trkpt><trkpt lat="41.540002196036056" lon="0.4891568131873219"><ele>123.0</ele><time>2026-05-04T13:26:36.001Z</time></trkpt><trkpt lat="41.540110264632105" lon="0.48921503103490277"><ele>123.0</ele><time>2026-05-04T13:26:37.001Z</time></trkpt><trkpt lat="41.54020268704375" lon="0.4892594115545457"><ele>123.0</ele><time>2026-05-04T13:26:38.001Z</time></trkpt><trkpt lat="41.54027405197541" lon="0.48932077349126685"><ele>123.0</ele><time>2026-05-04T13:26:40.001Z</time></trkpt><trkpt lat="41.540343454357014" lon="0.4893211353559689"><ele>123.0</ele><time>2026-05-04T13:26:41.001Z</time></trkpt><trkpt lat="41.540718665350326" lon="0.48957055313833514"><ele>122.75</ele><time>2026-05-04T13:26:43.001Z</time></trkpt><trkpt lat="41.54081554628228" lon="0.4896512451549467"><ele>122.5</ele><time>2026-05-04T13:26:44.001Z</time></trkpt><trkpt lat="41.54090943085675" lon="0.48973207651558576"><ele>122.25</ele><time>2026-05-04T13:26:45.001Z</time></trkpt><trkpt lat="41.541001840460915" lon="0.48981799711281165"><ele>122.0</ele><time>2026-05-04T13:26:46.001Z</time></trkpt><trkpt lat="41.541095776744555" lon="0.489909098741576"><ele>122.0</ele><time>2026-05-04T13:26:47.001Z</time></trkpt><trkpt lat="41.54118666780985" lon="0.48999857196927393"><ele>121.99999999999999</ele><time>2026-05-04T13:26:48.001Z</time></trkpt><trkpt lat="41.54127904724197" lon="0.49008445049769855"><ele>121.99999999999999</ele><time>2026-05-04T13:26:49.001Z</time></trkpt><trkpt lat="41.541363814152376" lon="0.49017375944687075"><ele>122.0</ele><time>2026-05-04T13:26:50.001Z</time></trkpt><trkpt lat="41.541450677600054" lon="0.490259165585832"><ele>122.0</ele><time>2026-05-04T13:26:51.001Z</time></trkpt><trkpt lat="41.54153799337987" lon="0.4903451538364032"><ele>122.0</ele><time>2026-05-04T13:26:52.001Z</time></trkpt><trkpt lat="41.54162377764331" lon="0.4904231006176264"><ele>121.99999999999999</ele><time>2026-05-04T13:26:53.001Z</time></trkpt><trkpt lat="41.54171012029719" lon="0.4905018951493857"><ele>121.99999999999999</ele><time>2026-05-04T13:26:54.002Z</time></trkpt><trkpt lat="41.541792341114224" lon="0.4905835669551473"><ele>122.0</ele><time>2026-05-04T13:26:55.002Z</time></trkpt><trkpt lat="41.54187109185415" lon="0.4906667396871065"><ele>122.0</ele><time>2026-05-04T13:26:56.002Z</time></trkpt><trkpt lat="41.54195285017055" lon="0.4907411670665684"><ele>122.0</ele><time>2026-05-04T13:26:57.002Z</time></trkpt><trkpt lat="41.5420360840411" lon="0.49081986105191355"><ele>121.99999999999999</ele><time>2026-05-04T13:26:58.002Z</time></trkpt><trkpt lat="41.542118443497536" lon="0.4908921868951937"><ele>121.99999999999999</ele><time>2026-05-04T13:26:59.002Z</time></trkpt><trkpt lat="41.54219707215913" lon="0.4909656346032631"><ele>122.0</ele><time>2026-05-04T13:27:00.002Z</time></trkpt><trkpt lat="41.542272327936615" lon="0.49104016036135717"><ele>122.0</ele><time>2026-05-04T13:27:01.002Z</time></trkpt><trkpt lat="41.5423531155623" lon="0.49111113648256743"><ele>122.8</ele><time>2026-05-04T13:27:02.002Z</time></trkpt><trkpt lat="41.542430424439864" lon="0.49118360569817415"><ele>123.6</ele><time>2026-05-04T13:27:03.002Z</time></trkpt><trkpt lat="41.5425095185802" lon="0.491260796110403"><ele>124.39999999999999</ele><time>2026-05-04T13:27:04.002Z</time></trkpt><trkpt lat="41.54258763351555" lon="0.4913281364712949"><ele>125.19999999999999</ele><time>2026-05-04T13:27:05.002Z</time></trkpt><trkpt lat="41.54266545526113" lon="0.49140299457756337"><ele>126.0</ele><time>2026-05-04T13:27:06.002Z</time></trkpt><trkpt lat="41.54274702175812" lon="0.4914764014808674"><ele>126.0</ele><time>2026-05-04T13:27:07.002Z</time></trkpt><trkpt lat="41.542823869740985" lon="0.49155120393893853"><ele>126.0</ele><time>2026-05-04T13:27:08.002Z</time></trkpt><trkpt lat="41.5428991224148" lon="0.4916270351722417"><ele>126.0</ele><time>2026-05-04T13:27:09.002Z</time></trkpt><trkpt lat="41.54297473958359" lon="0.49169981469293184"><ele>126.0</ele><time>2026-05-04T13:27:10.002Z</time></trkpt><trkpt lat="41.54305560823653" lon="0.4917748258934867"><ele>126.0</ele><time>2026-05-04T13:27:11.002Z</time></trkpt><trkpt lat="41.54313946631622" lon="0.49184523566569566"><ele>127.6</ele><time>2026-05-04T13:27:12.002Z</time></trkpt><trkpt lat="41.54321995078054" lon="0.49191430496433863"><ele>129.2</ele><time>2026-05-04T13:27:13.002Z</time></trkpt><trkpt lat="41.543304358668664" lon="0.4919839349945764"><ele>130.8</ele><time>2026-05-04T13:27:14.002Z</time></trkpt><trkpt lat="41.543392875203246" lon="0.4920507088314691"><ele>132.4</ele><time>2026-05-04T13:27:15.002Z</time></trkpt><trkpt lat="41.543487037735936" lon="0.49211650524473033"><ele>134.0</ele><time>2026-05-04T13:27:16.002Z</time></trkpt><trkpt lat="41.543583877862396" lon="0.4921783337516751"><ele>134.0</ele><time>2026-05-04T13:27:17.002Z</time></trkpt><trkpt lat="41.54368369923204" lon="0.4922420817901471"><ele>134.0</ele><time>2026-05-04T13:27:18.002Z</time></trkpt><trkpt lat="41.543793102197704" lon="0.49230804282789975"><ele>134.0</ele><time>2026-05-04T13:27:19.002Z</time></trkpt><trkpt lat="41.54389428517444" lon="0.4923611330598443"><ele>134.0</ele><time>2026-05-04T13:27:20.002Z</time></trkpt><trkpt lat="41.54399433596546" lon="0.4924224368995934"><ele>134.0</ele><time>2026-05-04T13:27:21.002Z</time></trkpt><trkpt lat="41.5440997801776" lon="0.4924919460935204"><ele>133.25</ele><time>2026-05-04T13:27:22.002Z</time></trkpt><trkpt lat="41.544208208354675" lon="0.49256397909673016"><ele>132.5</ele><time>2026-05-04T13:27:23.002Z</time></trkpt><trkpt lat="41.54431047700123" lon="0.49262297141857847"><ele>131.75</ele><time>2026-05-04T13:27:24.002Z</time></trkpt><trkpt lat="41.544421599421376" lon="0.4926884751974355"><ele>131.0</ele><time>2026-05-04T13:27:25.002Z</time></trkpt><trkpt lat="41.54452685290761" lon="0.49275160660214207"><ele>129.5</ele><time>2026-05-04T13:27:26.002Z</time></trkpt><trkpt lat="41.54463212095549" lon="0.49281667899568143"><ele>128.0</ele><time>2026-05-04T13:27:27.002Z</time></trkpt><trkpt lat="41.54474039854091" lon="0.49288025025433385"><ele>126.5</ele><time>2026-05-04T13:27:28.002Z</time></trkpt><trkpt lat="41.544851283364345" lon="0.49294326742270367"><ele>125.0</ele><time>2026-05-04T13:27:29.002Z</time></trkpt><trkpt lat="41.54495735761335" lon="0.49300869686886506"><ele>124.5</ele><time>2026-05-04T13:27:30.002Z</time></trkpt><trkpt lat="41.54506483338786" lon="0.49307554835485684"><ele>124.0</ele><time>2026-05-04T13:27:30.999Z</time></trkpt><trkpt lat="41.54517249268273" lon="0.49314049272263466"><ele>123.5</ele><time>2026-05-04T13:27:31.999Z</time></trkpt><trkpt lat="41.545281390884334" lon="0.49320720773106314"><ele>123.0</ele><time>2026-05-04T13:27:32.999Z</time></trkpt><trkpt lat="41.545383689438935" lon="0.49327441966155733"><ele>124.0</ele><time>2026-05-04T13:27:33.999Z</time></trkpt><trkpt lat="41.54548951638794" lon="0.4933335269463914"><ele>125.0</ele><time>2026-05-04T13:27:34.999Z</time></trkpt><trkpt lat="41.54559253779834" lon="0.4933954426459546"><ele>126.0</ele><time>2026-05-04T13:27:35.999Z</time></trkpt><trkpt lat="41.54569719160692" lon="0.49345614753982475"><ele>127.0</ele><time>2026-05-04T13:27:36.999Z</time></trkpt><trkpt lat="41.545801307006215" lon="0.49351766613717235"><ele>127.0</ele><time>2026-05-04T13:27:37.999Z</time></trkpt><trkpt lat="41.54590646494388" lon="0.49357930123193006"><ele>127.0</ele><time>2026-05-04T13:27:38.999Z</time></trkpt><trkpt lat="41.54600971366835" lon="0.49364243332094904"><ele>127.0</ele><time>2026-05-04T13:27:39.999Z</time></trkpt><trkpt lat="41.54611507157578" lon="0.4937052436601263"><ele>127.0</ele><time>2026-05-04T13:27:40.999Z</time></trkpt><trkpt lat="41.546221366608755" lon="0.4937702398940664"><ele>126.5</ele><time>2026-05-04T13:27:41.999Z</time></trkpt><trkpt lat="41.54632711770325" lon="0.49383421764847923"><ele>126.0</ele><time>2026-05-04T13:27:42.999Z</time></trkpt><trkpt lat="41.546432124698406" lon="0.493899017234542"><ele>125.5</ele><time>2026-05-04T13:27:43.999Z</time></trkpt><trkpt lat="41.54653730781843" lon="0.49396349006372336"><ele>125.0</ele><time>2026-05-04T13:27:44.999Z</time></trkpt><trkpt lat="41.54664299554189" lon="0.49402733532386484"><ele>125.0</ele><time>2026-05-04T13:27:46Z</time></trkpt><trkpt lat="41.546749888661715" lon="0.4940906699864191"><ele>125.0</ele><time>2026-05-04T13:27:47Z</time></trkpt><trkpt lat="41.54685774484905" lon="0.4941541065202553"><ele>125.0</ele><time>2026-05-04T13:27:48Z</time></trkpt><trkpt lat="41.54696515838415" lon="0.4942142619206108"><ele>125.0</ele><time>2026-05-04T13:27:49Z</time></trkpt><trkpt lat="41.547069382706304" lon="0.4942775924528009"><ele>125.25</ele><time>2026-05-04T13:27:50Z</time></trkpt><trkpt lat="41.54717457963966" lon="0.4943409830207155"><ele>125.5</ele><time>2026-05-04T13:27:51Z</time></trkpt><trkpt lat="41.54728265159388" lon="0.4944049646878663"><ele>125.75</ele><time>2026-05-04T13:27:52Z</time></trkpt><trkpt lat="41.54738654452491" lon="0.49447251476370946"><ele>126.0</ele><time>2026-05-04T13:27:53Z</time></trkpt><trkpt lat="41.547492161681056" lon="0.49453761517685935"><ele>126.0</ele><time>2026-05-04T13:27:54Z</time></trkpt><trkpt lat="41.54759886154382" lon="0.49460330639195926"><ele>126.0</ele><time>2026-05-04T13:27:55Z</time></trkpt><trkpt lat="41.54770694708504" lon="0.49466690331438223"><ele>126.0</ele><time>2026-05-04T13:27:56Z</time></trkpt><trkpt lat="41.547815102397244" lon="0.49473196728081936"><ele>126.0</ele><time>2026-05-04T13:27:57Z</time></trkpt><trkpt lat="41.54792087765968" lon="0.49479640219027976"><ele>126.0</ele><time>2026-05-04T13:27:58Z</time></trkpt><trkpt lat="41.54802648776312" lon="0.4948579406680833"><ele>126.0</ele><time>2026-05-04T13:27:59Z</time></trkpt><trkpt lat="41.54812963672474" lon="0.49492124662895837"><ele>126.0</ele><time>2026-05-04T13:28:00Z</time></trkpt><trkpt lat="41.54823367306978" lon="0.49498271709177594"><ele>126.0</ele><time>2026-05-04T13:28:01Z</time></trkpt><trkpt lat="41.54833584202036" lon="0.4950474236299264"><ele>126.0</ele><time>2026-05-04T13:28:02Z</time></trkpt><trkpt lat="41.548440061749595" lon="0.49511056478607346"><ele>126.0</ele><time>2026-05-04T13:28:03Z</time></trkpt><trkpt lat="41.54854240641308" lon="0.4951714015181383"><ele>126.0</ele><time>2026-05-04T13:28:04Z</time></trkpt><trkpt lat="41.548646765374436" lon="0.49523486389114946"><ele>126.0</ele><time>2026-05-04T13:28:05Z</time></trkpt><trkpt lat="41.54875132048932" lon="0.49529910137548605"><ele>126.0</ele><time>2026-05-04T13:28:06Z</time></trkpt><trkpt lat="41.54885731490992" lon="0.49536095935037927"><ele>126.0</ele><time>2026-05-04T13:28:07Z</time></trkpt><trkpt lat="41.548961064141565" lon="0.49542325907461926"><ele>126.0</ele><time>2026-05-04T13:28:08Z</time></trkpt><trkpt lat="41.54906712745555" lon="0.4954866096584775"><ele>126.0</ele><time>2026-05-04T13:28:09Z</time></trkpt><trkpt lat="41.549172743489315" lon="0.49554955948808904"><ele>125.75</ele><time>2026-05-04T13:28:10Z</time></trkpt><trkpt lat="41.549278109443094" lon="0.4956118577532747"><ele>125.5</ele><time>2026-05-04T13:28:11Z</time></trkpt><trkpt lat="41.549383422170905" lon="0.4956761242019157"><ele>125.25</ele><time>2026-05-04T13:28:12Z</time></trkpt><trkpt lat="41.54949107650779" lon="0.49573923493535743"><ele>125.0</ele><time>2026-05-04T13:28:13Z</time></trkpt><trkpt lat="41.5495954001921" lon="0.4958050683021606"><ele>125.75</ele><time>2026-05-04T13:28:14Z</time></trkpt><trkpt lat="41.5497027770183" lon="0.4958647636226011"><ele>126.5</ele><time>2026-05-04T13:28:15Z</time></trkpt><trkpt lat="41.54980795815809" lon="0.4959280249080851"><ele>127.25</ele><time>2026-05-04T13:28:16Z</time></trkpt><trkpt lat="41.549915699931816" lon="0.49599421363799184"><ele>128.0</ele><time>2026-05-04T13:28:17.001Z</time></trkpt><trkpt lat="41.55001778240207" lon="0.49605857190946195"><ele>128.0</ele><time>2026-05-04T13:28:18.001Z</time></trkpt><trkpt lat="41.550123583753845" lon="0.49612248313138124"><ele>128.0</ele><time>2026-05-04T13:28:19.001Z</time></trkpt><trkpt lat="41.55022848362461" lon="0.4961844836716555"><ele>128.0</ele><time>2026-05-04T13:28:20.001Z</time></trkpt><trkpt lat="41.550333809277035" lon="0.49624940315710814"><ele>128.0</ele><time>2026-05-04T13:28:21.001Z</time></trkpt><trkpt lat="41.55044021738497" lon="0.4963159549402019"><ele>127.5</ele><time>2026-05-04T13:28:22.001Z</time></trkpt><trkpt lat="41.55054545687935" lon="0.49637849734265743"><ele>127.0</ele><time>2026-05-04T13:28:23.001Z</time></trkpt><trkpt lat="41.55065387412272" lon="0.49644269667980706"><ele>126.5</ele><time>2026-05-04T13:28:24.001Z</time></trkpt><trkpt lat="41.55075941808552" lon="0.4965100374612131"><ele>126.0</ele><time>2026-05-04T13:28:25.001Z</time></trkpt><trkpt lat="41.55086347405121" lon="0.4965766121584459"><ele>126.0</ele><time>2026-05-04T13:28:26.001Z</time></trkpt><trkpt lat="41.55097021137846" lon="0.49663926746617354"><ele>126.0</ele><time>2026-05-04T13:28:27.001Z</time></trkpt><trkpt lat="41.55107810271402" lon="0.4966997684637976"><ele>126.0</ele><time>2026-05-04T13:28:28.001Z</time></trkpt><trkpt lat="41.55118219219176" lon="0.4967691211615303"><ele>126.0</ele><time>2026-05-04T13:28:29.001Z</time></trkpt><trkpt lat="41.551288491132496" lon="0.49683182836379175"><ele>125.5</ele><time>2026-05-04T13:28:30.001Z</time></trkpt><trkpt lat="41.551395262931074" lon="0.4968964209609102"><ele>125.0</ele><time>2026-05-04T13:28:31.001Z</time></trkpt><trkpt lat="41.55150128804868" lon="0.49695998677419906"><ele>124.5</ele><time>2026-05-04T13:28:32.001Z</time></trkpt><trkpt lat="41.55160510935475" lon="0.4970186800581827"><ele>124.0</ele><time>2026-05-04T13:28:33.001Z</time></trkpt><trkpt lat="41.551710624157764" lon="0.49707879117314313"><ele>123.80000000000001</ele><time>2026-05-04T13:28:34.001Z</time></trkpt><trkpt lat="41.55181265484965" lon="0.49714296068835007"><ele>123.60000000000001</ele><time>2026-05-04T13:28:35.001Z</time></trkpt><trkpt lat="41.55190340543651" lon="0.4971992846588988"><ele>123.4</ele><time>2026-05-04T13:28:36.001Z</time></trkpt><trkpt lat="41.551967599060085" lon="0.49726018545388573"><ele>123.2</ele><time>2026-05-04T13:28:37.001Z</time></trkpt><trkpt lat="41.55208547906255" lon="0.49732005732869144"><ele>123.0</ele><time>2026-05-04T13:28:38.001Z</time></trkpt><trkpt lat="41.55217381163319" lon="0.49737624429040156"><ele>123.4</ele><time>2026-05-04T13:28:39.001Z</time></trkpt><trkpt lat="41.552260153916166" lon="0.4974331012163395"><ele>123.80000000000001</ele><time>2026-05-04T13:28:40.001Z</time></trkpt><trkpt lat="41.5523449351233" lon="0.4974790220200233"><ele>124.2</ele><time>2026-05-04T13:28:41.001Z</time></trkpt><trkpt lat="41.55243102280447" lon="0.49751362164064256"><ele>124.6</ele><time>2026-05-04T13:28:42.001Z</time></trkpt><trkpt lat="41.55251682365738" lon="0.49755052907838054"><ele>125.0</ele><time>2026-05-04T13:28:43.001Z</time></trkpt><trkpt lat="41.552598943379316" lon="0.49760019685342255"><ele>125.0</ele><time>2026-05-04T13:28:44.001Z</time></trkpt><trkpt lat="41.55267877699307" lon="0.4976632147044705"><ele>125.0</ele><time>2026-05-04T13:28:45.001Z</time></trkpt><trkpt lat="41.55276149247157" lon="0.4977301507766318"><ele>125.0</ele><time>2026-05-04T13:28:46.001Z</time></trkpt><trkpt lat="41.55283797746915" lon="0.4978140467883478"><ele>125.0</ele><time>2026-05-04T13:28:47.001Z</time></trkpt><trkpt lat="41.5529081117635" lon="0.4979031654549629"><ele>125.0</ele><time>2026-05-04T13:28:48.001Z</time></trkpt><trkpt lat="41.552938825598574" lon="0.49805356341459794"><ele>125.0</ele><time>2026-05-04T13:28:49.001Z</time></trkpt><trkpt lat="41.55297713778086" lon="0.49818335432863603"><ele>125.0</ele><time>2026-05-04T13:28:50.001Z</time></trkpt><trkpt lat="41.5530140663073" lon="0.49831502771292163"><ele>125.0</ele><time>2026-05-04T13:28:51.001Z</time></trkpt><trkpt lat="41.55305241545124" lon="0.4984481504071299"><ele>125.0</ele><time>2026-05-04T13:28:52.001Z</time></trkpt><trkpt lat="41.5530857555802" lon="0.49858681747879907"><ele>125.0</ele><time>2026-05-04T13:28:53.001Z</time></trkpt><trkpt lat="41.553115093928646" lon="0.49872519157423545"><ele>125.0</ele><time>2026-05-04T13:28:54.001Z</time></trkpt><trkpt lat="41.55314490669422" lon="0.4988664031630003"><ele>125.0</ele><time>2026-05-04T13:28:55.001Z</time></trkpt><trkpt lat="41.553172020121174" lon="0.49900733556513976"><ele>125.0</ele><time>2026-05-04T13:28:56.002Z</time></trkpt><trkpt lat="41.55320226006033" lon="0.49915242074603655"><ele>125.0</ele><time>2026-05-04T13:28:57.002Z</time></trkpt><trkpt lat="41.55323268966458" lon="0.4992972925329859"><ele>125.0</ele><time>2026-05-04T13:28:58.002Z</time></trkpt><trkpt lat="41.55326231909755" lon="0.49943793837056427"><ele>125.0</ele><time>2026-05-04T13:28:59.002Z</time></trkpt><trkpt lat="41.55329063062301" lon="0.4995773356237991"><ele>125.0</ele><time>2026-05-04T13:29:00.002Z</time></trkpt><trkpt lat="41.553317279732546" lon="0.49972450986094713"><ele>125.0</ele><time>2026-05-04T13:29:01.002Z</time></trkpt><trkpt lat="41.553344091602256" lon="0.49986680703668673"><ele>125.0</ele><time>2026-05-04T13:29:02.002Z</time></trkpt><trkpt lat="41.55337118700015" lon="0.5000123697826457"><ele>125.0</ele><time>2026-05-04T13:29:03.002Z</time></trkpt><trkpt lat="41.553400928692334" lon="0.5001693245841218"><ele>124.75</ele><time>2026-05-04T13:29:04.002Z</time></trkpt><trkpt lat="41.55343743481873" lon="0.5003842573347886"><ele>124.5</ele><time>2026-05-04T13:29:05.002Z</time></trkpt><trkpt lat="41.553460708175884" lon="0.500540259255962"><ele>124.25</ele><time>2026-05-04T13:29:06.002Z</time></trkpt><trkpt lat="41.55351950631462" lon="0.5007078095745779"><ele>124.0</ele><time>2026-05-04T13:29:08.002Z</time></trkpt><trkpt lat="41.553551447281535" lon="0.5008847779137983"><ele>124.0</ele><time>2026-05-04T13:29:09.002Z</time></trkpt><trkpt lat="41.55358314973442" lon="0.5010250739573915"><ele>124.0</ele><time>2026-05-04T13:29:10.002Z</time></trkpt><trkpt lat="41.553617468059514" lon="0.5011680226537585"><ele>124.0</ele><time>2026-05-04T13:29:11.002Z</time></trkpt><trkpt lat="41.553654372545125" lon="0.50130995750773"><ele>124.0</ele><time>2026-05-04T13:29:12.002Z</time></trkpt><trkpt lat="41.55369684549143" lon="0.5014456122965202"><ele>124.0</ele><time>2026-05-04T13:29:13.002Z</time></trkpt><trkpt lat="41.55373234858636" lon="0.5015821457374641"><ele>125.2</ele><time>2026-05-04T13:29:14.002Z</time></trkpt><trkpt lat="41.553769774453755" lon="0.5017217255838154"><ele>126.4</ele><time>2026-05-04T13:29:15.002Z</time></trkpt><trkpt lat="41.55381135796747" lon="0.5018595551658133"><ele>127.6</ele><time>2026-05-04T13:29:16.002Z</time></trkpt><trkpt lat="41.55385089865674" lon="0.5019957968972574"><ele>128.8</ele><time>2026-05-04T13:29:17.002Z</time></trkpt><trkpt lat="41.553894279365466" lon="0.5021296255058881"><ele>130.0</ele><time>2026-05-04T13:29:18.002Z</time></trkpt><trkpt lat="41.55393636243204" lon="0.5022659594073765"><ele>130.2</ele><time>2026-05-04T13:29:19.002Z</time></trkpt><trkpt lat="41.55398667622201" lon="0.5023983550658657"><ele>130.4</ele><time>2026-05-04T13:29:20.002Z</time></trkpt><trkpt lat="41.55403066193438" lon="0.5025399160233088"><ele>130.6</ele><time>2026-05-04T13:29:21.002Z</time></trkpt><trkpt lat="41.554085308688464" lon="0.5026657520397046"><ele>130.8</ele><time>2026-05-04T13:29:22.002Z</time></trkpt><trkpt lat="41.5541318258997" lon="0.5027938203531491"><ele>131.0</ele><time>2026-05-04T13:29:23.002Z</time></trkpt><trkpt lat="41.55418305144949" lon="0.5029399825776758"><ele>131.0</ele><time>2026-05-04T13:29:24.002Z</time></trkpt><trkpt lat="41.554234263488524" lon="0.5030763930372043"><ele>131.0</ele><time>2026-05-04T13:29:25.002Z</time></trkpt><trkpt lat="41.55428981171001" lon="0.5032090285715595"><ele>131.0</ele><time>2026-05-04T13:29:26.002Z</time></trkpt><trkpt lat="41.55435092096137" lon="0.5033433258264449"><ele>131.0</ele><time>2026-05-04T13:29:27.002Z</time></trkpt><trkpt lat="41.554407716057234" lon="0.503476059650902"><ele>131.0</ele><time>2026-05-04T13:29:28.002Z</time></trkpt><trkpt lat="41.554463359177355" lon="0.5036087729523439"><ele>131.0</ele><time>2026-05-04T13:29:29.002Z</time></trkpt><trkpt lat="41.55452167611696" lon="0.5037396995964223"><ele>131.0</ele><time>2026-05-04T13:29:30.002Z</time></trkpt><trkpt lat="41.55458293014206" lon="0.5038679863154952"><ele>131.0</ele><time>2026-05-04T13:29:31.002Z</time></trkpt><trkpt lat="41.554643747117375" lon="0.503994883674284"><ele>131.0</ele><time>2026-05-04T13:29:32.002Z</time></trkpt><trkpt lat="41.55470836591627" lon="0.5041208078417369"><ele>131.0</ele><time>2026-05-04T13:29:33.002Z</time></trkpt><trkpt lat="41.55477782059063" lon="0.5042536571488895"><ele>131.0</ele><time>2026-05-04T13:29:34.002Z</time></trkpt><trkpt lat="41.55483639905077" lon="0.5043795634761675"><ele>131.0</ele><time>2026-05-04T13:29:35.002Z</time></trkpt><trkpt lat="41.55490888583971" lon="0.5045061299643904"><ele>130.4</ele><time>2026-05-04T13:29:36.003Z</time></trkpt><trkpt lat="41.55497845680721" lon="0.5046342030749191"><ele>129.8</ele><time>2026-05-04T13:29:37Z</time></trkpt><trkpt lat="41.555043084373466" lon="0.5047419475109431"><ele>129.20000000000002</ele><time>2026-05-04T13:29:38Z</time></trkpt><trkpt lat="41.55510804887662" lon="0.5048442850220074"><ele>128.6</ele><time>2026-05-04T13:29:39Z</time></trkpt><trkpt lat="41.55516806218156" lon="0.5049558367042098"><ele>128.0</ele><time>2026-05-04T13:29:40Z</time></trkpt><trkpt lat="41.55521697060555" lon="0.5050671426666727"><ele>128.0</ele><time>2026-05-04T13:29:41Z</time></trkpt><trkpt lat="41.555236884804934" lon="0.5051911574267267"><ele>128.0</ele><time>2026-05-04T13:29:42Z</time></trkpt><trkpt lat="41.555237871756354" lon="0.5053446949873528"><ele>128.0</ele><time>2026-05-04T13:29:43Z</time></trkpt><trkpt lat="41.5552512442242" lon="0.5055404413016586"><ele>128.0</ele><time>2026-05-04T13:29:44Z</time></trkpt><trkpt lat="41.555317575303356" lon="0.5055640853719776"><ele>128.0</ele><time>2026-05-04T13:29:45Z</time></trkpt><trkpt lat="41.555403905369054" lon="0.5056389398327068"><ele>128.0</ele><time>2026-05-04T13:29:46Z</time></trkpt><trkpt lat="41.55551440116465" lon="0.5056152904988961"><ele>128.0</ele><time>2026-05-04T13:29:47Z</time></trkpt><trkpt lat="41.5556048409093" lon="0.5057340519347469"><ele>128.0</ele><time>2026-05-04T13:29:48Z</time></trkpt><trkpt lat="41.55569204347363" lon="0.5058275822895488"><ele>128.0</ele><time>2026-05-04T13:29:49Z</time></trkpt><trkpt lat="41.55576625407062" lon="0.5059433732548096"><ele>128.0</ele><time>2026-05-04T13:29:50Z</time></trkpt><trkpt lat="41.555832921543555" lon="0.5060679835090232"><ele>128.0</ele><time>2026-05-04T13:29:51Z</time></trkpt><trkpt lat="41.5559029606699" lon="0.5061904334931303"><ele>128.0</ele><time>2026-05-04T13:29:52Z</time></trkpt><trkpt lat="41.55597252487819" lon="0.5063097782677182"><ele>128.0</ele><time>2026-05-04T13:29:53Z</time></trkpt><trkpt lat="41.55604210788278" lon="0.506427017557868"><ele>127.75</ele><time>2026-05-04T13:29:54Z</time></trkpt><trkpt lat="41.55611249054367" lon="0.5065432568620722"><ele>127.5</ele><time>2026-05-04T13:29:55Z</time></trkpt><trkpt lat="41.556185153795035" lon="0.5066609671929874"><ele>127.25</ele><time>2026-05-04T13:29:56Z</time></trkpt><trkpt lat="41.55625664839532" lon="0.5067777947559832"><ele>127.0</ele><time>2026-05-04T13:29:57Z</time></trkpt><trkpt lat="41.55632718000319" lon="0.5068987644122602"><ele>127.0</ele><time>2026-05-04T13:29:58Z</time></trkpt><trkpt lat="41.55639898415401" lon="0.5070205731620725"><ele>127.0</ele><time>2026-05-04T13:29:59Z</time></trkpt><trkpt lat="41.55647107437351" lon="0.5071422989461372"><ele>127.0</ele><time>2026-05-04T13:30:00Z</time></trkpt><trkpt lat="41.55654754840611" lon="0.5072668224284415"><ele>127.0</ele><time>2026-05-04T13:30:01Z</time></trkpt><trkpt lat="41.556620060678114" lon="0.5073871635589541"><ele>127.0</ele><time>2026-05-04T13:30:02Z</time></trkpt><trkpt lat="41.55669359647278" lon="0.5075116275927016"><ele>127.0</ele><time>2026-05-04T13:30:03Z</time></trkpt><trkpt lat="41.55676736730268" lon="0.5076399069757205"><ele>127.0</ele><time>2026-05-04T13:30:04Z</time></trkpt><trkpt lat="41.55683066041479" lon="0.50776299868983"><ele>127.0</ele><time>2026-05-04T13:30:05Z</time></trkpt><trkpt lat="41.55689209116351" lon="0.5078879662351456"><ele>127.0</ele><time>2026-05-04T13:30:06Z</time></trkpt><trkpt lat="41.556945836218105" lon="0.5080172833566033"><ele>126.99999999999999</ele><time>2026-05-04T13:30:07Z</time></trkpt><trkpt lat="41.557006654478805" lon="0.5081375572604572"><ele>126.99999999999999</ele><time>2026-05-04T13:30:08Z</time></trkpt><trkpt lat="41.55705362843585" lon="0.5082614319458271"><ele>127.0</ele><time>2026-05-04T13:30:09Z</time></trkpt><trkpt lat="41.55711251364517" lon="0.508391472578343"><ele>127.0</ele><time>2026-05-04T13:30:10Z</time></trkpt><trkpt lat="41.557170233885465" lon="0.5085142720221784"><ele>127.0</ele><time>2026-05-04T13:30:11Z</time></trkpt><trkpt lat="41.55722372893651" lon="0.5086411660793799"><ele>127.0</ele><time>2026-05-04T13:30:12Z</time></trkpt><trkpt lat="41.55728896324123" lon="0.5087930944131563"><ele>127.0</ele><time>2026-05-04T13:30:13Z</time></trkpt><trkpt lat="41.55735991120668" lon="0.5089549825598563"><ele>127.0</ele><time>2026-05-04T13:30:14.001Z</time></trkpt><trkpt lat="41.55741508558362" lon="0.509079627498827"><ele>127.0</ele><time>2026-05-04T13:30:15.001Z</time></trkpt><trkpt lat="41.557475768937714" lon="0.5092116063137806"><ele>126.99999999999999</ele><time>2026-05-04T13:30:16.001Z</time></trkpt><trkpt lat="41.5575076761676" lon="0.5092920960425724"><ele>126.99999999999999</ele><time>2026-05-04T13:30:17.001Z</time></trkpt><trkpt lat="41.557566326213326" lon="0.5094158319578661"><ele>127.0</ele><time>2026-05-04T13:30:18.001Z</time></trkpt><trkpt lat="41.55762791072159" lon="0.5095419556751501"><ele>127.0</ele><time>2026-05-04T13:30:19.001Z</time></trkpt><trkpt lat="41.557689214696246" lon="0.5096684337010856"><ele>127.5</ele><time>2026-05-04T13:30:20.001Z</time></trkpt><trkpt lat="41.55775449775772" lon="0.5097869267320665"><ele>128.0</ele><time>2026-05-04T13:30:21.001Z</time></trkpt><trkpt lat="41.55782007494056" lon="0.5099101215805684"><ele>128.5</ele><time>2026-05-04T13:30:22.001Z</time></trkpt><trkpt lat="41.55788674608327" lon="0.5100364706214988"><ele>129.0</ele><time>2026-05-04T13:30:23.001Z</time></trkpt><trkpt lat="41.557956418935476" lon="0.5101609127150704"><ele>128.8</ele><time>2026-05-04T13:30:24.001Z</time></trkpt><trkpt lat="41.55802230671712" lon="0.5102812839734149"><ele>128.60000000000002</ele><time>2026-05-04T13:30:25.001Z</time></trkpt><trkpt lat="41.55808496039788" lon="0.5103995819084496"><ele>128.4</ele><time>2026-05-04T13:30:26.001Z</time></trkpt><trkpt lat="41.558152380153906" lon="0.510520463613047"><ele>128.20000000000002</ele><time>2026-05-04T13:30:27.001Z</time></trkpt><trkpt lat="41.558217530494495" lon="0.5106413396171814"><ele>128.0</ele><time>2026-05-04T13:30:28.001Z</time></trkpt><trkpt lat="41.55828281564318" lon="0.5107620292072929"><ele>128.0</ele><time>2026-05-04T13:30:29.001Z</time></trkpt><trkpt lat="41.55834474605609" lon="0.5108770155597655"><ele>128.0</ele><time>2026-05-04T13:30:30.001Z</time></trkpt><trkpt lat="41.55841017366107" lon="0.511005541395983"><ele>128.0</ele><time>2026-05-04T13:30:31.001Z</time></trkpt><trkpt lat="41.55847946152671" lon="0.5111263477025622"><ele>128.0</ele><time>2026-05-04T13:30:32.001Z</time></trkpt><trkpt lat="41.55855575545588" lon="0.5112463693620866"><ele>127.60000000000001</ele><time>2026-05-04T13:30:33.001Z</time></trkpt><trkpt lat="41.55862745236732" lon="0.5113627696675371"><ele>127.20000000000002</ele><time>2026-05-04T13:30:34.001Z</time></trkpt><trkpt lat="41.55870284515938" lon="0.5114754700880463"><ele>126.8</ele><time>2026-05-04T13:30:35.001Z</time></trkpt><trkpt lat="41.55877621442115" lon="0.5115850287654747"><ele>126.4</ele><time>2026-05-04T13:30:36.001Z</time></trkpt><trkpt lat="41.55885273582387" lon="0.5116958001444981"><ele>126.0</ele><time>2026-05-04T13:30:37.001Z</time></trkpt><trkpt lat="41.558930914807235" lon="0.5118039068305739"><ele>126.0</ele><time>2026-05-04T13:30:38.001Z</time></trkpt><trkpt lat="41.55900552449045" lon="0.5119105729908143"><ele>126.0</ele><time>2026-05-04T13:30:39.001Z</time></trkpt><trkpt lat="41.559086050290496" lon="0.5120172640390481"><ele>126.0</ele><time>2026-05-04T13:30:40.001Z</time></trkpt><trkpt lat="41.55916078651728" lon="0.512122477648773"><ele>126.0</ele><time>2026-05-04T13:30:41.001Z</time></trkpt><trkpt lat="41.5592344179588" lon="0.5122311480531162"><ele>126.0</ele><time>2026-05-04T13:30:42.001Z</time></trkpt><trkpt lat="41.55930980289384" lon="0.5123449162725997"><ele>126.0</ele><time>2026-05-04T13:30:43.001Z</time></trkpt><trkpt lat="41.55938550435896" lon="0.5124536688767161"><ele>126.0</ele><time>2026-05-04T13:30:44.001Z</time></trkpt><trkpt lat="41.559467876534114" lon="0.5125654421231852"><ele>126.0</ele><time>2026-05-04T13:30:45.001Z</time></trkpt><trkpt lat="41.559547104574406" lon="0.5126741041917356"><ele>126.0</ele><time>2026-05-04T13:30:46.001Z</time></trkpt><trkpt lat="41.559628966937616" lon="0.5127837753889739"><ele>126.0</ele><time>2026-05-04T13:30:47.001Z</time></trkpt><trkpt lat="41.55971125160301" lon="0.5128936000897121"><ele>126.0</ele><time>2026-05-04T13:30:48.001Z</time></trkpt><trkpt lat="41.55979106419212" lon="0.5130051007606024"><ele>126.0</ele><time>2026-05-04T13:30:49.001Z</time></trkpt><trkpt lat="41.559870968584086" lon="0.5131159125134239"><ele>126.0</ele><time>2026-05-04T13:30:50.001Z</time></trkpt><trkpt lat="41.55995096261608" lon="0.5132305502589187"><ele>126.5</ele><time>2026-05-04T13:30:51.002Z</time></trkpt><trkpt lat="41.56003021053839" lon="0.5133409435918126"><ele>127.0</ele><time>2026-05-04T13:30:52.002Z</time></trkpt><trkpt lat="41.56011068388819" lon="0.5134519530611431"><ele>127.5</ele><time>2026-05-04T13:30:53.002Z</time></trkpt><trkpt lat="41.56019054146705" lon="0.5135617891936646"><ele>128.0</ele><time>2026-05-04T13:30:54.002Z</time></trkpt><trkpt lat="41.56026822069895" lon="0.5136730271393711"><ele>128.0</ele><time>2026-05-04T13:30:55.002Z</time></trkpt><trkpt lat="41.560344040519446" lon="0.5137731733528549"><ele>128.0</ele><time>2026-05-04T13:30:56.002Z</time></trkpt><trkpt lat="41.56041445355956" lon="0.5138789251180713"><ele>128.0</ele><time>2026-05-04T13:30:57.002Z</time></trkpt><trkpt lat="41.56048819415481" lon="0.5139735460047166"><ele>128.0</ele><time>2026-05-04T13:30:58.002Z</time></trkpt><trkpt lat="41.56055117151754" lon="0.514073218183307"><ele>128.0</ele><time>2026-05-04T13:30:59.002Z</time></trkpt><trkpt lat="41.5606078178869" lon="0.5141761835932405"><ele>128.33333333333331</ele><time>2026-05-04T13:31:00.002Z</time></trkpt><trkpt lat="41.56063903783412" lon="0.5142837930611599"><ele>128.66666666666666</ele><time>2026-05-04T13:31:01.002Z</time></trkpt><trkpt lat="41.56065954698034" lon="0.5143815289042001"><ele>129.0</ele><time>2026-05-04T13:31:02.002Z</time></trkpt><trkpt lat="41.560712030183126" lon="0.5144702767491901"><ele>129.33333333333334</ele><time>2026-05-04T13:31:03.002Z</time></trkpt><trkpt lat="41.56079003982922" lon="0.5145424065304618"><ele>129.66666666666669</ele><time>2026-05-04T13:31:04.002Z</time></trkpt><trkpt lat="41.560886647940656" lon="0.5145767024053428"><ele>130.0</ele><time>2026-05-04T13:31:05.002Z</time></trkpt><trkpt lat="41.56098281902206" lon="0.5146048967800143"><ele>130.0</ele><time>2026-05-04T13:31:06.002Z</time></trkpt><trkpt lat="41.561072269162636" lon="0.514682487750336"><ele>130.0</ele><time>2026-05-04T13:31:07.002Z</time></trkpt><trkpt lat="41.56115220130182" lon="0.5147815381736177"><ele>130.0</ele><time>2026-05-04T13:31:08.002Z</time></trkpt><trkpt lat="41.56123025504855" lon="0.5148806243343466"><ele>130.0</ele><time>2026-05-04T13:31:09.002Z</time></trkpt><trkpt lat="41.561312798674635" lon="0.5149814684345414"><ele>130.0</ele><time>2026-05-04T13:31:10.002Z</time></trkpt><trkpt lat="41.561397848635494" lon="0.5150608179455629"><ele>130.0</ele><time>2026-05-04T13:31:11.002Z</time></trkpt><trkpt lat="41.561478938654176" lon="0.5151284141065435"><ele>130.0</ele><time>2026-05-04T13:31:12.002Z</time></trkpt><trkpt lat="41.56156617124926" lon="0.515289624425428"><ele>130.0</ele><time>2026-05-04T13:31:13.002Z</time></trkpt><trkpt lat="41.56165119530295" lon="0.5153959335945885"><ele>130.0</ele><time>2026-05-04T13:31:14.002Z</time></trkpt><trkpt lat="41.56173740241143" lon="0.5154967001209309"><ele>130.0</ele><time>2026-05-04T13:31:15.002Z</time></trkpt><trkpt lat="41.56182276101068" lon="0.5155956892090173"><ele>130.0</ele><time>2026-05-04T13:31:16.002Z</time></trkpt><trkpt lat="41.56190659950118" lon="0.5156956529914833"><ele>130.0</ele><time>2026-05-04T13:31:17.002Z</time></trkpt><trkpt lat="41.56199039213595" lon="0.5157968511796314"><ele>130.0</ele><time>2026-05-04T13:31:18.002Z</time></trkpt><trkpt lat="41.562074994865426" lon="0.5159013447312125"><ele>130.0</ele><time>2026-05-04T13:31:19.002Z</time></trkpt><trkpt lat="41.56215721339141" lon="0.5160073303987409"><ele>130.0</ele><time>2026-05-04T13:31:20.002Z</time></trkpt><trkpt lat="41.562241457638386" lon="0.5161147339446701"><ele>130.0</ele><time>2026-05-04T13:31:21.002Z</time></trkpt><trkpt lat="41.56232105336426" lon="0.5162239754675243"><ele>130.0</ele><time>2026-05-04T13:31:22.002Z</time></trkpt><trkpt lat="41.56239565603656" lon="0.5163424561793782"><ele>129.5</ele><time>2026-05-04T13:31:23.002Z</time></trkpt><trkpt lat="41.562467292421815" lon="0.5164641490864009"><ele>129.0</ele><time>2026-05-04T13:31:24.002Z</time></trkpt><trkpt lat="41.56253365380108" lon="0.5165907498787895"><ele>128.5</ele><time>2026-05-04T13:31:25.002Z</time></trkpt><trkpt lat="41.56260008675353" lon="0.5167193283437984"><ele>128.0</ele><time>2026-05-04T13:31:26.002Z</time></trkpt><trkpt lat="41.56265667902269" lon="0.5168519798393413"><ele>128.0</ele><time>2026-05-04T13:31:27.002Z</time></trkpt><trkpt lat="41.56271027058864" lon="0.5169918059237315"><ele>128.0</ele><time>2026-05-04T13:31:28.002Z</time></trkpt><trkpt lat="41.56275402937078" lon="0.5171370144372047"><ele>128.0</ele><time>2026-05-04T13:31:29.002Z</time></trkpt><trkpt lat="41.56278742640241" lon="0.5172823340936311"><ele>128.0</ele><time>2026-05-04T13:31:30.003Z</time></trkpt><trkpt lat="41.562814316228504" lon="0.5174347012915333"><ele>128.0</ele><time>2026-05-04T13:31:31.003Z</time></trkpt><trkpt lat="41.562835860354994" lon="0.5175910488441743"><ele>128.0</ele><time>2026-05-04T13:31:32.003Z</time></trkpt><trkpt lat="41.56284394023858" lon="0.5177471742824327"><ele>128.0</ele><time>2026-05-04T13:31:33.003Z</time></trkpt><trkpt lat="41.56284828594856" lon="0.517901863062308"><ele>128.0</ele><time>2026-05-04T13:31:34.003Z</time></trkpt><trkpt lat="41.56284918970275" lon="0.5180427736058381"><ele>128.0</ele><time>2026-05-04T13:31:35.003Z</time></trkpt><trkpt lat="41.56284453546951" lon="0.5181834703422116"><ele>128.0</ele><time>2026-05-04T13:31:36.003Z</time></trkpt><trkpt lat="41.56283819868132" lon="0.5183198326078536"><ele>128.0</ele><time>2026-05-04T13:31:37.003Z</time></trkpt><trkpt lat="41.56283066579656" lon="0.5184373889647375"><ele>128.0</ele><time>2026-05-04T13:31:38.003Z</time></trkpt><trkpt lat="41.562821370645246" lon="0.518551988318334"><ele>128.0</ele><time>2026-05-04T13:31:39.003Z</time></trkpt><trkpt lat="41.562807728854075" lon="0.5186575402636335"><ele>128.33333333333331</ele><time>2026-05-04T13:31:40.003Z</time></trkpt><trkpt lat="41.56279803294329" lon="0.5187615184215004"><ele>128.66666666666666</ele><time>2026-05-04T13:31:41.003Z</time></trkpt><trkpt lat="41.56278891906482" lon="0.5188654145633476"><ele>129.0</ele><time>2026-05-04T13:31:42.003Z</time></trkpt><trkpt lat="41.56278020116955" lon="0.5189598657158685"><ele>129.33333333333334</ele><time>2026-05-04T13:31:43Z</time></trkpt><trkpt lat="41.56276181490546" lon="0.5191172307839815"><ele>129.66666666666669</ele><time>2026-05-04T13:31:45Z</time></trkpt><trkpt lat="41.56275221300367" lon="0.5192301928191193"><ele>130.0</ele><time>2026-05-04T13:31:47Z</time></trkpt><trkpt lat="41.56273841421474" lon="0.519346449222379"><ele>130.0</ele><time>2026-05-04T13:31:50Z</time></trkpt><trkpt lat="41.56271819115899" lon="0.519500978502529"><ele>130.0</ele><time>2026-05-04T13:31:52Z</time></trkpt><trkpt lat="41.562704501177954" lon="0.5195990748930815"><ele>130.0</ele><time>2026-05-04T13:31:53Z</time></trkpt><trkpt lat="41.56269731907735" lon="0.519695848840636"><ele>130.0</ele><time>2026-05-04T13:31:54Z</time></trkpt><trkpt lat="41.56268044334128" lon="0.5198026661464299"><ele>130.0</ele><time>2026-05-04T13:31:55Z</time></trkpt><trkpt lat="41.562657074010396" lon="0.5199132135991809"><ele>130.0</ele><time>2026-05-04T13:31:56Z</time></trkpt><trkpt lat="41.56262691066583" lon="0.5200273792293516"><ele>130.2</ele><time>2026-05-04T13:31:57Z</time></trkpt><trkpt lat="41.5625897579239" lon="0.5201479964850714"><ele>130.4</ele><time>2026-05-04T13:31:58Z</time></trkpt><trkpt lat="41.56254636144829" lon="0.5202655971348669"><ele>130.6</ele><time>2026-05-04T13:31:59Z</time></trkpt><trkpt lat="41.56249590205907" lon="0.5203805091204708"><ele>130.8</ele><time>2026-05-04T13:32:00Z</time></trkpt><trkpt lat="41.56244503362572" lon="0.520497153054922"><ele>131.0</ele><time>2026-05-04T13:32:01Z</time></trkpt><trkpt lat="41.56239268250108" lon="0.5206127712722702"><ele>131.2</ele><time>2026-05-04T13:32:02Z</time></trkpt><trkpt lat="41.56233927226143" lon="0.5207341443537716"><ele>131.39999999999998</ele><time>2026-05-04T13:32:03Z</time></trkpt><trkpt lat="41.56228487370097" lon="0.5208575701739709"><ele>131.6</ele><time>2026-05-04T13:32:04Z</time></trkpt><trkpt lat="41.56222473964083" lon="0.5209782176681909"><ele>131.79999999999998</ele><time>2026-05-04T13:32:05Z</time></trkpt><trkpt lat="41.56216129665677" lon="0.5210975372063157"><ele>132.0</ele><time>2026-05-04T13:32:06Z</time></trkpt><trkpt lat="41.56210392261648" lon="0.5212218918115155"><ele>132.0</ele><time>2026-05-04T13:32:07Z</time></trkpt><trkpt lat="41.5620441670317" lon="0.5213346405683298"><ele>132.0</ele><time>2026-05-04T13:32:08Z</time></trkpt><trkpt lat="41.56199125025531" lon="0.5214578427163649"><ele>132.0</ele><time>2026-05-04T13:32:09Z</time></trkpt><trkpt lat="41.56193082910698" lon="0.5215721987793442"><ele>132.0</ele><time>2026-05-04T13:32:10Z</time></trkpt><trkpt lat="41.561872773461914" lon="0.5216862055432854"><ele>132.0</ele><time>2026-05-04T13:32:11Z</time></trkpt><trkpt lat="41.561813205762576" lon="0.5218006893289284"><ele>132.0</ele><time>2026-05-04T13:32:12Z</time></trkpt><trkpt lat="41.56175846618439" lon="0.5219156609937592"><ele>132.0</ele><time>2026-05-04T13:32:13Z</time></trkpt><trkpt lat="41.56170224140335" lon="0.5220286803583774"><ele>132.0</ele><time>2026-05-04T13:32:14Z</time></trkpt><trkpt lat="41.56164761134914" lon="0.5221436276257863"><ele>132.0</ele><time>2026-05-04T13:32:15Z</time></trkpt><trkpt lat="41.561588349157645" lon="0.522250907241732"><ele>132.0</ele><time>2026-05-04T13:32:16Z</time></trkpt><trkpt lat="41.56153457097901" lon="0.5223667680907235"><ele>132.0</ele><time>2026-05-04T13:32:17.001Z</time></trkpt><trkpt lat="41.561471669585565" lon="0.522476828931846"><ele>132.0</ele><time>2026-05-04T13:32:18.001Z</time></trkpt><trkpt lat="41.56140883092067" lon="0.5225856316162808"><ele>132.0</ele><time>2026-05-04T13:32:19.001Z</time></trkpt><trkpt lat="41.5613518996585" lon="0.5226986375130821"><ele>132.0</ele><time>2026-05-04T13:32:20.001Z</time></trkpt><trkpt lat="41.56129420716479" lon="0.5228128420663342"><ele>132.0</ele><time>2026-05-04T13:32:21.001Z</time></trkpt><trkpt lat="41.561237527511594" lon="0.5229276659518555"><ele>131.6</ele><time>2026-05-04T13:32:22.001Z</time></trkpt><trkpt lat="41.56118340511891" lon="0.5230372573252507"><ele>131.2</ele><time>2026-05-04T13:32:23.001Z</time></trkpt><trkpt lat="41.56112244631252" lon="0.5231495392464071"><ele>130.8</ele><time>2026-05-04T13:32:24.001Z</time></trkpt><trkpt lat="41.561071224994244" lon="0.5232680368059701"><ele>130.4</ele><time>2026-05-04T13:32:25.001Z</time></trkpt><trkpt lat="41.56102243711822" lon="0.5233910625312505"><ele>130.0</ele><time>2026-05-04T13:32:26.001Z</time></trkpt><trkpt lat="41.56097891219962" lon="0.5235148555593044"><ele>130.0</ele><time>2026-05-04T13:32:27.001Z</time></trkpt><trkpt lat="41.56094844044076" lon="0.5236558218781002"><ele>130.0</ele><time>2026-05-04T13:32:28.001Z</time></trkpt><trkpt lat="41.560931019058124" lon="0.5238002024653281"><ele>130.0</ele><time>2026-05-04T13:32:29.001Z</time></trkpt><trkpt lat="41.56092187774595" lon="0.523940863386947"><ele>130.0</ele><time>2026-05-04T13:32:30.001Z</time></trkpt><trkpt lat="41.560918427310064" lon="0.5240860759273259"><ele>130.0</ele><time>2026-05-04T13:32:31.001Z</time></trkpt><trkpt lat="41.56092192718553" lon="0.5242319619016768"><ele>129.8</ele><time>2026-05-04T13:32:32.001Z</time></trkpt><trkpt lat="41.56092939061837" lon="0.5243759530033191"><ele>129.6</ele><time>2026-05-04T13:32:33.001Z</time></trkpt><trkpt lat="41.560947268464275" lon="0.5245193176865317"><ele>129.4</ele><time>2026-05-04T13:32:34.001Z</time></trkpt><trkpt lat="41.560965305366494" lon="0.5246563377887117"><ele>129.2</ele><time>2026-05-04T13:32:35.001Z</time></trkpt><trkpt lat="41.56098640991661" lon="0.5247972348186275"><ele>129.0</ele><time>2026-05-04T13:32:36.001Z</time></trkpt><trkpt lat="41.56101299121589" lon="0.5249347172309616"><ele>128.6</ele><time>2026-05-04T13:32:37.001Z</time></trkpt><trkpt lat="41.56104282069828" lon="0.5250693012173114"><ele>128.2</ele><time>2026-05-04T13:32:38.001Z</time></trkpt><trkpt lat="41.561086963275606" lon="0.5251956906688305"><ele>127.79999999999998</ele><time>2026-05-04T13:32:39.001Z</time></trkpt><trkpt lat="41.56114519676317" lon="0.5253192933605928"><ele>127.39999999999999</ele><time>2026-05-04T13:32:40.001Z</time></trkpt><trkpt lat="41.56119829505256" lon="0.525435349740279"><ele>127.0</ele><time>2026-05-04T13:32:41.001Z</time></trkpt><trkpt lat="41.56126323800716" lon="0.5255509595670802"><ele>127.0</ele><time>2026-05-04T13:32:42.001Z</time></trkpt><trkpt lat="41.56133311164288" lon="0.5256662888435157"><ele>126.99999999999999</ele><time>2026-05-04T13:32:43.001Z</time></trkpt><trkpt lat="41.56140685898431" lon="0.5257744852471842"><ele>126.99999999999999</ele><time>2026-05-04T13:32:44.001Z</time></trkpt><trkpt lat="41.561485459177135" lon="0.5258795673419248"><ele>127.0</ele><time>2026-05-04T13:32:45.001Z</time></trkpt><trkpt lat="41.56156738206183" lon="0.5259795049056768"><ele>127.0</ele><time>2026-05-04T13:32:46.001Z</time></trkpt><trkpt lat="41.56164749123" lon="0.5260899266445828"><ele>127.0</ele><time>2026-05-04T13:32:47.001Z</time></trkpt><trkpt lat="41.56172550717037" lon="0.5261945481078782"><ele>127.0</ele><time>2026-05-04T13:32:48.001Z</time></trkpt><trkpt lat="41.56179184248615" lon="0.52628223606796"><ele>127.0</ele><time>2026-05-04T13:32:49.001Z</time></trkpt><trkpt lat="41.56181631189796" lon="0.5263672155223772"><ele>127.0</ele><time>2026-05-04T13:32:51.001Z</time></trkpt><trkpt lat="41.562052178089814" lon="0.5266088246309764"><ele>127.19999999999999</ele><time>2026-05-04T13:32:52.001Z</time></trkpt><trkpt lat="41.562136311550695" lon="0.5267111083937678"><ele>127.39999999999999</ele><time>2026-05-04T13:32:53.001Z</time></trkpt><trkpt lat="41.5622136807314" lon="0.5268195365939145"><ele>127.60000000000001</ele><time>2026-05-04T13:32:54.001Z</time></trkpt><trkpt lat="41.562292512037686" lon="0.5269277597605697"><ele>127.80000000000001</ele><time>2026-05-04T13:32:55.001Z</time></trkpt><trkpt lat="41.56237489355734" lon="0.527026125679803"><ele>128.0</ele><time>2026-05-04T13:32:56.002Z</time></trkpt><trkpt lat="41.56245284659684" lon="0.5271229928026628"><ele>128.0</ele><time>2026-05-04T13:32:57.002Z</time></trkpt><trkpt lat="41.562529791014924" lon="0.5272232099879194"><ele>128.0</ele><time>2026-05-04T13:32:58.002Z</time></trkpt><trkpt lat="41.56260442284097" lon="0.5273175044250861"><ele>128.0</ele><time>2026-05-04T13:32:59.002Z</time></trkpt><trkpt lat="41.56268035837521" lon="0.527417098534356"><ele>128.0</ele><time>2026-05-04T13:33:00.002Z</time></trkpt><trkpt lat="41.56275281820883" lon="0.5275112793111176"><ele>128.0</ele><time>2026-05-04T13:33:01.002Z</time></trkpt><trkpt lat="41.562825417667604" lon="0.5276027767825306"><ele>128.6</ele><time>2026-05-04T13:33:02.002Z</time></trkpt><trkpt lat="41.56290005783251" lon="0.52769779082338"><ele>129.20000000000002</ele><time>2026-05-04T13:33:03.002Z</time></trkpt><trkpt lat="41.562979987649356" lon="0.527795965520985"><ele>129.8</ele><time>2026-05-04T13:33:04.002Z</time></trkpt><trkpt lat="41.56306132277294" lon="0.5278948945203041"><ele>130.4</ele><time>2026-05-04T13:33:05.002Z</time></trkpt><trkpt lat="41.56313385727763" lon="0.5279941333787659"><ele>131.0</ele><time>2026-05-04T13:33:06.002Z</time></trkpt><trkpt lat="41.563212754708225" lon="0.5280971138703334"><ele>131.0</ele><time>2026-05-04T13:33:07.002Z</time></trkpt><trkpt lat="41.56329184778536" lon="0.528200470823439"><ele>131.0</ele><time>2026-05-04T13:33:08.002Z</time></trkpt><trkpt lat="41.56336867292776" lon="0.5283018178495551"><ele>131.0</ele><time>2026-05-04T13:33:09.002Z</time></trkpt><trkpt lat="41.56344742102881" lon="0.5284059420819543"><ele>131.0</ele><time>2026-05-04T13:33:10.002Z</time></trkpt><trkpt lat="41.5635260789587" lon="0.5285081000053506"><ele>131.0</ele><time>2026-05-04T13:33:11.002Z</time></trkpt><trkpt lat="41.56360640787009" lon="0.5286057336791772"><ele>131.0</ele><time>2026-05-04T13:33:12.002Z</time></trkpt><trkpt lat="41.56368833506628" lon="0.5287018495210319"><ele>131.0</ele><time>2026-05-04T13:33:13.002Z</time></trkpt><trkpt lat="41.56377490438834" lon="0.528787709897796"><ele>131.0</ele><time>2026-05-04T13:33:14.002Z</time></trkpt><trkpt lat="41.56386512200298" lon="0.5288645322832518"><ele>131.0</ele><time>2026-05-04T13:33:15.002Z</time></trkpt><trkpt lat="41.56395744669723" lon="0.5289336631403269"><ele>131.0</ele><time>2026-05-04T13:33:16.002Z</time></trkpt><trkpt lat="41.564050817455986" lon="0.5289944108148397"><ele>130.8</ele><time>2026-05-04T13:33:17.002Z</time></trkpt><trkpt lat="41.56414423747159" lon="0.5290567823129507"><ele>130.6</ele><time>2026-05-04T13:33:18.002Z</time></trkpt><trkpt lat="41.56423841776947" lon="0.5291082077310191"><ele>130.4</ele><time>2026-05-04T13:33:19.002Z</time></trkpt><trkpt lat="41.564332223841134" lon="0.5291651403303738"><ele>130.2</ele><time>2026-05-04T13:33:20.002Z</time></trkpt><trkpt lat="41.56442356519647" lon="0.5292235710259783"><ele>130.0</ele><time>2026-05-04T13:33:21.002Z</time></trkpt><trkpt lat="41.56451532491503" lon="0.529281700847996"><ele>130.6</ele><time>2026-05-04T13:33:22.002Z</time></trkpt><trkpt lat="41.56461460235844" lon="0.5293342432196059"><ele>131.2</ele><time>2026-05-04T13:33:23.002Z</time></trkpt><trkpt lat="41.56471403064603" lon="0.5293909784070491"><ele>131.8</ele><time>2026-05-04T13:33:24.002Z</time></trkpt><trkpt lat="41.564812627126216" lon="0.5294495905836263"><ele>132.4</ele><time>2026-05-04T13:33:25.002Z</time></trkpt><trkpt lat="41.56491328829993" lon="0.5295093740675172"><ele>133.0</ele><time>2026-05-04T13:33:26.002Z</time></trkpt><trkpt lat="41.565012918892265" lon="0.5295706536855678"><ele>133.0</ele><time>2026-05-04T13:33:27.002Z</time></trkpt><trkpt lat="41.56511444624036" lon="0.5296280628984257"><ele>133.0</ele><time>2026-05-04T13:33:28.002Z</time></trkpt><trkpt lat="41.56521780276329" lon="0.5296857126367048"><ele>133.0</ele><time>2026-05-04T13:33:29.002Z</time></trkpt><trkpt lat="41.56532719979202" lon="0.52974061108693"><ele>133.0</ele><time>2026-05-04T13:33:30.002Z</time></trkpt><trkpt lat="41.56542205727808" lon="0.5298036288626404"><ele>133.0</ele><time>2026-05-04T13:33:31.002Z</time></trkpt><trkpt lat="41.56551440751804" lon="0.5298611546193313"><ele>133.6</ele><time>2026-05-04T13:33:32.002Z</time></trkpt><trkpt lat="41.56560802666062" lon="0.5299251070707425"><ele>134.20000000000002</ele><time>2026-05-04T13:33:33.002Z</time></trkpt><trkpt lat="41.56570608316225" lon="0.5299788620695289"><ele>134.8</ele><time>2026-05-04T13:33:34.003Z</time></trkpt><trkpt lat="41.56579326308923" lon="0.5300214086540473"><ele>135.4</ele><time>2026-05-04T13:33:35.003Z</time></trkpt><trkpt lat="41.56587221151478" lon="0.5300650419879692"><ele>136.0</ele><time>2026-05-04T13:33:36.003Z</time></trkpt><trkpt lat="41.56594195371064" lon="0.5301162142828819"><ele>136.0</ele><time>2026-05-04T13:33:37.003Z</time></trkpt><trkpt lat="41.56599681078137" lon="0.5301625757917895"><ele>136.0</ele><time>2026-05-04T13:33:38.003Z</time></trkpt><trkpt lat="41.56605288923254" lon="0.5302119559142334"><ele>136.0</ele><time>2026-05-04T13:33:39.003Z</time></trkpt><trkpt lat="41.5660927906605" lon="0.53030540936203"><ele>136.0</ele><time>2026-05-04T13:33:40.003Z</time></trkpt><trkpt lat="41.56611209903139" lon="0.5304023495686256"><ele>136.0</ele><time>2026-05-04T13:33:41.003Z</time></trkpt><trkpt lat="41.56623449994687" lon="0.5304928461319302"><ele>136.0</ele><time>2026-05-04T13:33:44.003Z</time></trkpt><trkpt lat="41.56633206593557" lon="0.530527984021312"><ele>136.16666666666669</ele><time>2026-05-04T13:33:45.003Z</time></trkpt><trkpt lat="41.566347654537" lon="0.5306419154155883"><ele>136.33333333333334</ele><time>2026-05-04T13:33:46.003Z</time></trkpt><trkpt lat="41.566393371363034" lon="0.5307154683532445"><ele>136.5</ele><time>2026-05-04T13:33:47.003Z</time></trkpt><trkpt lat="41.56643536233808" lon="0.5308030848214255"><ele>136.66666666666666</ele><time>2026-05-04T13:33:48.003Z</time></trkpt><trkpt lat="41.56648211941646" lon="0.5309014306095176"><ele>136.83333333333331</ele><time>2026-05-04T13:33:49Z</time></trkpt><trkpt lat="41.56653688776851" lon="0.5310010844638426"><ele>137.0</ele><time>2026-05-04T13:33:50Z</time></trkpt><trkpt lat="41.56658929758194" lon="0.5311042596489441"><ele>137.0</ele><time>2026-05-04T13:33:51Z</time></trkpt><trkpt lat="41.56664240781413" lon="0.5312050842578387"><ele>137.0</ele><time>2026-05-04T13:33:52Z</time></trkpt><trkpt lat="41.566692043934985" lon="0.5312965585428473"><ele>137.0</ele><time>2026-05-04T13:33:53Z</time></trkpt><trkpt lat="41.56673862344578" lon="0.5313793170465314"><ele>137.0</ele><time>2026-05-04T13:33:54Z</time></trkpt><trkpt lat="41.56678680249119" lon="0.5314624552340979"><ele>137.0</ele><time>2026-05-04T13:33:55Z</time></trkpt><trkpt lat="41.56683613761828" lon="0.5315516603628652"><ele>137.0</ele><time>2026-05-04T13:33:56Z</time></trkpt><trkpt lat="41.56688335641682" lon="0.5316448277863166"><ele>137.2</ele><time>2026-05-04T13:33:57Z</time></trkpt><trkpt lat="41.5669338773256" lon="0.5317401988731314"><ele>137.39999999999998</ele><time>2026-05-04T13:33:58Z</time></trkpt><trkpt lat="41.566982928532" lon="0.5318389409871935"><ele>137.60000000000002</ele><time>2026-05-04T13:33:59Z</time></trkpt><trkpt lat="41.56703788206115" lon="0.5319426123929112"><ele>137.8</ele><time>2026-05-04T13:34:00Z</time></trkpt><trkpt lat="41.567094511722075" lon="0.5320402460010233"><ele>138.0</ele><time>2026-05-04T13:34:01Z</time></trkpt><trkpt lat="41.5671507479333" lon="0.5321512961942839"><ele>138.0</ele><time>2026-05-04T13:34:02Z</time></trkpt><trkpt lat="41.56720532755791" lon="0.5322586308092082"><ele>138.0</ele><time>2026-05-04T13:34:03Z</time></trkpt><trkpt lat="41.567264239045926" lon="0.5323731127621679"><ele>138.0</ele><time>2026-05-04T13:34:04Z</time></trkpt><trkpt lat="41.56732138773338" lon="0.5324851823580538"><ele>138.0</ele><time>2026-05-04T13:34:05Z</time></trkpt><trkpt lat="41.567382894297545" lon="0.5326011799481016"><ele>138.0</ele><time>2026-05-04T13:34:06Z</time></trkpt><trkpt lat="41.56744270048364" lon="0.5327204178668667"><ele>138.0</ele><time>2026-05-04T13:34:07Z</time></trkpt><trkpt lat="41.56749858057396" lon="0.5328427833806971"><ele>138.0</ele><time>2026-05-04T13:34:08Z</time></trkpt><trkpt lat="41.56755811341552" lon="0.5329666370966263"><ele>138.0</ele><time>2026-05-04T13:34:09Z</time></trkpt><trkpt lat="41.56761856237525" lon="0.5330838493283819"><ele>138.0</ele><time>2026-05-04T13:34:10Z</time></trkpt><trkpt lat="41.567678961556204" lon="0.5332074031747623"><ele>138.0</ele><time>2026-05-04T13:34:11Z</time></trkpt><trkpt lat="41.56773514882676" lon="0.5333420339219352"><ele>137.25</ele><time>2026-05-04T13:34:12Z</time></trkpt><trkpt lat="41.56779178410157" lon="0.5334758591976525"><ele>136.5</ele><time>2026-05-04T13:34:13.001Z</time></trkpt><trkpt lat="41.567853870764374" lon="0.5336069835272083"><ele>135.75</ele><time>2026-05-04T13:34:14.001Z</time></trkpt><trkpt lat="41.56791283496648" lon="0.5337410149472002"><ele>135.0</ele><time>2026-05-04T13:34:15.001Z</time></trkpt><trkpt lat="41.56796999361037" lon="0.5338769535486731"><ele>134.75</ele><time>2026-05-04T13:34:16.001Z</time></trkpt><trkpt lat="41.568025795389836" lon="0.534014540280316"><ele>134.5</ele><time>2026-05-04T13:34:17.001Z</time></trkpt><trkpt lat="41.568081295350524" lon="0.5341555266648293"><ele>134.25</ele><time>2026-05-04T13:34:18.001Z</time></trkpt><trkpt lat="41.568138041756264" lon="0.5342889093713279"><ele>134.0</ele><time>2026-05-04T13:34:19.001Z</time></trkpt><trkpt lat="41.568196869854376" lon="0.5344286984064164"><ele>133.5</ele><time>2026-05-04T13:34:20.001Z</time></trkpt><trkpt lat="41.56825342394773" lon="0.5345674166017768"><ele>133.0</ele><time>2026-05-04T13:34:21.001Z</time></trkpt><trkpt lat="41.56831077322789" lon="0.5347062285842222"><ele>132.5</ele><time>2026-05-04T13:34:22.001Z</time></trkpt><trkpt lat="41.56836753377575" lon="0.5348431380823784"><ele>132.0</ele><time>2026-05-04T13:34:23.001Z</time></trkpt><trkpt lat="41.56842390635779" lon="0.5349850974220153"><ele>132.0</ele><time>2026-05-04T13:34:24.001Z</time></trkpt><trkpt lat="41.568479631089666" lon="0.5351222915360465"><ele>132.0</ele><time>2026-05-04T13:34:25.001Z</time></trkpt><trkpt lat="41.56853602864174" lon="0.5352599311876961"><ele>132.0</ele><time>2026-05-04T13:34:26.001Z</time></trkpt><trkpt lat="41.56859052356808" lon="0.535399871001695"><ele>132.0</ele><time>2026-05-04T13:34:27.001Z</time></trkpt><trkpt lat="41.56864721283495" lon="0.5355361842581828"><ele>132.0</ele><time>2026-05-04T13:34:28.001Z</time></trkpt><trkpt lat="41.568702340384604" lon="0.5356681575471725"><ele>132.0</ele><time>2026-05-04T13:34:29.001Z</time></trkpt><trkpt lat="41.56875762453022" lon="0.5358008546085989"><ele>132.0</ele><time>2026-05-04T13:34:30.001Z</time></trkpt><trkpt lat="41.56881294019077" lon="0.5359328619306457"><ele>132.0</ele><time>2026-05-04T13:34:31.001Z</time></trkpt><trkpt lat="41.56886705226242" lon="0.5360631613154593"><ele>132.0</ele><time>2026-05-04T13:34:32.001Z</time></trkpt><trkpt lat="41.56892515111518" lon="0.536196065721863"><ele>132.0</ele><time>2026-05-04T13:34:33.001Z</time></trkpt><trkpt lat="41.568979815517565" lon="0.5363323487808195"><ele>132.0</ele><time>2026-05-04T13:34:34.001Z</time></trkpt><trkpt lat="41.56903234415021" lon="0.5364612641582291"><ele>132.0</ele><time>2026-05-04T13:34:35.001Z</time></trkpt><trkpt lat="41.569087678355864" lon="0.5365911672792258"><ele>132.25</ele><time>2026-05-04T13:34:36.001Z</time></trkpt><trkpt lat="41.56914389385457" lon="0.5367165028577046"><ele>132.5</ele><time>2026-05-04T13:34:37.001Z</time></trkpt><trkpt lat="41.5692032059371" lon="0.5368545518332964"><ele>132.75</ele><time>2026-05-04T13:34:38.001Z</time></trkpt><trkpt lat="41.56927317065257" lon="0.5369752530467669"><ele>133.0</ele><time>2026-05-04T13:34:39.001Z</time></trkpt><trkpt lat="41.56937937233695" lon="0.5371111950583931"><ele>133.5</ele><time>2026-05-04T13:34:40.001Z</time></trkpt><trkpt lat="41.56949794247663" lon="0.5372379641522477"><ele>134.0</ele><time>2026-05-04T13:34:41.001Z</time></trkpt><trkpt lat="41.56944762918315" lon="0.5373520844002576"><ele>134.5</ele><time>2026-05-04T13:34:42.001Z</time></trkpt><trkpt lat="41.56950927278432" lon="0.5374777470627947"><ele>135.0</ele><time>2026-05-04T13:34:43.001Z</time></trkpt><trkpt lat="41.569576036173046" lon="0.5376061222488664"><ele>135.25</ele><time>2026-05-04T13:34:44.001Z</time></trkpt><trkpt lat="41.56964071916092" lon="0.5377403606533615"><ele>135.5</ele><time>2026-05-04T13:34:45.001Z</time></trkpt><trkpt lat="41.56970466521978" lon="0.5378661772301138"><ele>135.75</ele><time>2026-05-04T13:34:46.001Z</time></trkpt><trkpt lat="41.569771806558144" lon="0.5379924913428326"><ele>136.0</ele><time>2026-05-04T13:34:47.001Z</time></trkpt><trkpt lat="41.56984080015999" lon="0.5381224666941465"><ele>136.25</ele><time>2026-05-04T13:34:48.001Z</time></trkpt><trkpt lat="41.56989836663646" lon="0.5382481736781357"><ele>136.5</ele><time>2026-05-04T13:34:49.001Z</time></trkpt><trkpt lat="41.56996102056632" lon="0.5383774225928548"><ele>136.75</ele><time>2026-05-04T13:34:50.001Z</time></trkpt><trkpt lat="41.57002961062751" lon="0.5385077345695297"><ele>137.0</ele><time>2026-05-04T13:34:51.001Z</time></trkpt><trkpt lat="41.57009151130246" lon="0.5386326508029166"><ele>137.0</ele><time>2026-05-04T13:34:52.001Z</time></trkpt><trkpt lat="41.57016232156799" lon="0.5387552670638064"><ele>137.0</ele><time>2026-05-04T13:34:53.001Z</time></trkpt><trkpt lat="41.57022761323308" lon="0.5388726534553209"><ele>137.0</ele><time>2026-05-04T13:34:54.001Z</time></trkpt><trkpt lat="41.57028937233792" lon="0.5389950162255442"><ele>137.0</ele><time>2026-05-04T13:34:55.001Z</time></trkpt><trkpt lat="41.570355870082345" lon="0.5391160031270885"><ele>137.0</ele><time>2026-05-04T13:34:56.002Z</time></trkpt><trkpt lat="41.57042453833756" lon="0.5392356307937249"><ele>137.0</ele><time>2026-05-04T13:34:57.002Z</time></trkpt><trkpt lat="41.57048732886222" lon="0.539356411035298"><ele>137.0</ele><time>2026-05-04T13:34:58.002Z</time></trkpt><trkpt lat="41.57054442250406" lon="0.5394848431244067"><ele>137.0</ele><time>2026-05-04T13:34:59.002Z</time></trkpt><trkpt lat="41.570600922696165" lon="0.5396070703183093"><ele>137.0</ele><time>2026-05-04T13:35:00.002Z</time></trkpt><trkpt lat="41.57065669922819" lon="0.5397368581076546"><ele>137.0</ele><time>2026-05-04T13:35:01.002Z</time></trkpt><trkpt lat="41.57071415081221" lon="0.5398663042730512"><ele>137.0</ele><time>2026-05-04T13:35:02.002Z</time></trkpt><trkpt lat="41.57077231286644" lon="0.5399961694091151"><ele>137.0</ele><time>2026-05-04T13:35:03.002Z</time></trkpt><trkpt lat="41.57084485150641" lon="0.5401122162638479"><ele>137.0</ele><time>2026-05-04T13:35:04.002Z</time></trkpt><trkpt lat="41.57090147326473" lon="0.5402507647966188"><ele>137.0</ele><time>2026-05-04T13:35:05.002Z</time></trkpt><trkpt lat="41.57095224040509" lon="0.5403843965049442"><ele>137.0</ele><time>2026-05-04T13:35:06.002Z</time></trkpt><trkpt lat="41.57099256650178" lon="0.5405334009743552"><ele>137.0</ele><time>2026-05-04T13:35:07.002Z</time></trkpt><trkpt lat="41.57103488690101" lon="0.5407067794584263"><ele>137.0</ele><time>2026-05-04T13:35:08.002Z</time></trkpt><trkpt lat="41.571110799301884" lon="0.540887974883845"><ele>137.0</ele><time>2026-05-04T13:35:09.002Z</time></trkpt><trkpt lat="41.57122406077554" lon="0.5410449804843344"><ele>137.6</ele><time>2026-05-04T13:35:11.002Z</time></trkpt><trkpt lat="41.571277259689104" lon="0.5411762811130194"><ele>138.2</ele><time>2026-05-04T13:35:12.002Z</time></trkpt><trkpt lat="41.571328075295284" lon="0.5413047873183925"><ele>138.8</ele><time>2026-05-04T13:35:13.002Z</time></trkpt><trkpt lat="41.57138179974833" lon="0.541435224405988"><ele>139.4</ele><time>2026-05-04T13:35:14.002Z</time></trkpt><trkpt lat="41.571434433072724" lon="0.5415694527465429"><ele>140.0</ele><time>2026-05-04T13:35:15.002Z</time></trkpt><trkpt lat="41.57149000552955" lon="0.5417040661162159"><ele>140.0</ele><time>2026-05-04T13:35:16.002Z</time></trkpt><trkpt lat="41.57154440525706" lon="0.5418381218620058"><ele>140.0</ele><time>2026-05-04T13:35:17.002Z</time></trkpt><trkpt lat="41.57160162715473" lon="0.541965031540648"><ele>140.0</ele><time>2026-05-04T13:35:18.002Z</time></trkpt><trkpt lat="41.57165786154275" lon="0.5421006074585482"><ele>140.0</ele><time>2026-05-04T13:35:19.002Z</time></trkpt><trkpt lat="41.57171471055368" lon="0.5422309013857841"><ele>140.0</ele><time>2026-05-04T13:35:20.002Z</time></trkpt><trkpt lat="41.57177173739562" lon="0.5423594549475865"><ele>140.0</ele><time>2026-05-04T13:35:21.002Z</time></trkpt><trkpt lat="41.57182673603384" lon="0.5424871343858788"><ele>140.0</ele><time>2026-05-04T13:35:22.002Z</time></trkpt><trkpt lat="41.57188339433352" lon="0.5426159699882448"><ele>140.0</ele><time>2026-05-04T13:35:23.002Z</time></trkpt><trkpt lat="41.57193509671629" lon="0.5427433072024498"><ele>140.0</ele><time>2026-05-04T13:35:24.002Z</time></trkpt><trkpt lat="41.57199040308572" lon="0.5428740419430438"><ele>140.0</ele><time>2026-05-04T13:35:25.002Z</time></trkpt><trkpt lat="41.572041126467106" lon="0.5430067167114323"><ele>140.0</ele><time>2026-05-04T13:35:26.002Z</time></trkpt><trkpt lat="41.57209010762134" lon="0.543140224604853"><ele>140.0</ele><time>2026-05-04T13:35:27.002Z</time></trkpt><trkpt lat="41.57213890472243" lon="0.5432739443694553"><ele>140.0</ele><time>2026-05-04T13:35:28.002Z</time></trkpt><trkpt lat="41.572185074738265" lon="0.5434131585190615"><ele>140.0</ele><time>2026-05-04T13:35:29.002Z</time></trkpt><trkpt lat="41.572229912236956" lon="0.5435492514747031"><ele>140.0</ele><time>2026-05-04T13:35:30.002Z</time></trkpt><trkpt lat="41.57227141248215" lon="0.5436936385881763"><ele>140.0</ele><time>2026-05-04T13:35:31.002Z</time></trkpt><trkpt lat="41.57230420239877" lon="0.5438370481942062"><ele>140.0</ele><time>2026-05-04T13:35:32.002Z</time></trkpt><trkpt lat="41.57233547771609" lon="0.5439794125573182"><ele>140.0</ele><time>2026-05-04T13:35:33.002Z</time></trkpt><trkpt lat="41.572362045802855" lon="0.5441259614020333"><ele>139.5</ele><time>2026-05-04T13:35:34.002Z</time></trkpt><trkpt lat="41.57238897156781" lon="0.544269339600657"><ele>139.0</ele><time>2026-05-04T13:35:35.002Z</time></trkpt><trkpt lat="41.572417673954085" lon="0.5444151168280938"><ele>138.5</ele><time>2026-05-04T13:35:36.003Z</time></trkpt><trkpt lat="41.57245030754682" lon="0.5445613141166196"><ele>138.0</ele><time>2026-05-04T13:35:37.003Z</time></trkpt><trkpt lat="41.5724802160158" lon="0.5447067009736821"><ele>137.0</ele><time>2026-05-04T13:35:38.003Z</time></trkpt><trkpt lat="41.57251118082359" lon="0.5448518952518617"><ele>136.0</ele><time>2026-05-04T13:35:39.003Z</time></trkpt><trkpt lat="41.572541731141364" lon="0.544999375213124"><ele>135.0</ele><time>2026-05-04T13:35:40.003Z</time></trkpt><trkpt lat="41.572576175212575" lon="0.5451412298739867"><ele>134.0</ele><time>2026-05-04T13:35:41.003Z</time></trkpt><trkpt lat="41.57260803733036" lon="0.5452866984171049"><ele>133.75</ele><time>2026-05-04T13:35:42.003Z</time></trkpt><trkpt lat="41.572638098271064" lon="0.5454359361603468"><ele>133.5</ele><time>2026-05-04T13:35:43.003Z</time></trkpt><trkpt lat="41.572665286773606" lon="0.5455836581196077"><ele>133.25</ele><time>2026-05-04T13:35:44.003Z</time></trkpt><trkpt lat="41.572697808322715" lon="0.5457293882630894"><ele>133.0</ele><time>2026-05-04T13:35:45.003Z</time></trkpt><trkpt lat="41.57272824574307" lon="0.5458750096783994"><ele>133.0</ele><time>2026-05-04T13:35:46.003Z</time></trkpt><trkpt lat="41.57276198966659" lon="0.5460213955084521"><ele>133.0</ele><time>2026-05-04T13:35:47.003Z</time></trkpt><trkpt lat="41.57279397524721" lon="0.5461642174652441"><ele>133.0</ele><time>2026-05-04T13:35:48.003Z</time></trkpt><trkpt lat="41.57282222564636" lon="0.5463085546301881"><ele>133.0</ele><time>2026-05-04T13:35:49.003Z</time></trkpt><trkpt lat="41.57284964956875" lon="0.5464554544548051"><ele>134.25</ele><time>2026-05-04T13:35:50.003Z</time></trkpt><trkpt lat="41.57288259914523" lon="0.546599059354939"><ele>135.5</ele><time>2026-05-04T13:35:51.003Z</time></trkpt><trkpt lat="41.572910372303234" lon="0.546745559395608"><ele>136.75</ele><time>2026-05-04T13:35:52.003Z</time></trkpt><trkpt lat="41.57294119897568" lon="0.5468935578862439"><ele>138.0</ele><time>2026-05-04T13:35:53.003Z</time></trkpt><trkpt lat="41.57297274679675" lon="0.5470420131691565"><ele>138.6</ele><time>2026-05-04T13:35:54.003Z</time></trkpt><trkpt lat="41.57300204708716" lon="0.547185466593533"><ele>139.20000000000002</ele><time>2026-05-04T13:35:55Z</time></trkpt><trkpt lat="41.57303247424031" lon="0.5473371941638737"><ele>139.8</ele><time>2026-05-04T13:35:56Z</time></trkpt><trkpt lat="41.57305923605125" lon="0.5474774848011548"><ele>140.4</ele><time>2026-05-04T13:35:57Z</time></trkpt><trkpt lat="41.573096193361124" lon="0.5476155686923471"><ele>141.0</ele><time>2026-05-04T13:35:58Z</time></trkpt><trkpt lat="41.573141843697094" lon="0.5477487382598838"><ele>141.0</ele><time>2026-05-04T13:35:59Z</time></trkpt><trkpt lat="41.573186978583884" lon="0.5478484869853573"><ele>141.0</ele><time>2026-05-04T13:36:00Z</time></trkpt><trkpt lat="41.57321796879527" lon="0.547944957723276"><ele>141.0</ele><time>2026-05-04T13:36:01Z</time></trkpt><trkpt lat="41.573269763982395" lon="0.5481791744032067"><ele>141.0</ele><time>2026-05-04T13:36:02Z</time></trkpt><trkpt lat="41.57332286130226" lon="0.5483123822172107"><ele>141.0</ele><time>2026-05-04T13:36:03Z</time></trkpt><trkpt lat="41.57337816434495" lon="0.5484437908679418"><ele>141.0</ele><time>2026-05-04T13:36:04Z</time></trkpt><trkpt lat="41.57343507715554" lon="0.5485790465338932"><ele>141.0</ele><time>2026-05-04T13:36:05Z</time></trkpt><trkpt lat="41.57349471575055" lon="0.5487102211012861"><ele>141.0</ele><time>2026-05-04T13:36:06Z</time></trkpt><trkpt lat="41.57356170091774" lon="0.5488418391120442"><ele>140.8</ele><time>2026-05-04T13:36:07Z</time></trkpt><trkpt lat="41.573624068416954" lon="0.5489691792932297"><ele>140.6</ele><time>2026-05-04T13:36:08Z</time></trkpt><trkpt lat="41.57368648764022" lon="0.5490967615834748"><ele>140.4</ele><time>2026-05-04T13:36:09Z</time></trkpt><trkpt lat="41.57374004215081" lon="0.5492172837170608"><ele>140.2</ele><time>2026-05-04T13:36:10Z</time></trkpt><trkpt lat="41.57379771757434" lon="0.5493498165117984"><ele>140.0</ele><time>2026-05-04T13:36:11Z</time></trkpt><trkpt lat="41.5738571228849" lon="0.5494739554553065"><ele>140.0</ele><time>2026-05-04T13:36:12Z</time></trkpt><trkpt lat="41.57391861375358" lon="0.549603731353711"><ele>140.0</ele><time>2026-05-04T13:36:13Z</time></trkpt><trkpt lat="41.57397476450712" lon="0.5497357708617775"><ele>140.0</ele><time>2026-05-04T13:36:14Z</time></trkpt><trkpt lat="41.57403225655939" lon="0.5498606516990916"><ele>140.0</ele><time>2026-05-04T13:36:15Z</time></trkpt><trkpt lat="41.574092189166194" lon="0.5499935955501702"><ele>140.0</ele><time>2026-05-04T13:36:16Z</time></trkpt><trkpt lat="41.574147688412545" lon="0.5501225009741708"><ele>140.0</ele><time>2026-05-04T13:36:17Z</time></trkpt><trkpt lat="41.5742002711976" lon="0.550256024191509"><ele>140.0</ele><time>2026-05-04T13:36:18Z</time></trkpt><trkpt lat="41.57425024101046" lon="0.5503857144821572"><ele>140.0</ele><time>2026-05-04T13:36:19Z</time></trkpt><trkpt lat="41.57429994308863" lon="0.550516103582298"><ele>140.0</ele><time>2026-05-04T13:36:20Z</time></trkpt><trkpt lat="41.57435103457626" lon="0.5506490404127264"><ele>140.5</ele><time>2026-05-04T13:36:21Z</time></trkpt><trkpt lat="41.574403746856504" lon="0.5507865592442667"><ele>141.0</ele><time>2026-05-04T13:36:22Z</time></trkpt><trkpt lat="41.57445237651678" lon="0.5509188566140434"><ele>141.5</ele><time>2026-05-04T13:36:23Z</time></trkpt><trkpt lat="41.57450713706078" lon="0.5510462606449603"><ele>142.0</ele><time>2026-05-04T13:36:24Z</time></trkpt><trkpt lat="41.574559002655995" lon="0.5511902146972688"><ele>141.79999999999998</ele><time>2026-05-04T13:36:25Z</time></trkpt><trkpt lat="41.57460175262738" lon="0.5513224598430512"><ele>141.6</ele><time>2026-05-04T13:36:26Z</time></trkpt><trkpt lat="41.574618576827866" lon="0.5514551799442351"><ele>141.39999999999998</ele><time>2026-05-04T13:36:27.001Z</time></trkpt><trkpt lat="41.57464546857587" lon="0.5515583292435363"><ele>141.2</ele><time>2026-05-04T13:36:28.001Z</time></trkpt><trkpt lat="41.57467672791078" lon="0.5516472616286946"><ele>141.0</ele><time>2026-05-04T13:36:29.001Z</time></trkpt><trkpt lat="41.5747952560595" lon="0.5518575688527682"><ele>141.0</ele><time>2026-05-04T13:36:30.001Z</time></trkpt><trkpt lat="41.574842279076314" lon="0.5519872456511289"><ele>141.0</ele><time>2026-05-04T13:36:31.001Z</time></trkpt><trkpt lat="41.574888598659996" lon="0.5521195463250652"><ele>141.0</ele><time>2026-05-04T13:36:32.001Z</time></trkpt><trkpt lat="41.574939938092996" lon="0.5522445030949084"><ele>141.0</ele><time>2026-05-04T13:36:33.001Z</time></trkpt><trkpt lat="41.57498854086924" lon="0.5523644440689588"><ele>141.0</ele><time>2026-05-04T13:36:34.001Z</time></trkpt><trkpt lat="41.575031215563826" lon="0.5524935101585438"><ele>140.6</ele><time>2026-05-04T13:36:35.001Z</time></trkpt><trkpt lat="41.57508425066022" lon="0.5526223565355529"><ele>140.2</ele><time>2026-05-04T13:36:36.001Z</time></trkpt><trkpt lat="41.575133222597216" lon="0.5527526820108772"><ele>139.8</ele><time>2026-05-04T13:36:37.001Z</time></trkpt><trkpt lat="41.57519377158575" lon="0.5528781944219725"><ele>139.4</ele><time>2026-05-04T13:36:38.001Z</time></trkpt><trkpt lat="41.57525862845112" lon="0.5530026781798895"><ele>139.0</ele><time>2026-05-04T13:36:39.001Z</time></trkpt><trkpt lat="41.57532911344397" lon="0.5531206180539343"><ele>139.5</ele><time>2026-05-04T13:36:40.001Z</time></trkpt><trkpt lat="41.57540481073961" lon="0.5532441133715714"><ele>140.0</ele><time>2026-05-04T13:36:41.001Z</time></trkpt><trkpt lat="41.575477771802134" lon="0.5533661660166188"><ele>140.5</ele><time>2026-05-04T13:36:42.001Z</time></trkpt><trkpt lat="41.575552987159874" lon="0.5534898642316394"><ele>141.0</ele><time>2026-05-04T13:36:43.001Z</time></trkpt><trkpt lat="41.57562737229566" lon="0.5536227116060435"><ele>141.0</ele><time>2026-05-04T13:36:44.001Z</time></trkpt><trkpt lat="41.575695078355295" lon="0.5537479104481566"><ele>141.0</ele><time>2026-05-04T13:36:45.001Z</time></trkpt><trkpt lat="41.5757666746459" lon="0.5538692725489575"><ele>141.0</ele><time>2026-05-04T13:36:46.001Z</time></trkpt><trkpt lat="41.57583625052974" lon="0.5539888289954298"><ele>141.0</ele><time>2026-05-04T13:36:47.001Z</time></trkpt><trkpt lat="41.575907075497845" lon="0.5541023065816904"><ele>141.0</ele><time>2026-05-04T13:36:48.001Z</time></trkpt><trkpt lat="41.57597284972255" lon="0.554212793999796"><ele>141.0</ele><time>2026-05-04T13:36:49.001Z</time></trkpt><trkpt lat="41.57603884579744" lon="0.5543273798039456"><ele>141.0</ele><time>2026-05-04T13:36:50.001Z</time></trkpt><trkpt lat="41.57610237513535" lon="0.5544429080684073"><ele>141.0</ele><time>2026-05-04T13:36:51.001Z</time></trkpt><trkpt lat="41.5761663980844" lon="0.554550139103594"><ele>141.0</ele><time>2026-05-04T13:36:52.001Z</time></trkpt><trkpt lat="41.57622419436435" lon="0.5546626840247443"><ele>141.8</ele><time>2026-05-04T13:36:53.001Z</time></trkpt><trkpt lat="41.57629663407491" lon="0.5547730162642585"><ele>142.6</ele><time>2026-05-04T13:36:54.001Z</time></trkpt><trkpt lat="41.576362024913145" lon="0.5548838366569289"><ele>143.4</ele><time>2026-05-04T13:36:55.001Z</time></trkpt><trkpt lat="41.57642208569958" lon="0.554996013403107"><ele>144.2</ele><time>2026-05-04T13:36:56.001Z</time></trkpt><trkpt lat="41.57648335105834" lon="0.5551064322056182"><ele>145.0</ele><time>2026-05-04T13:36:57.001Z</time></trkpt><trkpt lat="41.57655200672392" lon="0.5552152108497855"><ele>145.0</ele><time>2026-05-04T13:36:58.001Z</time></trkpt><trkpt lat="41.576620635932244" lon="0.5553251581327904"><ele>145.0</ele><time>2026-05-04T13:36:59.001Z</time></trkpt><trkpt lat="41.57667773004085" lon="0.5554462317282237"><ele>145.0</ele><time>2026-05-04T13:37:00.001Z</time></trkpt><trkpt lat="41.57674055293004" lon="0.5555646781301512"><ele>145.0</ele><time>2026-05-04T13:37:01.001Z</time></trkpt><trkpt lat="41.57680948578374" lon="0.5556819181545362"><ele>145.0</ele><time>2026-05-04T13:37:02.001Z</time></trkpt><trkpt lat="41.57687922647678" lon="0.555798080213712"><ele>144.8</ele><time>2026-05-04T13:37:03.001Z</time></trkpt><trkpt lat="41.57694154265263" lon="0.555923344434285"><ele>144.6</ele><time>2026-05-04T13:37:04.001Z</time></trkpt><trkpt lat="41.577008503239334" lon="0.5560265486540016"><ele>144.4</ele><time>2026-05-04T13:37:05.001Z</time></trkpt><trkpt lat="41.577078623866115" lon="0.556146387219995"><ele>144.2</ele><time>2026-05-04T13:37:06.001Z</time></trkpt><trkpt lat="41.577148626621906" lon="0.5562697646036184"><ele>144.0</ele><time>2026-05-04T13:37:07.001Z</time></trkpt><trkpt lat="41.57721719756481" lon="0.5563908673700948"><ele>143.75</ele><time>2026-05-04T13:37:08.002Z</time></trkpt><trkpt lat="41.57729040688835" lon="0.556513099184402"><ele>143.5</ele><time>2026-05-04T13:37:09.002Z</time></trkpt><trkpt lat="41.57736257179365" lon="0.5566368624186232"><ele>143.25</ele><time>2026-05-04T13:37:10.002Z</time></trkpt><trkpt lat="41.57743343053082" lon="0.5567615506763836"><ele>143.0</ele><time>2026-05-04T13:37:11.002Z</time></trkpt><trkpt lat="41.57750226535059" lon="0.5568835372249127"><ele>143.0</ele><time>2026-05-04T13:37:12.002Z</time></trkpt><trkpt lat="41.57757170225444" lon="0.557009040388751"><ele>143.0</ele><time>2026-05-04T13:37:13.002Z</time></trkpt><trkpt lat="41.57764036601127" lon="0.5571318314237527"><ele>143.0</ele><time>2026-05-04T13:37:14.002Z</time></trkpt><trkpt lat="41.57771268225805" lon="0.5572547693596871"><ele>143.0</ele><time>2026-05-04T13:37:15.002Z</time></trkpt><trkpt lat="41.57778608757246" lon="0.5573731411876941"><ele>143.5</ele><time>2026-05-04T13:37:16.002Z</time></trkpt><trkpt lat="41.577857152601354" lon="0.5574956835098058"><ele>144.0</ele><time>2026-05-04T13:37:17.002Z</time></trkpt><trkpt lat="41.57792297668861" lon="0.5576190594950338"><ele>144.5</ele><time>2026-05-04T13:37:18.002Z</time></trkpt><trkpt lat="41.577992484826" lon="0.5577430294125315"><ele>145.0</ele><time>2026-05-04T13:37:19.002Z</time></trkpt><trkpt lat="41.57806164090663" lon="0.557862144854489"><ele>145.25</ele><time>2026-05-04T13:37:20.002Z</time></trkpt><trkpt lat="41.57813624244172" lon="0.5579804488983346"><ele>145.5</ele><time>2026-05-04T13:37:21.002Z</time></trkpt><trkpt lat="41.57820589172012" lon="0.5581024543896822"><ele>145.75</ele><time>2026-05-04T13:37:22.002Z</time></trkpt><trkpt lat="41.578275129823204" lon="0.55822097103859"><ele>146.0</ele><time>2026-05-04T13:37:23.002Z</time></trkpt><trkpt lat="41.57834351501509" lon="0.5583421623954432"><ele>146.0</ele><time>2026-05-04T13:37:24.002Z</time></trkpt><trkpt lat="41.578410457712124" lon="0.5584632473574053"><ele>146.0</ele><time>2026-05-04T13:37:25.002Z</time></trkpt><trkpt lat="41.57848272778334" lon="0.5585720196420857"><ele>146.0</ele><time>2026-05-04T13:37:26.002Z</time></trkpt><trkpt lat="41.57855681036195" lon="0.5586485980679855"><ele>146.0</ele><time>2026-05-04T13:37:27.002Z</time></trkpt><trkpt lat="41.57862715733121" lon="0.5587694146411967"><ele>146.0</ele><time>2026-05-04T13:37:28.002Z</time></trkpt><trkpt lat="41.578690657170405" lon="0.558928796175524"><ele>146.4</ele><time>2026-05-04T13:37:29.002Z</time></trkpt><trkpt lat="41.57875385517878" lon="0.559056111458712"><ele>146.8</ele><time>2026-05-04T13:37:30.002Z</time></trkpt><trkpt lat="41.57881874532695" lon="0.5591684949641925"><ele>147.20000000000002</ele><time>2026-05-04T13:37:31.002Z</time></trkpt><trkpt lat="41.5788843488321" lon="0.5592855513447833"><ele>147.6</ele><time>2026-05-04T13:37:32.002Z</time></trkpt><trkpt lat="41.57895024111347" lon="0.559400298608988"><ele>148.0</ele><time>2026-05-04T13:37:33.002Z</time></trkpt><trkpt lat="41.57901895448608" lon="0.5595214361018434"><ele>147.75</ele><time>2026-05-04T13:37:34.002Z</time></trkpt><trkpt lat="41.57908487070525" lon="0.5596298726221439"><ele>147.5</ele><time>2026-05-04T13:37:35.002Z</time></trkpt><trkpt lat="41.57916307921669" lon="0.5597534593294491"><ele>147.25</ele><time>2026-05-04T13:37:36.002Z</time></trkpt><trkpt lat="41.57926850556209" lon="0.5598779806092122"><ele>147.0</ele><time>2026-05-04T13:37:37.002Z</time></trkpt><trkpt lat="41.57937518275847" lon="0.5600593617947824"><ele>147.0</ele><time>2026-05-04T13:37:38.002Z</time></trkpt><trkpt lat="41.57947537799396" lon="0.5602307352496183"><ele>147.0</ele><time>2026-05-04T13:37:39.002Z</time></trkpt><trkpt lat="41.57959899219747" lon="0.5604423727094824"><ele>147.0</ele><time>2026-05-04T13:37:40.002Z</time></trkpt><trkpt lat="41.57950868364712" lon="0.5603404908436057"><ele>147.0</ele><time>2026-05-04T13:37:41.002Z</time></trkpt><trkpt lat="41.57957371729395" lon="0.5604592073135024"><ele>147.0</ele><time>2026-05-04T13:37:42.002Z</time></trkpt><trkpt lat="41.57964066382375" lon="0.5605740138889098"><ele>147.0</ele><time>2026-05-04T13:37:43.002Z</time></trkpt><trkpt lat="41.57970877294155" lon="0.5606935538568005"><ele>147.0</ele><time>2026-05-04T13:37:44.002Z</time></trkpt><trkpt lat="41.57977775213107" lon="0.5608123999194135"><ele>147.0</ele><time>2026-05-04T13:37:45.002Z</time></trkpt><trkpt lat="41.57984812718987" lon="0.5609358944369729"><ele>147.0</ele><time>2026-05-04T13:37:46.002Z</time></trkpt><trkpt lat="41.579917547047316" lon="0.5610617638162826"><ele>147.0</ele><time>2026-05-04T13:37:47.002Z</time></trkpt><trkpt lat="41.57998760073953" lon="0.5611862131876882"><ele>147.0</ele><time>2026-05-04T13:37:48.003Z</time></trkpt><trkpt lat="41.58005978432516" lon="0.5613048753690812"><ele>147.0</ele><time>2026-05-04T13:37:49.003Z</time></trkpt><trkpt lat="41.58013112329348" lon="0.5614416136529278"><ele>147.0</ele><time>2026-05-04T13:37:50.003Z</time></trkpt><trkpt lat="41.58020183886127" lon="0.561576625860101"><ele>147.0</ele><time>2026-05-04T13:37:51.003Z</time></trkpt><trkpt lat="41.58027240927827" lon="0.561703469417633"><ele>147.0</ele><time>2026-05-04T13:37:52.003Z</time></trkpt><trkpt lat="41.580340300545856" lon="0.5618272483261495"><ele>147.0</ele><time>2026-05-04T13:37:53.003Z</time></trkpt><trkpt lat="41.580406827105826" lon="0.5619478398224412"><ele>147.2</ele><time>2026-05-04T13:37:54.003Z</time></trkpt><trkpt lat="41.580468818134605" lon="0.5620699622747488"><ele>147.39999999999998</ele><time>2026-05-04T13:37:55.003Z</time></trkpt><trkpt lat="41.58053320288604" lon="0.5621918295063341"><ele>147.60000000000002</ele><time>2026-05-04T13:37:56.003Z</time></trkpt><trkpt lat="41.58059990165291" lon="0.5623165467873197"><ele>147.8</ele><time>2026-05-04T13:37:57.003Z</time></trkpt><trkpt lat="41.58066610585602" lon="0.5624384373888811"><ele>148.0</ele><time>2026-05-04T13:37:58.003Z</time></trkpt><trkpt lat="41.5807328821944" lon="0.562556136656185"><ele>148.0</ele><time>2026-05-04T13:37:59.003Z</time></trkpt><trkpt lat="41.58080082688138" lon="0.5626782780966898"><ele>148.0</ele><time>2026-05-04T13:38:00.003Z</time></trkpt><trkpt lat="41.580865620334215" lon="0.5627972613150675"><ele>148.0</ele><time>2026-05-04T13:38:01Z</time></trkpt><trkpt lat="41.58093377628966" lon="0.5629149914040457"><ele>148.0</ele><time>2026-05-04T13:38:02Z</time></trkpt><trkpt lat="41.58099964452367" lon="0.5629959002717522"><ele>148.0</ele><time>2026-05-04T13:38:03Z</time></trkpt><trkpt lat="41.581078661777255" lon="0.5630959690210654"><ele>147.75</ele><time>2026-05-04T13:38:04Z</time></trkpt><trkpt lat="41.581153892595815" lon="0.5632519530784492"><ele>147.5</ele><time>2026-05-04T13:38:05Z</time></trkpt><trkpt lat="41.58122724685482" lon="0.5633712904537869"><ele>147.25</ele><time>2026-05-04T13:38:06Z</time></trkpt><trkpt lat="41.581301050468745" lon="0.5634887501155644"><ele>147.0</ele><time>2026-05-04T13:38:07Z</time></trkpt><trkpt lat="41.58137422860713" lon="0.563611523319165"><ele>145.75</ele><time>2026-05-04T13:38:08Z</time></trkpt><trkpt lat="41.58144822993226" lon="0.563732792477123"><ele>144.5</ele><time>2026-05-04T13:38:09Z</time></trkpt><trkpt lat="41.5815224594388" lon="0.5638516698838644"><ele>143.25</ele><time>2026-05-04T13:38:10Z</time></trkpt><trkpt lat="41.58159833319937" lon="0.5639665092242004"><ele>142.0</ele><time>2026-05-04T13:38:11Z</time></trkpt><trkpt lat="41.58167461117713" lon="0.5640832489951423"><ele>142.0</ele><time>2026-05-04T13:38:12Z</time></trkpt><trkpt lat="41.58174877188665" lon="0.5642017027486144"><ele>142.0</ele><time>2026-05-04T13:38:13Z</time></trkpt><trkpt lat="41.58182274398399" lon="0.5643184965291368"><ele>142.0</ele><time>2026-05-04T13:38:14Z</time></trkpt><trkpt lat="41.58190128649446" lon="0.5644349427246266"><ele>142.0</ele><time>2026-05-04T13:38:15Z</time></trkpt><trkpt lat="41.58197911904017" lon="0.5645562190510719"><ele>143.0</ele><time>2026-05-04T13:38:16Z</time></trkpt><trkpt lat="41.582055133016325" lon="0.5646787200300531"><ele>144.0</ele><time>2026-05-04T13:38:17Z</time></trkpt><trkpt lat="41.582135032177476" lon="0.5647996794084307"><ele>145.0</ele><time>2026-05-04T13:38:18Z</time></trkpt><trkpt lat="41.58220959793895" lon="0.5649192727801586"><ele>146.0</ele><time>2026-05-04T13:38:19Z</time></trkpt><trkpt lat="41.582284476950264" lon="0.565037981984624"><ele>146.0</ele><time>2026-05-04T13:38:20Z</time></trkpt><trkpt lat="41.58235854066935" lon="0.5651579274730196"><ele>146.0</ele><time>2026-05-04T13:38:21Z</time></trkpt><trkpt lat="41.582432599137036" lon="0.5652774342655411"><ele>146.0</ele><time>2026-05-04T13:38:22Z</time></trkpt><trkpt lat="41.58250756373849" lon="0.5653933132147483"><ele>146.0</ele><time>2026-05-04T13:38:23Z</time></trkpt><trkpt lat="41.58257990109499" lon="0.5655122592201216"><ele>146.0</ele><time>2026-05-04T13:38:24Z</time></trkpt><trkpt lat="41.58265119149393" lon="0.5656322582298207"><ele>146.0</ele><time>2026-05-04T13:38:25Z</time></trkpt><trkpt lat="41.58272592880631" lon="0.5657505206328537"><ele>146.0</ele><time>2026-05-04T13:38:26Z</time></trkpt><trkpt lat="41.58279910285198" lon="0.5658671280198065"><ele>146.0</ele><time>2026-05-04T13:38:27Z</time></trkpt><trkpt lat="41.582872490065796" lon="0.5659830138389312"><ele>146.0</ele><time>2026-05-04T13:38:28Z</time></trkpt><trkpt lat="41.58294612117916" lon="0.5660971335913898"><ele>146.0</ele><time>2026-05-04T13:38:29Z</time></trkpt><trkpt lat="41.583014624128026" lon="0.5662146358665746"><ele>146.0</ele><time>2026-05-04T13:38:30Z</time></trkpt><trkpt lat="41.58308926298794" lon="0.5663269274510911"><ele>146.0</ele><time>2026-05-04T13:38:31Z</time></trkpt><trkpt lat="41.583162524337496" lon="0.5664425246099334"><ele>146.8</ele><time>2026-05-04T13:38:32Z</time></trkpt><trkpt lat="41.58323288990502" lon="0.566559112705663"><ele>147.6</ele><time>2026-05-04T13:38:33Z</time></trkpt><trkpt lat="41.58330353372396" lon="0.5666755091389452"><ele>148.4</ele><time>2026-05-04T13:38:34Z</time></trkpt><trkpt lat="41.583374791891124" lon="0.5667897762558138"><ele>149.2</ele><time>2026-05-04T13:38:35Z</time></trkpt><trkpt lat="41.58344749013942" lon="0.5669039186646561"><ele>150.0</ele><time>2026-05-04T13:38:36Z</time></trkpt><trkpt lat="41.583522968329696" lon="0.5670176453780125"><ele>151.0</ele><time>2026-05-04T13:38:37.001Z</time></trkpt><trkpt lat="41.583582409099215" lon="0.5671323462485732"><ele>152.0</ele><time>2026-05-04T13:38:38.001Z</time></trkpt><trkpt lat="41.58366358944002" lon="0.567244867067387"><ele>153.0</ele><time>2026-05-04T13:38:39.001Z</time></trkpt><trkpt lat="41.58374158126843" lon="0.5673604677185656"><ele>154.0</ele><time>2026-05-04T13:38:40.001Z</time></trkpt><trkpt lat="41.583820133515026" lon="0.567470700539059"><ele>154.0</ele><time>2026-05-04T13:38:41.001Z</time></trkpt><trkpt lat="41.58392235523308" lon="0.5675913927243622"><ele>154.0</ele><time>2026-05-04T13:38:42.001Z</time></trkpt><trkpt lat="41.58402492057176" lon="0.5677433288177289"><ele>154.0</ele><time>2026-05-04T13:38:43.001Z</time></trkpt><trkpt lat="41.58409712835649" lon="0.5678589820638928"><ele>154.0</ele><time>2026-05-04T13:38:44.001Z</time></trkpt><trkpt lat="41.58413942141228" lon="0.5680420247458429"><ele>154.25</ele><time>2026-05-04T13:38:46.001Z</time></trkpt><trkpt lat="41.584214111614756" lon="0.5681565882219103"><ele>154.5</ele><time>2026-05-04T13:38:47.001Z</time></trkpt><trkpt lat="41.584312836287566" lon="0.5682765559825776"><ele>154.75</ele><time>2026-05-04T13:38:48.001Z</time></trkpt><trkpt lat="41.584391748924176" lon="0.5683952246339309"><ele>155.0</ele><time>2026-05-04T13:38:49.001Z</time></trkpt><trkpt lat="41.58446957696471" lon="0.5685133425167069"><ele>156.25</ele><time>2026-05-04T13:38:50.001Z</time></trkpt><trkpt lat="41.584541475187436" lon="0.5686330502970763"><ele>157.5</ele><time>2026-05-04T13:38:51.001Z</time></trkpt><trkpt lat="41.58461764924607" lon="0.5687519002503475"><ele>158.75</ele><time>2026-05-04T13:38:52.001Z</time></trkpt><trkpt lat="41.584696271241974" lon="0.5688697084857036"><ele>160.0</ele><time>2026-05-04T13:38:53.001Z</time></trkpt><trkpt lat="41.584769837753456" lon="0.5689855439156499"><ele>160.0</ele><time>2026-05-04T13:38:54.001Z</time></trkpt><trkpt lat="41.584838974089735" lon="0.5691079573606332"><ele>160.0</ele><time>2026-05-04T13:38:55.001Z</time></trkpt><trkpt lat="41.58491313399046" lon="0.5692264627941871"><ele>160.0</ele><time>2026-05-04T13:38:56.001Z</time></trkpt><trkpt lat="41.58498478137641" lon="0.5693464696299547"><ele>160.0</ele><time>2026-05-04T13:38:57.001Z</time></trkpt><trkpt lat="41.58506029470139" lon="0.569460706646781"><ele>160.0</ele><time>2026-05-04T13:38:58.001Z</time></trkpt><trkpt lat="41.58513435023387" lon="0.5695804337545021"><ele>160.0</ele><time>2026-05-04T13:38:59.001Z</time></trkpt><trkpt lat="41.5852062402388" lon="0.5696999004125466"><ele>160.0</ele><time>2026-05-04T13:39:00.001Z</time></trkpt><trkpt lat="41.58527648491837" lon="0.5698170663621753"><ele>160.0</ele><time>2026-05-04T13:39:01.001Z</time></trkpt><trkpt lat="41.58535055286276" lon="0.5699323256251759"><ele>160.0</ele><time>2026-05-04T13:39:02.001Z</time></trkpt><trkpt lat="41.585424981955036" lon="0.5700486577239516"><ele>160.0</ele><time>2026-05-04T13:39:03.001Z</time></trkpt><trkpt lat="41.58549628251227" lon="0.5701621432605918"><ele>160.0</ele><time>2026-05-04T13:39:04.001Z</time></trkpt><trkpt lat="41.58557561649303" lon="0.5702767445509908"><ele>160.0</ele><time>2026-05-04T13:39:05.001Z</time></trkpt><trkpt lat="41.58564689937595" lon="0.5703924717687638"><ele>159.75</ele><time>2026-05-04T13:39:06.001Z</time></trkpt><trkpt lat="41.58571957659221" lon="0.5705087005936705"><ele>159.5</ele><time>2026-05-04T13:39:07.001Z</time></trkpt><trkpt lat="41.58578291672701" lon="0.5706273957998302"><ele>159.25</ele><time>2026-05-04T13:39:08.001Z</time></trkpt><trkpt lat="41.58585769454154" lon="0.5707446572156444"><ele>159.0</ele><time>2026-05-04T13:39:09.001Z</time></trkpt><trkpt lat="41.5859318741193" lon="0.5708585685513943"><ele>159.0</ele><time>2026-05-04T13:39:10.001Z</time></trkpt><trkpt lat="41.58601003227124" lon="0.5709684237082628"><ele>159.0</ele><time>2026-05-04T13:39:11.001Z</time></trkpt><trkpt lat="41.58608537447918" lon="0.5710841354357495"><ele>159.0</ele><time>2026-05-04T13:39:12.001Z</time></trkpt><trkpt lat="41.58615829876614" lon="0.5712060333889263"><ele>159.0</ele><time>2026-05-04T13:39:13.001Z</time></trkpt><trkpt lat="41.586231442679356" lon="0.5713229864884355"><ele>159.25</ele><time>2026-05-04T13:39:14.001Z</time></trkpt><trkpt lat="41.586316429701675" lon="0.5714624704994457"><ele>159.5</ele><time>2026-05-04T13:39:15.002Z</time></trkpt><trkpt lat="41.586377641518744" lon="0.5715675603554466"><ele>159.75</ele><time>2026-05-04T13:39:16.002Z</time></trkpt><trkpt lat="41.58644867625984" lon="0.5716877973947521"><ele>160.0</ele><time>2026-05-04T13:39:17.002Z</time></trkpt><trkpt lat="41.586519327567856" lon="0.5718127678197129"><ele>160.0</ele><time>2026-05-04T13:39:18.002Z</time></trkpt><trkpt lat="41.58658339579535" lon="0.5719440950119531"><ele>160.0</ele><time>2026-05-04T13:39:19.002Z</time></trkpt><trkpt lat="41.58664265032155" lon="0.5720742745007281"><ele>160.0</ele><time>2026-05-04T13:39:20.002Z</time></trkpt><trkpt lat="41.586703044389985" lon="0.5722047111542283"><ele>160.0</ele><time>2026-05-04T13:39:21.002Z</time></trkpt><trkpt lat="41.58677017460787" lon="0.5723339583243935"><ele>160.25</ele><time>2026-05-04T13:39:22.002Z</time></trkpt><trkpt lat="41.58682870628266" lon="0.5724688238524716"><ele>160.5</ele><time>2026-05-04T13:39:23.002Z</time></trkpt><trkpt lat="41.586890865398004" lon="0.5725997792588948"><ele>160.75</ele><time>2026-05-04T13:39:24.002Z</time></trkpt><trkpt lat="41.58695239674211" lon="0.5727311065145834"><ele>161.0</ele><time>2026-05-04T13:39:25.002Z</time></trkpt><trkpt lat="41.58701667814349" lon="0.5728604711173085"><ele>162.5</ele><time>2026-05-04T13:39:26.002Z</time></trkpt><trkpt lat="41.58707900198348" lon="0.572991308854139"><ele>164.0</ele><time>2026-05-04T13:39:27.002Z</time></trkpt><trkpt lat="41.58713958996926" lon="0.5731158279469939"><ele>165.5</ele><time>2026-05-04T13:39:28.002Z</time></trkpt><trkpt lat="41.58720784032866" lon="0.5732390783321839"><ele>167.0</ele><time>2026-05-04T13:39:29.002Z</time></trkpt><trkpt lat="41.58727474000734" lon="0.5733643151944614"><ele>167.0</ele><time>2026-05-04T13:39:30.002Z</time></trkpt><trkpt lat="41.58734104711552" lon="0.5734869127194752"><ele>167.0</ele><time>2026-05-04T13:39:31.002Z</time></trkpt><trkpt lat="41.5874070796142" lon="0.5736090276088368"><ele>167.0</ele><time>2026-05-04T13:39:32.002Z</time></trkpt><trkpt lat="41.58747565536961" lon="0.5737316058074146"><ele>167.0</ele><time>2026-05-04T13:39:33.002Z</time></trkpt><trkpt lat="41.587550609556246" lon="0.5738515526840683"><ele>167.0</ele><time>2026-05-04T13:39:34.002Z</time></trkpt><trkpt lat="41.58762917023357" lon="0.5739652556089582"><ele>167.0</ele><time>2026-05-04T13:39:35.002Z</time></trkpt><trkpt lat="41.587709229879444" lon="0.5740772543089275"><ele>167.0</ele><time>2026-05-04T13:39:36.002Z</time></trkpt><trkpt lat="41.587784386794795" lon="0.5741922774695348"><ele>167.0</ele><time>2026-05-04T13:39:37.002Z</time></trkpt><trkpt lat="41.58786228319714" lon="0.5742980376782896"><ele>167.0</ele><time>2026-05-04T13:39:38.002Z</time></trkpt><trkpt lat="41.58794658032587" lon="0.574409706792902"><ele>167.0</ele><time>2026-05-04T13:39:39.002Z</time></trkpt><trkpt lat="41.58803072993118" lon="0.5745250093150214"><ele>167.0</ele><time>2026-05-04T13:39:40.002Z</time></trkpt><trkpt lat="41.58812009872931" lon="0.5746244716595562"><ele>167.0</ele><time>2026-05-04T13:39:41.002Z</time></trkpt><trkpt lat="41.588208556736404" lon="0.5747266465449604"><ele>166.5</ele><time>2026-05-04T13:39:42.002Z</time></trkpt><trkpt lat="41.588299427766486" lon="0.5748262527924062"><ele>166.0</ele><time>2026-05-04T13:39:43.002Z</time></trkpt><trkpt lat="41.58838720811745" lon="0.5749273070886629"><ele>165.5</ele><time>2026-05-04T13:39:44.002Z</time></trkpt><trkpt lat="41.58847119064169" lon="0.5750284183389066"><ele>165.0</ele><time>2026-05-04T13:39:45.002Z</time></trkpt><trkpt lat="41.58855748991737" lon="0.575133369919974"><ele>165.0</ele><time>2026-05-04T13:39:46.002Z</time></trkpt><trkpt lat="41.58864792430187" lon="0.5752384231006804"><ele>165.0</ele><time>2026-05-04T13:39:47.002Z</time></trkpt><trkpt lat="41.58873596957615" lon="0.5753405628570216"><ele>165.0</ele><time>2026-05-04T13:39:48.002Z</time></trkpt><trkpt lat="41.58882512978926" lon="0.5754446586438491"><ele>165.0</ele><time>2026-05-04T13:39:49.002Z</time></trkpt><trkpt lat="41.5889093425336" lon="0.5755578554174925"><ele>165.25</ele><time>2026-05-04T13:39:50.002Z</time></trkpt><trkpt lat="41.58899169859247" lon="0.5756642069384194"><ele>165.5</ele><time>2026-05-04T13:39:51.002Z</time></trkpt><trkpt lat="41.58905980776466" lon="0.5757599519173543"><ele>165.75</ele><time>2026-05-04T13:39:52.002Z</time></trkpt><trkpt lat="41.58915374427074" lon="0.5758922623415672"><ele>166.0</ele><time>2026-05-04T13:39:53.002Z</time></trkpt><trkpt lat="41.58923191062453" lon="0.576014531324264"><ele>166.0</ele><time>2026-05-04T13:39:54.003Z</time></trkpt><trkpt lat="41.589305297658036" lon="0.5761312145118074"><ele>166.0</ele><time>2026-05-04T13:39:55.003Z</time></trkpt><trkpt lat="41.58937315202291" lon="0.5762563883088953"><ele>166.0</ele><time>2026-05-04T13:39:56.003Z</time></trkpt><trkpt lat="41.58944437671234" lon="0.5763799765854124"><ele>166.0</ele><time>2026-05-04T13:39:57.003Z</time></trkpt><trkpt lat="41.58950937537538" lon="0.5765071573142821"><ele>166.75</ele><time>2026-05-04T13:39:58.003Z</time></trkpt><trkpt lat="41.58958055736428" lon="0.5766342438617477"><ele>167.5</ele><time>2026-05-04T13:39:59.003Z</time></trkpt><trkpt lat="41.58964750751019" lon="0.5767615940905726"><ele>168.25</ele><time>2026-05-04T13:40:00.003Z</time></trkpt><trkpt lat="41.589718776659815" lon="0.5768838915513258"><ele>169.0</ele><time>2026-05-04T13:40:01.003Z</time></trkpt><trkpt lat="41.58978991866412" lon="0.577010813447023"><ele>168.0</ele><time>2026-05-04T13:40:02.003Z</time></trkpt><trkpt lat="41.58985455017766" lon="0.577135441539645"><ele>167.0</ele><time>2026-05-04T13:40:03.003Z</time></trkpt><trkpt lat="41.589917812596056" lon="0.5772642348170642"><ele>166.0</ele><time>2026-05-04T13:40:04.003Z</time></trkpt><trkpt lat="41.58998953918604" lon="0.5773933557542505"><ele>165.0</ele><time>2026-05-04T13:40:05.003Z</time></trkpt><trkpt lat="41.59005806623078" lon="0.5775188633505489"><ele>165.0</ele><time>2026-05-04T13:40:06.003Z</time></trkpt><trkpt lat="41.590124829110465" lon="0.577644581979953"><ele>165.0</ele><time>2026-05-04T13:40:07Z</time></trkpt><trkpt lat="41.590191920211836" lon="0.5777716882800494"><ele>165.0</ele><time>2026-05-04T13:40:08Z</time></trkpt><trkpt lat="41.590261658020474" lon="0.577900374894447"><ele>165.0</ele><time>2026-05-04T13:40:09Z</time></trkpt><trkpt lat="41.59032420132527" lon="0.578034037587194"><ele>165.5</ele><time>2026-05-04T13:40:10Z</time></trkpt><trkpt lat="41.59038598391987" lon="0.578172026281455"><ele>166.0</ele><time>2026-05-04T13:40:11Z</time></trkpt><trkpt lat="41.590440165161226" lon="0.5783170353481872"><ele>166.5</ele><time>2026-05-04T13:40:12Z</time></trkpt><trkpt lat="41.590494984201555" lon="0.5784593922094987"><ele>167.0</ele><time>2026-05-04T13:40:13Z</time></trkpt><trkpt lat="41.59054176369365" lon="0.5786071345080354"><ele>165.5</ele><time>2026-05-04T13:40:14Z</time></trkpt><trkpt lat="41.59058954100917" lon="0.5787569426372604"><ele>164.0</ele><time>2026-05-04T13:40:15Z</time></trkpt><trkpt lat="41.590622363933164" lon="0.5789055040789595"><ele>162.5</ele><time>2026-05-04T13:40:16Z</time></trkpt><trkpt lat="41.590639616420916" lon="0.5790570618082235"><ele>161.0</ele><time>2026-05-04T13:40:17Z</time></trkpt><trkpt lat="41.590680827657316" lon="0.5792181978409092"><ele>161.0</ele><time>2026-05-04T13:40:18Z</time></trkpt><trkpt lat="41.59069925111642" lon="0.5793797865036918"><ele>161.0</ele><time>2026-05-04T13:40:19Z</time></trkpt><trkpt lat="41.590710901800335" lon="0.5795344375935679"><ele>161.0</ele><time>2026-05-04T13:40:20Z</time></trkpt><trkpt lat="41.590713708703916" lon="0.579689405579332"><ele>161.0</ele><time>2026-05-04T13:40:21Z</time></trkpt><trkpt lat="41.5907197904113" lon="0.579846778089207"><ele>160.5</ele><time>2026-05-04T13:40:22Z</time></trkpt><trkpt lat="41.59072549633374" lon="0.5799984646364897"><ele>160.0</ele><time>2026-05-04T13:40:23Z</time></trkpt><trkpt lat="41.59072675866697" lon="0.5801466702407819"><ele>159.5</ele><time>2026-05-04T13:40:24Z</time></trkpt><trkpt lat="41.590751507120956" lon="0.5803275035665162"><ele>159.0</ele><time>2026-05-04T13:40:25Z</time></trkpt><trkpt lat="41.590746591998816" lon="0.5804873715372796"><ele>159.0</ele><time>2026-05-04T13:40:26Z</time></trkpt><trkpt lat="41.59075163256963" lon="0.5806415210704297"><ele>159.0</ele><time>2026-05-04T13:40:27Z</time></trkpt><trkpt lat="41.59074727189122" lon="0.5807956380273442"><ele>159.0</ele><time>2026-05-04T13:40:28Z</time></trkpt><trkpt lat="41.590749806020135" lon="0.5809486038329382"><ele>159.0</ele><time>2026-05-04T13:40:29Z</time></trkpt><trkpt lat="41.59075112811314" lon="0.5811036096266691"><ele>158.75</ele><time>2026-05-04T13:40:30Z</time></trkpt><trkpt lat="41.59075425781939" lon="0.5812586230049606"><ele>158.5</ele><time>2026-05-04T13:40:31Z</time></trkpt><trkpt lat="41.59075905356491" lon="0.5814100477722448"><ele>158.25</ele><time>2026-05-04T13:40:32Z</time></trkpt><trkpt lat="41.59076425802275" lon="0.581560555563498"><ele>158.0</ele><time>2026-05-04T13:40:33Z</time></trkpt><trkpt lat="41.590770264574616" lon="0.5817073964955128"><ele>158.0</ele><time>2026-05-04T13:40:34Z</time></trkpt><trkpt lat="41.590787604764905" lon="0.5818577723418591"><ele>158.0</ele><time>2026-05-04T13:40:35Z</time></trkpt><trkpt lat="41.59080451171974" lon="0.5820089679791689"><ele>158.0</ele><time>2026-05-04T13:40:36Z</time></trkpt><trkpt lat="41.590828341150505" lon="0.5821567756910322"><ele>158.0</ele><time>2026-05-04T13:40:37Z</time></trkpt><trkpt lat="41.59085699295155" lon="0.58230687716449"><ele>158.0</ele><time>2026-05-04T13:40:38Z</time></trkpt><trkpt lat="41.590887751324544" lon="0.5824572036597645"><ele>158.0</ele><time>2026-05-04T13:40:39Z</time></trkpt><trkpt lat="41.590920675237676" lon="0.5826046390252603"><ele>158.0</ele><time>2026-05-04T13:40:40Z</time></trkpt><trkpt lat="41.59095732644284" lon="0.5827483821299031"><ele>158.0</ele><time>2026-05-04T13:40:41.001Z</time></trkpt><trkpt lat="41.59099689356077" lon="0.5828980566120413"><ele>157.75</ele><time>2026-05-04T13:40:42.001Z</time></trkpt><trkpt lat="41.5910429534193" lon="0.5830406179081865"><ele>157.5</ele><time>2026-05-04T13:40:43.001Z</time></trkpt><trkpt lat="41.591090010635355" lon="0.5831839109957238"><ele>157.25</ele><time>2026-05-04T13:40:44.001Z</time></trkpt><trkpt lat="41.591140255056814" lon="0.5833252104591576"><ele>157.0</ele><time>2026-05-04T13:40:45.001Z</time></trkpt><trkpt lat="41.59119477566872" lon="0.5834638058286942"><ele>157.5</ele><time>2026-05-04T13:40:46.001Z</time></trkpt><trkpt lat="41.591249944633866" lon="0.5836105143628525"><ele>158.0</ele><time>2026-05-04T13:40:47.001Z</time></trkpt><trkpt lat="41.59130421500755" lon="0.5837493072529483"><ele>158.5</ele><time>2026-05-04T13:40:48.001Z</time></trkpt><trkpt lat="41.59136074279288" lon="0.5838885493270252"><ele>159.0</ele><time>2026-05-04T13:40:49.001Z</time></trkpt><trkpt lat="41.59141870795144" lon="0.5840272862403889"><ele>159.25</ele><time>2026-05-04T13:40:50.001Z</time></trkpt><trkpt lat="41.591477083436324" lon="0.58416465517583"><ele>159.5</ele><time>2026-05-04T13:40:51.001Z</time></trkpt><trkpt lat="41.59153514633765" lon="0.5843010890192859"><ele>159.75</ele><time>2026-05-04T13:40:52.001Z</time></trkpt><trkpt lat="41.59159169613337" lon="0.584437751496501"><ele>160.0</ele><time>2026-05-04T13:40:53.001Z</time></trkpt><trkpt lat="41.59165443964148" lon="0.5845711132629146"><ele>159.25</ele><time>2026-05-04T13:40:54.001Z</time></trkpt><trkpt lat="41.591715599559485" lon="0.5847061733515898"><ele>158.5</ele><time>2026-05-04T13:40:55.001Z</time></trkpt><trkpt lat="41.591773286062995" lon="0.5848391330619557"><ele>157.75</ele><time>2026-05-04T13:40:56.001Z</time></trkpt><trkpt lat="41.59182948619497" lon="0.5849746804524804"><ele>157.0</ele><time>2026-05-04T13:40:57.001Z</time></trkpt><trkpt lat="41.59188599720202" lon="0.5851118273202083"><ele>157.0</ele><time>2026-05-04T13:40:58.001Z</time></trkpt><trkpt lat="41.59194359099104" lon="0.5852450745706231"><ele>157.0</ele><time>2026-05-04T13:40:59.001Z</time></trkpt><trkpt lat="41.592000893332745" lon="0.5853807379204726"><ele>157.0</ele><time>2026-05-04T13:41:00.001Z</time></trkpt><trkpt lat="41.59205596118654" lon="0.5855146837134841"><ele>157.0</ele><time>2026-05-04T13:41:01.001Z</time></trkpt><trkpt lat="41.592114983146786" lon="0.5856493491232414"><ele>157.5</ele><time>2026-05-04T13:41:02.001Z</time></trkpt><trkpt lat="41.59217234799613" lon="0.5857845369721798"><ele>158.0</ele><time>2026-05-04T13:41:03.001Z</time></trkpt><trkpt lat="41.5922251567321" lon="0.5859218507957887"><ele>158.5</ele><time>2026-05-04T13:41:04.001Z</time></trkpt><trkpt lat="41.59228270864524" lon="0.586055734206577"><ele>159.0</ele><time>2026-05-04T13:41:05.001Z</time></trkpt><trkpt lat="41.592340881239494" lon="0.5861894425303454"><ele>159.0</ele><time>2026-05-04T13:41:06.001Z</time></trkpt><trkpt lat="41.59239956504553" lon="0.5863238654976938"><ele>159.0</ele><time>2026-05-04T13:41:07.001Z</time></trkpt><trkpt lat="41.59245466188141" lon="0.5864587054673382"><ele>159.0</ele><time>2026-05-04T13:41:08.001Z</time></trkpt><trkpt lat="41.59251069465005" lon="0.5865917961698617"><ele>159.0</ele><time>2026-05-04T13:41:09.001Z</time></trkpt><trkpt lat="41.59256861107377" lon="0.5867223767708207"><ele>159.0</ele><time>2026-05-04T13:41:10.001Z</time></trkpt><trkpt lat="41.59262611652769" lon="0.5868556176581208"><ele>159.0</ele><time>2026-05-04T13:41:11.001Z</time></trkpt><trkpt lat="41.592683086456525" lon="0.5869872306183114"><ele>159.0</ele><time>2026-05-04T13:41:12.001Z</time></trkpt><trkpt lat="41.592740469674226" lon="0.587120708974076"><ele>159.0</ele><time>2026-05-04T13:41:13.001Z</time></trkpt><trkpt lat="41.592797253753325" lon="0.5872539841547578"><ele>159.0</ele><time>2026-05-04T13:41:14.001Z</time></trkpt><trkpt lat="41.592849008332585" lon="0.5873886748541859"><ele>159.0</ele><time>2026-05-04T13:41:15.001Z</time></trkpt><trkpt lat="41.59290437185539" lon="0.587525141340195"><ele>159.0</ele><time>2026-05-04T13:41:16.001Z</time></trkpt><trkpt lat="41.59295626109216" lon="0.5876593616610548"><ele>159.0</ele><time>2026-05-04T13:41:17.001Z</time></trkpt><trkpt lat="41.59300699899364" lon="0.5877982352917293"><ele>159.25</ele><time>2026-05-04T13:41:18.001Z</time></trkpt><trkpt lat="41.59305156711464" lon="0.5879414042904373"><ele>159.5</ele><time>2026-05-04T13:41:19.001Z</time></trkpt><trkpt lat="41.59309165504067" lon="0.5880847084572793"><ele>159.75</ele><time>2026-05-04T13:41:20.002Z</time></trkpt><trkpt lat="41.593132515514114" lon="0.5882331669711942"><ele>160.0</ele><time>2026-05-04T13:41:21.002Z</time></trkpt><trkpt lat="41.593174745330266" lon="0.5883768708861906"><ele>160.0</ele><time>2026-05-04T13:41:22.002Z</time></trkpt><trkpt lat="41.59321667628705" lon="0.588522245887318"><ele>160.0</ele><time>2026-05-04T13:41:23.002Z</time></trkpt><trkpt lat="41.59325967103313" lon="0.5886660581031895"><ele>160.0</ele><time>2026-05-04T13:41:24.002Z</time></trkpt><trkpt lat="41.593308645604495" lon="0.5888114788408967"><ele>160.0</ele><time>2026-05-04T13:41:25.002Z</time></trkpt><trkpt lat="41.59335030527859" lon="0.5889518275573651"><ele>159.6</ele><time>2026-05-04T13:41:26.002Z</time></trkpt><trkpt lat="41.59339590476427" lon="0.5890919144139364"><ele>159.2</ele><time>2026-05-04T13:41:27.002Z</time></trkpt><trkpt lat="41.59344041018193" lon="0.5892181423538749"><ele>158.8</ele><time>2026-05-04T13:41:28.002Z</time></trkpt><trkpt lat="41.59348036338641" lon="0.5893406548131819"><ele>158.4</ele><time>2026-05-04T13:41:29.002Z</time></trkpt><trkpt lat="41.59352535172741" lon="0.5894630076544005"><ele>158.0</ele><time>2026-05-04T13:41:30.002Z</time></trkpt><trkpt lat="41.59356392705182" lon="0.5895837757192653"><ele>158.20000000000002</ele><time>2026-05-04T13:41:31.002Z</time></trkpt><trkpt lat="41.59359684606612" lon="0.5897032677996517"><ele>158.4</ele><time>2026-05-04T13:41:32.002Z</time></trkpt><trkpt lat="41.59361925282494" lon="0.5898317294729165"><ele>158.60000000000002</ele><time>2026-05-04T13:41:33.002Z</time></trkpt><trkpt lat="41.59364914778235" lon="0.5899552086151557"><ele>158.8</ele><time>2026-05-04T13:41:34.002Z</time></trkpt><trkpt lat="41.59370236185287" lon="0.590076386178866"><ele>159.0</ele><time>2026-05-04T13:41:35.002Z</time></trkpt><trkpt lat="41.59376290543948" lon="0.5901837831303801"><ele>159.0</ele><time>2026-05-04T13:41:36.002Z</time></trkpt><trkpt lat="41.5938717962683" lon="0.5902417047723103"><ele>159.0</ele><time>2026-05-04T13:41:37.002Z</time></trkpt><trkpt lat="41.593941557857505" lon="0.5903520795944253"><ele>159.0</ele><time>2026-05-04T13:41:38.002Z</time></trkpt><trkpt lat="41.59402989972664" lon="0.5904318314082756"><ele>159.0</ele><time>2026-05-04T13:41:39.002Z</time></trkpt><trkpt lat="41.59410770746346" lon="0.5905354515335026"><ele>159.0</ele><time>2026-05-04T13:41:40.002Z</time></trkpt><trkpt lat="41.594180188476294" lon="0.5906479734937193"><ele>159.25</ele><time>2026-05-04T13:41:41.002Z</time></trkpt><trkpt lat="41.59424743677237" lon="0.5907666746641491"><ele>159.5</ele><time>2026-05-04T13:41:42.002Z</time></trkpt><trkpt lat="41.59431000151737" lon="0.5908786427266338"><ele>159.75</ele><time>2026-05-04T13:41:43.002Z</time></trkpt><trkpt lat="41.59439030697354" lon="0.5909886596683431"><ele>160.0</ele><time>2026-05-04T13:41:44.002Z</time></trkpt><trkpt lat="41.59444523420144" lon="0.5911332348624515"><ele>160.25</ele><time>2026-05-04T13:41:45.002Z</time></trkpt><trkpt lat="41.5945101230152" lon="0.5912567692061003"><ele>160.5</ele><time>2026-05-04T13:41:46.002Z</time></trkpt><trkpt lat="41.59457931362983" lon="0.5913749769767646"><ele>160.75</ele><time>2026-05-04T13:41:47.002Z</time></trkpt><trkpt lat="41.594659565238636" lon="0.5914959883527422"><ele>161.0</ele><time>2026-05-04T13:41:48.002Z</time></trkpt><trkpt lat="41.5947271315909" lon="0.5916204393798569"><ele>161.0</ele><time>2026-05-04T13:41:49.002Z</time></trkpt><trkpt lat="41.59480088684637" lon="0.5917445921872776"><ele>161.0</ele><time>2026-05-04T13:41:50.002Z</time></trkpt><trkpt lat="41.59487104530684" lon="0.5918687837022695"><ele>161.0</ele><time>2026-05-04T13:41:51.002Z</time></trkpt><trkpt lat="41.59494194680937" lon="0.5919893541780638"><ele>161.0</ele><time>2026-05-04T13:41:52.002Z</time></trkpt><trkpt lat="41.59501127031613" lon="0.5921075412436059"><ele>160.5</ele><time>2026-05-04T13:41:53.002Z</time></trkpt><trkpt lat="41.59507990977445" lon="0.59223033865261"><ele>160.0</ele><time>2026-05-04T13:41:54.002Z</time></trkpt><trkpt lat="41.59514862626791" lon="0.5923532424087766"><ele>159.5</ele><time>2026-05-04T13:41:55.002Z</time></trkpt><trkpt lat="41.59521908351369" lon="0.5924756292777261"><ele>159.0</ele><time>2026-05-04T13:41:56.002Z</time></trkpt><trkpt lat="41.59528847736417" lon="0.5925966088503215"><ele>159.0</ele><time>2026-05-04T13:41:57.002Z</time></trkpt><trkpt lat="41.5953562807542" lon="0.5927230674513995"><ele>159.0</ele><time>2026-05-04T13:41:58.002Z</time></trkpt><trkpt lat="41.59542358578183" lon="0.5928453786103247"><ele>159.0</ele><time>2026-05-04T13:41:59.002Z</time></trkpt><trkpt lat="41.59549565718455" lon="0.592968638585944"><ele>159.0</ele><time>2026-05-04T13:42:00.003Z</time></trkpt><trkpt lat="41.59556764799276" lon="0.5930822974578178"><ele>159.25</ele><time>2026-05-04T13:42:01.003Z</time></trkpt><trkpt lat="41.5956352796356" lon="0.5932029831020945"><ele>159.5</ele><time>2026-05-04T13:42:02.003Z</time></trkpt><trkpt lat="41.59570190269793" lon="0.5933277300623648"><ele>159.75</ele><time>2026-05-04T13:42:03.003Z</time></trkpt><trkpt lat="41.595768645416406" lon="0.59344528854499"><ele>160.0</ele><time>2026-05-04T13:42:04.003Z</time></trkpt><trkpt lat="41.595834449476925" lon="0.5935674492051338"><ele>160.0</ele><time>2026-05-04T13:42:05.003Z</time></trkpt><trkpt lat="41.595899370453246" lon="0.5936915638761421"><ele>160.0</ele><time>2026-05-04T13:42:06.003Z</time></trkpt><trkpt lat="41.59596817775295" lon="0.5938017596545332"><ele>160.0</ele><time>2026-05-04T13:42:07.003Z</time></trkpt><trkpt lat="41.596033241731114" lon="0.5938699491596825"><ele>160.0</ele><time>2026-05-04T13:42:08.003Z</time></trkpt><trkpt lat="41.59607589017175" lon="0.5939481395503063"><ele>160.0</ele><time>2026-05-04T13:42:09.003Z</time></trkpt><trkpt lat="41.596178258432566" lon="0.5941039547482918"><ele>160.0</ele><time>2026-05-04T13:42:10.003Z</time></trkpt><trkpt lat="41.596291989405145" lon="0.5943146917978457"><ele>160.0</ele><time>2026-05-04T13:42:11.003Z</time></trkpt><trkpt lat="41.59640149097214" lon="0.5945173615273173"><ele>160.0</ele><time>2026-05-04T13:42:12.003Z</time></trkpt><trkpt lat="41.59643233215013" lon="0.5946388527857228"><ele>159.8</ele><time>2026-05-04T13:42:14Z</time></trkpt><trkpt lat="41.59650240994785" lon="0.5947526147543916"><ele>159.6</ele><time>2026-05-04T13:42:15Z</time></trkpt><trkpt lat="41.59656893466899" lon="0.5948649334986664"><ele>159.4</ele><time>2026-05-04T13:42:16Z</time></trkpt><trkpt lat="41.5966383287909" lon="0.5949808411048857"><ele>159.2</ele><time>2026-05-04T13:42:17Z</time></trkpt><trkpt lat="41.59670899361935" lon="0.5950938573053832"><ele>159.0</ele><time>2026-05-04T13:42:18Z</time></trkpt><trkpt lat="41.596783053091734" lon="0.5952062887104185"><ele>159.0</ele><time>2026-05-04T13:42:19Z</time></trkpt><trkpt lat="41.596852598348846" lon="0.5953202103670505"><ele>159.0</ele><time>2026-05-04T13:42:20Z</time></trkpt><trkpt lat="41.596925890125725" lon="0.5954310646862023"><ele>159.0</ele><time>2026-05-04T13:42:21Z</time></trkpt><trkpt lat="41.596998999675655" lon="0.5955506804679209"><ele>159.0</ele><time>2026-05-04T13:42:22Z</time></trkpt><trkpt lat="41.59707393406269" lon="0.595667690206188"><ele>159.75</ele><time>2026-05-04T13:42:23Z</time></trkpt><trkpt lat="41.597152708686785" lon="0.5957807446090451"><ele>160.5</ele><time>2026-05-04T13:42:24Z</time></trkpt><trkpt lat="41.59722742706462" lon="0.5959007254032831"><ele>161.25</ele><time>2026-05-04T13:42:25Z</time></trkpt><trkpt lat="41.59730357392119" lon="0.5960201253370935"><ele>162.0</ele><time>2026-05-04T13:42:26Z</time></trkpt><trkpt lat="41.59737598900514" lon="0.5961304087988494"><ele>161.5</ele><time>2026-05-04T13:42:27Z</time></trkpt><trkpt lat="41.59745193977881" lon="0.5962404639494303"><ele>161.0</ele><time>2026-05-04T13:42:28Z</time></trkpt><trkpt lat="41.59752490212775" lon="0.5963555008058038"><ele>160.5</ele><time>2026-05-04T13:42:29Z</time></trkpt><trkpt lat="41.59760177264079" lon="0.5964691373194936"><ele>160.0</ele><time>2026-05-04T13:42:30Z</time></trkpt><trkpt lat="41.59767424661462" lon="0.596586026870869"><ele>160.0</ele><time>2026-05-04T13:42:31Z</time></trkpt><trkpt lat="41.59774550986941" lon="0.5967028390653895"><ele>160.0</ele><time>2026-05-04T13:42:32Z</time></trkpt><trkpt lat="41.59781879146563" lon="0.5968192291404119"><ele>160.0</ele><time>2026-05-04T13:42:33Z</time></trkpt><trkpt lat="41.59789468617373" lon="0.5969324691508432"><ele>160.0</ele><time>2026-05-04T13:42:34Z</time></trkpt><trkpt lat="41.59796904689116" lon="0.5970440879047922"><ele>160.5</ele><time>2026-05-04T13:42:35Z</time></trkpt><trkpt lat="41.598045712610144" lon="0.5971594784842327"><ele>161.0</ele><time>2026-05-04T13:42:36Z</time></trkpt><trkpt lat="41.59812304985074" lon="0.5972716961410561"><ele>161.5</ele><time>2026-05-04T13:42:37Z</time></trkpt><trkpt lat="41.598200727520414" lon="0.5973831430622232"><ele>162.0</ele><time>2026-05-04T13:42:38Z</time></trkpt><trkpt lat="41.59828114440331" lon="0.5974871244617727"><ele>162.0</ele><time>2026-05-04T13:42:39Z</time></trkpt><trkpt lat="41.59836863242187" lon="0.59758549333583"><ele>162.0</ele><time>2026-05-04T13:42:40Z</time></trkpt><trkpt lat="41.59845846468271" lon="0.5976799227685665"><ele>162.0</ele><time>2026-05-04T13:42:41.001Z</time></trkpt><trkpt lat="41.59854738446129" lon="0.5977704883272368"><ele>162.0</ele><time>2026-05-04T13:42:42.001Z</time></trkpt><trkpt lat="41.59864349609526" lon="0.5978579376816985"><ele>162.2</ele><time>2026-05-04T13:42:43.001Z</time></trkpt><trkpt lat="41.59872651100258" lon="0.5979321074721765"><ele>162.39999999999998</ele><time>2026-05-04T13:42:44.001Z</time></trkpt><trkpt lat="41.59880871287128" lon="0.5979980176234875"><ele>162.60000000000002</ele><time>2026-05-04T13:42:45.001Z</time></trkpt><trkpt lat="41.5989018418385" lon="0.5980672232844247"><ele>162.8</ele><time>2026-05-04T13:42:46.001Z</time></trkpt><trkpt lat="41.59898984854858" lon="0.5981392730780577"><ele>163.0</ele><time>2026-05-04T13:42:47.001Z</time></trkpt><trkpt lat="41.59907238049984" lon="0.5982036945282196"><ele>163.0</ele><time>2026-05-04T13:42:48.001Z</time></trkpt><trkpt lat="41.599145733897174" lon="0.5982729086518236"><ele>163.0</ele><time>2026-05-04T13:42:49.001Z</time></trkpt><trkpt lat="41.599214007063786" lon="0.598363191982466"><ele>163.0</ele><time>2026-05-04T13:42:50.001Z</time></trkpt><trkpt lat="41.59927149583204" lon="0.5984664929716658"><ele>163.0</ele><time>2026-05-04T13:42:51.001Z</time></trkpt><trkpt lat="41.599327534565234" lon="0.5985777468911246"><ele>163.0</ele><time>2026-05-04T13:42:52.001Z</time></trkpt><trkpt lat="41.59939773011734" lon="0.59868527672433"><ele>162.60000000000002</ele><time>2026-05-04T13:42:53.001Z</time></trkpt><trkpt lat="41.59947798210232" lon="0.5987822269410189"><ele>162.20000000000002</ele><time>2026-05-04T13:42:54.001Z</time></trkpt><trkpt lat="41.59955545554104" lon="0.5988812277161621"><ele>161.8</ele><time>2026-05-04T13:42:55.001Z</time></trkpt><trkpt lat="41.599625106891374" lon="0.5989987322810184"><ele>161.4</ele><time>2026-05-04T13:42:56.001Z</time></trkpt><trkpt lat="41.59967188645278" lon="0.5991334239482766"><ele>161.0</ele><time>2026-05-04T13:42:57.001Z</time></trkpt><trkpt lat="41.599714912267046" lon="0.5992833626634722"><ele>161.0</ele><time>2026-05-04T13:42:58.001Z</time></trkpt><trkpt lat="41.599762486001" lon="0.5994292323929362"><ele>161.0</ele><time>2026-05-04T13:42:59.001Z</time></trkpt><trkpt lat="41.59981077916337" lon="0.5995745781370418"><ele>161.0</ele><time>2026-05-04T13:43:00.001Z</time></trkpt><trkpt lat="41.59986350983174" lon="0.5997172959534166"><ele>161.0</ele><time>2026-05-04T13:43:01.001Z</time></trkpt><trkpt lat="41.59991566555114" lon="0.5998582149080459"><ele>161.0</ele><time>2026-05-04T13:43:02.001Z</time></trkpt><trkpt lat="41.59996728635862" lon="0.5999989980063011"><ele>161.0</ele><time>2026-05-04T13:43:03.001Z</time></trkpt><trkpt lat="41.60001752407697" lon="0.6001434191726482"><ele>161.0</ele><time>2026-05-04T13:43:04.001Z</time></trkpt><trkpt lat="41.6000683490586" lon="0.6002784598705048"><ele>161.0</ele><time>2026-05-04T13:43:05.001Z</time></trkpt><trkpt lat="41.60011633934726" lon="0.6004204628760006"><ele>160.75</ele><time>2026-05-04T13:43:06.001Z</time></trkpt><trkpt lat="41.60016382631905" lon="0.6005597021643143"><ele>160.5</ele><time>2026-05-04T13:43:07.001Z</time></trkpt><trkpt lat="41.60021060003276" lon="0.6007028719098187"><ele>160.25</ele><time>2026-05-04T13:43:08.001Z</time></trkpt><trkpt lat="41.60025747332115" lon="0.6008468014348661"><ele>160.0</ele><time>2026-05-04T13:43:09.001Z</time></trkpt><trkpt lat="41.600304564536486" lon="0.6009845903710354"><ele>160.0</ele><time>2026-05-04T13:43:10.001Z</time></trkpt><trkpt lat="41.600348855432586" lon="0.6011284648609568"><ele>160.0</ele><time>2026-05-04T13:43:11.001Z</time></trkpt><trkpt lat="41.600394133702075" lon="0.6012675313033657"><ele>160.0</ele><time>2026-05-04T13:43:12.001Z</time></trkpt><trkpt lat="41.60044182562051" lon="0.6014050072509793"><ele>160.0</ele><time>2026-05-04T13:43:13.001Z</time></trkpt><trkpt lat="41.60048683154476" lon="0.6015413268462911"><ele>160.0</ele><time>2026-05-04T13:43:14.001Z</time></trkpt><trkpt lat="41.600529305947845" lon="0.6016796704348946"><ele>160.0</ele><time>2026-05-04T13:43:15.001Z</time></trkpt><trkpt lat="41.60057090410367" lon="0.601819233441086"><ele>160.0</ele><time>2026-05-04T13:43:16.001Z</time></trkpt><trkpt lat="41.600617852291464" lon="0.6019480190821406"><ele>160.0</ele><time>2026-05-04T13:43:17.001Z</time></trkpt><trkpt lat="41.6006654007671" lon="0.6020713469706183"><ele>160.0</ele><time>2026-05-04T13:43:18.001Z</time></trkpt><trkpt lat="41.60070890149271" lon="0.6021988384870883"><ele>160.0</ele><time>2026-05-04T13:43:19.001Z</time></trkpt><trkpt lat="41.600752341898634" lon="0.6023431506891621"><ele>160.0</ele><time>2026-05-04T13:43:20.001Z</time></trkpt><trkpt lat="41.60080600474597" lon="0.6024741766359194"><ele>160.0</ele><time>2026-05-04T13:43:21.002Z</time></trkpt><trkpt lat="41.600862959461466" lon="0.6026030828412289"><ele>160.0</ele><time>2026-05-04T13:43:22.002Z</time></trkpt><trkpt lat="41.600921126807975" lon="0.6027282221382619"><ele>160.25</ele><time>2026-05-04T13:43:23.002Z</time></trkpt><trkpt lat="41.60097892157899" lon="0.6028542416659297"><ele>160.5</ele><time>2026-05-04T13:43:24.002Z</time></trkpt><trkpt lat="41.60104072251142" lon="0.602986026110689"><ele>160.75</ele><time>2026-05-04T13:43:25.002Z</time></trkpt><trkpt lat="41.60110198213193" lon="0.6031122554437806"><ele>161.0</ele><time>2026-05-04T13:43:26.002Z</time></trkpt><trkpt lat="41.601171248868184" lon="0.6032325938557299"><ele>161.75</ele><time>2026-05-04T13:43:27.002Z</time></trkpt><trkpt lat="41.60124206545628" lon="0.6033517096596093"><ele>162.5</ele><time>2026-05-04T13:43:28.002Z</time></trkpt><trkpt lat="41.60131606405221" lon="0.6034727195601564"><ele>163.25</ele><time>2026-05-04T13:43:29.002Z</time></trkpt><trkpt lat="41.60139002728108" lon="0.6035946019081875"><ele>164.0</ele><time>2026-05-04T13:43:30.002Z</time></trkpt><trkpt lat="41.601461615525984" lon="0.6037248845490097"><ele>162.25</ele><time>2026-05-04T13:43:31.002Z</time></trkpt><trkpt lat="41.601531009136224" lon="0.6038449545197786"><ele>160.5</ele><time>2026-05-04T13:43:32.002Z</time></trkpt><trkpt lat="41.60160178866707" lon="0.6039677220281953"><ele>158.75</ele><time>2026-05-04T13:43:33.002Z</time></trkpt><trkpt lat="41.6016759421662" lon="0.6040838812612619"><ele>157.0</ele><time>2026-05-04T13:43:34.002Z</time></trkpt><trkpt lat="41.60174547329126" lon="0.6042045840003936"><ele>157.0</ele><time>2026-05-04T13:43:35.002Z</time></trkpt><trkpt lat="41.60181193333645" lon="0.6043313031718743"><ele>157.0</ele><time>2026-05-04T13:43:36.002Z</time></trkpt><trkpt lat="41.60187350859975" lon="0.6044393016552909"><ele>157.0</ele><time>2026-05-04T13:43:37.002Z</time></trkpt><trkpt lat="41.60193938151657" lon="0.6045307635040555"><ele>157.0</ele><time>2026-05-04T13:43:38.002Z</time></trkpt><trkpt lat="41.60199683387444" lon="0.6046203258693553"><ele>157.0</ele><time>2026-05-04T13:43:39.002Z</time></trkpt><trkpt lat="41.60204005369374" lon="0.6047260179431678"><ele>158.2</ele><time>2026-05-04T13:43:40.002Z</time></trkpt><trkpt lat="41.60206108778293" lon="0.6048446647535969"><ele>159.39999999999998</ele><time>2026-05-04T13:43:41.002Z</time></trkpt><trkpt lat="41.602061670335665" lon="0.6049778382755884"><ele>160.60000000000002</ele><time>2026-05-04T13:43:42.002Z</time></trkpt><trkpt lat="41.60206881114705" lon="0.6051009126124987"><ele>161.8</ele><time>2026-05-04T13:43:43.002Z</time></trkpt><trkpt lat="41.60210492583704" lon="0.6052042782762678"><ele>163.0</ele><time>2026-05-04T13:43:44.002Z</time></trkpt><trkpt lat="41.60216501732575" lon="0.605293084724261"><ele>161.6</ele><time>2026-05-04T13:43:45.002Z</time></trkpt><trkpt lat="41.60224849412093" lon="0.6053605550776933"><ele>160.20000000000002</ele><time>2026-05-04T13:43:46.002Z</time></trkpt><trkpt lat="41.60234812533896" lon="0.605390191555727"><ele>158.8</ele><time>2026-05-04T13:43:47.002Z</time></trkpt><trkpt lat="41.602448275905644" lon="0.6054396272140028"><ele>157.4</ele><time>2026-05-04T13:43:48.002Z</time></trkpt><trkpt lat="41.60253026951144" lon="0.6055305028199262"><ele>156.0</ele><time>2026-05-04T13:43:49.002Z</time></trkpt><trkpt lat="41.60259618248302" lon="0.6056508412437418"><ele>156.0</ele><time>2026-05-04T13:43:50.002Z</time></trkpt><trkpt lat="41.60265628694464" lon="0.605778164985175"><ele>156.0</ele><time>2026-05-04T13:43:51.002Z</time></trkpt><trkpt lat="41.60271408308617" lon="0.6059117490587994"><ele>156.0</ele><time>2026-05-04T13:43:52.002Z</time></trkpt><trkpt lat="41.60277332408892" lon="0.6060543321886875"><ele>156.0</ele><time>2026-05-04T13:43:53.002Z</time></trkpt><trkpt lat="41.60282951262041" lon="0.6061913289279683"><ele>159.25</ele><time>2026-05-04T13:43:54.002Z</time></trkpt><trkpt lat="41.60288292679678" lon="0.6063371687273033"><ele>162.5</ele><time>2026-05-04T13:43:55.002Z</time></trkpt><trkpt lat="41.60293556289653" lon="0.6064855558877825"><ele>165.75</ele><time>2026-05-04T13:43:56.002Z</time></trkpt><trkpt lat="41.602986558300294" lon="0.6066324697225154"><ele>169.0</ele><time>2026-05-04T13:43:57.002Z</time></trkpt><trkpt lat="41.60303886403881" lon="0.6067795965925922"><ele>169.0</ele><time>2026-05-04T13:43:58.002Z</time></trkpt><trkpt lat="41.60309127464918" lon="0.6069268618913319"><ele>169.0</ele><time>2026-05-04T13:43:59.002Z</time></trkpt><trkpt lat="41.603139811800325" lon="0.6070720986575756"><ele>169.0</ele><time>2026-05-04T13:44:00.002Z</time></trkpt><trkpt lat="41.60319067058594" lon="0.6072233756201065"><ele>169.0</ele><time>2026-05-04T13:44:01.003Z</time></trkpt><trkpt lat="41.60324503005745" lon="0.6073691303426307"><ele>167.5</ele><time>2026-05-04T13:44:02.003Z</time></trkpt><trkpt lat="41.60330145689645" lon="0.6075102818529446"><ele>166.0</ele><time>2026-05-04T13:44:03.003Z</time></trkpt><trkpt lat="41.603361892951106" lon="0.6076527869202185"><ele>164.5</ele><time>2026-05-04T13:44:04.003Z</time></trkpt><trkpt lat="41.60342252320466" lon="0.6077913923034353"><ele>163.0</ele><time>2026-05-04T13:44:05.003Z</time></trkpt><trkpt lat="41.6034839565932" lon="0.607925675238158"><ele>164.0</ele><time>2026-05-04T13:44:06.003Z</time></trkpt><trkpt lat="41.6035494786166" lon="0.6080595104588773"><ele>165.0</ele><time>2026-05-04T13:44:07.003Z</time></trkpt><trkpt lat="41.60361982914313" lon="0.6081861498083356"><ele>166.0</ele><time>2026-05-04T13:44:08.003Z</time></trkpt><trkpt lat="41.603692006874766" lon="0.608314028997222"><ele>167.0</ele><time>2026-05-04T13:44:09.003Z</time></trkpt><trkpt lat="41.60376316951835" lon="0.6084418923524733"><ele>167.0</ele><time>2026-05-04T13:44:10.003Z</time></trkpt><trkpt lat="41.60383501140593" lon="0.6085663939855054"><ele>167.0</ele><time>2026-05-04T13:44:11.003Z</time></trkpt><trkpt lat="41.60390775797342" lon="0.6086790896308875"><ele>167.0</ele><time>2026-05-04T13:44:12.003Z</time></trkpt><trkpt lat="41.60398150124228" lon="0.6088070319451296"><ele>167.0</ele><time>2026-05-04T13:44:13.003Z</time></trkpt><trkpt lat="41.60405014717601" lon="0.6089330573806498"><ele>165.25</ele><time>2026-05-04T13:44:14.003Z</time></trkpt><trkpt lat="41.60411419818324" lon="0.6090634939305036"><ele>163.5</ele><time>2026-05-04T13:44:15.003Z</time></trkpt><trkpt lat="41.60418078236627" lon="0.6091909695299657"><ele>161.75</ele><time>2026-05-04T13:44:16.003Z</time></trkpt><trkpt lat="41.60424386257656" lon="0.6093144863616672"><ele>160.0</ele><time>2026-05-04T13:44:17.003Z</time></trkpt><trkpt lat="41.604312564607014" lon="0.6094439470039974"><ele>160.2</ele><time>2026-05-04T13:44:18.003Z</time></trkpt><trkpt lat="41.60437457315416" lon="0.6095676900615019"><ele>160.4</ele><time>2026-05-04T13:44:19Z</time></trkpt><trkpt lat="41.604433493541734" lon="0.60969739645404"><ele>160.60000000000002</ele><time>2026-05-04T13:44:20Z</time></trkpt><trkpt lat="41.60449718575185" lon="0.6098234819450494"><ele>160.8</ele><time>2026-05-04T13:44:21Z</time></trkpt><trkpt lat="41.60455636594167" lon="0.6099374748566919"><ele>161.0</ele><time>2026-05-04T13:44:22Z</time></trkpt><trkpt lat="41.604614220527345" lon="0.6100546450983"><ele>161.0</ele><time>2026-05-04T13:44:23Z</time></trkpt><trkpt lat="41.60469339493978" lon="0.610206002618803"><ele>161.0</ele><time>2026-05-04T13:44:24Z</time></trkpt><trkpt lat="41.604796217589445" lon="0.610411965878881"><ele>161.0</ele><time>2026-05-04T13:44:25Z</time></trkpt><trkpt lat="41.60486222244564" lon="0.610579395648069"><ele>160.0</ele><time>2026-05-04T13:44:27Z</time></trkpt><trkpt lat="41.604921508851625" lon="0.6107040624737592"><ele>159.0</ele><time>2026-05-04T13:44:28Z</time></trkpt><trkpt lat="41.60498870136402" lon="0.6108276397842427"><ele>158.0</ele><time>2026-05-04T13:44:29Z</time></trkpt><trkpt lat="41.60504696881374" lon="0.6109534174563833"><ele>157.0</ele><time>2026-05-04T13:44:30Z</time></trkpt><trkpt lat="41.60510106226279" lon="0.6110739497791005"><ele>156.0</ele><time>2026-05-04T13:44:31Z</time></trkpt><trkpt lat="41.60516128923964" lon="0.6111945678237081"><ele>156.0</ele><time>2026-05-04T13:44:32Z</time></trkpt><trkpt lat="41.60521861914203" lon="0.6113205733545931"><ele>156.0</ele><time>2026-05-04T13:44:33Z</time></trkpt><trkpt lat="41.60527221463532" lon="0.6114518016432815"><ele>156.0</ele><time>2026-05-04T13:44:34Z</time></trkpt><trkpt lat="41.60532555214204" lon="0.611576275189282"><ele>156.0</ele><time>2026-05-04T13:44:35Z</time></trkpt><trkpt lat="41.60537991549802" lon="0.6117057759482845"><ele>156.0</ele><time>2026-05-04T13:44:36Z</time></trkpt><trkpt lat="41.60543350900121" lon="0.6118360378677528"><ele>156.0</ele><time>2026-05-04T13:44:37Z</time></trkpt><trkpt lat="41.60549502077965" lon="0.6119761471817233"><ele>156.0</ele><time>2026-05-04T13:44:38Z</time></trkpt><trkpt lat="41.60554607285223" lon="0.6121093909691177"><ele>156.0</ele><time>2026-05-04T13:44:39Z</time></trkpt><trkpt lat="41.60560189626704" lon="0.6122433298917345"><ele>156.0</ele><time>2026-05-04T13:44:40Z</time></trkpt><trkpt lat="41.60566163999927" lon="0.6123580708474593"><ele>156.0</ele><time>2026-05-04T13:44:41Z</time></trkpt><trkpt lat="41.60570872654692" lon="0.6124713050345345"><ele>156.0</ele><time>2026-05-04T13:44:42Z</time></trkpt><trkpt lat="41.60575556476515" lon="0.6125796595965597"><ele>156.0</ele><time>2026-05-04T13:44:43Z</time></trkpt><trkpt lat="41.60579462969546" lon="0.61268432033312"><ele>156.0</ele><time>2026-05-04T13:44:44.001Z</time></trkpt><trkpt lat="41.60584196290926" lon="0.6127895132819888"><ele>156.0</ele><time>2026-05-04T13:44:45.001Z</time></trkpt><trkpt lat="41.60587501384733" lon="0.6129012167845278"><ele>156.0</ele><time>2026-05-04T13:44:46.001Z</time></trkpt><trkpt lat="41.60589582709522" lon="0.6130079219466303"><ele>156.0</ele><time>2026-05-04T13:44:47.001Z</time></trkpt><trkpt lat="41.60588990823017" lon="0.6131285318425471"><ele>156.0</ele><time>2026-05-04T13:44:48.001Z</time></trkpt><trkpt lat="41.60584131852894" lon="0.6132455416702173"><ele>156.0</ele><time>2026-05-04T13:44:49.001Z</time></trkpt><trkpt lat="41.60578632436746" lon="0.6133342615020967"><ele>156.0</ele><time>2026-05-04T13:44:50.001Z</time></trkpt><trkpt lat="41.60574411828954" lon="0.6134142809637516"><ele>156.0</ele><time>2026-05-04T13:44:51.001Z</time></trkpt><trkpt lat="41.605756034538445" lon="0.6135434597806777"><ele>156.5</ele><time>2026-05-04T13:44:53.001Z</time></trkpt><trkpt lat="41.605920837772565" lon="0.61370263786439"><ele>157.0</ele><time>2026-05-04T13:44:54.001Z</time></trkpt><trkpt lat="41.606012068460316" lon="0.6136915341650048"><ele>157.5</ele><time>2026-05-04T13:44:55.001Z</time></trkpt><trkpt lat="41.60608985389172" lon="0.61367040242118"><ele>158.0</ele><time>2026-05-04T13:44:56.001Z</time></trkpt><trkpt lat="41.606181272335824" lon="0.6137754286816554"><ele>158.4</ele><time>2026-05-04T13:44:57.001Z</time></trkpt><trkpt lat="41.60624720293575" lon="0.6138583549994299"><ele>158.8</ele><time>2026-05-04T13:44:58.001Z</time></trkpt><trkpt lat="41.60628645072334" lon="0.613976585563068"><ele>159.2</ele><time>2026-05-04T13:44:59.001Z</time></trkpt><trkpt lat="41.606325247891995" lon="0.6140915640933597"><ele>159.6</ele><time>2026-05-04T13:45:00.001Z</time></trkpt><trkpt lat="41.60637470224446" lon="0.6142062249025041"><ele>160.0</ele><time>2026-05-04T13:45:01.001Z</time></trkpt><trkpt lat="41.60641760600441" lon="0.6143180659699041"><ele>160.0</ele><time>2026-05-04T13:45:02.001Z</time></trkpt><trkpt lat="41.6064611467391" lon="0.6144342635980017"><ele>160.0</ele><time>2026-05-04T13:45:03.001Z</time></trkpt><trkpt lat="41.606507646647685" lon="0.6145490258709754"><ele>160.0</ele><time>2026-05-04T13:45:04.001Z</time></trkpt><trkpt lat="41.60655839966969" lon="0.6146651517585869"><ele>160.0</ele><time>2026-05-04T13:45:05.001Z</time></trkpt><trkpt lat="41.60660820532486" lon="0.6147763085602149"><ele>160.0</ele><time>2026-05-04T13:45:06.001Z</time></trkpt><trkpt lat="41.606664265815105" lon="0.6148900657982725"><ele>160.0</ele><time>2026-05-04T13:45:07.001Z</time></trkpt><trkpt lat="41.60672444645206" lon="0.6150019891187897"><ele>160.0</ele><time>2026-05-04T13:45:08.001Z</time></trkpt><trkpt lat="41.60679059451778" lon="0.6151126452591323"><ele>160.0</ele><time>2026-05-04T13:45:09.001Z</time></trkpt><trkpt lat="41.60685853348928" lon="0.6152205065242115"><ele>160.0</ele><time>2026-05-04T13:45:10.001Z</time></trkpt><trkpt lat="41.6069253997228" lon="0.6153290998185854"><ele>160.0</ele><time>2026-05-04T13:45:11.001Z</time></trkpt><trkpt lat="41.60699602655113" lon="0.6154321914206962"><ele>160.0</ele><time>2026-05-04T13:45:12.001Z</time></trkpt><trkpt lat="41.607072438002604" lon="0.6155367082954378"><ele>160.0</ele><time>2026-05-04T13:45:13.001Z</time></trkpt><trkpt lat="41.60714903225285" lon="0.6156289965935121"><ele>160.0</ele><time>2026-05-04T13:45:14.001Z</time></trkpt><trkpt lat="41.60722742750774" lon="0.6157316876498693"><ele>160.0</ele><time>2026-05-04T13:45:15.001Z</time></trkpt><trkpt lat="41.60730611360756" lon="0.6158322366982857"><ele>160.0</ele><time>2026-05-04T13:45:16.001Z</time></trkpt><trkpt lat="41.60737577826234" lon="0.6159253265461038"><ele>160.0</ele><time>2026-05-04T13:45:17.001Z</time></trkpt><trkpt lat="41.60744629180325" lon="0.6160110272372198"><ele>160.0</ele><time>2026-05-04T13:45:18.001Z</time></trkpt><trkpt lat="41.60751370836932" lon="0.6160960371809812"><ele>160.0</ele><time>2026-05-04T13:45:19.001Z</time></trkpt><trkpt lat="41.60757855750485" lon="0.6161885875885018"><ele>160.0</ele><time>2026-05-04T13:45:20.001Z</time></trkpt><trkpt lat="41.60763856549646" lon="0.6162915106950223"><ele>160.0</ele><time>2026-05-04T13:45:21.001Z</time></trkpt><trkpt lat="41.607716617879646" lon="0.6163681168689967"><ele>160.2</ele><time>2026-05-04T13:45:22.001Z</time></trkpt><trkpt lat="41.607793047850436" lon="0.6164514953406666"><ele>160.4</ele><time>2026-05-04T13:45:23.001Z</time></trkpt><trkpt lat="41.60786107891847" lon="0.6165346937156222"><ele>160.60000000000002</ele><time>2026-05-04T13:45:24.001Z</time></trkpt><trkpt lat="41.60792688517689" lon="0.6166247255730588"><ele>160.8</ele><time>2026-05-04T13:45:25.001Z</time></trkpt><trkpt lat="41.60798576041767" lon="0.6167139743256157"><ele>161.0</ele><time>2026-05-04T13:45:26.001Z</time></trkpt><trkpt lat="41.60803981291888" lon="0.6168075021257393"><ele>161.0</ele><time>2026-05-04T13:45:27.001Z</time></trkpt><trkpt lat="41.60808581921562" lon="0.6169087075897958"><ele>161.0</ele><time>2026-05-04T13:45:28.001Z</time></trkpt><trkpt lat="41.60811549510641" lon="0.6170298148841834"><ele>161.0</ele><time>2026-05-04T13:45:29.002Z</time></trkpt><trkpt lat="41.60814115956368" lon="0.6171328708266128"><ele>161.0</ele><time>2026-05-04T13:45:30.002Z</time></trkpt><trkpt lat="41.608097629980314" lon="0.6172406499996832"><ele>161.0</ele><time>2026-05-04T13:45:31.002Z</time></trkpt><trkpt lat="41.60808020488769" lon="0.6173428518644037"><ele>161.0</ele><time>2026-05-04T13:45:33.002Z</time></trkpt><trkpt lat="41.608042402891286" lon="0.6174302100949303"><ele>160.5</ele><time>2026-05-04T13:45:37.002Z</time></trkpt><trkpt lat="41.60799558783017" lon="0.617504016451886"><ele>160.0</ele><time>2026-05-04T13:45:39.002Z</time></trkpt><trkpt lat="41.607921463774886" lon="0.6176230414977084"><ele>159.5</ele><time>2026-05-04T13:45:41.002Z</time></trkpt><trkpt lat="41.60782978373308" lon="0.6176853603298266"><ele>159.0</ele><time>2026-05-04T13:45:43.002Z</time></trkpt><trkpt lat="41.607774546424956" lon="0.6177279792923307"><ele>158.5</ele><time>2026-05-04T13:45:45.002Z</time></trkpt><trkpt lat="41.60770081979103" lon="0.6177610548596233"><ele>158.0</ele><time>2026-05-04T13:45:51.002Z</time></trkpt><trkpt lat="41.60763397797582" lon="0.6177831386353199"><ele>157.0</ele><time>2026-05-04T13:45:56.002Z</time></trkpt><trkpt lat="41.60753483995157" lon="0.6178523651092215"><ele>156.0</ele><time>2026-05-04T13:46:00.002Z</time></trkpt><trkpt lat="41.60744169196431" lon="0.6179444059076599"><ele>155.0</ele><time>2026-05-04T13:46:02.002Z</time></trkpt><trkpt lat="41.60733937500233" lon="0.6180114982087072"><ele>154.0</ele><time>2026-05-04T13:46:04.002Z</time></trkpt><trkpt lat="41.6072746354763" lon="0.6181256918543985"><ele>153.0</ele><time>2026-05-04T13:46:07.002Z</time></trkpt><trkpt lat="41.60717181336578" lon="0.6182159818454412"><ele>153.0</ele><time>2026-05-04T13:46:09.002Z</time></trkpt><trkpt lat="41.60710193857037" lon="0.6182547995944203"><ele>153.0</ele><time>2026-05-04T13:46:10.003Z</time></trkpt><trkpt lat="41.60702840035941" lon="0.6183076407332488"><ele>153.0</ele><time>2026-05-04T13:46:11.003Z</time></trkpt><trkpt lat="41.60696183578243" lon="0.6183678558206521"><ele>153.0</ele><time>2026-05-04T13:46:12.003Z</time></trkpt><trkpt lat="41.606891465809845" lon="0.6184502518181892"><ele>153.0</ele><time>2026-05-04T13:46:13.003Z</time></trkpt><trkpt lat="41.60681274385949" lon="0.6185234768618344"><ele>153.0</ele><time>2026-05-04T13:46:14.003Z</time></trkpt><trkpt lat="41.60673700110203" lon="0.6186003860608398"><ele>152.20000000000002</ele><time>2026-05-04T13:46:15.003Z</time></trkpt><trkpt lat="41.606660067174346" lon="0.6186845663187783"><ele>151.4</ele><time>2026-05-04T13:46:16.003Z</time></trkpt><trkpt lat="41.60658329182514" lon="0.618771581359013"><ele>150.60000000000002</ele><time>2026-05-04T13:46:17.003Z</time></trkpt><trkpt lat="41.606506146264266" lon="0.6188679592119497"><ele>149.8</ele><time>2026-05-04T13:46:18.003Z</time></trkpt><trkpt lat="41.60643098093964" lon="0.6189695509142865"><ele>149.0</ele><time>2026-05-04T13:46:19.003Z</time></trkpt><trkpt lat="41.60635671965103" lon="0.6190773237904943"><ele>149.0</ele><time>2026-05-04T13:46:20.003Z</time></trkpt><trkpt lat="41.606278853241825" lon="0.6191836531370396"><ele>149.0</ele><time>2026-05-04T13:46:21.003Z</time></trkpt><trkpt lat="41.606201781524504" lon="0.6192904139502945"><ele>149.0</ele><time>2026-05-04T13:46:22.003Z</time></trkpt><trkpt lat="41.606127868131225" lon="0.619403098490283"><ele>149.0</ele><time>2026-05-04T13:46:23.003Z</time></trkpt><trkpt lat="41.606064976392545" lon="0.6195174490936394"><ele>149.0</ele><time>2026-05-04T13:46:24.003Z</time></trkpt><trkpt lat="41.60599728352227" lon="0.6196486593866198"><ele>148.75</ele><time>2026-05-04T13:46:25Z</time></trkpt><trkpt lat="41.60592907099206" lon="0.6197759407465132"><ele>148.5</ele><time>2026-05-04T13:46:26Z</time></trkpt><trkpt lat="41.6058639010745" lon="0.6198925105331842"><ele>148.25</ele><time>2026-05-04T13:46:27Z</time></trkpt><trkpt lat="41.60579759324444" lon="0.620016590286198"><ele>148.0</ele><time>2026-05-04T13:46:28Z</time></trkpt><trkpt lat="41.605731380756865" lon="0.6201390349062065"><ele>148.0</ele><time>2026-05-04T13:46:29Z</time></trkpt><trkpt lat="41.605669379193564" lon="0.620268385790723"><ele>148.0</ele><time>2026-05-04T13:46:30Z</time></trkpt><trkpt lat="41.605610275738094" lon="0.6203978679768454"><ele>148.0</ele><time>2026-05-04T13:46:31Z</time></trkpt><trkpt lat="41.60555567802365" lon="0.620532636800918"><ele>148.0</ele><time>2026-05-04T13:46:32Z</time></trkpt><trkpt lat="41.605505185643594" lon="0.6206713858773425"><ele>148.0</ele><time>2026-05-04T13:46:33Z</time></trkpt><trkpt lat="41.605450136126194" lon="0.6208073467201013"><ele>148.0</ele><time>2026-05-04T13:46:34Z</time></trkpt><trkpt lat="41.605390355730194" lon="0.6209372595062959"><ele>148.0</ele><time>2026-05-04T13:46:35Z</time></trkpt><trkpt lat="41.605330379510214" lon="0.6210678757760612"><ele>148.0</ele><time>2026-05-04T13:46:36Z</time></trkpt><trkpt lat="41.605273713841704" lon="0.6212011267050654"><ele>147.20000000000002</ele><time>2026-05-04T13:46:37Z</time></trkpt><trkpt lat="41.60521772818814" lon="0.621333578622792"><ele>146.4</ele><time>2026-05-04T13:46:38Z</time></trkpt><trkpt lat="41.60516204765531" lon="0.6214616668610905"><ele>145.60000000000002</ele><time>2026-05-04T13:46:39Z</time></trkpt><trkpt lat="41.60511199697279" lon="0.6215800282247697"><ele>144.8</ele><time>2026-05-04T13:46:40Z</time></trkpt><trkpt lat="41.605056564458124" lon="0.6217033720637037"><ele>144.0</ele><time>2026-05-04T13:46:41Z</time></trkpt><trkpt lat="41.604991463645355" lon="0.6218211618822971"><ele>144.0</ele><time>2026-05-04T13:46:42Z</time></trkpt><trkpt lat="41.60491793980703" lon="0.6219263221866562"><ele>144.0</ele><time>2026-05-04T13:46:43Z</time></trkpt><trkpt lat="41.60483703049331" lon="0.62202391876971"><ele>144.0</ele><time>2026-05-04T13:46:44Z</time></trkpt><trkpt lat="41.604750914519755" lon="0.6221128138309305"><ele>144.0</ele><time>2026-05-04T13:46:45Z</time></trkpt><trkpt lat="41.60465491862039" lon="0.622182558484053"><ele>144.0</ele><time>2026-05-04T13:46:46Z</time></trkpt><trkpt lat="41.60455542145596" lon="0.6222438563878167"><ele>143.8</ele><time>2026-05-04T13:46:47Z</time></trkpt><trkpt lat="41.60445424082921" lon="0.6223096989024259"><ele>143.60000000000002</ele><time>2026-05-04T13:46:48Z</time></trkpt><trkpt lat="41.60434894627028" lon="0.622367115661676"><ele>143.4</ele><time>2026-05-04T13:46:49Z</time></trkpt><trkpt lat="41.60424324674509" lon="0.6224149254765445"><ele>143.20000000000002</ele><time>2026-05-04T13:46:50Z</time></trkpt><trkpt lat="41.604139874264234" lon="0.622466694228171"><ele>143.0</ele><time>2026-05-04T13:46:51Z</time></trkpt><trkpt lat="41.604037367696975" lon="0.62252362703459"><ele>143.0</ele><time>2026-05-04T13:46:52Z</time></trkpt><trkpt lat="41.6039399931016" lon="0.6225775641518426"><ele>143.0</ele><time>2026-05-04T13:46:53Z</time></trkpt><trkpt lat="41.60383024349098" lon="0.6226340810467008"><ele>143.0</ele><time>2026-05-04T13:46:54Z</time></trkpt><trkpt lat="41.60371890240072" lon="0.6226978417622049"><ele>143.0</ele><time>2026-05-04T13:46:55Z</time></trkpt><trkpt lat="41.60363601411851" lon="0.6227625525440892"><ele>143.0</ele><time>2026-05-04T13:46:56Z</time></trkpt><trkpt lat="41.60354040449666" lon="0.6228445388191899"><ele>144.0</ele><time>2026-05-04T13:46:57Z</time></trkpt><trkpt lat="41.603451067860824" lon="0.6229333157177404"><ele>145.0</ele><time>2026-05-04T13:46:58Z</time></trkpt><trkpt lat="41.60336601938826" lon="0.623028976596866"><ele>146.0</ele><time>2026-05-04T13:46:59.001Z</time></trkpt><trkpt lat="41.60328409116922" lon="0.6231287593932141"><ele>147.0</ele><time>2026-05-04T13:47:00.001Z</time></trkpt><trkpt lat="41.603206883482365" lon="0.6232348571783061"><ele>148.0</ele><time>2026-05-04T13:47:01.001Z</time></trkpt><trkpt lat="41.60313248973464" lon="0.6233491498056248"><ele>148.0</ele><time>2026-05-04T13:47:02.001Z</time></trkpt><trkpt lat="41.6030723784586" lon="0.6234632510896728"><ele>148.0</ele><time>2026-05-04T13:47:03.001Z</time></trkpt><trkpt lat="41.60301278375156" lon="0.6236035896924589"><ele>148.0</ele><time>2026-05-04T13:47:04.001Z</time></trkpt><trkpt lat="41.602952870966654" lon="0.6237395202185374"><ele>148.0</ele><time>2026-05-04T13:47:05.001Z</time></trkpt><trkpt lat="41.60290309013039" lon="0.623879888215394"><ele>148.25</ele><time>2026-05-04T13:47:06.001Z</time></trkpt><trkpt lat="41.60285861899473" lon="0.6240217310774079"><ele>148.5</ele><time>2026-05-04T13:47:07.001Z</time></trkpt><trkpt lat="41.60282254847892" lon="0.6241687604802274"><ele>148.75</ele><time>2026-05-04T13:47:08.001Z</time></trkpt><trkpt lat="41.602797043386516" lon="0.6243209125654068"><ele>149.0</ele><time>2026-05-04T13:47:09.001Z</time></trkpt><trkpt lat="41.602774601768644" lon="0.6244709792511205"><ele>148.5</ele><time>2026-05-04T13:47:10.001Z</time></trkpt><trkpt lat="41.60275939461897" lon="0.624622593105046"><ele>148.0</ele><time>2026-05-04T13:47:11.001Z</time></trkpt><trkpt lat="41.60275171442223" lon="0.6247755369479034"><ele>147.5</ele><time>2026-05-04T13:47:12.001Z</time></trkpt><trkpt lat="41.60275653101898" lon="0.6249305220622052"><ele>147.0</ele><time>2026-05-04T13:47:13.001Z</time></trkpt><trkpt lat="41.6027715789239" lon="0.6250898558177318"><ele>147.0</ele><time>2026-05-04T13:47:14.001Z</time></trkpt><trkpt lat="41.60278932834906" lon="0.6252415814320872"><ele>147.0</ele><time>2026-05-04T13:47:15.001Z</time></trkpt><trkpt lat="41.60281460233963" lon="0.6253916405482892"><ele>147.0</ele><time>2026-05-04T13:47:16.001Z</time></trkpt><trkpt lat="41.602845295286336" lon="0.6255362270987923"><ele>147.0</ele><time>2026-05-04T13:47:17.001Z</time></trkpt><trkpt lat="41.602887219440724" lon="0.6256792209139189"><ele>147.0</ele><time>2026-05-04T13:47:18.001Z</time></trkpt><trkpt lat="41.60293635628809" lon="0.6258197831921775"><ele>147.0</ele><time>2026-05-04T13:47:19.001Z</time></trkpt><trkpt lat="41.60299929037803" lon="0.6259425320794457"><ele>147.0</ele><time>2026-05-04T13:47:20.001Z</time></trkpt><trkpt lat="41.60305867480418" lon="0.6260745853451084"><ele>147.0</ele><time>2026-05-04T13:47:21.001Z</time></trkpt><trkpt lat="41.60313127184615" lon="0.6261950887306106"><ele>146.5</ele><time>2026-05-04T13:47:22.001Z</time></trkpt><trkpt lat="41.60320822563505" lon="0.6263088581020346"><ele>146.0</ele><time>2026-05-04T13:47:23.001Z</time></trkpt><trkpt lat="41.60328694846003" lon="0.626417820640931"><ele>145.5</ele><time>2026-05-04T13:47:24.001Z</time></trkpt><trkpt lat="41.60337022265494" lon="0.6265196564552505"><ele>145.0</ele><time>2026-05-04T13:47:25.001Z</time></trkpt><trkpt lat="41.6034584071223" lon="0.6266126979821316"><ele>145.0</ele><time>2026-05-04T13:47:26.001Z</time></trkpt><trkpt lat="41.60355646522973" lon="0.6266918778922524"><ele>145.0</ele><time>2026-05-04T13:47:27.001Z</time></trkpt><trkpt lat="41.60366150846374" lon="0.6267590583729588"><ele>145.0</ele><time>2026-05-04T13:47:28.001Z</time></trkpt><trkpt lat="41.603762461654505" lon="0.6268216972958679"><ele>145.0</ele><time>2026-05-04T13:47:29.001Z</time></trkpt><trkpt lat="41.603871222070076" lon="0.626872803061736"><ele>145.5</ele><time>2026-05-04T13:47:30.001Z</time></trkpt><trkpt lat="41.6039838382654" lon="0.6269125157145093"><ele>146.0</ele><time>2026-05-04T13:47:31.001Z</time></trkpt><trkpt lat="41.60409591533076" lon="0.6269473413335839"><ele>146.5</ele><time>2026-05-04T13:47:32.001Z</time></trkpt><trkpt lat="41.60421057262992" lon="0.6269751565674557"><ele>147.0</ele><time>2026-05-04T13:47:33.001Z</time></trkpt><trkpt lat="41.60432523715493" lon="0.6269960953399994"><ele>147.25</ele><time>2026-05-04T13:47:34.001Z</time></trkpt><trkpt lat="41.60444008541788" lon="0.6270150727374526"><ele>147.5</ele><time>2026-05-04T13:47:35.001Z</time></trkpt><trkpt lat="41.60455498431511" lon="0.6270344827195138"><ele>147.75</ele><time>2026-05-04T13:47:36.001Z</time></trkpt><trkpt lat="41.60467020488211" lon="0.6270600467211989"><ele>148.0</ele><time>2026-05-04T13:47:37.001Z</time></trkpt><trkpt lat="41.60478367018515" lon="0.6270923802746406"><ele>148.0</ele><time>2026-05-04T13:47:38.001Z</time></trkpt><trkpt lat="41.60489711422556" lon="0.6271284099262243"><ele>148.0</ele><time>2026-05-04T13:47:39.002Z</time></trkpt><trkpt lat="41.60500963170667" lon="0.6271758498449271"><ele>148.0</ele><time>2026-05-04T13:47:40.002Z</time></trkpt><trkpt lat="41.60511724767799" lon="0.6272299197788995"><ele>148.0</ele><time>2026-05-04T13:47:41.002Z</time></trkpt><trkpt lat="41.60522126866566" lon="0.627294153667364"><ele>148.0</ele><time>2026-05-04T13:47:42.002Z</time></trkpt><trkpt lat="41.60531543126244" lon="0.6273650227996017"><ele>148.0</ele><time>2026-05-04T13:47:43.002Z</time></trkpt><trkpt lat="41.605397215607006" lon="0.6274356505329904"><ele>148.0</ele><time>2026-05-04T13:47:44.002Z</time></trkpt><trkpt lat="41.60548399685008" lon="0.6274942438957434"><ele>148.0</ele><time>2026-05-04T13:47:45.002Z</time></trkpt><trkpt lat="41.60555303800222" lon="0.6275748656411759"><ele>148.0</ele><time>2026-05-04T13:47:46.002Z</time></trkpt><trkpt lat="41.60560659710691" lon="0.6276564777412663"><ele>148.20000000000002</ele><time>2026-05-04T13:47:47.002Z</time></trkpt><trkpt lat="41.60565282832364" lon="0.6277211927324132"><ele>148.4</ele><time>2026-05-04T13:47:48.002Z</time></trkpt><trkpt lat="41.605721003307224" lon="0.6278206884897723"><ele>148.60000000000002</ele><time>2026-05-04T13:47:50.002Z</time></trkpt><trkpt lat="41.60577938918016" lon="0.6279095082669628"><ele>148.8</ele><time>2026-05-04T13:47:52.002Z</time></trkpt><trkpt lat="41.6058458120156" lon="0.6280062159950369"><ele>149.0</ele><time>2026-05-04T13:47:54.002Z</time></trkpt><trkpt lat="41.60592290131998" lon="0.6280925097315375"><ele>149.16666666666666</ele><time>2026-05-04T13:47:56.002Z</time></trkpt><trkpt lat="41.60596867221291" lon="0.6281593126283043"><ele>149.33333333333331</ele><time>2026-05-04T13:47:57.002Z</time></trkpt><trkpt lat="41.60602119398848" lon="0.6282340742556214"><ele>149.5</ele><time>2026-05-04T13:47:58.002Z</time></trkpt><trkpt lat="41.60607378660623" lon="0.6283113983420344"><ele>149.66666666666666</ele><time>2026-05-04T13:47:59.002Z</time></trkpt><trkpt lat="41.60612303608965" lon="0.6283939118446509"><ele>149.83333333333334</ele><time>2026-05-04T13:48:00.002Z</time></trkpt><trkpt lat="41.606169516679685" lon="0.6284772424357034"><ele>150.0</ele><time>2026-05-04T13:48:01.002Z</time></trkpt><trkpt lat="41.60621006938524" lon="0.6285610825815339"><ele>149.5</ele><time>2026-05-04T13:48:02.002Z</time></trkpt><trkpt lat="41.60624265410804" lon="0.6286442960292982"><ele>149.0</ele><time>2026-05-04T13:48:03.002Z</time></trkpt><trkpt lat="41.60626278908213" lon="0.6287264055486299"><ele>148.5</ele><time>2026-05-04T13:48:04.002Z</time></trkpt><trkpt lat="41.60628523190148" lon="0.6288456845897107"><ele>148.0</ele><time>2026-05-04T13:48:06.002Z</time></trkpt><trkpt lat="41.606293857458645" lon="0.6289906564578879"><ele>147.5</ele><time>2026-05-04T13:48:08.002Z</time></trkpt><trkpt lat="41.60630119539951" lon="0.6290816940062065"><ele>147.0</ele><time>2026-05-04T13:48:09.002Z</time></trkpt><trkpt lat="41.606324972605925" lon="0.6291786398275467"><ele>147.0</ele><time>2026-05-04T13:48:10.002Z</time></trkpt><trkpt lat="41.60638280625104" lon="0.6292552414260782"><ele>147.0</ele><time>2026-05-04T13:48:11.002Z</time></trkpt><trkpt lat="41.606465398085994" lon="0.629305790237068"><ele>147.0</ele><time>2026-05-04T13:48:12.002Z</time></trkpt><trkpt lat="41.60655400719377" lon="0.6293387008010844"><ele>147.0</ele><time>2026-05-04T13:48:13.002Z</time></trkpt><trkpt lat="41.60663991751784" lon="0.6293211266513592"><ele>147.0</ele><time>2026-05-04T13:48:14.002Z</time></trkpt><trkpt lat="41.60671885262886" lon="0.6294522531581315"><ele>146.4</ele><time>2026-05-04T13:48:15.002Z</time></trkpt><trkpt lat="41.606769824263395" lon="0.6295709344901349"><ele>145.79999999999998</ele><time>2026-05-04T13:48:16.002Z</time></trkpt><trkpt lat="41.60680964752661" lon="0.629693385005703"><ele>145.2</ele><time>2026-05-04T13:48:17.002Z</time></trkpt><trkpt lat="41.606848503504644" lon="0.6298230521610296"><ele>144.6</ele><time>2026-05-04T13:48:18.002Z</time></trkpt><trkpt lat="41.606892898748846" lon="0.629948884502176"><ele>144.0</ele><time>2026-05-04T13:48:19.002Z</time></trkpt><trkpt lat="41.60693652803368" lon="0.6300769258650937"><ele>144.0</ele><time>2026-05-04T13:48:20.003Z</time></trkpt><trkpt lat="41.60697902582975" lon="0.6302064987041524"><ele>144.0</ele><time>2026-05-04T13:48:21.003Z</time></trkpt><trkpt lat="41.6070222976135" lon="0.6303443154043953"><ele>144.0</ele><time>2026-05-04T13:48:22.003Z</time></trkpt><trkpt lat="41.60706730737016" lon="0.6304792829081246"><ele>144.0</ele><time>2026-05-04T13:48:23.003Z</time></trkpt><trkpt lat="41.60711155104006" lon="0.6306125086159002"><ele>144.0</ele><time>2026-05-04T13:48:24.003Z</time></trkpt><trkpt lat="41.607158175632755" lon="0.6307446607606491"><ele>144.0</ele><time>2026-05-04T13:48:25.003Z</time></trkpt><trkpt lat="41.60720437984301" lon="0.630878900829231"><ele>144.0</ele><time>2026-05-04T13:48:26.003Z</time></trkpt><trkpt lat="41.60724923166536" lon="0.6310152044277566"><ele>144.0</ele><time>2026-05-04T13:48:27.003Z</time></trkpt><trkpt lat="41.60729138510846" lon="0.6311466158511158"><ele>144.0</ele><time>2026-05-04T13:48:28.003Z</time></trkpt><trkpt lat="41.60733452364694" lon="0.6312985014953704"><ele>144.25</ele><time>2026-05-04T13:48:29.003Z</time></trkpt><trkpt lat="41.607381774284356" lon="0.6314549945421368"><ele>144.5</ele><time>2026-05-04T13:48:30.003Z</time></trkpt><trkpt lat="41.60743943568477" lon="0.6316270488979066"><ele>144.75</ele><time>2026-05-04T13:48:31Z</time></trkpt><trkpt lat="41.607507853942224" lon="0.6318104042505989"><ele>145.0</ele><time>2026-05-04T13:48:33Z</time></trkpt><trkpt lat="41.607542830391424" lon="0.6319188555386944"><ele>145.33333333333334</ele><time>2026-05-04T13:48:34Z</time></trkpt><trkpt lat="41.607570989642625" lon="0.6320094896915367"><ele>145.66666666666669</ele><time>2026-05-04T13:48:35Z</time></trkpt><trkpt lat="41.6076076666903" lon="0.632122954169956"><ele>146.0</ele><time>2026-05-04T13:48:37Z</time></trkpt><trkpt lat="41.60764072708888" lon="0.6322123341001017"><ele>146.33333333333334</ele><time>2026-05-04T13:49:16.001Z</time></trkpt><trkpt lat="41.607691168623184" lon="0.6323548461560111"><ele>146.66666666666666</ele><time>2026-05-04T13:49:18.001Z</time></trkpt><trkpt lat="41.60771501982393" lon="0.6324340361686054"><ele>147.0</ele><time>2026-05-04T13:49:19.001Z</time></trkpt><trkpt lat="41.607741838967485" lon="0.6325168926556293"><ele>147.0</ele><time>2026-05-04T13:49:20.001Z</time></trkpt><trkpt lat="41.60777697808296" lon="0.6326086981177106"><ele>147.0</ele><time>2026-05-04T13:49:21.001Z</time></trkpt><trkpt lat="41.60781200688558" lon="0.6327050598870786"><ele>147.0</ele><time>2026-05-04T13:49:22.001Z</time></trkpt><trkpt lat="41.607847203808625" lon="0.6328069946472203"><ele>147.0</ele><time>2026-05-04T13:49:23.001Z</time></trkpt><trkpt lat="41.60788484422021" lon="0.6329120209433519"><ele>147.0</ele><time>2026-05-04T13:49:24.001Z</time></trkpt><trkpt lat="41.60792000483311" lon="0.6330215114527706"><ele>147.0</ele><time>2026-05-04T13:49:25.001Z</time></trkpt><trkpt lat="41.607958449063446" lon="0.6331333810703518"><ele>146.79999999999998</ele><time>2026-05-04T13:49:26.001Z</time></trkpt><trkpt lat="41.60799906061132" lon="0.6332454694923021"><ele>146.6</ele><time>2026-05-04T13:49:27.001Z</time></trkpt><trkpt lat="41.60804172386533" lon="0.6333633778195008"><ele>146.39999999999998</ele><time>2026-05-04T13:49:28.001Z</time></trkpt><trkpt lat="41.60808802618953" lon="0.6334803827388604"><ele>146.2</ele><time>2026-05-04T13:49:29.001Z</time></trkpt><trkpt lat="41.60812883363716" lon="0.6336037080605267"><ele>146.0</ele><time>2026-05-04T13:49:30.001Z</time></trkpt><trkpt lat="41.60817039927351" lon="0.6337286590325231"><ele>146.4</ele><time>2026-05-04T13:49:31.001Z</time></trkpt><trkpt lat="41.60821369734808" lon="0.6338562915130015"><ele>146.8</ele><time>2026-05-04T13:49:32.001Z</time></trkpt><trkpt lat="41.60825494300785" lon="0.633985498934286"><ele>147.20000000000002</ele><time>2026-05-04T13:49:33.001Z</time></trkpt><trkpt lat="41.608296898708886" lon="0.6341175316061833"><ele>147.6</ele><time>2026-05-04T13:49:34.001Z</time></trkpt><trkpt lat="41.608339365927705" lon="0.6342501429502991"><ele>148.0</ele><time>2026-05-04T13:49:35.001Z</time></trkpt><trkpt lat="41.60838256416757" lon="0.6343799815425636"><ele>148.0</ele><time>2026-05-04T13:49:36.001Z</time></trkpt><trkpt lat="41.60842739368842" lon="0.6345127652444084"><ele>148.0</ele><time>2026-05-04T13:49:37.001Z</time></trkpt><trkpt lat="41.608477160747555" lon="0.6346448508193376"><ele>148.0</ele><time>2026-05-04T13:49:38.001Z</time></trkpt><trkpt lat="41.60852217884573" lon="0.6347803863878047"><ele>148.0</ele><time>2026-05-04T13:49:39.001Z</time></trkpt><trkpt lat="41.60856763696992" lon="0.6349165280127766"><ele>148.0</ele><time>2026-05-04T13:49:40.001Z</time></trkpt><trkpt lat="41.60861336481825" lon="0.6350555725087675"><ele>148.0</ele><time>2026-05-04T13:49:41.001Z</time></trkpt><trkpt lat="41.6086566089248" lon="0.6351927073840281"><ele>148.0</ele><time>2026-05-04T13:49:42.001Z</time></trkpt><trkpt lat="41.60871381958351" lon="0.6353259281284077"><ele>148.0</ele><time>2026-05-04T13:49:43.001Z</time></trkpt><trkpt lat="41.608783722991014" lon="0.6354868021021891"><ele>148.0</ele><time>2026-05-04T13:49:44.001Z</time></trkpt><trkpt lat="41.60882106203519" lon="0.6355981736007986"><ele>148.6</ele><time>2026-05-04T13:49:45.002Z</time></trkpt><trkpt lat="41.608844036129206" lon="0.6357507963632805"><ele>149.20000000000002</ele><time>2026-05-04T13:49:46.002Z</time></trkpt><trkpt lat="41.60887370338626" lon="0.6358988500935407"><ele>149.8</ele><time>2026-05-04T13:49:47.002Z</time></trkpt><trkpt lat="41.60892137271756" lon="0.636027993800129"><ele>150.4</ele><time>2026-05-04T13:49:48.002Z</time></trkpt><trkpt lat="41.60897116673895" lon="0.6361591631479256"><ele>151.0</ele><time>2026-05-04T13:49:49.002Z</time></trkpt><trkpt lat="41.609015841757014" lon="0.6362927726693981"><ele>151.0</ele><time>2026-05-04T13:49:50.002Z</time></trkpt><trkpt lat="41.6090649043964" lon="0.6364252128828374"><ele>151.0</ele><time>2026-05-04T13:49:51.002Z</time></trkpt><trkpt lat="41.60911017276825" lon="0.6365617494834036"><ele>151.0</ele><time>2026-05-04T13:49:52.002Z</time></trkpt><trkpt lat="41.60915453719784" lon="0.6366979938034172"><ele>151.0</ele><time>2026-05-04T13:49:53.002Z</time></trkpt><trkpt lat="41.60920164002313" lon="0.6368335451404588"><ele>151.0</ele><time>2026-05-04T13:49:54.002Z</time></trkpt><trkpt lat="41.60925010478213" lon="0.6369702014367862"><ele>150.4</ele><time>2026-05-04T13:49:55.002Z</time></trkpt><trkpt lat="41.609294976747464" lon="0.6371071397149822"><ele>149.8</ele><time>2026-05-04T13:49:56.002Z</time></trkpt><trkpt lat="41.60934279902553" lon="0.6372415124394795"><ele>149.20000000000002</ele><time>2026-05-04T13:49:57.002Z</time></trkpt><trkpt lat="41.60938749756534" lon="0.637373806929981"><ele>148.6</ele><time>2026-05-04T13:49:58.002Z</time></trkpt><trkpt lat="41.60943206648543" lon="0.6375073001269029"><ele>148.0</ele><time>2026-05-04T13:49:59.002Z</time></trkpt><trkpt lat="41.60947861591326" lon="0.6376408161528608"><ele>148.0</ele><time>2026-05-04T13:50:00.002Z</time></trkpt><trkpt lat="41.609522785486284" lon="0.6377721755456107"><ele>148.0</ele><time>2026-05-04T13:50:01.002Z</time></trkpt><trkpt lat="41.60956659788118" lon="0.6379040867301887"><ele>148.0</ele><time>2026-05-04T13:50:02.002Z</time></trkpt><trkpt lat="41.609611416761666" lon="0.6380332147447481"><ele>148.0</ele><time>2026-05-04T13:50:03.002Z</time></trkpt><trkpt lat="41.6096556022265" lon="0.6381609265292107"><ele>148.0</ele><time>2026-05-04T13:50:04.002Z</time></trkpt><trkpt lat="41.60969923513182" lon="0.6382929079509652"><ele>148.0</ele><time>2026-05-04T13:50:05.002Z</time></trkpt><trkpt lat="41.609742001384056" lon="0.6384236702342374"><ele>148.0</ele><time>2026-05-04T13:50:06.002Z</time></trkpt><trkpt lat="41.60978541630588" lon="0.6385566384692882"><ele>148.0</ele><time>2026-05-04T13:50:07.002Z</time></trkpt><trkpt lat="41.60982954868359" lon="0.6386926230285707"><ele>148.0</ele><time>2026-05-04T13:50:08.002Z</time></trkpt><trkpt lat="41.609874664533706" lon="0.6388231827025009"><ele>148.0</ele><time>2026-05-04T13:50:09.002Z</time></trkpt><trkpt lat="41.609920121562155" lon="0.6389526795062633"><ele>148.0</ele><time>2026-05-04T13:50:10.002Z</time></trkpt><trkpt lat="41.60996431016439" lon="0.6390843243104788"><ele>148.0</ele><time>2026-05-04T13:50:11.002Z</time></trkpt><trkpt lat="41.610003215918844" lon="0.6392105396690456"><ele>148.0</ele><time>2026-05-04T13:50:12.002Z</time></trkpt><trkpt lat="41.61003894374835" lon="0.6393288942066464"><ele>148.0</ele><time>2026-05-04T13:50:13.002Z</time></trkpt><trkpt lat="41.6100739383429" lon="0.6394370302065709"><ele>148.0</ele><time>2026-05-04T13:50:14.002Z</time></trkpt><trkpt lat="41.61010788139661" lon="0.6395365624399366"><ele>148.0</ele><time>2026-05-04T13:50:15.002Z</time></trkpt><trkpt lat="41.6101383540614" lon="0.6396285791027398"><ele>148.0</ele><time>2026-05-04T13:50:16.002Z</time></trkpt><trkpt lat="41.61016517502139" lon="0.6397638987817442"><ele>148.0</ele><time>2026-05-04T13:50:18.002Z</time></trkpt><trkpt lat="41.610154410570566" lon="0.6398477653903143"><ele>148.0</ele><time>2026-05-04T13:50:20.002Z</time></trkpt><trkpt lat="41.610129452245886" lon="0.6399725879951647"><ele>148.0</ele><time>2026-05-04T13:50:23.002Z</time></trkpt><trkpt lat="41.61010708914913" lon="0.6400538875498322"><ele>148.0</ele><time>2026-05-04T13:50:24.002Z</time></trkpt><trkpt lat="41.610084227276445" lon="0.6401404282940595"><ele>148.0</ele><time>2026-05-04T13:50:25.002Z</time></trkpt><trkpt lat="41.61007418031292" lon="0.6402353189484511"><ele>148.0</ele><time>2026-05-04T13:50:26.003Z</time></trkpt><trkpt lat="41.610082378837554" lon="0.6403371825464143"><ele>148.0</ele><time>2026-05-04T13:50:27.003Z</time></trkpt><trkpt lat="41.6101141818283" lon="0.6404444151778471"><ele>148.0</ele><time>2026-05-04T13:50:28.003Z</time></trkpt><trkpt lat="41.61016492668765" lon="0.6405463062084376"><ele>148.0</ele><time>2026-05-04T13:50:29.003Z</time></trkpt><trkpt lat="41.610232852186115" lon="0.6406231557290698"><ele>148.0</ele><time>2026-05-04T13:50:30.003Z</time></trkpt><trkpt lat="41.610319069315835" lon="0.6406746447282591"><ele>148.0</ele><time>2026-05-04T13:50:31.003Z</time></trkpt><trkpt lat="41.61040213457418" lon="0.6407055107111717"><ele>148.0</ele><time>2026-05-04T13:50:32.003Z</time></trkpt><trkpt lat="41.61047996043563" lon="0.6407020897743934"><ele>148.0</ele><time>2026-05-04T13:50:33.003Z</time></trkpt><trkpt lat="41.61054207530222" lon="0.6408591162348969"><ele>148.0</ele><time>2026-05-04T13:50:34.003Z</time></trkpt><trkpt lat="41.610584205317565" lon="0.6409829220807528"><ele>148.0</ele><time>2026-05-04T13:50:35.003Z</time></trkpt><trkpt lat="41.61062135263283" lon="0.6411064881171985"><ele>148.20000000000002</ele><time>2026-05-04T13:50:36.003Z</time></trkpt><trkpt lat="41.61065740808955" lon="0.64122944737249"><ele>148.4</ele><time>2026-05-04T13:50:36.999Z</time></trkpt><trkpt lat="41.61069957374355" lon="0.6413563650783898"><ele>148.60000000000002</ele><time>2026-05-04T13:50:37.999Z</time></trkpt><trkpt lat="41.61074274710207" lon="0.6414833228980011"><ele>148.8</ele><time>2026-05-04T13:50:38.999Z</time></trkpt><trkpt lat="41.6107864928194" lon="0.6416147449801483"><ele>149.0</ele><time>2026-05-04T13:50:39.999Z</time></trkpt><trkpt lat="41.61083118589674" lon="0.6417472626040139"><ele>149.0</ele><time>2026-05-04T13:50:40.999Z</time></trkpt><trkpt lat="41.61087472752614" lon="0.6418815667746635"><ele>149.0</ele><time>2026-05-04T13:50:41.999Z</time></trkpt><trkpt lat="41.61091581120946" lon="0.6420235737212117"><ele>149.0</ele><time>2026-05-04T13:50:42.999Z</time></trkpt><trkpt lat="41.610959571672346" lon="0.6421454025366821"><ele>149.0</ele><time>2026-05-04T13:50:43.999Z</time></trkpt><trkpt lat="41.6110036009034" lon="0.6422433856141478"><ele>149.0</ele><time>2026-05-04T13:50:44.999Z</time></trkpt><trkpt lat="41.61105113722882" lon="0.6423409863943111"><ele>149.0</ele><time>2026-05-04T13:50:45.999Z</time></trkpt><trkpt lat="41.61111074237329" lon="0.6424537263781609"><ele>149.0</ele><time>2026-05-04T13:50:46.999Z</time></trkpt><trkpt lat="41.611163653860444" lon="0.6426129587873315"><ele>149.0</ele><time>2026-05-04T13:50:48Z</time></trkpt><trkpt lat="41.61120181685031" lon="0.642845033698812"><ele>149.0</ele><time>2026-05-04T13:50:49Z</time></trkpt><trkpt lat="41.61124696888945" lon="0.6429840636575904"><ele>150.75</ele><time>2026-05-04T13:50:49.999Z</time></trkpt><trkpt lat="41.611293022976575" lon="0.643132438559678"><ele>152.5</ele><time>2026-05-04T13:50:51Z</time></trkpt><trkpt lat="41.61134031880561" lon="0.6432730755484258"><ele>154.25</ele><time>2026-05-04T13:50:52Z</time></trkpt><trkpt lat="41.61138723819762" lon="0.643415026158145"><ele>156.0</ele><time>2026-05-04T13:50:53Z</time></trkpt><trkpt lat="41.61143817247716" lon="0.643551884306551"><ele>155.5</ele><time>2026-05-04T13:50:54Z</time></trkpt><trkpt lat="41.611489157264245" lon="0.6436908007974349"><ele>155.0</ele><time>2026-05-04T13:50:55Z</time></trkpt><trkpt lat="41.611544699224446" lon="0.6438244003486003"><ele>154.5</ele><time>2026-05-04T13:50:56Z</time></trkpt><trkpt lat="41.61159211863316" lon="0.6439589295502038"><ele>154.0</ele><time>2026-05-04T13:50:57Z</time></trkpt><trkpt lat="41.61164043592529" lon="0.6441005739543804"><ele>154.0</ele><time>2026-05-04T13:50:58Z</time></trkpt><trkpt lat="41.61168542825422" lon="0.6442387655020025"><ele>154.0</ele><time>2026-05-04T13:50:59Z</time></trkpt><trkpt lat="41.61172954827675" lon="0.6443743420948485"><ele>154.0</ele><time>2026-05-04T13:51:00Z</time></trkpt><trkpt lat="41.611770004857206" lon="0.6445080968142398"><ele>154.0</ele><time>2026-05-04T13:51:01Z</time></trkpt><trkpt lat="41.611809717469455" lon="0.6446391148280253"><ele>154.0</ele><time>2026-05-04T13:51:02Z</time></trkpt><trkpt lat="41.611854055703255" lon="0.6447707920315588"><ele>154.0</ele><time>2026-05-04T13:51:03Z</time></trkpt><trkpt lat="41.61189663758313" lon="0.6449027774612541"><ele>154.0</ele><time>2026-05-04T13:51:04Z</time></trkpt><trkpt lat="41.61193722427574" lon="0.6450297786138507"><ele>154.0</ele><time>2026-05-04T13:51:05Z</time></trkpt><trkpt lat="41.61198049713404" lon="0.6451598378134473"><ele>154.0</ele><time>2026-05-04T13:51:06Z</time></trkpt><trkpt lat="41.612022232509524" lon="0.645288678596071"><ele>154.0</ele><time>2026-05-04T13:51:07Z</time></trkpt><trkpt lat="41.61206426327912" lon="0.6454171758193932"><ele>154.0</ele><time>2026-05-04T13:51:08Z</time></trkpt><trkpt lat="41.612109426576325" lon="0.6455434883112625"><ele>154.0</ele><time>2026-05-04T13:51:09Z</time></trkpt><trkpt lat="41.612148590708664" lon="0.6456777629680869"><ele>154.0</ele><time>2026-05-04T13:51:10Z</time></trkpt><trkpt lat="41.6121867619854" lon="0.6458074690507293"><ele>154.0</ele><time>2026-05-04T13:51:11Z</time></trkpt><trkpt lat="41.61223804979415" lon="0.6459290598824904"><ele>154.0</ele><time>2026-05-04T13:51:12Z</time></trkpt><trkpt lat="41.61227878927082" lon="0.6460575164961212"><ele>154.8</ele><time>2026-05-04T13:51:13Z</time></trkpt><trkpt lat="41.61231905121561" lon="0.6461881561514321"><ele>155.60000000000002</ele><time>2026-05-04T13:51:14Z</time></trkpt><trkpt lat="41.612359909442254" lon="0.6463163368166076"><ele>156.4</ele><time>2026-05-04T13:51:15Z</time></trkpt><trkpt lat="41.612404710320575" lon="0.6464474744224202"><ele>157.20000000000002</ele><time>2026-05-04T13:51:16Z</time></trkpt><trkpt lat="41.61244621560808" lon="0.6465778807497342"><ele>158.0</ele><time>2026-05-04T13:51:17Z</time></trkpt><trkpt lat="41.61249120369251" lon="0.6467086598735043"><ele>158.0</ele><time>2026-05-04T13:51:18Z</time></trkpt><trkpt lat="41.612534309677784" lon="0.6468416694604919"><ele>158.0</ele><time>2026-05-04T13:51:19Z</time></trkpt><trkpt lat="41.61257826051043" lon="0.6469757711734029"><ele>158.0</ele><time>2026-05-04T13:51:20.001Z</time></trkpt><trkpt lat="41.612620443043475" lon="0.6471088566889995"><ele>158.0</ele><time>2026-05-04T13:51:21.001Z</time></trkpt><trkpt lat="41.612666675926896" lon="0.6472444600216979"><ele>158.0</ele><time>2026-05-04T13:51:22.001Z</time></trkpt><trkpt lat="41.61271349224902" lon="0.647385366177641"><ele>158.25</ele><time>2026-05-04T13:51:23.001Z</time></trkpt><trkpt lat="41.612763216769196" lon="0.6475281840495587"><ele>158.5</ele><time>2026-05-04T13:51:24.001Z</time></trkpt><trkpt lat="41.61280836971978" lon="0.6476577110633907"><ele>158.75</ele><time>2026-05-04T13:51:25.001Z</time></trkpt><trkpt lat="41.6128556472783" lon="0.6478003005051076"><ele>159.0</ele><time>2026-05-04T13:51:26.001Z</time></trkpt><trkpt lat="41.61290243834002" lon="0.6479439220594526"><ele>159.25</ele><time>2026-05-04T13:51:27.001Z</time></trkpt><trkpt lat="41.61294956702663" lon="0.6480873410734049"><ele>159.5</ele><time>2026-05-04T13:51:28.001Z</time></trkpt><trkpt lat="41.6129943587232" lon="0.6482310540167971"><ele>159.75</ele><time>2026-05-04T13:51:29.001Z</time></trkpt><trkpt lat="41.61304166012774" lon="0.6483731092792827"><ele>160.0</ele><time>2026-05-04T13:51:30.001Z</time></trkpt><trkpt lat="41.61308883469551" lon="0.6485165111655881"><ele>160.5</ele><time>2026-05-04T13:51:31.001Z</time></trkpt><trkpt lat="41.61313783277136" lon="0.6486569105418499"><ele>161.0</ele><time>2026-05-04T13:51:32.001Z</time></trkpt><trkpt lat="41.61318644641424" lon="0.648795775731226"><ele>161.5</ele><time>2026-05-04T13:51:33.001Z</time></trkpt><trkpt lat="41.61323587824648" lon="0.6489376715043121"><ele>162.0</ele><time>2026-05-04T13:51:34.001Z</time></trkpt><trkpt lat="41.61328167370845" lon="0.6490782166555455"><ele>162.0</ele><time>2026-05-04T13:51:35.001Z</time></trkpt><trkpt lat="41.61332807154409" lon="0.6492195628964265"><ele>162.0</ele><time>2026-05-04T13:51:36.001Z</time></trkpt><trkpt lat="41.61337693883902" lon="0.6493607133186134"><ele>162.0</ele><time>2026-05-04T13:51:37.001Z</time></trkpt><trkpt lat="41.61342672263651" lon="0.6495014213318401"><ele>162.0</ele><time>2026-05-04T13:51:38.001Z</time></trkpt><trkpt lat="41.61347547191555" lon="0.6496405906351194"><ele>161.8</ele><time>2026-05-04T13:51:39.001Z</time></trkpt><trkpt lat="41.61352180557904" lon="0.6497758105632976"><ele>161.6</ele><time>2026-05-04T13:51:40.001Z</time></trkpt><trkpt lat="41.613570080554815" lon="0.6499110417689901"><ele>161.4</ele><time>2026-05-04T13:51:41.001Z</time></trkpt><trkpt lat="41.61362142209265" lon="0.650045151778343"><ele>161.20000000000002</ele><time>2026-05-04T13:51:42.001Z</time></trkpt><trkpt lat="41.61366817104231" lon="0.6501800761235548"><ele>161.0</ele><time>2026-05-04T13:51:43.001Z</time></trkpt><trkpt lat="41.61370784502956" lon="0.6503112462522478"><ele>162.0</ele><time>2026-05-04T13:51:44.001Z</time></trkpt><trkpt lat="41.613742925242754" lon="0.6504482719856117"><ele>163.0</ele><time>2026-05-04T13:51:45.001Z</time></trkpt><trkpt lat="41.61377687340361" lon="0.6505854234366844"><ele>164.0</ele><time>2026-05-04T13:51:46.001Z</time></trkpt><trkpt lat="41.613804978069005" lon="0.6507234122916588"><ele>165.0</ele><time>2026-05-04T13:51:47.001Z</time></trkpt><trkpt lat="41.61381983855058" lon="0.6508682742746235"><ele>166.0</ele><time>2026-05-04T13:51:48.001Z</time></trkpt><trkpt lat="41.61381933392215" lon="0.651011906372513"><ele>165.75</ele><time>2026-05-04T13:51:49.001Z</time></trkpt><trkpt lat="41.61382576816809" lon="0.6511578211641671"><ele>165.5</ele><time>2026-05-04T13:51:50.001Z</time></trkpt><trkpt lat="41.613850604655376" lon="0.6513022881717357"><ele>165.25</ele><time>2026-05-04T13:51:51.001Z</time></trkpt><trkpt lat="41.61391403612276" lon="0.6515918307933624"><ele>165.0</ele><time>2026-05-04T13:51:53.001Z</time></trkpt><trkpt lat="41.613937472889624" lon="0.6517289047399151"><ele>165.0</ele><time>2026-05-04T13:51:54.001Z</time></trkpt><trkpt lat="41.613970433684926" lon="0.6518753116949885"><ele>165.0</ele><time>2026-05-04T13:51:55.001Z</time></trkpt><trkpt lat="41.614014312780796" lon="0.6520125786374951"><ele>165.0</ele><time>2026-05-04T13:51:56.001Z</time></trkpt><trkpt lat="41.614057997603695" lon="0.6521582978966021"><ele>165.0</ele><time>2026-05-04T13:51:57.002Z</time></trkpt><trkpt lat="41.61410826330953" lon="0.6522991181116456"><ele>164.5</ele><time>2026-05-04T13:51:58.002Z</time></trkpt><trkpt lat="41.614162691614595" lon="0.6524264214146266"><ele>164.0</ele><time>2026-05-04T13:51:59.002Z</time></trkpt><trkpt lat="41.61423227797775" lon="0.6525450466348661"><ele>163.5</ele><time>2026-05-04T13:52:00.002Z</time></trkpt><trkpt lat="41.614319486066286" lon="0.6526478255404877"><ele>163.0</ele><time>2026-05-04T13:52:01.002Z</time></trkpt><trkpt lat="41.61441270247115" lon="0.6527349716193707"><ele>163.4</ele><time>2026-05-04T13:52:02.002Z</time></trkpt><trkpt lat="41.614503412664824" lon="0.6528272465954944"><ele>163.8</ele><time>2026-05-04T13:52:03.002Z</time></trkpt><trkpt lat="41.61456242593612" lon="0.6529484032939274"><ele>164.2</ele><time>2026-05-04T13:52:04.002Z</time></trkpt><trkpt lat="41.61460099538764" lon="0.6530913677698486"><ele>164.6</ele><time>2026-05-04T13:52:05.002Z</time></trkpt><trkpt lat="41.614630412358444" lon="0.6532361504998736"><ele>165.0</ele><time>2026-05-04T13:52:06.002Z</time></trkpt><trkpt lat="41.614668494601176" lon="0.6533752350668163"><ele>165.0</ele><time>2026-05-04T13:52:07.002Z</time></trkpt><trkpt lat="41.61471351215369" lon="0.6535113029205136"><ele>165.0</ele><time>2026-05-04T13:52:08.002Z</time></trkpt><trkpt lat="41.61476259930622" lon="0.653644627064141"><ele>165.0</ele><time>2026-05-04T13:52:09.002Z</time></trkpt><trkpt lat="41.61480895710592" lon="0.6537782366746402"><ele>165.0</ele><time>2026-05-04T13:52:10.002Z</time></trkpt><trkpt lat="41.614854124301864" lon="0.6539131755358664"><ele>165.0</ele><time>2026-05-04T13:52:11.002Z</time></trkpt><trkpt lat="41.61489791322028" lon="0.6540483351558062"><ele>165.0</ele><time>2026-05-04T13:52:12.002Z</time></trkpt><trkpt lat="41.61494517879573" lon="0.6541851904567271"><ele>165.0</ele><time>2026-05-04T13:52:13.002Z</time></trkpt><trkpt lat="41.61499228472291" lon="0.6543200673885164"><ele>165.0</ele><time>2026-05-04T13:52:14.002Z</time></trkpt><trkpt lat="41.615043988861906" lon="0.654449145779103"><ele>165.0</ele><time>2026-05-04T13:52:15.002Z</time></trkpt><trkpt lat="41.615098830104024" lon="0.6545835872346409"><ele>165.0</ele><time>2026-05-04T13:52:16.002Z</time></trkpt><trkpt lat="41.61515234971274" lon="0.6547165869381312"><ele>165.0</ele><time>2026-05-04T13:52:17.002Z</time></trkpt><trkpt lat="41.61520807879194" lon="0.6548552095141721"><ele>165.0</ele><time>2026-05-04T13:52:18.002Z</time></trkpt><trkpt lat="41.61525110946745" lon="0.654988394132063"><ele>165.0</ele><time>2026-05-04T13:52:19.002Z</time></trkpt><trkpt lat="41.615300981886826" lon="0.6551279742669189"><ele>165.0</ele><time>2026-05-04T13:52:20.002Z</time></trkpt><trkpt lat="41.61535430715661" lon="0.6552661751370453"><ele>165.5</ele><time>2026-05-04T13:52:21.002Z</time></trkpt><trkpt lat="41.61540754782286" lon="0.6554011215640402"><ele>166.0</ele><time>2026-05-04T13:52:22.002Z</time></trkpt><trkpt lat="41.615458219013355" lon="0.6555351267681959"><ele>166.5</ele><time>2026-05-04T13:52:23.002Z</time></trkpt><trkpt lat="41.61551153738947" lon="0.6556728394936748"><ele>167.0</ele><time>2026-05-04T13:52:24.002Z</time></trkpt><trkpt lat="41.61555772571376" lon="0.6558087473199723"><ele>167.0</ele><time>2026-05-04T13:52:25.002Z</time></trkpt><trkpt lat="41.61561233057649" lon="0.6559427953610169"><ele>167.0</ele><time>2026-05-04T13:52:26.002Z</time></trkpt><trkpt lat="41.615666006919255" lon="0.6560784398212003"><ele>167.0</ele><time>2026-05-04T13:52:27.002Z</time></trkpt><trkpt lat="41.61571798614599" lon="0.6562138569115398"><ele>167.0</ele><time>2026-05-04T13:52:28.002Z</time></trkpt><trkpt lat="41.61577127470496" lon="0.6563515024874292"><ele>167.25</ele><time>2026-05-04T13:52:29.002Z</time></trkpt><trkpt lat="41.61581837748233" lon="0.6564944644942382"><ele>167.5</ele><time>2026-05-04T13:52:30.002Z</time></trkpt><trkpt lat="41.61587132242677" lon="0.6566316609948598"><ele>167.75</ele><time>2026-05-04T13:52:31.002Z</time></trkpt><trkpt lat="41.615921867725355" lon="0.6567696993320639"><ele>168.0</ele><time>2026-05-04T13:52:32.002Z</time></trkpt><trkpt lat="41.615974600784" lon="0.6569068506099951"><ele>168.5</ele><time>2026-05-04T13:52:33.002Z</time></trkpt><trkpt lat="41.61602437580768" lon="0.6570478268315381"><ele>169.0</ele><time>2026-05-04T13:52:34.002Z</time></trkpt><trkpt lat="41.61607253981318" lon="0.6571880292105775"><ele>169.5</ele><time>2026-05-04T13:52:35.003Z</time></trkpt><trkpt lat="41.616125659533" lon="0.6573259849281438"><ele>170.0</ele><time>2026-05-04T13:52:36.003Z</time></trkpt><trkpt lat="41.61617605855318" lon="0.6574641852439262"><ele>169.0</ele><time>2026-05-04T13:52:37.003Z</time></trkpt><trkpt lat="41.61622773692519" lon="0.6576054933101014"><ele>168.0</ele><time>2026-05-04T13:52:38.003Z</time></trkpt><trkpt lat="41.616274871897126" lon="0.6577473465520018"><ele>167.0</ele><time>2026-05-04T13:52:39.003Z</time></trkpt><trkpt lat="41.616327139552254" lon="0.657885520148187"><ele>166.0</ele><time>2026-05-04T13:52:40.003Z</time></trkpt><trkpt lat="41.61637936556696" lon="0.6580242475495742"><ele>166.0</ele><time>2026-05-04T13:52:41.003Z</time></trkpt><trkpt lat="41.61642866961535" lon="0.6581661675098721"><ele>166.0</ele><time>2026-05-04T13:52:42.003Z</time></trkpt><trkpt lat="41.61647883503982" lon="0.658307769821447"><ele>166.0</ele><time>2026-05-04T13:52:43Z</time></trkpt><trkpt lat="41.616529536537456" lon="0.6584489197420583"><ele>166.0</ele><time>2026-05-04T13:52:44Z</time></trkpt><trkpt lat="41.61657865995819" lon="0.6585912011594411"><ele>166.5</ele><time>2026-05-04T13:52:45Z</time></trkpt><trkpt lat="41.61662826637234" lon="0.658732163028998"><ele>167.0</ele><time>2026-05-04T13:52:46Z</time></trkpt><trkpt lat="41.61667737132961" lon="0.6588748389768035"><ele>167.5</ele><time>2026-05-04T13:52:47Z</time></trkpt><trkpt lat="41.616726069140604" lon="0.6590175481341781"><ele>168.0</ele><time>2026-05-04T13:52:48Z</time></trkpt><trkpt lat="41.61677833908715" lon="0.6591549488996956"><ele>168.0</ele><time>2026-05-04T13:52:49Z</time></trkpt><trkpt lat="41.616826833372755" lon="0.6592952759277084"><ele>168.0</ele><time>2026-05-04T13:52:50Z</time></trkpt><trkpt lat="41.61687432877789" lon="0.6594364861943898"><ele>168.0</ele><time>2026-05-04T13:52:51Z</time></trkpt><trkpt lat="41.61692229204256" lon="0.6595757159196125"><ele>168.0</ele><time>2026-05-04T13:52:52Z</time></trkpt><trkpt lat="41.61697037682476" lon="0.6597186344655876"><ele>167.75</ele><time>2026-05-04T13:52:53Z</time></trkpt><trkpt lat="41.61701737609046" lon="0.6598552408195889"><ele>167.5</ele><time>2026-05-04T13:52:54Z</time></trkpt><trkpt lat="41.617064016220944" lon="0.6599985291951769"><ele>167.25</ele><time>2026-05-04T13:52:55Z</time></trkpt><trkpt lat="41.61711027902659" lon="0.6601393662958219"><ele>167.0</ele><time>2026-05-04T13:52:56Z</time></trkpt><trkpt lat="41.617156258061705" lon="0.6602803141691056"><ele>167.75</ele><time>2026-05-04T13:52:57Z</time></trkpt><trkpt lat="41.61719884936949" lon="0.6604198463314584"><ele>168.5</ele><time>2026-05-04T13:52:58Z</time></trkpt><trkpt lat="41.61724657302036" lon="0.6605616248728028"><ele>169.25</ele><time>2026-05-04T13:52:59Z</time></trkpt><trkpt lat="41.61728734620383" lon="0.6607027648495774"><ele>170.0</ele><time>2026-05-04T13:53:00Z</time></trkpt><trkpt lat="41.61732760841106" lon="0.6608449442535017"><ele>170.0</ele><time>2026-05-04T13:53:01Z</time></trkpt><trkpt lat="41.61736801771624" lon="0.660989816209972"><ele>170.0</ele><time>2026-05-04T13:53:02Z</time></trkpt><trkpt lat="41.61740193194695" lon="0.6611352932366446"><ele>170.0</ele><time>2026-05-04T13:53:03Z</time></trkpt><trkpt lat="41.61743781780489" lon="0.6612795895268271"><ele>170.0</ele><time>2026-05-04T13:53:04Z</time></trkpt><trkpt lat="41.6174737053349" lon="0.6614276401040166"><ele>170.5</ele><time>2026-05-04T13:53:05Z</time></trkpt><trkpt lat="41.617507149843476" lon="0.6615758664057827"><ele>171.0</ele><time>2026-05-04T13:53:06Z</time></trkpt><trkpt lat="41.61753597649292" lon="0.6617259418377174"><ele>171.5</ele><time>2026-05-04T13:53:07Z</time></trkpt><trkpt lat="41.61756561200551" lon="0.6618779860477161"><ele>172.0</ele><time>2026-05-04T13:53:08Z</time></trkpt><trkpt lat="41.61759497127616" lon="0.662031139420434"><ele>172.75</ele><time>2026-05-04T13:53:09Z</time></trkpt><trkpt lat="41.617625212667875" lon="0.6621858415777621"><ele>173.5</ele><time>2026-05-04T13:53:10Z</time></trkpt><trkpt lat="41.6176518413076" lon="0.662342328778027"><ele>174.25</ele><time>2026-05-04T13:53:11Z</time></trkpt><trkpt lat="41.61768206617932" lon="0.6624978094511234"><ele>175.0</ele><time>2026-05-04T13:53:12Z</time></trkpt><trkpt lat="41.61771133800403" lon="0.6626545121219498"><ele>175.5</ele><time>2026-05-04T13:53:13Z</time></trkpt><trkpt lat="41.61774082135505" lon="0.6628094154199717"><ele>176.0</ele><time>2026-05-04T13:53:14Z</time></trkpt><trkpt lat="41.617772348712464" lon="0.6629625451549115"><ele>176.5</ele><time>2026-05-04T13:53:15Z</time></trkpt><trkpt lat="41.617804643868865" lon="0.6631168913782226"><ele>177.0</ele><time>2026-05-04T13:53:16Z</time></trkpt><trkpt lat="41.617834561609506" lon="0.6632669638893716"><ele>175.39999999999998</ele><time>2026-05-04T13:53:17Z</time></trkpt><trkpt lat="41.61785898045805" lon="0.6634110293543488"><ele>173.79999999999998</ele><time>2026-05-04T13:53:18Z</time></trkpt><trkpt lat="41.61788026276116" lon="0.6635472964733931"><ele>172.2</ele><time>2026-05-04T13:53:19Z</time></trkpt><trkpt lat="41.61790266603246" lon="0.6636780824447797"><ele>170.6</ele><time>2026-05-04T13:53:20Z</time></trkpt><trkpt lat="41.61792557263111" lon="0.663801442183738"><ele>169.0</ele><time>2026-05-04T13:53:21.001Z</time></trkpt><trkpt lat="41.61794817743937" lon="0.663920780178348"><ele>169.0</ele><time>2026-05-04T13:53:22.001Z</time></trkpt><trkpt lat="41.61796881198728" lon="0.6640348132766206"><ele>169.0</ele><time>2026-05-04T13:53:23.001Z</time></trkpt><trkpt lat="41.61797597390017" lon="0.6641551457314119"><ele>169.0</ele><time>2026-05-04T13:53:24.001Z</time></trkpt><trkpt lat="41.61796009841058" lon="0.6642789357008954"><ele>169.0</ele><time>2026-05-04T13:53:25.001Z</time></trkpt><trkpt lat="41.61791381891641" lon="0.6643986789249215"><ele>169.0</ele><time>2026-05-04T13:53:26.001Z</time></trkpt><trkpt lat="41.61785381734388" lon="0.6645083136770059"><ele>170.39999999999998</ele><time>2026-05-04T13:53:27.001Z</time></trkpt><trkpt lat="41.6178058164737" lon="0.6646167119575259"><ele>171.8</ele><time>2026-05-04T13:53:28.001Z</time></trkpt><trkpt lat="41.617771079680665" lon="0.6647465943805203"><ele>173.2</ele><time>2026-05-04T13:53:29.001Z</time></trkpt><trkpt lat="41.61769184530249" lon="0.6648546740380845"><ele>174.60000000000002</ele><time>2026-05-04T13:53:30.001Z</time></trkpt><trkpt lat="41.61760874251096" lon="0.6649492725165335"><ele>176.0</ele><time>2026-05-04T13:53:31.001Z</time></trkpt><trkpt lat="41.61751849328622" lon="0.6650212235357558"><ele>176.0</ele><time>2026-05-04T13:53:32.001Z</time></trkpt><trkpt lat="41.61743899349829" lon="0.6650989536865615"><ele>176.0</ele><time>2026-05-04T13:53:33.001Z</time></trkpt><trkpt lat="41.61736532654712" lon="0.6651865288164072"><ele>176.0</ele><time>2026-05-04T13:53:34.001Z</time></trkpt><trkpt lat="41.61729080587915" lon="0.6652761757929815"><ele>176.0</ele><time>2026-05-04T13:53:35.001Z</time></trkpt><trkpt lat="41.61721934511743" lon="0.6653712425659264"><ele>176.0</ele><time>2026-05-04T13:53:36.001Z</time></trkpt><trkpt lat="41.6171489462084" lon="0.6654645762977714"><ele>176.4</ele><time>2026-05-04T13:53:37.001Z</time></trkpt><trkpt lat="41.61708386104838" lon="0.6655596147792572"><ele>176.8</ele><time>2026-05-04T13:53:38.001Z</time></trkpt><trkpt lat="41.61702075133561" lon="0.6656535107743458"><ele>177.20000000000002</ele><time>2026-05-04T13:53:39.001Z</time></trkpt><trkpt lat="41.616959660448586" lon="0.6657480294005148"><ele>177.60000000000002</ele><time>2026-05-04T13:53:40.001Z</time></trkpt><trkpt lat="41.616898333874744" lon="0.6658461665244709"><ele>178.0</ele><time>2026-05-04T13:53:41.001Z</time></trkpt><trkpt lat="41.61683952562616" lon="0.6659445718034446"><ele>178.2</ele><time>2026-05-04T13:53:42.001Z</time></trkpt><trkpt lat="41.61678387479945" lon="0.6660430594896202"><ele>178.4</ele><time>2026-05-04T13:53:43.001Z</time></trkpt><trkpt lat="41.61673397312828" lon="0.6661487300572373"><ele>178.6</ele><time>2026-05-04T13:53:44.001Z</time></trkpt><trkpt lat="41.61668232467622" lon="0.6662510530453609"><ele>178.79999999999998</ele><time>2026-05-04T13:53:45.001Z</time></trkpt><trkpt lat="41.616633580301794" lon="0.6663609292291306"><ele>179.0</ele><time>2026-05-04T13:53:46.001Z</time></trkpt><trkpt lat="41.616574284572046" lon="0.6664626425871538"><ele>179.39999999999998</ele><time>2026-05-04T13:53:47.001Z</time></trkpt><trkpt lat="41.61652010588904" lon="0.6665694802384694"><ele>179.8</ele><time>2026-05-04T13:53:48.001Z</time></trkpt><trkpt lat="41.616469248463055" lon="0.6666793783984438"><ele>180.2</ele><time>2026-05-04T13:53:49.001Z</time></trkpt><trkpt lat="41.616420307116" lon="0.6667864948243518"><ele>180.60000000000002</ele><time>2026-05-04T13:53:50.001Z</time></trkpt><trkpt lat="41.61637155212221" lon="0.6668927632195207"><ele>181.0</ele><time>2026-05-04T13:53:51.001Z</time></trkpt><trkpt lat="41.61632088383801" lon="0.6670007479232988"><ele>182.0</ele><time>2026-05-04T13:53:52.001Z</time></trkpt><trkpt lat="41.61627258543954" lon="0.6671063567231401"><ele>183.0</ele><time>2026-05-04T13:53:53.001Z</time></trkpt><trkpt lat="41.61622312990174" lon="0.667220152265358"><ele>184.0</ele><time>2026-05-04T13:53:54.001Z</time></trkpt><trkpt lat="41.616172283498464" lon="0.6673329720062043"><ele>185.0</ele><time>2026-05-04T13:53:55.001Z</time></trkpt><trkpt lat="41.61612280233926" lon="0.6674430105223474"><ele>186.0</ele><time>2026-05-04T13:53:56.001Z</time></trkpt><trkpt lat="41.61607693979043" lon="0.6675550147496755"><ele>186.0</ele><time>2026-05-04T13:53:57.002Z</time></trkpt><trkpt lat="41.61602767394803" lon="0.6676725156114468"><ele>186.0</ele><time>2026-05-04T13:53:58.002Z</time></trkpt><trkpt lat="41.61597909042478" lon="0.6677896792073381"><ele>186.0</ele><time>2026-05-04T13:53:59.002Z</time></trkpt><trkpt lat="41.61592617153905" lon="0.6679046860385227"><ele>186.0</ele><time>2026-05-04T13:54:00.002Z</time></trkpt><trkpt lat="41.61587719125931" lon="0.6680233107684962"><ele>186.0</ele><time>2026-05-04T13:54:01.002Z</time></trkpt><trkpt lat="41.6158258509595" lon="0.6681411258158444"><ele>186.60000000000002</ele><time>2026-05-04T13:54:02.002Z</time></trkpt><trkpt lat="41.615774947604685" lon="0.6682639516125093"><ele>187.2</ele><time>2026-05-04T13:54:03.002Z</time></trkpt><trkpt lat="41.61572208028996" lon="0.6683879877738669"><ele>187.8</ele><time>2026-05-04T13:54:04.002Z</time></trkpt><trkpt lat="41.6156724739974" lon="0.6685119365872583"><ele>188.39999999999998</ele><time>2026-05-04T13:54:05.002Z</time></trkpt><trkpt lat="41.61562039610221" lon="0.6686315412585383"><ele>189.0</ele><time>2026-05-04T13:54:06.002Z</time></trkpt><trkpt lat="41.615565575218795" lon="0.6687503849771315"><ele>189.39999999999998</ele><time>2026-05-04T13:54:07.002Z</time></trkpt><trkpt lat="41.61550369634177" lon="0.6688726138245893"><ele>189.8</ele><time>2026-05-04T13:54:08.002Z</time></trkpt><trkpt lat="41.61544469237219" lon="0.6689982656282021"><ele>190.2</ele><time>2026-05-04T13:54:09.002Z</time></trkpt><trkpt lat="41.61538597074061" lon="0.6691222928098733"><ele>190.60000000000002</ele><time>2026-05-04T13:54:10.002Z</time></trkpt><trkpt lat="41.61532717106508" lon="0.6692452639484986"><ele>191.0</ele><time>2026-05-04T13:54:11.002Z</time></trkpt><trkpt lat="41.61526690874563" lon="0.6693665945752878"><ele>192.60000000000002</ele><time>2026-05-04T13:54:12.002Z</time></trkpt><trkpt lat="41.61521045981632" lon="0.6694902321164536"><ele>194.2</ele><time>2026-05-04T13:54:13.002Z</time></trkpt><trkpt lat="41.61514962118332" lon="0.6696082192097196"><ele>195.8</ele><time>2026-05-04T13:54:14.002Z</time></trkpt><trkpt lat="41.61508947077008" lon="0.6697264597907262"><ele>197.39999999999998</ele><time>2026-05-04T13:54:15.002Z</time></trkpt><trkpt lat="41.61503374638347" lon="0.6698467585126366"><ele>199.0</ele><time>2026-05-04T13:54:16.002Z</time></trkpt><trkpt lat="41.61497603754295" lon="0.669968321710543"><ele>199.0</ele><time>2026-05-04T13:54:17.002Z</time></trkpt><trkpt lat="41.61491824710897" lon="0.6700873432316066"><ele>199.0</ele><time>2026-05-04T13:54:18.002Z</time></trkpt><trkpt lat="41.61486140719831" lon="0.6702045585347614"><ele>199.0</ele><time>2026-05-04T13:54:19.002Z</time></trkpt><trkpt lat="41.614802374185736" lon="0.6703206253975527"><ele>199.0</ele><time>2026-05-04T13:54:20.002Z</time></trkpt><trkpt lat="41.61473759731637" lon="0.6704313427022184"><ele>199.0</ele><time>2026-05-04T13:54:21.002Z</time></trkpt><trkpt lat="41.61467933040796" lon="0.6705510468555906"><ele>199.79999999999998</ele><time>2026-05-04T13:54:22.002Z</time></trkpt><trkpt lat="41.61461121342192" lon="0.6706568152024562"><ele>200.6</ele><time>2026-05-04T13:54:23.002Z</time></trkpt><trkpt lat="41.61453989300388" lon="0.6707621462062516"><ele>201.4</ele><time>2026-05-04T13:54:24.002Z</time></trkpt><trkpt lat="41.61446768310287" lon="0.6708649712827935"><ele>202.2</ele><time>2026-05-04T13:54:25.002Z</time></trkpt><trkpt lat="41.61439124737257" lon="0.6709690758155896"><ele>203.0</ele><time>2026-05-04T13:54:26.002Z</time></trkpt><trkpt lat="41.61431596834318" lon="0.6710704666313515"><ele>202.8</ele><time>2026-05-04T13:54:27.002Z</time></trkpt><trkpt lat="41.61423947821068" lon="0.6711703417442914"><ele>202.60000000000002</ele><time>2026-05-04T13:54:28.002Z</time></trkpt><trkpt lat="41.61416042616626" lon="0.6712707865585735"><ele>202.39999999999998</ele><time>2026-05-04T13:54:29.002Z</time></trkpt><trkpt lat="41.61406810240142" lon="0.6713547346779487"><ele>202.2</ele><time>2026-05-04T13:54:30.002Z</time></trkpt><trkpt lat="41.61398957366022" lon="0.6714586268643886"><ele>202.0</ele><time>2026-05-04T13:54:31.002Z</time></trkpt><trkpt lat="41.61391475945736" lon="0.6715588744185508"><ele>202.0</ele><time>2026-05-04T13:54:32.002Z</time></trkpt><trkpt lat="41.613825753433865" lon="0.6716540329990428"><ele>202.0</ele><time>2026-05-04T13:54:33.003Z</time></trkpt><trkpt lat="41.613755869980075" lon="0.6717623834329067"><ele>202.0</ele><time>2026-05-04T13:54:34.003Z</time></trkpt><trkpt lat="41.61370358832335" lon="0.6718801246260848"><ele>202.0</ele><time>2026-05-04T13:54:35.003Z</time></trkpt><trkpt lat="41.61357411935026" lon="0.6719681811729618"><ele>202.75</ele><time>2026-05-04T13:54:36.003Z</time></trkpt><trkpt lat="41.613476285626916" lon="0.6720387603679991"><ele>203.5</ele><time>2026-05-04T13:54:37.003Z</time></trkpt><trkpt lat="41.61337713718781" lon="0.6721256649463022"><ele>204.25</ele><time>2026-05-04T13:54:38.003Z</time></trkpt><trkpt lat="41.613284513293365" lon="0.6722085970046762"><ele>205.0</ele><time>2026-05-04T13:54:39.003Z</time></trkpt><trkpt lat="41.613191266667634" lon="0.6722901144362307"><ele>205.0</ele><time>2026-05-04T13:54:40.003Z</time></trkpt><trkpt lat="41.61309858272554" lon="0.672375541793703"><ele>205.0</ele><time>2026-05-04T13:54:41.003Z</time></trkpt><trkpt lat="41.61300466916122" lon="0.6724602251113684"><ele>205.0</ele><time>2026-05-04T13:54:42.003Z</time></trkpt><trkpt lat="41.61290557333988" lon="0.6725360561810635"><ele>205.0</ele><time>2026-05-04T13:54:43.003Z</time></trkpt><trkpt lat="41.61280322710184" lon="0.6726208850852351"><ele>205.25</ele><time>2026-05-04T13:54:44.003Z</time></trkpt><trkpt lat="41.61270577748513" lon="0.6726982732297424"><ele>205.5</ele><time>2026-05-04T13:54:45.003Z</time></trkpt><trkpt lat="41.612601989038644" lon="0.67277873222439"><ele>205.75</ele><time>2026-05-04T13:54:46.003Z</time></trkpt><trkpt lat="41.61249760008532" lon="0.6728526322890593"><ele>206.0</ele><time>2026-05-04T13:54:47.003Z</time></trkpt><trkpt lat="41.612394079975864" lon="0.6729186676873476"><ele>206.0</ele><time>2026-05-04T13:54:48.003Z</time></trkpt><trkpt lat="41.61229749491718" lon="0.672968596195629"><ele>206.0</ele><time>2026-05-04T13:54:49Z</time></trkpt><trkpt lat="41.61219162239545" lon="0.673038060844014"><ele>206.0</ele><time>2026-05-04T13:54:50Z</time></trkpt><trkpt lat="41.612086914607424" lon="0.6730934609270465"><ele>206.0</ele><time>2026-05-04T13:54:51Z</time></trkpt><trkpt lat="41.6119755232719" lon="0.6731565356607603"><ele>205.75</ele><time>2026-05-04T13:54:52Z</time></trkpt><trkpt lat="41.61185904074653" lon="0.6732197252445011"><ele>205.5</ele><time>2026-05-04T13:54:53Z</time></trkpt><trkpt lat="41.611750187099155" lon="0.673275298106813"><ele>205.25</ele><time>2026-05-04T13:54:54Z</time></trkpt><trkpt lat="41.61164293102878" lon="0.6733247022587344"><ele>205.0</ele><time>2026-05-04T13:54:55Z</time></trkpt><trkpt lat="41.61153198137943" lon="0.6733740209234306"><ele>205.0</ele><time>2026-05-04T13:54:56Z</time></trkpt><trkpt lat="41.61142146899563" lon="0.6734185350454268"><ele>205.0</ele><time>2026-05-04T13:54:57Z</time></trkpt><trkpt lat="41.61130998657206" lon="0.6734615027954035"><ele>205.0</ele><time>2026-05-04T13:54:58Z</time></trkpt><trkpt lat="41.61119969975552" lon="0.6735019331397052"><ele>205.0</ele><time>2026-05-04T13:54:59Z</time></trkpt><trkpt lat="41.61108933179218" lon="0.6735391458858144"><ele>205.0</ele><time>2026-05-04T13:55:00Z</time></trkpt><trkpt lat="41.61097785273228" lon="0.6735757338938885"><ele>205.0</ele><time>2026-05-04T13:55:01Z</time></trkpt><trkpt lat="41.61086422670103" lon="0.6736072213708272"><ele>205.0</ele><time>2026-05-04T13:55:02Z</time></trkpt><trkpt lat="41.610746843198264" lon="0.6736341916017976"><ele>205.0</ele><time>2026-05-04T13:55:03Z</time></trkpt><trkpt lat="41.61063622548553" lon="0.6736594197612562"><ele>205.0</ele><time>2026-05-04T13:55:04Z</time></trkpt><trkpt lat="41.61052454315093" lon="0.6736825537009805"><ele>205.0</ele><time>2026-05-04T13:55:05Z</time></trkpt><trkpt lat="41.61041260226538" lon="0.6737041478175871"><ele>205.0</ele><time>2026-05-04T13:55:06Z</time></trkpt><trkpt lat="41.610303684225435" lon="0.6737278438849577"><ele>205.0</ele><time>2026-05-04T13:55:07Z</time></trkpt><trkpt lat="41.610192464106575" lon="0.6737610784661309"><ele>205.5</ele><time>2026-05-04T13:55:08Z</time></trkpt><trkpt lat="41.61008367787028" lon="0.6737802628756228"><ele>206.0</ele><time>2026-05-04T13:55:09Z</time></trkpt><trkpt lat="41.60996316111744" lon="0.6737810915467648"><ele>206.5</ele><time>2026-05-04T13:55:10Z</time></trkpt><trkpt lat="41.60985094327378" lon="0.6737851219022514"><ele>207.0</ele><time>2026-05-04T13:55:11Z</time></trkpt><trkpt lat="41.609735542720976" lon="0.6737934169192346"><ele>207.0</ele><time>2026-05-04T13:55:12Z</time></trkpt><trkpt lat="41.60962599090417" lon="0.6737928086379111"><ele>207.0</ele><time>2026-05-04T13:55:13Z</time></trkpt><trkpt lat="41.60951623465326" lon="0.6737771718387888"><ele>207.0</ele><time>2026-05-04T13:55:14Z</time></trkpt><trkpt lat="41.609403210002455" lon="0.6737836292179745"><ele>207.0</ele><time>2026-05-04T13:55:15Z</time></trkpt><trkpt lat="41.60928704971854" lon="0.6737854004330565"><ele>207.0</ele><time>2026-05-04T13:55:16Z</time></trkpt><trkpt lat="41.60917539384466" lon="0.6737847072907543"><ele>206.25</ele><time>2026-05-04T13:55:17.001Z</time></trkpt><trkpt lat="41.609060210000315" lon="0.6737720452965049"><ele>205.5</ele><time>2026-05-04T13:55:18.001Z</time></trkpt><trkpt lat="41.60894420336433" lon="0.673752832450545"><ele>204.75</ele><time>2026-05-04T13:55:19.001Z</time></trkpt><trkpt lat="41.60883082428015" lon="0.6737328361707905"><ele>204.0</ele><time>2026-05-04T13:55:20.001Z</time></trkpt><trkpt lat="41.60871802975827" lon="0.6737093023271182"><ele>203.75</ele><time>2026-05-04T13:55:21.001Z</time></trkpt><trkpt lat="41.60860475095572" lon="0.6736827139147051"><ele>203.5</ele><time>2026-05-04T13:55:22.001Z</time></trkpt><trkpt lat="41.608490108703776" lon="0.6736585281947322"><ele>203.25</ele><time>2026-05-04T13:55:23.001Z</time></trkpt><trkpt lat="41.608376476721965" lon="0.6736323515415553"><ele>203.0</ele><time>2026-05-04T13:55:24.001Z</time></trkpt><trkpt lat="41.608264323025615" lon="0.6736040898703591"><ele>203.0</ele><time>2026-05-04T13:55:25.001Z</time></trkpt><trkpt lat="41.60815021554837" lon="0.6735647315946329"><ele>203.0</ele><time>2026-05-04T13:55:26.001Z</time></trkpt><trkpt lat="41.608044509679615" lon="0.6735255292505119"><ele>203.0</ele><time>2026-05-04T13:55:27.001Z</time></trkpt><trkpt lat="41.607934661154204" lon="0.6734760991887225"><ele>203.0</ele><time>2026-05-04T13:55:28.001Z</time></trkpt><trkpt lat="41.60783550468406" lon="0.6734270361835727"><ele>203.0</ele><time>2026-05-04T13:55:29.001Z</time></trkpt><trkpt lat="41.607743155845505" lon="0.6733835744439939"><ele>202.4</ele><time>2026-05-04T13:55:30.001Z</time></trkpt><trkpt lat="41.6076435264441" lon="0.6733398680704538"><ele>201.8</ele><time>2026-05-04T13:55:31.001Z</time></trkpt><trkpt lat="41.60753893859989" lon="0.6733036764279609"><ele>201.2</ele><time>2026-05-04T13:55:32.001Z</time></trkpt><trkpt lat="41.6074402912232" lon="0.6732607959971706"><ele>200.6</ele><time>2026-05-04T13:55:33.001Z</time></trkpt><trkpt lat="41.60734790315977" lon="0.6732173928869711"><ele>200.0</ele><time>2026-05-04T13:55:34.001Z</time></trkpt><trkpt lat="41.60725798322799" lon="0.67317613341709"><ele>200.0</ele><time>2026-05-04T13:55:35.001Z</time></trkpt><trkpt lat="41.60716718528868" lon="0.6731380538306364"><ele>200.0</ele><time>2026-05-04T13:55:36.001Z</time></trkpt><trkpt lat="41.60707190557512" lon="0.6730993769875709"><ele>200.0</ele><time>2026-05-04T13:55:37.001Z</time></trkpt><trkpt lat="41.606977252422496" lon="0.6730500034522315"><ele>200.0</ele><time>2026-05-04T13:55:38.001Z</time></trkpt><trkpt lat="41.606887004312284" lon="0.6729872245615924"><ele>200.0</ele><time>2026-05-04T13:55:39.001Z</time></trkpt><trkpt lat="41.60681756497134" lon="0.6728998192180753"><ele>199.6</ele><time>2026-05-04T13:55:40.001Z</time></trkpt><trkpt lat="41.606747118483" lon="0.6728205427395089"><ele>199.2</ele><time>2026-05-04T13:55:41.001Z</time></trkpt><trkpt lat="41.606664739252565" lon="0.6727574349134945"><ele>198.8</ele><time>2026-05-04T13:55:42.001Z</time></trkpt><trkpt lat="41.60657488191207" lon="0.6727227249033924"><ele>198.4</ele><time>2026-05-04T13:55:43.001Z</time></trkpt><trkpt lat="41.60647423531307" lon="0.6727234343284626"><ele>198.0</ele><time>2026-05-04T13:55:44.001Z</time></trkpt><trkpt lat="41.606372126753705" lon="0.672690514153855"><ele>197.8</ele><time>2026-05-04T13:55:45.001Z</time></trkpt><trkpt lat="41.606265226141154" lon="0.6728085220116996"><ele>197.60000000000002</ele><time>2026-05-04T13:55:46.001Z</time></trkpt><trkpt lat="41.6061955506938" lon="0.6729061052532039"><ele>197.39999999999998</ele><time>2026-05-04T13:55:47.001Z</time></trkpt><trkpt lat="41.60614696024497" lon="0.6730290953805079"><ele>197.2</ele><time>2026-05-04T13:55:48.001Z</time></trkpt><trkpt lat="41.606123339290555" lon="0.6731667958945845"><ele>197.0</ele><time>2026-05-04T13:55:49.001Z</time></trkpt><trkpt lat="41.60612564028405" lon="0.673306628030317"><ele>197.0</ele><time>2026-05-04T13:55:50.001Z</time></trkpt><trkpt lat="41.60614708586693" lon="0.6734435805334577"><ele>197.0</ele><time>2026-05-04T13:55:51.001Z</time></trkpt><trkpt lat="41.60617904214879" lon="0.6735792040125075"><ele>197.0</ele><time>2026-05-04T13:55:52.001Z</time></trkpt><trkpt lat="41.6062040570302" lon="0.6737200919869983"><ele>197.0</ele><time>2026-05-04T13:55:53.001Z</time></trkpt><trkpt lat="41.60621753652618" lon="0.6738644691583741"><ele>197.0</ele><time>2026-05-04T13:55:54.001Z</time></trkpt><trkpt lat="41.606215298387674" lon="0.6740115753882576"><ele>196.25</ele><time>2026-05-04T13:55:55.001Z</time></trkpt><trkpt lat="41.60619519916911" lon="0.6741601068210411"><ele>195.5</ele><time>2026-05-04T13:55:56.002Z</time></trkpt><trkpt lat="41.60616253653795" lon="0.6743089651822358"><ele>194.75</ele><time>2026-05-04T13:55:57.002Z</time></trkpt><trkpt lat="41.6061268305146" lon="0.674446141923301"><ele>194.0</ele><time>2026-05-04T13:55:58.002Z</time></trkpt><trkpt lat="41.606083527527666" lon="0.6747537761115335"><ele>193.0</ele><time>2026-05-04T13:56:00.002Z</time></trkpt><trkpt lat="41.60606492529814" lon="0.674909817785374"><ele>192.0</ele><time>2026-05-04T13:56:01.002Z</time></trkpt><trkpt lat="41.60603865772726" lon="0.6750619308747663"><ele>191.0</ele><time>2026-05-04T13:56:02.002Z</time></trkpt><trkpt lat="41.60601441357708" lon="0.6752135182136392"><ele>190.0</ele><time>2026-05-04T13:56:03.002Z</time></trkpt><trkpt lat="41.60599052876329" lon="0.6753675524070921"><ele>189.25</ele><time>2026-05-04T13:56:04.002Z</time></trkpt><trkpt lat="41.60596391155922" lon="0.6755204216797289"><ele>188.5</ele><time>2026-05-04T13:56:05.002Z</time></trkpt><trkpt lat="41.605938062022574" lon="0.6756729942963159"><ele>187.75</ele><time>2026-05-04T13:56:06.002Z</time></trkpt><trkpt lat="41.6059146698486" lon="0.6758238980974217"><ele>187.0</ele><time>2026-05-04T13:56:07.002Z</time></trkpt><trkpt lat="41.60588946001342" lon="0.6759768334295423"><ele>187.0</ele><time>2026-05-04T13:56:08.002Z</time></trkpt><trkpt lat="41.60586600688196" lon="0.6761304259921992"><ele>187.0</ele><time>2026-05-04T13:56:09.002Z</time></trkpt><trkpt lat="41.605851938489955" lon="0.6762830301862739"><ele>187.0</ele><time>2026-05-04T13:56:10.002Z</time></trkpt><trkpt lat="41.60584227442664" lon="0.6764344895563316"><ele>187.0</ele><time>2026-05-04T13:56:11.002Z</time></trkpt><trkpt lat="41.605833208694726" lon="0.6765899427434431"><ele>187.0</ele><time>2026-05-04T13:56:12.002Z</time></trkpt><trkpt lat="41.60583106065405" lon="0.6767403205506792"><ele>187.0</ele><time>2026-05-04T13:56:13.002Z</time></trkpt><trkpt lat="41.60583357779851" lon="0.6768949425149522"><ele>187.0</ele><time>2026-05-04T13:56:14.002Z</time></trkpt><trkpt lat="41.60584288943787" lon="0.6770528080313055"><ele>187.0</ele><time>2026-05-04T13:56:15.002Z</time></trkpt><trkpt lat="41.605841032264436" lon="0.6772137565204872"><ele>187.0</ele><time>2026-05-04T13:56:16.002Z</time></trkpt><trkpt lat="41.605864199784385" lon="0.6773679698079047"><ele>187.0</ele><time>2026-05-04T13:56:17.002Z</time></trkpt><trkpt lat="41.605884429639694" lon="0.6775222297293175"><ele>187.0</ele><time>2026-05-04T13:56:18.002Z</time></trkpt><trkpt lat="41.605904906712404" lon="0.6776720302797584"><ele>187.0</ele><time>2026-05-04T13:56:19.002Z</time></trkpt><trkpt lat="41.605920479553205" lon="0.6778170355060733"><ele>187.0</ele><time>2026-05-04T13:56:20.002Z</time></trkpt><trkpt lat="41.60592604388178" lon="0.6779566433546286"><ele>187.0</ele><time>2026-05-04T13:56:21.002Z</time></trkpt><trkpt lat="41.60591771589629" lon="0.6780891093367126"><ele>187.0</ele><time>2026-05-04T13:56:22.002Z</time></trkpt><trkpt lat="41.605878063354695" lon="0.6782039310343753"><ele>187.0</ele><time>2026-05-04T13:56:23.002Z</time></trkpt><trkpt lat="41.60580969272671" lon="0.6782868242320601"><ele>187.0</ele><time>2026-05-04T13:56:24.002Z</time></trkpt><trkpt lat="41.605721005502105" lon="0.6783419657953043"><ele>187.0</ele><time>2026-05-04T13:56:25.002Z</time></trkpt><trkpt lat="41.60563786346042" lon="0.678385269307211"><ele>187.0</ele><time>2026-05-04T13:56:26.002Z</time></trkpt><trkpt lat="41.605547121439606" lon="0.678447870980307"><ele>187.0</ele><time>2026-05-04T13:56:27.002Z</time></trkpt><trkpt lat="41.60546918248563" lon="0.67852272630548"><ele>187.0</ele><time>2026-05-04T13:56:28.002Z</time></trkpt><trkpt lat="41.605421234668114" lon="0.678624933426664"><ele>187.0</ele><time>2026-05-04T13:56:29.002Z</time></trkpt><trkpt lat="41.60538185544513" lon="0.6787466364357668"><ele>186.8</ele><time>2026-05-04T13:56:30.002Z</time></trkpt><trkpt lat="41.605366164378694" lon="0.6788815196219354"><ele>186.6</ele><time>2026-05-04T13:56:31.002Z</time></trkpt><trkpt lat="41.60538042631157" lon="0.6790139826428148"><ele>186.4</ele><time>2026-05-04T13:56:32.002Z</time></trkpt><trkpt lat="41.60541104474626" lon="0.6791351220320068"><ele>186.20000000000002</ele><time>2026-05-04T13:56:33.003Z</time></trkpt><trkpt lat="41.60543064378685" lon="0.6792522659740322"><ele>186.0</ele><time>2026-05-04T13:56:34.003Z</time></trkpt><trkpt lat="41.60541053705478" lon="0.6793716989394897"><ele>186.20000000000002</ele><time>2026-05-04T13:56:35.003Z</time></trkpt><trkpt lat="41.6053561042175" lon="0.6794861143688453"><ele>186.4</ele><time>2026-05-04T13:56:36.003Z</time></trkpt><trkpt lat="41.60526571913599" lon="0.6795622467794438"><ele>186.6</ele><time>2026-05-04T13:56:37.003Z</time></trkpt><trkpt lat="41.60517074479568" lon="0.6796211481724092"><ele>186.8</ele><time>2026-05-04T13:56:38.003Z</time></trkpt><trkpt lat="41.60508425539175" lon="0.6796938864266437"><ele>187.0</ele><time>2026-05-04T13:56:39.003Z</time></trkpt><trkpt lat="41.60500764839" lon="0.6797880904247746"><ele>187.0</ele><time>2026-05-04T13:56:40.003Z</time></trkpt><trkpt lat="41.60492822076659" lon="0.6798735499623695"><ele>187.0</ele><time>2026-05-04T13:56:41.003Z</time></trkpt><trkpt lat="41.604858538180935" lon="0.6799787640997164"><ele>187.0</ele><time>2026-05-04T13:56:42.003Z</time></trkpt><trkpt lat="41.60479711628289" lon="0.6800926424330936"><ele>187.0</ele><time>2026-05-04T13:56:43.003Z</time></trkpt><trkpt lat="41.60473685871968" lon="0.6802086773719278"><ele>187.0</ele><time>2026-05-04T13:56:44.003Z</time></trkpt><trkpt lat="41.604681969502764" lon="0.6803304774660575"><ele>187.0</ele><time>2026-05-04T13:56:45.003Z</time></trkpt><trkpt lat="41.60463390333204" lon="0.6804571720560024"><ele>187.0</ele><time>2026-05-04T13:56:46.003Z</time></trkpt><trkpt lat="41.60458902002925" lon="0.6805887740531362"><ele>187.0</ele><time>2026-05-04T13:56:47.003Z</time></trkpt><trkpt lat="41.60454171816526" lon="0.6807189109065135"><ele>187.0</ele><time>2026-05-04T13:56:48.003Z</time></trkpt><trkpt lat="41.604492872356126" lon="0.6808484566590202"><ele>187.0</ele><time>2026-05-04T13:56:49.003Z</time></trkpt><trkpt lat="41.604445544189495" lon="0.6809808703195229"><ele>187.2</ele><time>2026-05-04T13:56:50.003Z</time></trkpt><trkpt lat="41.6043955252701" lon="0.6811134086059394"><ele>187.39999999999998</ele><time>2026-05-04T13:56:51.003Z</time></trkpt><trkpt lat="41.60435084125856" lon="0.6812442957509758"><ele>187.60000000000002</ele><time>2026-05-04T13:56:52.003Z</time></trkpt><trkpt lat="41.60429334365866" lon="0.6813810827520751"><ele>187.8</ele><time>2026-05-04T13:56:53.003Z</time></trkpt><trkpt lat="41.60425430803527" lon="0.6815033195107207"><ele>188.0</ele><time>2026-05-04T13:56:54.003Z</time></trkpt><trkpt lat="41.60420697832572" lon="0.6816366545007391"><ele>188.0</ele><time>2026-05-04T13:56:55.001Z</time></trkpt><trkpt lat="41.60415089488685" lon="0.6817733146870915"><ele>188.0</ele><time>2026-05-04T13:56:56.001Z</time></trkpt><trkpt lat="41.60409972909918" lon="0.6819144574553524"><ele>188.0</ele><time>2026-05-04T13:56:57.001Z</time></trkpt><trkpt lat="41.604052425208835" lon="0.6820492869972733"><ele>188.0</ele><time>2026-05-04T13:56:58.001Z</time></trkpt><trkpt lat="41.60400483797257" lon="0.6821866001232536"><ele>188.75</ele><time>2026-05-04T13:56:59.001Z</time></trkpt><trkpt lat="41.603954591771156" lon="0.6823230502352688"><ele>189.5</ele><time>2026-05-04T13:57:00.001Z</time></trkpt><trkpt lat="41.60390474225273" lon="0.6824605763570798"><ele>190.25</ele><time>2026-05-04T13:57:01.001Z</time></trkpt><trkpt lat="41.60385460171193" lon="0.6826000229283482"><ele>191.0</ele><time>2026-05-04T13:57:02.001Z</time></trkpt><trkpt lat="41.60380411055719" lon="0.6827390923762033"><ele>190.75</ele><time>2026-05-04T13:57:03.001Z</time></trkpt><trkpt lat="41.603750706484206" lon="0.6828741529089549"><ele>190.5</ele><time>2026-05-04T13:57:04Z</time></trkpt><trkpt lat="41.603698085976156" lon="0.6830111283504634"><ele>190.25</ele><time>2026-05-04T13:57:05Z</time></trkpt><trkpt lat="41.603651382494455" lon="0.6831504158483446"><ele>190.0</ele><time>2026-05-04T13:57:06Z</time></trkpt><trkpt lat="41.603610807815414" lon="0.6832881592863088"><ele>189.4</ele><time>2026-05-04T13:57:07Z</time></trkpt><trkpt lat="41.60356176309631" lon="0.6834063522371515"><ele>188.8</ele><time>2026-05-04T13:57:08Z</time></trkpt><trkpt lat="41.60351313358336" lon="0.6835507266000057"><ele>188.2</ele><time>2026-05-04T13:57:09Z</time></trkpt><trkpt lat="41.603459070836216" lon="0.6836766486299802"><ele>187.6</ele><time>2026-05-04T13:57:10Z</time></trkpt><trkpt lat="41.6034013175692" lon="0.6838052176631136"><ele>187.0</ele><time>2026-05-04T13:57:11Z</time></trkpt><trkpt lat="41.60335330425135" lon="0.6839551989262376"><ele>187.0</ele><time>2026-05-04T13:57:12Z</time></trkpt><trkpt lat="41.60330275212355" lon="0.6840873316832401"><ele>187.0</ele><time>2026-05-04T13:57:13.001Z</time></trkpt><trkpt lat="41.60325433002988" lon="0.684225421576238"><ele>187.0</ele><time>2026-05-04T13:57:14.001Z</time></trkpt><trkpt lat="41.603204252772564" lon="0.6843601219229322"><ele>187.0</ele><time>2026-05-04T13:57:15.001Z</time></trkpt><trkpt lat="41.6031523963175" lon="0.6844984836139052"><ele>187.0</ele><time>2026-05-04T13:57:16.001Z</time></trkpt><trkpt lat="41.603103114440636" lon="0.684636715285149"><ele>187.0</ele><time>2026-05-04T13:57:17.001Z</time></trkpt><trkpt lat="41.60305380977253" lon="0.6847759823398386"><ele>187.0</ele><time>2026-05-04T13:57:18.001Z</time></trkpt><trkpt lat="41.60300317646165" lon="0.6849174430069755"><ele>187.0</ele><time>2026-05-04T13:57:19.001Z</time></trkpt><trkpt lat="41.602950013813995" lon="0.685057273496274"><ele>187.0</ele><time>2026-05-04T13:57:20.001Z</time></trkpt><trkpt lat="41.60289613306576" lon="0.6851982634916506"><ele>187.0</ele><time>2026-05-04T13:57:21.001Z</time></trkpt><trkpt lat="41.60284448139063" lon="0.6853374795813441"><ele>187.0</ele><time>2026-05-04T13:57:22.001Z</time></trkpt><trkpt lat="41.60279432022887" lon="0.6854781620177901"><ele>187.0</ele><time>2026-05-04T13:57:23.001Z</time></trkpt><trkpt lat="41.60274289099423" lon="0.6856182669567167"><ele>187.5</ele><time>2026-05-04T13:57:24.001Z</time></trkpt><trkpt lat="41.60269107642064" lon="0.6857595498824594"><ele>188.0</ele><time>2026-05-04T13:57:25.001Z</time></trkpt><trkpt lat="41.60263901274027" lon="0.6859002818539857"><ele>188.5</ele><time>2026-05-04T13:57:26.001Z</time></trkpt><trkpt lat="41.60258509342462" lon="0.6860407719741786"><ele>189.0</ele><time>2026-05-04T13:57:27.001Z</time></trkpt><trkpt lat="41.60253194354401" lon="0.6861830508271622"><ele>188.0</ele><time>2026-05-04T13:57:28.001Z</time></trkpt><trkpt lat="41.60248161715908" lon="0.686323978648064"><ele>187.0</ele><time>2026-05-04T13:57:29.001Z</time></trkpt><trkpt lat="41.60242824702371" lon="0.6864656098987496"><ele>186.0</ele><time>2026-05-04T13:57:30.001Z</time></trkpt><trkpt lat="41.60237702008063" lon="0.6866087252344157"><ele>185.0</ele><time>2026-05-04T13:57:31.001Z</time></trkpt><trkpt lat="41.60232581734548" lon="0.6867500942166145"><ele>185.0</ele><time>2026-05-04T13:57:32.001Z</time></trkpt><trkpt lat="41.6022751641168" lon="0.6868906620500761"><ele>185.0</ele><time>2026-05-04T13:57:33.001Z</time></trkpt><trkpt lat="41.60222180964796" lon="0.6870307737314397"><ele>185.0</ele><time>2026-05-04T13:57:34.001Z</time></trkpt><trkpt lat="41.602169374136516" lon="0.6871760591748544"><ele>185.0</ele><time>2026-05-04T13:57:35.001Z</time></trkpt><trkpt lat="41.60211832359232" lon="0.6873175006944696"><ele>184.5</ele><time>2026-05-04T13:57:36.001Z</time></trkpt><trkpt lat="41.602064845520424" lon="0.687461607659575"><ele>184.0</ele><time>2026-05-04T13:57:37.001Z</time></trkpt><trkpt lat="41.602011072441776" lon="0.6876049380737224"><ele>183.5</ele><time>2026-05-04T13:57:38.001Z</time></trkpt><trkpt lat="41.60195721925" lon="0.6877490592513533"><ele>183.0</ele><time>2026-05-04T13:57:39.001Z</time></trkpt><trkpt lat="41.60190677061543" lon="0.6878912004761777"><ele>181.75</ele><time>2026-05-04T13:57:40.001Z</time></trkpt><trkpt lat="41.601856004730394" lon="0.6880317721332108"><ele>180.5</ele><time>2026-05-04T13:57:41.001Z</time></trkpt><trkpt lat="41.60180237498313" lon="0.688175234451847"><ele>179.25</ele><time>2026-05-04T13:57:42.001Z</time></trkpt><trkpt lat="41.60174849537429" lon="0.6883160153287297"><ele>178.0</ele><time>2026-05-04T13:57:43.001Z</time></trkpt><trkpt lat="41.60169843488199" lon="0.6884560037245046"><ele>178.25</ele><time>2026-05-04T13:57:44.001Z</time></trkpt><trkpt lat="41.60164465720827" lon="0.6886007393009206"><ele>178.5</ele><time>2026-05-04T13:57:45.001Z</time></trkpt><trkpt lat="41.60159423264902" lon="0.6887422455060989"><ele>178.75</ele><time>2026-05-04T13:57:46.001Z</time></trkpt><trkpt lat="41.60154414076847" lon="0.6888834938092259"><ele>179.0</ele><time>2026-05-04T13:57:47.001Z</time></trkpt><trkpt lat="41.601490930986174" lon="0.689024672092409"><ele>179.0</ele><time>2026-05-04T13:57:48.001Z</time></trkpt><trkpt lat="41.6014393563343" lon="0.689165142840174"><ele>179.0</ele><time>2026-05-04T13:57:49.001Z</time></trkpt><trkpt lat="41.601387466116506" lon="0.6893044064580957"><ele>179.0</ele><time>2026-05-04T13:57:50.001Z</time></trkpt><trkpt lat="41.60133321199763" lon="0.6894485017714665"><ele>179.0</ele><time>2026-05-04T13:57:51.001Z</time></trkpt><trkpt lat="41.60128101679145" lon="0.6895911321911924"><ele>178.75</ele><time>2026-05-04T13:57:52.001Z</time></trkpt><trkpt lat="41.60123113046008" lon="0.6897324808762875"><ele>178.5</ele><time>2026-05-04T13:57:53.001Z</time></trkpt><trkpt lat="41.601178022115015" lon="0.6898779427184356"><ele>178.25</ele><time>2026-05-04T13:57:54.001Z</time></trkpt><trkpt lat="41.601127656719015" lon="0.6900197561926469"><ele>178.0</ele><time>2026-05-04T13:57:55.001Z</time></trkpt><trkpt lat="41.601073104327966" lon="0.6901640725618262"><ele>178.0</ele><time>2026-05-04T13:57:56.001Z</time></trkpt><trkpt lat="41.60102003648687" lon="0.6903064938034541"><ele>178.0</ele><time>2026-05-04T13:57:57.001Z</time></trkpt><trkpt lat="41.600967609288276" lon="0.6904498807743893"><ele>178.0</ele><time>2026-05-04T13:57:58.001Z</time></trkpt><trkpt lat="41.60091590494091" lon="0.6905887657662481"><ele>178.0</ele><time>2026-05-04T13:57:59.002Z</time></trkpt><trkpt lat="41.60086459064871" lon="0.6907308608821078"><ele>178.0</ele><time>2026-05-04T13:58:00.002Z</time></trkpt><trkpt lat="41.600812130732514" lon="0.6908727199514035"><ele>178.0</ele><time>2026-05-04T13:58:01.002Z</time></trkpt><trkpt lat="41.60075932390924" lon="0.6910148400545872"><ele>178.0</ele><time>2026-05-04T13:58:02.002Z</time></trkpt><trkpt lat="41.600704468180055" lon="0.6911591865481689"><ele>178.0</ele><time>2026-05-04T13:58:03.002Z</time></trkpt><trkpt lat="41.60065259243422" lon="0.691296013459434"><ele>177.75</ele><time>2026-05-04T13:58:04.002Z</time></trkpt><trkpt lat="41.60059973719865" lon="0.691439635857515"><ele>177.5</ele><time>2026-05-04T13:58:05.002Z</time></trkpt><trkpt lat="41.600546960368945" lon="0.6915847693484006"><ele>177.25</ele><time>2026-05-04T13:58:06.002Z</time></trkpt><trkpt lat="41.60049575159226" lon="0.6917241928939276"><ele>177.0</ele><time>2026-05-04T13:58:07.002Z</time></trkpt><trkpt lat="41.600445362788484" lon="0.6918662918747087"><ele>177.0</ele><time>2026-05-04T13:58:08.002Z</time></trkpt><trkpt lat="41.60038974240593" lon="0.6920093097805272"><ele>177.0</ele><time>2026-05-04T13:58:09.002Z</time></trkpt><trkpt lat="41.600337867385555" lon="0.6921459765915922"><ele>177.0</ele><time>2026-05-04T13:58:10.002Z</time></trkpt><trkpt lat="41.60028842292911" lon="0.6922868311913438"><ele>177.0</ele><time>2026-05-04T13:58:11.002Z</time></trkpt><trkpt lat="41.600235189887066" lon="0.6924284717488611"><ele>176.75</ele><time>2026-05-04T13:58:12.002Z</time></trkpt><trkpt lat="41.600183917513974" lon="0.6925718882107471"><ele>176.5</ele><time>2026-05-04T13:58:13.002Z</time></trkpt><trkpt lat="41.600130851539575" lon="0.6927146033754727"><ele>176.25</ele><time>2026-05-04T13:58:14.002Z</time></trkpt><trkpt lat="41.60007812614439" lon="0.6928537258631688"><ele>176.0</ele><time>2026-05-04T13:58:15.002Z</time></trkpt><trkpt lat="41.600027277509334" lon="0.6929943507024282"><ele>176.0</ele><time>2026-05-04T13:58:16.002Z</time></trkpt><trkpt lat="41.599975186273895" lon="0.6931392817424948"><ele>176.0</ele><time>2026-05-04T13:58:17.002Z</time></trkpt><trkpt lat="41.59992244624962" lon="0.6932774521204045"><ele>176.0</ele><time>2026-05-04T13:58:18.002Z</time></trkpt><trkpt lat="41.599870445411824" lon="0.6934203965277779"><ele>176.0</ele><time>2026-05-04T13:58:19.002Z</time></trkpt><trkpt lat="41.5998158193513" lon="0.6935621118696321"><ele>176.5</ele><time>2026-05-04T13:58:20.002Z</time></trkpt><trkpt lat="41.599764808531845" lon="0.6937010781280744"><ele>177.0</ele><time>2026-05-04T13:58:21.002Z</time></trkpt><trkpt lat="41.59971192601717" lon="0.693843222126678"><ele>177.5</ele><time>2026-05-04T13:58:22.002Z</time></trkpt><trkpt lat="41.59966044664071" lon="0.6939859368626268"><ele>178.0</ele><time>2026-05-04T13:58:23.002Z</time></trkpt><trkpt lat="41.59960763888108" lon="0.6941292213297587"><ele>178.0</ele><time>2026-05-04T13:58:24.002Z</time></trkpt><trkpt lat="41.59955269684022" lon="0.6942632506504526"><ele>178.0</ele><time>2026-05-04T13:58:25.002Z</time></trkpt><trkpt lat="41.599501419487645" lon="0.6944061610459602"><ele>178.0</ele><time>2026-05-04T13:58:26.002Z</time></trkpt><trkpt lat="41.59945175992017" lon="0.6945493545600241"><ele>178.0</ele><time>2026-05-04T13:58:27.002Z</time></trkpt><trkpt lat="41.59940102642053" lon="0.6946886397664963"><ele>178.0</ele><time>2026-05-04T13:58:28.002Z</time></trkpt><trkpt lat="41.599347916054725" lon="0.6948290230437292"><ele>178.0</ele><time>2026-05-04T13:58:29.002Z</time></trkpt><trkpt lat="41.59929710868527" lon="0.6949708652884854"><ele>178.0</ele><time>2026-05-04T13:58:30.002Z</time></trkpt><trkpt lat="41.599243208300926" lon="0.6951125223913747"><ele>178.0</ele><time>2026-05-04T13:58:31.002Z</time></trkpt><trkpt lat="41.599191109594535" lon="0.6952550595977759"><ele>177.75</ele><time>2026-05-04T13:58:32.002Z</time></trkpt><trkpt lat="41.59914210802895" lon="0.6953948011576595"><ele>177.5</ele><time>2026-05-04T13:58:33.002Z</time></trkpt><trkpt lat="41.5990907796857" lon="0.6955378706541483"><ele>177.25</ele><time>2026-05-04T13:58:34.002Z</time></trkpt><trkpt lat="41.599036839868376" lon="0.6956798284478711"><ele>177.0</ele><time>2026-05-04T13:58:35.002Z</time></trkpt><trkpt lat="41.59898716415241" lon="0.6958197439691878"><ele>177.0</ele><time>2026-05-04T13:58:36.002Z</time></trkpt><trkpt lat="41.598936488897415" lon="0.695963069459134"><ele>177.0</ele><time>2026-05-04T13:58:37.002Z</time></trkpt><trkpt lat="41.59888547503902" lon="0.6961055358275857"><ele>177.0</ele><time>2026-05-04T13:58:38.003Z</time></trkpt><trkpt lat="41.59883545723459" lon="0.6962412630228374"><ele>177.0</ele><time>2026-05-04T13:58:39.003Z</time></trkpt><trkpt lat="41.598782943713175" lon="0.6963853611943841"><ele>177.5</ele><time>2026-05-04T13:58:40.003Z</time></trkpt><trkpt lat="41.59873326299224" lon="0.6965269021618266"><ele>178.0</ele><time>2026-05-04T13:58:41.003Z</time></trkpt><trkpt lat="41.598681233666944" lon="0.6966651607903634"><ele>178.5</ele><time>2026-05-04T13:58:42.003Z</time></trkpt><trkpt lat="41.59863348638004" lon="0.6968074900643212"><ele>179.0</ele><time>2026-05-04T13:58:43.003Z</time></trkpt><trkpt lat="41.59858115852262" lon="0.6969433202151809"><ele>179.0</ele><time>2026-05-04T13:58:44.003Z</time></trkpt><trkpt lat="41.598534064167346" lon="0.6970824048216903"><ele>179.0</ele><time>2026-05-04T13:58:45.003Z</time></trkpt><trkpt lat="41.59847977400527" lon="0.6972194673974259"><ele>179.0</ele><time>2026-05-04T13:58:46.003Z</time></trkpt><trkpt lat="41.598427013586324" lon="0.6973605998780585"><ele>179.0</ele><time>2026-05-04T13:58:47.003Z</time></trkpt><trkpt lat="41.598379494413564" lon="0.6975014531413775"><ele>179.0</ele><time>2026-05-04T13:58:48.003Z</time></trkpt><trkpt lat="41.59832782144743" lon="0.6976432120489262"><ele>179.0</ele><time>2026-05-04T13:58:49.003Z</time></trkpt><trkpt lat="41.59827475698998" lon="0.697783328225533"><ele>179.0</ele><time>2026-05-04T13:58:50.003Z</time></trkpt><trkpt lat="41.59822171270988" lon="0.6979244066259114"><ele>179.0</ele><time>2026-05-04T13:58:51.003Z</time></trkpt><trkpt lat="41.598172386081856" lon="0.6980649091172774"><ele>179.0</ele><time>2026-05-04T13:58:52.003Z</time></trkpt><trkpt lat="41.59812044362522" lon="0.6982095616852871"><ele>179.0</ele><time>2026-05-04T13:58:53.003Z</time></trkpt><trkpt lat="41.59807088787745" lon="0.6983516504097947"><ele>179.0</ele><time>2026-05-04T13:58:54.003Z</time></trkpt><trkpt lat="41.59801634861385" lon="0.6984912777245483"><ele>179.0</ele><time>2026-05-04T13:58:55.003Z</time></trkpt><trkpt lat="41.597971163318235" lon="0.6986337125293112"><ele>179.5</ele><time>2026-05-04T13:58:56.003Z</time></trkpt><trkpt lat="41.59791624389887" lon="0.6987772034354133"><ele>180.0</ele><time>2026-05-04T13:58:57.003Z</time></trkpt><trkpt lat="41.597865374407796" lon="0.698916443503625"><ele>180.5</ele><time>2026-05-04T13:58:58.003Z</time></trkpt><trkpt lat="41.597812641088254" lon="0.6990542705599115"><ele>181.0</ele><time>2026-05-04T13:58:59.003Z</time></trkpt><trkpt lat="41.59776658428626" lon="0.6991976124783009"><ele>181.0</ele><time>2026-05-04T13:59:00.003Z</time></trkpt><trkpt lat="41.59771157025736" lon="0.6993375441724948"><ele>181.0</ele><time>2026-05-04T13:59:01.001Z</time></trkpt><trkpt lat="41.59765861358236" lon="0.6994771353659163"><ele>181.0</ele><time>2026-05-04T13:59:02.001Z</time></trkpt><trkpt lat="41.59760861593216" lon="0.699618628073918"><ele>181.0</ele><time>2026-05-04T13:59:03.001Z</time></trkpt><trkpt lat="41.59755716500551" lon="0.699757789221069"><ele>181.0</ele><time>2026-05-04T13:59:04.001Z</time></trkpt><trkpt lat="41.59750518049517" lon="0.6998985137911166"><ele>181.0</ele><time>2026-05-04T13:59:05.001Z</time></trkpt><trkpt lat="41.59745889799404" lon="0.7000399381217812"><ele>181.0</ele><time>2026-05-04T13:59:06.001Z</time></trkpt><trkpt lat="41.59740266367841" lon="0.7001776864649673"><ele>181.0</ele><time>2026-05-04T13:59:07.001Z</time></trkpt><trkpt lat="41.59735061023649" lon="0.7003165514523111"><ele>181.0</ele><time>2026-05-04T13:59:08.001Z</time></trkpt><trkpt lat="41.59730132268429" lon="0.700450795818863"><ele>181.0</ele><time>2026-05-04T13:59:09.001Z</time></trkpt><trkpt lat="41.59725198809109" lon="0.7005913588068917"><ele>181.0</ele><time>2026-05-04T13:59:10.001Z</time></trkpt><trkpt lat="41.597201675928495" lon="0.7007323318458885"><ele>181.0</ele><time>2026-05-04T13:59:11.001Z</time></trkpt><trkpt lat="41.597152559334" lon="0.7008665620671461"><ele>181.0</ele><time>2026-05-04T13:59:12.001Z</time></trkpt><trkpt lat="41.59710418193219" lon="0.7010033439804088"><ele>181.0</ele><time>2026-05-04T13:59:13.001Z</time></trkpt><trkpt lat="41.59705285618386" lon="0.7011434818398113"><ele>181.0</ele><time>2026-05-04T13:59:14.001Z</time></trkpt><trkpt lat="41.597001318804146" lon="0.7012806156959457"><ele>181.0</ele><time>2026-05-04T13:59:15.001Z</time></trkpt><trkpt lat="41.59695159679146" lon="0.7014173867155319"><ele>181.5</ele><time>2026-05-04T13:59:16.001Z</time></trkpt><trkpt lat="41.59690028655597" lon="0.7015569976723555"><ele>182.0</ele><time>2026-05-04T13:59:17.001Z</time></trkpt><trkpt lat="41.59684662892588" lon="0.7016971089848935"><ele>182.5</ele><time>2026-05-04T13:59:18.001Z</time></trkpt><trkpt lat="41.596797164938415" lon="0.7018402274901295"><ele>183.0</ele><time>2026-05-04T13:59:19.001Z</time></trkpt><trkpt lat="41.596744684247554" lon="0.701980789084813"><ele>183.25</ele><time>2026-05-04T13:59:20.001Z</time></trkpt><trkpt lat="41.5966935077723" lon="0.7021190395106965"><ele>183.5</ele><time>2026-05-04T13:59:21.001Z</time></trkpt><trkpt lat="41.59664432707036" lon="0.7022616230016485"><ele>183.75</ele><time>2026-05-04T13:59:22.001Z</time></trkpt><trkpt lat="41.59659349776237" lon="0.7023992830201692"><ele>184.0</ele><time>2026-05-04T13:59:23.001Z</time></trkpt><trkpt lat="41.5965420268366" lon="0.7025406851307879"><ele>184.0</ele><time>2026-05-04T13:59:24.001Z</time></trkpt><trkpt lat="41.596488912010656" lon="0.7026788261398967"><ele>184.0</ele><time>2026-05-04T13:59:25.001Z</time></trkpt><trkpt lat="41.5964396940978" lon="0.7028179493761469"><ele>184.0</ele><time>2026-05-04T13:59:26.001Z</time></trkpt><trkpt lat="41.59639021677778" lon="0.702953073504994"><ele>184.0</ele><time>2026-05-04T13:59:27.001Z</time></trkpt><trkpt lat="41.596340017218296" lon="0.7030878832834981"><ele>184.5</ele><time>2026-05-04T13:59:28.001Z</time></trkpt><trkpt lat="41.59628854075909" lon="0.7032247173267295"><ele>185.0</ele><time>2026-05-04T13:59:29.001Z</time></trkpt><trkpt lat="41.59623798640701" lon="0.7033568470124073"><ele>185.5</ele><time>2026-05-04T13:59:30.001Z</time></trkpt><trkpt lat="41.59619179049695" lon="0.7034962405559922"><ele>186.0</ele><time>2026-05-04T13:59:31.001Z</time></trkpt><trkpt lat="41.5961392569226" lon="0.7036278879209857"><ele>186.25</ele><time>2026-05-04T13:59:32.001Z</time></trkpt><trkpt lat="41.59608798801982" lon="0.7037648670613991"><ele>186.5</ele><time>2026-05-04T13:59:33.001Z</time></trkpt><trkpt lat="41.59603697269428" lon="0.7039016288760583"><ele>186.75</ele><time>2026-05-04T13:59:34.001Z</time></trkpt><trkpt lat="41.59598772027391" lon="0.7040396037852754"><ele>187.0</ele><time>2026-05-04T13:59:35.001Z</time></trkpt><trkpt lat="41.59593694586026" lon="0.704179004666463"><ele>187.0</ele><time>2026-05-04T13:59:36.001Z</time></trkpt><trkpt lat="41.59588582168466" lon="0.7043166338052969"><ele>187.0</ele><time>2026-05-04T13:59:37.001Z</time></trkpt><trkpt lat="41.5958348688932" lon="0.7044515914091789"><ele>187.0</ele><time>2026-05-04T13:59:38.001Z</time></trkpt><trkpt lat="41.5957829170486" lon="0.7045892192601175"><ele>187.0</ele><time>2026-05-04T13:59:39.001Z</time></trkpt><trkpt lat="41.59573760939157" lon="0.7047275715321527"><ele>187.0</ele><time>2026-05-04T13:59:40.001Z</time></trkpt><trkpt lat="41.5956877130397" lon="0.7048675247521655"><ele>187.0</ele><time>2026-05-04T13:59:41.001Z</time></trkpt><trkpt lat="41.595637026817315" lon="0.7050040111504103"><ele>187.0</ele><time>2026-05-04T13:59:42.001Z</time></trkpt><trkpt lat="41.59558842642949" lon="0.7051450940992864"><ele>187.0</ele><time>2026-05-04T13:59:43.001Z</time></trkpt><trkpt lat="41.5955393839464" lon="0.7052816843019211"><ele>187.0</ele><time>2026-05-04T13:59:44.001Z</time></trkpt><trkpt lat="41.595488243167146" lon="0.705420661555909"><ele>187.0</ele><time>2026-05-04T13:59:45.001Z</time></trkpt><trkpt lat="41.595437372324746" lon="0.7055552767899936"><ele>187.0</ele><time>2026-05-04T13:59:46.001Z</time></trkpt><trkpt lat="41.59538612437915" lon="0.705692495747384"><ele>187.0</ele><time>2026-05-04T13:59:47.001Z</time></trkpt><trkpt lat="41.59533057961472" lon="0.7058317572420708"><ele>187.0</ele><time>2026-05-04T13:59:48.001Z</time></trkpt><trkpt lat="41.595280615256755" lon="0.7059664864759936"><ele>187.0</ele><time>2026-05-04T13:59:49.001Z</time></trkpt><trkpt lat="41.59522608019774" lon="0.7060993846718492"><ele>187.0</ele><time>2026-05-04T13:59:50.001Z</time></trkpt><trkpt lat="41.59517745326431" lon="0.7062339180538572"><ele>187.0</ele><time>2026-05-04T13:59:51.001Z</time></trkpt><trkpt lat="41.595129149272054" lon="0.7063696348394897"><ele>187.25</ele><time>2026-05-04T13:59:52.001Z</time></trkpt><trkpt lat="41.595081099530816" lon="0.7065102161834662"><ele>187.5</ele><time>2026-05-04T13:59:53.001Z</time></trkpt><trkpt lat="41.59503202801117" lon="0.7066481692596099"><ele>187.75</ele><time>2026-05-04T13:59:54.001Z</time></trkpt><trkpt lat="41.59498496446349" lon="0.7067852740105539"><ele>188.0</ele><time>2026-05-04T13:59:55.001Z</time></trkpt><trkpt lat="41.59493318756503" lon="0.706924164858855"><ele>188.60000000000002</ele><time>2026-05-04T13:59:56.001Z</time></trkpt><trkpt lat="41.59488025184735" lon="0.7070598483612351"><ele>189.20000000000002</ele><time>2026-05-04T13:59:57.001Z</time></trkpt><trkpt lat="41.59483035234558" lon="0.7071911728524611"><ele>189.8</ele><time>2026-05-04T13:59:58.001Z</time></trkpt><trkpt lat="41.59477920816682" lon="0.7073249032834054"><ele>190.4</ele><time>2026-05-04T13:59:59.001Z</time></trkpt><trkpt lat="41.59473300850041" lon="0.7074583296385066"><ele>191.0</ele><time>2026-05-04T14:00:00.001Z</time></trkpt><trkpt lat="41.59468477081456" lon="0.7075956395559903"><ele>191.0</ele><time>2026-05-04T14:00:01.001Z</time></trkpt><trkpt lat="41.5946349152255" lon="0.7077301078192169"><ele>191.0</ele><time>2026-05-04T14:00:02.001Z</time></trkpt><trkpt lat="41.59458539574465" lon="0.70786381129924"><ele>191.0</ele><time>2026-05-04T14:00:03.001Z</time></trkpt><trkpt lat="41.59453493105186" lon="0.7079996608373907"><ele>191.0</ele><time>2026-05-04T14:00:04.002Z</time></trkpt><trkpt lat="41.59448538001529" lon="0.7081336857834064"><ele>191.0</ele><time>2026-05-04T14:00:05.002Z</time></trkpt><trkpt lat="41.59443477992804" lon="0.7082650222046178"><ele>191.0</ele><time>2026-05-04T14:00:06.002Z</time></trkpt><trkpt lat="41.594387335357546" lon="0.7084026129728431"><ele>191.0</ele><time>2026-05-04T14:00:07.002Z</time></trkpt><trkpt lat="41.5943363488786" lon="0.7085372640898744"><ele>191.0</ele><time>2026-05-04T14:00:08.002Z</time></trkpt><trkpt lat="41.59428652890475" lon="0.708674381848671"><ele>191.0</ele><time>2026-05-04T14:00:09.002Z</time></trkpt><trkpt lat="41.59423659647551" lon="0.7088103076402391"><ele>191.0</ele><time>2026-05-04T14:00:10.002Z</time></trkpt><trkpt lat="41.59418701668927" lon="0.7089472080279133"><ele>191.0</ele><time>2026-05-04T14:00:11.002Z</time></trkpt><trkpt lat="41.59413765746087" lon="0.7090814720208878"><ele>191.0</ele><time>2026-05-04T14:00:12.002Z</time></trkpt><trkpt lat="41.59408715966479" lon="0.7092151567038678"><ele>191.0</ele><time>2026-05-04T14:00:13.002Z</time></trkpt><trkpt lat="41.59403716520084" lon="0.7093525842427467"><ele>191.60000000000002</ele><time>2026-05-04T14:00:14.002Z</time></trkpt><trkpt lat="41.59399025718016" lon="0.7094881533534193"><ele>192.2</ele><time>2026-05-04T14:00:15.002Z</time></trkpt><trkpt lat="41.59394122917566" lon="0.7096217108585731"><ele>192.8</ele><time>2026-05-04T14:00:16.002Z</time></trkpt><trkpt lat="41.593891992201904" lon="0.7097574493695887"><ele>193.39999999999998</ele><time>2026-05-04T14:00:17.002Z</time></trkpt><trkpt lat="41.593844592831125" lon="0.7098954078022676"><ele>194.0</ele><time>2026-05-04T14:00:18.002Z</time></trkpt><trkpt lat="41.59379360399395" lon="0.7100319578130906"><ele>194.0</ele><time>2026-05-04T14:00:19.002Z</time></trkpt><trkpt lat="41.593743609997155" lon="0.7101649269660892"><ele>194.0</ele><time>2026-05-04T14:00:20.002Z</time></trkpt><trkpt lat="41.59369418361121" lon="0.7103008871399616"><ele>194.0</ele><time>2026-05-04T14:00:21.002Z</time></trkpt><trkpt lat="41.59364394300014" lon="0.7104371437041731"><ele>194.0</ele><time>2026-05-04T14:00:22.002Z</time></trkpt><trkpt lat="41.59359368704117" lon="0.710573165657792"><ele>194.39999999999998</ele><time>2026-05-04T14:00:23.002Z</time></trkpt><trkpt lat="41.59354593313366" lon="0.7107077422977877"><ele>194.8</ele><time>2026-05-04T14:00:24.002Z</time></trkpt><trkpt lat="41.59349824572784" lon="0.7108423702399527"><ele>195.2</ele><time>2026-05-04T14:00:25.002Z</time></trkpt><trkpt lat="41.593451102724174" lon="0.710975114009401"><ele>195.60000000000002</ele><time>2026-05-04T14:00:26.002Z</time></trkpt><trkpt lat="41.59340153564465" lon="0.7111085922758811"><ele>196.0</ele><time>2026-05-04T14:00:27.002Z</time></trkpt><trkpt lat="41.59335263007318" lon="0.7112403462398551"><ele>196.60000000000002</ele><time>2026-05-04T14:00:28.002Z</time></trkpt><trkpt lat="41.5933049334018" lon="0.7113717553255954"><ele>197.2</ele><time>2026-05-04T14:00:29.002Z</time></trkpt><trkpt lat="41.59325561982653" lon="0.7115000168214233"><ele>197.8</ele><time>2026-05-04T14:00:30.002Z</time></trkpt><trkpt lat="41.59320580080728" lon="0.7116324188303839"><ele>198.39999999999998</ele><time>2026-05-04T14:00:31.002Z</time></trkpt><trkpt lat="41.59315726692681" lon="0.7117635565840725"><ele>199.0</ele><time>2026-05-04T14:00:32.002Z</time></trkpt><trkpt lat="41.59310948777575" lon="0.71189349884947"><ele>199.2</ele><time>2026-05-04T14:00:33.002Z</time></trkpt><trkpt lat="41.59306359827487" lon="0.7120222986064477"><ele>199.39999999999998</ele><time>2026-05-04T14:00:34.002Z</time></trkpt><trkpt lat="41.59301835124749" lon="0.7121553598861947"><ele>199.6</ele><time>2026-05-04T14:00:35.002Z</time></trkpt><trkpt lat="41.592968777655386" lon="0.7122853912055251"><ele>199.8</ele><time>2026-05-04T14:00:36.002Z</time></trkpt><trkpt lat="41.592921152222665" lon="0.7124177190033562"><ele>200.0</ele><time>2026-05-04T14:00:37.002Z</time></trkpt><trkpt lat="41.59287211929603" lon="0.7125484863397766"><ele>200.4</ele><time>2026-05-04T14:00:38.002Z</time></trkpt><trkpt lat="41.59282273463621" lon="0.7126778154300392"><ele>200.8</ele><time>2026-05-04T14:00:39.002Z</time></trkpt><trkpt lat="41.59277439174772" lon="0.7128079184280574"><ele>201.2</ele><time>2026-05-04T14:00:40.002Z</time></trkpt><trkpt lat="41.59272740608371" lon="0.7129372880784839"><ele>201.6</ele><time>2026-05-04T14:00:41.002Z</time></trkpt><trkpt lat="41.592678348642664" lon="0.7130637795604139"><ele>202.0</ele><time>2026-05-04T14:00:42.002Z</time></trkpt><trkpt lat="41.59263048647556" lon="0.7131914487334627"><ele>202.2</ele><time>2026-05-04T14:00:43.002Z</time></trkpt><trkpt lat="41.59258598639671" lon="0.7133211418574325"><ele>202.39999999999998</ele><time>2026-05-04T14:00:44.002Z</time></trkpt><trkpt lat="41.59253899678258" lon="0.713452281234234"><ele>202.60000000000002</ele><time>2026-05-04T14:00:45.002Z</time></trkpt><trkpt lat="41.592488701136595" lon="0.7135800828395943"><ele>202.8</ele><time>2026-05-04T14:00:46.002Z</time></trkpt><trkpt lat="41.592440457632065" lon="0.7137091026359136"><ele>203.0</ele><time>2026-05-04T14:00:47.003Z</time></trkpt><trkpt lat="41.59239385632263" lon="0.7138387327000459"><ele>203.0</ele><time>2026-05-04T14:00:48.003Z</time></trkpt><trkpt lat="41.59234553220361" lon="0.7139620947621775"><ele>203.0</ele><time>2026-05-04T14:00:49.003Z</time></trkpt><trkpt lat="41.59230109289033" lon="0.7140876554816272"><ele>203.0</ele><time>2026-05-04T14:00:50.003Z</time></trkpt><trkpt lat="41.59225624762312" lon="0.7142220061891792"><ele>203.0</ele><time>2026-05-04T14:00:51.003Z</time></trkpt><trkpt lat="41.59220827047282" lon="0.7143484907697256"><ele>203.0</ele><time>2026-05-04T14:00:52.003Z</time></trkpt><trkpt lat="41.5921612382959" lon="0.7144735705137427"><ele>203.60000000000002</ele><time>2026-05-04T14:00:53.003Z</time></trkpt><trkpt lat="41.59211697309788" lon="0.7146010058823604"><ele>204.20000000000002</ele><time>2026-05-04T14:00:54.003Z</time></trkpt><trkpt lat="41.592066073151486" lon="0.7147270915673625"><ele>204.8</ele><time>2026-05-04T14:00:55.003Z</time></trkpt><trkpt lat="41.59202194537454" lon="0.7148558761154169"><ele>205.4</ele><time>2026-05-04T14:00:56.003Z</time></trkpt><trkpt lat="41.59197826147269" lon="0.7149829881739737"><ele>206.0</ele><time>2026-05-04T14:00:57.003Z</time></trkpt><trkpt lat="41.591931299534586" lon="0.7151090551097191"><ele>206.0</ele><time>2026-05-04T14:00:58.003Z</time></trkpt><trkpt lat="41.59188455315114" lon="0.7152353310692792"><ele>206.0</ele><time>2026-05-04T14:00:59.003Z</time></trkpt><trkpt lat="41.59183898064029" lon="0.7153626039600752"><ele>206.0</ele><time>2026-05-04T14:01:00.003Z</time></trkpt><trkpt lat="41.59179197938912" lon="0.7154849042048478"><ele>206.0</ele><time>2026-05-04T14:01:01.003Z</time></trkpt><trkpt lat="41.59174594993422" lon="0.7156098968838529"><ele>206.0</ele><time>2026-05-04T14:01:02.003Z</time></trkpt><trkpt lat="41.5917015351473" lon="0.7157355274283046"><ele>206.8</ele><time>2026-05-04T14:01:03.003Z</time></trkpt><trkpt lat="41.59165192827474" lon="0.7158623529993717"><ele>207.60000000000002</ele><time>2026-05-04T14:01:04.003Z</time></trkpt><trkpt lat="41.5916066748217" lon="0.7159931695509755"><ele>208.4</ele><time>2026-05-04T14:01:05.003Z</time></trkpt><trkpt lat="41.59156458146125" lon="0.7161210164616948"><ele>209.2</ele><time>2026-05-04T14:01:06.003Z</time></trkpt><trkpt lat="41.59151687771663" lon="0.7162461696501143"><ele>210.0</ele><time>2026-05-04T14:01:07.001Z</time></trkpt><trkpt lat="41.591468693554305" lon="0.7163731920175818"><ele>210.4</ele><time>2026-05-04T14:01:08.001Z</time></trkpt><trkpt lat="41.591425302174244" lon="0.7165022374596792"><ele>210.8</ele><time>2026-05-04T14:01:09.001Z</time></trkpt><trkpt lat="41.59138167666805" lon="0.716624970470008"><ele>211.2</ele><time>2026-05-04T14:01:10.001Z</time></trkpt><trkpt lat="41.59133298684488" lon="0.7167546518607516"><ele>211.6</ele><time>2026-05-04T14:01:11.001Z</time></trkpt><trkpt lat="41.59128116768261" lon="0.7168735015227246"><ele>212.0</ele><time>2026-05-04T14:01:12.001Z</time></trkpt><trkpt lat="41.59123745051977" lon="0.7170026897270928"><ele>212.2</ele><time>2026-05-04T14:01:13.001Z</time></trkpt><trkpt lat="41.59118806557636" lon="0.7171304765893487"><ele>212.39999999999998</ele><time>2026-05-04T14:01:14.001Z</time></trkpt><trkpt lat="41.59113994219599" lon="0.717252057784282"><ele>212.60000000000002</ele><time>2026-05-04T14:01:15.001Z</time></trkpt><trkpt lat="41.591087354924035" lon="0.717378114214116"><ele>212.8</ele><time>2026-05-04T14:01:16.001Z</time></trkpt><trkpt lat="41.591040327154325" lon="0.7175035864796779"><ele>213.0</ele><time>2026-05-04T14:01:17.001Z</time></trkpt><trkpt lat="41.59098252640128" lon="0.7176423350247139"><ele>213.8</ele><time>2026-05-04T14:01:18.001Z</time></trkpt><trkpt lat="41.59094610485388" lon="0.7177571213018592"><ele>214.60000000000002</ele><time>2026-05-04T14:01:19.001Z</time></trkpt><trkpt lat="41.59089574943298" lon="0.7178808520230742"><ele>215.39999999999998</ele><time>2026-05-04T14:01:20.001Z</time></trkpt><trkpt lat="41.59084245711857" lon="0.7180065948148637"><ele>216.2</ele><time>2026-05-04T14:01:21.001Z</time></trkpt><trkpt lat="41.59079289643528" lon="0.7181314806934775"><ele>217.0</ele><time>2026-05-04T14:01:22.001Z</time></trkpt><trkpt lat="41.59074939598027" lon="0.718259590471693"><ele>217.0</ele><time>2026-05-04T14:01:23.001Z</time></trkpt><trkpt lat="41.59070208353949" lon="0.7183829792380685"><ele>217.0</ele><time>2026-05-04T14:01:24.001Z</time></trkpt><trkpt lat="41.59065195977861" lon="0.718508854308368"><ele>217.0</ele><time>2026-05-04T14:01:25.001Z</time></trkpt><trkpt lat="41.59060757059045" lon="0.7186328441565177"><ele>217.0</ele><time>2026-05-04T14:01:26.001Z</time></trkpt><trkpt lat="41.59056385320119" lon="0.7187582473004744"><ele>217.0</ele><time>2026-05-04T14:01:27.001Z</time></trkpt><trkpt lat="41.59052109553558" lon="0.7188778722961964"><ele>217.2</ele><time>2026-05-04T14:01:28.001Z</time></trkpt><trkpt lat="41.59047961626682" lon="0.7190014867224621"><ele>217.39999999999998</ele><time>2026-05-04T14:01:29.001Z</time></trkpt><trkpt lat="41.590433696797184" lon="0.7191212874513775"><ele>217.60000000000002</ele><time>2026-05-04T14:01:30.001Z</time></trkpt><trkpt lat="41.59039612615915" lon="0.7192406357830495"><ele>217.8</ele><time>2026-05-04T14:01:31.001Z</time></trkpt><trkpt lat="41.59035214456983" lon="0.719357326422792"><ele>218.0</ele><time>2026-05-04T14:01:32.001Z</time></trkpt><trkpt lat="41.5903098687167" lon="0.7194751553539931"><ele>219.2</ele><time>2026-05-04T14:01:33.001Z</time></trkpt><trkpt lat="41.590268008447595" lon="0.7195875516015765"><ele>220.4</ele><time>2026-05-04T14:01:34.001Z</time></trkpt><trkpt lat="41.59022479054279" lon="0.71970276601383"><ele>221.59999999999997</ele><time>2026-05-04T14:01:35.001Z</time></trkpt><trkpt lat="41.590181099037395" lon="0.7198196345932849"><ele>222.79999999999998</ele><time>2026-05-04T14:01:36.001Z</time></trkpt><trkpt lat="41.59013442298329" lon="0.7199329498656174"><ele>224.0</ele><time>2026-05-04T14:01:37.001Z</time></trkpt><trkpt lat="41.590094025958926" lon="0.7200428652983606"><ele>224.0</ele><time>2026-05-04T14:01:38.001Z</time></trkpt><trkpt lat="41.59005247039085" lon="0.7201587594997204"><ele>223.99999999999997</ele><time>2026-05-04T14:01:39.001Z</time></trkpt><trkpt lat="41.59000562069698" lon="0.720270289973743"><ele>223.99999999999997</ele><time>2026-05-04T14:01:40.001Z</time></trkpt><trkpt lat="41.589968635451264" lon="0.7203884532980473"><ele>224.0</ele><time>2026-05-04T14:01:41.001Z</time></trkpt><trkpt lat="41.58992532164698" lon="0.7205034114787985"><ele>224.0</ele><time>2026-05-04T14:01:42.001Z</time></trkpt><trkpt lat="41.58987954747853" lon="0.7206145278527826"><ele>224.39999999999998</ele><time>2026-05-04T14:01:43.001Z</time></trkpt><trkpt lat="41.58983368602326" lon="0.7207262361132035"><ele>224.79999999999998</ele><time>2026-05-04T14:01:44.001Z</time></trkpt><trkpt lat="41.58978994731594" lon="0.7208396829933966"><ele>225.20000000000002</ele><time>2026-05-04T14:01:45.001Z</time></trkpt><trkpt lat="41.58974934143258" lon="0.7209558359467113"><ele>225.60000000000002</ele><time>2026-05-04T14:01:46.001Z</time></trkpt><trkpt lat="41.58970474811601" lon="0.7210696104647925"><ele>226.0</ele><time>2026-05-04T14:01:47.001Z</time></trkpt><trkpt lat="41.58965984379159" lon="0.7211862037518578"><ele>227.0</ele><time>2026-05-04T14:01:48.001Z</time></trkpt><trkpt lat="41.58962019443252" lon="0.7213009169823601"><ele>228.00000000000003</ele><time>2026-05-04T14:01:49.001Z</time></trkpt><trkpt lat="41.58957521920646" lon="0.7214133271918363"><ele>229.00000000000003</ele><time>2026-05-04T14:01:50.001Z</time></trkpt><trkpt lat="41.58952335495666" lon="0.7215225024055729"><ele>230.0</ele><time>2026-05-04T14:01:51.001Z</time></trkpt><trkpt lat="41.58948812751095" lon="0.721633882531509"><ele>231.0</ele><time>2026-05-04T14:01:52.001Z</time></trkpt><trkpt lat="41.58944358505083" lon="0.7217452165678896"><ele>231.0</ele><time>2026-05-04T14:01:53.001Z</time></trkpt><trkpt lat="41.58938978490141" lon="0.721852042628961"><ele>231.00000000000003</ele><time>2026-05-04T14:01:54.001Z</time></trkpt><trkpt lat="41.589341858700614" lon="0.7219590816824797"><ele>231.00000000000003</ele><time>2026-05-04T14:01:55.001Z</time></trkpt><trkpt lat="41.58929817781486" lon="0.722070133470344"><ele>231.0</ele><time>2026-05-04T14:01:56.001Z</time></trkpt><trkpt lat="41.58925458836177" lon="0.7221793604099876"><ele>231.0</ele><time>2026-05-04T14:01:57.001Z</time></trkpt><trkpt lat="41.58920846080196" lon="0.722289317653351"><ele>231.8</ele><time>2026-05-04T14:01:58.001Z</time></trkpt><trkpt lat="41.58916370785735" lon="0.7223977705067771"><ele>232.60000000000002</ele><time>2026-05-04T14:01:59.001Z</time></trkpt><trkpt lat="41.58912256391832" lon="0.7225086276642881"><ele>233.4</ele><time>2026-05-04T14:02:00.001Z</time></trkpt><trkpt lat="41.589073534372794" lon="0.722613961754038"><ele>234.2</ele><time>2026-05-04T14:02:01.001Z</time></trkpt><trkpt lat="41.5890220151449" lon="0.7227239362931853"><ele>235.0</ele><time>2026-05-04T14:02:02.001Z</time></trkpt><trkpt lat="41.58897299178329" lon="0.7228332474753563"><ele>235.2</ele><time>2026-05-04T14:02:03.001Z</time></trkpt><trkpt lat="41.58892543519207" lon="0.7229468307029988"><ele>235.4</ele><time>2026-05-04T14:02:04.001Z</time></trkpt><trkpt lat="41.58887685421001" lon="0.7230588383132405"><ele>235.60000000000002</ele><time>2026-05-04T14:02:05.001Z</time></trkpt><trkpt lat="41.58882559702106" lon="0.7231747948938757"><ele>235.8</ele><time>2026-05-04T14:02:06.001Z</time></trkpt><trkpt lat="41.588772968728826" lon="0.7232901000986673"><ele>236.0</ele><time>2026-05-04T14:02:07.001Z</time></trkpt><trkpt lat="41.58872169428212" lon="0.7234073438955557"><ele>236.0</ele><time>2026-05-04T14:02:08.001Z</time></trkpt><trkpt lat="41.588662475023675" lon="0.7235248590825429"><ele>236.00000000000003</ele><time>2026-05-04T14:02:09.001Z</time></trkpt><trkpt lat="41.58860911468078" lon="0.723647007883841"><ele>236.00000000000003</ele><time>2026-05-04T14:02:10.001Z</time></trkpt><trkpt lat="41.58855890553733" lon="0.7237707847634122"><ele>236.0</ele><time>2026-05-04T14:02:11.001Z</time></trkpt><trkpt lat="41.58850626042604" lon="0.723894008938509"><ele>236.0</ele><time>2026-05-04T14:02:12.001Z</time></trkpt><trkpt lat="41.58844681163278" lon="0.724015914159042"><ele>236.0</ele><time>2026-05-04T14:02:13.002Z</time></trkpt><trkpt lat="41.588399721107564" lon="0.724149271168064"><ele>236.0</ele><time>2026-05-04T14:02:14.002Z</time></trkpt><trkpt lat="41.58835666010922" lon="0.7242787974897987"><ele>236.0</ele><time>2026-05-04T14:02:15.002Z</time></trkpt><trkpt lat="41.58829068866792" lon="0.7244128596320065"><ele>236.0</ele><time>2026-05-04T14:02:16.002Z</time></trkpt><trkpt lat="41.58822176681379" lon="0.7245419761126487"><ele>236.20000000000002</ele><time>2026-05-04T14:02:17.002Z</time></trkpt><trkpt lat="41.58818692503395" lon="0.7246680952145506"><ele>236.40000000000003</ele><time>2026-05-04T14:02:18.002Z</time></trkpt><trkpt lat="41.588132044779336" lon="0.724795411858237"><ele>236.6</ele><time>2026-05-04T14:02:19.002Z</time></trkpt><trkpt lat="41.5880724400985" lon="0.7249250271136702"><ele>236.8</ele><time>2026-05-04T14:02:20.002Z</time></trkpt><trkpt lat="41.58800869388703" lon="0.725056124135969"><ele>237.0</ele><time>2026-05-04T14:02:21.002Z</time></trkpt><trkpt lat="41.587946305139866" lon="0.7251880377762053"><ele>237.0</ele><time>2026-05-04T14:02:22.002Z</time></trkpt><trkpt lat="41.587888310790724" lon="0.7253183403001638"><ele>237.0</ele><time>2026-05-04T14:02:23.002Z</time></trkpt><trkpt lat="41.5878229083943" lon="0.7254464451428312"><ele>237.0</ele><time>2026-05-04T14:02:24.002Z</time></trkpt><trkpt lat="41.58776787825472" lon="0.7255762453549258"><ele>237.0</ele><time>2026-05-04T14:02:25.002Z</time></trkpt><trkpt lat="41.58770783959226" lon="0.7257064734627955"><ele>237.0</ele><time>2026-05-04T14:02:26.002Z</time></trkpt><trkpt lat="41.58765337538278" lon="0.7258366271131933"><ele>237.0</ele><time>2026-05-04T14:02:27.002Z</time></trkpt><trkpt lat="41.58759406842292" lon="0.7259679919263844"><ele>237.0</ele><time>2026-05-04T14:02:28.002Z</time></trkpt><trkpt lat="41.58753232173216" lon="0.7260965843822732"><ele>237.0</ele><time>2026-05-04T14:02:29.002Z</time></trkpt><trkpt lat="41.58747156995485" lon="0.7262262111494151"><ele>236.75</ele><time>2026-05-04T14:02:30.002Z</time></trkpt><trkpt lat="41.58741401847782" lon="0.7263585190474006"><ele>236.5</ele><time>2026-05-04T14:02:31.002Z</time></trkpt><trkpt lat="41.587352887437504" lon="0.7264892936457793"><ele>236.25</ele><time>2026-05-04T14:02:32.002Z</time></trkpt><trkpt lat="41.58729527328501" lon="0.7266225808051829"><ele>236.0</ele><time>2026-05-04T14:02:33.002Z</time></trkpt><trkpt lat="41.58724205127179" lon="0.726762578164183"><ele>236.0</ele><time>2026-05-04T14:02:34.002Z</time></trkpt><trkpt lat="41.58718038744357" lon="0.7268954658618969"><ele>236.0</ele><time>2026-05-04T14:02:35.002Z</time></trkpt><trkpt lat="41.58712093835013" lon="0.7270284380495513"><ele>236.0</ele><time>2026-05-04T14:02:36.002Z</time></trkpt><trkpt lat="41.58705814333129" lon="0.727161881373315"><ele>236.0</ele><time>2026-05-04T14:02:37.002Z</time></trkpt><trkpt lat="41.58699839085281" lon="0.7272995772382054"><ele>236.5</ele><time>2026-05-04T14:02:38.002Z</time></trkpt><trkpt lat="41.586935523895356" lon="0.7274307185682487"><ele>237.0</ele><time>2026-05-04T14:02:39.002Z</time></trkpt><trkpt lat="41.5868705023721" lon="0.7275667796765604"><ele>237.5</ele><time>2026-05-04T14:02:40.002Z</time></trkpt><trkpt lat="41.58680891102239" lon="0.7276967577270511"><ele>238.0</ele><time>2026-05-04T14:02:41.002Z</time></trkpt><trkpt lat="41.5867489202955" lon="0.727830511238672"><ele>238.0</ele><time>2026-05-04T14:02:42.002Z</time></trkpt><trkpt lat="41.58668873500692" lon="0.7279596794183509"><ele>238.0</ele><time>2026-05-04T14:02:43.002Z</time></trkpt><trkpt lat="41.58663109482485" lon="0.7280914078122667"><ele>238.0</ele><time>2026-05-04T14:02:44.002Z</time></trkpt><trkpt lat="41.586577032654006" lon="0.7282256751757609"><ele>238.0</ele><time>2026-05-04T14:02:45.002Z</time></trkpt><trkpt lat="41.586520170674795" lon="0.7283596132915485"><ele>238.0</ele><time>2026-05-04T14:02:46.002Z</time></trkpt><trkpt lat="41.586468408216426" lon="0.7284969392666861"><ele>238.0</ele><time>2026-05-04T14:02:47.002Z</time></trkpt><trkpt lat="41.58641492559162" lon="0.728629193067659"><ele>238.0</ele><time>2026-05-04T14:02:48.002Z</time></trkpt><trkpt lat="41.586352460177366" lon="0.7287737390221019"><ele>238.0</ele><time>2026-05-04T14:02:49.002Z</time></trkpt><trkpt lat="41.58631510307266" lon="0.728908963577161"><ele>238.25</ele><time>2026-05-04T14:02:50.002Z</time></trkpt><trkpt lat="41.58626792523372" lon="0.7290454132364392"><ele>238.5</ele><time>2026-05-04T14:02:51.002Z</time></trkpt><trkpt lat="41.58621032559562" lon="0.7291802674305898"><ele>238.75</ele><time>2026-05-04T14:02:52.002Z</time></trkpt><trkpt lat="41.58615611882903" lon="0.7293197298854482"><ele>239.0</ele><time>2026-05-04T14:02:53.002Z</time></trkpt><trkpt lat="41.5861045087765" lon="0.7294591444111628"><ele>239.0</ele><time>2026-05-04T14:02:54.002Z</time></trkpt><trkpt lat="41.58605701980146" lon="0.7296030809959476"><ele>239.0</ele><time>2026-05-04T14:02:55.002Z</time></trkpt><trkpt lat="41.58600611720051" lon="0.7297451098504903"><ele>239.0</ele><time>2026-05-04T14:02:56.002Z</time></trkpt><trkpt lat="41.58596100915971" lon="0.7298868197620448"><ele>239.0</ele><time>2026-05-04T14:02:57.002Z</time></trkpt><trkpt lat="41.585906444058985" lon="0.7300258232127755"><ele>239.0</ele><time>2026-05-04T14:02:58.002Z</time></trkpt><trkpt lat="41.58585478231942" lon="0.7301649253655454"><ele>239.0</ele><time>2026-05-04T14:02:59.002Z</time></trkpt><trkpt lat="41.58579777002466" lon="0.7302992618120541"><ele>239.0</ele><time>2026-05-04T14:03:00.003Z</time></trkpt><trkpt lat="41.58574945021902" lon="0.7304444393967695"><ele>239.0</ele><time>2026-05-04T14:03:01.003Z</time></trkpt><trkpt lat="41.58570518952266" lon="0.7305840411045142"><ele>239.0</ele><time>2026-05-04T14:03:02.003Z</time></trkpt><trkpt lat="41.58565834521928" lon="0.7307305849384558"><ele>239.0</ele><time>2026-05-04T14:03:03.003Z</time></trkpt><trkpt lat="41.585610243560524" lon="0.7308713135968176"><ele>239.0</ele><time>2026-05-04T14:03:04.003Z</time></trkpt><trkpt lat="41.58555887269688" lon="0.7310102081777345"><ele>239.0</ele><time>2026-05-04T14:03:05.003Z</time></trkpt><trkpt lat="41.58551700764336" lon="0.7311513101564497"><ele>239.0</ele><time>2026-05-04T14:03:06.003Z</time></trkpt><trkpt lat="41.58547326530933" lon="0.7312933803184021"><ele>239.0</ele><time>2026-05-04T14:03:07.003Z</time></trkpt><trkpt lat="41.58543085316106" lon="0.7314371704406234"><ele>239.0</ele><time>2026-05-04T14:03:08.003Z</time></trkpt><trkpt lat="41.58538626881587" lon="0.7315747049594569"><ele>239.0</ele><time>2026-05-04T14:03:09.003Z</time></trkpt><trkpt lat="41.5853405835692" lon="0.7317157260609363"><ele>239.25</ele><time>2026-05-04T14:03:10.003Z</time></trkpt><trkpt lat="41.58529703485857" lon="0.7318573179005673"><ele>239.5</ele><time>2026-05-04T14:03:11.003Z</time></trkpt><trkpt lat="41.585251760701375" lon="0.7319970722528015"><ele>239.75</ele><time>2026-05-04T14:03:12.003Z</time></trkpt><trkpt lat="41.58520397294044" lon="0.7321335816332386"><ele>240.0</ele><time>2026-05-04T14:03:13.001Z</time></trkpt><trkpt lat="41.58515763956344" lon="0.7322743475114903"><ele>240.0</ele><time>2026-05-04T14:03:14Z</time></trkpt><trkpt lat="41.585112172857755" lon="0.7324149655010165"><ele>240.0</ele><time>2026-05-04T14:03:15.001Z</time></trkpt><trkpt lat="41.58506661746241" lon="0.7325547287694046"><ele>240.0</ele><time>2026-05-04T14:03:16Z</time></trkpt><trkpt lat="41.58501705080991" lon="0.7326947846178264"><ele>240.0</ele><time>2026-05-04T14:03:17Z</time></trkpt><trkpt lat="41.584969503904354" lon="0.7328347636862658"><ele>240.25</ele><time>2026-05-04T14:03:18Z</time></trkpt><trkpt lat="41.58492023656718" lon="0.732973619458339"><ele>240.5</ele><time>2026-05-04T14:03:19Z</time></trkpt><trkpt lat="41.584873795718465" lon="0.733112220348407"><ele>240.75</ele><time>2026-05-04T14:03:20Z</time></trkpt><trkpt lat="41.58482849221182" lon="0.7332533251420971"><ele>241.0</ele><time>2026-05-04T14:03:21Z</time></trkpt><trkpt lat="41.58478020737876" lon="0.7333932706496908"><ele>241.0</ele><time>2026-05-04T14:03:22Z</time></trkpt><trkpt lat="41.58473913055635" lon="0.7335398673547393"><ele>241.0</ele><time>2026-05-04T14:03:23Z</time></trkpt><trkpt lat="41.58469399419135" lon="0.7336809946457422"><ele>241.0</ele><time>2026-05-04T14:03:24Z</time></trkpt><trkpt lat="41.5846485444195" lon="0.7338214748820611"><ele>241.0</ele><time>2026-05-04T14:03:25Z</time></trkpt><trkpt lat="41.58460236039759" lon="0.733961338366333"><ele>241.0</ele><time>2026-05-04T14:03:26Z</time></trkpt><trkpt lat="41.584549939437544" lon="0.7340959927173119"><ele>241.0</ele><time>2026-05-04T14:03:27Z</time></trkpt><trkpt lat="41.58450527717679" lon="0.7342347994360248"><ele>241.0</ele><time>2026-05-04T14:03:28Z</time></trkpt><trkpt lat="41.584457762122334" lon="0.7343742848339964"><ele>241.0</ele><time>2026-05-04T14:03:29Z</time></trkpt><trkpt lat="41.58441294820606" lon="0.7345154512645894"><ele>241.25</ele><time>2026-05-04T14:03:30Z</time></trkpt><trkpt lat="41.58436616490122" lon="0.7346571147763216"><ele>241.5</ele><time>2026-05-04T14:03:31Z</time></trkpt><trkpt lat="41.58432011133855" lon="0.7347983754421422"><ele>241.75</ele><time>2026-05-04T14:03:32Z</time></trkpt><trkpt lat="41.58427297341265" lon="0.7349398226599807"><ele>242.0</ele><time>2026-05-04T14:03:33Z</time></trkpt><trkpt lat="41.584226505421114" lon="0.7350790458295299"><ele>242.0</ele><time>2026-05-04T14:03:34Z</time></trkpt><trkpt lat="41.584178929585725" lon="0.7352142206399516"><ele>242.0</ele><time>2026-05-04T14:03:35Z</time></trkpt><trkpt lat="41.584129368348634" lon="0.7353494752704312"><ele>242.0</ele><time>2026-05-04T14:03:36Z</time></trkpt><trkpt lat="41.58407728960931" lon="0.7354892685096953"><ele>242.0</ele><time>2026-05-04T14:03:37.001Z</time></trkpt><trkpt lat="41.58403167209748" lon="0.7356346823911084"><ele>242.0</ele><time>2026-05-04T14:03:38.001Z</time></trkpt><trkpt lat="41.58398425491649" lon="0.7357820862547036"><ele>242.0</ele><time>2026-05-04T14:03:39.001Z</time></trkpt><trkpt lat="41.58393871336902" lon="0.7359282427095516"><ele>242.0</ele><time>2026-05-04T14:03:40.001Z</time></trkpt><trkpt lat="41.58389252539387" lon="0.7360701501354138"><ele>242.0</ele><time>2026-05-04T14:03:41.001Z</time></trkpt><trkpt lat="41.58384338260358" lon="0.7362107853762774"><ele>242.0</ele><time>2026-05-04T14:03:42.001Z</time></trkpt><trkpt lat="41.583797386886324" lon="0.7363541290226481"><ele>242.0</ele><time>2026-05-04T14:03:43.001Z</time></trkpt><trkpt lat="41.583752792081484" lon="0.7364974243333177"><ele>242.0</ele><time>2026-05-04T14:03:44.001Z</time></trkpt><trkpt lat="41.58370352744104" lon="0.7366369361176036"><ele>242.0</ele><time>2026-05-04T14:03:45.001Z</time></trkpt><trkpt lat="41.5836557017283" lon="0.7367774562348286"><ele>242.0</ele><time>2026-05-04T14:03:46.001Z</time></trkpt><trkpt lat="41.58360765943294" lon="0.7369151556724799"><ele>242.0</ele><time>2026-05-04T14:03:47.001Z</time></trkpt><trkpt lat="41.58356030300272" lon="0.7370570158865879"><ele>242.0</ele><time>2026-05-04T14:03:48.001Z</time></trkpt><trkpt lat="41.58351285371054" lon="0.7371972425190609"><ele>242.0</ele><time>2026-05-04T14:03:49.001Z</time></trkpt><trkpt lat="41.5834657773513" lon="0.7373394913431581"><ele>242.0</ele><time>2026-05-04T14:03:50.001Z</time></trkpt><trkpt lat="41.58342047721698" lon="0.737482929794904"><ele>242.0</ele><time>2026-05-04T14:03:51.001Z</time></trkpt><trkpt lat="41.58337597865233" lon="0.7376251883319972"><ele>242.0</ele><time>2026-05-04T14:03:52.001Z</time></trkpt><trkpt lat="41.58332980979447" lon="0.7377666949880403"><ele>242.0</ele><time>2026-05-04T14:03:53.001Z</time></trkpt><trkpt lat="41.58328023801146" lon="0.7379092393975502"><ele>242.25</ele><time>2026-05-04T14:03:54.001Z</time></trkpt><trkpt lat="41.58323465221847" lon="0.7380519501524265"><ele>242.5</ele><time>2026-05-04T14:03:55.001Z</time></trkpt><trkpt lat="41.583188408035575" lon="0.7381907892548226"><ele>242.75</ele><time>2026-05-04T14:03:56.001Z</time></trkpt><trkpt lat="41.58314109742494" lon="0.738329678406226"><ele>243.0</ele><time>2026-05-04T14:03:57.001Z</time></trkpt><trkpt lat="41.58309247926841" lon="0.7384704107019631"><ele>243.25</ele><time>2026-05-04T14:03:58.001Z</time></trkpt><trkpt lat="41.58304597536665" lon="0.7386119416678052"><ele>243.5</ele><time>2026-05-04T14:03:59.001Z</time></trkpt><trkpt lat="41.583000309140466" lon="0.7387538126409984"><ele>243.75</ele><time>2026-05-04T14:04:00.001Z</time></trkpt><trkpt lat="41.582955530236994" lon="0.7388940703899693"><ele>244.0</ele><time>2026-05-04T14:04:01.001Z</time></trkpt><trkpt lat="41.582908127835246" lon="0.7390363353867646"><ele>244.0</ele><time>2026-05-04T14:04:02.001Z</time></trkpt><trkpt lat="41.582861854877144" lon="0.7391726886648053"><ele>243.99999999999997</ele><time>2026-05-04T14:04:03.001Z</time></trkpt><trkpt lat="41.58281643224593" lon="0.7393113919960885"><ele>243.99999999999997</ele><time>2026-05-04T14:04:04.001Z</time></trkpt><trkpt lat="41.58276888834567" lon="0.7394423969337256"><ele>244.0</ele><time>2026-05-04T14:04:05.001Z</time></trkpt><trkpt lat="41.58270798533474" lon="0.7395533868523706"><ele>244.0</ele><time>2026-05-04T14:04:06.001Z</time></trkpt><trkpt lat="41.582593954385175" lon="0.7396740972184421"><ele>244.0</ele><time>2026-05-04T14:04:07.001Z</time></trkpt><trkpt lat="41.58254348997282" lon="0.7398473386585988"><ele>244.0</ele><time>2026-05-04T14:04:08.001Z</time></trkpt><trkpt lat="41.582487881715764" lon="0.7400133165942865"><ele>244.0</ele><time>2026-05-04T14:04:09.001Z</time></trkpt><trkpt lat="41.58253649480346" lon="0.7401437519210426"><ele>244.0</ele><time>2026-05-04T14:04:10.001Z</time></trkpt><trkpt lat="41.582490296732495" lon="0.7402806670633859"><ele>244.0</ele><time>2026-05-04T14:04:11.001Z</time></trkpt><trkpt lat="41.58244185504755" lon="0.7404198462452984"><ele>244.0</ele><time>2026-05-04T14:04:12.001Z</time></trkpt><trkpt lat="41.58239667425061" lon="0.7405599635525968"><ele>244.0</ele><time>2026-05-04T14:04:13.001Z</time></trkpt><trkpt lat="41.58234794937907" lon="0.7407002131651041"><ele>244.0</ele><time>2026-05-04T14:04:14.001Z</time></trkpt><trkpt lat="41.58230087175251" lon="0.740837489503977"><ele>244.0</ele><time>2026-05-04T14:04:15.001Z</time></trkpt><trkpt lat="41.58225497701065" lon="0.7409745780585317"><ele>244.0</ele><time>2026-05-04T14:04:16.001Z</time></trkpt><trkpt lat="41.582211152592464" lon="0.7411163663971693"><ele>244.0</ele><time>2026-05-04T14:04:17.001Z</time></trkpt><trkpt lat="41.58216659774949" lon="0.7412570451678883"><ele>244.0</ele><time>2026-05-04T14:04:18.001Z</time></trkpt><trkpt lat="41.58211800728377" lon="0.741399377108114"><ele>243.75</ele><time>2026-05-04T14:04:19.001Z</time></trkpt><trkpt lat="41.58206783994303" lon="0.74153735493714"><ele>243.5</ele><time>2026-05-04T14:04:20.001Z</time></trkpt><trkpt lat="41.5820223915446" lon="0.741680579725953"><ele>243.25</ele><time>2026-05-04T14:04:21.001Z</time></trkpt><trkpt lat="41.58197103411682" lon="0.7418242841017326"><ele>243.0</ele><time>2026-05-04T14:04:22.001Z</time></trkpt><trkpt lat="41.58192538832347" lon="0.7419675455786524"><ele>243.5</ele><time>2026-05-04T14:04:23.001Z</time></trkpt><trkpt lat="41.58188884320676" lon="0.7420826603630256"><ele>244.0</ele><time>2026-05-04T14:04:24.001Z</time></trkpt><trkpt lat="41.581832862565406" lon="0.7422398321713037"><ele>244.5</ele><time>2026-05-04T14:04:25.001Z</time></trkpt><trkpt lat="41.58178405166214" lon="0.7423857653772625"><ele>245.0</ele><time>2026-05-04T14:04:26.001Z</time></trkpt><trkpt lat="41.58173637209417" lon="0.7425371450523018"><ele>245.0</ele><time>2026-05-04T14:04:27.001Z</time></trkpt><trkpt lat="41.58168648007523" lon="0.7426828060514945"><ele>245.0</ele><time>2026-05-04T14:04:28.001Z</time></trkpt><trkpt lat="41.581635787766366" lon="0.7428257167240235"><ele>245.0</ele><time>2026-05-04T14:04:29.001Z</time></trkpt><trkpt lat="41.5815858187448" lon="0.7429692815025924"><ele>245.0</ele><time>2026-05-04T14:04:30.002Z</time></trkpt><trkpt lat="41.58153966871712" lon="0.7431156377247069"><ele>245.0</ele><time>2026-05-04T14:04:31.002Z</time></trkpt><trkpt lat="41.5814890019822" lon="0.7432587866365452"><ele>245.0</ele><time>2026-05-04T14:04:32.002Z</time></trkpt><trkpt lat="41.58142127687634" lon="0.7434208704620665"><ele>245.0</ele><time>2026-05-04T14:04:33.002Z</time></trkpt><trkpt lat="41.5813835363354" lon="0.7435475592562125"><ele>245.0</ele><time>2026-05-04T14:04:34.002Z</time></trkpt><trkpt lat="41.581343738559134" lon="0.7436901307636014"><ele>245.0</ele><time>2026-05-04T14:04:35.002Z</time></trkpt><trkpt lat="41.58129486884846" lon="0.7438331960408401"><ele>245.0</ele><time>2026-05-04T14:04:36.002Z</time></trkpt><trkpt lat="41.58124777077911" lon="0.7439750880559786"><ele>245.0</ele><time>2026-05-04T14:04:37.002Z</time></trkpt><trkpt lat="41.58119933574254" lon="0.7441167497648489"><ele>245.0</ele><time>2026-05-04T14:04:38.002Z</time></trkpt><trkpt lat="41.58115614211195" lon="0.7442585940861135"><ele>245.25</ele><time>2026-05-04T14:04:39.002Z</time></trkpt><trkpt lat="41.58110725521988" lon="0.7444007483569175"><ele>245.5</ele><time>2026-05-04T14:04:40.002Z</time></trkpt><trkpt lat="41.58105898695443" lon="0.7445386887522928"><ele>245.75</ele><time>2026-05-04T14:04:41.002Z</time></trkpt><trkpt lat="41.581010907833544" lon="0.7446708191245344"><ele>246.0</ele><time>2026-05-04T14:04:42.002Z</time></trkpt><trkpt lat="41.580959406125515" lon="0.744814296414025"><ele>246.0</ele><time>2026-05-04T14:04:43.002Z</time></trkpt><trkpt lat="41.58091726122329" lon="0.7449573432571702"><ele>246.0</ele><time>2026-05-04T14:04:44.002Z</time></trkpt><trkpt lat="41.58086801637077" lon="0.745096591290876"><ele>246.0</ele><time>2026-05-04T14:04:45.002Z</time></trkpt><trkpt lat="41.580820315600405" lon="0.7452373540244585"><ele>246.0</ele><time>2026-05-04T14:04:46.002Z</time></trkpt><trkpt lat="41.58077388166019" lon="0.7453775749105063"><ele>246.0</ele><time>2026-05-04T14:04:47.002Z</time></trkpt><trkpt lat="41.58072730916922" lon="0.7455220059518112"><ele>246.0</ele><time>2026-05-04T14:04:48.002Z</time></trkpt><trkpt lat="41.5806818246256" lon="0.7456665992870078"><ele>246.0</ele><time>2026-05-04T14:04:49.002Z</time></trkpt><trkpt lat="41.58063504445464" lon="0.7458113603471078"><ele>246.0</ele><time>2026-05-04T14:04:50.002Z</time></trkpt><trkpt lat="41.580584113130314" lon="0.7459538342661776"><ele>246.0</ele><time>2026-05-04T14:04:51.002Z</time></trkpt><trkpt lat="41.5805330514107" lon="0.7460958712518004"><ele>246.0</ele><time>2026-05-04T14:04:52.002Z</time></trkpt><trkpt lat="41.580483571305976" lon="0.7462382859509626"><ele>246.0</ele><time>2026-05-04T14:04:53.002Z</time></trkpt><trkpt lat="41.58043575880099" lon="0.7463814195306657"><ele>246.0</ele><time>2026-05-04T14:04:54.002Z</time></trkpt><trkpt lat="41.580389551645574" lon="0.7465286899274921"><ele>246.25</ele><time>2026-05-04T14:04:55.002Z</time></trkpt><trkpt lat="41.58033971494691" lon="0.746673203088741"><ele>246.5</ele><time>2026-05-04T14:04:56.002Z</time></trkpt><trkpt lat="41.58029276190001" lon="0.7468212557446186"><ele>246.75</ele><time>2026-05-04T14:04:57.002Z</time></trkpt><trkpt lat="41.58024532179473" lon="0.746962583774034"><ele>247.0</ele><time>2026-05-04T14:04:58.002Z</time></trkpt><trkpt lat="41.58019990478886" lon="0.7471077652824599"><ele>247.25</ele><time>2026-05-04T14:04:59.002Z</time></trkpt><trkpt lat="41.58015085899678" lon="0.7472531399220825"><ele>247.5</ele><time>2026-05-04T14:05:00.002Z</time></trkpt><trkpt lat="41.580101643754524" lon="0.7473933768653654"><ele>247.75</ele><time>2026-05-04T14:05:01.002Z</time></trkpt><trkpt lat="41.58005501213443" lon="0.7475433249457358"><ele>248.0</ele><time>2026-05-04T14:05:02.002Z</time></trkpt><trkpt lat="41.58000477819054" lon="0.7476806770059533"><ele>248.25</ele><time>2026-05-04T14:05:03.002Z</time></trkpt><trkpt lat="41.579937231574654" lon="0.7478295390823976"><ele>248.5</ele><time>2026-05-04T14:05:04.002Z</time></trkpt><trkpt lat="41.57990811482302" lon="0.7479707719684456"><ele>248.75</ele><time>2026-05-04T14:05:05.002Z</time></trkpt><trkpt lat="41.57985652851089" lon="0.7481113689828182"><ele>249.0</ele><time>2026-05-04T14:05:06.002Z</time></trkpt><trkpt lat="41.579808434911904" lon="0.7482553560455661"><ele>249.0</ele><time>2026-05-04T14:05:07.002Z</time></trkpt><trkpt lat="41.579758575161186" lon="0.7484022462371559"><ele>249.0</ele><time>2026-05-04T14:05:08.002Z</time></trkpt><trkpt lat="41.57971369969524" lon="0.7485499061689735"><ele>249.0</ele><time>2026-05-04T14:05:09.002Z</time></trkpt><trkpt lat="41.57966779698689" lon="0.7486932647212144"><ele>249.0</ele><time>2026-05-04T14:05:10.002Z</time></trkpt><trkpt lat="41.579622665025056" lon="0.7488378573053724"><ele>248.75</ele><time>2026-05-04T14:05:11.002Z</time></trkpt><trkpt lat="41.579581745871394" lon="0.7489917140448807"><ele>248.5</ele><time>2026-05-04T14:05:12.002Z</time></trkpt><trkpt lat="41.57952977704082" lon="0.7491272728977469"><ele>248.25</ele><time>2026-05-04T14:05:13.002Z</time></trkpt><trkpt lat="41.57948082194607" lon="0.7492622441260944"><ele>248.0</ele><time>2026-05-04T14:05:14.002Z</time></trkpt><trkpt lat="41.57943200467382" lon="0.7494101223566126"><ele>248.5</ele><time>2026-05-04T14:05:15.002Z</time></trkpt><trkpt lat="41.57938550241657" lon="0.7495577578701428"><ele>249.0</ele><time>2026-05-04T14:05:16.002Z</time></trkpt><trkpt lat="41.57933790191859" lon="0.7497020403817767"><ele>249.5</ele><time>2026-05-04T14:05:17.002Z</time></trkpt><trkpt lat="41.57929270185681" lon="0.7498450071259777"><ele>250.0</ele><time>2026-05-04T14:05:18.002Z</time></trkpt><trkpt lat="41.57924903765423" lon="0.7499871556914376"><ele>250.0</ele><time>2026-05-04T14:05:19Z</time></trkpt><trkpt lat="41.57920044569316" lon="0.750127507059883"><ele>250.0</ele><time>2026-05-04T14:05:20Z</time></trkpt><trkpt lat="41.57915180237325" lon="0.7502680051348308"><ele>250.0</ele><time>2026-05-04T14:05:21Z</time></trkpt><trkpt lat="41.57910331079489" lon="0.7504090488126642"><ele>250.0</ele><time>2026-05-04T14:05:22Z</time></trkpt><trkpt lat="41.57905438915016" lon="0.7505502020668792"><ele>249.75</ele><time>2026-05-04T14:05:23Z</time></trkpt><trkpt lat="41.57900704690051" lon="0.7506878812825845"><ele>249.5</ele><time>2026-05-04T14:05:24Z</time></trkpt><trkpt lat="41.578961433095415" lon="0.7508324736883377"><ele>249.25</ele><time>2026-05-04T14:05:25Z</time></trkpt><trkpt lat="41.578915243128506" lon="0.7509735197509385"><ele>249.0</ele><time>2026-05-04T14:05:26Z</time></trkpt><trkpt lat="41.57886886784056" lon="0.7511163760662521"><ele>249.0</ele><time>2026-05-04T14:05:27Z</time></trkpt><trkpt lat="41.57882080330038" lon="0.7512577970231048"><ele>249.0</ele><time>2026-05-04T14:05:28Z</time></trkpt><trkpt lat="41.578776714563425" lon="0.7513992383885687"><ele>249.0</ele><time>2026-05-04T14:05:29Z</time></trkpt><trkpt lat="41.5787317497236" lon="0.7515407686559363"><ele>249.0</ele><time>2026-05-04T14:05:30Z</time></trkpt><trkpt lat="41.57868126173368" lon="0.7516789539801985"><ele>248.75</ele><time>2026-05-04T14:05:31Z</time></trkpt><trkpt lat="41.57863362084578" lon="0.7518191009256192"><ele>248.5</ele><time>2026-05-04T14:05:32Z</time></trkpt><trkpt lat="41.57858798824024" lon="0.7519600953828591"><ele>248.25</ele><time>2026-05-04T14:05:33Z</time></trkpt><trkpt lat="41.57854018069829" lon="0.7521009867790411"><ele>248.0</ele><time>2026-05-04T14:05:34Z</time></trkpt><trkpt lat="41.578494406956565" lon="0.7522453459123173"><ele>248.0</ele><time>2026-05-04T14:05:35Z</time></trkpt><trkpt lat="41.57844607132829" lon="0.752387132404943"><ele>248.0</ele><time>2026-05-04T14:05:36Z</time></trkpt><trkpt lat="41.57839806418244" lon="0.7525285968186377"><ele>248.0</ele><time>2026-05-04T14:05:37Z</time></trkpt><trkpt lat="41.578350513724295" lon="0.7526716937745056"><ele>248.0</ele><time>2026-05-04T14:05:38Z</time></trkpt><trkpt lat="41.57830225538696" lon="0.752814737382689"><ele>248.75</ele><time>2026-05-04T14:05:39Z</time></trkpt><trkpt lat="41.57825638279569" lon="0.7529598221020924"><ele>249.5</ele><time>2026-05-04T14:05:40Z</time></trkpt><trkpt lat="41.57820915780777" lon="0.7531039598706879"><ele>250.25</ele><time>2026-05-04T14:05:41Z</time></trkpt><trkpt lat="41.578160418795704" lon="0.7532490474785991"><ele>251.0</ele><time>2026-05-04T14:05:42Z</time></trkpt><trkpt lat="41.57811292706374" lon="0.7533893889088675"><ele>251.0</ele><time>2026-05-04T14:05:43Z</time></trkpt><trkpt lat="41.57806466724908" lon="0.7535310721168711"><ele>251.0</ele><time>2026-05-04T14:05:44Z</time></trkpt><trkpt lat="41.57801880796327" lon="0.75367809369475"><ele>251.0</ele><time>2026-05-04T14:05:45Z</time></trkpt><trkpt lat="41.57797080706425" lon="0.7538198519061456"><ele>251.0</ele><time>2026-05-04T14:05:46Z</time></trkpt><trkpt lat="41.57792295908937" lon="0.7539617231034582"><ele>251.0</ele><time>2026-05-04T14:05:47Z</time></trkpt><trkpt lat="41.57787590575485" lon="0.7541049266765356"><ele>251.0</ele><time>2026-05-04T14:05:48Z</time></trkpt><trkpt lat="41.57782816000911" lon="0.7542452681089581"><ele>251.0</ele><time>2026-05-04T14:05:49Z</time></trkpt><trkpt lat="41.57778036430502" lon="0.7543892255183761"><ele>251.0</ele><time>2026-05-04T14:05:50Z</time></trkpt><trkpt lat="41.57773407031301" lon="0.7545283778410329"><ele>251.25</ele><time>2026-05-04T14:05:51Z</time></trkpt><trkpt lat="41.5776851898907" lon="0.7546692349524282"><ele>251.5</ele><time>2026-05-04T14:05:52Z</time></trkpt><trkpt lat="41.577637645190926" lon="0.754811683079721"><ele>251.75</ele><time>2026-05-04T14:05:53Z</time></trkpt><trkpt lat="41.577592179975866" lon="0.7549576365456344"><ele>252.0</ele><time>2026-05-04T14:05:54Z</time></trkpt><trkpt lat="41.57754504644738" lon="0.7550958903933467"><ele>252.5</ele><time>2026-05-04T14:05:55Z</time></trkpt><trkpt lat="41.57749742364985" lon="0.7552416178827153"><ele>253.0</ele><time>2026-05-04T14:05:56Z</time></trkpt><trkpt lat="41.577445590685706" lon="0.7553804119970068"><ele>253.5</ele><time>2026-05-04T14:05:57Z</time></trkpt><trkpt lat="41.57739527307877" lon="0.7555188144113827"><ele>254.0</ele><time>2026-05-04T14:05:58Z</time></trkpt><trkpt lat="41.57734452866716" lon="0.7556599027352829"><ele>254.0</ele><time>2026-05-04T14:05:59.001Z</time></trkpt><trkpt lat="41.577295935635746" lon="0.7558038635160407"><ele>254.0</ele><time>2026-05-04T14:06:00.001Z</time></trkpt><trkpt lat="41.57724962004126" lon="0.7559471359479223"><ele>254.0</ele><time>2026-05-04T14:06:01.001Z</time></trkpt><trkpt lat="41.57720303104934" lon="0.7560886628512984"><ele>254.0</ele><time>2026-05-04T14:06:02.001Z</time></trkpt><trkpt lat="41.57715579466163" lon="0.7562307363501783"><ele>254.5</ele><time>2026-05-04T14:06:03.001Z</time></trkpt><trkpt lat="41.5771123327084" lon="0.756375213396086"><ele>255.0</ele><time>2026-05-04T14:06:04.001Z</time></trkpt><trkpt lat="41.57706236489955" lon="0.7565146563196363"><ele>255.5</ele><time>2026-05-04T14:06:05.001Z</time></trkpt><trkpt lat="41.57701523798661" lon="0.7566577623062579"><ele>256.0</ele><time>2026-05-04T14:06:06.001Z</time></trkpt><trkpt lat="41.57696953824314" lon="0.7567991264311211"><ele>254.75</ele><time>2026-05-04T14:06:07.001Z</time></trkpt><trkpt lat="41.576922057088055" lon="0.7569415642454667"><ele>253.5</ele><time>2026-05-04T14:06:08.001Z</time></trkpt><trkpt lat="41.57687479136782" lon="0.7570784871255487"><ele>252.25</ele><time>2026-05-04T14:06:09.001Z</time></trkpt><trkpt lat="41.57682983998568" lon="0.7572249267845551"><ele>251.0</ele><time>2026-05-04T14:06:10.001Z</time></trkpt><trkpt lat="41.57678626646935" lon="0.7573658870373697"><ele>251.0</ele><time>2026-05-04T14:06:11.001Z</time></trkpt><trkpt lat="41.57674040007561" lon="0.7575084528462133"><ele>251.0</ele><time>2026-05-04T14:06:12.001Z</time></trkpt><trkpt lat="41.576693299722905" lon="0.7576510797749483"><ele>251.0</ele><time>2026-05-04T14:06:13.001Z</time></trkpt><trkpt lat="41.57664491033048" lon="0.7577942177747385"><ele>251.0</ele><time>2026-05-04T14:06:14.001Z</time></trkpt><trkpt lat="41.5765973482849" lon="0.7579365075854775"><ele>251.5</ele><time>2026-05-04T14:06:15.001Z</time></trkpt><trkpt lat="41.576549066799316" lon="0.7580793331529105"><ele>252.0</ele><time>2026-05-04T14:06:16.001Z</time></trkpt><trkpt lat="41.57650145446266" lon="0.7582249472786989"><ele>252.5</ele><time>2026-05-04T14:06:17.001Z</time></trkpt><trkpt lat="41.57645268150249" lon="0.7583677056253317"><ele>253.0</ele><time>2026-05-04T14:06:18.001Z</time></trkpt><trkpt lat="41.57640288988125" lon="0.7585140285463503"><ele>253.0</ele><time>2026-05-04T14:06:19.001Z</time></trkpt><trkpt lat="41.57635525811387" lon="0.7586567150926886"><ele>253.0</ele><time>2026-05-04T14:06:20.001Z</time></trkpt><trkpt lat="41.57630834015922" lon="0.7587977456625175"><ele>253.0</ele><time>2026-05-04T14:06:21.001Z</time></trkpt><trkpt lat="41.576258399620016" lon="0.7589396577495281"><ele>253.0</ele><time>2026-05-04T14:06:22.001Z</time></trkpt><trkpt lat="41.5762103056099" lon="0.759090746838932"><ele>253.0</ele><time>2026-05-04T14:06:23.001Z</time></trkpt><trkpt lat="41.57616324888137" lon="0.7592341433019775"><ele>253.0</ele><time>2026-05-04T14:06:24.001Z</time></trkpt><trkpt lat="41.576115448879534" lon="0.7593745454049818"><ele>253.0</ele><time>2026-05-04T14:06:25.001Z</time></trkpt><trkpt lat="41.576067951394656" lon="0.7595168448972829"><ele>253.0</ele><time>2026-05-04T14:06:26.001Z</time></trkpt><trkpt lat="41.57602048525096" lon="0.7596624087084445"><ele>253.0</ele><time>2026-05-04T14:06:27.001Z</time></trkpt><trkpt lat="41.57597496843159" lon="0.7598039508236721"><ele>253.0</ele><time>2026-05-04T14:06:28.001Z</time></trkpt><trkpt lat="41.57592840779324" lon="0.7599492361796719"><ele>253.0</ele><time>2026-05-04T14:06:29.001Z</time></trkpt><trkpt lat="41.57587993158033" lon="0.7600872970435919"><ele>253.0</ele><time>2026-05-04T14:06:30.001Z</time></trkpt><trkpt lat="41.57583118227314" lon="0.7602279634382774"><ele>253.25</ele><time>2026-05-04T14:06:31.001Z</time></trkpt><trkpt lat="41.575785112027695" lon="0.7603704319583614"><ele>253.5</ele><time>2026-05-04T14:06:32.001Z</time></trkpt><trkpt lat="41.57573659330672" lon="0.7605109200534353"><ele>253.75</ele><time>2026-05-04T14:06:33.001Z</time></trkpt><trkpt lat="41.575688225745154" lon="0.7606518487833914"><ele>254.0</ele><time>2026-05-04T14:06:34.001Z</time></trkpt><trkpt lat="41.57564178924676" lon="0.7607905527460334"><ele>254.0</ele><time>2026-05-04T14:06:35.001Z</time></trkpt><trkpt lat="41.57559546768817" lon="0.7609336077177793"><ele>254.0</ele><time>2026-05-04T14:06:36.001Z</time></trkpt><trkpt lat="41.57554675829958" lon="0.7610708018423722"><ele>254.0</ele><time>2026-05-04T14:06:37.001Z</time></trkpt><trkpt lat="41.575509948815785" lon="0.7612187789427006"><ele>254.0</ele><time>2026-05-04T14:06:38.001Z</time></trkpt><trkpt lat="41.575455361857436" lon="0.7613529822176062"><ele>254.0</ele><time>2026-05-04T14:06:39.001Z</time></trkpt><trkpt lat="41.57540754821907" lon="0.7614943887230178"><ele>254.0</ele><time>2026-05-04T14:06:40.001Z</time></trkpt><trkpt lat="41.57536142898854" lon="0.7616322912974421"><ele>254.0</ele><time>2026-05-04T14:06:41.001Z</time></trkpt><trkpt lat="41.57531375396266" lon="0.7617728997781825"><ele>254.0</ele><time>2026-05-04T14:06:42.001Z</time></trkpt><trkpt lat="41.57526720732575" lon="0.7619109730273749"><ele>254.0</ele><time>2026-05-04T14:06:43.001Z</time></trkpt><trkpt lat="41.575221580198054" lon="0.7620525899294818"><ele>254.0</ele><time>2026-05-04T14:06:44.001Z</time></trkpt><trkpt lat="41.5751742592597" lon="0.7621912765482695"><ele>254.0</ele><time>2026-05-04T14:06:45.001Z</time></trkpt><trkpt lat="41.575133107208735" lon="0.7623334219642102"><ele>254.0</ele><time>2026-05-04T14:06:46.001Z</time></trkpt><trkpt lat="41.575086882646566" lon="0.7624705291590518"><ele>254.0</ele><time>2026-05-04T14:06:47.001Z</time></trkpt><trkpt lat="41.57504203366397" lon="0.7626116974499721"><ele>254.0</ele><time>2026-05-04T14:06:48.002Z</time></trkpt><trkpt lat="41.57499803550367" lon="0.7627524151725005"><ele>254.0</ele><time>2026-05-04T14:06:49.002Z</time></trkpt><trkpt lat="41.57495174636407" lon="0.762889945907337"><ele>254.0</ele><time>2026-05-04T14:06:50.002Z</time></trkpt><trkpt lat="41.574902864923416" lon="0.7630293229187728"><ele>254.0</ele><time>2026-05-04T14:06:51.002Z</time></trkpt><trkpt lat="41.57485786934384" lon="0.7631691128390647"><ele>254.0</ele><time>2026-05-04T14:06:52.002Z</time></trkpt><trkpt lat="41.57481267586142" lon="0.7633093670893997"><ele>254.0</ele><time>2026-05-04T14:06:53.002Z</time></trkpt><trkpt lat="41.57476488468659" lon="0.7634479460839801"><ele>254.0</ele><time>2026-05-04T14:06:54.002Z</time></trkpt><trkpt lat="41.57471558209398" lon="0.7635859521712715"><ele>254.25</ele><time>2026-05-04T14:06:55.002Z</time></trkpt><trkpt lat="41.57466790202844" lon="0.7637269422535421"><ele>254.5</ele><time>2026-05-04T14:06:56.002Z</time></trkpt><trkpt lat="41.574620591797455" lon="0.7638669610522546"><ele>254.75</ele><time>2026-05-04T14:06:57.002Z</time></trkpt><trkpt lat="41.57457425844996" lon="0.7640062040777311"><ele>255.0</ele><time>2026-05-04T14:06:58.002Z</time></trkpt><trkpt lat="41.57452456514674" lon="0.7641442719259552"><ele>255.0</ele><time>2026-05-04T14:06:59.002Z</time></trkpt><trkpt lat="41.57447680323937" lon="0.7642824630199377"><ele>255.0</ele><time>2026-05-04T14:07:00.002Z</time></trkpt><trkpt lat="41.57443075719516" lon="0.7644245159228658"><ele>255.0</ele><time>2026-05-04T14:07:01.002Z</time></trkpt><trkpt lat="41.57438296476243" lon="0.7645649357110087"><ele>255.0</ele><time>2026-05-04T14:07:02.002Z</time></trkpt><trkpt lat="41.574335556179044" lon="0.7647047784572556"><ele>255.0</ele><time>2026-05-04T14:07:03.002Z</time></trkpt><trkpt lat="41.57428862955115" lon="0.764844800791562"><ele>255.0</ele><time>2026-05-04T14:07:04.002Z</time></trkpt><trkpt lat="41.57424076902979" lon="0.7649841714778362"><ele>255.0</ele><time>2026-05-04T14:07:05.002Z</time></trkpt><trkpt lat="41.574191752514245" lon="0.7651207713061867"><ele>255.0</ele><time>2026-05-04T14:07:06.002Z</time></trkpt><trkpt lat="41.57414267373704" lon="0.7652590250759674"><ele>255.25</ele><time>2026-05-04T14:07:07.002Z</time></trkpt><trkpt lat="41.57409171305413" lon="0.7653987504352886"><ele>255.5</ele><time>2026-05-04T14:07:08.002Z</time></trkpt><trkpt lat="41.574043471189874" lon="0.7655403969057215"><ele>255.75</ele><time>2026-05-04T14:07:09.002Z</time></trkpt><trkpt lat="41.57399448979421" lon="0.7656802294514932"><ele>256.0</ele><time>2026-05-04T14:07:10.002Z</time></trkpt><trkpt lat="41.57394474758564" lon="0.7658163223993629"><ele>256.0</ele><time>2026-05-04T14:07:11.002Z</time></trkpt><trkpt lat="41.573892048317845" lon="0.7659529799799478"><ele>256.0</ele><time>2026-05-04T14:07:12.002Z</time></trkpt><trkpt lat="41.57384142452375" lon="0.7660917492452386"><ele>256.0</ele><time>2026-05-04T14:07:13.002Z</time></trkpt><trkpt lat="41.57379016821708" lon="0.7662315028110922"><ele>256.0</ele><time>2026-05-04T14:07:14.002Z</time></trkpt><trkpt lat="41.5737384745842" lon="0.7663697873263505"><ele>256.25</ele><time>2026-05-04T14:07:15.002Z</time></trkpt><trkpt lat="41.57368842180528" lon="0.7665080527798842"><ele>256.5</ele><time>2026-05-04T14:07:16.002Z</time></trkpt><trkpt lat="41.573636951001355" lon="0.7666459276731217"><ele>256.75</ele><time>2026-05-04T14:07:17.002Z</time></trkpt><trkpt lat="41.57358470292158" lon="0.7667841455959307"><ele>257.0</ele><time>2026-05-04T14:07:18.002Z</time></trkpt><trkpt lat="41.573534437701895" lon="0.7669205959297023"><ele>257.0</ele><time>2026-05-04T14:07:19.002Z</time></trkpt><trkpt lat="41.57348591239633" lon="0.7670581480455027"><ele>257.0</ele><time>2026-05-04T14:07:20.002Z</time></trkpt><trkpt lat="41.57343342879197" lon="0.7671950436828207"><ele>257.0</ele><time>2026-05-04T14:07:21.002Z</time></trkpt><trkpt lat="41.57338090859246" lon="0.767329990168885"><ele>257.0</ele><time>2026-05-04T14:07:22.002Z</time></trkpt><trkpt lat="41.57332892619992" lon="0.76746670933145"><ele>257.0</ele><time>2026-05-04T14:07:23.002Z</time></trkpt><trkpt lat="41.573275200762566" lon="0.7676042896485099"><ele>257.0</ele><time>2026-05-04T14:07:24.002Z</time></trkpt><trkpt lat="41.57322141169997" lon="0.7677410027397352"><ele>257.0</ele><time>2026-05-04T14:07:25Z</time></trkpt><trkpt lat="41.573168534122" lon="0.7678783277516559"><ele>257.0</ele><time>2026-05-04T14:07:26Z</time></trkpt><trkpt lat="41.57311453060453" lon="0.7680148347279047"><ele>257.75</ele><time>2026-05-04T14:07:27Z</time></trkpt><trkpt lat="41.57306092918331" lon="0.7681514600454371"><ele>258.5</ele><time>2026-05-04T14:07:28Z</time></trkpt><trkpt lat="41.573007343624425" lon="0.7682869067731134"><ele>259.25</ele><time>2026-05-04T14:07:29Z</time></trkpt><trkpt lat="41.57295453964481" lon="0.7684229144404144"><ele>260.0</ele><time>2026-05-04T14:07:30Z</time></trkpt><trkpt lat="41.57290017707318" lon="0.7685572939178046"><ele>260.0</ele><time>2026-05-04T14:07:31Z</time></trkpt><trkpt lat="41.572844846023344" lon="0.7686905100760686"><ele>260.0</ele><time>2026-05-04T14:07:32Z</time></trkpt><trkpt lat="41.57279101063467" lon="0.7688312473200654"><ele>260.0</ele><time>2026-05-04T14:07:33Z</time></trkpt><trkpt lat="41.57273696937497" lon="0.768966419351479"><ele>260.0</ele><time>2026-05-04T14:07:34Z</time></trkpt><trkpt lat="41.57268338149365" lon="0.7691014417003705"><ele>260.0</ele><time>2026-05-04T14:07:35Z</time></trkpt><trkpt lat="41.57262715706827" lon="0.769236738657776"><ele>260.0</ele><time>2026-05-04T14:07:36Z</time></trkpt><trkpt lat="41.57255745147294" lon="0.7693702918162707"><ele>260.0</ele><time>2026-05-04T14:07:37Z</time></trkpt><trkpt lat="41.57246071089916" lon="0.7694910083174121"><ele>260.0</ele><time>2026-05-04T14:07:38Z</time></trkpt><trkpt lat="41.57248188696888" lon="0.7696165316344193"><ele>259.83333333333337</ele><time>2026-05-04T14:07:39Z</time></trkpt><trkpt lat="41.572432011453195" lon="0.769727197179528"><ele>259.6666666666667</ele><time>2026-05-04T14:07:40Z</time></trkpt><trkpt lat="41.572381187907915" lon="0.7698281637533126"><ele>259.5</ele><time>2026-05-04T14:07:41Z</time></trkpt><trkpt lat="41.57231783076739" lon="0.7699097535729574"><ele>259.3333333333333</ele><time>2026-05-04T14:07:42Z</time></trkpt><trkpt lat="41.57226013013733" lon="0.7699887271412352"><ele>259.16666666666663</ele><time>2026-05-04T14:07:43Z</time></trkpt><trkpt lat="41.57218368940623" lon="0.77004928772125"><ele>259.0</ele><time>2026-05-04T14:07:44Z</time></trkpt><trkpt lat="41.572096468540614" lon="0.7700963601230998"><ele>259.0</ele><time>2026-05-04T14:07:45Z</time></trkpt><trkpt lat="41.57203130553109" lon="0.7701784266402677"><ele>259.0</ele><time>2026-05-04T14:07:46Z</time></trkpt><trkpt lat="41.57200403463395" lon="0.7702916892359566"><ele>259.0</ele><time>2026-05-04T14:07:47Z</time></trkpt><trkpt lat="41.57200005127611" lon="0.7704212372218583"><ele>259.0</ele><time>2026-05-04T14:07:48Z</time></trkpt><trkpt lat="41.5720054249069" lon="0.7705539772674307"><ele>259.0</ele><time>2026-05-04T14:07:49Z</time></trkpt><trkpt lat="41.5719949431001" lon="0.7706850404596757"><ele>259.0</ele><time>2026-05-04T14:07:50Z</time></trkpt><trkpt lat="41.57196140315823" lon="0.7708178206688677"><ele>259.0</ele><time>2026-05-04T14:07:51Z</time></trkpt><trkpt lat="41.57191231906165" lon="0.7709446477578451"><ele>259.0</ele><time>2026-05-04T14:07:52Z</time></trkpt><trkpt lat="41.57185809565724" lon="0.7710702954573246"><ele>259.0</ele><time>2026-05-04T14:07:53.001Z</time></trkpt><trkpt lat="41.57179870621835" lon="0.7711931861705003"><ele>259.0</ele><time>2026-05-04T14:07:54.001Z</time></trkpt><trkpt lat="41.571739803855166" lon="0.7713239521276757"><ele>258.59999999999997</ele><time>2026-05-04T14:07:55.001Z</time></trkpt><trkpt lat="41.57167939445625" lon="0.7714486438803886"><ele>258.2</ele><time>2026-05-04T14:07:56.001Z</time></trkpt><trkpt lat="41.571622273302644" lon="0.7715766910562686"><ele>257.79999999999995</ele><time>2026-05-04T14:07:57.001Z</time></trkpt><trkpt lat="41.57156116455349" lon="0.7717046249089231"><ele>257.4</ele><time>2026-05-04T14:07:58.001Z</time></trkpt><trkpt lat="41.571502794222376" lon="0.7718321681040661"><ele>257.0</ele><time>2026-05-04T14:07:59.001Z</time></trkpt><trkpt lat="41.57144500461214" lon="0.7719645804519322"><ele>257.0</ele><time>2026-05-04T14:08:00.001Z</time></trkpt><trkpt lat="41.57138485155604" lon="0.7720961653167473"><ele>257.0</ele><time>2026-05-04T14:08:01.001Z</time></trkpt><trkpt lat="41.57132527412068" lon="0.7722305698540588"><ele>257.0</ele><time>2026-05-04T14:08:02.001Z</time></trkpt><trkpt lat="41.571264112110185" lon="0.772364667650386"><ele>257.0</ele><time>2026-05-04T14:08:03.001Z</time></trkpt><trkpt lat="41.57120164105536" lon="0.7725028243311628"><ele>257.0</ele><time>2026-05-04T14:08:04.001Z</time></trkpt><trkpt lat="41.57114078046658" lon="0.7726368320145867"><ele>257.0</ele><time>2026-05-04T14:08:05.001Z</time></trkpt><trkpt lat="41.571079443738284" lon="0.772773797332986"><ele>257.0</ele><time>2026-05-04T14:08:06.001Z</time></trkpt><trkpt lat="41.571017064970555" lon="0.7729090396867946"><ele>257.0</ele><time>2026-05-04T14:08:07.001Z</time></trkpt><trkpt lat="41.57095646352084" lon="0.7730443663235006"><ele>257.0</ele><time>2026-05-04T14:08:08.001Z</time></trkpt><trkpt lat="41.570896388287885" lon="0.7731803806089401"><ele>257.0</ele><time>2026-05-04T14:08:09.001Z</time></trkpt><trkpt lat="41.570830652476225" lon="0.7733167712176522"><ele>257.0</ele><time>2026-05-04T14:08:10.001Z</time></trkpt><trkpt lat="41.57077130762499" lon="0.7734540735951075"><ele>257.0</ele><time>2026-05-04T14:08:11.001Z</time></trkpt><trkpt lat="41.57070688333651" lon="0.7735895291366687"><ele>256.5</ele><time>2026-05-04T14:08:12.001Z</time></trkpt><trkpt lat="41.57064347896158" lon="0.7737248018233714"><ele>256.0</ele><time>2026-05-04T14:08:13.001Z</time></trkpt><trkpt lat="41.57058552878366" lon="0.7738626507655786"><ele>255.5</ele><time>2026-05-04T14:08:14.001Z</time></trkpt><trkpt lat="41.570524152723316" lon="0.773998974185948"><ele>255.0</ele><time>2026-05-04T14:08:15.001Z</time></trkpt><trkpt lat="41.570461446227306" lon="0.7741334123013072"><ele>255.0</ele><time>2026-05-04T14:08:16.001Z</time></trkpt><trkpt lat="41.570399715099754" lon="0.7742691184011826"><ele>255.0</ele><time>2026-05-04T14:08:17.001Z</time></trkpt><trkpt lat="41.57033803345743" lon="0.7744046244282241"><ele>255.0</ele><time>2026-05-04T14:08:18.001Z</time></trkpt><trkpt lat="41.57027855704455" lon="0.7745410884548399"><ele>255.0</ele><time>2026-05-04T14:08:19.001Z</time></trkpt><trkpt lat="41.57021947651302" lon="0.7746768176161388"><ele>255.75</ele><time>2026-05-04T14:08:20.001Z</time></trkpt><trkpt lat="41.57015918074036" lon="0.7748119962929555"><ele>256.5</ele><time>2026-05-04T14:08:21.001Z</time></trkpt><trkpt lat="41.57009736726123" lon="0.7749452999300407"><ele>257.25</ele><time>2026-05-04T14:08:22.001Z</time></trkpt><trkpt lat="41.57003740708318" lon="0.7750792701391277"><ele>258.0</ele><time>2026-05-04T14:08:23.001Z</time></trkpt><trkpt lat="41.56997697029749" lon="0.7752112715719635"><ele>258.25</ele><time>2026-05-04T14:08:24.001Z</time></trkpt><trkpt lat="41.569916313539885" lon="0.7753429190203976"><ele>258.5</ele><time>2026-05-04T14:08:25.001Z</time></trkpt><trkpt lat="41.56985901730135" lon="0.7754751392512211"><ele>258.75</ele><time>2026-05-04T14:08:26.001Z</time></trkpt><trkpt lat="41.56979877859101" lon="0.7756057532285825"><ele>259.0</ele><time>2026-05-04T14:08:27.001Z</time></trkpt><trkpt lat="41.56973829941218" lon="0.775736371940984"><ele>259.0</ele><time>2026-05-04T14:08:28.001Z</time></trkpt><trkpt lat="41.56967992028591" lon="0.7758678711578626"><ele>259.0</ele><time>2026-05-04T14:08:29.001Z</time></trkpt><trkpt lat="41.569620547520785" lon="0.7759990533449543"><ele>259.0</ele><time>2026-05-04T14:08:30.001Z</time></trkpt><trkpt lat="41.569558311617" lon="0.7761301225200676"><ele>259.0</ele><time>2026-05-04T14:08:31.001Z</time></trkpt><trkpt lat="41.56950154548525" lon="0.7762599706619512"><ele>258.75</ele><time>2026-05-04T14:08:32.001Z</time></trkpt><trkpt lat="41.56943991113139" lon="0.7763909119665977"><ele>258.5</ele><time>2026-05-04T14:08:33.001Z</time></trkpt><trkpt lat="41.569384675123175" lon="0.7765232365474624"><ele>258.25</ele><time>2026-05-04T14:08:34.001Z</time></trkpt><trkpt lat="41.56932725611987" lon="0.7766523381309651"><ele>258.0</ele><time>2026-05-04T14:08:35.001Z</time></trkpt><trkpt lat="41.56926551579236" lon="0.7767853532753046"><ele>258.25</ele><time>2026-05-04T14:08:36.001Z</time></trkpt><trkpt lat="41.56920195927862" lon="0.776917597006306"><ele>258.5</ele><time>2026-05-04T14:08:37.001Z</time></trkpt><trkpt lat="41.569142931288226" lon="0.7770489389829183"><ele>258.75</ele><time>2026-05-04T14:08:38.001Z</time></trkpt><trkpt lat="41.56908287451003" lon="0.7771811019438591"><ele>259.0</ele><time>2026-05-04T14:08:39.001Z</time></trkpt><trkpt lat="41.56902483197557" lon="0.7773138268998047"><ele>259.0</ele><time>2026-05-04T14:08:40.001Z</time></trkpt><trkpt lat="41.56896362913328" lon="0.7774471391484395"><ele>259.0</ele><time>2026-05-04T14:08:41.001Z</time></trkpt><trkpt lat="41.56889918426983" lon="0.7775786523440296"><ele>259.0</ele><time>2026-05-04T14:08:42.001Z</time></trkpt><trkpt lat="41.568838229918235" lon="0.7777111616331976"><ele>259.0</ele><time>2026-05-04T14:08:43.001Z</time></trkpt><trkpt lat="41.56878023314312" lon="0.7778436317860065"><ele>259.0</ele><time>2026-05-04T14:08:44.001Z</time></trkpt><trkpt lat="41.568720593643924" lon="0.7779732892380904"><ele>259.0</ele><time>2026-05-04T14:08:45.002Z</time></trkpt><trkpt lat="41.5686598196108" lon="0.7781077212321054"><ele>259.0</ele><time>2026-05-04T14:08:46.002Z</time></trkpt><trkpt lat="41.56859995862345" lon="0.7782377268999667"><ele>259.0</ele><time>2026-05-04T14:08:47.002Z</time></trkpt><trkpt lat="41.56853947249486" lon="0.7783691730017039"><ele>259.0</ele><time>2026-05-04T14:08:48.002Z</time></trkpt><trkpt lat="41.56847868717514" lon="0.7785016438054048"><ele>259.0</ele><time>2026-05-04T14:08:49.002Z</time></trkpt><trkpt lat="41.56842149567149" lon="0.7786346285581474"><ele>259.0</ele><time>2026-05-04T14:08:50.002Z</time></trkpt><trkpt lat="41.5683600587673" lon="0.7787671766271486"><ele>259.0</ele><time>2026-05-04T14:08:51.002Z</time></trkpt><trkpt lat="41.56829968822306" lon="0.7789009038442769"><ele>259.0</ele><time>2026-05-04T14:08:52.002Z</time></trkpt><trkpt lat="41.5682412934667" lon="0.7790326773017766"><ele>259.0</ele><time>2026-05-04T14:08:53.002Z</time></trkpt><trkpt lat="41.56818056312694" lon="0.7791659825512823"><ele>259.0</ele><time>2026-05-04T14:08:54.002Z</time></trkpt><trkpt lat="41.568118223483275" lon="0.7792978781019954"><ele>259.0</ele><time>2026-05-04T14:08:55.002Z</time></trkpt><trkpt lat="41.5680570900755" lon="0.7794296610169789"><ele>259.25</ele><time>2026-05-04T14:08:56.002Z</time></trkpt><trkpt lat="41.56799569786799" lon="0.7795628772991872"><ele>259.5</ele><time>2026-05-04T14:08:57.002Z</time></trkpt><trkpt lat="41.56793491004714" lon="0.7796972908871211"><ele>259.75</ele><time>2026-05-04T14:08:58.002Z</time></trkpt><trkpt lat="41.56787851682627" lon="0.7798311323216734"><ele>260.0</ele><time>2026-05-04T14:08:59.002Z</time></trkpt><trkpt lat="41.56781899804318" lon="0.7799636115642071"><ele>260.25</ele><time>2026-05-04T14:09:00.002Z</time></trkpt><trkpt lat="41.56775672715204" lon="0.7800982613048213"><ele>260.5</ele><time>2026-05-04T14:09:01.002Z</time></trkpt><trkpt lat="41.567693920531894" lon="0.7802311092609053"><ele>260.75</ele><time>2026-05-04T14:09:02.002Z</time></trkpt><trkpt lat="41.567633314631166" lon="0.7803615516464573"><ele>261.0</ele><time>2026-05-04T14:09:03.002Z</time></trkpt><trkpt lat="41.56757129179944" lon="0.7804928810636808"><ele>261.0</ele><time>2026-05-04T14:09:04.002Z</time></trkpt><trkpt lat="41.567514233220464" lon="0.7806228871231644"><ele>261.0</ele><time>2026-05-04T14:09:05.002Z</time></trkpt><trkpt lat="41.567454086616436" lon="0.7807559621829343"><ele>261.0</ele><time>2026-05-04T14:09:06.002Z</time></trkpt><trkpt lat="41.56739537806198" lon="0.7808873822478709"><ele>261.0</ele><time>2026-05-04T14:09:07.002Z</time></trkpt><trkpt lat="41.56733563882428" lon="0.7810196409607708"><ele>260.75</ele><time>2026-05-04T14:09:08.002Z</time></trkpt><trkpt lat="41.5672764758666" lon="0.7811510903177765"><ele>260.5</ele><time>2026-05-04T14:09:09.002Z</time></trkpt><trkpt lat="41.56721715754273" lon="0.7812840507305455"><ele>260.25</ele><time>2026-05-04T14:09:10.002Z</time></trkpt><trkpt lat="41.56715533333586" lon="0.7814128175889725"><ele>260.0</ele><time>2026-05-04T14:09:11.002Z</time></trkpt><trkpt lat="41.56709315029552" lon="0.7815452920297843"><ele>260.0</ele><time>2026-05-04T14:09:12.002Z</time></trkpt><trkpt lat="41.56703160015512" lon="0.7816766290137579"><ele>260.0</ele><time>2026-05-04T14:09:13.002Z</time></trkpt><trkpt lat="41.566974115951176" lon="0.7818097503790674"><ele>260.0</ele><time>2026-05-04T14:09:14.002Z</time></trkpt><trkpt lat="41.5669186744711" lon="0.7819449693895594"><ele>260.0</ele><time>2026-05-04T14:09:15.002Z</time></trkpt><trkpt lat="41.566859946782785" lon="0.7820775537875639"><ele>260.25</ele><time>2026-05-04T14:09:16.002Z</time></trkpt><trkpt lat="41.56679829413758" lon="0.782211860794999"><ele>260.5</ele><time>2026-05-04T14:09:17.002Z</time></trkpt><trkpt lat="41.56673558955045" lon="0.7823435311917841"><ele>260.75</ele><time>2026-05-04T14:09:18.002Z</time></trkpt><trkpt lat="41.56667739196514" lon="0.7824763206449084"><ele>261.0</ele><time>2026-05-04T14:09:19.002Z</time></trkpt><trkpt lat="41.56661998213424" lon="0.7826054247232145"><ele>260.75</ele><time>2026-05-04T14:09:20.002Z</time></trkpt><trkpt lat="41.566561717571425" lon="0.7827382212543333"><ele>260.5</ele><time>2026-05-04T14:09:21.002Z</time></trkpt><trkpt lat="41.566501885711176" lon="0.7828685986016545"><ele>260.25</ele><time>2026-05-04T14:09:22.002Z</time></trkpt><trkpt lat="41.56643953977728" lon="0.782997681089349"><ele>260.0</ele><time>2026-05-04T14:09:23.002Z</time></trkpt><trkpt lat="41.566376416901655" lon="0.7831276858575267"><ele>260.0</ele><time>2026-05-04T14:09:24.002Z</time></trkpt><trkpt lat="41.566320344986146" lon="0.7832551610645746"><ele>260.0</ele><time>2026-05-04T14:09:25.002Z</time></trkpt><trkpt lat="41.56626208336549" lon="0.7833848454066868"><ele>260.0</ele><time>2026-05-04T14:09:26.002Z</time></trkpt><trkpt lat="41.56621046005648" lon="0.7835121334042463"><ele>260.0</ele><time>2026-05-04T14:09:27.002Z</time></trkpt><trkpt lat="41.5661428965578" lon="0.783647456146903"><ele>260.2</ele><time>2026-05-04T14:09:28.002Z</time></trkpt><trkpt lat="41.566091526306266" lon="0.7837710529021975"><ele>260.4</ele><time>2026-05-04T14:09:29.002Z</time></trkpt><trkpt lat="41.566025439584635" lon="0.7838951422064223"><ele>260.6</ele><time>2026-05-04T14:09:30.002Z</time></trkpt><trkpt lat="41.56597868508575" lon="0.7840180902163559"><ele>260.8</ele><time>2026-05-04T14:09:31Z</time></trkpt><trkpt lat="41.56591781872781" lon="0.784147224739139"><ele>261.0</ele><time>2026-05-04T14:09:32Z</time></trkpt><trkpt lat="41.56585987820444" lon="0.7842719985261245"><ele>260.5</ele><time>2026-05-04T14:09:33Z</time></trkpt><trkpt lat="41.56580813220165" lon="0.7843927931062008"><ele>260.0</ele><time>2026-05-04T14:09:34Z</time></trkpt><trkpt lat="41.56573771214014" lon="0.7845355481540809"><ele>259.5</ele><time>2026-05-04T14:09:35Z</time></trkpt><trkpt lat="41.56568180325765" lon="0.7846689023855311"><ele>259.0</ele><time>2026-05-04T14:09:36Z</time></trkpt><trkpt lat="41.565624912621395" lon="0.7847961023094937"><ele>259.0</ele><time>2026-05-04T14:09:37Z</time></trkpt><trkpt lat="41.56556551778028" lon="0.7849216320232334"><ele>259.0</ele><time>2026-05-04T14:09:38Z</time></trkpt><trkpt lat="41.565507260200775" lon="0.7850467366234529"><ele>259.0</ele><time>2026-05-04T14:09:39Z</time></trkpt><trkpt lat="41.56544617587983" lon="0.7851705617495575"><ele>259.0</ele><time>2026-05-04T14:09:40Z</time></trkpt><trkpt lat="41.56538723742071" lon="0.7852925639655945"><ele>259.0</ele><time>2026-05-04T14:09:41Z</time></trkpt><trkpt lat="41.565328916461404" lon="0.7854181800754226"><ele>259.4</ele><time>2026-05-04T14:09:42Z</time></trkpt><trkpt lat="41.56527252913973" lon="0.7855477104992241"><ele>259.79999999999995</ele><time>2026-05-04T14:09:43Z</time></trkpt><trkpt lat="41.565215285678164" lon="0.7856774821030472"><ele>260.20000000000005</ele><time>2026-05-04T14:09:44Z</time></trkpt><trkpt lat="41.5651581655832" lon="0.7858040621989896"><ele>260.6</ele><time>2026-05-04T14:09:45Z</time></trkpt><trkpt lat="41.56509980454986" lon="0.785933794338732"><ele>261.0</ele><time>2026-05-04T14:09:46Z</time></trkpt><trkpt lat="41.56504464127792" lon="0.7860624777552829"><ele>261.0</ele><time>2026-05-04T14:09:47Z</time></trkpt><trkpt lat="41.564985611866796" lon="0.7861910484869716"><ele>261.0</ele><time>2026-05-04T14:09:48Z</time></trkpt><trkpt lat="41.56492694345113" lon="0.7863228455302652"><ele>261.0</ele><time>2026-05-04T14:09:49Z</time></trkpt><trkpt lat="41.564868182312054" lon="0.7864502916468027"><ele>261.0</ele><time>2026-05-04T14:09:50Z</time></trkpt><trkpt lat="41.5648066222167" lon="0.7865738495442322"><ele>261.0</ele><time>2026-05-04T14:09:51Z</time></trkpt><trkpt lat="41.564748823219155" lon="0.7867043592005873"><ele>261.0</ele><time>2026-05-04T14:09:52Z</time></trkpt><trkpt lat="41.564688258833414" lon="0.7868314332156189"><ele>261.0</ele><time>2026-05-04T14:09:53Z</time></trkpt><trkpt lat="41.56463017215485" lon="0.7869593921761051"><ele>261.0</ele><time>2026-05-04T14:09:54Z</time></trkpt><trkpt lat="41.56457234553169" lon="0.7870889521933802"><ele>261.5</ele><time>2026-05-04T14:09:55Z</time></trkpt><trkpt lat="41.564515151800784" lon="0.7872215018188276"><ele>262.0</ele><time>2026-05-04T14:09:56Z</time></trkpt><trkpt lat="41.56445580156764" lon="0.7873486423115954"><ele>262.5</ele><time>2026-05-04T14:09:57Z</time></trkpt><trkpt lat="41.56439703808335" lon="0.7874765268344899"><ele>263.0</ele><time>2026-05-04T14:09:58Z</time></trkpt><trkpt lat="41.56433783336328" lon="0.7876109042418333"><ele>263.0</ele><time>2026-05-04T14:09:59Z</time></trkpt><trkpt lat="41.564281730943925" lon="0.7877436478870111"><ele>263.0</ele><time>2026-05-04T14:10:00Z</time></trkpt><trkpt lat="41.56422504017007" lon="0.7878755089011313"><ele>263.0</ele><time>2026-05-04T14:10:01Z</time></trkpt><trkpt lat="41.56416591032445" lon="0.7880040009553309"><ele>263.0</ele><time>2026-05-04T14:10:02Z</time></trkpt><trkpt lat="41.56410832471688" lon="0.7881281003117407"><ele>263.0</ele><time>2026-05-04T14:10:03Z</time></trkpt><trkpt lat="41.56404990100998" lon="0.7882506600339753"><ele>263.0</ele><time>2026-05-04T14:10:04.001Z</time></trkpt><trkpt lat="41.56399051926999" lon="0.7883729895235787"><ele>263.0</ele><time>2026-05-04T14:10:05.001Z</time></trkpt><trkpt lat="41.563935482645334" lon="0.7884951755982084"><ele>263.0</ele><time>2026-05-04T14:10:06.001Z</time></trkpt><trkpt lat="41.56388182001282" lon="0.7886211197530615"><ele>263.0</ele><time>2026-05-04T14:10:07.001Z</time></trkpt><trkpt lat="41.563823859612434" lon="0.7887423541253508"><ele>263.2</ele><time>2026-05-04T14:10:08.001Z</time></trkpt><trkpt lat="41.563765466744634" lon="0.7888626793970285"><ele>263.4</ele><time>2026-05-04T14:10:09.001Z</time></trkpt><trkpt lat="41.56370721697995" lon="0.7889820809866704"><ele>263.59999999999997</ele><time>2026-05-04T14:10:10.001Z</time></trkpt><trkpt lat="41.56365382690257" lon="0.7891090378102257"><ele>263.8</ele><time>2026-05-04T14:10:11.001Z</time></trkpt><trkpt lat="41.563597525649534" lon="0.7892343754390414"><ele>264.0</ele><time>2026-05-04T14:10:12.001Z</time></trkpt><trkpt lat="41.56353890440152" lon="0.7893587240651355"><ele>264.0</ele><time>2026-05-04T14:10:13.001Z</time></trkpt><trkpt lat="41.56347929236923" lon="0.789482712026921"><ele>264.0</ele><time>2026-05-04T14:10:14.001Z</time></trkpt><trkpt lat="41.563419293663145" lon="0.7896088886932525"><ele>264.0</ele><time>2026-05-04T14:10:15.001Z</time></trkpt><trkpt lat="41.56335856234123" lon="0.789727144652243"><ele>264.0</ele><time>2026-05-04T14:10:16.001Z</time></trkpt><trkpt lat="41.56326615663664" lon="0.7897854306935829"><ele>264.0</ele><time>2026-05-04T14:10:17.001Z</time></trkpt><trkpt lat="41.56325337881864" lon="0.7899918960314951"><ele>264.0</ele><time>2026-05-04T14:10:18.001Z</time></trkpt><trkpt lat="41.563193201836086" lon="0.7901226473527209"><ele>264.0</ele><time>2026-05-04T14:10:19.001Z</time></trkpt><trkpt lat="41.56313545741992" lon="0.7902529994240493"><ele>264.0</ele><time>2026-05-04T14:10:20.001Z</time></trkpt><trkpt lat="41.563073189453185" lon="0.7903825571902334"><ele>264.0</ele><time>2026-05-04T14:10:21.001Z</time></trkpt><trkpt lat="41.56301419353941" lon="0.7905123475481737"><ele>263.75</ele><time>2026-05-04T14:10:22.001Z</time></trkpt><trkpt lat="41.56295444219002" lon="0.7906460712261167"><ele>263.5</ele><time>2026-05-04T14:10:23.001Z</time></trkpt><trkpt lat="41.56289554363226" lon="0.7907776312158489"><ele>263.25</ele><time>2026-05-04T14:10:24.001Z</time></trkpt><trkpt lat="41.56283338670318" lon="0.790909862434335"><ele>263.0</ele><time>2026-05-04T14:10:25.001Z</time></trkpt><trkpt lat="41.56277322453434" lon="0.7910389057153899"><ele>262.75</ele><time>2026-05-04T14:10:26.001Z</time></trkpt><trkpt lat="41.56271354228389" lon="0.7911698629222145"><ele>262.5</ele><time>2026-05-04T14:10:27.001Z</time></trkpt><trkpt lat="41.562651815034" lon="0.7913033182088405"><ele>262.25</ele><time>2026-05-04T14:10:28.001Z</time></trkpt><trkpt lat="41.562590945340595" lon="0.791439902674525"><ele>262.0</ele><time>2026-05-04T14:10:29.001Z</time></trkpt><trkpt lat="41.56253014300817" lon="0.7915747243568304"><ele>262.0</ele><time>2026-05-04T14:10:30.001Z</time></trkpt><trkpt lat="41.56246966164188" lon="0.7917082178811514"><ele>262.0</ele><time>2026-05-04T14:10:31.001Z</time></trkpt><trkpt lat="41.56240943659325" lon="0.7918422638962087"><ele>262.0</ele><time>2026-05-04T14:10:32.001Z</time></trkpt><trkpt lat="41.562349353995586" lon="0.7919763424652609"><ele>262.0</ele><time>2026-05-04T14:10:33.001Z</time></trkpt><trkpt lat="41.56228814281896" lon="0.7921127344031476"><ele>261.5</ele><time>2026-05-04T14:10:34.001Z</time></trkpt><trkpt lat="41.562227369259126" lon="0.7922489495252283"><ele>261.0</ele><time>2026-05-04T14:10:35.001Z</time></trkpt><trkpt lat="41.562166218494546" lon="0.7923842971338799"><ele>260.5</ele><time>2026-05-04T14:10:36.001Z</time></trkpt><trkpt lat="41.56210776544371" lon="0.7925194008012043"><ele>260.0</ele><time>2026-05-04T14:10:37.001Z</time></trkpt><trkpt lat="41.562049392744804" lon="0.7926534496874639"><ele>260.25</ele><time>2026-05-04T14:10:38.001Z</time></trkpt><trkpt lat="41.56198903818026" lon="0.7927822429772216"><ele>260.5</ele><time>2026-05-04T14:10:39.001Z</time></trkpt><trkpt lat="41.56193120260673" lon="0.7929113999941708"><ele>260.75</ele><time>2026-05-04T14:10:40.001Z</time></trkpt><trkpt lat="41.56187244599574" lon="0.7930365594290937"><ele>261.0</ele><time>2026-05-04T14:10:41.001Z</time></trkpt><trkpt lat="41.561811138296065" lon="0.7931633266275442"><ele>261.0</ele><time>2026-05-04T14:10:42.001Z</time></trkpt><trkpt lat="41.56175130583089" lon="0.7932938388389107"><ele>261.0</ele><time>2026-05-04T14:10:43.001Z</time></trkpt><trkpt lat="41.56169349482901" lon="0.7934241715617391"><ele>261.0</ele><time>2026-05-04T14:10:44.001Z</time></trkpt><trkpt lat="41.561632110267865" lon="0.793551060399567"><ele>261.0</ele><time>2026-05-04T14:10:45.001Z</time></trkpt><trkpt lat="41.56157910248756" lon="0.7936820766340699"><ele>260.75</ele><time>2026-05-04T14:10:46.001Z</time></trkpt><trkpt lat="41.561518805752364" lon="0.7938129830244623"><ele>260.5</ele><time>2026-05-04T14:10:47.001Z</time></trkpt><trkpt lat="41.56146041269822" lon="0.7939393397461724"><ele>260.25</ele><time>2026-05-04T14:10:48.001Z</time></trkpt><trkpt lat="41.561397549004184" lon="0.7940693395781018"><ele>260.0</ele><time>2026-05-04T14:10:49.001Z</time></trkpt><trkpt lat="41.56133916179475" lon="0.7941962220712859"><ele>260.0</ele><time>2026-05-04T14:10:50.001Z</time></trkpt><trkpt lat="41.561284940903384" lon="0.7943290381972058"><ele>260.0</ele><time>2026-05-04T14:10:51.001Z</time></trkpt><trkpt lat="41.561218982045574" lon="0.7944505917372676"><ele>260.0</ele><time>2026-05-04T14:10:52.001Z</time></trkpt><trkpt lat="41.56115242168917" lon="0.7945815477045972"><ele>260.0</ele><time>2026-05-04T14:10:53.001Z</time></trkpt><trkpt lat="41.56111051500908" lon="0.7947074029987823"><ele>260.0</ele><time>2026-05-04T14:10:54.001Z</time></trkpt><trkpt lat="41.56104825620976" lon="0.7948361427984797"><ele>260.0</ele><time>2026-05-04T14:10:55.001Z</time></trkpt><trkpt lat="41.56098562367421" lon="0.7949663265485534"><ele>260.0</ele><time>2026-05-04T14:10:56.001Z</time></trkpt><trkpt lat="41.56092601138437" lon="0.7950970474973198"><ele>260.0</ele><time>2026-05-04T14:10:57.001Z</time></trkpt><trkpt lat="41.560868014408165" lon="0.795228827332651"><ele>260.0</ele><time>2026-05-04T14:10:58.001Z</time></trkpt><trkpt lat="41.56080861578553" lon="0.7953556941332919"><ele>260.0</ele><time>2026-05-04T14:10:59.002Z</time></trkpt><trkpt lat="41.560749886659394" lon="0.7954807823968874"><ele>260.0</ele><time>2026-05-04T14:11:00.002Z</time></trkpt><trkpt lat="41.56069106086558" lon="0.7956119916838791"><ele>260.0</ele><time>2026-05-04T14:11:01.002Z</time></trkpt><trkpt lat="41.56063339375252" lon="0.795738161687395"><ele>260.0</ele><time>2026-05-04T14:11:02.002Z</time></trkpt><trkpt lat="41.56057661844024" lon="0.7958691294742738"><ele>260.0</ele><time>2026-05-04T14:11:03.002Z</time></trkpt><trkpt lat="41.5605181769105" lon="0.7959984821189238"><ele>260.0</ele><time>2026-05-04T14:11:04.002Z</time></trkpt><trkpt lat="41.56046151612298" lon="0.7961302576363991"><ele>260.0</ele><time>2026-05-04T14:11:05.002Z</time></trkpt><trkpt lat="41.56040341781453" lon="0.7962557831141936"><ele>260.0</ele><time>2026-05-04T14:11:06.002Z</time></trkpt><trkpt lat="41.56034025047205" lon="0.7963848346957775"><ele>260.0</ele><time>2026-05-04T14:11:07.002Z</time></trkpt><trkpt lat="41.56027982495165" lon="0.7965072673154276"><ele>260.0</ele><time>2026-05-04T14:11:08.002Z</time></trkpt><trkpt lat="41.56022387222588" lon="0.7966333642398131"><ele>260.0</ele><time>2026-05-04T14:11:09.002Z</time></trkpt><trkpt lat="41.56015671112637" lon="0.7967631643956478"><ele>260.0</ele><time>2026-05-04T14:11:10.002Z</time></trkpt><trkpt lat="41.560089048643604" lon="0.7969004998409033"><ele>260.0</ele><time>2026-05-04T14:11:11.002Z</time></trkpt><trkpt lat="41.559971352851655" lon="0.7970438149931759"><ele>260.0</ele><time>2026-05-04T14:11:12.002Z</time></trkpt><trkpt lat="41.559983469098405" lon="0.797147378515088"><ele>259.8</ele><time>2026-05-04T14:11:13.002Z</time></trkpt><trkpt lat="41.559927452784464" lon="0.797274274037159"><ele>259.6</ele><time>2026-05-04T14:11:14.002Z</time></trkpt><trkpt lat="41.559873271076384" lon="0.7974021005991068"><ele>259.4</ele><time>2026-05-04T14:11:15.002Z</time></trkpt><trkpt lat="41.55981563860312" lon="0.7975266348774608"><ele>259.2</ele><time>2026-05-04T14:11:16.002Z</time></trkpt><trkpt lat="41.559755301790524" lon="0.7976497937591699"><ele>259.0</ele><time>2026-05-04T14:11:17.002Z</time></trkpt><trkpt lat="41.55969709549073" lon="0.7977763935935478"><ele>259.8</ele><time>2026-05-04T14:11:18.002Z</time></trkpt><trkpt lat="41.559639211908134" lon="0.7979057662849259"><ele>260.59999999999997</ele><time>2026-05-04T14:11:19.002Z</time></trkpt><trkpt lat="41.559582447105456" lon="0.7980341656988879"><ele>261.4</ele><time>2026-05-04T14:11:20.002Z</time></trkpt><trkpt lat="41.55952497024221" lon="0.7981617778286477"><ele>262.2</ele><time>2026-05-04T14:11:21.002Z</time></trkpt><trkpt lat="41.5594670822973" lon="0.7982838809356588"><ele>263.0</ele><time>2026-05-04T14:11:22.002Z</time></trkpt><trkpt lat="41.5594098218515" lon="0.798408258165371"><ele>262.6</ele><time>2026-05-04T14:11:23.002Z</time></trkpt><trkpt lat="41.559358350720764" lon="0.7985383456093923"><ele>262.20000000000005</ele><time>2026-05-04T14:11:24.002Z</time></trkpt><trkpt lat="41.55930618331491" lon="0.7986687850968768"><ele>261.8</ele><time>2026-05-04T14:11:25.002Z</time></trkpt><trkpt lat="41.559247418237824" lon="0.7987952681809755"><ele>261.40000000000003</ele><time>2026-05-04T14:11:26.002Z</time></trkpt><trkpt lat="41.559193630593406" lon="0.7989228457470597"><ele>261.0</ele><time>2026-05-04T14:11:27.002Z</time></trkpt><trkpt lat="41.559138426382056" lon="0.7990465052861044"><ele>261.0</ele><time>2026-05-04T14:11:28.002Z</time></trkpt><trkpt lat="41.55907859347817" lon="0.7991688462126768"><ele>261.0</ele><time>2026-05-04T14:11:29.002Z</time></trkpt><trkpt lat="41.55901900526649" lon="0.7992892141251416"><ele>261.0</ele><time>2026-05-04T14:11:30.002Z</time></trkpt><trkpt lat="41.55895899914142" lon="0.7994143629941409"><ele>261.0</ele><time>2026-05-04T14:11:31.002Z</time></trkpt><trkpt lat="41.55890370975137" lon="0.7995360017087759"><ele>261.0</ele><time>2026-05-04T14:11:32.002Z</time></trkpt><trkpt lat="41.55884735909078" lon="0.7996617398564676"><ele>261.40000000000003</ele><time>2026-05-04T14:11:33.002Z</time></trkpt><trkpt lat="41.55879323694851" lon="0.799786889549585"><ele>261.8</ele><time>2026-05-04T14:11:34.002Z</time></trkpt><trkpt lat="41.5587369435272" lon="0.7999143342908719"><ele>262.20000000000005</ele><time>2026-05-04T14:11:35.002Z</time></trkpt><trkpt lat="41.55867767043413" lon="0.8000395997135942"><ele>262.6</ele><time>2026-05-04T14:11:36.002Z</time></trkpt><trkpt lat="41.55861592842706" lon="0.8001555923248723"><ele>263.0</ele><time>2026-05-04T14:11:37Z</time></trkpt><trkpt lat="41.55854756894585" lon="0.8002694343020365"><ele>263.6</ele><time>2026-05-04T14:11:38Z</time></trkpt><trkpt lat="41.558484463405215" lon="0.8003863192864042"><ele>264.20000000000005</ele><time>2026-05-04T14:11:39Z</time></trkpt><trkpt lat="41.55842768340283" lon="0.8005094518455854"><ele>264.8</ele><time>2026-05-04T14:11:40Z</time></trkpt><trkpt lat="41.55837290495332" lon="0.8006337838899671"><ele>265.40000000000003</ele><time>2026-05-04T14:11:41Z</time></trkpt><trkpt lat="41.55831834827939" lon="0.8007592660901274"><ele>266.0</ele><time>2026-05-04T14:11:42Z</time></trkpt><trkpt lat="41.55826767354594" lon="0.800887474600202"><ele>265.8</ele><time>2026-05-04T14:11:43Z</time></trkpt><trkpt lat="41.558211501908424" lon="0.8010124819608492"><ele>265.6</ele><time>2026-05-04T14:11:44Z</time></trkpt><trkpt lat="41.558156326364454" lon="0.8011364360457304"><ele>265.4</ele><time>2026-05-04T14:11:45Z</time></trkpt><trkpt lat="41.55810260736484" lon="0.8012606568349682"><ele>265.2</ele><time>2026-05-04T14:11:46Z</time></trkpt><trkpt lat="41.55804525857969" lon="0.8013872140281411"><ele>265.0</ele><time>2026-05-04T14:11:47Z</time></trkpt><trkpt lat="41.55799284460686" lon="0.801515878388808"><ele>265.0</ele><time>2026-05-04T14:11:48Z</time></trkpt><trkpt lat="41.55794425447263" lon="0.8016457927657715"><ele>265.0</ele><time>2026-05-04T14:11:49Z</time></trkpt><trkpt lat="41.55788876526574" lon="0.8017741090256485"><ele>265.0</ele><time>2026-05-04T14:11:50Z</time></trkpt><trkpt lat="41.55783418284508" lon="0.8019004903692507"><ele>265.0</ele><time>2026-05-04T14:11:51Z</time></trkpt><trkpt lat="41.557764465536245" lon="0.8020364542269272"><ele>265.25</ele><time>2026-05-04T14:11:52Z</time></trkpt><trkpt lat="41.55767654145489" lon="0.8022242798312289"><ele>265.5</ele><time>2026-05-04T14:11:53Z</time></trkpt><trkpt lat="41.55759257788255" lon="0.8024201417866312"><ele>265.75</ele><time>2026-05-04T14:11:55Z</time></trkpt><trkpt lat="41.557534906308625" lon="0.8025458953082062"><ele>266.0</ele><time>2026-05-04T14:11:56Z</time></trkpt><trkpt lat="41.557474317277" lon="0.8026768644201144"><ele>266.0</ele><time>2026-05-04T14:11:57Z</time></trkpt><trkpt lat="41.557415705353435" lon="0.8028087605265326"><ele>266.0</ele><time>2026-05-04T14:11:58Z</time></trkpt><trkpt lat="41.557358514345005" lon="0.8029394059354935"><ele>266.0</ele><time>2026-05-04T14:11:59Z</time></trkpt><trkpt lat="41.5572985626596" lon="0.8030694009659016"><ele>266.0</ele><time>2026-05-04T14:12:00Z</time></trkpt><trkpt lat="41.557241129526815" lon="0.8031942454089953"><ele>266.0</ele><time>2026-05-04T14:12:01Z</time></trkpt><trkpt lat="41.55718195050595" lon="0.8033158590303596"><ele>266.0</ele><time>2026-05-04T14:12:02Z</time></trkpt><trkpt lat="41.55712218994256" lon="0.803441865057192"><ele>266.0</ele><time>2026-05-04T14:12:03Z</time></trkpt><trkpt lat="41.557063458536085" lon="0.8035718884147398"><ele>266.0</ele><time>2026-05-04T14:12:04Z</time></trkpt><trkpt lat="41.55700236177278" lon="0.8037002185899583"><ele>266.0</ele><time>2026-05-04T14:12:05Z</time></trkpt><trkpt lat="41.55694302202799" lon="0.8038308919071696"><ele>267.0</ele><time>2026-05-04T14:12:06.001Z</time></trkpt><trkpt lat="41.55688572811016" lon="0.8039617255623964"><ele>268.0</ele><time>2026-05-04T14:12:07.001Z</time></trkpt><trkpt lat="41.556826309132596" lon="0.8040945870516981"><ele>269.0</ele><time>2026-05-04T14:12:08.001Z</time></trkpt><trkpt lat="41.55676635452324" lon="0.8042279745310232"><ele>270.0</ele><time>2026-05-04T14:12:09.001Z</time></trkpt><trkpt lat="41.55670353393104" lon="0.8043580001811553"><ele>270.0</ele><time>2026-05-04T14:12:10.001Z</time></trkpt><trkpt lat="41.5566430695016" lon="0.8044892750951103"><ele>270.0</ele><time>2026-05-04T14:12:11.001Z</time></trkpt><trkpt lat="41.55658467167631" lon="0.804615622319682"><ele>270.0</ele><time>2026-05-04T14:12:12.001Z</time></trkpt><trkpt lat="41.55652513631874" lon="0.8047484569386871"><ele>270.0</ele><time>2026-05-04T14:12:13.001Z</time></trkpt><trkpt lat="41.556467614894444" lon="0.8048775564084133"><ele>270.0</ele><time>2026-05-04T14:12:14.001Z</time></trkpt><trkpt lat="41.55640477158434" lon="0.8050068849964493"><ele>270.0</ele><time>2026-05-04T14:12:15.001Z</time></trkpt><trkpt lat="41.5563476387341" lon="0.8051336886220107"><ele>270.0</ele><time>2026-05-04T14:12:16.001Z</time></trkpt><trkpt lat="41.55629124362187" lon="0.8052600410561722"><ele>270.0</ele><time>2026-05-04T14:12:17.001Z</time></trkpt><trkpt lat="41.55623212333088" lon="0.8053884219818777"><ele>270.0</ele><time>2026-05-04T14:12:18.001Z</time></trkpt><trkpt lat="41.55617490198086" lon="0.8055174872171952"><ele>270.2</ele><time>2026-05-04T14:12:19.001Z</time></trkpt><trkpt lat="41.55611662549483" lon="0.805642113855639"><ele>270.4</ele><time>2026-05-04T14:12:20.001Z</time></trkpt><trkpt lat="41.556060718751084" lon="0.8057726454801797"><ele>270.6</ele><time>2026-05-04T14:12:21.001Z</time></trkpt><trkpt lat="41.556006832230906" lon="0.8059014017789375"><ele>270.8</ele><time>2026-05-04T14:12:22.001Z</time></trkpt><trkpt lat="41.555953476622875" lon="0.8060296777515978"><ele>271.0</ele><time>2026-05-04T14:12:23.001Z</time></trkpt><trkpt lat="41.55590037088714" lon="0.8061587927394441"><ele>270.6</ele><time>2026-05-04T14:12:24.001Z</time></trkpt><trkpt lat="41.555849818597565" lon="0.8062921353530557"><ele>270.20000000000005</ele><time>2026-05-04T14:12:25.001Z</time></trkpt><trkpt lat="41.55580094229722" lon="0.8064231674797225"><ele>269.79999999999995</ele><time>2026-05-04T14:12:26.001Z</time></trkpt><trkpt lat="41.55575204440854" lon="0.8065589334067085"><ele>269.4</ele><time>2026-05-04T14:12:27.001Z</time></trkpt><trkpt lat="41.55570425654659" lon="0.8066926789499669"><ele>269.0</ele><time>2026-05-04T14:12:28.001Z</time></trkpt><trkpt lat="41.55565632611737" lon="0.8068274077996014"><ele>269.0</ele><time>2026-05-04T14:12:29.001Z</time></trkpt><trkpt lat="41.55560826375256" lon="0.8069571613097584"><ele>269.0</ele><time>2026-05-04T14:12:30.001Z</time></trkpt><trkpt lat="41.55556037148591" lon="0.8070929229037749"><ele>269.0</ele><time>2026-05-04T14:12:31.001Z</time></trkpt><trkpt lat="41.55550599619529" lon="0.8072264161458702"><ele>269.0</ele><time>2026-05-04T14:12:32.001Z</time></trkpt><trkpt lat="41.55545791985569" lon="0.8073542831497191"><ele>269.0</ele><time>2026-05-04T14:12:33.001Z</time></trkpt><trkpt lat="41.555409434282716" lon="0.8074899782707976"><ele>269.4</ele><time>2026-05-04T14:12:34.001Z</time></trkpt><trkpt lat="41.555366059265474" lon="0.8076258537784914"><ele>269.79999999999995</ele><time>2026-05-04T14:12:35.001Z</time></trkpt><trkpt lat="41.55531590253954" lon="0.8077595551237273"><ele>270.20000000000005</ele><time>2026-05-04T14:12:36.001Z</time></trkpt><trkpt lat="41.55526673156816" lon="0.8078951647324923"><ele>270.6</ele><time>2026-05-04T14:12:37.001Z</time></trkpt><trkpt lat="41.555218215450076" lon="0.8080294204468749"><ele>271.0</ele><time>2026-05-04T14:12:38.001Z</time></trkpt><trkpt lat="41.55516944084614" lon="0.8081662025672551"><ele>271.25</ele><time>2026-05-04T14:12:39.001Z</time></trkpt><trkpt lat="41.55512021714428" lon="0.8082973732324402"><ele>271.5</ele><time>2026-05-04T14:12:40.001Z</time></trkpt><trkpt lat="41.55507285054169" lon="0.8084343219833104"><ele>271.75</ele><time>2026-05-04T14:12:41.001Z</time></trkpt><trkpt lat="41.55502537275671" lon="0.8085712875026195"><ele>272.0</ele><time>2026-05-04T14:12:42.001Z</time></trkpt><trkpt lat="41.554979291357675" lon="0.808711750359548"><ele>272.0</ele><time>2026-05-04T14:12:43.001Z</time></trkpt><trkpt lat="41.55493013624355" lon="0.8088494205428334"><ele>272.0</ele><time>2026-05-04T14:12:44.001Z</time></trkpt><trkpt lat="41.554886716311806" lon="0.8089867231120773"><ele>272.0</ele><time>2026-05-04T14:12:45.001Z</time></trkpt><trkpt lat="41.55483572620801" lon="0.8091237710142823"><ele>272.0</ele><time>2026-05-04T14:12:46.001Z</time></trkpt><trkpt lat="41.55478943756049" lon="0.8092583820055086"><ele>272.0</ele><time>2026-05-04T14:12:47.001Z</time></trkpt><trkpt lat="41.55473847909973" lon="0.8093924916299231"><ele>272.0</ele><time>2026-05-04T14:12:48.001Z</time></trkpt><trkpt lat="41.55469144709873" lon="0.8095298980827567"><ele>272.0</ele><time>2026-05-04T14:12:49.001Z</time></trkpt><trkpt lat="41.55464338734832" lon="0.8096660194794879"><ele>272.0</ele><time>2026-05-04T14:12:50.001Z</time></trkpt><trkpt lat="41.55459751741399" lon="0.8098086799276041"><ele>272.0</ele><time>2026-05-04T14:12:51.001Z</time></trkpt><trkpt lat="41.55455655284051" lon="0.8099505209632826"><ele>272.0</ele><time>2026-05-04T14:12:52.001Z</time></trkpt><trkpt lat="41.55451793450856" lon="0.8100902840115253"><ele>272.0</ele><time>2026-05-04T14:12:53.001Z</time></trkpt><trkpt lat="41.554477725074996" lon="0.8102283626514403"><ele>272.0</ele><time>2026-05-04T14:12:54.001Z</time></trkpt><trkpt lat="41.554434958338504" lon="0.8103649406686807"><ele>272.0</ele><time>2026-05-04T14:12:55.001Z</time></trkpt><trkpt lat="41.55439359546695" lon="0.8105064483668808"><ele>272.4</ele><time>2026-05-04T14:12:56.001Z</time></trkpt><trkpt lat="41.55435939407438" lon="0.8106452604852172"><ele>272.79999999999995</ele><time>2026-05-04T14:12:57.001Z</time></trkpt><trkpt lat="41.554316528216404" lon="0.8107849651888348"><ele>273.2</ele><time>2026-05-04T14:12:58.001Z</time></trkpt><trkpt lat="41.554272967321765" lon="0.8109224491370829"><ele>273.59999999999997</ele><time>2026-05-04T14:12:59.001Z</time></trkpt><trkpt lat="41.554228891085245" lon="0.8110594524869726"><ele>274.0</ele><time>2026-05-04T14:13:00.001Z</time></trkpt><trkpt lat="41.55419007440539" lon="0.8112014142077872"><ele>274.2</ele><time>2026-05-04T14:13:01.001Z</time></trkpt><trkpt lat="41.55415251656287" lon="0.8113383838905438"><ele>274.4</ele><time>2026-05-04T14:13:02.001Z</time></trkpt><trkpt lat="41.55411096541569" lon="0.8114761301796135"><ele>274.6</ele><time>2026-05-04T14:13:03.001Z</time></trkpt><trkpt lat="41.554072632227864" lon="0.8116120192894727"><ele>274.8</ele><time>2026-05-04T14:13:04.001Z</time></trkpt><trkpt lat="41.55403070418937" lon="0.8117475042067915"><ele>275.0</ele><time>2026-05-04T14:13:05.002Z</time></trkpt><trkpt lat="41.55399281225347" lon="0.8118849683060111"><ele>275.0</ele><time>2026-05-04T14:13:06.002Z</time></trkpt><trkpt lat="41.553951898050315" lon="0.8120312161440917"><ele>275.0</ele><time>2026-05-04T14:13:07.002Z</time></trkpt><trkpt lat="41.553889752325496" lon="0.812154720825163"><ele>275.0</ele><time>2026-05-04T14:13:08.002Z</time></trkpt><trkpt lat="41.55384742848322" lon="0.8122933387080717"><ele>275.0</ele><time>2026-05-04T14:13:09.002Z</time></trkpt><trkpt lat="41.553806595041735" lon="0.8124276763902821"><ele>275.0</ele><time>2026-05-04T14:13:10.002Z</time></trkpt><trkpt lat="41.55377812218409" lon="0.8125776405061876"><ele>275.0</ele><time>2026-05-04T14:13:11.002Z</time></trkpt><trkpt lat="41.55372510128496" lon="0.8127136461027967"><ele>275.0</ele><time>2026-05-04T14:13:12.002Z</time></trkpt><trkpt lat="41.55368418009408" lon="0.8128605647452055"><ele>275.0</ele><time>2026-05-04T14:13:13.002Z</time></trkpt><trkpt lat="41.553642221060684" lon="0.8130001053576189"><ele>275.0</ele><time>2026-05-04T14:13:14.002Z</time></trkpt><trkpt lat="41.55360136117919" lon="0.8131402946303988"><ele>275.0</ele><time>2026-05-04T14:13:15.002Z</time></trkpt><trkpt lat="41.55355781028483" lon="0.813280543094886"><ele>275.0</ele><time>2026-05-04T14:13:16.002Z</time></trkpt><trkpt lat="41.553519086189034" lon="0.813419605239157"><ele>275.0</ele><time>2026-05-04T14:13:17.002Z</time></trkpt><trkpt lat="41.553481783263045" lon="0.8135593843596478"><ele>275.0</ele><time>2026-05-04T14:13:18.002Z</time></trkpt><trkpt lat="41.553448619548035" lon="0.8137021814357417"><ele>275.0</ele><time>2026-05-04T14:13:19.002Z</time></trkpt><trkpt lat="41.553400757038936" lon="0.8138356136709096"><ele>275.0</ele><time>2026-05-04T14:13:20.002Z</time></trkpt><trkpt lat="41.55336041335654" lon="0.8139772618830774"><ele>275.0</ele><time>2026-05-04T14:13:21.002Z</time></trkpt><trkpt lat="41.55331585013053" lon="0.8141161143547256"><ele>275.0</ele><time>2026-05-04T14:13:22.002Z</time></trkpt><trkpt lat="41.55327055383902" lon="0.8142506847444458"><ele>275.0</ele><time>2026-05-04T14:13:23.002Z</time></trkpt><trkpt lat="41.55322539887697" lon="0.814387104645733"><ele>275.0</ele><time>2026-05-04T14:13:24.002Z</time></trkpt><trkpt lat="41.553179559401784" lon="0.8145247517257159"><ele>275.6</ele><time>2026-05-04T14:13:25.002Z</time></trkpt><trkpt lat="41.553137929548626" lon="0.8146596372026256"><ele>276.2</ele><time>2026-05-04T14:13:26.002Z</time></trkpt><trkpt lat="41.553097614491165" lon="0.8147970356564982"><ele>276.8</ele><time>2026-05-04T14:13:27.002Z</time></trkpt><trkpt lat="41.55305941344617" lon="0.8149309075966632"><ele>277.4</ele><time>2026-05-04T14:13:28.002Z</time></trkpt><trkpt lat="41.55301880079305" lon="0.815063716183261"><ele>278.0</ele><time>2026-05-04T14:13:29.002Z</time></trkpt><trkpt lat="41.55297647129989" lon="0.8151994946314783"><ele>278.0</ele><time>2026-05-04T14:13:30.002Z</time></trkpt><trkpt lat="41.552932632808776" lon="0.8153412341228236"><ele>278.0</ele><time>2026-05-04T14:13:31.002Z</time></trkpt><trkpt lat="41.55288981830663" lon="0.815478328166608"><ele>278.0</ele><time>2026-05-04T14:13:32.002Z</time></trkpt><trkpt lat="41.552849298493285" lon="0.8156207021465431"><ele>278.0</ele><time>2026-05-04T14:13:33.002Z</time></trkpt><trkpt lat="41.552808182336925" lon="0.8157600649195923"><ele>277.8</ele><time>2026-05-04T14:13:34.002Z</time></trkpt><trkpt lat="41.55277062713112" lon="0.8158921536623633"><ele>277.6</ele><time>2026-05-04T14:13:35.002Z</time></trkpt><trkpt lat="41.55272283733146" lon="0.8160228037963314"><ele>277.4</ele><time>2026-05-04T14:13:36.002Z</time></trkpt><trkpt lat="41.552675950949734" lon="0.8161576898869555"><ele>277.2</ele><time>2026-05-04T14:13:37.002Z</time></trkpt><trkpt lat="41.552621382260526" lon="0.8162852294071123"><ele>277.0</ele><time>2026-05-04T14:13:38.002Z</time></trkpt><trkpt lat="41.55257067445875" lon="0.8164078926129844"><ele>277.0</ele><time>2026-05-04T14:13:39.002Z</time></trkpt><trkpt lat="41.55250538140224" lon="0.8165231873988784"><ele>277.0</ele><time>2026-05-04T14:13:40.002Z</time></trkpt><trkpt lat="41.55244700969683" lon="0.8166401867300918"><ele>277.0</ele><time>2026-05-04T14:13:41.002Z</time></trkpt><trkpt lat="41.55239054412148" lon="0.8167702640268084"><ele>277.0</ele><time>2026-05-04T14:13:42.002Z</time></trkpt><trkpt lat="41.552335649026155" lon="0.816890708204841"><ele>277.0</ele><time>2026-05-04T14:13:43Z</time></trkpt><trkpt lat="41.552277386557165" lon="0.8170124916993275"><ele>277.2</ele><time>2026-05-04T14:13:44Z</time></trkpt><trkpt lat="41.552218308587115" lon="0.8171341881985082"><ele>277.4</ele><time>2026-05-04T14:13:45Z</time></trkpt><trkpt lat="41.55216022511736" lon="0.8172575321842837"><ele>277.6</ele><time>2026-05-04T14:13:46Z</time></trkpt><trkpt lat="41.552102127948345" lon="0.8173822344649301"><ele>277.8</ele><time>2026-05-04T14:13:47Z</time></trkpt><trkpt lat="41.55204331416689" lon="0.8175055242624779"><ele>278.0</ele><time>2026-05-04T14:13:48Z</time></trkpt><trkpt lat="41.55198482593734" lon="0.8176332850161349"><ele>277.8</ele><time>2026-05-04T14:13:49Z</time></trkpt><trkpt lat="41.551924977849694" lon="0.817756258977556"><ele>277.6</ele><time>2026-05-04T14:13:50Z</time></trkpt><trkpt lat="41.55186587807661" lon="0.8178783796728486"><ele>277.4</ele><time>2026-05-04T14:13:51Z</time></trkpt><trkpt lat="41.551803802579606" lon="0.8180096872686863"><ele>277.2</ele><time>2026-05-04T14:13:52Z</time></trkpt><trkpt lat="41.55174742776696" lon="0.8181332316444293"><ele>277.0</ele><time>2026-05-04T14:13:53Z</time></trkpt><trkpt lat="41.5516887423115" lon="0.8182639693977435"><ele>277.0</ele><time>2026-05-04T14:13:54Z</time></trkpt><trkpt lat="41.551629911337635" lon="0.818388450506065"><ele>277.0</ele><time>2026-05-04T14:13:55Z</time></trkpt><trkpt lat="41.551574071640154" lon="0.8185193978366241"><ele>277.0</ele><time>2026-05-04T14:13:56Z</time></trkpt><trkpt lat="41.55150596906476" lon="0.8186394939184922"><ele>277.0</ele><time>2026-05-04T14:13:57Z</time></trkpt><trkpt lat="41.55144302372592" lon="0.8187677264046712"><ele>277.25</ele><time>2026-05-04T14:13:58Z</time></trkpt><trkpt lat="41.55138379257153" lon="0.8188999625832085"><ele>277.5</ele><time>2026-05-04T14:13:59Z</time></trkpt><trkpt lat="41.55132379004866" lon="0.8190350944843606"><ele>277.75</ele><time>2026-05-04T14:14:00Z</time></trkpt><trkpt lat="41.55125796327945" lon="0.8191634756356593"><ele>278.0</ele><time>2026-05-04T14:14:01Z</time></trkpt><trkpt lat="41.551192467227146" lon="0.8192966405992673"><ele>277.25</ele><time>2026-05-04T14:14:02Z</time></trkpt><trkpt lat="41.551129426072315" lon="0.8194369782832753"><ele>276.5</ele><time>2026-05-04T14:14:03Z</time></trkpt><trkpt lat="41.551064797988026" lon="0.8195731199467055"><ele>275.75</ele><time>2026-05-04T14:14:04Z</time></trkpt><trkpt lat="41.550997043975215" lon="0.8197047328069553"><ele>275.0</ele><time>2026-05-04T14:14:05Z</time></trkpt><trkpt lat="41.550927493050374" lon="0.8198345508382104"><ele>275.0</ele><time>2026-05-04T14:14:06Z</time></trkpt><trkpt lat="41.550854070939444" lon="0.8199638212748944"><ele>275.0</ele><time>2026-05-04T14:14:07Z</time></trkpt><trkpt lat="41.55077638114668" lon="0.820093778810501"><ele>275.0</ele><time>2026-05-04T14:14:08Z</time></trkpt><trkpt lat="41.55069305017407" lon="0.8202153711835078"><ele>275.0</ele><time>2026-05-04T14:14:09Z</time></trkpt><trkpt lat="41.550598547695955" lon="0.8203221729751966"><ele>275.5</ele><time>2026-05-04T14:14:10Z</time></trkpt><trkpt lat="41.55049845719589" lon="0.8204218181328105"><ele>276.0</ele><time>2026-05-04T14:14:11Z</time></trkpt><trkpt lat="41.55039729355121" lon="0.8205172565097482"><ele>276.5</ele><time>2026-05-04T14:14:12Z</time></trkpt><trkpt lat="41.55029482068833" lon="0.8206138644761507"><ele>277.0</ele><time>2026-05-04T14:14:13Z</time></trkpt><trkpt lat="41.5501890680979" lon="0.8207017127633872"><ele>274.25</ele><time>2026-05-04T14:14:14Z</time></trkpt><trkpt lat="41.550076423170225" lon="0.8207681421141549"><ele>271.5</ele><time>2026-05-04T14:14:15Z</time></trkpt><trkpt lat="41.54995968770157" lon="0.8208297602700885"><ele>268.75</ele><time>2026-05-04T14:14:16Z</time></trkpt><trkpt lat="41.5498430282001" lon="0.8208937246125464"><ele>266.0</ele><time>2026-05-04T14:14:17Z</time></trkpt><trkpt lat="41.54972291856408" lon="0.820945454087466"><ele>266.25</ele><time>2026-05-04T14:14:18.001Z</time></trkpt><trkpt lat="41.549599543243254" lon="0.8209860481992534"><ele>266.5</ele><time>2026-05-04T14:14:19.001Z</time></trkpt><trkpt lat="41.54947624631112" lon="0.8210159322211774"><ele>266.75</ele><time>2026-05-04T14:14:20.001Z</time></trkpt><trkpt lat="41.54935346068731" lon="0.8210418727660678"><ele>267.0</ele><time>2026-05-04T14:14:21.001Z</time></trkpt><trkpt lat="41.54922966767131" lon="0.821058599406391"><ele>266.0</ele><time>2026-05-04T14:14:22.001Z</time></trkpt><trkpt lat="41.54910849412494" lon="0.8210756183266869"><ele>265.0</ele><time>2026-05-04T14:14:23.001Z</time></trkpt><trkpt lat="41.54898867097439" lon="0.8210923541159083"><ele>264.0</ele><time>2026-05-04T14:14:24.001Z</time></trkpt><trkpt lat="41.5488675597547" lon="0.8211113530123031"><ele>263.0</ele><time>2026-05-04T14:14:25.001Z</time></trkpt><trkpt lat="41.54874825352864" lon="0.8211278047241972"><ele>263.25</ele><time>2026-05-04T14:14:26.001Z</time></trkpt><trkpt lat="41.54862756352549" lon="0.8211392738240431"><ele>263.5</ele><time>2026-05-04T14:14:27.001Z</time></trkpt><trkpt lat="41.548507993401095" lon="0.8211515628738507"><ele>263.75</ele><time>2026-05-04T14:14:28.001Z</time></trkpt><trkpt lat="41.54839088713709" lon="0.8211644471367473"><ele>264.0</ele><time>2026-05-04T14:14:29.001Z</time></trkpt><trkpt lat="41.54826776714225" lon="0.821186407219033"><ele>264.0</ele><time>2026-05-04T14:14:30.001Z</time></trkpt><trkpt lat="41.548149006007826" lon="0.8212035091123917"><ele>264.0</ele><time>2026-05-04T14:14:31.001Z</time></trkpt><trkpt lat="41.54802623877158" lon="0.8211953329221647"><ele>264.0</ele><time>2026-05-04T14:14:32.001Z</time></trkpt><trkpt lat="41.54790920660266" lon="0.8212311616225333"><ele>264.0</ele><time>2026-05-04T14:14:33.001Z</time></trkpt><trkpt lat="41.54778780926126" lon="0.8212226307722315"><ele>263.5</ele><time>2026-05-04T14:14:34.001Z</time></trkpt><trkpt lat="41.547668527681694" lon="0.8212570650719975"><ele>263.0</ele><time>2026-05-04T14:14:35.001Z</time></trkpt><trkpt lat="41.547555712452834" lon="0.8212475692417971"><ele>262.5</ele><time>2026-05-04T14:14:36.001Z</time></trkpt><trkpt lat="41.54743918511033" lon="0.8212808221577101"><ele>262.0</ele><time>2026-05-04T14:14:37.001Z</time></trkpt><trkpt lat="41.54731668725768" lon="0.8212919854757637"><ele>262.0</ele><time>2026-05-04T14:14:38.001Z</time></trkpt><trkpt lat="41.54720534272321" lon="0.821293592507549"><ele>262.0</ele><time>2026-05-04T14:14:39.001Z</time></trkpt><trkpt lat="41.54708383719283" lon="0.8213166361903851"><ele>262.0</ele><time>2026-05-04T14:14:40.001Z</time></trkpt><trkpt lat="41.54696689289057" lon="0.821321576577156"><ele>262.0</ele><time>2026-05-04T14:14:41.001Z</time></trkpt><trkpt lat="41.54684479762138" lon="0.8213411773348124"><ele>261.0</ele><time>2026-05-04T14:14:42.001Z</time></trkpt><trkpt lat="41.546724542597815" lon="0.8213567334894204"><ele>260.0</ele><time>2026-05-04T14:14:43.001Z</time></trkpt><trkpt lat="41.5466048353799" lon="0.8213671209583092"><ele>259.0</ele><time>2026-05-04T14:14:44.001Z</time></trkpt><trkpt lat="41.546486385682" lon="0.8213687694996419"><ele>258.0</ele><time>2026-05-04T14:14:45.001Z</time></trkpt><trkpt lat="41.54637086744371" lon="0.8213883763144578"><ele>258.0</ele><time>2026-05-04T14:14:46.001Z</time></trkpt><trkpt lat="41.54624956035186" lon="0.8214068645667749"><ele>258.0</ele><time>2026-05-04T14:14:47.001Z</time></trkpt><trkpt lat="41.54613156935896" lon="0.8214206589722528"><ele>258.0</ele><time>2026-05-04T14:14:48.001Z</time></trkpt><trkpt lat="41.5460136013734" lon="0.8214353199712819"><ele>258.0</ele><time>2026-05-04T14:14:49.001Z</time></trkpt><trkpt lat="41.54589604803256" lon="0.8214446285749966"><ele>257.5</ele><time>2026-05-04T14:14:50.001Z</time></trkpt><trkpt lat="41.545778983927505" lon="0.8214574154345039"><ele>257.0</ele><time>2026-05-04T14:14:51.001Z</time></trkpt><trkpt lat="41.54566280405128" lon="0.8214649640860072"><ele>256.5</ele><time>2026-05-04T14:14:52.001Z</time></trkpt><trkpt lat="41.54554635019681" lon="0.8214791701096488"><ele>256.0</ele><time>2026-05-04T14:14:53.001Z</time></trkpt><trkpt lat="41.54542766682846" lon="0.8214959715758006"><ele>255.5</ele><time>2026-05-04T14:14:54.001Z</time></trkpt><trkpt lat="41.54530826419147" lon="0.8215127090262053"><ele>255.0</ele><time>2026-05-04T14:14:55.001Z</time></trkpt><trkpt lat="41.545189758790116" lon="0.8215244585387885"><ele>254.5</ele><time>2026-05-04T14:14:56.001Z</time></trkpt><trkpt lat="41.54507291798388" lon="0.8215382934398407"><ele>254.0</ele><time>2026-05-04T14:14:57.001Z</time></trkpt><trkpt lat="41.544958885674184" lon="0.8215529167150654"><ele>254.0</ele><time>2026-05-04T14:14:58.001Z</time></trkpt><trkpt lat="41.54484056768388" lon="0.8215674411178808"><ele>254.0</ele><time>2026-05-04T14:14:59.001Z</time></trkpt><trkpt lat="41.54472417795342" lon="0.8215801603069833"><ele>254.0</ele><time>2026-05-04T14:15:00.001Z</time></trkpt><trkpt lat="41.544606471968606" lon="0.8215946901913485"><ele>254.0</ele><time>2026-05-04T14:15:01.001Z</time></trkpt><trkpt lat="41.544488885949185" lon="0.821608231808824"><ele>253.0</ele><time>2026-05-04T14:15:02.001Z</time></trkpt><trkpt lat="41.54437058951934" lon="0.8216177390407444"><ele>252.0</ele><time>2026-05-04T14:15:03.001Z</time></trkpt><trkpt lat="41.54425087779665" lon="0.821635031358635"><ele>251.0</ele><time>2026-05-04T14:15:04.001Z</time></trkpt><trkpt lat="41.54412909994483" lon="0.8216496743228249"><ele>250.0</ele><time>2026-05-04T14:15:05.001Z</time></trkpt><trkpt lat="41.54400798744734" lon="0.8216606897061504"><ele>250.0</ele><time>2026-05-04T14:15:06.001Z</time></trkpt><trkpt lat="41.54388338977028" lon="0.8216725938604513"><ele>250.0</ele><time>2026-05-04T14:15:07.001Z</time></trkpt><trkpt lat="41.543759739515686" lon="0.8216853332959319"><ele>250.0</ele><time>2026-05-04T14:15:08.001Z</time></trkpt><trkpt lat="41.54364376073976" lon="0.821701882040846"><ele>250.0</ele><time>2026-05-04T14:15:09.001Z</time></trkpt><trkpt lat="41.54352211469266" lon="0.8217168415354454"><ele>248.5</ele><time>2026-05-04T14:15:10.001Z</time></trkpt><trkpt lat="41.54340070265454" lon="0.8217353409370538"><ele>247.0</ele><time>2026-05-04T14:15:11.001Z</time></trkpt><trkpt lat="41.54328386244824" lon="0.8217463454556577"><ele>245.5</ele><time>2026-05-04T14:15:12.001Z</time></trkpt><trkpt lat="41.543167083779466" lon="0.8217607451425497"><ele>244.0</ele><time>2026-05-04T14:15:13.001Z</time></trkpt><trkpt lat="41.5430521276411" lon="0.8217721366656584"><ele>244.0</ele><time>2026-05-04T14:15:14.001Z</time></trkpt><trkpt lat="41.54293217427291" lon="0.8217875748152195"><ele>244.0</ele><time>2026-05-04T14:15:15.002Z</time></trkpt><trkpt lat="41.54281492952323" lon="0.8218008463299087"><ele>244.0</ele><time>2026-05-04T14:15:16.002Z</time></trkpt><trkpt lat="41.54270070385227" lon="0.8218180399186363"><ele>244.0</ele><time>2026-05-04T14:15:17.002Z</time></trkpt><trkpt lat="41.54258928929803" lon="0.8218368884373229"><ele>243.75</ele><time>2026-05-04T14:15:18.002Z</time></trkpt><trkpt lat="41.54247285172486" lon="0.8218612268134629"><ele>243.5</ele><time>2026-05-04T14:15:19.002Z</time></trkpt><trkpt lat="41.54236094511936" lon="0.8218866320175879"><ele>243.25</ele><time>2026-05-04T14:15:20.002Z</time></trkpt><trkpt lat="41.54224799753754" lon="0.8219166303727421"><ele>243.0</ele><time>2026-05-04T14:15:21.002Z</time></trkpt><trkpt lat="41.54213883578367" lon="0.82196161034793"><ele>243.25</ele><time>2026-05-04T14:15:22.002Z</time></trkpt><trkpt lat="41.54203071739981" lon="0.8220090202090138"><ele>243.5</ele><time>2026-05-04T14:15:23.002Z</time></trkpt><trkpt lat="41.5419258806168" lon="0.8220735587506915"><ele>243.75</ele><time>2026-05-04T14:15:24.002Z</time></trkpt><trkpt lat="41.54182276611184" lon="0.822146112528884"><ele>244.0</ele><time>2026-05-04T14:15:25.002Z</time></trkpt><trkpt lat="41.54172263776878" lon="0.822223860916659"><ele>244.0</ele><time>2026-05-04T14:15:26.002Z</time></trkpt><trkpt lat="41.54162935160068" lon="0.8223095770601686"><ele>243.99999999999997</ele><time>2026-05-04T14:15:27.002Z</time></trkpt><trkpt lat="41.5415360793085" lon="0.8223987023376869"><ele>243.99999999999997</ele><time>2026-05-04T14:15:28.002Z</time></trkpt><trkpt lat="41.54145460127794" lon="0.822495001493828"><ele>244.0</ele><time>2026-05-04T14:15:29.002Z</time></trkpt><trkpt lat="41.5413920265353" lon="0.822563289787293"><ele>244.0</ele><time>2026-05-04T14:15:30.002Z</time></trkpt><trkpt lat="41.54134451425345" lon="0.8226307203035482"><ele>243.75</ele><time>2026-05-04T14:15:31.002Z</time></trkpt><trkpt lat="41.54121993412368" lon="0.8228069299095385"><ele>243.5</ele><time>2026-05-04T14:15:32.002Z</time></trkpt><trkpt lat="41.541151419876456" lon="0.8229257100395112"><ele>243.25</ele><time>2026-05-04T14:15:33.002Z</time></trkpt><trkpt lat="41.541097952514065" lon="0.8230451547160006"><ele>243.0</ele><time>2026-05-04T14:15:34.002Z</time></trkpt><trkpt lat="41.54104611367492" lon="0.8231661557971811"><ele>243.8</ele><time>2026-05-04T14:15:35.002Z</time></trkpt><trkpt lat="41.54099105640727" lon="0.8232908561311094"><ele>244.60000000000002</ele><time>2026-05-04T14:15:36.002Z</time></trkpt><trkpt lat="41.54094365556066" lon="0.8234178328257902"><ele>245.39999999999998</ele><time>2026-05-04T14:15:37.002Z</time></trkpt><trkpt lat="41.540904932889894" lon="0.8235443239555661"><ele>246.2</ele><time>2026-05-04T14:15:38.002Z</time></trkpt><trkpt lat="41.54087068372692" lon="0.8236810167060336"><ele>247.0</ele><time>2026-05-04T14:15:39.002Z</time></trkpt><trkpt lat="41.540845988832864" lon="0.8238120325344106"><ele>247.0</ele><time>2026-05-04T14:15:40.002Z</time></trkpt><trkpt lat="41.54081171994749" lon="0.8239456868463977"><ele>247.0</ele><time>2026-05-04T14:15:41.002Z</time></trkpt><trkpt lat="41.540790314845694" lon="0.8240806489688006"><ele>247.0</ele><time>2026-05-04T14:15:42.002Z</time></trkpt><trkpt lat="41.54077871777206" lon="0.8242237682593151"><ele>247.0</ele><time>2026-05-04T14:15:43.002Z</time></trkpt><trkpt lat="41.54076792820225" lon="0.824367115842592"><ele>247.0</ele><time>2026-05-04T14:15:44.002Z</time></trkpt><trkpt lat="41.54075920907121" lon="0.8245091303556497"><ele>246.8</ele><time>2026-05-04T14:15:45.002Z</time></trkpt><trkpt lat="41.54075118401454" lon="0.8246490547204437"><ele>246.6</ele><time>2026-05-04T14:15:46.002Z</time></trkpt><trkpt lat="41.5407418322407" lon="0.824797804081458"><ele>246.40000000000003</ele><time>2026-05-04T14:15:47.002Z</time></trkpt><trkpt lat="41.5407350801288" lon="0.8249496891150655"><ele>246.20000000000002</ele><time>2026-05-04T14:15:48.002Z</time></trkpt><trkpt lat="41.54072993720095" lon="0.8250971478085674"><ele>246.0</ele><time>2026-05-04T14:15:49Z</time></trkpt><trkpt lat="41.540720746711756" lon="0.8252449988787572"><ele>246.4</ele><time>2026-05-04T14:15:50Z</time></trkpt><trkpt lat="41.54071775699322" lon="0.8253909093340119"><ele>246.8</ele><time>2026-05-04T14:15:51Z</time></trkpt><trkpt lat="41.54071113476133" lon="0.825539342660455"><ele>247.20000000000002</ele><time>2026-05-04T14:15:52Z</time></trkpt><trkpt lat="41.54070106366112" lon="0.825691258019556"><ele>247.60000000000002</ele><time>2026-05-04T14:15:53Z</time></trkpt><trkpt lat="41.54069339527352" lon="0.8258404900149857"><ele>248.0</ele><time>2026-05-04T14:15:54Z</time></trkpt><trkpt lat="41.54068347524204" lon="0.8259930068743443"><ele>248.0</ele><time>2026-05-04T14:15:55Z</time></trkpt><trkpt lat="41.54068102135032" lon="0.8261446581772524"><ele>248.0</ele><time>2026-05-04T14:15:56Z</time></trkpt><trkpt lat="41.54067505361725" lon="0.8262962139949142"><ele>248.0</ele><time>2026-05-04T14:15:57Z</time></trkpt><trkpt lat="41.54067013054491" lon="0.826440846244373"><ele>248.0</ele><time>2026-05-04T14:15:58Z</time></trkpt><trkpt lat="41.54066537742795" lon="0.8265873673620137"><ele>248.0</ele><time>2026-05-04T14:15:59Z</time></trkpt><trkpt lat="41.540658879554535" lon="0.8267380870824546"><ele>248.0</ele><time>2026-05-04T14:16:00Z</time></trkpt><trkpt lat="41.54064677266188" lon="0.8268857061523393"><ele>248.0</ele><time>2026-05-04T14:16:01Z</time></trkpt><trkpt lat="41.540638394759675" lon="0.8270300083402894"><ele>248.0</ele><time>2026-05-04T14:16:02Z</time></trkpt><trkpt lat="41.540630398018344" lon="0.8271774968654384"><ele>248.0</ele><time>2026-05-04T14:16:03Z</time></trkpt><trkpt lat="41.54062492101085" lon="0.8273247906537256"><ele>248.0</ele><time>2026-05-04T14:16:04Z</time></trkpt><trkpt lat="41.540618954603175" lon="0.8274708472105959"><ele>248.0</ele><time>2026-05-04T14:16:05Z</time></trkpt><trkpt lat="41.54061487027318" lon="0.8276205086363998"><ele>248.0</ele><time>2026-05-04T14:16:06Z</time></trkpt><trkpt lat="41.540609960165185" lon="0.8277690677044787"><ele>248.0</ele><time>2026-05-04T14:16:07Z</time></trkpt><trkpt lat="41.54060763534742" lon="0.827915614035287"><ele>248.0</ele><time>2026-05-04T14:16:08Z</time></trkpt><trkpt lat="41.54060103353729" lon="0.828063542639929"><ele>248.0</ele><time>2026-05-04T14:16:09Z</time></trkpt><trkpt lat="41.54058668078009" lon="0.8282123021779899"><ele>247.8</ele><time>2026-05-04T14:16:10Z</time></trkpt><trkpt lat="41.54057895165106" lon="0.8283552349156047"><ele>247.60000000000002</ele><time>2026-05-04T14:16:11Z</time></trkpt><trkpt lat="41.540569978923166" lon="0.8285010217390122"><ele>247.39999999999998</ele><time>2026-05-04T14:16:12Z</time></trkpt><trkpt lat="41.540567849495545" lon="0.8286482014935636"><ele>247.2</ele><time>2026-05-04T14:16:13Z</time></trkpt><trkpt lat="41.54056135511764" lon="0.8287933511105259"><ele>247.0</ele><time>2026-05-04T14:16:14Z</time></trkpt><trkpt lat="41.54055198326433" lon="0.8289451830402738"><ele>247.0</ele><time>2026-05-04T14:16:15Z</time></trkpt><trkpt lat="41.540539605557875" lon="0.829094321059401"><ele>247.0</ele><time>2026-05-04T14:16:16Z</time></trkpt><trkpt lat="41.54052261059342" lon="0.8292421236089244"><ele>247.0</ele><time>2026-05-04T14:16:17Z</time></trkpt><trkpt lat="41.5405052894556" lon="0.8293900368168571"><ele>247.0</ele><time>2026-05-04T14:16:18Z</time></trkpt><trkpt lat="41.540476459864024" lon="0.8295398595092962"><ele>247.75</ele><time>2026-05-04T14:16:19Z</time></trkpt><trkpt lat="41.54044382841093" lon="0.8296874350147453"><ele>248.5</ele><time>2026-05-04T14:16:20Z</time></trkpt><trkpt lat="41.540407578193424" lon="0.8298303684803999"><ele>249.25</ele><time>2026-05-04T14:16:21Z</time></trkpt><trkpt lat="41.540356711929505" lon="0.829967541279021"><ele>250.0</ele><time>2026-05-04T14:16:22Z</time></trkpt><trkpt lat="41.540306027384936" lon="0.830110243075291"><ele>250.25</ele><time>2026-05-04T14:16:23Z</time></trkpt><trkpt lat="41.540246230926684" lon="0.8302412846164248"><ele>250.5</ele><time>2026-05-04T14:16:24Z</time></trkpt><trkpt lat="41.54016768678969" lon="0.8303549006170758"><ele>250.75</ele><time>2026-05-04T14:16:25Z</time></trkpt><trkpt lat="41.54010337790272" lon="0.83047234197438"><ele>251.0</ele><time>2026-05-04T14:16:26Z</time></trkpt><trkpt lat="41.540034858938434" lon="0.8305988945624326"><ele>251.0</ele><time>2026-05-04T14:16:27Z</time></trkpt><trkpt lat="41.5399676538559" lon="0.8307215345106301"><ele>251.0</ele><time>2026-05-04T14:16:28Z</time></trkpt><trkpt lat="41.5399005766576" lon="0.8308439410298989"><ele>251.0</ele><time>2026-05-04T14:16:29Z</time></trkpt><trkpt lat="41.53983497764071" lon="0.8309636500503492"><ele>251.0</ele><time>2026-05-04T14:16:30Z</time></trkpt><trkpt lat="41.539768439745686" lon="0.8310850724391738"><ele>251.0</ele><time>2026-05-04T14:16:31.001Z</time></trkpt><trkpt lat="41.53970044905128" lon="0.8312091760155491"><ele>251.0</ele><time>2026-05-04T14:16:32.001Z</time></trkpt><trkpt lat="41.53963357894381" lon="0.8313313002758435"><ele>251.0</ele><time>2026-05-04T14:16:33.001Z</time></trkpt><trkpt lat="41.539566073197136" lon="0.8314537296698472"><ele>251.0</ele><time>2026-05-04T14:16:34.001Z</time></trkpt><trkpt lat="41.53949555898434" lon="0.8315819222953296"><ele>251.25</ele><time>2026-05-04T14:16:35.001Z</time></trkpt><trkpt lat="41.539426747506575" lon="0.8317070204048711"><ele>251.5</ele><time>2026-05-04T14:16:36.001Z</time></trkpt><trkpt lat="41.53936237123627" lon="0.8318240545315564"><ele>251.75</ele><time>2026-05-04T14:16:37.001Z</time></trkpt><trkpt lat="41.53929301416354" lon="0.8319500190150338"><ele>252.0</ele><time>2026-05-04T14:16:38.001Z</time></trkpt><trkpt lat="41.539225479704704" lon="0.8320725838134277"><ele>252.0</ele><time>2026-05-04T14:16:39.001Z</time></trkpt><trkpt lat="41.53915842135739" lon="0.8321943995079039"><ele>252.0</ele><time>2026-05-04T14:16:40.001Z</time></trkpt><trkpt lat="41.5390912569" lon="0.8323164061940803"><ele>252.0</ele><time>2026-05-04T14:16:41.001Z</time></trkpt><trkpt lat="41.539023193017634" lon="0.8324400465761173"><ele>252.0</ele><time>2026-05-04T14:16:42.001Z</time></trkpt><trkpt lat="41.53895534895809" lon="0.8325632546514521"><ele>251.75</ele><time>2026-05-04T14:16:43.001Z</time></trkpt><trkpt lat="41.53888815102316" lon="0.8326851922792122"><ele>251.5</ele><time>2026-05-04T14:16:44.001Z</time></trkpt><trkpt lat="41.53882198541902" lon="0.8328052566388726"><ele>251.25</ele><time>2026-05-04T14:16:45.001Z</time></trkpt><trkpt lat="41.538754946880005" lon="0.8329269049476411"><ele>251.0</ele><time>2026-05-04T14:16:46.001Z</time></trkpt><trkpt lat="41.538687341563076" lon="0.8330495817658236"><ele>251.5</ele><time>2026-05-04T14:16:47.001Z</time></trkpt><trkpt lat="41.53862153033623" lon="0.8331690030770931"><ele>252.0</ele><time>2026-05-04T14:16:48.001Z</time></trkpt><trkpt lat="41.53855339614925" lon="0.8332926395883063"><ele>252.5</ele><time>2026-05-04T14:16:49.001Z</time></trkpt><trkpt lat="41.53848425183864" lon="0.8334181090241348"><ele>253.0</ele><time>2026-05-04T14:16:50.001Z</time></trkpt><trkpt lat="41.53841828710981" lon="0.8335378089789175"><ele>253.0</ele><time>2026-05-04T14:16:51.001Z</time></trkpt><trkpt lat="41.538350961131854" lon="0.833659978843848"><ele>253.0</ele><time>2026-05-04T14:16:52.001Z</time></trkpt><trkpt lat="41.53828343044205" lon="0.8337825202556649"><ele>253.0</ele><time>2026-05-04T14:16:53.001Z</time></trkpt><trkpt lat="41.53821637243268" lon="0.8339042039700152"><ele>253.0</ele><time>2026-05-04T14:16:54.001Z</time></trkpt><trkpt lat="41.538150935616365" lon="0.8340229457987122"><ele>253.0</ele><time>2026-05-04T14:16:55.001Z</time></trkpt><trkpt lat="41.53808292514381" lon="0.834146357857368"><ele>253.0</ele><time>2026-05-04T14:16:56.001Z</time></trkpt><trkpt lat="41.53801523141074" lon="0.8342691951200615"><ele>253.0</ele><time>2026-05-04T14:16:57.001Z</time></trkpt><trkpt lat="41.53794951303921" lon="0.8343884479729351"><ele>253.0</ele><time>2026-05-04T14:16:58.001Z</time></trkpt><trkpt lat="41.537881476508645" lon="0.8345119072208625"><ele>253.5</ele><time>2026-05-04T14:16:59.001Z</time></trkpt><trkpt lat="41.53781835817325" lon="0.8346264419788443"><ele>254.0</ele><time>2026-05-04T14:17:00.001Z</time></trkpt><trkpt lat="41.5377607403549" lon="0.8347409552197766"><ele>254.5</ele><time>2026-05-04T14:17:01.001Z</time></trkpt><trkpt lat="41.53766674305086" lon="0.8348187082384831"><ele>255.0</ele><time>2026-05-04T14:17:02.001Z</time></trkpt><trkpt lat="41.53762540112159" lon="0.834997745875574"><ele>255.0</ele><time>2026-05-04T14:17:03.001Z</time></trkpt><trkpt lat="41.53755266373357" lon="0.8351083834334434"><ele>255.0</ele><time>2026-05-04T14:17:04.001Z</time></trkpt><trkpt lat="41.53749871771947" lon="0.83523763994017"><ele>255.0</ele><time>2026-05-04T14:17:05.001Z</time></trkpt><trkpt lat="41.53743040569327" lon="0.8353469512421502"><ele>255.0</ele><time>2026-05-04T14:17:06.001Z</time></trkpt><trkpt lat="41.5373662970796" lon="0.8354623271565409"><ele>255.0</ele><time>2026-05-04T14:17:07.001Z</time></trkpt><trkpt lat="41.53730387321382" lon="0.8355840378926626"><ele>255.0</ele><time>2026-05-04T14:17:08.001Z</time></trkpt><trkpt lat="41.537235115318836" lon="0.8356996887687769"><ele>255.0</ele><time>2026-05-04T14:17:09.001Z</time></trkpt><trkpt lat="41.5371734522492" lon="0.8358167195936567"><ele>255.0</ele><time>2026-05-04T14:17:10.001Z</time></trkpt><trkpt lat="41.53711194620147" lon="0.8359374930793524"><ele>255.0</ele><time>2026-05-04T14:17:11.001Z</time></trkpt><trkpt lat="41.53704312513851" lon="0.8360534855565093"><ele>255.0</ele><time>2026-05-04T14:17:12.001Z</time></trkpt><trkpt lat="41.53697935378477" lon="0.8361703665621767"><ele>255.0</ele><time>2026-05-04T14:17:13.001Z</time></trkpt><trkpt lat="41.53691297208054" lon="0.8362880782125917"><ele>255.0</ele><time>2026-05-04T14:17:14.001Z</time></trkpt><trkpt lat="41.53684841981799" lon="0.8364047156381336"><ele>255.0</ele><time>2026-05-04T14:17:15.001Z</time></trkpt><trkpt lat="41.536785580945924" lon="0.8365229888170972"><ele>255.0</ele><time>2026-05-04T14:17:16.001Z</time></trkpt><trkpt lat="41.53671796268055" lon="0.8366399507933147"><ele>255.0</ele><time>2026-05-04T14:17:17.001Z</time></trkpt><trkpt lat="41.53665844298536" lon="0.8367563030486853"><ele>255.2</ele><time>2026-05-04T14:17:18.001Z</time></trkpt><trkpt lat="41.53658929193752" lon="0.8368699411826319"><ele>255.4</ele><time>2026-05-04T14:17:19.001Z</time></trkpt><trkpt lat="41.53652736884319" lon="0.836987535438313"><ele>255.60000000000002</ele><time>2026-05-04T14:17:20.001Z</time></trkpt><trkpt lat="41.53646435269548" lon="0.8371032674551473"><ele>255.8</ele><time>2026-05-04T14:17:21.001Z</time></trkpt><trkpt lat="41.53640279823784" lon="0.8372156287510157"><ele>256.0</ele><time>2026-05-04T14:17:22.001Z</time></trkpt><trkpt lat="41.5363391931977" lon="0.8373312171824779"><ele>256.0</ele><time>2026-05-04T14:17:23.001Z</time></trkpt><trkpt lat="41.536274815916215" lon="0.8374448298541426"><ele>256.0</ele><time>2026-05-04T14:17:24.001Z</time></trkpt><trkpt lat="41.53621266728776" lon="0.8375631320318141"><ele>256.0</ele><time>2026-05-04T14:17:25.001Z</time></trkpt><trkpt lat="41.536147473238465" lon="0.8376794283845249"><ele>256.0</ele><time>2026-05-04T14:17:26.001Z</time></trkpt><trkpt lat="41.536085008321315" lon="0.8377945969325227"><ele>256.0</ele><time>2026-05-04T14:17:27.001Z</time></trkpt><trkpt lat="41.536018109212044" lon="0.8379057960544836"><ele>255.8</ele><time>2026-05-04T14:17:28.002Z</time></trkpt><trkpt lat="41.53595958448166" lon="0.8380236188903006"><ele>255.60000000000002</ele><time>2026-05-04T14:17:29.002Z</time></trkpt><trkpt lat="41.53589639588771" lon="0.8381390195890588"><ele>255.4</ele><time>2026-05-04T14:17:30.002Z</time></trkpt><trkpt lat="41.53583034228654" lon="0.8382525339892549"><ele>255.2</ele><time>2026-05-04T14:17:31.002Z</time></trkpt><trkpt lat="41.53576613407161" lon="0.8383640412325284"><ele>255.0</ele><time>2026-05-04T14:17:32.002Z</time></trkpt><trkpt lat="41.53570232763969" lon="0.8384794873552885"><ele>255.6</ele><time>2026-05-04T14:17:33.002Z</time></trkpt><trkpt lat="41.535641297139" lon="0.8385968281733365"><ele>256.2</ele><time>2026-05-04T14:17:34.002Z</time></trkpt><trkpt lat="41.53557619308372" lon="0.838710014784286"><ele>256.8</ele><time>2026-05-04T14:17:35.002Z</time></trkpt><trkpt lat="41.535512221536486" lon="0.8388229452664616"><ele>257.4</ele><time>2026-05-04T14:17:36.002Z</time></trkpt><trkpt lat="41.53544732037444" lon="0.8389392951824711"><ele>258.0</ele><time>2026-05-04T14:17:37.002Z</time></trkpt><trkpt lat="41.535386375133704" lon="0.8390587821207939"><ele>258.0</ele><time>2026-05-04T14:17:38.002Z</time></trkpt><trkpt lat="41.53532181532605" lon="0.8391732670069183"><ele>258.0</ele><time>2026-05-04T14:17:39.002Z</time></trkpt><trkpt lat="41.53525520502036" lon="0.8392900635765594"><ele>258.0</ele><time>2026-05-04T14:17:40.002Z</time></trkpt><trkpt lat="41.53519160728946" lon="0.8394127551695975"><ele>258.0</ele><time>2026-05-04T14:17:41.002Z</time></trkpt><trkpt lat="41.5351248221503" lon="0.839528936192477"><ele>258.0</ele><time>2026-05-04T14:17:42.002Z</time></trkpt><trkpt lat="41.53506000773197" lon="0.8396476879346462"><ele>258.0</ele><time>2026-05-04T14:17:43.002Z</time></trkpt><trkpt lat="41.53499703337313" lon="0.8397710841394994"><ele>258.0</ele><time>2026-05-04T14:17:44.002Z</time></trkpt><trkpt lat="41.5349261388442" lon="0.8398772360756727"><ele>258.0</ele><time>2026-05-04T14:17:45.002Z</time></trkpt><trkpt lat="41.53487890460045" lon="0.839963158869943"><ele>258.0</ele><time>2026-05-04T14:17:46.002Z</time></trkpt><trkpt lat="41.53481464664608" lon="0.8400800490593496"><ele>258.0</ele><time>2026-05-04T14:17:47.002Z</time></trkpt><trkpt lat="41.534737987605254" lon="0.8402521479564244"><ele>258.25</ele><time>2026-05-04T14:17:48.002Z</time></trkpt><trkpt lat="41.53466209928953" lon="0.8403677164609774"><ele>258.5</ele><time>2026-05-04T14:17:49.002Z</time></trkpt><trkpt lat="41.534596841135254" lon="0.8404924447357195"><ele>258.75</ele><time>2026-05-04T14:17:50.002Z</time></trkpt><trkpt lat="41.5345257744036" lon="0.8406121087492181"><ele>259.0</ele><time>2026-05-04T14:17:51.002Z</time></trkpt><trkpt lat="41.53445766365632" lon="0.8407330659357977"><ele>259.0</ele><time>2026-05-04T14:17:52.002Z</time></trkpt><trkpt lat="41.534390211252266" lon="0.8408588518212423"><ele>259.0</ele><time>2026-05-04T14:17:53.002Z</time></trkpt><trkpt lat="41.53431959788676" lon="0.8409828173636552"><ele>259.0</ele><time>2026-05-04T14:17:54.002Z</time></trkpt><trkpt lat="41.534247719555" lon="0.8411075687980472"><ele>259.0</ele><time>2026-05-04T14:17:55Z</time></trkpt><trkpt lat="41.534178138043565" lon="0.8412331002018472"><ele>258.0</ele><time>2026-05-04T14:17:56Z</time></trkpt><trkpt lat="41.53411219274864" lon="0.8413611396548814"><ele>257.0</ele><time>2026-05-04T14:17:57Z</time></trkpt><trkpt lat="41.534042006288075" lon="0.8414890572596262"><ele>256.0</ele><time>2026-05-04T14:17:58Z</time></trkpt><trkpt lat="41.53397259297025" lon="0.8416191680172641"><ele>255.0</ele><time>2026-05-04T14:17:59Z</time></trkpt><trkpt lat="41.53390098501511" lon="0.8417457770678649"><ele>255.0</ele><time>2026-05-04T14:18:00Z</time></trkpt><trkpt lat="41.53383024570453" lon="0.8418722831679559"><ele>255.0</ele><time>2026-05-04T14:18:01Z</time></trkpt><trkpt lat="41.53376103812873" lon="0.8419998305045368"><ele>255.0</ele><time>2026-05-04T14:18:02Z</time></trkpt><trkpt lat="41.53369395579675" lon="0.8421301901703159"><ele>255.0</ele><time>2026-05-04T14:18:03Z</time></trkpt><trkpt lat="41.533627341974075" lon="0.8422571227229798"><ele>255.25</ele><time>2026-05-04T14:18:04Z</time></trkpt><trkpt lat="41.53355722367545" lon="0.8423827364725583"><ele>255.5</ele><time>2026-05-04T14:18:05Z</time></trkpt><trkpt lat="41.53348505830258" lon="0.8425111593187068"><ele>255.75</ele><time>2026-05-04T14:18:06Z</time></trkpt><trkpt lat="41.53341129478491" lon="0.8426339743377447"><ele>256.0</ele><time>2026-05-04T14:18:07Z</time></trkpt><trkpt lat="41.533346200164175" lon="0.8427627075276246"><ele>256.25</ele><time>2026-05-04T14:18:08Z</time></trkpt><trkpt lat="41.533276167821285" lon="0.8428894034777764"><ele>256.5</ele><time>2026-05-04T14:18:09Z</time></trkpt><trkpt lat="41.53320419920513" lon="0.8430123919009197"><ele>256.75</ele><time>2026-05-04T14:18:10Z</time></trkpt><trkpt lat="41.5331354272323" lon="0.8431390857765886"><ele>257.0</ele><time>2026-05-04T14:18:11Z</time></trkpt><trkpt lat="41.53307217580682" lon="0.8432661711377677"><ele>257.0</ele><time>2026-05-04T14:18:12Z</time></trkpt><trkpt lat="41.53300365061493" lon="0.8433880924314592"><ele>257.0</ele><time>2026-05-04T14:18:13Z</time></trkpt><trkpt lat="41.53293058995182" lon="0.8435069625415151"><ele>257.0</ele><time>2026-05-04T14:18:14Z</time></trkpt><trkpt lat="41.5328637191737" lon="0.8436271014041798"><ele>257.0</ele><time>2026-05-04T14:18:15Z</time></trkpt><trkpt lat="41.53280414985986" lon="0.8437413456842898"><ele>257.0</ele><time>2026-05-04T14:18:16Z</time></trkpt><trkpt lat="41.53274497324388" lon="0.8438303602585644"><ele>258.0</ele><time>2026-05-04T14:18:17Z</time></trkpt><trkpt lat="41.53267152079771" lon="0.8439881550709812"><ele>259.0</ele><time>2026-05-04T14:18:18Z</time></trkpt><trkpt lat="41.53260843257413" lon="0.8441046495056902"><ele>260.0</ele><time>2026-05-04T14:18:19Z</time></trkpt><trkpt lat="41.53254855817188" lon="0.844216779837611"><ele>261.0</ele><time>2026-05-04T14:18:20Z</time></trkpt><trkpt lat="41.532487665706476" lon="0.8443252076176062"><ele>261.0</ele><time>2026-05-04T14:18:21Z</time></trkpt><trkpt lat="41.532426896148536" lon="0.8444327133965929"><ele>261.0</ele><time>2026-05-04T14:18:22Z</time></trkpt><trkpt lat="41.53236515146046" lon="0.8445404393802353"><ele>261.0</ele><time>2026-05-04T14:18:23Z</time></trkpt><trkpt lat="41.5323059037088" lon="0.8446458944635802"><ele>261.0</ele><time>2026-05-04T14:18:24Z</time></trkpt><trkpt lat="41.53224542301151" lon="0.844749610486979"><ele>261.0</ele><time>2026-05-04T14:18:25Z</time></trkpt><trkpt lat="41.53218223004183" lon="0.8448487178270405"><ele>261.0</ele><time>2026-05-04T14:18:26Z</time></trkpt><trkpt lat="41.53212202235371" lon="0.8449492354702934"><ele>261.0</ele><time>2026-05-04T14:18:27Z</time></trkpt><trkpt lat="41.532060401284475" lon="0.8450489411182759"><ele>261.0</ele><time>2026-05-04T14:18:28Z</time></trkpt><trkpt lat="41.53200018848431" lon="0.8451507443002025"><ele>261.0</ele><time>2026-05-04T14:18:29Z</time></trkpt><trkpt lat="41.53194173927969" lon="0.845247395611425"><ele>261.0</ele><time>2026-05-04T14:18:30Z</time></trkpt><trkpt lat="41.53188706212463" lon="0.8453492997446358"><ele>262.2</ele><time>2026-05-04T14:18:31Z</time></trkpt><trkpt lat="41.531834063170784" lon="0.845453099538499"><ele>263.40000000000003</ele><time>2026-05-04T14:18:32Z</time></trkpt><trkpt lat="41.531774563898765" lon="0.8455515970529459"><ele>264.6</ele><time>2026-05-04T14:18:33Z</time></trkpt><trkpt lat="41.53171347612634" lon="0.8456495858762785"><ele>265.8</ele><time>2026-05-04T14:18:34.001Z</time></trkpt><trkpt lat="41.53165688132081" lon="0.8457504325162745"><ele>267.0</ele><time>2026-05-04T14:18:35.001Z</time></trkpt><trkpt lat="41.53160142988862" lon="0.8458496950397117"><ele>267.0</ele><time>2026-05-04T14:18:36.001Z</time></trkpt><trkpt lat="41.531545998370945" lon="0.8459469703210846"><ele>267.0</ele><time>2026-05-04T14:18:37.001Z</time></trkpt><trkpt lat="41.531486409992226" lon="0.8460470840700238"><ele>267.0</ele><time>2026-05-04T14:18:38.001Z</time></trkpt><trkpt lat="41.531433940666155" lon="0.8461421125032287"><ele>267.0</ele><time>2026-05-04T14:18:39.001Z</time></trkpt><trkpt lat="41.531380033346665" lon="0.8462454088831984"><ele>267.0</ele><time>2026-05-04T14:18:40.001Z</time></trkpt><trkpt lat="41.53132075598377" lon="0.8463459939334874"><ele>267.4</ele><time>2026-05-04T14:18:41.001Z</time></trkpt><trkpt lat="41.53126695355327" lon="0.8464505900292598"><ele>267.79999999999995</ele><time>2026-05-04T14:18:42.001Z</time></trkpt><trkpt lat="41.53121221947868" lon="0.8465516373175075"><ele>268.2</ele><time>2026-05-04T14:18:43.001Z</time></trkpt><trkpt lat="41.53115730468602" lon="0.8466577178797383"><ele>268.59999999999997</ele><time>2026-05-04T14:18:44.001Z</time></trkpt><trkpt lat="41.531097231338194" lon="0.8467642706278495"><ele>269.0</ele><time>2026-05-04T14:18:45.001Z</time></trkpt><trkpt lat="41.53103755522052" lon="0.8468697236315763"><ele>269.8</ele><time>2026-05-04T14:18:46.001Z</time></trkpt><trkpt lat="41.53097984110158" lon="0.8469736075728019"><ele>270.59999999999997</ele><time>2026-05-04T14:18:47.001Z</time></trkpt><trkpt lat="41.530922904704305" lon="0.8470820647743846"><ele>271.4</ele><time>2026-05-04T14:18:48.001Z</time></trkpt><trkpt lat="41.53086246554015" lon="0.8471931553099061"><ele>272.2</ele><time>2026-05-04T14:18:49.001Z</time></trkpt><trkpt lat="41.53079989526223" lon="0.8472987256713942"><ele>273.0</ele><time>2026-05-04T14:18:50.001Z</time></trkpt><trkpt lat="41.53073658684613" lon="0.8474050631826454"><ele>273.0</ele><time>2026-05-04T14:18:51.001Z</time></trkpt><trkpt lat="41.530678972694815" lon="0.8475204995516329"><ele>273.0</ele><time>2026-05-04T14:18:52.001Z</time></trkpt><trkpt lat="41.530616237555726" lon="0.8476330721878369"><ele>273.0</ele><time>2026-05-04T14:18:53.001Z</time></trkpt><trkpt lat="41.53055406445172" lon="0.8477475824095252"><ele>273.0</ele><time>2026-05-04T14:18:54.001Z</time></trkpt><trkpt lat="41.53048741665681" lon="0.8478626437863883"><ele>273.0</ele><time>2026-05-04T14:18:55.001Z</time></trkpt><trkpt lat="41.530426905207065" lon="0.8479826180894351"><ele>273.4</ele><time>2026-05-04T14:18:56.001Z</time></trkpt><trkpt lat="41.53036147229376" lon="0.8481012889593629"><ele>273.8</ele><time>2026-05-04T14:18:57.001Z</time></trkpt><trkpt lat="41.53029475909611" lon="0.8482161528483899"><ele>274.2</ele><time>2026-05-04T14:18:58.001Z</time></trkpt><trkpt lat="41.53023329356676" lon="0.8483325019273975"><ele>274.6</ele><time>2026-05-04T14:18:59.001Z</time></trkpt><trkpt lat="41.53016932246712" lon="0.848447821468694"><ele>275.0</ele><time>2026-05-04T14:19:00.001Z</time></trkpt><trkpt lat="41.530105514658956" lon="0.8485618694498107"><ele>275.0</ele><time>2026-05-04T14:19:01.001Z</time></trkpt><trkpt lat="41.530039999831345" lon="0.8486747555331124"><ele>275.0</ele><time>2026-05-04T14:19:02.001Z</time></trkpt><trkpt lat="41.52997594893089" lon="0.8487915103245447"><ele>275.0</ele><time>2026-05-04T14:19:03.001Z</time></trkpt><trkpt lat="41.52991677659893" lon="0.8489120008272515"><ele>275.0</ele><time>2026-05-04T14:19:04.001Z</time></trkpt><trkpt lat="41.52985169526607" lon="0.8490299582029397"><ele>275.0</ele><time>2026-05-04T14:19:05.001Z</time></trkpt><trkpt lat="41.52978905251243" lon="0.8491484040518459"><ele>275.0</ele><time>2026-05-04T14:19:06.001Z</time></trkpt><trkpt lat="41.52972925759174" lon="0.8492722158386575"><ele>275.0</ele><time>2026-05-04T14:19:07.001Z</time></trkpt><trkpt lat="41.529666537460514" lon="0.8493955868659058"><ele>275.0</ele><time>2026-05-04T14:19:08.001Z</time></trkpt><trkpt lat="41.52960486338966" lon="0.8495185953796931"><ele>275.0</ele><time>2026-05-04T14:19:09.001Z</time></trkpt><trkpt lat="41.52953234807277" lon="0.8496278242152359"><ele>275.0</ele><time>2026-05-04T14:19:10.001Z</time></trkpt><trkpt lat="41.529457401832175" lon="0.8497200351070642"><ele>275.0</ele><time>2026-05-04T14:19:11.001Z</time></trkpt><trkpt lat="41.529365048662704" lon="0.8497843587465578"><ele>275.0</ele><time>2026-05-04T14:19:13.001Z</time></trkpt><trkpt lat="41.5292039537252" lon="0.8502598913056068"><ele>275.0</ele><time>2026-05-04T14:19:15.001Z</time></trkpt><trkpt lat="41.529137291574436" lon="0.8503895999393074"><ele>275.0</ele><time>2026-05-04T14:19:16.001Z</time></trkpt><trkpt lat="41.52907314287947" lon="0.8505204727154224"><ele>275.0</ele><time>2026-05-04T14:19:17.001Z</time></trkpt><trkpt lat="41.529006111174155" lon="0.85065132332497"><ele>275.0</ele><time>2026-05-04T14:19:18.001Z</time></trkpt><trkpt lat="41.52894408387495" lon="0.8507836111340525"><ele>275.0</ele><time>2026-05-04T14:19:19.001Z</time></trkpt><trkpt lat="41.528883467127756" lon="0.850919691060958"><ele>275.0</ele><time>2026-05-04T14:19:20.001Z</time></trkpt><trkpt lat="41.52881855831525" lon="0.8510454809583949"><ele>275.0</ele><time>2026-05-04T14:19:21.001Z</time></trkpt><trkpt lat="41.52875497153896" lon="0.8511699230477803"><ele>275.0</ele><time>2026-05-04T14:19:22.001Z</time></trkpt><trkpt lat="41.52869307582835" lon="0.8512982304534525"><ele>274.5</ele><time>2026-05-04T14:19:23.001Z</time></trkpt><trkpt lat="41.52862908305749" lon="0.8514218686739372"><ele>274.0</ele><time>2026-05-04T14:19:24.001Z</time></trkpt><trkpt lat="41.528564563570924" lon="0.8515507279634458"><ele>273.5</ele><time>2026-05-04T14:19:25.001Z</time></trkpt><trkpt lat="41.52850081047102" lon="0.8516830531401859"><ele>273.0</ele><time>2026-05-04T14:19:26.001Z</time></trkpt><trkpt lat="41.52843356856339" lon="0.8518112779213547"><ele>273.0</ele><time>2026-05-04T14:19:27.001Z</time></trkpt><trkpt lat="41.5283657925222" lon="0.8519323638574587"><ele>273.0</ele><time>2026-05-04T14:19:28.001Z</time></trkpt><trkpt lat="41.528305345572" lon="0.8520600540436322"><ele>273.0</ele><time>2026-05-04T14:19:29.001Z</time></trkpt><trkpt lat="41.52823999904745" lon="0.85218806677869"><ele>273.0</ele><time>2026-05-04T14:19:30.001Z</time></trkpt><trkpt lat="41.528174980981966" lon="0.8523172530422105"><ele>273.0</ele><time>2026-05-04T14:19:31.002Z</time></trkpt><trkpt lat="41.52811005356867" lon="0.8524434504466627"><ele>273.0</ele><time>2026-05-04T14:19:32.002Z</time></trkpt><trkpt lat="41.528045846312644" lon="0.8525712163475572"><ele>273.0</ele><time>2026-05-04T14:19:33.002Z</time></trkpt><trkpt lat="41.52798197792026" lon="0.852696284846218"><ele>273.0</ele><time>2026-05-04T14:19:34.002Z</time></trkpt><trkpt lat="41.52791698284973" lon="0.852825150831642"><ele>273.0</ele><time>2026-05-04T14:19:35.002Z</time></trkpt><trkpt lat="41.52785181380123" lon="0.8529526582198427"><ele>273.0</ele><time>2026-05-04T14:19:36.002Z</time></trkpt><trkpt lat="41.52778463963693" lon="0.8530760503866353"><ele>273.0</ele><time>2026-05-04T14:19:37.002Z</time></trkpt><trkpt lat="41.527719896836764" lon="0.8531952299988789"><ele>273.0</ele><time>2026-05-04T14:19:38.002Z</time></trkpt><trkpt lat="41.52765523644875" lon="0.8533231077830914"><ele>273.0</ele><time>2026-05-04T14:19:39.002Z</time></trkpt><trkpt lat="41.527595689396605" lon="0.8534512996887499"><ele>273.0</ele><time>2026-05-04T14:19:40.002Z</time></trkpt><trkpt lat="41.527532459638124" lon="0.8535755976073225"><ele>273.0</ele><time>2026-05-04T14:19:41.002Z</time></trkpt><trkpt lat="41.52746619696846" lon="0.8536973727129776"><ele>273.0</ele><time>2026-05-04T14:19:42.002Z</time></trkpt><trkpt lat="41.527402264251485" lon="0.8538229533622929"><ele>272.75</ele><time>2026-05-04T14:19:43.002Z</time></trkpt><trkpt lat="41.52733818732452" lon="0.8539488713956909"><ele>272.5</ele><time>2026-05-04T14:19:44.002Z</time></trkpt><trkpt lat="41.52727789304927" lon="0.8540780742090758"><ele>272.25</ele><time>2026-05-04T14:19:45.002Z</time></trkpt><trkpt lat="41.527215589845966" lon="0.8542050334924421"><ele>272.0</ele><time>2026-05-04T14:19:46.002Z</time></trkpt><trkpt lat="41.52715759739782" lon="0.8543341941599791"><ele>272.5</ele><time>2026-05-04T14:19:47.002Z</time></trkpt><trkpt lat="41.52709840196301" lon="0.8544651811478519"><ele>273.0</ele><time>2026-05-04T14:19:48.002Z</time></trkpt><trkpt lat="41.52704339740915" lon="0.8545960820288061"><ele>273.5</ele><time>2026-05-04T14:19:49.002Z</time></trkpt><trkpt lat="41.52699044712005" lon="0.8547210485201199"><ele>274.0</ele><time>2026-05-04T14:19:50.002Z</time></trkpt><trkpt lat="41.52692737910591" lon="0.8548539840446582"><ele>274.2</ele><time>2026-05-04T14:19:51.002Z</time></trkpt><trkpt lat="41.52687587676522" lon="0.8549939039660468"><ele>274.4</ele><time>2026-05-04T14:19:52.002Z</time></trkpt><trkpt lat="41.52682109268769" lon="0.8551173770712742"><ele>274.6</ele><time>2026-05-04T14:19:53.002Z</time></trkpt><trkpt lat="41.52674691074192" lon="0.8552413875256389"><ele>274.8</ele><time>2026-05-04T14:19:54.002Z</time></trkpt><trkpt lat="41.52669771694828" lon="0.8553662534692957"><ele>275.0</ele><time>2026-05-04T14:19:55.002Z</time></trkpt><trkpt lat="41.52666775038003" lon="0.8554830948393076"><ele>274.5</ele><time>2026-05-04T14:19:56.002Z</time></trkpt><trkpt lat="41.52664234292448" lon="0.8555610866902282"><ele>274.0</ele><time>2026-05-04T14:19:57.002Z</time></trkpt><trkpt lat="41.52660517054488" lon="0.8556355202240329"><ele>273.5</ele><time>2026-05-04T14:19:58.002Z</time></trkpt><trkpt lat="41.526531147695074" lon="0.8558551909135085"><ele>273.0</ele><time>2026-05-04T14:19:59.002Z</time></trkpt><trkpt lat="41.52637679732854" lon="0.8559680769584597"><ele>272.75</ele><time>2026-05-04T14:20:00.002Z</time></trkpt><trkpt lat="41.52629022215737" lon="0.8560972448345683"><ele>272.5</ele><time>2026-05-04T14:20:01Z</time></trkpt><trkpt lat="41.52621886586441" lon="0.8561965421731982"><ele>272.25</ele><time>2026-05-04T14:20:02Z</time></trkpt><trkpt lat="41.52614791027592" lon="0.8563066070804415"><ele>272.0</ele><time>2026-05-04T14:20:03Z</time></trkpt><trkpt lat="41.526076837230356" lon="0.8564161529668993"><ele>272.0</ele><time>2026-05-04T14:20:04Z</time></trkpt><trkpt lat="41.526004366169374" lon="0.856524385666938"><ele>272.0</ele><time>2026-05-04T14:20:05Z</time></trkpt><trkpt lat="41.52592811260082" lon="0.8566247194480386"><ele>272.0</ele><time>2026-05-04T14:20:06Z</time></trkpt><trkpt lat="41.525853713889056" lon="0.8567237744860171"><ele>272.0</ele><time>2026-05-04T14:20:07Z</time></trkpt><trkpt lat="41.52577775615407" lon="0.8568217079281716"><ele>272.0</ele><time>2026-05-04T14:20:08Z</time></trkpt><trkpt lat="41.5257008352773" lon="0.8569172801201572"><ele>272.0</ele><time>2026-05-04T14:20:09Z</time></trkpt><trkpt lat="41.52562263618202" lon="0.8570112487892023"><ele>272.0</ele><time>2026-05-04T14:20:10Z</time></trkpt><trkpt lat="41.52554342197983" lon="0.8571020276008847"><ele>272.0</ele><time>2026-05-04T14:20:11Z</time></trkpt><trkpt lat="41.52546263209493" lon="0.8571912241453441"><ele>272.0</ele><time>2026-05-04T14:20:12Z</time></trkpt><trkpt lat="41.525383149769596" lon="0.8572781920324901"><ele>272.0</ele><time>2026-05-04T14:20:13Z</time></trkpt><trkpt lat="41.52530047017722" lon="0.8573637512052881"><ele>272.0</ele><time>2026-05-04T14:20:14Z</time></trkpt><trkpt lat="41.525217831053205" lon="0.8574480296310729"><ele>272.0</ele><time>2026-05-04T14:20:15Z</time></trkpt><trkpt lat="41.525129162761715" lon="0.8575237955960223"><ele>272.0</ele><time>2026-05-04T14:20:16Z</time></trkpt><trkpt lat="41.52504011219365" lon="0.8575988168208267"><ele>272.0</ele><time>2026-05-04T14:20:17Z</time></trkpt><trkpt lat="41.5249491423575" lon="0.8576708420747892"><ele>272.0</ele><time>2026-05-04T14:20:18Z</time></trkpt><trkpt lat="41.52485946005457" lon="0.8577385963492598"><ele>271.8</ele><time>2026-05-04T14:20:19Z</time></trkpt><trkpt lat="41.52476945426888" lon="0.8578093332194376"><ele>271.6</ele><time>2026-05-04T14:20:20Z</time></trkpt><trkpt lat="41.52467677384557" lon="0.8578753257726929"><ele>271.40000000000003</ele><time>2026-05-04T14:20:21Z</time></trkpt><trkpt lat="41.524583241996304" lon="0.8579381498692982"><ele>271.2</ele><time>2026-05-04T14:20:22Z</time></trkpt><trkpt lat="41.524487556807934" lon="0.8579965398393428"><ele>271.0</ele><time>2026-05-04T14:20:23Z</time></trkpt><trkpt lat="41.5243881774861" lon="0.8580503694535159"><ele>271.40000000000003</ele><time>2026-05-04T14:20:24Z</time></trkpt><trkpt lat="41.52428978351884" lon="0.8581063077224209"><ele>271.8</ele><time>2026-05-04T14:20:25Z</time></trkpt><trkpt lat="41.52419113577444" lon="0.8581593496875375"><ele>272.20000000000005</ele><time>2026-05-04T14:20:26Z</time></trkpt><trkpt lat="41.52409133703929" lon="0.8582077410409791"><ele>272.6</ele><time>2026-05-04T14:20:27Z</time></trkpt><trkpt lat="41.52398604799037" lon="0.8582529524168767"><ele>273.0</ele><time>2026-05-04T14:20:28Z</time></trkpt><trkpt lat="41.52388323344957" lon="0.8582956669768176"><ele>273.0</ele><time>2026-05-04T14:20:29Z</time></trkpt><trkpt lat="41.52377704676595" lon="0.858337466932226"><ele>273.0</ele><time>2026-05-04T14:20:30Z</time></trkpt><trkpt lat="41.52366886506752" lon="0.8583751551808996"><ele>273.0</ele><time>2026-05-04T14:20:31Z</time></trkpt><trkpt lat="41.52356238487475" lon="0.8584131806978371"><ele>273.0</ele><time>2026-05-04T14:20:32Z</time></trkpt><trkpt lat="41.523457944236384" lon="0.8584401474525891"><ele>273.0</ele><time>2026-05-04T14:20:33Z</time></trkpt><trkpt lat="41.523350470961624" lon="0.8584657250193248"><ele>273.75</ele><time>2026-05-04T14:20:34Z</time></trkpt><trkpt lat="41.523231756550935" lon="0.8584784452499179"><ele>274.5</ele><time>2026-05-04T14:20:35Z</time></trkpt><trkpt lat="41.52311661708887" lon="0.8585063459298617"><ele>275.25</ele><time>2026-05-04T14:20:36Z</time></trkpt><trkpt lat="41.52300798070164" lon="0.8585243300093532"><ele>276.0</ele><time>2026-05-04T14:20:37Z</time></trkpt><trkpt lat="41.52289552937494" lon="0.8585337744012126"><ele>276.0</ele><time>2026-05-04T14:20:38Z</time></trkpt><trkpt lat="41.52278336624386" lon="0.8585487405411524"><ele>276.0</ele><time>2026-05-04T14:20:39Z</time></trkpt><trkpt lat="41.52266421600638" lon="0.8585456349902713"><ele>276.0</ele><time>2026-05-04T14:20:40Z</time></trkpt><trkpt lat="41.522557500120655" lon="0.8585514637677742"><ele>276.0</ele><time>2026-05-04T14:20:41Z</time></trkpt><trkpt lat="41.522441791751945" lon="0.8585429136218478"><ele>276.0</ele><time>2026-05-04T14:20:42Z</time></trkpt><trkpt lat="41.52232590136436" lon="0.8585242831137881"><ele>276.0</ele><time>2026-05-04T14:20:43Z</time></trkpt><trkpt lat="41.52221190338257" lon="0.8585021680229526"><ele>276.0</ele><time>2026-05-04T14:20:44Z</time></trkpt><trkpt lat="41.522093443733816" lon="0.8584821482214543"><ele>276.0</ele><time>2026-05-04T14:20:45Z</time></trkpt><trkpt lat="41.52197963022283" lon="0.858462602394199"><ele>276.0</ele><time>2026-05-04T14:20:46Z</time></trkpt><trkpt lat="41.52186356166883" lon="0.8584465047751306"><ele>276.0</ele><time>2026-05-04T14:20:47Z</time></trkpt><trkpt lat="41.52174767575597" lon="0.8584267049612275"><ele>276.0</ele><time>2026-05-04T14:20:48Z</time></trkpt><trkpt lat="41.52163465368667" lon="0.8584054818875673"><ele>276.0</ele><time>2026-05-04T14:20:49.001Z</time></trkpt><trkpt lat="41.52151931569449" lon="0.8583834436757959"><ele>276.0</ele><time>2026-05-04T14:20:50.001Z</time></trkpt><trkpt lat="41.52140519879825" lon="0.8583666095226954"><ele>276.0</ele><time>2026-05-04T14:20:51.001Z</time></trkpt><trkpt lat="41.52129074455862" lon="0.8583509996687168"><ele>276.0</ele><time>2026-05-04T14:20:52.001Z</time></trkpt><trkpt lat="41.52117541047134" lon="0.8583352093493859"><ele>276.0</ele><time>2026-05-04T14:20:53.001Z</time></trkpt><trkpt lat="41.521059534203125" lon="0.8583188064494774"><ele>277.0</ele><time>2026-05-04T14:20:54.001Z</time></trkpt><trkpt lat="41.52094210105206" lon="0.8583017819033235"><ele>278.0</ele><time>2026-05-04T14:20:55.001Z</time></trkpt><trkpt lat="41.52082521820345" lon="0.8582808360457039"><ele>279.0</ele><time>2026-05-04T14:20:56.001Z</time></trkpt><trkpt lat="41.5207109389789" lon="0.8582590640260332"><ele>280.0</ele><time>2026-05-04T14:20:57.001Z</time></trkpt><trkpt lat="41.520593366068844" lon="0.8582433025022905"><ele>280.0</ele><time>2026-05-04T14:20:58.001Z</time></trkpt><trkpt lat="41.52048067089086" lon="0.8582268770172081"><ele>280.0</ele><time>2026-05-04T14:20:59.001Z</time></trkpt><trkpt lat="41.52036483230126" lon="0.8581946822753721"><ele>280.0</ele><time>2026-05-04T14:21:00.001Z</time></trkpt><trkpt lat="41.52025137813762" lon="0.8581853790414323"><ele>280.0</ele><time>2026-05-04T14:21:01.001Z</time></trkpt><trkpt lat="41.52013707625464" lon="0.8582006783332163"><ele>280.4</ele><time>2026-05-04T14:21:02.001Z</time></trkpt><trkpt lat="41.52002441931579" lon="0.858192058365637"><ele>280.8</ele><time>2026-05-04T14:21:03.001Z</time></trkpt><trkpt lat="41.519916151988134" lon="0.8581899950931692"><ele>281.2</ele><time>2026-05-04T14:21:04.001Z</time></trkpt><trkpt lat="41.51979658368879" lon="0.8581835584130332"><ele>281.6</ele><time>2026-05-04T14:21:05.001Z</time></trkpt><trkpt lat="41.5196921102815" lon="0.8581845536530878"><ele>282.0</ele><time>2026-05-04T14:21:06.001Z</time></trkpt><trkpt lat="41.519575154509" lon="0.8581879321436463"><ele>281.0</ele><time>2026-05-04T14:21:07.001Z</time></trkpt><trkpt lat="41.51946188011923" lon="0.8581910347018722"><ele>280.0</ele><time>2026-05-04T14:21:08.001Z</time></trkpt><trkpt lat="41.51934878255834" lon="0.8581951383158575"><ele>279.0</ele><time>2026-05-04T14:21:09.001Z</time></trkpt><trkpt lat="41.519238326267335" lon="0.8582051600695245"><ele>278.0</ele><time>2026-05-04T14:21:10.001Z</time></trkpt><trkpt lat="41.519125802710626" lon="0.8582147409582268"><ele>278.0</ele><time>2026-05-04T14:21:11.001Z</time></trkpt><trkpt lat="41.51901355711639" lon="0.858229483012429"><ele>278.0</ele><time>2026-05-04T14:21:12.001Z</time></trkpt><trkpt lat="41.518899695625336" lon="0.858245823316058"><ele>278.0</ele><time>2026-05-04T14:21:13.001Z</time></trkpt><trkpt lat="41.51878731971263" lon="0.8582603883116027"><ele>278.0</ele><time>2026-05-04T14:21:14.001Z</time></trkpt><trkpt lat="41.51867836198223" lon="0.8582809096062318"><ele>278.8</ele><time>2026-05-04T14:21:15.001Z</time></trkpt><trkpt lat="41.51857731839973" lon="0.858297686164674"><ele>279.6</ele><time>2026-05-04T14:21:16.001Z</time></trkpt><trkpt lat="41.51846469577144" lon="0.8583125186278138"><ele>280.4</ele><time>2026-05-04T14:21:17.001Z</time></trkpt><trkpt lat="41.51834461840813" lon="0.8583395478938061"><ele>281.2</ele><time>2026-05-04T14:21:18.001Z</time></trkpt><trkpt lat="41.51824337014522" lon="0.8583586245397855"><ele>282.0</ele><time>2026-05-04T14:21:19.001Z</time></trkpt><trkpt lat="41.5181473882255" lon="0.858382256211719"><ele>282.0</ele><time>2026-05-04T14:21:20.001Z</time></trkpt><trkpt lat="41.517963128690006" lon="0.8584376653293906"><ele>282.0</ele><time>2026-05-04T14:21:22.001Z</time></trkpt><trkpt lat="41.517807613728664" lon="0.8584812260063458"><ele>282.0</ele><time>2026-05-04T14:21:23.001Z</time></trkpt><trkpt lat="41.5176843605767" lon="0.8585200478452124"><ele>282.4</ele><time>2026-05-04T14:21:24.001Z</time></trkpt><trkpt lat="41.517587505067986" lon="0.8585506511058016"><ele>282.79999999999995</ele><time>2026-05-04T14:21:25.001Z</time></trkpt><trkpt lat="41.51747894402579" lon="0.8585962770826675"><ele>283.2</ele><time>2026-05-04T14:21:26.001Z</time></trkpt><trkpt lat="41.517372585024965" lon="0.8586381607260092"><ele>283.59999999999997</ele><time>2026-05-04T14:21:27.001Z</time></trkpt><trkpt lat="41.517266753108935" lon="0.858679655241422"><ele>284.0</ele><time>2026-05-04T14:21:28.001Z</time></trkpt><trkpt lat="41.51716460200616" lon="0.8587245852565337"><ele>285.2</ele><time>2026-05-04T14:21:29.001Z</time></trkpt><trkpt lat="41.517061966133284" lon="0.8587646862312445"><ele>286.4</ele><time>2026-05-04T14:21:30.001Z</time></trkpt><trkpt lat="41.51696059795783" lon="0.8588160388329851"><ele>287.6</ele><time>2026-05-04T14:21:31.001Z</time></trkpt><trkpt lat="41.5168593215857" lon="0.8588636105955398"><ele>288.8</ele><time>2026-05-04T14:21:32.001Z</time></trkpt><trkpt lat="41.51675206169101" lon="0.8589132210787317"><ele>290.0</ele><time>2026-05-04T14:21:33.001Z</time></trkpt><trkpt lat="41.5166536021439" lon="0.8589626611981445"><ele>290.0</ele><time>2026-05-04T14:21:34.001Z</time></trkpt><trkpt lat="41.516551886806255" lon="0.8590201066441485"><ele>290.0</ele><time>2026-05-04T14:21:35.001Z</time></trkpt><trkpt lat="41.516448626251" lon="0.8590855039952663"><ele>290.0</ele><time>2026-05-04T14:21:36.001Z</time></trkpt><trkpt lat="41.51634678167563" lon="0.8591510151380344"><ele>290.0</ele><time>2026-05-04T14:21:37.001Z</time></trkpt><trkpt lat="41.51624698491146" lon="0.8592108933459374"><ele>290.0</ele><time>2026-05-04T14:21:38.001Z</time></trkpt><trkpt lat="41.51615278277736" lon="0.8592702570258219"><ele>289.6</ele><time>2026-05-04T14:21:39.001Z</time></trkpt><trkpt lat="41.51605188374616" lon="0.8593306699805413"><ele>289.2</ele><time>2026-05-04T14:21:40.001Z</time></trkpt><trkpt lat="41.51595591698593" lon="0.859396219757627"><ele>288.8</ele><time>2026-05-04T14:21:41.001Z</time></trkpt><trkpt lat="41.51585794602821" lon="0.8594632164514762"><ele>288.4</ele><time>2026-05-04T14:21:42.001Z</time></trkpt><trkpt lat="41.51576412736844" lon="0.8595342396634573"><ele>288.0</ele><time>2026-05-04T14:21:43.001Z</time></trkpt><trkpt lat="41.51566794813408" lon="0.8596069810867003"><ele>288.0</ele><time>2026-05-04T14:21:44.002Z</time></trkpt><trkpt lat="41.51557476047869" lon="0.8596857694049956"><ele>288.0</ele><time>2026-05-04T14:21:45.002Z</time></trkpt><trkpt lat="41.51548056542174" lon="0.8597570131063967"><ele>288.0</ele><time>2026-05-04T14:21:46.002Z</time></trkpt><trkpt lat="41.51538016216002" lon="0.8598430998929114"><ele>288.0</ele><time>2026-05-04T14:21:47.002Z</time></trkpt><trkpt lat="41.51529412383632" lon="0.8599115988614605"><ele>288.0</ele><time>2026-05-04T14:21:48.002Z</time></trkpt><trkpt lat="41.51521707580368" lon="0.8599605146739304"><ele>287.6666666666667</ele><time>2026-05-04T14:21:50.002Z</time></trkpt><trkpt lat="41.51501476918542" lon="0.8601667760622643"><ele>287.33333333333337</ele><time>2026-05-04T14:21:51.002Z</time></trkpt><trkpt lat="41.51492136414531" lon="0.8602555276249716"><ele>287.0</ele><time>2026-05-04T14:21:52.002Z</time></trkpt><trkpt lat="41.51483188901454" lon="0.8603473157035467"><ele>287.0</ele><time>2026-05-04T14:21:53.002Z</time></trkpt><trkpt lat="41.51474520357469" lon="0.860443893188322"><ele>287.0</ele><time>2026-05-04T14:21:54.002Z</time></trkpt><trkpt lat="41.51465845783368" lon="0.8605319695699862"><ele>287.0</ele><time>2026-05-04T14:21:55.002Z</time></trkpt><trkpt lat="41.51456507751733" lon="0.8606272956166224"><ele>287.0</ele><time>2026-05-04T14:21:56.002Z</time></trkpt><trkpt lat="41.514480658670124" lon="0.8607218013103958"><ele>287.4</ele><time>2026-05-04T14:21:57.002Z</time></trkpt><trkpt lat="41.514393581617064" lon="0.860821016749386"><ele>287.79999999999995</ele><time>2026-05-04T14:21:58.002Z</time></trkpt><trkpt lat="41.51431347830287" lon="0.8609146597142684"><ele>288.2</ele><time>2026-05-04T14:21:59.002Z</time></trkpt><trkpt lat="41.51423221341109" lon="0.8610145314910078"><ele>288.59999999999997</ele><time>2026-05-04T14:22:00.002Z</time></trkpt><trkpt lat="41.51415313377028" lon="0.8611129123184816"><ele>289.0</ele><time>2026-05-04T14:22:01.002Z</time></trkpt><trkpt lat="41.51407403149724" lon="0.8612136150561811"><ele>289.59999999999997</ele><time>2026-05-04T14:22:02.002Z</time></trkpt><trkpt lat="41.513995612951824" lon="0.8613209927132408"><ele>290.2</ele><time>2026-05-04T14:22:03.002Z</time></trkpt><trkpt lat="41.51391598275473" lon="0.861421682634246"><ele>290.79999999999995</ele><time>2026-05-04T14:22:04.002Z</time></trkpt><trkpt lat="41.513841545137" lon="0.8615299688392681"><ele>291.4</ele><time>2026-05-04T14:22:05.002Z</time></trkpt><trkpt lat="41.51377077343387" lon="0.8616339973398451"><ele>292.0</ele><time>2026-05-04T14:22:06.002Z</time></trkpt><trkpt lat="41.51369774385704" lon="0.8617361097222174"><ele>292.8</ele><time>2026-05-04T14:22:07Z</time></trkpt><trkpt lat="41.51362523113471" lon="0.8618473472745946"><ele>293.6</ele><time>2026-05-04T14:22:08Z</time></trkpt><trkpt lat="41.513553869696004" lon="0.8619507050660413"><ele>294.40000000000003</ele><time>2026-05-04T14:22:09Z</time></trkpt><trkpt lat="41.51348661963528" lon="0.8620589632886982"><ele>295.2</ele><time>2026-05-04T14:22:10Z</time></trkpt><trkpt lat="41.513417306692304" lon="0.8621712423185252"><ele>296.0</ele><time>2026-05-04T14:22:11Z</time></trkpt><trkpt lat="41.513350113972045" lon="0.8622802598878292"><ele>296.0</ele><time>2026-05-04T14:22:12Z</time></trkpt><trkpt lat="41.513284234382596" lon="0.8623931367227156"><ele>296.0</ele><time>2026-05-04T14:22:13Z</time></trkpt><trkpt lat="41.51322531393708" lon="0.8625063518553715"><ele>296.0</ele><time>2026-05-04T14:22:14Z</time></trkpt><trkpt lat="41.51315859805976" lon="0.8626212632870742"><ele>296.0</ele><time>2026-05-04T14:22:15Z</time></trkpt><trkpt lat="41.51309650397351" lon="0.8627345792158917"><ele>296.0</ele><time>2026-05-04T14:22:16Z</time></trkpt><trkpt lat="41.513030630906336" lon="0.8628502306904741"><ele>296.0</ele><time>2026-05-04T14:22:17Z</time></trkpt><trkpt lat="41.512970136327034" lon="0.8629684614953557"><ele>296.0</ele><time>2026-05-04T14:22:18Z</time></trkpt><trkpt lat="41.51291513295408" lon="0.8630901325153788"><ele>296.0</ele><time>2026-05-04T14:22:19Z</time></trkpt><trkpt lat="41.512860984778214" lon="0.8632105850205185"><ele>296.0</ele><time>2026-05-04T14:22:20Z</time></trkpt><trkpt lat="41.512803917319665" lon="0.8633305444986944"><ele>296.0</ele><time>2026-05-04T14:22:21Z</time></trkpt><trkpt lat="41.512745207856106" lon="0.8634477947850684"><ele>295.6</ele><time>2026-05-04T14:22:22Z</time></trkpt><trkpt lat="41.51269545765627" lon="0.8635713205743882"><ele>295.20000000000005</ele><time>2026-05-04T14:22:23Z</time></trkpt><trkpt lat="41.51264274427281" lon="0.8636888656567168"><ele>294.79999999999995</ele><time>2026-05-04T14:22:24Z</time></trkpt><trkpt lat="41.512586143117" lon="0.8638077547258863"><ele>294.4</ele><time>2026-05-04T14:22:25Z</time></trkpt><trkpt lat="41.51253771414488" lon="0.8639316401925484"><ele>294.0</ele><time>2026-05-04T14:22:26Z</time></trkpt><trkpt lat="41.51249064799645" lon="0.8640533850695921"><ele>294.0</ele><time>2026-05-04T14:22:27Z</time></trkpt><trkpt lat="41.512434792928055" lon="0.8641699008035112"><ele>294.0</ele><time>2026-05-04T14:22:28Z</time></trkpt><trkpt lat="41.51239172974128" lon="0.8642963346773181"><ele>294.0</ele><time>2026-05-04T14:22:29Z</time></trkpt><trkpt lat="41.512350054995984" lon="0.8644236368382154"><ele>294.0</ele><time>2026-05-04T14:22:30Z</time></trkpt><trkpt lat="41.512305961125435" lon="0.864552420718165"><ele>294.0</ele><time>2026-05-04T14:22:31Z</time></trkpt><trkpt lat="41.51226336853846" lon="0.8646801210809842"><ele>293.8</ele><time>2026-05-04T14:22:32Z</time></trkpt><trkpt lat="41.51221939931778" lon="0.8648103046247626"><ele>293.59999999999997</ele><time>2026-05-04T14:22:33Z</time></trkpt><trkpt lat="41.5121776103091" lon="0.8649395253224926"><ele>293.4</ele><time>2026-05-04T14:22:34Z</time></trkpt><trkpt lat="41.51213430760913" lon="0.8650694414862522"><ele>293.2</ele><time>2026-05-04T14:22:35Z</time></trkpt><trkpt lat="41.51209587701004" lon="0.8651995365143667"><ele>293.0</ele><time>2026-05-04T14:22:36Z</time></trkpt><trkpt lat="41.51205380726569" lon="0.8653307492078495"><ele>293.4</ele><time>2026-05-04T14:22:37Z</time></trkpt><trkpt lat="41.5120151677605" lon="0.8654620013078439"><ele>293.8</ele><time>2026-05-04T14:22:38Z</time></trkpt><trkpt lat="41.51197880197017" lon="0.8655929868065043"><ele>294.2</ele><time>2026-05-04T14:22:39Z</time></trkpt><trkpt lat="41.51194349006471" lon="0.865729592143586"><ele>294.6</ele><time>2026-05-04T14:22:40Z</time></trkpt><trkpt lat="41.51190334777458" lon="0.86585866086"><ele>295.0</ele><time>2026-05-04T14:22:41Z</time></trkpt><trkpt lat="41.511862134344895" lon="0.8659910228897194"><ele>295.2</ele><time>2026-05-04T14:22:42Z</time></trkpt><trkpt lat="41.51182520360851" lon="0.8661241082995292"><ele>295.4</ele><time>2026-05-04T14:22:43Z</time></trkpt><trkpt lat="41.511782923444244" lon="0.8662556734607505"><ele>295.6</ele><time>2026-05-04T14:22:44Z</time></trkpt><trkpt lat="41.5117482603342" lon="0.8663936281898965"><ele>295.8</ele><time>2026-05-04T14:22:45Z</time></trkpt><trkpt lat="41.511708653304865" lon="0.866529011266724"><ele>296.0</ele><time>2026-05-04T14:22:46Z</time></trkpt><trkpt lat="41.511668473771714" lon="0.8666630601815796"><ele>296.0</ele><time>2026-05-04T14:22:47Z</time></trkpt><trkpt lat="41.511628297388995" lon="0.866797621635502"><ele>296.0</ele><time>2026-05-04T14:22:48Z</time></trkpt><trkpt lat="41.51158889507457" lon="0.8669313035078676"><ele>296.0</ele><time>2026-05-04T14:22:49Z</time></trkpt><trkpt lat="41.51154770984716" lon="0.8670664692287666"><ele>296.0</ele><time>2026-05-04T14:22:50.001Z</time></trkpt><trkpt lat="41.511510451829835" lon="0.8672040446996254"><ele>296.0</ele><time>2026-05-04T14:22:51.001Z</time></trkpt><trkpt lat="41.511473690191515" lon="0.8673382384074827"><ele>296.0</ele><time>2026-05-04T14:22:52.001Z</time></trkpt><trkpt lat="41.51143315063454" lon="0.8674684602226542"><ele>296.0</ele><time>2026-05-04T14:22:53.001Z</time></trkpt><trkpt lat="41.51139551272548" lon="0.8676043973338008"><ele>296.0</ele><time>2026-05-04T14:22:54.001Z</time></trkpt><trkpt lat="41.51136020706029" lon="0.8677398937357184"><ele>296.0</ele><time>2026-05-04T14:22:55.001Z</time></trkpt><trkpt lat="41.511324619332306" lon="0.8678743160372215"><ele>296.0</ele><time>2026-05-04T14:22:56.001Z</time></trkpt><trkpt lat="41.51128184303027" lon="0.8680064989124877"><ele>296.0</ele><time>2026-05-04T14:22:57.001Z</time></trkpt><trkpt lat="41.511243811848466" lon="0.868138171168302"><ele>296.0</ele><time>2026-05-04T14:22:58.001Z</time></trkpt><trkpt lat="41.51120533679284" lon="0.868270788512469"><ele>296.0</ele><time>2026-05-04T14:22:59.001Z</time></trkpt><trkpt lat="41.5111738492624" lon="0.8684065895859184"><ele>296.0</ele><time>2026-05-04T14:23:00.001Z</time></trkpt><trkpt lat="41.51114630459703" lon="0.8685421663377174"><ele>296.0</ele><time>2026-05-04T14:23:01.001Z</time></trkpt><trkpt lat="41.51110903593965" lon="0.868672930866156"><ele>296.6</ele><time>2026-05-04T14:23:02.001Z</time></trkpt><trkpt lat="41.51106875168866" lon="0.868794574169943"><ele>297.20000000000005</ele><time>2026-05-04T14:23:03.001Z</time></trkpt><trkpt lat="41.51103873603966" lon="0.8689358688666836"><ele>297.79999999999995</ele><time>2026-05-04T14:23:04.001Z</time></trkpt><trkpt lat="41.511005036868895" lon="0.8690715366944497"><ele>298.4</ele><time>2026-05-04T14:23:05.001Z</time></trkpt><trkpt lat="41.510971205125266" lon="0.8691993735334984"><ele>299.0</ele><time>2026-05-04T14:23:06.001Z</time></trkpt><trkpt lat="41.51093556940831" lon="0.8693284064589961"><ele>299.0</ele><time>2026-05-04T14:23:07.001Z</time></trkpt><trkpt lat="41.510899981191656" lon="0.8694598323507252"><ele>299.0</ele><time>2026-05-04T14:23:08.001Z</time></trkpt><trkpt lat="41.510865683032655" lon="0.869589143470072"><ele>299.0</ele><time>2026-05-04T14:23:09.001Z</time></trkpt><trkpt lat="41.51082764109095" lon="0.8697186590851049"><ele>299.0</ele><time>2026-05-04T14:23:10.001Z</time></trkpt><trkpt lat="41.510794357003086" lon="0.8698489886054188"><ele>299.0</ele><time>2026-05-04T14:23:11.001Z</time></trkpt><trkpt lat="41.51076031790198" lon="0.8699837011024656"><ele>299.4</ele><time>2026-05-04T14:23:12.001Z</time></trkpt><trkpt lat="41.51072702106326" lon="0.8701115954432105"><ele>299.79999999999995</ele><time>2026-05-04T14:23:13.001Z</time></trkpt><trkpt lat="41.510697846402444" lon="0.8702468754696404"><ele>300.20000000000005</ele><time>2026-05-04T14:23:14.001Z</time></trkpt><trkpt lat="41.51066293779898" lon="0.8703763570285333"><ele>300.6</ele><time>2026-05-04T14:23:15.001Z</time></trkpt><trkpt lat="41.510627954690946" lon="0.8705072680020773"><ele>301.0</ele><time>2026-05-04T14:23:16.001Z</time></trkpt><trkpt lat="41.51059377430267" lon="0.8706345252144817"><ele>301.0</ele><time>2026-05-04T14:23:17.001Z</time></trkpt><trkpt lat="41.5105609422167" lon="0.8707674473690119"><ele>301.0</ele><time>2026-05-04T14:23:18.001Z</time></trkpt><trkpt lat="41.51052586136505" lon="0.8708971017383307"><ele>301.0</ele><time>2026-05-04T14:23:19.001Z</time></trkpt><trkpt lat="41.51049456323973" lon="0.871026928080918"><ele>301.0</ele><time>2026-05-04T14:23:20.001Z</time></trkpt><trkpt lat="41.51046193226406" lon="0.8711552771033352"><ele>301.0</ele><time>2026-05-04T14:23:21.001Z</time></trkpt><trkpt lat="41.510429092482404" lon="0.8712849523901076"><ele>302.0</ele><time>2026-05-04T14:23:22.001Z</time></trkpt><trkpt lat="41.510391281416425" lon="0.8714129638600642"><ele>303.0</ele><time>2026-05-04T14:23:23.001Z</time></trkpt><trkpt lat="41.51035673262214" lon="0.8715444312360177"><ele>304.0</ele><time>2026-05-04T14:23:24.001Z</time></trkpt><trkpt lat="41.51032783363965" lon="0.8716752439260083"><ele>305.0</ele><time>2026-05-04T14:23:25.001Z</time></trkpt><trkpt lat="41.510282707352786" lon="0.871797090486401"><ele>306.0</ele><time>2026-05-04T14:23:26.001Z</time></trkpt><trkpt lat="41.51025135334498" lon="0.8719259215389502"><ele>306.2</ele><time>2026-05-04T14:23:27.001Z</time></trkpt><trkpt lat="41.5102203196277" lon="0.8720521682275101"><ele>306.40000000000003</ele><time>2026-05-04T14:23:28.001Z</time></trkpt><trkpt lat="41.51018826702941" lon="0.8721825597177353"><ele>306.6</ele><time>2026-05-04T14:23:29.001Z</time></trkpt><trkpt lat="41.51015638047422" lon="0.8723122758004338"><ele>306.8</ele><time>2026-05-04T14:23:30.001Z</time></trkpt><trkpt lat="41.51012526995329" lon="0.8724388349420984"><ele>307.0</ele><time>2026-05-04T14:23:31.001Z</time></trkpt><trkpt lat="41.51009383993814" lon="0.8725666937497266"><ele>307.2</ele><time>2026-05-04T14:23:32.001Z</time></trkpt><trkpt lat="41.51006185228964" lon="0.8726968210458955"><ele>307.4</ele><time>2026-05-04T14:23:33.001Z</time></trkpt><trkpt lat="41.510030187323245" lon="0.8728268923921139"><ele>307.6</ele><time>2026-05-04T14:23:34.001Z</time></trkpt><trkpt lat="41.509999938695415" lon="0.8729542870753095"><ele>307.8</ele><time>2026-05-04T14:23:35.001Z</time></trkpt><trkpt lat="41.50998484435359" lon="0.873089413108206"><ele>308.0</ele><time>2026-05-04T14:23:36.001Z</time></trkpt><trkpt lat="41.50993895075171" lon="0.8732111429185975"><ele>308.0</ele><time>2026-05-04T14:23:37.001Z</time></trkpt><trkpt lat="41.50990647348969" lon="0.8733479236658925"><ele>308.0</ele><time>2026-05-04T14:23:38.001Z</time></trkpt><trkpt lat="41.50987574049451" lon="0.8734773583030557"><ele>308.0</ele><time>2026-05-04T14:23:39.001Z</time></trkpt><trkpt lat="41.50984585883684" lon="0.8736032073873313"><ele>308.0</ele><time>2026-05-04T14:23:40.001Z</time></trkpt><trkpt lat="41.509815002579465" lon="0.8737337353122814"><ele>308.0</ele><time>2026-05-04T14:23:41.001Z</time></trkpt><trkpt lat="41.509784481180496" lon="0.8738634465309079"><ele>307.8</ele><time>2026-05-04T14:23:42.001Z</time></trkpt><trkpt lat="41.509753062249374" lon="0.8739969719862511"><ele>307.6</ele><time>2026-05-04T14:23:43.002Z</time></trkpt><trkpt lat="41.50972326513151" lon="0.8741236052183955"><ele>307.4</ele><time>2026-05-04T14:23:44.002Z</time></trkpt><trkpt lat="41.509693054145295" lon="0.8742519972449824"><ele>307.2</ele><time>2026-05-04T14:23:45.002Z</time></trkpt><trkpt lat="41.509662743057675" lon="0.8743813508779291"><ele>307.0</ele><time>2026-05-04T14:23:46.002Z</time></trkpt><trkpt lat="41.509631408989904" lon="0.8745167421352749"><ele>307.8</ele><time>2026-05-04T14:23:47.002Z</time></trkpt><trkpt lat="41.50960174007269" lon="0.8746449383771745"><ele>308.6</ele><time>2026-05-04T14:23:48.002Z</time></trkpt><trkpt lat="41.509584001139196" lon="0.8747775705252532"><ele>309.40000000000003</ele><time>2026-05-04T14:23:49.002Z</time></trkpt><trkpt lat="41.509549874417004" lon="0.8749075892328565"><ele>310.2</ele><time>2026-05-04T14:23:50.002Z</time></trkpt><trkpt lat="41.50951793609528" lon="0.8750300769941994"><ele>311.0</ele><time>2026-05-04T14:23:51.002Z</time></trkpt><trkpt lat="41.50948315250903" lon="0.8751581710044957"><ele>312.0</ele><time>2026-05-04T14:23:52.002Z</time></trkpt><trkpt lat="41.50944727197637" lon="0.8752852280246493"><ele>313.0</ele><time>2026-05-04T14:23:53.002Z</time></trkpt><trkpt lat="41.50942070351886" lon="0.8754205326989327"><ele>314.0</ele><time>2026-05-04T14:23:54.002Z</time></trkpt><trkpt lat="41.509388530221194" lon="0.8755507258472924"><ele>315.0</ele><time>2026-05-04T14:23:55.002Z</time></trkpt><trkpt lat="41.509362511908286" lon="0.8756789619495"><ele>316.0</ele><time>2026-05-04T14:23:56.002Z</time></trkpt><trkpt lat="41.50933905189484" lon="0.8758091820557846"><ele>316.0</ele><time>2026-05-04T14:23:57.002Z</time></trkpt><trkpt lat="41.50931247379004" lon="0.8759323616636544"><ele>316.0</ele><time>2026-05-04T14:23:58.002Z</time></trkpt><trkpt lat="41.50929329986858" lon="0.8760644919326339"><ele>316.0</ele><time>2026-05-04T14:23:59.002Z</time></trkpt><trkpt lat="41.509272498369654" lon="0.8761986013574267"><ele>316.0</ele><time>2026-05-04T14:24:00.002Z</time></trkpt><trkpt lat="41.50924821741713" lon="0.8763258604722243"><ele>316.0</ele><time>2026-05-04T14:24:01.002Z</time></trkpt><trkpt lat="41.50923100919603" lon="0.8764529944972164"><ele>316.6</ele><time>2026-05-04T14:24:02.002Z</time></trkpt><trkpt lat="41.509210240160904" lon="0.8765830447290401"><ele>317.20000000000005</ele><time>2026-05-04T14:24:03.002Z</time></trkpt><trkpt lat="41.50918683986296" lon="0.8767150960517361"><ele>317.79999999999995</ele><time>2026-05-04T14:24:04.002Z</time></trkpt><trkpt lat="41.50916693300619" lon="0.8768429059888291"><ele>318.4</ele><time>2026-05-04T14:24:05.002Z</time></trkpt><trkpt lat="41.50914142438237" lon="0.8769668322899978"><ele>319.0</ele><time>2026-05-04T14:24:06.002Z</time></trkpt><trkpt lat="41.50912365992047" lon="0.8770968211964467"><ele>319.4</ele><time>2026-05-04T14:24:07.002Z</time></trkpt><trkpt lat="41.50910040458465" lon="0.8772252654978194"><ele>319.79999999999995</ele><time>2026-05-04T14:24:08.002Z</time></trkpt><trkpt lat="41.50908442983259" lon="0.8773520386991144"><ele>320.20000000000005</ele><time>2026-05-04T14:24:09.002Z</time></trkpt><trkpt lat="41.50907063628175" lon="0.8774802814000245"><ele>320.6</ele><time>2026-05-04T14:24:10.002Z</time></trkpt><trkpt lat="41.50903873102908" lon="0.8776123345472618"><ele>321.0</ele><time>2026-05-04T14:24:11.002Z</time></trkpt><trkpt lat="41.509037850366724" lon="0.8777421707035962"><ele>321.20000000000005</ele><time>2026-05-04T14:24:12.002Z</time></trkpt><trkpt lat="41.50900825808612" lon="0.8778672341298953"><ele>321.40000000000003</ele><time>2026-05-04T14:24:12.999Z</time></trkpt><trkpt lat="41.50899485113394" lon="0.8779958438421243"><ele>321.6</ele><time>2026-05-04T14:24:13.999Z</time></trkpt><trkpt lat="41.50898212799461" lon="0.8781281087888032"><ele>321.8</ele><time>2026-05-04T14:24:14.999Z</time></trkpt><trkpt lat="41.50896974262192" lon="0.8782601553408363"><ele>322.0</ele><time>2026-05-04T14:24:15.999Z</time></trkpt><trkpt lat="41.50895766452679" lon="0.878389867680731"><ele>322.40000000000003</ele><time>2026-05-04T14:24:16.999Z</time></trkpt><trkpt lat="41.508960977018916" lon="0.8785254990271137"><ele>322.8</ele><time>2026-05-04T14:24:17.999Z</time></trkpt><trkpt lat="41.50893424241314" lon="0.8786518274405622"><ele>323.2</ele><time>2026-05-04T14:24:18.999Z</time></trkpt><trkpt lat="41.508922905108925" lon="0.8787831178692372"><ele>323.6</ele><time>2026-05-04T14:24:19.999Z</time></trkpt><trkpt lat="41.50891236921989" lon="0.8789195968118138"><ele>324.0</ele><time>2026-05-04T14:24:20.999Z</time></trkpt><trkpt lat="41.50892117051573" lon="0.879052456580173"><ele>324.0</ele><time>2026-05-04T14:24:21.999Z</time></trkpt><trkpt lat="41.5089118415741" lon="0.8791813814027788"><ele>324.0</ele><time>2026-05-04T14:24:22.999Z</time></trkpt><trkpt lat="41.50890072165084" lon="0.8793164767293236"><ele>324.0</ele><time>2026-05-04T14:24:23.999Z</time></trkpt><trkpt lat="41.50889505437965" lon="0.8794453939091337"><ele>324.0</ele><time>2026-05-04T14:24:24.999Z</time></trkpt><trkpt lat="41.50888152538569" lon="0.8795767557148262"><ele>324.0</ele><time>2026-05-04T14:24:25.999Z</time></trkpt><trkpt lat="41.508874146989626" lon="0.8797119243036057"><ele>324.4</ele><time>2026-05-04T14:24:27Z</time></trkpt><trkpt lat="41.50885469455415" lon="0.8798429507509457"><ele>324.79999999999995</ele><time>2026-05-04T14:24:28Z</time></trkpt><trkpt lat="41.50884469515596" lon="0.8799750707774594"><ele>325.20000000000005</ele><time>2026-05-04T14:24:29Z</time></trkpt><trkpt lat="41.50883839110103" lon="0.880108772248411"><ele>325.6</ele><time>2026-05-04T14:24:30Z</time></trkpt><trkpt lat="41.508830652116686" lon="0.8802426891567933"><ele>326.0</ele><time>2026-05-04T14:24:31Z</time></trkpt><trkpt lat="41.508825621288175" lon="0.880376105579087"><ele>326.6</ele><time>2026-05-04T14:24:32Z</time></trkpt><trkpt lat="41.50881626166637" lon="0.8805079526884599"><ele>327.20000000000005</ele><time>2026-05-04T14:24:33Z</time></trkpt><trkpt lat="41.50880863719899" lon="0.8806389077077132"><ele>327.79999999999995</ele><time>2026-05-04T14:24:34Z</time></trkpt><trkpt lat="41.50880197582767" lon="0.8807696327886969"><ele>328.4</ele><time>2026-05-04T14:24:35Z</time></trkpt><trkpt lat="41.508794626383285" lon="0.8809019395036867"><ele>329.0</ele><time>2026-05-04T14:24:36Z</time></trkpt><trkpt lat="41.50878438510821" lon="0.8810346138528267"><ele>330.0</ele><time>2026-05-04T14:24:37Z</time></trkpt><trkpt lat="41.50877116063913" lon="0.881169791441766"><ele>331.0</ele><time>2026-05-04T14:24:38Z</time></trkpt><trkpt lat="41.508758972762806" lon="0.8813051052987115"><ele>332.0</ele><time>2026-05-04T14:24:39Z</time></trkpt><trkpt lat="41.50874500735739" lon="0.8814390516300289"><ele>333.0</ele><time>2026-05-04T14:24:40Z</time></trkpt><trkpt lat="41.50872948724253" lon="0.8815719823484879"><ele>334.0</ele><time>2026-05-04T14:24:41Z</time></trkpt><trkpt lat="41.50871350294319" lon="0.8817059692498517"><ele>335.2</ele><time>2026-05-04T14:24:42Z</time></trkpt><trkpt lat="41.50869916326846" lon="0.881840793897667"><ele>336.4</ele><time>2026-05-04T14:24:43Z</time></trkpt><trkpt lat="41.5086823692232" lon="0.8819769126128282"><ele>337.6</ele><time>2026-05-04T14:24:44Z</time></trkpt><trkpt lat="41.50866840229874" lon="0.8821087014372289"><ele>338.8</ele><time>2026-05-04T14:24:45Z</time></trkpt><trkpt lat="41.50865342111759" lon="0.8822416379213706"><ele>340.0</ele><time>2026-05-04T14:24:46Z</time></trkpt><trkpt lat="41.508639727468086" lon="0.8823741976438202"><ele>340.0</ele><time>2026-05-04T14:24:47Z</time></trkpt><trkpt lat="41.50862229902849" lon="0.8825048522687222"><ele>340.0</ele><time>2026-05-04T14:24:48Z</time></trkpt><trkpt lat="41.50860623776168" lon="0.8826344331160243"><ele>340.0</ele><time>2026-05-04T14:24:49Z</time></trkpt><trkpt lat="41.508584289424206" lon="0.8827660453952123"><ele>340.0</ele><time>2026-05-04T14:24:50Z</time></trkpt><trkpt lat="41.50856276814825" lon="0.8828988776587352"><ele>340.0</ele><time>2026-05-04T14:24:51Z</time></trkpt><trkpt lat="41.50854139337527" lon="0.8830295912718663"><ele>340.2</ele><time>2026-05-04T14:24:52Z</time></trkpt><trkpt lat="41.508517578146616" lon="0.8831594070502993"><ele>340.4</ele><time>2026-05-04T14:24:53Z</time></trkpt><trkpt lat="41.508494407578056" lon="0.883291271538523"><ele>340.6</ele><time>2026-05-04T14:24:54Z</time></trkpt><trkpt lat="41.50846964238982" lon="0.8834201957513195"><ele>340.8</ele><time>2026-05-04T14:24:55Z</time></trkpt><trkpt lat="41.50844505677172" lon="0.8835463263503811"><ele>341.0</ele><time>2026-05-04T14:24:56Z</time></trkpt><trkpt lat="41.50841484457817" lon="0.8836810071871702"><ele>340.4</ele><time>2026-05-04T14:24:57Z</time></trkpt><trkpt lat="41.50839026606848" lon="0.8838115763487819"><ele>339.8</ele><time>2026-05-04T14:24:58Z</time></trkpt><trkpt lat="41.50836475588135" lon="0.8839411065326459"><ele>339.2</ele><time>2026-05-04T14:24:59Z</time></trkpt><trkpt lat="41.508336563119094" lon="0.8840708335239804"><ele>338.59999999999997</ele><time>2026-05-04T14:25:00Z</time></trkpt><trkpt lat="41.508307581002185" lon="0.8841987576370417"><ele>338.0</ele><time>2026-05-04T14:25:01Z</time></trkpt><trkpt lat="41.50827929568678" lon="0.8843273594439188"><ele>337.79999999999995</ele><time>2026-05-04T14:25:02Z</time></trkpt><trkpt lat="41.508249590236346" lon="0.8844535629768732"><ele>337.6</ele><time>2026-05-04T14:25:03Z</time></trkpt><trkpt lat="41.508219540885165" lon="0.8845848296531209"><ele>337.4</ele><time>2026-05-04T14:25:04.001Z</time></trkpt><trkpt lat="41.508189934550636" lon="0.8847149354619309"><ele>337.20000000000005</ele><time>2026-05-04T14:25:05.001Z</time></trkpt><trkpt lat="41.50815868289527" lon="0.8848436079410984"><ele>337.0</ele><time>2026-05-04T14:25:06.001Z</time></trkpt><trkpt lat="41.508129022142484" lon="0.8849735644104504"><ele>336.40000000000003</ele><time>2026-05-04T14:25:07.001Z</time></trkpt><trkpt lat="41.50809780026436" lon="0.8851003121300548"><ele>335.8</ele><time>2026-05-04T14:25:08.001Z</time></trkpt><trkpt lat="41.5080632146097" lon="0.8852273712496626"><ele>335.2</ele><time>2026-05-04T14:25:09.001Z</time></trkpt><trkpt lat="41.50802906030755" lon="0.8853547354795814"><ele>334.6</ele><time>2026-05-04T14:25:10.001Z</time></trkpt><trkpt lat="41.507989504654645" lon="0.8854812503844376"><ele>334.0</ele><time>2026-05-04T14:25:11.001Z</time></trkpt><trkpt lat="41.50794853641711" lon="0.8856107298200739"><ele>334.4</ele><time>2026-05-04T14:25:12.001Z</time></trkpt><trkpt lat="41.5079085962684" lon="0.8857380702218356"><ele>334.79999999999995</ele><time>2026-05-04T14:25:13.001Z</time></trkpt><trkpt lat="41.50787021112546" lon="0.8858691281459639"><ele>335.20000000000005</ele><time>2026-05-04T14:25:14.001Z</time></trkpt><trkpt lat="41.50783276015758" lon="0.8859986306270794"><ele>335.6</ele><time>2026-05-04T14:25:15.001Z</time></trkpt><trkpt lat="41.5077943200868" lon="0.8861282677170584"><ele>336.0</ele><time>2026-05-04T14:25:16.001Z</time></trkpt><trkpt lat="41.507756206119346" lon="0.8862582251418577"><ele>336.0</ele><time>2026-05-04T14:25:17.001Z</time></trkpt><trkpt lat="41.50771617504244" lon="0.8863859329379249"><ele>336.0</ele><time>2026-05-04T14:25:18.001Z</time></trkpt><trkpt lat="41.50767245466261" lon="0.8865171188105144"><ele>336.0</ele><time>2026-05-04T14:25:19.001Z</time></trkpt><trkpt lat="41.507627979147365" lon="0.88664494489692"><ele>336.0</ele><time>2026-05-04T14:25:20.001Z</time></trkpt><trkpt lat="41.50758165969085" lon="0.8867735188015436"><ele>336.0</ele><time>2026-05-04T14:25:21.001Z</time></trkpt><trkpt lat="41.507535376959716" lon="0.8869026172727897"><ele>335.6</ele><time>2026-05-04T14:25:22.001Z</time></trkpt><trkpt lat="41.5074887612418" lon="0.8870337815085324"><ele>335.20000000000005</ele><time>2026-05-04T14:25:23.001Z</time></trkpt><trkpt lat="41.50744132041911" lon="0.8871630800844881"><ele>334.79999999999995</ele><time>2026-05-04T14:25:24.001Z</time></trkpt><trkpt lat="41.50739177224473" lon="0.8872926315171212"><ele>334.4</ele><time>2026-05-04T14:25:25.001Z</time></trkpt><trkpt lat="41.507342553491355" lon="0.8874222549137202"><ele>334.0</ele><time>2026-05-04T14:25:26.001Z</time></trkpt><trkpt lat="41.507289458490526" lon="0.8875495539872645"><ele>333.79999999999995</ele><time>2026-05-04T14:25:27.001Z</time></trkpt><trkpt lat="41.507239169772035" lon="0.8876802655588721"><ele>333.59999999999997</ele><time>2026-05-04T14:25:28.001Z</time></trkpt><trkpt lat="41.50718707280075" lon="0.8878083631636925"><ele>333.4</ele><time>2026-05-04T14:25:29.001Z</time></trkpt><trkpt lat="41.507137770178296" lon="0.8879352566317221"><ele>333.2</ele><time>2026-05-04T14:25:30.001Z</time></trkpt><trkpt lat="41.507079554336904" lon="0.8880674715656817"><ele>333.0</ele><time>2026-05-04T14:25:31.001Z</time></trkpt><trkpt lat="41.506976657508275" lon="0.8882132129294709"><ele>332.25</ele><time>2026-05-04T14:25:32.001Z</time></trkpt><trkpt lat="41.50685314896524" lon="0.8884194856077959"><ele>331.5</ele><time>2026-05-04T14:25:33.001Z</time></trkpt><trkpt lat="41.50692217339285" lon="0.8884619915114672"><ele>330.75</ele><time>2026-05-04T14:25:34.001Z</time></trkpt><trkpt lat="41.506864020681476" lon="0.8885869157814502"><ele>330.0</ele><time>2026-05-04T14:25:35.001Z</time></trkpt><trkpt lat="41.50680500935709" lon="0.8887193449528674"><ele>330.0</ele><time>2026-05-04T14:25:36.001Z</time></trkpt><trkpt lat="41.506743935398475" lon="0.8888500754708167"><ele>330.0</ele><time>2026-05-04T14:25:37.001Z</time></trkpt><trkpt lat="41.506681928290945" lon="0.888977494164474"><ele>330.0</ele><time>2026-05-04T14:25:38.001Z</time></trkpt><trkpt lat="41.50661791128089" lon="0.8891080348293072"><ele>330.0</ele><time>2026-05-04T14:25:39.001Z</time></trkpt><trkpt lat="41.50655366820578" lon="0.8892414739590773"><ele>329.75</ele><time>2026-05-04T14:25:40.001Z</time></trkpt><trkpt lat="41.50648751742693" lon="0.8893722974372862"><ele>329.5</ele><time>2026-05-04T14:25:41.001Z</time></trkpt><trkpt lat="41.50642011019906" lon="0.8895005751664633"><ele>329.25</ele><time>2026-05-04T14:25:42.001Z</time></trkpt><trkpt lat="41.506353696630825" lon="0.8896325418763498"><ele>329.0</ele><time>2026-05-04T14:25:43.001Z</time></trkpt><trkpt lat="41.50628519478122" lon="0.8897588671506194"><ele>329.25</ele><time>2026-05-04T14:25:44.001Z</time></trkpt><trkpt lat="41.50621482523171" lon="0.8898885166862628"><ele>329.5</ele><time>2026-05-04T14:25:45.001Z</time></trkpt><trkpt lat="41.5061448050126" lon="0.8900145225800447"><ele>329.75</ele><time>2026-05-04T14:25:46.001Z</time></trkpt><trkpt lat="41.5060751961986" lon="0.8901387505280327"><ele>330.0</ele><time>2026-05-04T14:25:47.001Z</time></trkpt><trkpt lat="41.506005686591564" lon="0.8902617130642532"><ele>330.0</ele><time>2026-05-04T14:25:48.001Z</time></trkpt><trkpt lat="41.50593446787846" lon="0.8903848143377621"><ele>330.0</ele><time>2026-05-04T14:25:49.001Z</time></trkpt><trkpt lat="41.50585923156202" lon="0.8905050604936922"><ele>330.0</ele><time>2026-05-04T14:25:50.001Z</time></trkpt><trkpt lat="41.50578501020798" lon="0.8906265999392923"><ele>330.0</ele><time>2026-05-04T14:25:51.001Z</time></trkpt><trkpt lat="41.50570718870374" lon="0.890746914274732"><ele>330.0</ele><time>2026-05-04T14:25:52.001Z</time></trkpt><trkpt lat="41.505628704270336" lon="0.8908622635705296"><ele>330.0</ele><time>2026-05-04T14:25:53.002Z</time></trkpt><trkpt lat="41.50554755831108" lon="0.8909773259175177"><ele>330.0</ele><time>2026-05-04T14:25:54.002Z</time></trkpt><trkpt lat="41.505465042386156" lon="0.8910844802050064"><ele>330.0</ele><time>2026-05-04T14:25:55.002Z</time></trkpt><trkpt lat="41.50538352273043" lon="0.8911935190360807"><ele>330.0</ele><time>2026-05-04T14:25:56.002Z</time></trkpt><trkpt lat="41.505300984225336" lon="0.8912965114499551"><ele>330.0</ele><time>2026-05-04T14:25:57.002Z</time></trkpt><trkpt lat="41.505219191495776" lon="0.8913976888400293"><ele>330.0</ele><time>2026-05-04T14:25:58.002Z</time></trkpt><trkpt lat="41.50513233273081" lon="0.8914919876878861"><ele>330.0</ele><time>2026-05-04T14:25:59.002Z</time></trkpt><trkpt lat="41.50504923509236" lon="0.8915869540882353"><ele>330.0</ele><time>2026-05-04T14:26:00.002Z</time></trkpt><trkpt lat="41.50495936258408" lon="0.8916780739676617"><ele>330.2</ele><time>2026-05-04T14:26:01.002Z</time></trkpt><trkpt lat="41.50487640843755" lon="0.8917638446217047"><ele>330.4</ele><time>2026-05-04T14:26:02.002Z</time></trkpt><trkpt lat="41.50478395488094" lon="0.8918532477785367"><ele>330.6</ele><time>2026-05-04T14:26:03.002Z</time></trkpt><trkpt lat="41.504696606291816" lon="0.8919381231729259"><ele>330.8</ele><time>2026-05-04T14:26:04.002Z</time></trkpt><trkpt lat="41.50460992254459" lon="0.8920303405406412"><ele>331.0</ele><time>2026-05-04T14:26:05.002Z</time></trkpt><trkpt lat="41.50452394859362" lon="0.8921204998519838"><ele>331.6</ele><time>2026-05-04T14:26:06.002Z</time></trkpt><trkpt lat="41.50443704931232" lon="0.892204278043944"><ele>332.20000000000005</ele><time>2026-05-04T14:26:07.002Z</time></trkpt><trkpt lat="41.50434644166464" lon="0.8922863168695302"><ele>332.79999999999995</ele><time>2026-05-04T14:26:08.002Z</time></trkpt><trkpt lat="41.5042599327903" lon="0.8923714019569975"><ele>333.4</ele><time>2026-05-04T14:26:09.002Z</time></trkpt><trkpt lat="41.50417424735362" lon="0.8924595145341203"><ele>334.0</ele><time>2026-05-04T14:26:10.002Z</time></trkpt><trkpt lat="41.50408729093239" lon="0.8925447141174014"><ele>333.79999999999995</ele><time>2026-05-04T14:26:11.002Z</time></trkpt><trkpt lat="41.504001427694135" lon="0.8926270231245899"><ele>333.59999999999997</ele><time>2026-05-04T14:26:12.002Z</time></trkpt><trkpt lat="41.5039139108836" lon="0.8927078487251594"><ele>333.4</ele><time>2026-05-04T14:26:13.002Z</time></trkpt><trkpt lat="41.50382829765995" lon="0.8927926505770367"><ele>333.2</ele><time>2026-05-04T14:26:14.002Z</time></trkpt><trkpt lat="41.50374565658749" lon="0.8928767049873789"><ele>333.0</ele><time>2026-05-04T14:26:15.002Z</time></trkpt><trkpt lat="41.50366419535009" lon="0.8929648106168188"><ele>333.79999999999995</ele><time>2026-05-04T14:26:16.002Z</time></trkpt><trkpt lat="41.503584049974755" lon="0.8930493570776176"><ele>334.6</ele><time>2026-05-04T14:26:17.002Z</time></trkpt><trkpt lat="41.50350502535991" lon="0.893134931003623"><ele>335.4</ele><time>2026-05-04T14:26:18.002Z</time></trkpt><trkpt lat="41.50342827664061" lon="0.8932241966600631"><ele>336.20000000000005</ele><time>2026-05-04T14:26:19Z</time></trkpt><trkpt lat="41.50335134872264" lon="0.8933149795466412"><ele>337.0</ele><time>2026-05-04T14:26:20Z</time></trkpt><trkpt lat="41.50327624293738" lon="0.8934109143736311"><ele>337.20000000000005</ele><time>2026-05-04T14:26:21Z</time></trkpt><trkpt lat="41.503201581814814" lon="0.8935075799768205"><ele>337.4</ele><time>2026-05-04T14:26:22Z</time></trkpt><trkpt lat="41.503128732524694" lon="0.8936033512726237"><ele>337.6</ele><time>2026-05-04T14:26:23Z</time></trkpt><trkpt lat="41.503054920092076" lon="0.8937016375370012"><ele>337.79999999999995</ele><time>2026-05-04T14:26:24Z</time></trkpt><trkpt lat="41.50298117814894" lon="0.8938022465007674"><ele>338.0</ele><time>2026-05-04T14:26:25Z</time></trkpt><trkpt lat="41.50290708869044" lon="0.893908562664214"><ele>338.0</ele><time>2026-05-04T14:26:26Z</time></trkpt><trkpt lat="41.5028325255136" lon="0.8940133194953922"><ele>338.0</ele><time>2026-05-04T14:26:27Z</time></trkpt><trkpt lat="41.50275667519882" lon="0.894116635329432"><ele>338.0</ele><time>2026-05-04T14:26:28Z</time></trkpt><trkpt lat="41.50268045160997" lon="0.8942244200326208"><ele>338.0</ele><time>2026-05-04T14:26:29Z</time></trkpt><trkpt lat="41.502601421038015" lon="0.8943326054189116"><ele>338.0</ele><time>2026-05-04T14:26:30Z</time></trkpt><trkpt lat="41.50252918998221" lon="0.894430958271142"><ele>337.75</ele><time>2026-05-04T14:26:31Z</time></trkpt><trkpt lat="41.502461159824115" lon="0.8945330016512282"><ele>337.5</ele><time>2026-05-04T14:26:32Z</time></trkpt><trkpt lat="41.502389290029086" lon="0.8946272105792004"><ele>337.25</ele><time>2026-05-04T14:26:34Z</time></trkpt><trkpt lat="41.50222569998582" lon="0.8948711120751216"><ele>337.0</ele><time>2026-05-04T14:26:35Z</time></trkpt><trkpt lat="41.502148187027196" lon="0.8949842489001382"><ele>337.5</ele><time>2026-05-04T14:26:36Z</time></trkpt><trkpt lat="41.502071808070774" lon="0.8950969316410612"><ele>338.0</ele><time>2026-05-04T14:26:37Z</time></trkpt><trkpt lat="41.501991036743156" lon="0.8952064743702447"><ele>338.5</ele><time>2026-05-04T14:26:38Z</time></trkpt><trkpt lat="41.50191367152489" lon="0.8953144839783247"><ele>339.0</ele><time>2026-05-04T14:26:39Z</time></trkpt><trkpt lat="41.501836512223704" lon="0.8954211788407825"><ele>339.0</ele><time>2026-05-04T14:26:40Z</time></trkpt><trkpt lat="41.5017620031931" lon="0.8955302359808419"><ele>339.0</ele><time>2026-05-04T14:26:41Z</time></trkpt><trkpt lat="41.501686997987605" lon="0.8956362733754373"><ele>339.0</ele><time>2026-05-04T14:26:42Z</time></trkpt><trkpt lat="41.50161173491286" lon="0.8957419567483137"><ele>339.0</ele><time>2026-05-04T14:26:43Z</time></trkpt><trkpt lat="41.50153496021011" lon="0.8958460777489131"><ele>339.0</ele><time>2026-05-04T14:26:44Z</time></trkpt><trkpt lat="41.50146047035342" lon="0.8959521287663595"><ele>340.0</ele><time>2026-05-04T14:26:45Z</time></trkpt><trkpt lat="41.50137875646171" lon="0.8960526225636843"><ele>341.0</ele><time>2026-05-04T14:26:46Z</time></trkpt><trkpt lat="41.5012976513208" lon="0.8961444946482748"><ele>342.0</ele><time>2026-05-04T14:26:47Z</time></trkpt><trkpt lat="41.501212147809795" lon="0.896234235590732"><ele>343.0</ele><time>2026-05-04T14:26:48Z</time></trkpt><trkpt lat="41.50112398888352" lon="0.8963145883064376"><ele>344.0</ele><time>2026-05-04T14:26:49Z</time></trkpt><trkpt lat="41.50104235614064" lon="0.8964002348021558"><ele>344.2</ele><time>2026-05-04T14:26:50Z</time></trkpt><trkpt lat="41.50094857630399" lon="0.8964699277798409"><ele>344.4</ele><time>2026-05-04T14:26:51Z</time></trkpt><trkpt lat="41.50085843503968" lon="0.896543773778394"><ele>344.6</ele><time>2026-05-04T14:26:52Z</time></trkpt><trkpt lat="41.50076756236434" lon="0.89661421655011"><ele>344.8</ele><time>2026-05-04T14:26:53Z</time></trkpt><trkpt lat="41.5006790689785" lon="0.8966816540542125"><ele>345.0</ele><time>2026-05-04T14:26:54Z</time></trkpt><trkpt lat="41.50059129059236" lon="0.8967446887630892"><ele>345.4</ele><time>2026-05-04T14:26:55Z</time></trkpt><trkpt lat="41.50050150286114" lon="0.8968116308294259"><ele>345.8</ele><time>2026-05-04T14:26:56Z</time></trkpt><trkpt lat="41.50041241023613" lon="0.8968737213339253"><ele>346.20000000000005</ele><time>2026-05-04T14:26:57Z</time></trkpt><trkpt lat="41.500326894870874" lon="0.896934971533077"><ele>346.6</ele><time>2026-05-04T14:26:58Z</time></trkpt><trkpt lat="41.50023979411132" lon="0.8970018657853743"><ele>347.0</ele><time>2026-05-04T14:26:59Z</time></trkpt><trkpt lat="41.50015330799096" lon="0.8970657476300927"><ele>347.0</ele><time>2026-05-04T14:27:00Z</time></trkpt><trkpt lat="41.50006270522158" lon="0.8971109184845965"><ele>347.0</ele><time>2026-05-04T14:27:01Z</time></trkpt><trkpt lat="41.499973125262635" lon="0.8971731579587456"><ele>347.0</ele><time>2026-05-04T14:27:02Z</time></trkpt><trkpt lat="41.499893473273175" lon="0.8972518483964423"><ele>347.0</ele><time>2026-05-04T14:27:03.001Z</time></trkpt><trkpt lat="41.49981080027622" lon="0.8973163659672491"><ele>347.0</ele><time>2026-05-04T14:27:04.001Z</time></trkpt><trkpt lat="41.49972728119329" lon="0.8973792695876536"><ele>347.0</ele><time>2026-05-04T14:27:05.001Z</time></trkpt><trkpt lat="41.499641062172074" lon="0.8974463544611174"><ele>347.0</ele><time>2026-05-04T14:27:06.001Z</time></trkpt><trkpt lat="41.499556112022866" lon="0.897507247112578"><ele>347.0</ele><time>2026-05-04T14:27:07.001Z</time></trkpt><trkpt lat="41.49946892866008" lon="0.8975689398572453"><ele>347.0</ele><time>2026-05-04T14:27:08.001Z</time></trkpt><trkpt lat="41.49938293188826" lon="0.8976340883479085"><ele>347.0</ele><time>2026-05-04T14:27:09.001Z</time></trkpt><trkpt lat="41.49929488839739" lon="0.8976946835909092"><ele>348.0</ele><time>2026-05-04T14:27:10.001Z</time></trkpt><trkpt lat="41.49920936718876" lon="0.8977657737618571"><ele>349.0</ele><time>2026-05-04T14:27:11.001Z</time></trkpt><trkpt lat="41.499124878336616" lon="0.8978321612879918"><ele>350.0</ele><time>2026-05-04T14:27:12.001Z</time></trkpt><trkpt lat="41.49903631608272" lon="0.8978915412573834"><ele>351.0</ele><time>2026-05-04T14:27:13.001Z</time></trkpt><trkpt lat="41.498950815536375" lon="0.8979517211732487"><ele>352.0</ele><time>2026-05-04T14:27:14.001Z</time></trkpt><trkpt lat="41.4988670565751" lon="0.8980204583676487"><ele>352.0</ele><time>2026-05-04T14:27:15.001Z</time></trkpt><trkpt lat="41.4987822683483" lon="0.8980836251498554"><ele>352.0</ele><time>2026-05-04T14:27:16.001Z</time></trkpt><trkpt lat="41.49868165884029" lon="0.8981399419072765"><ele>352.0</ele><time>2026-05-04T14:27:17.001Z</time></trkpt><trkpt lat="41.49861410906113" lon="0.8982085388826442"><ele>352.0</ele><time>2026-05-04T14:27:18.001Z</time></trkpt><trkpt lat="41.49852714505187" lon="0.8982717896250151"><ele>352.0</ele><time>2026-05-04T14:27:19.001Z</time></trkpt><trkpt lat="41.49844538395174" lon="0.8983333319906834"><ele>352.8</ele><time>2026-05-04T14:27:20.001Z</time></trkpt><trkpt lat="41.49836277220744" lon="0.8983968854429489"><ele>353.6</ele><time>2026-05-04T14:27:21.001Z</time></trkpt><trkpt lat="41.498284561703585" lon="0.8984620886811041"><ele>354.40000000000003</ele><time>2026-05-04T14:27:22.001Z</time></trkpt><trkpt lat="41.49820035757313" lon="0.8985151719279536"><ele>355.20000000000005</ele><time>2026-05-04T14:27:23.001Z</time></trkpt><trkpt lat="41.49811680063991" lon="0.8985812902685287"><ele>356.0</ele><time>2026-05-04T14:27:24.001Z</time></trkpt><trkpt lat="41.49803737307751" lon="0.8986445961730705"><ele>356.0</ele><time>2026-05-04T14:27:25.001Z</time></trkpt><trkpt lat="41.49795653800378" lon="0.8987082167530149"><ele>356.0</ele><time>2026-05-04T14:27:26.001Z</time></trkpt><trkpt lat="41.49787135195498" lon="0.8987645021058576"><ele>356.0</ele><time>2026-05-04T14:27:27.001Z</time></trkpt><trkpt lat="41.49778743064698" lon="0.8988206744708617"><ele>356.0</ele><time>2026-05-04T14:27:28.001Z</time></trkpt><trkpt lat="41.4977040294913" lon="0.8988877004100656"><ele>356.0</ele><time>2026-05-04T14:27:29.001Z</time></trkpt><trkpt lat="41.49762616163039" lon="0.8989486853006211"><ele>356.8</ele><time>2026-05-04T14:27:30.001Z</time></trkpt><trkpt lat="41.497546509756575" lon="0.8990174033017034"><ele>357.6</ele><time>2026-05-04T14:27:31.001Z</time></trkpt><trkpt lat="41.497460756407946" lon="0.8990676449254417"><ele>358.4</ele><time>2026-05-04T14:27:32.001Z</time></trkpt><trkpt lat="41.49737506322372" lon="0.8991184991385253"><ele>359.2</ele><time>2026-05-04T14:27:33.001Z</time></trkpt><trkpt lat="41.497292168928695" lon="0.899189729834512"><ele>360.0</ele><time>2026-05-04T14:27:34.001Z</time></trkpt><trkpt lat="41.497206467256355" lon="0.8992319366632915"><ele>359.8</ele><time>2026-05-04T14:27:35.001Z</time></trkpt><trkpt lat="41.49711712404656" lon="0.8992934108236147"><ele>359.6</ele><time>2026-05-04T14:27:36.001Z</time></trkpt><trkpt lat="41.497028916908214" lon="0.8993569294764985"><ele>359.4</ele><time>2026-05-04T14:27:37.001Z</time></trkpt><trkpt lat="41.496938893701035" lon="0.89940777679051"><ele>359.2</ele><time>2026-05-04T14:27:38.001Z</time></trkpt><trkpt lat="41.49684382419871" lon="0.8994537085756867"><ele>359.0</ele><time>2026-05-04T14:27:39.001Z</time></trkpt><trkpt lat="41.49675246403137" lon="0.8995041757939681"><ele>359.0</ele><time>2026-05-04T14:27:40.001Z</time></trkpt><trkpt lat="41.496655816348564" lon="0.899566437918855"><ele>359.0</ele><time>2026-05-04T14:27:41.001Z</time></trkpt><trkpt lat="41.49656065570372" lon="0.8996137659689764"><ele>359.0</ele><time>2026-05-04T14:27:42.001Z</time></trkpt><trkpt lat="41.49646452089258" lon="0.8996588689114817"><ele>359.0</ele><time>2026-05-04T14:27:43.001Z</time></trkpt><trkpt lat="41.49636453810057" lon="0.8997151995971799"><ele>359.0</ele><time>2026-05-04T14:27:44.001Z</time></trkpt><trkpt lat="41.49626309254731" lon="0.8997609198070361"><ele>359.79999999999995</ele><time>2026-05-04T14:27:45.001Z</time></trkpt><trkpt lat="41.496164004161635" lon="0.8998076948045116"><ele>360.59999999999997</ele><time>2026-05-04T14:27:46.001Z</time></trkpt><trkpt lat="41.49606222190958" lon="0.8998594545147419"><ele>361.4</ele><time>2026-05-04T14:27:47.001Z</time></trkpt><trkpt lat="41.49596091618556" lon="0.89991309769163"><ele>362.2</ele><time>2026-05-04T14:27:48.002Z</time></trkpt><trkpt lat="41.495860122696314" lon="0.8999685589918001"><ele>363.0</ele><time>2026-05-04T14:27:49.002Z</time></trkpt><trkpt lat="41.49575666814221" lon="0.9000146422326107"><ele>363.0</ele><time>2026-05-04T14:27:50.002Z</time></trkpt><trkpt lat="41.49565644450751" lon="0.9000630926819324"><ele>363.0</ele><time>2026-05-04T14:27:51.002Z</time></trkpt><trkpt lat="41.49555495488116" lon="0.9001107595198117"><ele>363.0</ele><time>2026-05-04T14:27:52.002Z</time></trkpt><trkpt lat="41.49545136662162" lon="0.9001629442522576"><ele>363.0</ele><time>2026-05-04T14:27:53.002Z</time></trkpt><trkpt lat="41.495348145823414" lon="0.9002187150670894"><ele>363.0</ele><time>2026-05-04T14:27:54.002Z</time></trkpt><trkpt lat="41.495247550226026" lon="0.9002726193638353"><ele>363.0</ele><time>2026-05-04T14:27:55.002Z</time></trkpt><trkpt lat="41.4951462283322" lon="0.9003215703183896"><ele>363.0</ele><time>2026-05-04T14:27:56.002Z</time></trkpt><trkpt lat="41.49504522325703" lon="0.9003710043966322"><ele>363.0</ele><time>2026-05-04T14:27:57.002Z</time></trkpt><trkpt lat="41.49494547605366" lon="0.9004268408777593"><ele>363.0</ele><time>2026-05-04T14:27:58.002Z</time></trkpt><trkpt lat="41.49484416269433" lon="0.9004759610306642"><ele>363.0</ele><time>2026-05-04T14:27:59.002Z</time></trkpt><trkpt lat="41.49474247602239" lon="0.9005220458580199"><ele>363.0</ele><time>2026-05-04T14:28:00.002Z</time></trkpt><trkpt lat="41.494641573202706" lon="0.900577929102062"><ele>363.0</ele><time>2026-05-04T14:28:01.002Z</time></trkpt><trkpt lat="41.49454128997431" lon="0.9006360471788183"><ele>363.0</ele><time>2026-05-04T14:28:02.002Z</time></trkpt><trkpt lat="41.4944440076642" lon="0.9006948121101737"><ele>363.0</ele><time>2026-05-04T14:28:03.002Z</time></trkpt><trkpt lat="41.49434793470902" lon="0.9007657936587485"><ele>363.0</ele><time>2026-05-04T14:28:04.002Z</time></trkpt><trkpt lat="41.49425525202386" lon="0.9008383099911383"><ele>362.79999999999995</ele><time>2026-05-04T14:28:05.002Z</time></trkpt><trkpt lat="41.494163610272196" lon="0.9009173714965539"><ele>362.6</ele><time>2026-05-04T14:28:06.002Z</time></trkpt><trkpt lat="41.49407373268385" lon="0.9009990910700675"><ele>362.4</ele><time>2026-05-04T14:28:07.002Z</time></trkpt><trkpt lat="41.49398605651152" lon="0.9010862506316549"><ele>362.20000000000005</ele><time>2026-05-04T14:28:08.002Z</time></trkpt><trkpt lat="41.49390215364218" lon="0.9011816990156927"><ele>362.0</ele><time>2026-05-04T14:28:09.002Z</time></trkpt><trkpt lat="41.49382159456302" lon="0.9012802183377833"><ele>362.40000000000003</ele><time>2026-05-04T14:28:10.002Z</time></trkpt><trkpt lat="41.493740596099514" lon="0.9013793505650844"><ele>362.8</ele><time>2026-05-04T14:28:11.002Z</time></trkpt><trkpt lat="41.49365835825188" lon="0.9014740044374334"><ele>363.2</ele><time>2026-05-04T14:28:12.002Z</time></trkpt><trkpt lat="41.49357627824201" lon="0.9015720597934398"><ele>363.6</ele><time>2026-05-04T14:28:13.002Z</time></trkpt><trkpt lat="41.493493950183954" lon="0.9016678144841629"><ele>364.0</ele><time>2026-05-04T14:28:14.002Z</time></trkpt><trkpt lat="41.493413135229325" lon="0.9017686667986947"><ele>364.4</ele><time>2026-05-04T14:28:15.002Z</time></trkpt><trkpt lat="41.493332576449575" lon="0.901869385096016"><ele>364.79999999999995</ele><time>2026-05-04T14:28:16.002Z</time></trkpt><trkpt lat="41.49325229288544" lon="0.9019669132495294"><ele>365.20000000000005</ele><time>2026-05-04T14:28:17.002Z</time></trkpt><trkpt lat="41.49317161930036" lon="0.9020655459427965"><ele>365.6</ele><time>2026-05-04T14:28:18.002Z</time></trkpt><trkpt lat="41.49309082778003" lon="0.902161535845072"><ele>366.0</ele><time>2026-05-04T14:28:19.002Z</time></trkpt><trkpt lat="41.493008321423495" lon="0.902251180150333"><ele>366.0</ele><time>2026-05-04T14:28:20.002Z</time></trkpt><trkpt lat="41.492927631076284" lon="0.9023366889884485"><ele>366.0</ele><time>2026-05-04T14:28:21.002Z</time></trkpt><trkpt lat="41.49284841785406" lon="0.9024259020144"><ele>366.0</ele><time>2026-05-04T14:28:22.002Z</time></trkpt><trkpt lat="41.492771545949665" lon="0.9025172860925083"><ele>366.0</ele><time>2026-05-04T14:28:23.002Z</time></trkpt><trkpt lat="41.49269660365671" lon="0.9026129156356894"><ele>366.0</ele><time>2026-05-04T14:28:24.002Z</time></trkpt><trkpt lat="41.492621501663045" lon="0.9027009463145227"><ele>366.20000000000005</ele><time>2026-05-04T14:28:25Z</time></trkpt><trkpt lat="41.49254366209844" lon="0.9027920335265489"><ele>366.40000000000003</ele><time>2026-05-04T14:28:26Z</time></trkpt><trkpt lat="41.49246632610321" lon="0.9028811592603545"><ele>366.6</ele><time>2026-05-04T14:28:27Z</time></trkpt><trkpt lat="41.492390442261375" lon="0.9029726833420337"><ele>366.8</ele><time>2026-05-04T14:28:28Z</time></trkpt><trkpt lat="41.492313698000885" lon="0.9030657755430803"><ele>367.0</ele><time>2026-05-04T14:28:29Z</time></trkpt><trkpt lat="41.49223851261707" lon="0.9031552108745883"><ele>367.0</ele><time>2026-05-04T14:28:30Z</time></trkpt><trkpt lat="41.49216184560625" lon="0.9032436414879674"><ele>367.0</ele><time>2026-05-04T14:28:31Z</time></trkpt><trkpt lat="41.49208747952" lon="0.9033325977923088"><ele>367.0</ele><time>2026-05-04T14:28:32Z</time></trkpt><trkpt lat="41.4920119255263" lon="0.9034214566078527"><ele>367.0</ele><time>2026-05-04T14:28:33Z</time></trkpt><trkpt lat="41.49193594886394" lon="0.9035097450116668"><ele>367.0</ele><time>2026-05-04T14:28:34Z</time></trkpt><trkpt lat="41.491856224161445" lon="0.9035942673434727"><ele>368.0</ele><time>2026-05-04T14:28:35Z</time></trkpt><trkpt lat="41.49177359006051" lon="0.9036792256755041"><ele>369.0</ele><time>2026-05-04T14:28:36Z</time></trkpt><trkpt lat="41.49169098232598" lon="0.9037619192831599"><ele>370.0</ele><time>2026-05-04T14:28:37Z</time></trkpt><trkpt lat="41.49160545035025" lon="0.9038444769165673"><ele>371.0</ele><time>2026-05-04T14:28:38Z</time></trkpt><trkpt lat="41.49152022743673" lon="0.9039245204746004"><ele>372.0</ele><time>2026-05-04T14:28:39Z</time></trkpt><trkpt lat="41.49143144130672" lon="0.9039999111706658"><ele>372.0</ele><time>2026-05-04T14:28:40Z</time></trkpt><trkpt lat="41.49134087228043" lon="0.9040667733861512"><ele>372.0</ele><time>2026-05-04T14:28:41Z</time></trkpt><trkpt lat="41.49125008012569" lon="0.9041318487893896"><ele>372.0</ele><time>2026-05-04T14:28:42Z</time></trkpt><trkpt lat="41.491161516942356" lon="0.9041987786813505"><ele>372.0</ele><time>2026-05-04T14:28:43Z</time></trkpt><trkpt lat="41.49107166382201" lon="0.9042619493572321"><ele>372.0</ele><time>2026-05-04T14:28:44Z</time></trkpt><trkpt lat="41.490982516595274" lon="0.904324435059408"><ele>372.0</ele><time>2026-05-04T14:28:45Z</time></trkpt><trkpt lat="41.49089507002555" lon="0.9043817988525436"><ele>372.0</ele><time>2026-05-04T14:28:46Z</time></trkpt><trkpt lat="41.4908060839644" lon="0.9044405707832168"><ele>372.0</ele><time>2026-05-04T14:28:47Z</time></trkpt><trkpt lat="41.49071818899413" lon="0.9044998179924761"><ele>372.0</ele><time>2026-05-04T14:28:48Z</time></trkpt><trkpt lat="41.490630941546634" lon="0.9045553922002963"><ele>372.0</ele><time>2026-05-04T14:28:49Z</time></trkpt><trkpt lat="41.49054338312183" lon="0.904612539097305"><ele>372.0</ele><time>2026-05-04T14:28:50Z</time></trkpt><trkpt lat="41.490457417887534" lon="0.904672074463525"><ele>372.0</ele><time>2026-05-04T14:28:51Z</time></trkpt><trkpt lat="41.490371465154624" lon="0.9047318893568108"><ele>372.0</ele><time>2026-05-04T14:28:52Z</time></trkpt><trkpt lat="41.4902852717727" lon="0.9047883741042356"><ele>372.0</ele><time>2026-05-04T14:28:53Z</time></trkpt><trkpt lat="41.49019599616765" lon="0.9048447169474538"><ele>372.0</ele><time>2026-05-04T14:28:54Z</time></trkpt><trkpt lat="41.49010630560039" lon="0.9049011378742932"><ele>373.40000000000003</ele><time>2026-05-04T14:28:55Z</time></trkpt><trkpt lat="41.490018769281846" lon="0.9049602929332179"><ele>374.8</ele><time>2026-05-04T14:28:56Z</time></trkpt><trkpt lat="41.48993172910614" lon="0.9050206320205596"><ele>376.2</ele><time>2026-05-04T14:28:57Z</time></trkpt><trkpt lat="41.48984496269365" lon="0.9050802321434653"><ele>377.6</ele><time>2026-05-04T14:28:58.001Z</time></trkpt><trkpt lat="41.48975720847957" lon="0.9051367638584145"><ele>379.0</ele><time>2026-05-04T14:28:59.001Z</time></trkpt><trkpt lat="41.48966912081833" lon="0.9051911283887125"><ele>379.6</ele><time>2026-05-04T14:29:00.001Z</time></trkpt><trkpt lat="41.4895809373148" lon="0.9052472528425632"><ele>380.2</ele><time>2026-05-04T14:29:01.001Z</time></trkpt><trkpt lat="41.489495807409526" lon="0.9053087769984756"><ele>380.8</ele><time>2026-05-04T14:29:02.001Z</time></trkpt><trkpt lat="41.489415792374096" lon="0.90534912139982"><ele>381.40000000000003</ele><time>2026-05-04T14:29:03.001Z</time></trkpt><trkpt lat="41.489324885149735" lon="0.9054224014042734"><ele>382.0</ele><time>2026-05-04T14:29:04.001Z</time></trkpt><trkpt lat="41.4892423652382" lon="0.9054757889596777"><ele>382.0</ele><time>2026-05-04T14:29:05.001Z</time></trkpt><trkpt lat="41.48915691030278" lon="0.9055324046437447"><ele>382.0</ele><time>2026-05-04T14:29:06.001Z</time></trkpt><trkpt lat="41.48906975830316" lon="0.9055915655911951"><ele>382.0</ele><time>2026-05-04T14:29:07.001Z</time></trkpt><trkpt lat="41.48898226655974" lon="0.9056487037845056"><ele>382.0</ele><time>2026-05-04T14:29:08.001Z</time></trkpt><trkpt lat="41.48889807181404" lon="0.9057031878111974"><ele>382.0</ele><time>2026-05-04T14:29:09.001Z</time></trkpt><trkpt lat="41.48881008452617" lon="0.9057639595760937"><ele>382.20000000000005</ele><time>2026-05-04T14:29:10.001Z</time></trkpt><trkpt lat="41.488724698108186" lon="0.905821563392541"><ele>382.4</ele><time>2026-05-04T14:29:11.001Z</time></trkpt><trkpt lat="41.488639468999665" lon="0.9058785085667111"><ele>382.6</ele><time>2026-05-04T14:29:12.001Z</time></trkpt><trkpt lat="41.48854972345067" lon="0.9059351056468236"><ele>382.79999999999995</ele><time>2026-05-04T14:29:13.001Z</time></trkpt><trkpt lat="41.4884616422946" lon="0.9059916601619538"><ele>383.0</ele><time>2026-05-04T14:29:14.001Z</time></trkpt><trkpt lat="41.488368657800656" lon="0.9060557454546243"><ele>383.0</ele><time>2026-05-04T14:29:15.001Z</time></trkpt><trkpt lat="41.48827800316982" lon="0.906114943093777"><ele>383.0</ele><time>2026-05-04T14:29:16.001Z</time></trkpt><trkpt lat="41.48818509918525" lon="0.9061743048934214"><ele>383.0</ele><time>2026-05-04T14:29:17.001Z</time></trkpt><trkpt lat="41.48809196142645" lon="0.9062342888901169"><ele>383.0</ele><time>2026-05-04T14:29:18.001Z</time></trkpt><trkpt lat="41.48799683501132" lon="0.9062987924517646"><ele>383.0</ele><time>2026-05-04T14:29:19.001Z</time></trkpt><trkpt lat="41.48789948047932" lon="0.9063644118506876"><ele>383.0</ele><time>2026-05-04T14:29:20.001Z</time></trkpt><trkpt lat="41.487802924483425" lon="0.9064294724932982"><ele>383.0</ele><time>2026-05-04T14:29:21.001Z</time></trkpt><trkpt lat="41.48770088552364" lon="0.9064984276268051"><ele>383.0</ele><time>2026-05-04T14:29:22.001Z</time></trkpt><trkpt lat="41.48759979531034" lon="0.9065649724382991"><ele>383.0</ele><time>2026-05-04T14:29:23.001Z</time></trkpt><trkpt lat="41.487503634816704" lon="0.9066294688762444"><ele>383.0</ele><time>2026-05-04T14:29:24.001Z</time></trkpt><trkpt lat="41.48740705979953" lon="0.9067046359731431"><ele>382.5</ele><time>2026-05-04T14:29:25.001Z</time></trkpt><trkpt lat="41.4873037409624" lon="0.906782316423432"><ele>382.0</ele><time>2026-05-04T14:29:26.001Z</time></trkpt><trkpt lat="41.487199602764655" lon="0.9068485591512616"><ele>381.5</ele><time>2026-05-04T14:29:27.001Z</time></trkpt><trkpt lat="41.48709804005658" lon="0.9069190873866693"><ele>381.0</ele><time>2026-05-04T14:29:28.001Z</time></trkpt><trkpt lat="41.48699801271604" lon="0.9069803080538629"><ele>381.0</ele><time>2026-05-04T14:29:29.001Z</time></trkpt><trkpt lat="41.486892575178345" lon="0.9070491564077522"><ele>381.0</ele><time>2026-05-04T14:29:30.001Z</time></trkpt><trkpt lat="41.48678657571423" lon="0.9071191347168922"><ele>381.0</ele><time>2026-05-04T14:29:31.001Z</time></trkpt><trkpt lat="41.486685126637845" lon="0.9071892488575183"><ele>381.0</ele><time>2026-05-04T14:29:32.001Z</time></trkpt><trkpt lat="41.48658505118388" lon="0.9072540865491869"><ele>381.0</ele><time>2026-05-04T14:29:33.001Z</time></trkpt><trkpt lat="41.486481684031574" lon="0.9073226105743766"><ele>381.0</ele><time>2026-05-04T14:29:34.001Z</time></trkpt><trkpt lat="41.48638384604545" lon="0.9073898020405412"><ele>381.0</ele><time>2026-05-04T14:29:35.001Z</time></trkpt><trkpt lat="41.486285723283906" lon="0.9074579154779822"><ele>381.0</ele><time>2026-05-04T14:29:36.001Z</time></trkpt><trkpt lat="41.48618676928996" lon="0.907522474811755"><ele>381.0</ele><time>2026-05-04T14:29:37.001Z</time></trkpt><trkpt lat="41.48608507714246" lon="0.907590328348716"><ele>381.0</ele><time>2026-05-04T14:29:38.001Z</time></trkpt><trkpt lat="41.48598524224168" lon="0.9076548450927694"><ele>381.0</ele><time>2026-05-04T14:29:39.001Z</time></trkpt><trkpt lat="41.48588442684339" lon="0.9077208130137654"><ele>381.0</ele><time>2026-05-04T14:29:40.001Z</time></trkpt><trkpt lat="41.48578663739369" lon="0.9077838823816871"><ele>381.0</ele><time>2026-05-04T14:29:41.001Z</time></trkpt><trkpt lat="41.485682497269195" lon="0.9078527053117398"><ele>381.0</ele><time>2026-05-04T14:29:42.001Z</time></trkpt><trkpt lat="41.48558121805736" lon="0.9079168263804517"><ele>381.0</ele><time>2026-05-04T14:29:43.001Z</time></trkpt><trkpt lat="41.48547642717671" lon="0.9079891011992011"><ele>381.0</ele><time>2026-05-04T14:29:44.001Z</time></trkpt><trkpt lat="41.48537421894276" lon="0.9080578332087266"><ele>381.0</ele><time>2026-05-04T14:29:45.001Z</time></trkpt><trkpt lat="41.48527592622054" lon="0.9081274102502919"><ele>381.0</ele><time>2026-05-04T14:29:46.002Z</time></trkpt><trkpt lat="41.48517450504225" lon="0.9081957999603841"><ele>381.8</ele><time>2026-05-04T14:29:47.002Z</time></trkpt><trkpt lat="41.485075467776156" lon="0.9082598936851076"><ele>382.6</ele><time>2026-05-04T14:29:48.002Z</time></trkpt><trkpt lat="41.48497820308566" lon="0.9083228168301315"><ele>383.4</ele><time>2026-05-04T14:29:49.002Z</time></trkpt><trkpt lat="41.484879785974556" lon="0.9083870591686368"><ele>384.2</ele><time>2026-05-04T14:29:50.002Z</time></trkpt><trkpt lat="41.48478355719851" lon="0.9084498599065617"><ele>385.0</ele><time>2026-05-04T14:29:51.002Z</time></trkpt><trkpt lat="41.48470177606653" lon="0.9085057469719399"><ele>385.2</ele><time>2026-05-04T14:29:52.002Z</time></trkpt><trkpt lat="41.484610833260135" lon="0.9085637567185808"><ele>385.4</ele><time>2026-05-04T14:29:53.002Z</time></trkpt><trkpt lat="41.48452280604418" lon="0.9086241306547032"><ele>385.6</ele><time>2026-05-04T14:29:54.002Z</time></trkpt><trkpt lat="41.48443711516714" lon="0.9086820503483846"><ele>385.8</ele><time>2026-05-04T14:29:55.002Z</time></trkpt><trkpt lat="41.48435159297799" lon="0.9087385620603015"><ele>386.0</ele><time>2026-05-04T14:29:56.002Z</time></trkpt><trkpt lat="41.484264115712136" lon="0.908789575343688"><ele>386.6</ele><time>2026-05-04T14:29:57.002Z</time></trkpt><trkpt lat="41.48418024467296" lon="0.9088452014399625"><ele>387.20000000000005</ele><time>2026-05-04T14:29:58.002Z</time></trkpt><trkpt lat="41.4840984449138" lon="0.9089015461596847"><ele>387.79999999999995</ele><time>2026-05-04T14:29:59.002Z</time></trkpt><trkpt lat="41.48401686419886" lon="0.9089551864995541"><ele>388.4</ele><time>2026-05-04T14:30:00.002Z</time></trkpt><trkpt lat="41.483933660797156" lon="0.9090083772487466"><ele>389.0</ele><time>2026-05-04T14:30:01.002Z</time></trkpt><trkpt lat="41.483854578159836" lon="0.9090629277461968"><ele>389.0</ele><time>2026-05-04T14:30:02.002Z</time></trkpt><trkpt lat="41.48377596270394" lon="0.9091164046096384"><ele>389.0</ele><time>2026-05-04T14:30:03.002Z</time></trkpt><trkpt lat="41.48369508646149" lon="0.9091712815422002"><ele>389.0</ele><time>2026-05-04T14:30:04.002Z</time></trkpt><trkpt lat="41.483613617284895" lon="0.9092250071989475"><ele>389.0</ele><time>2026-05-04T14:30:05.002Z</time></trkpt><trkpt lat="41.48353196503476" lon="0.9092786879581537"><ele>389.0</ele><time>2026-05-04T14:30:06.002Z</time></trkpt><trkpt lat="41.48345249303088" lon="0.9093316225438207"><ele>389.79999999999995</ele><time>2026-05-04T14:30:07.002Z</time></trkpt><trkpt lat="41.483369311577675" lon="0.9093860312788585"><ele>390.59999999999997</ele><time>2026-05-04T14:30:08.002Z</time></trkpt><trkpt lat="41.483288489156465" lon="0.9094406788711613"><ele>391.4</ele><time>2026-05-04T14:30:09.002Z</time></trkpt><trkpt lat="41.483204461313946" lon="0.9094976359603979"><ele>392.2</ele><time>2026-05-04T14:30:10.002Z</time></trkpt><trkpt lat="41.48311953860079" lon="0.9095565237843282"><ele>393.0</ele><time>2026-05-04T14:30:11.002Z</time></trkpt><trkpt lat="41.483033664369025" lon="0.9096131844695843"><ele>393.0</ele><time>2026-05-04T14:30:12.002Z</time></trkpt><trkpt lat="41.48294728680815" lon="0.909672733232132"><ele>393.0</ele><time>2026-05-04T14:30:13.002Z</time></trkpt><trkpt lat="41.48286142018411" lon="0.9097310913000101"><ele>393.0</ele><time>2026-05-04T14:30:14.002Z</time></trkpt><trkpt lat="41.48277467389121" lon="0.9097892935902275"><ele>393.0</ele><time>2026-05-04T14:30:15.002Z</time></trkpt><trkpt lat="41.482682702255794" lon="0.9098397299196326"><ele>393.0</ele><time>2026-05-04T14:30:16.002Z</time></trkpt><trkpt lat="41.482592157134974" lon="0.9098946438861807"><ele>393.59999999999997</ele><time>2026-05-04T14:30:17.002Z</time></trkpt><trkpt lat="41.48250558575104" lon="0.9099549066764518"><ele>394.2</ele><time>2026-05-04T14:30:18.002Z</time></trkpt><trkpt lat="41.482413212898834" lon="0.9100124463476132"><ele>394.8</ele><time>2026-05-04T14:30:19.002Z</time></trkpt><trkpt lat="41.48232395146866" lon="0.9100712818242785"><ele>395.4</ele><time>2026-05-04T14:30:20.002Z</time></trkpt><trkpt lat="41.48223586017501" lon="0.9101280978628472"><ele>396.0</ele><time>2026-05-04T14:30:21.002Z</time></trkpt><trkpt lat="41.48214900091318" lon="0.9101839977227845"><ele>396.6</ele><time>2026-05-04T14:30:22.002Z</time></trkpt><trkpt lat="41.482063215154696" lon="0.9102432530023282"><ele>397.20000000000005</ele><time>2026-05-04T14:30:23.002Z</time></trkpt><trkpt lat="41.48197466292911" lon="0.9103043639932503"><ele>397.79999999999995</ele><time>2026-05-04T14:30:24.002Z</time></trkpt><trkpt lat="41.481885467678595" lon="0.9103624149832433"><ele>398.4</ele><time>2026-05-04T14:30:25.002Z</time></trkpt><trkpt lat="41.481802415837016" lon="0.9104194400282778"><ele>399.0</ele><time>2026-05-04T14:30:26.002Z</time></trkpt><trkpt lat="41.48171392077884" lon="0.9104780093947469"><ele>399.0</ele><time>2026-05-04T14:30:27.002Z</time></trkpt><trkpt lat="41.48162917280302" lon="0.9105358803798298"><ele>399.0</ele><time>2026-05-04T14:30:28.002Z</time></trkpt><trkpt lat="41.48154151829038" lon="0.9105965158708355"><ele>399.0</ele><time>2026-05-04T14:30:29.002Z</time></trkpt><trkpt lat="41.48145373773274" lon="0.9106541182364114"><ele>399.0</ele><time>2026-05-04T14:30:30.002Z</time></trkpt><trkpt lat="41.481364809225326" lon="0.9107133216748182"><ele>399.0</ele><time>2026-05-04T14:30:31.001Z</time></trkpt><trkpt lat="41.48128321789526" lon="0.9107698292255385"><ele>399.4</ele><time>2026-05-04T14:30:32.001Z</time></trkpt><trkpt lat="41.48119379981885" lon="0.9108300128589019"><ele>399.79999999999995</ele><time>2026-05-04T14:30:33.001Z</time></trkpt><trkpt lat="41.48110780653392" lon="0.9108886947401312"><ele>400.20000000000005</ele><time>2026-05-04T14:30:34.001Z</time></trkpt><trkpt lat="41.4810172758896" lon="0.9109485938714401"><ele>400.6</ele><time>2026-05-04T14:30:35Z</time></trkpt><trkpt lat="41.480932877419384" lon="0.9110062706341988"><ele>401.0</ele><time>2026-05-04T14:30:36.001Z</time></trkpt><trkpt lat="41.480845404338176" lon="0.9110625911135619"><ele>401.0</ele><time>2026-05-04T14:30:37Z</time></trkpt><trkpt lat="41.48075825790793" lon="0.911120523635486"><ele>401.0</ele><time>2026-05-04T14:30:38Z</time></trkpt><trkpt lat="41.480670552778626" lon="0.911175910755723"><ele>401.0</ele><time>2026-05-04T14:30:39Z</time></trkpt><trkpt lat="41.480581840677004" lon="0.9112338953611919"><ele>401.0</ele><time>2026-05-04T14:30:40Z</time></trkpt><trkpt lat="41.480498558102084" lon="0.9112901076976523"><ele>401.0</ele><time>2026-05-04T14:30:41Z</time></trkpt><trkpt lat="41.48041123977605" lon="0.9113461057808697"><ele>401.20000000000005</ele><time>2026-05-04T14:30:42Z</time></trkpt><trkpt lat="41.48032828542087" lon="0.9114032035386995"><ele>401.40000000000003</ele><time>2026-05-04T14:30:43Z</time></trkpt><trkpt lat="41.480243890831225" lon="0.911460132353793"><ele>401.6</ele><time>2026-05-04T14:30:44Z</time></trkpt><trkpt lat="41.48015614032995" lon="0.9115180055858191"><ele>401.8</ele><time>2026-05-04T14:30:45Z</time></trkpt><trkpt lat="41.480068919239734" lon="0.9115760310823203"><ele>402.0</ele><time>2026-05-04T14:30:46Z</time></trkpt><trkpt lat="41.47998919374448" lon="0.9116311078158725"><ele>402.0</ele><time>2026-05-04T14:30:47Z</time></trkpt><trkpt lat="41.47990083190217" lon="0.9116884896566018"><ele>402.0</ele><time>2026-05-04T14:30:48Z</time></trkpt><trkpt lat="41.479817109762166" lon="0.9117454946989404"><ele>402.0</ele><time>2026-05-04T14:30:49Z</time></trkpt><trkpt lat="41.47973323272982" lon="0.9117998118717946"><ele>402.0</ele><time>2026-05-04T14:30:50Z</time></trkpt><trkpt lat="41.47964828156257" lon="0.9118517921035009"><ele>402.0</ele><time>2026-05-04T14:30:51.001Z</time></trkpt><trkpt lat="41.47956515840317" lon="0.9119071339905875"><ele>402.6</ele><time>2026-05-04T14:30:52.001Z</time></trkpt><trkpt lat="41.47948143684999" lon="0.9119619313983907"><ele>403.20000000000005</ele><time>2026-05-04T14:30:53.001Z</time></trkpt><trkpt lat="41.47940202355301" lon="0.9120163707922311"><ele>403.8</ele><time>2026-05-04T14:30:54.001Z</time></trkpt><trkpt lat="41.4793211115023" lon="0.9120698986388831"><ele>404.4</ele><time>2026-05-04T14:30:55.001Z</time></trkpt><trkpt lat="41.4792383152913" lon="0.9121241524355825"><ele>405.0</ele><time>2026-05-04T14:30:56.001Z</time></trkpt><trkpt lat="41.47916000290656" lon="0.9121785891261306"><ele>405.0</ele><time>2026-05-04T14:30:57.001Z</time></trkpt><trkpt lat="41.47907512290527" lon="0.9122320874996204"><ele>405.0</ele><time>2026-05-04T14:30:58.001Z</time></trkpt><trkpt lat="41.47899307746669" lon="0.9122851606235416"><ele>405.0</ele><time>2026-05-04T14:30:59.001Z</time></trkpt><trkpt lat="41.47891434655875" lon="0.9123395495718446"><ele>405.0</ele><time>2026-05-04T14:31:00.001Z</time></trkpt><trkpt lat="41.478830091428215" lon="0.9123939248092957"><ele>405.0</ele><time>2026-05-04T14:31:01.001Z</time></trkpt><trkpt lat="41.47874789619817" lon="0.9124493801804991"><ele>405.8</ele><time>2026-05-04T14:31:02.001Z</time></trkpt><trkpt lat="41.47866360411187" lon="0.9125045804656736"><ele>406.6</ele><time>2026-05-04T14:31:03.001Z</time></trkpt><trkpt lat="41.478583705649875" lon="0.912559846277648"><ele>407.4</ele><time>2026-05-04T14:31:04.001Z</time></trkpt><trkpt lat="41.47849861488285" lon="0.9126150594472925"><ele>408.2</ele><time>2026-05-04T14:31:05.001Z</time></trkpt><trkpt lat="41.478416767490735" lon="0.9126691150282473"><ele>409.0</ele><time>2026-05-04T14:31:06.001Z</time></trkpt><trkpt lat="41.4783327579901" lon="0.912721107188884"><ele>409.2</ele><time>2026-05-04T14:31:07.001Z</time></trkpt><trkpt lat="41.478253345308545" lon="0.9127762604868997"><ele>409.4</ele><time>2026-05-04T14:31:08.001Z</time></trkpt><trkpt lat="41.478164342909984" lon="0.9128317520632054"><ele>409.6</ele><time>2026-05-04T14:31:09.001Z</time></trkpt><trkpt lat="41.47807988541671" lon="0.9128895084865111"><ele>409.8</ele><time>2026-05-04T14:31:10.001Z</time></trkpt><trkpt lat="41.47799647125459" lon="0.9129480609010722"><ele>410.0</ele><time>2026-05-04T14:31:11.001Z</time></trkpt><trkpt lat="41.477910535136886" lon="0.91300739739688"><ele>410.6</ele><time>2026-05-04T14:31:12.001Z</time></trkpt><trkpt lat="41.47782822515038" lon="0.9130632462395141"><ele>411.2</ele><time>2026-05-04T14:31:13.001Z</time></trkpt><trkpt lat="41.47774853254307" lon="0.9131220312675473"><ele>411.79999999999995</ele><time>2026-05-04T14:31:14.001Z</time></trkpt><trkpt lat="41.477664556574936" lon="0.9131861979135982"><ele>412.4</ele><time>2026-05-04T14:31:15.001Z</time></trkpt><trkpt lat="41.47758677325012" lon="0.9132526298369704"><ele>413.0</ele><time>2026-05-04T14:31:16.001Z</time></trkpt><trkpt lat="41.47750947154096" lon="0.9133227599812962"><ele>413.0</ele><time>2026-05-04T14:31:17.001Z</time></trkpt><trkpt lat="41.47743669459683" lon="0.9133928818281203"><ele>413.0</ele><time>2026-05-04T14:31:18.001Z</time></trkpt><trkpt lat="41.4773594422728" lon="0.9134684499328083"><ele>413.0</ele><time>2026-05-04T14:31:19.001Z</time></trkpt><trkpt lat="41.47728911271331" lon="0.9135468435776402"><ele>413.0</ele><time>2026-05-04T14:31:20.001Z</time></trkpt><trkpt lat="41.4772195691595" lon="0.9136266045369731"><ele>413.0</ele><time>2026-05-04T14:31:21.001Z</time></trkpt><trkpt lat="41.477149696729256" lon="0.9137124168180129"><ele>413.0</ele><time>2026-05-04T14:31:22.001Z</time></trkpt><trkpt lat="41.47708261960443" lon="0.9138027060434116"><ele>413.0</ele><time>2026-05-04T14:31:23.001Z</time></trkpt><trkpt lat="41.47701815719026" lon="0.9138920330646632"><ele>413.0</ele><time>2026-05-04T14:31:24.001Z</time></trkpt><trkpt lat="41.47695681110128" lon="0.9139864125230291"><ele>413.0</ele><time>2026-05-04T14:31:25.001Z</time></trkpt><trkpt lat="41.47689819576094" lon="0.914084207542132"><ele>413.0</ele><time>2026-05-04T14:31:26.001Z</time></trkpt><trkpt lat="41.47683327026803" lon="0.9141855004493232"><ele>413.2</ele><time>2026-05-04T14:31:27.001Z</time></trkpt><trkpt lat="41.47677601707393" lon="0.9142864532463156"><ele>413.4</ele><time>2026-05-04T14:31:28.001Z</time></trkpt><trkpt lat="41.47671995608145" lon="0.9143902421677901"><ele>413.59999999999997</ele><time>2026-05-04T14:31:29.001Z</time></trkpt><trkpt lat="41.47666154056707" lon="0.9145010758575575"><ele>413.79999999999995</ele><time>2026-05-04T14:31:30.001Z</time></trkpt><trkpt lat="41.47660508198424" lon="0.9146049903297256"><ele>414.0</ele><time>2026-05-04T14:31:31.001Z</time></trkpt><trkpt lat="41.476550386099696" lon="0.9147181748157633"><ele>414.0</ele><time>2026-05-04T14:31:32.001Z</time></trkpt><trkpt lat="41.47649447126372" lon="0.914829526661389"><ele>414.0</ele><time>2026-05-04T14:31:33.001Z</time></trkpt><trkpt lat="41.47643796988222" lon="0.9149408070624626"><ele>414.0</ele><time>2026-05-04T14:31:34.001Z</time></trkpt><trkpt lat="41.47638205285736" lon="0.9150512968553285"><ele>414.0</ele><time>2026-05-04T14:31:35.001Z</time></trkpt><trkpt lat="41.476324780992655" lon="0.9151639515554855"><ele>414.0</ele><time>2026-05-04T14:31:36.001Z</time></trkpt><trkpt lat="41.47626862732856" lon="0.9152738932102226"><ele>415.79999999999995</ele><time>2026-05-04T14:31:37.001Z</time></trkpt><trkpt lat="41.47621477570388" lon="0.9153874164789461"><ele>417.59999999999997</ele><time>2026-05-04T14:31:38.001Z</time></trkpt><trkpt lat="41.476159469515714" lon="0.9154953814093819"><ele>419.4</ele><time>2026-05-04T14:31:39.001Z</time></trkpt><trkpt lat="41.47610379681705" lon="0.9156066731770957"><ele>421.2</ele><time>2026-05-04T14:31:40.001Z</time></trkpt><trkpt lat="41.47604713517149" lon="0.9157171027933302"><ele>423.0</ele><time>2026-05-04T14:31:41.001Z</time></trkpt><trkpt lat="41.475992274332526" lon="0.9158224658054688"><ele>422.79999999999995</ele><time>2026-05-04T14:31:42.001Z</time></trkpt><trkpt lat="41.47593866927364" lon="0.9159295986685249"><ele>422.6</ele><time>2026-05-04T14:31:43.001Z</time></trkpt><trkpt lat="41.47588377974985" lon="0.9160344173203975"><ele>422.4</ele><time>2026-05-04T14:31:44.001Z</time></trkpt><trkpt lat="41.47582832927284" lon="0.9161415232887237"><ele>422.20000000000005</ele><time>2026-05-04T14:31:45.001Z</time></trkpt><trkpt lat="41.475776358805774" lon="0.9162474117416707"><ele>422.0</ele><time>2026-05-04T14:31:46.002Z</time></trkpt><trkpt lat="41.47572342644292" lon="0.9163520119131536"><ele>422.0</ele><time>2026-05-04T14:31:47.002Z</time></trkpt><trkpt lat="41.475667848666774" lon="0.9164568108328447"><ele>422.0</ele><time>2026-05-04T14:31:48.002Z</time></trkpt><trkpt lat="41.47561597639783" lon="0.9165595089434871"><ele>422.0</ele><time>2026-05-04T14:31:49.002Z</time></trkpt><trkpt lat="41.47556410420781" lon="0.9166639709303598"><ele>422.0</ele><time>2026-05-04T14:31:50.002Z</time></trkpt><trkpt lat="41.47551076960844" lon="0.9167682758906863"><ele>422.0</ele><time>2026-05-04T14:31:51.002Z</time></trkpt><trkpt lat="41.47545897838193" lon="0.9168703410033698"><ele>423.0</ele><time>2026-05-04T14:31:52.002Z</time></trkpt><trkpt lat="41.47540792224225" lon="0.9169738850040086"><ele>424.0</ele><time>2026-05-04T14:31:53.002Z</time></trkpt><trkpt lat="41.47535260187738" lon="0.9170779006918529"><ele>425.00000000000006</ele><time>2026-05-04T14:31:54.002Z</time></trkpt><trkpt lat="41.47529964880685" lon="0.9171824428058998"><ele>426.0</ele><time>2026-05-04T14:31:55.002Z</time></trkpt><trkpt lat="41.4752458584244" lon="0.9172820490274316"><ele>427.0</ele><time>2026-05-04T14:31:56.002Z</time></trkpt><trkpt lat="41.47519489988339" lon="0.9173837576160381"><ele>427.0</ele><time>2026-05-04T14:31:57.002Z</time></trkpt><trkpt lat="41.475143150014524" lon="0.9174886936030159"><ele>427.00000000000006</ele><time>2026-05-04T14:31:58.002Z</time></trkpt><trkpt lat="41.47508900734526" lon="0.9175930406421848"><ele>427.00000000000006</ele><time>2026-05-04T14:31:59.002Z</time></trkpt><trkpt lat="41.47503984939655" lon="0.9176980556189466"><ele>427.0</ele><time>2026-05-04T14:32:00.002Z</time></trkpt><trkpt lat="41.4749855734477" lon="0.9178069414637728"><ele>427.0</ele><time>2026-05-04T14:32:01.002Z</time></trkpt><trkpt lat="41.474928064783875" lon="0.9179091253709099"><ele>426.8</ele><time>2026-05-04T14:32:02.002Z</time></trkpt><trkpt lat="41.474869528949014" lon="0.9180070003895433"><ele>426.6</ele><time>2026-05-04T14:32:03.002Z</time></trkpt><trkpt lat="41.47480652388889" lon="0.9181104214432539"><ele>426.40000000000003</ele><time>2026-05-04T14:32:04.002Z</time></trkpt><trkpt lat="41.4747505459162" lon="0.9182151572764828"><ele>426.20000000000005</ele><time>2026-05-04T14:32:05.002Z</time></trkpt><trkpt lat="41.474696930753865" lon="0.9183195590347933"><ele>426.0</ele><time>2026-05-04T14:32:06.002Z</time></trkpt><trkpt lat="41.47464137010284" lon="0.9184232955036246"><ele>427.0</ele><time>2026-05-04T14:32:07.002Z</time></trkpt><trkpt lat="41.474587686874855" lon="0.9185286377625671"><ele>428.0</ele><time>2026-05-04T14:32:08.002Z</time></trkpt><trkpt lat="41.47453003864888" lon="0.918632984898552"><ele>429.0</ele><time>2026-05-04T14:32:09.002Z</time></trkpt><trkpt lat="41.474475973531995" lon="0.9187415958790799"><ele>430.0</ele><time>2026-05-04T14:32:10.002Z</time></trkpt><trkpt lat="41.47442448647628" lon="0.9188484588509593"><ele>431.0</ele><time>2026-05-04T14:32:11.002Z</time></trkpt><trkpt lat="41.47437536568254" lon="0.918965180134254"><ele>431.0</ele><time>2026-05-04T14:32:12.002Z</time></trkpt><trkpt lat="41.4743153068836" lon="0.919066367392302"><ele>431.0</ele><time>2026-05-04T14:32:13.002Z</time></trkpt><trkpt lat="41.474258601681534" lon="0.9191726908356308"><ele>431.0</ele><time>2026-05-04T14:32:14.002Z</time></trkpt><trkpt lat="41.47420489589791" lon="0.9192802156994417"><ele>431.0</ele><time>2026-05-04T14:32:15.002Z</time></trkpt><trkpt lat="41.474149502817" lon="0.9193863880528973"><ele>431.0</ele><time>2026-05-04T14:32:16.002Z</time></trkpt><trkpt lat="41.47409679509829" lon="0.9194931086067822"><ele>431.8</ele><time>2026-05-04T14:32:17.002Z</time></trkpt><trkpt lat="41.474043294990814" lon="0.9195994946214358"><ele>432.6</ele><time>2026-05-04T14:32:18.002Z</time></trkpt><trkpt lat="41.47399046712689" lon="0.9197075438672727"><ele>433.4</ele><time>2026-05-04T14:32:19.002Z</time></trkpt><trkpt lat="41.473939189567496" lon="0.9198103421552396"><ele>434.2</ele><time>2026-05-04T14:32:20.002Z</time></trkpt><trkpt lat="41.47388628423836" lon="0.919915186917223"><ele>435.0</ele><time>2026-05-04T14:32:21.002Z</time></trkpt><trkpt lat="41.473833541809846" lon="0.9200173480717968"><ele>435.5</ele><time>2026-05-04T14:32:22.002Z</time></trkpt><trkpt lat="41.47378367966917" lon="0.9201158527660691"><ele>436.0</ele><time>2026-05-04T14:32:23.002Z</time></trkpt><trkpt lat="41.473736474487445" lon="0.9202192594007003"><ele>436.5</ele><time>2026-05-04T14:32:24.002Z</time></trkpt><trkpt lat="41.47368320816374" lon="0.9203174390002482"><ele>437.0</ele><time>2026-05-04T14:32:25.002Z</time></trkpt><trkpt lat="41.47363453221931" lon="0.9204124409252082"><ele>437.5</ele><time>2026-05-04T14:32:26.002Z</time></trkpt><trkpt lat="41.47358609418543" lon="0.9205082186830732"><ele>438.0</ele><time>2026-05-04T14:32:27.002Z</time></trkpt><trkpt lat="41.473540772515136" lon="0.9206007186198658"><ele>438.0</ele><time>2026-05-04T14:32:28.002Z</time></trkpt><trkpt lat="41.47349342822696" lon="0.9206906177903111"><ele>438.0</ele><time>2026-05-04T14:32:29.002Z</time></trkpt><trkpt lat="41.47344680488243" lon="0.9207827640618591"><ele>438.0</ele><time>2026-05-04T14:32:30.002Z</time></trkpt><trkpt lat="41.47340064125716" lon="0.9208714167708734"><ele>438.0</ele><time>2026-05-04T14:32:31.002Z</time></trkpt><trkpt lat="41.473356177430766" lon="0.9209580089257274"><ele>438.0</ele><time>2026-05-04T14:32:32.002Z</time></trkpt><trkpt lat="41.47331016689224" lon="0.9210441750253089"><ele>438.0</ele><time>2026-05-04T14:32:33.002Z</time></trkpt><trkpt lat="41.47326236703783" lon="0.9211336684180008"><ele>438.6666666666667</ele><time>2026-05-04T14:32:34.002Z</time></trkpt><trkpt lat="41.47321769288938" lon="0.921218814252987"><ele>439.33333333333337</ele><time>2026-05-04T14:32:35.002Z</time></trkpt><trkpt lat="41.47317668917603" lon="0.921303265896521"><ele>440.0</ele><time>2026-05-04T14:32:36.002Z</time></trkpt><trkpt lat="41.473133166151904" lon="0.921392571264735"><ele>440.6666666666667</ele><time>2026-05-04T14:32:37.001Z</time></trkpt><trkpt lat="41.47308833135163" lon="0.9214797272577582"><ele>441.33333333333337</ele><time>2026-05-04T14:32:38.001Z</time></trkpt><trkpt lat="41.47304414607583" lon="0.9215611268641101"><ele>442.0</ele><time>2026-05-04T14:32:39.001Z</time></trkpt><trkpt lat="41.47300108549654" lon="0.921645874552178"><ele>442.50000000000006</ele><time>2026-05-04T14:32:40.001Z</time></trkpt><trkpt lat="41.472960753461564" lon="0.9217334570810988"><ele>443.0</ele><time>2026-05-04T14:32:41.001Z</time></trkpt><trkpt lat="41.47291899909714" lon="0.9218180801880425"><ele>443.5</ele><time>2026-05-04T14:32:42.001Z</time></trkpt><trkpt lat="41.47287764482363" lon="0.9219069509096603"><ele>444.0</ele><time>2026-05-04T14:32:43.001Z</time></trkpt><trkpt lat="41.47283560108053" lon="0.9219893992732426"><ele>444.50000000000006</ele><time>2026-05-04T14:32:44.001Z</time></trkpt><trkpt lat="41.47278909913968" lon="0.9220747917674993"><ele>445.0</ele><time>2026-05-04T14:32:45.001Z</time></trkpt><trkpt lat="41.47274816635748" lon="0.9221568662855418"><ele>446.1666666666667</ele><time>2026-05-04T14:32:46.001Z</time></trkpt><trkpt lat="41.47270308378347" lon="0.9222399354191929"><ele>447.33333333333337</ele><time>2026-05-04T14:32:47.001Z</time></trkpt><trkpt lat="41.47265785108919" lon="0.9223243111985144"><ele>448.5</ele><time>2026-05-04T14:32:48.001Z</time></trkpt><trkpt lat="41.47261442606873" lon="0.9224107328680454"><ele>449.66666666666663</ele><time>2026-05-04T14:32:49.001Z</time></trkpt><trkpt lat="41.4725705718043" lon="0.9224964379825147"><ele>450.8333333333333</ele><time>2026-05-04T14:32:50.001Z</time></trkpt><trkpt lat="41.4725313986159" lon="0.9225825866432673"><ele>452.0</ele><time>2026-05-04T14:32:51.001Z</time></trkpt><trkpt lat="41.47249198862868" lon="0.9226670240532615"><ele>452.99999999999994</ele><time>2026-05-04T14:32:52.001Z</time></trkpt><trkpt lat="41.472448214411784" lon="0.92274877186163"><ele>454.0</ele><time>2026-05-04T14:32:53.001Z</time></trkpt><trkpt lat="41.472407422453976" lon="0.9228293358974217"><ele>455.0</ele><time>2026-05-04T14:32:54.001Z</time></trkpt><trkpt lat="41.47236056735692" lon="0.9229160054836082"><ele>456.0</ele><time>2026-05-04T14:32:55.001Z</time></trkpt><trkpt lat="41.472316266864425" lon="0.9230006384178245"><ele>456.99999999999994</ele><time>2026-05-04T14:32:56.001Z</time></trkpt><trkpt lat="41.47227554725452" lon="0.9230795786374583"><ele>458.0</ele><time>2026-05-04T14:32:57.001Z</time></trkpt><trkpt lat="41.47223391311212" lon="0.923161520425139"><ele>458.0</ele><time>2026-05-04T14:32:58.001Z</time></trkpt><trkpt lat="41.47219135406632" lon="0.9232444539825696"><ele>458.0</ele><time>2026-05-04T14:32:59.001Z</time></trkpt><trkpt lat="41.47214996909844" lon="0.9233291445323436"><ele>458.0</ele><time>2026-05-04T14:33:00.001Z</time></trkpt><trkpt lat="41.47210747342485" lon="0.9234108329922286"><ele>458.0</ele><time>2026-05-04T14:33:01.001Z</time></trkpt><trkpt lat="41.472068218464145" lon="0.9234918387517651"><ele>458.0</ele><time>2026-05-04T14:33:02.001Z</time></trkpt><trkpt lat="41.47202675544331" lon="0.9235724467458655"><ele>458.0</ele><time>2026-05-04T14:33:03.001Z</time></trkpt><trkpt lat="41.471985222221534" lon="0.9236523802602562"><ele>458.0</ele><time>2026-05-04T14:33:04.001Z</time></trkpt><trkpt lat="41.47193942107515" lon="0.9237293668236138"><ele>459.42857142857144</ele><time>2026-05-04T14:33:05.001Z</time></trkpt><trkpt lat="41.471892843989146" lon="0.9238051796697538"><ele>460.8571428571429</ele><time>2026-05-04T14:33:06.001Z</time></trkpt><trkpt lat="41.471844805316756" lon="0.9238784225920955"><ele>462.28571428571433</ele><time>2026-05-04T14:33:07.001Z</time></trkpt><trkpt lat="41.47179366505696" lon="0.9239536202919438"><ele>463.7142857142857</ele><time>2026-05-04T14:33:08.001Z</time></trkpt><trkpt lat="41.47174278915049" lon="0.9240252680969353"><ele>465.1428571428572</ele><time>2026-05-04T14:33:09.001Z</time></trkpt><trkpt lat="41.47169095567097" lon="0.9240949179138984"><ele>466.5714285714286</ele><time>2026-05-04T14:33:10.001Z</time></trkpt><trkpt lat="41.471638863271316" lon="0.9241634453684785"><ele>468.0</ele><time>2026-05-04T14:33:11.001Z</time></trkpt><trkpt lat="41.47158561510406" lon="0.924231951528542"><ele>468.3333333333333</ele><time>2026-05-04T14:33:12.001Z</time></trkpt><trkpt lat="41.4715321489818" lon="0.9242961801616072"><ele>468.66666666666663</ele><time>2026-05-04T14:33:13.001Z</time></trkpt><trkpt lat="41.471474602505864" lon="0.9243553092282598"><ele>469.0</ele><time>2026-05-04T14:33:14.001Z</time></trkpt><trkpt lat="41.47141685142851" lon="0.9244161314295525"><ele>469.3333333333333</ele><time>2026-05-04T14:33:15.001Z</time></trkpt><trkpt lat="41.47135534099851" lon="0.9244757254698672"><ele>469.66666666666663</ele><time>2026-05-04T14:33:16.001Z</time></trkpt><trkpt lat="41.471293528383775" lon="0.9245358185799178"><ele>470.0</ele><time>2026-05-04T14:33:17.001Z</time></trkpt><trkpt lat="41.47123014521087" lon="0.9245992982422098"><ele>470.16666666666663</ele><time>2026-05-04T14:33:18.001Z</time></trkpt><trkpt lat="41.47116756503928" lon="0.9246651383070277"><ele>470.3333333333333</ele><time>2026-05-04T14:33:19.001Z</time></trkpt><trkpt lat="41.471103874895135" lon="0.9247324287446866"><ele>470.5</ele><time>2026-05-04T14:33:20.001Z</time></trkpt><trkpt lat="41.471039053627244" lon="0.9247982348310928"><ele>470.66666666666663</ele><time>2026-05-04T14:33:21.001Z</time></trkpt><trkpt lat="41.47097312094679" lon="0.9248653996116123"><ele>470.8333333333333</ele><time>2026-05-04T14:33:22.001Z</time></trkpt><trkpt lat="41.47090534419186" lon="0.9249329116217722"><ele>471.0</ele><time>2026-05-04T14:33:23.001Z</time></trkpt><trkpt lat="41.47083484081927" lon="0.9250021896077707"><ele>470.8</ele><time>2026-05-04T14:33:24.001Z</time></trkpt><trkpt lat="41.470766086046496" lon="0.925070871670316"><ele>470.6</ele><time>2026-05-04T14:33:25.001Z</time></trkpt><trkpt lat="41.47069486235427" lon="0.9251415076594066"><ele>470.4</ele><time>2026-05-04T14:33:26.001Z</time></trkpt><trkpt lat="41.470622200162175" lon="0.9252140244260398"><ele>470.2</ele><time>2026-05-04T14:33:27.001Z</time></trkpt><trkpt lat="41.470546910745874" lon="0.92528819977303"><ele>470.0</ele><time>2026-05-04T14:33:28.001Z</time></trkpt><trkpt lat="41.47047311134556" lon="0.9253664643999117"><ele>470.8</ele><time>2026-05-04T14:33:29.001Z</time></trkpt><trkpt lat="41.470398853818416" lon="0.9254437790797548"><ele>471.6</ele><time>2026-05-04T14:33:30.001Z</time></trkpt><trkpt lat="41.47032249656301" lon="0.9255224115671644"><ele>472.4</ele><time>2026-05-04T14:33:31.001Z</time></trkpt><trkpt lat="41.47024556652768" lon="0.9256003800526161"><ele>473.2</ele><time>2026-05-04T14:33:32.001Z</time></trkpt><trkpt lat="41.47016812188658" lon="0.9256789637385753"><ele>474.0</ele><time>2026-05-04T14:33:33.001Z</time></trkpt><trkpt lat="41.47008937519447" lon="0.925759087564312"><ele>474.0</ele><time>2026-05-04T14:33:34.001Z</time></trkpt><trkpt lat="41.470012860596135" lon="0.9258398013360187"><ele>474.0</ele><time>2026-05-04T14:33:35.001Z</time></trkpt><trkpt lat="41.469935713648375" lon="0.9259215401157661"><ele>474.0</ele><time>2026-05-04T14:33:36.001Z</time></trkpt><trkpt lat="41.46985905752688" lon="0.9260025073750827"><ele>474.0</ele><time>2026-05-04T14:33:37.001Z</time></trkpt><trkpt lat="41.46977987118004" lon="0.9260857264961798"><ele>474.0</ele><time>2026-05-04T14:33:38.001Z</time></trkpt><trkpt lat="41.46970119670414" lon="0.9261701000702016"><ele>473.79999999999995</ele><time>2026-05-04T14:33:39.001Z</time></trkpt><trkpt lat="41.46962369479651" lon="0.9262553774016655"><ele>473.59999999999997</ele><time>2026-05-04T14:33:40.001Z</time></trkpt><trkpt lat="41.46954375264328" lon="0.9263375533962397"><ele>473.4</ele><time>2026-05-04T14:33:41.001Z</time></trkpt><trkpt lat="41.46946373839274" lon="0.9264184625153249"><ele>473.2</ele><time>2026-05-04T14:33:42.001Z</time></trkpt><trkpt lat="41.469383728238554" lon="0.9265026853234577"><ele>473.0</ele><time>2026-05-04T14:33:43.001Z</time></trkpt><trkpt lat="41.46930431345738" lon="0.926589666986024"><ele>473.59999999999997</ele><time>2026-05-04T14:33:44.001Z</time></trkpt><trkpt lat="41.469225093945646" lon="0.9266759850693219"><ele>474.19999999999993</ele><time>2026-05-04T14:33:45.001Z</time></trkpt><trkpt lat="41.46914964367495" lon="0.9267640656014057"><ele>474.8</ele><time>2026-05-04T14:33:46.001Z</time></trkpt><trkpt lat="41.469074843491796" lon="0.9268576570959219"><ele>475.4</ele><time>2026-05-04T14:33:47.001Z</time></trkpt><trkpt lat="41.469003563760104" lon="0.9269517274610382"><ele>476.0</ele><time>2026-05-04T14:33:48.001Z</time></trkpt><trkpt lat="41.46893167298671" lon="0.9270469390127786"><ele>476.0</ele><time>2026-05-04T14:33:49.001Z</time></trkpt><trkpt lat="41.46885912124144" lon="0.9271426779529108"><ele>476.0</ele><time>2026-05-04T14:33:50.001Z</time></trkpt><trkpt lat="41.46878816037129" lon="0.9272401919802462"><ele>476.0</ele><time>2026-05-04T14:33:51.001Z</time></trkpt><trkpt lat="41.46871792320233" lon="0.9273355804723555"><ele>476.0</ele><time>2026-05-04T14:33:52.001Z</time></trkpt><trkpt lat="41.46864804148001" lon="0.9274330411210575"><ele>476.0</ele><time>2026-05-04T14:33:53.001Z</time></trkpt><trkpt lat="41.468580628142156" lon="0.9275329738804445"><ele>477.20000000000005</ele><time>2026-05-04T14:33:54.001Z</time></trkpt><trkpt lat="41.46851328231383" lon="0.9276308959534445"><ele>478.40000000000003</ele><time>2026-05-04T14:33:55.002Z</time></trkpt><trkpt lat="41.46844442918448" lon="0.9277300398566735"><ele>479.6</ele><time>2026-05-04T14:33:56.002Z</time></trkpt><trkpt lat="41.46837717184163" lon="0.9278298389992493"><ele>480.8</ele><time>2026-05-04T14:33:57.002Z</time></trkpt><trkpt lat="41.46830867137822" lon="0.9279289802445378"><ele>482.0</ele><time>2026-05-04T14:33:58.002Z</time></trkpt><trkpt lat="41.46824355636566" lon="0.9280261333274974"><ele>482.0</ele><time>2026-05-04T14:33:59.002Z</time></trkpt><trkpt lat="41.46817766022733" lon="0.9281243796477152"><ele>482.00000000000006</ele><time>2026-05-04T14:34:00.002Z</time></trkpt><trkpt lat="41.46811305845669" lon="0.9282226702209009"><ele>482.00000000000006</ele><time>2026-05-04T14:34:01.002Z</time></trkpt><trkpt lat="41.46804798687525" lon="0.9283220335846217"><ele>482.0</ele><time>2026-05-04T14:34:02.002Z</time></trkpt><trkpt lat="41.46798013678779" lon="0.9284201676237748"><ele>482.0</ele><time>2026-05-04T14:34:03.002Z</time></trkpt><trkpt lat="41.46791066368436" lon="0.9285134750111508"><ele>482.6</ele><time>2026-05-04T14:34:04.002Z</time></trkpt><trkpt lat="41.467843682768255" lon="0.9286082511711309"><ele>483.20000000000005</ele><time>2026-05-04T14:34:05.002Z</time></trkpt><trkpt lat="41.46777629761092" lon="0.928705651494717"><ele>483.8</ele><time>2026-05-04T14:34:06.002Z</time></trkpt><trkpt lat="41.46771050495079" lon="0.9288018092344362"><ele>484.4</ele><time>2026-05-04T14:34:07.002Z</time></trkpt><trkpt lat="41.467646925366225" lon="0.9288995297800176"><ele>485.0</ele><time>2026-05-04T14:34:08.002Z</time></trkpt><trkpt lat="41.467583488133684" lon="0.9289974414255495"><ele>485.0</ele><time>2026-05-04T14:34:09.002Z</time></trkpt><trkpt lat="41.46752039220237" lon="0.9290953642815196"><ele>485.0</ele><time>2026-05-04T14:34:10.002Z</time></trkpt><trkpt lat="41.46745431120711" lon="0.9291935954699336"><ele>485.0</ele><time>2026-05-04T14:34:11.002Z</time></trkpt><trkpt lat="41.46738806555854" lon="0.9292901088439698"><ele>485.0</ele><time>2026-05-04T14:34:12.002Z</time></trkpt><trkpt lat="41.467322596969844" lon="0.9293861083951044"><ele>485.0</ele><time>2026-05-04T14:34:13.002Z</time></trkpt><trkpt lat="41.46725687043171" lon="0.9294843177508327"><ele>485.4</ele><time>2026-05-04T14:34:14.002Z</time></trkpt><trkpt lat="41.46718978504229" lon="0.9295804983308856"><ele>485.8</ele><time>2026-05-04T14:34:15.002Z</time></trkpt><trkpt lat="41.46712273116412" lon="0.9296720282343455"><ele>486.20000000000005</ele><time>2026-05-04T14:34:16.002Z</time></trkpt><trkpt lat="41.46705611117295" lon="0.9297682844771364"><ele>486.6</ele><time>2026-05-04T14:34:17.002Z</time></trkpt><trkpt lat="41.4669942510256" lon="0.9298700218973054"><ele>487.0</ele><time>2026-05-04T14:34:18.002Z</time></trkpt><trkpt lat="41.46692866898287" lon="0.9299716318495328"><ele>487.6</ele><time>2026-05-04T14:34:19.002Z</time></trkpt><trkpt lat="41.46686533220936" lon="0.9300690439500056"><ele>488.20000000000005</ele><time>2026-05-04T14:34:20.002Z</time></trkpt><trkpt lat="41.466801656608546" lon="0.9301664071976979"><ele>488.8</ele><time>2026-05-04T14:34:21.002Z</time></trkpt><trkpt lat="41.46673630304728" lon="0.9302626455504102"><ele>489.4</ele><time>2026-05-04T14:34:22.002Z</time></trkpt><trkpt lat="41.46667157550342" lon="0.9303607362396634"><ele>490.0</ele><time>2026-05-04T14:34:23.002Z</time></trkpt><trkpt lat="41.46660863625299" lon="0.9304619288339936"><ele>490.0</ele><time>2026-05-04T14:34:24.002Z</time></trkpt><trkpt lat="41.46654588285425" lon="0.93056459429259"><ele>490.0</ele><time>2026-05-04T14:34:25.002Z</time></trkpt><trkpt lat="41.46648447648507" lon="0.9306636479139587"><ele>490.0</ele><time>2026-05-04T14:34:26.002Z</time></trkpt><trkpt lat="41.46642282297891" lon="0.9307664789178017"><ele>490.0</ele><time>2026-05-04T14:34:27.002Z</time></trkpt><trkpt lat="41.46636237855505" lon="0.9308711649680728"><ele>490.0</ele><time>2026-05-04T14:34:28.002Z</time></trkpt><trkpt lat="41.46630163105617" lon="0.9309750627998593"><ele>490.2</ele><time>2026-05-04T14:34:29.002Z</time></trkpt><trkpt lat="41.46623988567986" lon="0.9310774684248676"><ele>490.4</ele><time>2026-05-04T14:34:30.002Z</time></trkpt><trkpt lat="41.466179345461725" lon="0.931181677627492"><ele>490.6</ele><time>2026-05-04T14:34:31.002Z</time></trkpt><trkpt lat="41.46611871954393" lon="0.9312853248282498"><ele>490.8</ele><time>2026-05-04T14:34:32.002Z</time></trkpt><trkpt lat="41.466061069352094" lon="0.931389664032751"><ele>491.0</ele><time>2026-05-04T14:34:33.002Z</time></trkpt><trkpt lat="41.4660046776718" lon="0.9314976968781886"><ele>491.0</ele><time>2026-05-04T14:34:34.002Z</time></trkpt><trkpt lat="41.46594938464265" lon="0.9316093727622626"><ele>491.0</ele><time>2026-05-04T14:34:35.002Z</time></trkpt><trkpt lat="41.4658927334938" lon="0.9317222464943744"><ele>491.0</ele><time>2026-05-04T14:34:36.002Z</time></trkpt><trkpt lat="41.46583488340257" lon="0.9318324498438147"><ele>491.0</ele><time>2026-05-04T14:34:37.002Z</time></trkpt><trkpt lat="41.46577846864701" lon="0.9319401916902182"><ele>491.0</ele><time>2026-05-04T14:34:38.002Z</time></trkpt><trkpt lat="41.465722224687454" lon="0.9320488421066329"><ele>491.4</ele><time>2026-05-04T14:34:39.002Z</time></trkpt><trkpt lat="41.46566884189412" lon="0.9321613511561969"><ele>491.8</ele><time>2026-05-04T14:34:40.002Z</time></trkpt><trkpt lat="41.46561422921682" lon="0.9322754525164414"><ele>492.19999999999993</ele><time>2026-05-04T14:34:41.002Z</time></trkpt><trkpt lat="41.46555906926173" lon="0.9323882338067783"><ele>492.59999999999997</ele><time>2026-05-04T14:34:42.002Z</time></trkpt><trkpt lat="41.465505194544676" lon="0.9325005588168641"><ele>493.0</ele><time>2026-05-04T14:34:43.001Z</time></trkpt><trkpt lat="41.465450539564614" lon="0.9326138274468553"><ele>493.59999999999997</ele><time>2026-05-04T14:34:44.001Z</time></trkpt><trkpt lat="41.46539583712555" lon="0.9327271298232443"><ele>494.19999999999993</ele><time>2026-05-04T14:34:45.001Z</time></trkpt><trkpt lat="41.46534082208474" lon="0.9328409913224582"><ele>494.8</ele><time>2026-05-04T14:34:46.001Z</time></trkpt><trkpt lat="41.46528538564922" lon="0.9329520194594563"><ele>495.4</ele><time>2026-05-04T14:34:47.001Z</time></trkpt><trkpt lat="41.465231564681275" lon="0.9330636028741999"><ele>496.0</ele><time>2026-05-04T14:34:48.001Z</time></trkpt><trkpt lat="41.465177055805256" lon="0.9331739565034285"><ele>496.0</ele><time>2026-05-04T14:34:49.001Z</time></trkpt><trkpt lat="41.465122224282354" lon="0.9332854349783092"><ele>496.0</ele><time>2026-05-04T14:34:50.001Z</time></trkpt><trkpt lat="41.46506837121416" lon="0.9333975209310624"><ele>496.0</ele><time>2026-05-04T14:34:51.001Z</time></trkpt><trkpt lat="41.465016263717246" lon="0.9335086465845477"><ele>496.0</ele><time>2026-05-04T14:34:52.001Z</time></trkpt><trkpt lat="41.46496441664884" lon="0.9336186066452655"><ele>496.0</ele><time>2026-05-04T14:34:53.001Z</time></trkpt><trkpt lat="41.464913415972205" lon="0.9337297915841318"><ele>497.0</ele><time>2026-05-04T14:34:54.001Z</time></trkpt><trkpt lat="41.46485988890452" lon="0.9338408252372769"><ele>498.0</ele><time>2026-05-04T14:34:55.001Z</time></trkpt><trkpt lat="41.464805780926675" lon="0.9339515766627194"><ele>499.0</ele><time>2026-05-04T14:34:56.001Z</time></trkpt><trkpt lat="41.464751418325434" lon="0.934061482378972"><ele>500.0</ele><time>2026-05-04T14:34:57.001Z</time></trkpt><trkpt lat="41.464698519124134" lon="0.9341718502468437"><ele>501.0</ele><time>2026-05-04T14:34:58.001Z</time></trkpt><trkpt lat="41.4646465434101" lon="0.9342837191889031"><ele>501.20000000000005</ele><time>2026-05-04T14:34:59.001Z</time></trkpt><trkpt lat="41.46459179841954" lon="0.9343944898845695"><ele>501.40000000000003</ele><time>2026-05-04T14:35:00.001Z</time></trkpt><trkpt lat="41.46453562321428" lon="0.9345024751977093"><ele>501.6</ele><time>2026-05-04T14:35:01.001Z</time></trkpt><trkpt lat="41.464478173596234" lon="0.9346084552740498"><ele>501.8</ele><time>2026-05-04T14:35:02.001Z</time></trkpt><trkpt lat="41.46442077802609" lon="0.9347145903445497"><ele>502.0</ele><time>2026-05-04T14:35:03.001Z</time></trkpt><trkpt lat="41.464360507377144" lon="0.9348177454623423"><ele>502.0</ele><time>2026-05-04T14:35:04.001Z</time></trkpt><trkpt lat="41.464297057167656" lon="0.9349174102351385"><ele>502.00000000000006</ele><time>2026-05-04T14:35:05.001Z</time></trkpt><trkpt lat="41.46423076224288" lon="0.935015465311527"><ele>502.00000000000006</ele><time>2026-05-04T14:35:06.001Z</time></trkpt><trkpt lat="41.464162235681734" lon="0.9351098779519241"><ele>502.0</ele><time>2026-05-04T14:35:07.001Z</time></trkpt><trkpt lat="41.4640926397137" lon="0.9352025737249634"><ele>502.0</ele><time>2026-05-04T14:35:08.001Z</time></trkpt><trkpt lat="41.464020197283354" lon="0.9352923046531275"><ele>502.40000000000003</ele><time>2026-05-04T14:35:09.001Z</time></trkpt><trkpt lat="41.463944845095774" lon="0.9353767596629374"><ele>502.80000000000007</ele><time>2026-05-04T14:35:10.001Z</time></trkpt><trkpt lat="41.463865705250726" lon="0.9354573461845296"><ele>503.2</ele><time>2026-05-04T14:35:11.001Z</time></trkpt><trkpt lat="41.46378636211929" lon="0.9355370306191252"><ele>503.6</ele><time>2026-05-04T14:35:12.001Z</time></trkpt><trkpt lat="41.463704674095226" lon="0.9356126778690684"><ele>504.0</ele><time>2026-05-04T14:35:13.001Z</time></trkpt><trkpt lat="41.4636223824896" lon="0.9356870972143028"><ele>504.0</ele><time>2026-05-04T14:35:14.001Z</time></trkpt><trkpt lat="41.4635391864233" lon="0.9357647767594547"><ele>504.0</ele><time>2026-05-04T14:35:15.001Z</time></trkpt><trkpt lat="41.46345694932251" lon="0.935840455725538"><ele>504.0</ele><time>2026-05-04T14:35:16.001Z</time></trkpt><trkpt lat="41.46337403218326" lon="0.935916774364513"><ele>504.0</ele><time>2026-05-04T14:35:17.001Z</time></trkpt><trkpt lat="41.46329148465518" lon="0.9359954209193831"><ele>504.0</ele><time>2026-05-04T14:35:18.001Z</time></trkpt><trkpt lat="41.463205562579624" lon="0.9360696363427293"><ele>504.0</ele><time>2026-05-04T14:35:19.001Z</time></trkpt><trkpt lat="41.46311949569686" lon="0.9361435231477397"><ele>504.0</ele><time>2026-05-04T14:35:20.001Z</time></trkpt><trkpt lat="41.46303521279576" lon="0.9362165234634983"><ele>504.0</ele><time>2026-05-04T14:35:21.001Z</time></trkpt><trkpt lat="41.462951812822624" lon="0.9362910406639015"><ele>504.0</ele><time>2026-05-04T14:35:22.001Z</time></trkpt><trkpt lat="41.462866364541995" lon="0.936366087824613"><ele>504.0</ele><time>2026-05-04T14:35:23.001Z</time></trkpt><trkpt lat="41.4627809025022" lon="0.9364388191713366"><ele>504.6</ele><time>2026-05-04T14:35:24.001Z</time></trkpt><trkpt lat="41.462696151401474" lon="0.9365168825600474"><ele>505.2</ele><time>2026-05-04T14:35:25.001Z</time></trkpt><trkpt lat="41.462608485101285" lon="0.9365958913875646"><ele>505.80000000000007</ele><time>2026-05-04T14:35:26.001Z</time></trkpt><trkpt lat="41.462521554452884" lon="0.9366727260894868"><ele>506.40000000000003</ele><time>2026-05-04T14:35:27.001Z</time></trkpt><trkpt lat="41.46243531229223" lon="0.9367504011292039"><ele>507.0</ele><time>2026-05-04T14:35:28.001Z</time></trkpt><trkpt lat="41.46234973196823" lon="0.936825745969814"><ele>507.20000000000005</ele><time>2026-05-04T14:35:29.001Z</time></trkpt><trkpt lat="41.46226570948159" lon="0.9368996833597107"><ele>507.40000000000003</ele><time>2026-05-04T14:35:30.001Z</time></trkpt><trkpt lat="41.46218306662873" lon="0.9369738845265904"><ele>507.59999999999997</ele><time>2026-05-04T14:35:31.001Z</time></trkpt><trkpt lat="41.462102311229714" lon="0.9370478475271324"><ele>507.79999999999995</ele><time>2026-05-04T14:35:32.001Z</time></trkpt><trkpt lat="41.46201981380164" lon="0.9371201018467009"><ele>508.0</ele><time>2026-05-04T14:35:33.001Z</time></trkpt><trkpt lat="41.46193656126235" lon="0.9371909175596727"><ele>508.79999999999995</ele><time>2026-05-04T14:35:34.001Z</time></trkpt><trkpt lat="41.46185643853717" lon="0.9372617260759754"><ele>509.59999999999997</ele><time>2026-05-04T14:35:35.001Z</time></trkpt><trkpt lat="41.4617760600278" lon="0.9373329053494452"><ele>510.40000000000003</ele><time>2026-05-04T14:35:36.001Z</time></trkpt><trkpt lat="41.46169644112035" lon="0.9374053975025127"><ele>511.20000000000005</ele><time>2026-05-04T14:35:37.001Z</time></trkpt><trkpt lat="41.461617057792594" lon="0.9374791375262038"><ele>512.0</ele><time>2026-05-04T14:35:38.001Z</time></trkpt><trkpt lat="41.4615373322354" lon="0.9375532872645924"><ele>512.0</ele><time>2026-05-04T14:35:39.001Z</time></trkpt><trkpt lat="41.4614571137128" lon="0.9376284625725251"><ele>512.0</ele><time>2026-05-04T14:35:40.001Z</time></trkpt><trkpt lat="41.461379406124124" lon="0.9377039959476792"><ele>512.0</ele><time>2026-05-04T14:35:41.001Z</time></trkpt><trkpt lat="41.461301243634686" lon="0.9377791530083109"><ele>512.0</ele><time>2026-05-04T14:35:42.001Z</time></trkpt><trkpt lat="41.46122354518846" lon="0.9378557195621777"><ele>512.0</ele><time>2026-05-04T14:35:43.001Z</time></trkpt><trkpt lat="41.46114473258224" lon="0.9379330774406438"><ele>512.8000000000001</ele><time>2026-05-04T14:35:44.001Z</time></trkpt><trkpt lat="41.46106561850443" lon="0.9380086393992609"><ele>513.6</ele><time>2026-05-04T14:35:45.001Z</time></trkpt><trkpt lat="41.460988099100085" lon="0.9380890670458115"><ele>514.4000000000001</ele><time>2026-05-04T14:35:46.001Z</time></trkpt><trkpt lat="41.46090917829357" lon="0.93816957129113"><ele>515.2</ele><time>2026-05-04T14:35:47.001Z</time></trkpt><trkpt lat="41.460830726912114" lon="0.9382484720534914"><ele>516.0</ele><time>2026-05-04T14:35:48.001Z</time></trkpt><trkpt lat="41.46075223954218" lon="0.9383287780048415"><ele>516.0</ele><time>2026-05-04T14:35:49.001Z</time></trkpt><trkpt lat="41.460671753711495" lon="0.9384102137751582"><ele>516.0</ele><time>2026-05-04T14:35:50.001Z</time></trkpt><trkpt lat="41.46059082214448" lon="0.9384931073610537"><ele>516.0</ele><time>2026-05-04T14:35:51.001Z</time></trkpt><trkpt lat="41.460508048762385" lon="0.9385756086127544"><ele>516.0</ele><time>2026-05-04T14:35:52.001Z</time></trkpt><trkpt lat="41.46042479834423" lon="0.9386586459116586"><ele>516.0</ele><time>2026-05-04T14:35:53.001Z</time></trkpt><trkpt lat="41.4603425427833" lon="0.9387423780826939"><ele>516.2</ele><time>2026-05-04T14:35:54.001Z</time></trkpt><trkpt lat="41.460258903955506" lon="0.938826466155401"><ele>516.4000000000001</ele><time>2026-05-04T14:35:55.001Z</time></trkpt><trkpt lat="41.460175135483155" lon="0.9389090899321064"><ele>516.6</ele><time>2026-05-04T14:35:56.001Z</time></trkpt><trkpt lat="41.46009080110803" lon="0.9389915431383432"><ele>516.8000000000001</ele><time>2026-05-04T14:35:57.001Z</time></trkpt><trkpt lat="41.460006075516404" lon="0.9390802142027654"><ele>517.0</ele><time>2026-05-04T14:35:58.001Z</time></trkpt><trkpt lat="41.45992127671973" lon="0.9391649096240103"><ele>517.6</ele><time>2026-05-04T14:35:59.001Z</time></trkpt><trkpt lat="41.45983450114342" lon="0.9392516324299407"><ele>518.2</ele><time>2026-05-04T14:36:00.001Z</time></trkpt><trkpt lat="41.459749252761426" lon="0.9393362712649245"><ele>518.8</ele><time>2026-05-04T14:36:01.001Z</time></trkpt><trkpt lat="41.45966646813379" lon="0.939424389189311"><ele>519.4</ele><time>2026-05-04T14:36:02.001Z</time></trkpt><trkpt lat="41.45958256424018" lon="0.9395169817008608"><ele>520.0</ele><time>2026-05-04T14:36:03.001Z</time></trkpt><trkpt lat="41.45949978000642" lon="0.9396084537144382"><ele>520.0</ele><time>2026-05-04T14:36:04.001Z</time></trkpt><trkpt lat="41.459416416218595" lon="0.9396977101031745"><ele>520.0</ele><time>2026-05-04T14:36:05.001Z</time></trkpt><trkpt lat="41.459334754124356" lon="0.9397890173027299"><ele>520.0</ele><time>2026-05-04T14:36:06.001Z</time></trkpt><trkpt lat="41.4592519340306" lon="0.9398795138209491"><ele>520.0</ele><time>2026-05-04T14:36:07.001Z</time></trkpt><trkpt lat="41.45917015824863" lon="0.9399701459537126"><ele>520.0</ele><time>2026-05-04T14:36:08.001Z</time></trkpt><trkpt lat="41.45908759954238" lon="0.9400601345688114"><ele>520.2</ele><time>2026-05-04T14:36:09.001Z</time></trkpt><trkpt lat="41.459006949514546" lon="0.9401499778410987"><ele>520.4</ele><time>2026-05-04T14:36:10.001Z</time></trkpt><trkpt lat="41.45892838725392" lon="0.9402415474271987"><ele>520.6</ele><time>2026-05-04T14:36:11.001Z</time></trkpt><trkpt lat="41.458850922282146" lon="0.9403326318916237"><ele>520.8</ele><time>2026-05-04T14:36:12.001Z</time></trkpt><trkpt lat="41.458774744321" lon="0.9404245040220437"><ele>521.0</ele><time>2026-05-04T14:36:13.001Z</time></trkpt><trkpt lat="41.458696710492454" lon="0.9405151703743472"><ele>521.2</ele><time>2026-05-04T14:36:14.002Z</time></trkpt><trkpt lat="41.45861947552092" lon="0.9406073190829985"><ele>521.4000000000001</ele><time>2026-05-04T14:36:15.002Z</time></trkpt><trkpt lat="41.458541425032685" lon="0.9406977484215518"><ele>521.6</ele><time>2026-05-04T14:36:16.002Z</time></trkpt><trkpt lat="41.45846281490726" lon="0.9407848093439264"><ele>521.8000000000001</ele><time>2026-05-04T14:36:17.002Z</time></trkpt><trkpt lat="41.45838171911608" lon="0.9408685643250139"><ele>522.0</ele><time>2026-05-04T14:36:18.002Z</time></trkpt><trkpt lat="41.45830289835147" lon="0.9409519985270222"><ele>522.4</ele><time>2026-05-04T14:36:19.002Z</time></trkpt><trkpt lat="41.458224663416075" lon="0.9410367637028155"><ele>522.8000000000001</ele><time>2026-05-04T14:36:20.002Z</time></trkpt><trkpt lat="41.45814712960186" lon="0.9411201307500201"><ele>523.2</ele><time>2026-05-04T14:36:21.002Z</time></trkpt><trkpt lat="41.45806706476982" lon="0.941199789987904"><ele>523.6</ele><time>2026-05-04T14:36:22.002Z</time></trkpt><trkpt lat="41.45799016654935" lon="0.9412799148917351"><ele>524.0</ele><time>2026-05-04T14:36:23.002Z</time></trkpt><trkpt lat="41.45790934457059" lon="0.9413581315526675"><ele>524.8</ele><time>2026-05-04T14:36:24.002Z</time></trkpt><trkpt lat="41.45782725861863" lon="0.9414313246569643"><ele>525.5999999999999</ele><time>2026-05-04T14:36:25.002Z</time></trkpt><trkpt lat="41.45774719292665" lon="0.9415049197830848"><ele>526.4</ele><time>2026-05-04T14:36:26.002Z</time></trkpt><trkpt lat="41.45766504794826" lon="0.941575597348728"><ele>527.1999999999999</ele><time>2026-05-04T14:36:27.002Z</time></trkpt><trkpt lat="41.45757982197358" lon="0.9416430121522893"><ele>528.0</ele><time>2026-05-04T14:36:28.002Z</time></trkpt><trkpt lat="41.457494185941435" lon="0.9417063080977635"><ele>528.1999999999999</ele><time>2026-05-04T14:36:29.002Z</time></trkpt><trkpt lat="41.45740641130602" lon="0.9417678549449221"><ele>528.4</ele><time>2026-05-04T14:36:30.002Z</time></trkpt><trkpt lat="41.45731649514142" lon="0.9418259215194804"><ele>528.5999999999999</ele><time>2026-05-04T14:36:31.002Z</time></trkpt><trkpt lat="41.45722651146983" lon="0.9418811560984185"><ele>528.8</ele><time>2026-05-04T14:36:32.002Z</time></trkpt><trkpt lat="41.45713479837464" lon="0.941932225705019"><ele>529.0</ele><time>2026-05-04T14:36:33.002Z</time></trkpt><trkpt lat="41.457045311669134" lon="0.9419826870806083"><ele>529.0</ele><time>2026-05-04T14:36:34.002Z</time></trkpt><trkpt lat="41.45695188853071" lon="0.9420330393009118"><ele>529.0</ele><time>2026-05-04T14:36:35.002Z</time></trkpt><trkpt lat="41.45685871941672" lon="0.9420817211138948"><ele>529.0</ele><time>2026-05-04T14:36:36.002Z</time></trkpt><trkpt lat="41.45676379859711" lon="0.9421268806779913"><ele>529.0</ele><time>2026-05-04T14:36:37.002Z</time></trkpt><trkpt lat="41.45666926750155" lon="0.9421704367325899"><ele>529.0</ele><time>2026-05-04T14:36:38.002Z</time></trkpt><trkpt lat="41.456575240537155" lon="0.9422124122393406"><ele>529.0</ele><time>2026-05-04T14:36:39.002Z</time></trkpt><trkpt lat="41.4564799157435" lon="0.9422551542829728"><ele>529.0</ele><time>2026-05-04T14:36:40.002Z</time></trkpt><trkpt lat="41.456384473740506" lon="0.9422942728930598"><ele>529.0</ele><time>2026-05-04T14:36:41.002Z</time></trkpt><trkpt lat="41.4562873308658" lon="0.9423326936549595"><ele>529.0</ele><time>2026-05-04T14:36:42.002Z</time></trkpt><trkpt lat="41.456187472407784" lon="0.9423714792909288"><ele>529.0</ele><time>2026-05-04T14:36:43.002Z</time></trkpt><trkpt lat="41.456088500999954" lon="0.9424122263521308"><ele>529.2</ele><time>2026-05-04T14:36:44.002Z</time></trkpt><trkpt lat="41.45598934628367" lon="0.9424501786337792"><ele>529.4</ele><time>2026-05-04T14:36:45.002Z</time></trkpt><trkpt lat="41.455890159470336" lon="0.9424901737973359"><ele>529.6</ele><time>2026-05-04T14:36:46.002Z</time></trkpt><trkpt lat="41.455789700308046" lon="0.9425309462309293"><ele>529.8</ele><time>2026-05-04T14:36:47.002Z</time></trkpt><trkpt lat="41.45568623442788" lon="0.9425715049287148"><ele>530.0</ele><time>2026-05-04T14:36:48.002Z</time></trkpt><trkpt lat="41.45558303161199" lon="0.9426092329720677"><ele>530.0</ele><time>2026-05-04T14:36:49Z</time></trkpt><trkpt lat="41.45548030247941" lon="0.942648479285659"><ele>530.0</ele><time>2026-05-04T14:36:50Z</time></trkpt><trkpt lat="41.45537681369669" lon="0.9426897093037789"><ele>530.0</ele><time>2026-05-04T14:36:51Z</time></trkpt><trkpt lat="41.45527202097465" lon="0.9427299578011705"><ele>530.0</ele><time>2026-05-04T14:36:52Z</time></trkpt><trkpt lat="41.45516796489826" lon="0.9427689383376209"><ele>530.0</ele><time>2026-05-04T14:36:53Z</time></trkpt><trkpt lat="41.45506181609054" lon="0.9428081939291805"><ele>531.0</ele><time>2026-05-04T14:36:54Z</time></trkpt><trkpt lat="41.454957900877055" lon="0.9428489420803432"><ele>532.0</ele><time>2026-05-04T14:36:55Z</time></trkpt><trkpt lat="41.45485421153145" lon="0.9428924057113288"><ele>533.0</ele><time>2026-05-04T14:36:56Z</time></trkpt><trkpt lat="41.45475095864661" lon="0.9429351862432777"><ele>534.0</ele><time>2026-05-04T14:36:57Z</time></trkpt><trkpt lat="41.454646438311784" lon="0.9429758727080014"><ele>535.0</ele><time>2026-05-04T14:36:58Z</time></trkpt><trkpt lat="41.454542880722286" lon="0.9430156438292561"><ele>535.0</ele><time>2026-05-04T14:36:59Z</time></trkpt><trkpt lat="41.45443776356497" lon="0.9430536594294527"><ele>535.0</ele><time>2026-05-04T14:37:00Z</time></trkpt><trkpt lat="41.454332413032226" lon="0.9430974954909097"><ele>535.0</ele><time>2026-05-04T14:37:01Z</time></trkpt><trkpt lat="41.454228473974965" lon="0.9431431564922315"><ele>535.0</ele><time>2026-05-04T14:37:02Z</time></trkpt><trkpt lat="41.454124703677245" lon="0.9431884204396489"><ele>535.0</ele><time>2026-05-04T14:37:03Z</time></trkpt><trkpt lat="41.45402200737945" lon="0.943229115214942"><ele>535.0</ele><time>2026-05-04T14:37:04Z</time></trkpt><trkpt lat="41.45391601762959" lon="0.9432720269804531"><ele>535.0</ele><time>2026-05-04T14:37:05Z</time></trkpt><trkpt lat="41.453810519483454" lon="0.9433134683623349"><ele>535.0</ele><time>2026-05-04T14:37:06Z</time></trkpt><trkpt lat="41.45370611716835" lon="0.943355863091977"><ele>535.0</ele><time>2026-05-04T14:37:07Z</time></trkpt><trkpt lat="41.4536008870645" lon="0.9433970828937758"><ele>535.0</ele><time>2026-05-04T14:37:08Z</time></trkpt><trkpt lat="41.453496254033446" lon="0.9434385060321558"><ele>535.5</ele><time>2026-05-04T14:37:09Z</time></trkpt><trkpt lat="41.45339268811161" lon="0.9434857898086652"><ele>536.0</ele><time>2026-05-04T14:37:10Z</time></trkpt><trkpt lat="41.45327893469731" lon="0.9435267070765514"><ele>536.5</ele><time>2026-05-04T14:37:11Z</time></trkpt><trkpt lat="41.45316920956358" lon="0.9435688544772751"><ele>537.0</ele><time>2026-05-04T14:37:12Z</time></trkpt><trkpt lat="41.45306252615647" lon="0.9436120165800289"><ele>537.0</ele><time>2026-05-04T14:37:13Z</time></trkpt><trkpt lat="41.45295605828158" lon="0.9436566722269726"><ele>537.0</ele><time>2026-05-04T14:37:14Z</time></trkpt><trkpt lat="41.45285174870653" lon="0.9436987601641158"><ele>537.0</ele><time>2026-05-04T14:37:15Z</time></trkpt><trkpt lat="41.45275022591555" lon="0.9437393579939625"><ele>537.0</ele><time>2026-05-04T14:37:16Z</time></trkpt><trkpt lat="41.45264801116706" lon="0.9437816218468295"><ele>537.0</ele><time>2026-05-04T14:37:17Z</time></trkpt><trkpt lat="41.45254621201839" lon="0.9438277399773568"><ele>536.8000000000001</ele><time>2026-05-04T14:37:18Z</time></trkpt><trkpt lat="41.45244196553659" lon="0.9438757965860564"><ele>536.6</ele><time>2026-05-04T14:37:19Z</time></trkpt><trkpt lat="41.45233845973517" lon="0.9439196158894902"><ele>536.4000000000001</ele><time>2026-05-04T14:37:20Z</time></trkpt><trkpt lat="41.452234933947594" lon="0.9439606639666641"><ele>536.2</ele><time>2026-05-04T14:37:21Z</time></trkpt><trkpt lat="41.452128876315015" lon="0.9440018717771343"><ele>536.0</ele><time>2026-05-04T14:37:22Z</time></trkpt><trkpt lat="41.45202280126034" lon="0.9440444786603567"><ele>536.0</ele><time>2026-05-04T14:37:23Z</time></trkpt><trkpt lat="41.4519190469252" lon="0.9440877389282916"><ele>536.0</ele><time>2026-05-04T14:37:24Z</time></trkpt><trkpt lat="41.45181527071404" lon="0.9441290085414308"><ele>536.0</ele><time>2026-05-04T14:37:25Z</time></trkpt><trkpt lat="41.45171383583465" lon="0.9441679936276908"><ele>536.0</ele><time>2026-05-04T14:37:26Z</time></trkpt><trkpt lat="41.45161156814218" lon="0.9442095018174714"><ele>536.0</ele><time>2026-05-04T14:37:27Z</time></trkpt><trkpt lat="41.451510233059814" lon="0.9442494797919775"><ele>535.8</ele><time>2026-05-04T14:37:28.001Z</time></trkpt><trkpt lat="41.4514075297368" lon="0.944287659462624"><ele>535.6</ele><time>2026-05-04T14:37:29.001Z</time></trkpt><trkpt lat="41.45130724693211" lon="0.9443299397694085"><ele>535.4</ele><time>2026-05-04T14:37:30.001Z</time></trkpt><trkpt lat="41.451207475149936" lon="0.9443738969836161"><ele>535.2</ele><time>2026-05-04T14:37:31.001Z</time></trkpt><trkpt lat="41.45110684366354" lon="0.9444169519962216"><ele>535.0</ele><time>2026-05-04T14:37:32.001Z</time></trkpt><trkpt lat="41.45100755047188" lon="0.9444562270640727"><ele>536.6</ele><time>2026-05-04T14:37:33.001Z</time></trkpt><trkpt lat="41.450907407064804" lon="0.9444954819391118"><ele>538.2</ele><time>2026-05-04T14:37:34.001Z</time></trkpt><trkpt lat="41.45080865975114" lon="0.9445321609312284"><ele>539.8</ele><time>2026-05-04T14:37:35.001Z</time></trkpt><trkpt lat="41.450710722563024" lon="0.9445748947444644"><ele>541.4</ele><time>2026-05-04T14:37:36.001Z</time></trkpt><trkpt lat="41.45061365181015" lon="0.9446178785079028"><ele>543.0</ele><time>2026-05-04T14:37:37.001Z</time></trkpt><trkpt lat="41.450513381096705" lon="0.944660633481824"><ele>543.0</ele><time>2026-05-04T14:37:38.001Z</time></trkpt><trkpt lat="41.45041277739952" lon="0.9446972557533253"><ele>543.0</ele><time>2026-05-04T14:37:39.001Z</time></trkpt><trkpt lat="41.45031356198979" lon="0.9447377550589624"><ele>543.0</ele><time>2026-05-04T14:37:40.001Z</time></trkpt><trkpt lat="41.450214723230566" lon="0.9447803626500294"><ele>543.0</ele><time>2026-05-04T14:37:41.001Z</time></trkpt><trkpt lat="41.450115429365596" lon="0.9448219592133883"><ele>543.0</ele><time>2026-05-04T14:37:42.001Z</time></trkpt><trkpt lat="41.450018340647695" lon="0.9448656165584217"><ele>543.0</ele><time>2026-05-04T14:37:43.001Z</time></trkpt><trkpt lat="41.449919665098015" lon="0.9449071545529154"><ele>543.0</ele><time>2026-05-04T14:37:44.001Z</time></trkpt><trkpt lat="41.449822097445995" lon="0.9449484375738194"><ele>543.0</ele><time>2026-05-04T14:37:45.001Z</time></trkpt><trkpt lat="41.44972585901902" lon="0.9449895441208693"><ele>543.0</ele><time>2026-05-04T14:37:46.001Z</time></trkpt><trkpt lat="41.44962967873423" lon="0.9450313335662728"><ele>543.0</ele><time>2026-05-04T14:37:47.001Z</time></trkpt><trkpt lat="41.44953613456419" lon="0.9450809684427877"><ele>543.6</ele><time>2026-05-04T14:37:48.001Z</time></trkpt><trkpt lat="41.44944359416463" lon="0.9451360205371557"><ele>544.1999999999999</ele><time>2026-05-04T14:37:49.001Z</time></trkpt><trkpt lat="41.44935255550661" lon="0.9451928264427774"><ele>544.8</ele><time>2026-05-04T14:37:50.001Z</time></trkpt><trkpt lat="41.449264051414616" lon="0.9452554478711488"><ele>545.4</ele><time>2026-05-04T14:37:51.001Z</time></trkpt><trkpt lat="41.44917893071697" lon="0.9453236171290107"><ele>546.0</ele><time>2026-05-04T14:37:52.001Z</time></trkpt><trkpt lat="41.44909297831558" lon="0.9453932465715488"><ele>546.0</ele><time>2026-05-04T14:37:53.001Z</time></trkpt><trkpt lat="41.44901060865979" lon="0.9454684317508264"><ele>546.0</ele><time>2026-05-04T14:37:54.001Z</time></trkpt><trkpt lat="41.44893013062252" lon="0.9455453377680876"><ele>546.0</ele><time>2026-05-04T14:37:55.001Z</time></trkpt><trkpt lat="41.44885204196798" lon="0.9456268586258997"><ele>546.0</ele><time>2026-05-04T14:37:56.001Z</time></trkpt><trkpt lat="41.448776470821386" lon="0.9457098447225408"><ele>546.0</ele><time>2026-05-04T14:37:57.001Z</time></trkpt><trkpt lat="41.44870491540056" lon="0.9457974159401046"><ele>546.8</ele><time>2026-05-04T14:37:58.001Z</time></trkpt><trkpt lat="41.44863593722281" lon="0.9458852637570644"><ele>547.6</ele><time>2026-05-04T14:37:59.001Z</time></trkpt><trkpt lat="41.44856548680324" lon="0.9459736087557316"><ele>548.4</ele><time>2026-05-04T14:38:00.001Z</time></trkpt><trkpt lat="41.44849636377076" lon="0.9460645579219137"><ele>549.2</ele><time>2026-05-04T14:38:01.001Z</time></trkpt><trkpt lat="41.44842660277324" lon="0.946155779232342"><ele>550.0</ele><time>2026-05-04T14:38:02.001Z</time></trkpt><trkpt lat="41.4483562415143" lon="0.9462457140347976"><ele>550.0</ele><time>2026-05-04T14:38:03.001Z</time></trkpt><trkpt lat="41.44828733787897" lon="0.9463374804723799"><ele>550.0</ele><time>2026-05-04T14:38:04.001Z</time></trkpt><trkpt lat="41.44821784915538" lon="0.9464289394774031"><ele>550.0</ele><time>2026-05-04T14:38:05.001Z</time></trkpt><trkpt lat="41.448147084603306" lon="0.9465191162109635"><ele>550.0</ele><time>2026-05-04T14:38:06.001Z</time></trkpt><trkpt lat="41.44807806913255" lon="0.9466133448750735"><ele>550.0</ele><time>2026-05-04T14:38:07.001Z</time></trkpt><trkpt lat="41.448010446406144" lon="0.9467075223080537"><ele>551.4</ele><time>2026-05-04T14:38:08.001Z</time></trkpt><trkpt lat="41.44794160951868" lon="0.9467995582268014"><ele>552.8</ele><time>2026-05-04T14:38:09.001Z</time></trkpt><trkpt lat="41.447875259166935" lon="0.9468879692636518"><ele>554.2</ele><time>2026-05-04T14:38:10.001Z</time></trkpt><trkpt lat="41.44780881826898" lon="0.9469800636024303"><ele>555.6</ele><time>2026-05-04T14:38:11.001Z</time></trkpt><trkpt lat="41.4477422956689" lon="0.9470710561559316"><ele>557.0</ele><time>2026-05-04T14:38:12.001Z</time></trkpt><trkpt lat="41.44767680646149" lon="0.94715792893539"><ele>557.0</ele><time>2026-05-04T14:38:13.001Z</time></trkpt><trkpt lat="41.447608760583734" lon="0.94724695036787"><ele>557.0</ele><time>2026-05-04T14:38:14.001Z</time></trkpt><trkpt lat="41.44754395084747" lon="0.9473361893312893"><ele>557.0</ele><time>2026-05-04T14:38:15.001Z</time></trkpt><trkpt lat="41.447478649982095" lon="0.9474270137580477"><ele>557.0</ele><time>2026-05-04T14:38:16.001Z</time></trkpt><trkpt lat="41.44741253204027" lon="0.9475170930419401"><ele>557.0</ele><time>2026-05-04T14:38:17.001Z</time></trkpt><trkpt lat="41.4473463402066" lon="0.947607023769287"><ele>557.2</ele><time>2026-05-04T14:38:18.001Z</time></trkpt><trkpt lat="41.44728019298786" lon="0.9476951165183959"><ele>557.4000000000001</ele><time>2026-05-04T14:38:19.001Z</time></trkpt><trkpt lat="41.44721747158842" lon="0.94778267816663"><ele>557.5999999999999</ele><time>2026-05-04T14:38:20.001Z</time></trkpt><trkpt lat="41.44714809251554" lon="0.9478718412907797"><ele>557.8</ele><time>2026-05-04T14:38:21.001Z</time></trkpt><trkpt lat="41.447077817775664" lon="0.9479612235479118"><ele>558.0</ele><time>2026-05-04T14:38:22.001Z</time></trkpt><trkpt lat="41.447010624555965" lon="0.948051385106325"><ele>558.0</ele><time>2026-05-04T14:38:23.001Z</time></trkpt><trkpt lat="41.446943023584225" lon="0.948142273984855"><ele>558.0</ele><time>2026-05-04T14:38:24.001Z</time></trkpt><trkpt lat="41.44687444629399" lon="0.9482365974764319"><ele>558.0</ele><time>2026-05-04T14:38:25.001Z</time></trkpt><trkpt lat="41.44680553634312" lon="0.9483320059291194"><ele>558.0</ele><time>2026-05-04T14:38:26.001Z</time></trkpt><trkpt lat="41.446735689449206" lon="0.9484247936893034"><ele>558.0</ele><time>2026-05-04T14:38:27.001Z</time></trkpt><trkpt lat="41.446663849266805" lon="0.9485203791844457"><ele>558.0</ele><time>2026-05-04T14:38:28.001Z</time></trkpt><trkpt lat="41.44659365840853" lon="0.9486158654171996"><ele>558.0</ele><time>2026-05-04T14:38:29.001Z</time></trkpt><trkpt lat="41.44652263341564" lon="0.948709145385338"><ele>558.0</ele><time>2026-05-04T14:38:30.001Z</time></trkpt><trkpt lat="41.44645059981282" lon="0.9488031260752222"><ele>558.0</ele><time>2026-05-04T14:38:31.001Z</time></trkpt><trkpt lat="41.44638055951464" lon="0.9488960928375866"><ele>558.0</ele><time>2026-05-04T14:38:32.001Z</time></trkpt><trkpt lat="41.44630974979086" lon="0.948992049915872"><ele>558.6</ele><time>2026-05-04T14:38:33.001Z</time></trkpt><trkpt lat="41.446239602383244" lon="0.9490869226460068"><ele>559.1999999999999</ele><time>2026-05-04T14:38:34.002Z</time></trkpt><trkpt lat="41.44616924181251" lon="0.9491821335622638"><ele>559.8</ele><time>2026-05-04T14:38:35.002Z</time></trkpt><trkpt lat="41.446098780515165" lon="0.9492762847804277"><ele>560.4</ele><time>2026-05-04T14:38:36.002Z</time></trkpt><trkpt lat="41.446028964017195" lon="0.9493703553814198"><ele>561.0</ele><time>2026-05-04T14:38:37.002Z</time></trkpt><trkpt lat="41.445960950801485" lon="0.9494665073498678"><ele>561.0</ele><time>2026-05-04T14:38:38.002Z</time></trkpt><trkpt lat="41.44589228196568" lon="0.9495609039400875"><ele>561.0</ele><time>2026-05-04T14:38:39.002Z</time></trkpt><trkpt lat="41.445822696046754" lon="0.9496533456983184"><ele>561.0</ele><time>2026-05-04T14:38:40.002Z</time></trkpt><trkpt lat="41.44575352981726" lon="0.9497437645595617"><ele>561.0</ele><time>2026-05-04T14:38:41.002Z</time></trkpt><trkpt lat="41.44568655645776" lon="0.9498338022437224"><ele>561.0</ele><time>2026-05-04T14:38:42.002Z</time></trkpt><trkpt lat="41.44561744818144" lon="0.9499248625013574"><ele>561.0</ele><time>2026-05-04T14:38:43.002Z</time></trkpt><trkpt lat="41.44554880447322" lon="0.9500156824025484"><ele>561.0</ele><time>2026-05-04T14:38:44.002Z</time></trkpt><trkpt lat="41.44548144686707" lon="0.9501069058355094"><ele>561.0</ele><time>2026-05-04T14:38:45.002Z</time></trkpt><trkpt lat="41.44541333178641" lon="0.9501978252410739"><ele>561.0</ele><time>2026-05-04T14:38:46.002Z</time></trkpt><trkpt lat="41.4453446253234" lon="0.9502872480097201"><ele>561.0</ele><time>2026-05-04T14:38:47.002Z</time></trkpt><trkpt lat="41.445274778706434" lon="0.9503772977027043"><ele>561.6</ele><time>2026-05-04T14:38:48.002Z</time></trkpt><trkpt lat="41.44520894035024" lon="0.9504686405160667"><ele>562.2</ele><time>2026-05-04T14:38:49.002Z</time></trkpt><trkpt lat="41.44514200965759" lon="0.9505616809481751"><ele>562.8</ele><time>2026-05-04T14:38:50.002Z</time></trkpt><trkpt lat="41.44507511088427" lon="0.9506555013214034"><ele>563.4</ele><time>2026-05-04T14:38:51.002Z</time></trkpt><trkpt lat="41.4450065851437" lon="0.9507470501294557"><ele>564.0</ele><time>2026-05-04T14:38:52.002Z</time></trkpt><trkpt lat="41.444938241670926" lon="0.9508375430274274"><ele>564.2</ele><time>2026-05-04T14:38:53.002Z</time></trkpt><trkpt lat="41.44487254365818" lon="0.9509262165683902"><ele>564.4</ele><time>2026-05-04T14:38:54.002Z</time></trkpt><trkpt lat="41.444803884657695" lon="0.9510155060956242"><ele>564.6</ele><time>2026-05-04T14:38:55Z</time></trkpt><trkpt lat="41.44473689118394" lon="0.9511071419078169"><ele>564.8</ele><time>2026-05-04T14:38:56Z</time></trkpt><trkpt lat="41.44467054218944" lon="0.9512021398361986"><ele>565.0</ele><time>2026-05-04T14:38:57Z</time></trkpt><trkpt lat="41.444605293640045" lon="0.9512952866259872"><ele>565.0</ele><time>2026-05-04T14:38:58Z</time></trkpt><trkpt lat="41.444538994403324" lon="0.9513830012064444"><ele>565.0</ele><time>2026-05-04T14:38:59Z</time></trkpt><trkpt lat="41.44446688997315" lon="0.9514674646694923"><ele>565.0</ele><time>2026-05-04T14:39:00Z</time></trkpt><trkpt lat="41.44439422375424" lon="0.9515493823028794"><ele>565.0</ele><time>2026-05-04T14:39:01Z</time></trkpt><trkpt lat="41.444323118705" lon="0.9516331999354171"><ele>565.0</ele><time>2026-05-04T14:39:02Z</time></trkpt><trkpt lat="41.444253832836935" lon="0.9517175541133127"><ele>566.0</ele><time>2026-05-04T14:39:03Z</time></trkpt><trkpt lat="41.44418329811773" lon="0.951804387081474"><ele>567.0</ele><time>2026-05-04T14:39:04Z</time></trkpt><trkpt lat="41.4441108908927" lon="0.9518925457488266"><ele>568.0</ele><time>2026-05-04T14:39:05Z</time></trkpt><trkpt lat="41.44403918394697" lon="0.9519777385549432"><ele>569.0</ele><time>2026-05-04T14:39:06Z</time></trkpt><trkpt lat="41.4439661996926" lon="0.9520652316225731"><ele>570.0</ele><time>2026-05-04T14:39:07Z</time></trkpt><trkpt lat="41.44389379657984" lon="0.9521512991979586"><ele>570.0</ele><time>2026-05-04T14:39:08Z</time></trkpt><trkpt lat="41.44381991524558" lon="0.9522351471515753"><ele>570.0</ele><time>2026-05-04T14:39:09Z</time></trkpt><trkpt lat="41.44374374403394" lon="0.9523219227154762"><ele>570.0</ele><time>2026-05-04T14:39:10Z</time></trkpt><trkpt lat="41.443667079823406" lon="0.9524097265627517"><ele>570.0</ele><time>2026-05-04T14:39:11Z</time></trkpt><trkpt lat="41.44358987288967" lon="0.95249532203139"><ele>570.0</ele><time>2026-05-04T14:39:12Z</time></trkpt><trkpt lat="41.4435123247519" lon="0.9525820792448335"><ele>570.4</ele><time>2026-05-04T14:39:13Z</time></trkpt><trkpt lat="41.44343444432599" lon="0.9526692534506698"><ele>570.8</ele><time>2026-05-04T14:39:14Z</time></trkpt><trkpt lat="41.44335576547154" lon="0.952759012269477"><ele>571.2</ele><time>2026-05-04T14:39:15Z</time></trkpt><trkpt lat="41.44327774693324" lon="0.9528480496026002"><ele>571.6</ele><time>2026-05-04T14:39:16Z</time></trkpt><trkpt lat="41.44319953887471" lon="0.9529370640575827"><ele>572.0</ele><time>2026-05-04T14:39:17Z</time></trkpt><trkpt lat="41.4431195995976" lon="0.953024749339366"><ele>572.0</ele><time>2026-05-04T14:39:18Z</time></trkpt><trkpt lat="41.443039758442836" lon="0.9531113816189155"><ele>572.0</ele><time>2026-05-04T14:39:19Z</time></trkpt><trkpt lat="41.4429612437598" lon="0.9532012987471807"><ele>572.0</ele><time>2026-05-04T14:39:20Z</time></trkpt><trkpt lat="41.44288210242009" lon="0.9532891985236023"><ele>572.0</ele><time>2026-05-04T14:39:21Z</time></trkpt><trkpt lat="41.44280288198807" lon="0.9533787701288537"><ele>572.0</ele><time>2026-05-04T14:39:22Z</time></trkpt><trkpt lat="41.44272433593081" lon="0.9534661832885053"><ele>573.2</ele><time>2026-05-04T14:39:23Z</time></trkpt><trkpt lat="41.44264420433328" lon="0.9535513836352161"><ele>574.4000000000001</ele><time>2026-05-04T14:39:24Z</time></trkpt><trkpt lat="41.44256263818032" lon="0.9536377785797038"><ele>575.5999999999999</ele><time>2026-05-04T14:39:25Z</time></trkpt><trkpt lat="41.442482472120275" lon="0.9537226917850197"><ele>576.8</ele><time>2026-05-04T14:39:26Z</time></trkpt><trkpt lat="41.442405834701354" lon="0.9538116262361884"><ele>578.0</ele><time>2026-05-04T14:39:27Z</time></trkpt><trkpt lat="41.4423316677287" lon="0.953899670556406"><ele>578.0</ele><time>2026-05-04T14:39:28Z</time></trkpt><trkpt lat="41.44225437247917" lon="0.9539856110913492"><ele>578.0</ele><time>2026-05-04T14:39:29Z</time></trkpt><trkpt lat="41.44217664937851" lon="0.9540707906629494"><ele>578.0</ele><time>2026-05-04T14:39:30Z</time></trkpt><trkpt lat="41.44210005199962" lon="0.9541534026820648"><ele>578.0</ele><time>2026-05-04T14:39:31Z</time></trkpt><trkpt lat="41.44202479503681" lon="0.9542407546253214"><ele>578.0</ele><time>2026-05-04T14:39:32Z</time></trkpt><trkpt lat="41.441949967873946" lon="0.9543266370234235"><ele>578.1999999999999</ele><time>2026-05-04T14:39:33Z</time></trkpt><trkpt lat="41.44187550523823" lon="0.9544087391114433"><ele>578.4</ele><time>2026-05-04T14:39:34Z</time></trkpt><trkpt lat="41.441801310348886" lon="0.9544903792722879"><ele>578.5999999999999</ele><time>2026-05-04T14:39:35Z</time></trkpt><trkpt lat="41.44172945880412" lon="0.9545717114379648"><ele>578.8</ele><time>2026-05-04T14:39:36Z</time></trkpt><trkpt lat="41.44165363033307" lon="0.9546525558128027"><ele>579.0</ele><time>2026-05-04T14:39:37Z</time></trkpt><trkpt lat="41.4415790005156" lon="0.9547316531761179"><ele>579.0</ele><time>2026-05-04T14:39:38Z</time></trkpt><trkpt lat="41.441504871862755" lon="0.9548158558951113"><ele>579.0</ele><time>2026-05-04T14:39:39Z</time></trkpt><trkpt lat="41.44143227961889" lon="0.9549003417857311"><ele>579.0</ele><time>2026-05-04T14:39:40Z</time></trkpt><trkpt lat="41.44135670723873" lon="0.9549810030634867"><ele>579.0</ele><time>2026-05-04T14:39:41Z</time></trkpt><trkpt lat="41.441284077404156" lon="0.9550646389759629"><ele>579.0</ele><time>2026-05-04T14:39:42Z</time></trkpt><trkpt lat="41.44120846400466" lon="0.9551488612243176"><ele>579.4</ele><time>2026-05-04T14:39:43Z</time></trkpt><trkpt lat="41.441132410547645" lon="0.9552326501031848"><ele>579.8</ele><time>2026-05-04T14:39:44Z</time></trkpt><trkpt lat="41.441056715503464" lon="0.9553174881921076"><ele>580.2</ele><time>2026-05-04T14:39:45Z</time></trkpt><trkpt lat="41.44097858841241" lon="0.9554044573960144"><ele>580.6</ele><time>2026-05-04T14:39:46.001Z</time></trkpt><trkpt lat="41.44089659492762" lon="0.9554887742475661"><ele>581.0</ele><time>2026-05-04T14:39:47.001Z</time></trkpt><trkpt lat="41.44081804459422" lon="0.9555823036108341"><ele>581.0</ele><time>2026-05-04T14:39:48.001Z</time></trkpt><trkpt lat="41.44073770348818" lon="0.9556747873214873"><ele>581.0</ele><time>2026-05-04T14:39:49.001Z</time></trkpt><trkpt lat="41.440653111121804" lon="0.9557633720744394"><ele>581.0</ele><time>2026-05-04T14:39:50.001Z</time></trkpt><trkpt lat="41.44057197884801" lon="0.9558585211801495"><ele>581.0</ele><time>2026-05-04T14:39:51.001Z</time></trkpt><trkpt lat="41.44048906285021" lon="0.9559519293769854"><ele>581.0</ele><time>2026-05-04T14:39:52.001Z</time></trkpt><trkpt lat="41.44040327753244" lon="0.9560407616408738"><ele>581.4</ele><time>2026-05-04T14:39:53.001Z</time></trkpt><trkpt lat="41.44031667725151" lon="0.9561267487718476"><ele>581.8</ele><time>2026-05-04T14:39:54.001Z</time></trkpt><trkpt lat="41.440227471113666" lon="0.9562120279143007"><ele>582.1999999999999</ele><time>2026-05-04T14:39:55.001Z</time></trkpt><trkpt lat="41.4401340852235" lon="0.956290387281846"><ele>582.6</ele><time>2026-05-04T14:39:56.001Z</time></trkpt><trkpt lat="41.440039204957635" lon="0.9563598499198391"><ele>583.0</ele><time>2026-05-04T14:39:57.001Z</time></trkpt><trkpt lat="41.439919125910514" lon="0.9564390188325204"><ele>583.0</ele><time>2026-05-04T14:39:58.001Z</time></trkpt><trkpt lat="41.43974317753489" lon="0.9565704386279582"><ele>583.0</ele><time>2026-05-04T14:39:59.001Z</time></trkpt><trkpt lat="41.43963103349964" lon="0.9566311164209886"><ele>583.0</ele><time>2026-05-04T14:40:01.001Z</time></trkpt><trkpt lat="41.43952556167094" lon="0.9566737212121308"><ele>583.0</ele><time>2026-05-04T14:40:02.001Z</time></trkpt><trkpt lat="41.4394090782216" lon="0.956713644364893"><ele>579.0</ele><time>2026-05-04T14:40:03.001Z</time></trkpt><trkpt lat="41.43929797370383" lon="0.9567595244349425"><ele>575.0</ele><time>2026-05-04T14:40:04.001Z</time></trkpt><trkpt lat="41.439185872484195" lon="0.956811105859112"><ele>571.0</ele><time>2026-05-04T14:40:05.001Z</time></trkpt><trkpt lat="41.43907794640465" lon="0.9568612435435467"><ele>567.0</ele><time>2026-05-04T14:40:06.001Z</time></trkpt><trkpt lat="41.43897028371926" lon="0.9569177163706388"><ele>567.0</ele><time>2026-05-04T14:40:07.001Z</time></trkpt><trkpt lat="41.43886372679411" lon="0.9569788039338744"><ele>567.0</ele><time>2026-05-04T14:40:08.001Z</time></trkpt><trkpt lat="41.438757905923815" lon="0.9570450306554845"><ele>567.0</ele><time>2026-05-04T14:40:09.001Z</time></trkpt><trkpt lat="41.43866065368233" lon="0.9571154382819949"><ele>567.0</ele><time>2026-05-04T14:40:10.001Z</time></trkpt><trkpt lat="41.43856055484523" lon="0.9571932195437001"><ele>569.0</ele><time>2026-05-04T14:40:11.001Z</time></trkpt><trkpt lat="41.43845747988146" lon="0.9572809914343987"><ele>571.0</ele><time>2026-05-04T14:40:12.001Z</time></trkpt><trkpt lat="41.438362775255456" lon="0.9573822027391079"><ele>573.0</ele><time>2026-05-04T14:40:13.001Z</time></trkpt><trkpt lat="41.43827030476846" lon="0.9574879514827264"><ele>575.0</ele><time>2026-05-04T14:40:14.001Z</time></trkpt><trkpt lat="41.4381804923969" lon="0.9576002335126228"><ele>576.0</ele><time>2026-05-04T14:40:15.001Z</time></trkpt><trkpt lat="41.43809463862379" lon="0.9577204049167265"><ele>577.0</ele><time>2026-05-04T14:40:16.001Z</time></trkpt><trkpt lat="41.43801349832789" lon="0.9578450365387846"><ele>578.0</ele><time>2026-05-04T14:40:17.001Z</time></trkpt><trkpt lat="41.437934508311336" lon="0.9579823924612997"><ele>579.0</ele><time>2026-05-04T14:40:18.001Z</time></trkpt><trkpt lat="41.43786254839139" lon="0.9581220868513107"><ele>579.0</ele><time>2026-05-04T14:40:19.001Z</time></trkpt><trkpt lat="41.437793851247875" lon="0.9582604221356952"><ele>579.0</ele><time>2026-05-04T14:40:20.001Z</time></trkpt><trkpt lat="41.43772454244294" lon="0.9584072835654533"><ele>579.0</ele><time>2026-05-04T14:40:21.001Z</time></trkpt><trkpt lat="41.43765622872353" lon="0.9585495303648406"><ele>579.0</ele><time>2026-05-04T14:40:22.001Z</time></trkpt><trkpt lat="41.43759116319881" lon="0.9586908456928749"><ele>573.75</ele><time>2026-05-04T14:40:23.001Z</time></trkpt><trkpt lat="41.437531293519" lon="0.958843557121008"><ele>568.5</ele><time>2026-05-04T14:40:24.001Z</time></trkpt><trkpt lat="41.43746271054379" lon="0.958986012380634"><ele>563.25</ele><time>2026-05-04T14:40:25.001Z</time></trkpt><trkpt lat="41.437393400405206" lon="0.9591255216690886"><ele>558.0</ele><time>2026-05-04T14:40:26.001Z</time></trkpt><trkpt lat="41.437315679897" lon="0.9592626998150539"><ele>554.25</ele><time>2026-05-04T14:40:27.001Z</time></trkpt><trkpt lat="41.43723873021698" lon="0.9593954107306133"><ele>550.5</ele><time>2026-05-04T14:40:28.001Z</time></trkpt><trkpt lat="41.43716930772045" lon="0.9595345184156358"><ele>546.75</ele><time>2026-05-04T14:40:29.001Z</time></trkpt><trkpt lat="41.43709957297664" lon="0.9596742901890819"><ele>543.0</ele><time>2026-05-04T14:40:30.001Z</time></trkpt><trkpt lat="41.437024867978586" lon="0.959811356174331"><ele>543.0</ele><time>2026-05-04T14:40:31.001Z</time></trkpt><trkpt lat="41.43695049359568" lon="0.9599465428000151"><ele>543.0</ele><time>2026-05-04T14:40:32.001Z</time></trkpt><trkpt lat="41.43687600303568" lon="0.9600827228724763"><ele>543.0</ele><time>2026-05-04T14:40:33.001Z</time></trkpt><trkpt lat="41.43679917579911" lon="0.9602140666678827"><ele>543.0</ele><time>2026-05-04T14:40:34.001Z</time></trkpt><trkpt lat="41.436726305132986" lon="0.9603455224724512"><ele>543.0</ele><time>2026-05-04T14:40:35.001Z</time></trkpt><trkpt lat="41.436653783141814" lon="0.9604757752301336"><ele>543.0</ele><time>2026-05-04T14:40:36.001Z</time></trkpt><trkpt lat="41.436585583009894" lon="0.9606072923188121"><ele>543.0</ele><time>2026-05-04T14:40:37.001Z</time></trkpt><trkpt lat="41.43651800590619" lon="0.9607408230425856"><ele>543.0</ele><time>2026-05-04T14:40:38.001Z</time></trkpt><trkpt lat="41.43645677510191" lon="0.9608790246612312"><ele>543.0</ele><time>2026-05-04T14:40:39.001Z</time></trkpt><trkpt lat="41.436395475466014" lon="0.9610128646479027"><ele>543.0</ele><time>2026-05-04T14:40:40.001Z</time></trkpt><trkpt lat="41.436343521142916" lon="0.9611572989827138"><ele>543.0</ele><time>2026-05-04T14:40:41.001Z</time></trkpt><trkpt lat="41.436297450730336" lon="0.9613031627413882"><ele>543.0</ele><time>2026-05-04T14:40:42.001Z</time></trkpt><trkpt lat="41.43625459475829" lon="0.9614489964248992"><ele>540.0</ele><time>2026-05-04T14:40:43.001Z</time></trkpt><trkpt lat="41.43621121320152" lon="0.961597830558192"><ele>537.0</ele><time>2026-05-04T14:40:44.001Z</time></trkpt><trkpt lat="41.43616680062913" lon="0.9617413860641777"><ele>534.0</ele><time>2026-05-04T14:40:45.001Z</time></trkpt><trkpt lat="41.43612055777065" lon="0.9618858979534821"><ele>531.0</ele><time>2026-05-04T14:40:46.001Z</time></trkpt><trkpt lat="41.4360735271716" lon="0.9620285694650886"><ele>530.25</ele><time>2026-05-04T14:40:47.001Z</time></trkpt><trkpt lat="41.43603120559909" lon="0.9621764006996928"><ele>529.5</ele><time>2026-05-04T14:40:48.002Z</time></trkpt><trkpt lat="41.435995585721315" lon="0.9623252490022872"><ele>528.75</ele><time>2026-05-04T14:40:49.002Z</time></trkpt><trkpt lat="41.4359547987226" lon="0.9624744548650498"><ele>528.0</ele><time>2026-05-04T14:40:50.002Z</time></trkpt><trkpt lat="41.43591218694467" lon="0.9626236025456505"><ele>526.5</ele><time>2026-05-04T14:40:51.002Z</time></trkpt><trkpt lat="41.43586922178253" lon="0.9627747190131755"><ele>525.0</ele><time>2026-05-04T14:40:52.002Z</time></trkpt><trkpt lat="41.435822297101105" lon="0.9629243036197516"><ele>523.5</ele><time>2026-05-04T14:40:53.002Z</time></trkpt><trkpt lat="41.43577677813903" lon="0.9630731194196576"><ele>522.0</ele><time>2026-05-04T14:40:54.002Z</time></trkpt><trkpt lat="41.435738994265954" lon="0.9632246729625714"><ele>520.75</ele><time>2026-05-04T14:40:55.002Z</time></trkpt><trkpt lat="41.43569589113366" lon="0.9633757298681542"><ele>519.5</ele><time>2026-05-04T14:40:56.002Z</time></trkpt><trkpt lat="41.435650438201954" lon="0.9635244940681083"><ele>518.25</ele><time>2026-05-04T14:40:57.002Z</time></trkpt><trkpt lat="41.43560815958223" lon="0.9636752189919768"><ele>517.0</ele><time>2026-05-04T14:40:58.002Z</time></trkpt><trkpt lat="41.435565563009675" lon="0.963825352886027"><ele>517.0</ele><time>2026-05-04T14:40:59.002Z</time></trkpt><trkpt lat="41.43552281336104" lon="0.963972353988328"><ele>517.0</ele><time>2026-05-04T14:41:00Z</time></trkpt><trkpt lat="41.435478435033545" lon="0.9641154493382162"><ele>517.0</ele><time>2026-05-04T14:41:01Z</time></trkpt><trkpt lat="41.43543010723634" lon="0.9642621279203788"><ele>517.0</ele><time>2026-05-04T14:41:02Z</time></trkpt><trkpt lat="41.43539254847903" lon="0.9644041725705093"><ele>517.25</ele><time>2026-05-04T14:41:03Z</time></trkpt><trkpt lat="41.43534499677889" lon="0.9645405618800217"><ele>517.5</ele><time>2026-05-04T14:41:04Z</time></trkpt><trkpt lat="41.43529432105425" lon="0.964683298213122"><ele>517.75</ele><time>2026-05-04T14:41:05Z</time></trkpt><trkpt lat="41.4352430771667" lon="0.9648177243294259"><ele>518.0</ele><time>2026-05-04T14:41:06Z</time></trkpt><trkpt lat="41.43518467442507" lon="0.9649491879723222"><ele>517.25</ele><time>2026-05-04T14:41:07Z</time></trkpt><trkpt lat="41.43511985096313" lon="0.9650767834962442"><ele>516.5</ele><time>2026-05-04T14:41:08Z</time></trkpt><trkpt lat="41.43505159256088" lon="0.9651983446247567"><ele>515.75</ele><time>2026-05-04T14:41:09Z</time></trkpt><trkpt lat="41.434970960300504" lon="0.9653075940143815"><ele>515.0</ele><time>2026-05-04T14:41:10Z</time></trkpt><trkpt lat="41.43488402125009" lon="0.9654099443717037"><ele>515.0</ele><time>2026-05-04T14:41:11Z</time></trkpt><trkpt lat="41.43479663194652" lon="0.9655088793114616"><ele>515.0</ele><time>2026-05-04T14:41:12Z</time></trkpt><trkpt lat="41.43470938353812" lon="0.9656038555835904"><ele>515.0</ele><time>2026-05-04T14:41:13Z</time></trkpt><trkpt lat="41.43461847707511" lon="0.9657011816950626"><ele>515.0</ele><time>2026-05-04T14:41:14Z</time></trkpt><trkpt lat="41.434539347990096" lon="0.9657964769311537"><ele>516.75</ele><time>2026-05-04T14:41:15Z</time></trkpt><trkpt lat="41.43447176957849" lon="0.9658939613146368"><ele>518.5</ele><time>2026-05-04T14:41:16Z</time></trkpt><trkpt lat="41.434351888777954" lon="0.965972317489109"><ele>520.25</ele><time>2026-05-04T14:41:17Z</time></trkpt><trkpt lat="41.43426485195176" lon="0.9660606138222246"><ele>522.0</ele><time>2026-05-04T14:41:18Z</time></trkpt><trkpt lat="41.43417533507953" lon="0.9661446477248188"><ele>522.0</ele><time>2026-05-04T14:41:19Z</time></trkpt><trkpt lat="41.43408106681746" lon="0.9662278317575655"><ele>522.0</ele><time>2026-05-04T14:41:20Z</time></trkpt><trkpt lat="41.43399079877993" lon="0.9663019034718875"><ele>522.0</ele><time>2026-05-04T14:41:21Z</time></trkpt><trkpt lat="41.4338988523319" lon="0.966389574080019"><ele>522.0</ele><time>2026-05-04T14:41:22Z</time></trkpt><trkpt lat="41.433804320106105" lon="0.9664798973399773"><ele>522.0</ele><time>2026-05-04T14:41:23Z</time></trkpt><trkpt lat="41.433706435251956" lon="0.966568752721383"><ele>521.5</ele><time>2026-05-04T14:41:24Z</time></trkpt><trkpt lat="41.433610290319216" lon="0.966665080527162"><ele>521.0</ele><time>2026-05-04T14:41:25Z</time></trkpt><trkpt lat="41.43351889740402" lon="0.9667643673889317"><ele>520.5</ele><time>2026-05-04T14:41:26Z</time></trkpt><trkpt lat="41.433429622241796" lon="0.9668675006285469"><ele>520.0</ele><time>2026-05-04T14:41:27Z</time></trkpt><trkpt lat="41.43334655151085" lon="0.966984430939687"><ele>520.0</ele><time>2026-05-04T14:41:28Z</time></trkpt><trkpt lat="41.433264517453416" lon="0.9670808008749369"><ele>520.0</ele><time>2026-05-04T14:41:29Z</time></trkpt><trkpt lat="41.43319139921836" lon="0.9671921124292294"><ele>520.0</ele><time>2026-05-04T14:41:30Z</time></trkpt><trkpt lat="41.43311814757463" lon="0.967305796777089"><ele>520.0</ele><time>2026-05-04T14:41:31Z</time></trkpt><trkpt lat="41.43304593207574" lon="0.9674229827851686"><ele>520.0</ele><time>2026-05-04T14:41:32Z</time></trkpt><trkpt lat="41.43298417748017" lon="0.96755015395363"><ele>519.0</ele><time>2026-05-04T14:41:33Z</time></trkpt><trkpt lat="41.432923386921495" lon="0.9676760626782004"><ele>518.0</ele><time>2026-05-04T14:41:34Z</time></trkpt><trkpt lat="41.432866922902456" lon="0.9678083838963943"><ele>517.0</ele><time>2026-05-04T14:41:35Z</time></trkpt><trkpt lat="41.432813821413056" lon="0.9679479234676098"><ele>516.0</ele><time>2026-05-04T14:41:36Z</time></trkpt><trkpt lat="41.432765440986586" lon="0.9680847996007299"><ele>516.0</ele><time>2026-05-04T14:41:37Z</time></trkpt><trkpt lat="41.43271882385679" lon="0.9682229026910488"><ele>516.0</ele><time>2026-05-04T14:41:38Z</time></trkpt><trkpt lat="41.43267722714275" lon="0.9683642822155308"><ele>516.0</ele><time>2026-05-04T14:41:39Z</time></trkpt><trkpt lat="41.43264167060503" lon="0.9685061735119521"><ele>516.0</ele><time>2026-05-04T14:41:40.001Z</time></trkpt><trkpt lat="41.43260465005883" lon="0.9686486022761622"><ele>516.25</ele><time>2026-05-04T14:41:41.001Z</time></trkpt><trkpt lat="41.432571736490104" lon="0.968800807827877"><ele>516.5</ele><time>2026-05-04T14:41:42.001Z</time></trkpt><trkpt lat="41.43253948356234" lon="0.9689573115891507"><ele>516.75</ele><time>2026-05-04T14:41:43.001Z</time></trkpt><trkpt lat="41.43249975541481" lon="0.9691107367756291"><ele>517.0</ele><time>2026-05-04T14:41:44.001Z</time></trkpt><trkpt lat="41.43246737631854" lon="0.9692625213455457"><ele>517.0</ele><time>2026-05-04T14:41:45.001Z</time></trkpt><trkpt lat="41.43243741663194" lon="0.9694175760804193"><ele>517.0</ele><time>2026-05-04T14:41:46.001Z</time></trkpt><trkpt lat="41.43240664321051" lon="0.969571348277048"><ele>517.0</ele><time>2026-05-04T14:41:47.001Z</time></trkpt><trkpt lat="41.43237623297551" lon="0.9697265272726359"><ele>517.0</ele><time>2026-05-04T14:41:48.001Z</time></trkpt><trkpt lat="41.432346636253904" lon="0.9698845363245745"><ele>516.75</ele><time>2026-05-04T14:41:49.001Z</time></trkpt><trkpt lat="41.432317501759364" lon="0.9700424558652879"><ele>516.5</ele><time>2026-05-04T14:41:50.001Z</time></trkpt><trkpt lat="41.43228778076599" lon="0.9701998789482408"><ele>516.25</ele><time>2026-05-04T14:41:51.001Z</time></trkpt><trkpt lat="41.43226222835661" lon="0.9703606550434034"><ele>516.0</ele><time>2026-05-04T14:41:52.001Z</time></trkpt><trkpt lat="41.43223104503948" lon="0.9705195909814514"><ele>516.0</ele><time>2026-05-04T14:41:53.001Z</time></trkpt><trkpt lat="41.43220266581595" lon="0.9706851789239701"><ele>516.0</ele><time>2026-05-04T14:41:54.001Z</time></trkpt><trkpt lat="41.43217247397627" lon="0.9708395101391515"><ele>516.0</ele><time>2026-05-04T14:41:55.001Z</time></trkpt><trkpt lat="41.43214040989192" lon="0.9709989021791072"><ele>516.0</ele><time>2026-05-04T14:41:56.001Z</time></trkpt><trkpt lat="41.43211216842993" lon="0.9711582718169421"><ele>513.0</ele><time>2026-05-04T14:41:57.001Z</time></trkpt><trkpt lat="41.43208154637" lon="0.9713137763446299"><ele>510.0</ele><time>2026-05-04T14:41:58.001Z</time></trkpt><trkpt lat="41.432051695324525" lon="0.9714730464161473"><ele>507.0</ele><time>2026-05-04T14:41:59.001Z</time></trkpt><trkpt lat="41.432022733441045" lon="0.9716306635907402"><ele>504.0</ele><time>2026-05-04T14:42:00.001Z</time></trkpt><trkpt lat="41.43198896700085" lon="0.9717878899685576"><ele>503.75</ele><time>2026-05-04T14:42:01.001Z</time></trkpt><trkpt lat="41.43196033105457" lon="0.9719472833624951"><ele>503.5</ele><time>2026-05-04T14:42:02.001Z</time></trkpt><trkpt lat="41.43192922007146" lon="0.9721083689788528"><ele>503.25</ele><time>2026-05-04T14:42:03.001Z</time></trkpt><trkpt lat="41.431902893295856" lon="0.9722714333497221"><ele>503.0</ele><time>2026-05-04T14:42:04.001Z</time></trkpt><trkpt lat="41.431871951276186" lon="0.9724299465546261"><ele>502.25</ele><time>2026-05-04T14:42:05.001Z</time></trkpt><trkpt lat="41.43184050009374" lon="0.972587265235014"><ele>501.5</ele><time>2026-05-04T14:42:06.001Z</time></trkpt><trkpt lat="41.43181027746264" lon="0.9727464690351342"><ele>500.75</ele><time>2026-05-04T14:42:07.001Z</time></trkpt><trkpt lat="41.43177838719159" lon="0.972904152405381"><ele>500.0</ele><time>2026-05-04T14:42:08.001Z</time></trkpt><trkpt lat="41.43175255026184" lon="0.9730595923566001"><ele>500.0</ele><time>2026-05-04T14:42:09.001Z</time></trkpt><trkpt lat="41.43172772418766" lon="0.9732148397079445"><ele>500.0</ele><time>2026-05-04T14:42:10.001Z</time></trkpt><trkpt lat="41.4316956987733" lon="0.9733676063371177"><ele>500.0</ele><time>2026-05-04T14:42:11.001Z</time></trkpt><trkpt lat="41.431666798904374" lon="0.9735227620299203"><ele>500.0</ele><time>2026-05-04T14:42:12.001Z</time></trkpt><trkpt lat="41.43163332730225" lon="0.9736796506713796"><ele>498.0</ele><time>2026-05-04T14:42:13.001Z</time></trkpt><trkpt lat="41.43160541434218" lon="0.973836139753781"><ele>496.0</ele><time>2026-05-04T14:42:14.001Z</time></trkpt><trkpt lat="41.431576233573374" lon="0.9739935182211223"><ele>494.0</ele><time>2026-05-04T14:42:15.001Z</time></trkpt><trkpt lat="41.431549450060636" lon="0.9741489190990376"><ele>492.0</ele><time>2026-05-04T14:42:16.001Z</time></trkpt><trkpt lat="41.43151559923629" lon="0.9743044790866382"><ele>490.25</ele><time>2026-05-04T14:42:17.001Z</time></trkpt><trkpt lat="41.43148655573944" lon="0.9744539201981951"><ele>488.5</ele><time>2026-05-04T14:42:18.001Z</time></trkpt><trkpt lat="41.43145672077499" lon="0.974609627884715"><ele>486.75</ele><time>2026-05-04T14:42:19.001Z</time></trkpt><trkpt lat="41.431429545287" lon="0.9747691649284304"><ele>485.0</ele><time>2026-05-04T14:42:20.001Z</time></trkpt><trkpt lat="41.43139819105352" lon="0.9749249109111274"><ele>484.25</ele><time>2026-05-04T14:42:21.001Z</time></trkpt><trkpt lat="41.4313679193427" lon="0.9750810907824085"><ele>483.5</ele><time>2026-05-04T14:42:22.001Z</time></trkpt><trkpt lat="41.43133721527267" lon="0.9752411544358497"><ele>482.75</ele><time>2026-05-04T14:42:23.001Z</time></trkpt><trkpt lat="41.43130819033521" lon="0.9753984123544583"><ele>482.0</ele><time>2026-05-04T14:42:24.001Z</time></trkpt><trkpt lat="41.43127887962819" lon="0.9755538050154762"><ele>482.0</ele><time>2026-05-04T14:42:25.001Z</time></trkpt><trkpt lat="41.43124703860157" lon="0.9757120372868977"><ele>482.0</ele><time>2026-05-04T14:42:26.001Z</time></trkpt><trkpt lat="41.431216940769076" lon="0.975868080233495"><ele>482.0</ele><time>2026-05-04T14:42:27.001Z</time></trkpt><trkpt lat="41.43118524164611" lon="0.9760243045636622"><ele>482.0</ele><time>2026-05-04T14:42:28.001Z</time></trkpt><trkpt lat="41.431154370127146" lon="0.9761824567401148"><ele>482.0</ele><time>2026-05-04T14:42:29.001Z</time></trkpt><trkpt lat="41.43111841095231" lon="0.9763380329752168"><ele>482.0</ele><time>2026-05-04T14:42:30.001Z</time></trkpt><trkpt lat="41.43107529534947" lon="0.9764861140512338"><ele>482.0</ele><time>2026-05-04T14:42:31.001Z</time></trkpt><trkpt lat="41.431031060411826" lon="0.9766426334623266"><ele>482.0</ele><time>2026-05-04T14:42:32.001Z</time></trkpt><trkpt lat="41.43098317737613" lon="0.9767867915107031"><ele>480.5</ele><time>2026-05-04T14:42:33.001Z</time></trkpt><trkpt lat="41.430930650441574" lon="0.9769315258858959"><ele>479.0</ele><time>2026-05-04T14:42:34.001Z</time></trkpt><trkpt lat="41.430879734145215" lon="0.9770803198748398"><ele>477.5</ele><time>2026-05-04T14:42:35.001Z</time></trkpt><trkpt lat="41.4308216483608" lon="0.9772210391817459"><ele>476.0</ele><time>2026-05-04T14:42:36.001Z</time></trkpt><trkpt lat="41.430756035934934" lon="0.9773569163501641"><ele>476.0</ele><time>2026-05-04T14:42:37.001Z</time></trkpt><trkpt lat="41.43069122104739" lon="0.9774942791599487"><ele>476.0</ele><time>2026-05-04T14:42:38.001Z</time></trkpt><trkpt lat="41.43062243575439" lon="0.9776263231615383"><ele>476.0</ele><time>2026-05-04T14:42:39.001Z</time></trkpt><trkpt lat="41.43054802564537" lon="0.9777594672676843"><ele>476.0</ele><time>2026-05-04T14:42:40.001Z</time></trkpt><trkpt lat="41.43047350606344" lon="0.9778829838545714"><ele>475.5</ele><time>2026-05-04T14:42:41.001Z</time></trkpt><trkpt lat="41.43039477575149" lon="0.9780067111019511"><ele>475.0</ele><time>2026-05-04T14:42:42.001Z</time></trkpt><trkpt lat="41.43031045910005" lon="0.9781234250705875"><ele>474.5</ele><time>2026-05-04T14:42:43.001Z</time></trkpt><trkpt lat="41.43022417784216" lon="0.9782370925086704"><ele>474.0</ele><time>2026-05-04T14:42:44.002Z</time></trkpt><trkpt lat="41.4301372004852" lon="0.9783535197888507"><ele>474.0</ele><time>2026-05-04T14:42:45.002Z</time></trkpt><trkpt lat="41.430046939091014" lon="0.9784584437493014"><ele>474.0</ele><time>2026-05-04T14:42:46.002Z</time></trkpt><trkpt lat="41.42995540508774" lon="0.9785622388955287"><ele>474.0</ele><time>2026-05-04T14:42:47.002Z</time></trkpt><trkpt lat="41.42986157397957" lon="0.9786611031408009"><ele>474.0</ele><time>2026-05-04T14:42:48.002Z</time></trkpt><trkpt lat="41.42976674812531" lon="0.9787651296335775"><ele>474.0</ele><time>2026-05-04T14:42:49.002Z</time></trkpt><trkpt lat="41.42967085854184" lon="0.9788669228067509"><ele>474.0</ele><time>2026-05-04T14:42:50.002Z</time></trkpt><trkpt lat="41.4295755472314" lon="0.9789651940804426"><ele>474.0</ele><time>2026-05-04T14:42:51.002Z</time></trkpt><trkpt lat="41.429482610707105" lon="0.9790651484565432"><ele>474.0</ele><time>2026-05-04T14:42:52.002Z</time></trkpt><trkpt lat="41.42939052289929" lon="0.9791634973273114"><ele>475.25</ele><time>2026-05-04T14:42:53.002Z</time></trkpt><trkpt lat="41.4292996105516" lon="0.9792543071688008"><ele>476.5</ele><time>2026-05-04T14:42:54.002Z</time></trkpt><trkpt lat="41.42920509670062" lon="0.97935619310617"><ele>477.75</ele><time>2026-05-04T14:42:55.002Z</time></trkpt><trkpt lat="41.42911673765736" lon="0.9794475707640518"><ele>479.0</ele><time>2026-05-04T14:42:56.002Z</time></trkpt><trkpt lat="41.42902619662711" lon="0.9795490014259048"><ele>479.0</ele><time>2026-05-04T14:42:57.002Z</time></trkpt><trkpt lat="41.42894064251619" lon="0.9796424155858586"><ele>479.0</ele><time>2026-05-04T14:42:58.002Z</time></trkpt><trkpt lat="41.4288512992997" lon="0.9797355228535065"><ele>479.0</ele><time>2026-05-04T14:42:59.002Z</time></trkpt><trkpt lat="41.42876545492927" lon="0.9798287817486616"><ele>479.0</ele><time>2026-05-04T14:43:00.002Z</time></trkpt><trkpt lat="41.42868017390858" lon="0.9799099320357321"><ele>479.0</ele><time>2026-05-04T14:43:01.002Z</time></trkpt><trkpt lat="41.42859995217558" lon="0.9799959588452061"><ele>478.79999999999995</ele><time>2026-05-04T14:43:02.002Z</time></trkpt><trkpt lat="41.42851673605456" lon="0.9800809637745802"><ele>478.59999999999997</ele><time>2026-05-04T14:43:03.002Z</time></trkpt><trkpt lat="41.428435823197816" lon="0.9801710109568414"><ele>478.4</ele><time>2026-05-04T14:43:04.002Z</time></trkpt><trkpt lat="41.42835706130289" lon="0.9802610345804207"><ele>478.2</ele><time>2026-05-04T14:43:05.002Z</time></trkpt><trkpt lat="41.4282800242175" lon="0.9803525236657543"><ele>478.0</ele><time>2026-05-04T14:43:06Z</time></trkpt><trkpt lat="41.42820509022396" lon="0.9804412547482859"><ele>478.0</ele><time>2026-05-04T14:43:07Z</time></trkpt><trkpt lat="41.42813341467556" lon="0.9805351783824819"><ele>477.99999999999994</ele><time>2026-05-04T14:43:08Z</time></trkpt><trkpt lat="41.42806271667326" lon="0.9806299439238747"><ele>477.99999999999994</ele><time>2026-05-04T14:43:09Z</time></trkpt><trkpt lat="41.42799457471886" lon="0.9807259597339374"><ele>478.0</ele><time>2026-05-04T14:43:10Z</time></trkpt><trkpt lat="41.42792894603995" lon="0.9808260233197321"><ele>478.0</ele><time>2026-05-04T14:43:11Z</time></trkpt><trkpt lat="41.42786602177983" lon="0.9809290286145671"><ele>478.79999999999995</ele><time>2026-05-04T14:43:12Z</time></trkpt><trkpt lat="41.4278041556642" lon="0.9810289797815867"><ele>479.59999999999997</ele><time>2026-05-04T14:43:13Z</time></trkpt><trkpt lat="41.42774636464326" lon="0.981137234166326"><ele>480.40000000000003</ele><time>2026-05-04T14:43:14Z</time></trkpt><trkpt lat="41.42769122985707" lon="0.981245499604123"><ele>481.20000000000005</ele><time>2026-05-04T14:43:15Z</time></trkpt><trkpt lat="41.427637909542874" lon="0.9813549236670406"><ele>482.0</ele><time>2026-05-04T14:43:16Z</time></trkpt><trkpt lat="41.42758948844439" lon="0.981468597212183"><ele>482.0</ele><time>2026-05-04T14:43:17Z</time></trkpt><trkpt lat="41.427538779821916" lon="0.9815742986298849"><ele>482.00000000000006</ele><time>2026-05-04T14:43:18Z</time></trkpt><trkpt lat="41.42749295534743" lon="0.9816882143911028"><ele>482.00000000000006</ele><time>2026-05-04T14:43:19Z</time></trkpt><trkpt lat="41.42744987845448" lon="0.9818024699253022"><ele>482.0</ele><time>2026-05-04T14:43:20Z</time></trkpt><trkpt lat="41.427411854720816" lon="0.9819287285826852"><ele>482.0</ele><time>2026-05-04T14:43:21Z</time></trkpt><trkpt lat="41.42737144470366" lon="0.9820462563572698"><ele>482.20000000000005</ele><time>2026-05-04T14:43:22Z</time></trkpt><trkpt lat="41.42732737191981" lon="0.9821534546637578"><ele>482.40000000000003</ele><time>2026-05-04T14:43:23Z</time></trkpt><trkpt lat="41.427292311158226" lon="0.9822721829936624"><ele>482.59999999999997</ele><time>2026-05-04T14:43:24Z</time></trkpt><trkpt lat="41.42725602144367" lon="0.9823881520269244"><ele>482.79999999999995</ele><time>2026-05-04T14:43:25Z</time></trkpt><trkpt lat="41.427218568338" lon="0.9825088561905312"><ele>483.0</ele><time>2026-05-04T14:43:26Z</time></trkpt><trkpt lat="41.42718324131758" lon="0.9826281400448192"><ele>484.0</ele><time>2026-05-04T14:43:27Z</time></trkpt><trkpt lat="41.42714618340174" lon="0.9827433581044386"><ele>484.99999999999994</ele><time>2026-05-04T14:43:28Z</time></trkpt><trkpt lat="41.42710999055497" lon="0.9828662688523605"><ele>485.99999999999994</ele><time>2026-05-04T14:43:29Z</time></trkpt><trkpt lat="41.427068939913696" lon="0.9829798540566874"><ele>487.0</ele><time>2026-05-04T14:43:30Z</time></trkpt><trkpt lat="41.4270281216999" lon="0.9830929164914892"><ele>488.0</ele><time>2026-05-04T14:43:31Z</time></trkpt><trkpt lat="41.42699526708204" lon="0.9832177433984844"><ele>488.79999999999995</ele><time>2026-05-04T14:43:32Z</time></trkpt><trkpt lat="41.4269543055329" lon="0.983338438258561"><ele>489.59999999999997</ele><time>2026-05-04T14:43:33Z</time></trkpt><trkpt lat="41.426914453469855" lon="0.9834470459862559"><ele>490.40000000000003</ele><time>2026-05-04T14:43:34Z</time></trkpt><trkpt lat="41.42687899999361" lon="0.9835671058398638"><ele>491.20000000000005</ele><time>2026-05-04T14:43:35Z</time></trkpt><trkpt lat="41.426837671732905" lon="0.9836844492699652"><ele>492.0</ele><time>2026-05-04T14:43:36Z</time></trkpt><trkpt lat="41.426797424600245" lon="0.9837973407234275"><ele>492.20000000000005</ele><time>2026-05-04T14:43:37Z</time></trkpt><trkpt lat="41.426760829095684" lon="0.9839183137601261"><ele>492.40000000000003</ele><time>2026-05-04T14:43:38Z</time></trkpt><trkpt lat="41.426720734908294" lon="0.9840379580781746"><ele>492.59999999999997</ele><time>2026-05-04T14:43:39Z</time></trkpt><trkpt lat="41.426674200935636" lon="0.98414806639127"><ele>492.79999999999995</ele><time>2026-05-04T14:43:40Z</time></trkpt><trkpt lat="41.426624959582085" lon="0.9842584618269137"><ele>493.0</ele><time>2026-05-04T14:43:41Z</time></trkpt><trkpt lat="41.426570671151104" lon="0.9843668905676166"><ele>493.0</ele><time>2026-05-04T14:43:42Z</time></trkpt><trkpt lat="41.42651069238814" lon="0.9844694983630398"><ele>492.99999999999994</ele><time>2026-05-04T14:43:43Z</time></trkpt><trkpt lat="41.42644350287396" lon="0.9845616060176849"><ele>492.99999999999994</ele><time>2026-05-04T14:43:44.001Z</time></trkpt><trkpt lat="41.42637565437732" lon="0.9846484607947582"><ele>493.0</ele><time>2026-05-04T14:43:45.001Z</time></trkpt><trkpt lat="41.42630660377573" lon="0.9847436790189974"><ele>493.0</ele><time>2026-05-04T14:43:46.001Z</time></trkpt><trkpt lat="41.42623684688333" lon="0.9848383724933207"><ele>493.0</ele><time>2026-05-04T14:43:47.001Z</time></trkpt><trkpt lat="41.42616539427248" lon="0.9849291063162563"><ele>492.99999999999994</ele><time>2026-05-04T14:43:48.001Z</time></trkpt><trkpt lat="41.42609600044982" lon="0.9850232357531872"><ele>492.99999999999994</ele><time>2026-05-04T14:43:49.001Z</time></trkpt><trkpt lat="41.42602249578914" lon="0.9851134661743229"><ele>493.0</ele><time>2026-05-04T14:43:50.001Z</time></trkpt><trkpt lat="41.42594724047538" lon="0.9851976012287251"><ele>493.0</ele><time>2026-05-04T14:43:51.001Z</time></trkpt><trkpt lat="41.42587308143031" lon="0.9852789911600525"><ele>493.0</ele><time>2026-05-04T14:43:52.001Z</time></trkpt><trkpt lat="41.42579804526777" lon="0.9853687312305981"><ele>492.99999999999994</ele><time>2026-05-04T14:43:53.001Z</time></trkpt><trkpt lat="41.42572229897588" lon="0.9854533275914442"><ele>492.99999999999994</ele><time>2026-05-04T14:43:54.001Z</time></trkpt><trkpt lat="41.42564762066269" lon="0.9855429573685329"><ele>493.0</ele><time>2026-05-04T14:43:55.001Z</time></trkpt><trkpt lat="41.425576087053244" lon="0.9856374494663216"><ele>493.0</ele><time>2026-05-04T14:43:56.001Z</time></trkpt><trkpt lat="41.425506801134304" lon="0.9857177911797893"><ele>493.79999999999995</ele><time>2026-05-04T14:43:57.001Z</time></trkpt><trkpt lat="41.425434938908275" lon="0.9858088704983079"><ele>494.59999999999997</ele><time>2026-05-04T14:43:58.001Z</time></trkpt><trkpt lat="41.42536233640257" lon="0.9858947407451435"><ele>495.40000000000003</ele><time>2026-05-04T14:43:59.001Z</time></trkpt><trkpt lat="41.42529178600858" lon="0.9859800916160678"><ele>496.20000000000005</ele><time>2026-05-04T14:44:00.001Z</time></trkpt><trkpt lat="41.42522367285" lon="0.9860648365783768"><ele>497.0</ele><time>2026-05-04T14:44:01.001Z</time></trkpt><trkpt lat="41.42515553727268" lon="0.9861504968145137"><ele>497.16666666666663</ele><time>2026-05-04T14:44:02.001Z</time></trkpt><trkpt lat="41.425088412409586" lon="0.986233513132926"><ele>497.3333333333333</ele><time>2026-05-04T14:44:03.001Z</time></trkpt><trkpt lat="41.42502377426999" lon="0.9863153018142012"><ele>497.5</ele><time>2026-05-04T14:44:04.001Z</time></trkpt><trkpt lat="41.424960177466424" lon="0.986396228770001"><ele>497.66666666666663</ele><time>2026-05-04T14:44:05.001Z</time></trkpt><trkpt lat="41.424896008328595" lon="0.9864747058612523"><ele>497.8333333333333</ele><time>2026-05-04T14:44:06.001Z</time></trkpt><trkpt lat="41.424831427780276" lon="0.9865494772547034"><ele>498.0</ele><time>2026-05-04T14:44:07.001Z</time></trkpt><trkpt lat="41.42477042225624" lon="0.9866225558643672"><ele>498.5</ele><time>2026-05-04T14:44:08.001Z</time></trkpt><trkpt lat="41.42471270322419" lon="0.986695477362983"><ele>499.0</ele><time>2026-05-04T14:44:09.001Z</time></trkpt><trkpt lat="41.42465458269166" lon="0.9867694454128333"><ele>499.5</ele><time>2026-05-04T14:44:10.001Z</time></trkpt><trkpt lat="41.42459598344971" lon="0.9868385657719232"><ele>500.0</ele><time>2026-05-04T14:44:11.001Z</time></trkpt><trkpt lat="41.42453651226441" lon="0.986907129483919"><ele>500.5</ele><time>2026-05-04T14:44:12.001Z</time></trkpt><trkpt lat="41.424476658115694" lon="0.9869729700061022"><ele>501.0</ele><time>2026-05-04T14:44:13.001Z</time></trkpt><trkpt lat="41.424414900520766" lon="0.9870367059023987"><ele>501.7142857142857</ele><time>2026-05-04T14:44:14.001Z</time></trkpt><trkpt lat="41.4243572505902" lon="0.9870985991309369"><ele>502.42857142857144</ele><time>2026-05-04T14:44:15.001Z</time></trkpt><trkpt lat="41.42429787670661" lon="0.9871609115453063"><ele>503.14285714285717</ele><time>2026-05-04T14:44:16.001Z</time></trkpt><trkpt lat="41.424240147941504" lon="0.9872194567309613"><ele>503.8571428571429</ele><time>2026-05-04T14:44:17.001Z</time></trkpt><trkpt lat="41.42417750033935" lon="0.9872758563863148"><ele>504.57142857142856</ele><time>2026-05-04T14:44:18.001Z</time></trkpt><trkpt lat="41.42411546917466" lon="0.987332630221228"><ele>505.28571428571433</ele><time>2026-05-04T14:44:19.001Z</time></trkpt><trkpt lat="41.4240549893566" lon="0.9873868084952896"><ele>506.00000000000006</ele><time>2026-05-04T14:44:20.001Z</time></trkpt><trkpt lat="41.42399500359763" lon="0.9874406658940502"><ele>506.00000000000006</ele><time>2026-05-04T14:44:21.001Z</time></trkpt><trkpt lat="41.423931279092095" lon="0.9874914075264872"><ele>506.0</ele><time>2026-05-04T14:44:22.001Z</time></trkpt><trkpt lat="41.4238691204719" lon="0.98753836096906"><ele>506.00000000000006</ele><time>2026-05-04T14:44:23.001Z</time></trkpt><trkpt lat="41.42380238684176" lon="0.9875821758624802"><ele>506.00000000000006</ele><time>2026-05-04T14:44:24.001Z</time></trkpt><trkpt lat="41.42373635599877" lon="0.9876215718138475"><ele>506.0</ele><time>2026-05-04T14:44:25.001Z</time></trkpt><trkpt lat="41.423674026096485" lon="0.9876654327034625"><ele>506.00000000000006</ele><time>2026-05-04T14:44:26.001Z</time></trkpt><trkpt lat="41.42361280534461" lon="0.9877091272306799"><ele>506.00000000000006</ele><time>2026-05-04T14:44:27.001Z</time></trkpt><trkpt lat="41.42354823416079" lon="0.9877543131023391"><ele>508.57142857142867</ele><time>2026-05-04T14:44:28.001Z</time></trkpt><trkpt lat="41.42348219072205" lon="0.9877983233132074"><ele>511.14285714285717</ele><time>2026-05-04T14:44:29.001Z</time></trkpt><trkpt lat="41.423416834215416" lon="0.9878357734762846"><ele>513.7142857142858</ele><time>2026-05-04T14:44:30.001Z</time></trkpt><trkpt lat="41.42334974661597" lon="0.987876238813367"><ele>516.2857142857143</ele><time>2026-05-04T14:44:31.001Z</time></trkpt><trkpt lat="41.42328104192167" lon="0.9879178572649651"><ele>518.8571428571429</ele><time>2026-05-04T14:44:32.001Z</time></trkpt><trkpt lat="41.423211478075736" lon="0.9879569542906391"><ele>521.4285714285714</ele><time>2026-05-04T14:44:33.001Z</time></trkpt><trkpt lat="41.42314049619045" lon="0.9879959212229981"><ele>524.0</ele><time>2026-05-04T14:44:34.001Z</time></trkpt><trkpt lat="41.42306906467914" lon="0.9880368211564784"><ele>524.0</ele><time>2026-05-04T14:44:35.001Z</time></trkpt><trkpt lat="41.42299774094518" lon="0.9880720958721397"><ele>524.0</ele><time>2026-05-04T14:44:36.001Z</time></trkpt><trkpt lat="41.42292828521961" lon="0.9881185930899481"><ele>524.0</ele><time>2026-05-04T14:44:37.001Z</time></trkpt><trkpt lat="41.422857869734976" lon="0.9881656270226471"><ele>524.0</ele><time>2026-05-04T14:44:38.001Z</time></trkpt><trkpt lat="41.422787210459965" lon="0.9882121033593576"><ele>524.0</ele><time>2026-05-04T14:44:39.001Z</time></trkpt><trkpt lat="41.42271349952123" lon="0.9882667169142871"><ele>524.0</ele><time>2026-05-04T14:44:40.001Z</time></trkpt><trkpt lat="41.42264157235437" lon="0.9883151588273809"><ele>525.0</ele><time>2026-05-04T14:44:41.001Z</time></trkpt><trkpt lat="41.42256935544652" lon="0.9883675756460973"><ele>526.0</ele><time>2026-05-04T14:44:42.001Z</time></trkpt><trkpt lat="41.42250056707698" lon="0.9884320342354537"><ele>527.0</ele><time>2026-05-04T14:44:43.001Z</time></trkpt><trkpt lat="41.4224321244034" lon="0.9885023055737711"><ele>528.0</ele><time>2026-05-04T14:44:44.001Z</time></trkpt><trkpt lat="41.42236144550382" lon="0.988575722112057"><ele>529.0</ele><time>2026-05-04T14:44:45.001Z</time></trkpt><trkpt lat="41.42229027779894" lon="0.9886501938868041"><ele>530.0</ele><time>2026-05-04T14:44:46.001Z</time></trkpt><trkpt lat="41.42221830123222" lon="0.9887263791390222"><ele>529.4</ele><time>2026-05-04T14:44:47.001Z</time></trkpt><trkpt lat="41.42214591585611" lon="0.9888025936006196"><ele>528.8</ele><time>2026-05-04T14:44:48.001Z</time></trkpt><trkpt lat="41.422080742517316" lon="0.9888896496415589"><ele>528.2</ele><time>2026-05-04T14:44:49.001Z</time></trkpt><trkpt lat="41.422017331107455" lon="0.9889773046599715"><ele>527.6</ele><time>2026-05-04T14:44:50.001Z</time></trkpt><trkpt lat="41.42195810538915" lon="0.9890751061973987"><ele>527.0</ele><time>2026-05-04T14:44:51.002Z</time></trkpt><trkpt lat="41.42190118469799" lon="0.9891795503401186"><ele>527.0</ele><time>2026-05-04T14:44:52.002Z</time></trkpt><trkpt lat="41.421845949914406" lon="0.9892874212238206"><ele>527.0</ele><time>2026-05-04T14:44:53.002Z</time></trkpt><trkpt lat="41.42179424587805" lon="0.9893988984787144"><ele>527.0</ele><time>2026-05-04T14:44:54.002Z</time></trkpt><trkpt lat="41.42174234531118" lon="0.9895108834267338"><ele>527.0</ele><time>2026-05-04T14:44:55.002Z</time></trkpt><trkpt lat="41.421695095109044" lon="0.989628235400954"><ele>527.0</ele><time>2026-05-04T14:44:56.002Z</time></trkpt><trkpt lat="41.42165387840545" lon="0.9897477478529206"><ele>527.0</ele><time>2026-05-04T14:44:57.002Z</time></trkpt><trkpt lat="41.421613448260615" lon="0.9898703771973366"><ele>527.0</ele><time>2026-05-04T14:44:58.002Z</time></trkpt><trkpt lat="41.42157343416473" lon="0.9899956976502882"><ele>527.0</ele><time>2026-05-04T14:44:59.002Z</time></trkpt><trkpt lat="41.42154045550405" lon="0.9901248521707426"><ele>527.0</ele><time>2026-05-04T14:45:00.002Z</time></trkpt><trkpt lat="41.42151480115979" lon="0.9902560296820195"><ele>527.0</ele><time>2026-05-04T14:45:01.002Z</time></trkpt><trkpt lat="41.421492813115016" lon="0.9903860150646855"><ele>527.8000000000001</ele><time>2026-05-04T14:45:02.002Z</time></trkpt><trkpt lat="41.421475074728164" lon="0.9905143663321674"><ele>528.6</ele><time>2026-05-04T14:45:03.002Z</time></trkpt><trkpt lat="41.42145731661307" lon="0.9906465103674813"><ele>529.4000000000001</ele><time>2026-05-04T14:45:04.002Z</time></trkpt><trkpt lat="41.42144111145146" lon="0.9907799507969457"><ele>530.2</ele><time>2026-05-04T14:45:05.002Z</time></trkpt><trkpt lat="41.421429019903066" lon="0.9909123028214838"><ele>531.0</ele><time>2026-05-04T14:45:06.002Z</time></trkpt><trkpt lat="41.421418763775485" lon="0.9910437792317098"><ele>531.0</ele><time>2026-05-04T14:45:07.002Z</time></trkpt><trkpt lat="41.42141234049605" lon="0.9911758173007241"><ele>531.0</ele><time>2026-05-04T14:45:08.002Z</time></trkpt><trkpt lat="41.42140837976272" lon="0.9913071143701842"><ele>531.0</ele><time>2026-05-04T14:45:09.002Z</time></trkpt><trkpt lat="41.42140051129442" lon="0.9914419884340446"><ele>531.0</ele><time>2026-05-04T14:45:10.002Z</time></trkpt><trkpt lat="41.42139248801784" lon="0.9915704507801617"><ele>531.0</ele><time>2026-05-04T14:45:11.002Z</time></trkpt><trkpt lat="41.42138396345822" lon="0.9916988792295066"><ele>531.2</ele><time>2026-05-04T14:45:12Z</time></trkpt><trkpt lat="41.42137487530357" lon="0.9918276539617134"><ele>531.4000000000001</ele><time>2026-05-04T14:45:13Z</time></trkpt><trkpt lat="41.42136315492259" lon="0.9919546344036306"><ele>531.6</ele><time>2026-05-04T14:45:14Z</time></trkpt><trkpt lat="41.42134824764343" lon="0.9920817760345234"><ele>531.8000000000001</ele><time>2026-05-04T14:45:15Z</time></trkpt><trkpt lat="41.42133351409826" lon="0.9922027254553745"><ele>532.0</ele><time>2026-05-04T14:45:16Z</time></trkpt><trkpt lat="41.42132079407607" lon="0.9923271216777197"><ele>533.4</ele><time>2026-05-04T14:45:17Z</time></trkpt><trkpt lat="41.42130491451767" lon="0.9924525480846312"><ele>534.8000000000001</ele><time>2026-05-04T14:45:18Z</time></trkpt><trkpt lat="41.421285548904" lon="0.9925771694924677"><ele>536.2</ele><time>2026-05-04T14:45:19Z</time></trkpt><trkpt lat="41.42126503935348" lon="0.9927005941183001"><ele>537.6</ele><time>2026-05-04T14:45:20Z</time></trkpt><trkpt lat="41.42124219710833" lon="0.9928203160622205"><ele>539.0</ele><time>2026-05-04T14:45:21Z</time></trkpt><trkpt lat="41.42121661274879" lon="0.9929389878069593"><ele>539.0</ele><time>2026-05-04T14:45:22Z</time></trkpt><trkpt lat="41.421188568380515" lon="0.9930590895428567"><ele>539.0</ele><time>2026-05-04T14:45:23Z</time></trkpt><trkpt lat="41.42115895049954" lon="0.9931772611453259"><ele>539.0</ele><time>2026-05-04T14:45:24Z</time></trkpt><trkpt lat="41.42112617424241" lon="0.9932931238508237"><ele>539.0</ele><time>2026-05-04T14:45:25Z</time></trkpt><trkpt lat="41.421090972677185" lon="0.9934111648883176"><ele>539.0</ele><time>2026-05-04T14:45:26Z</time></trkpt><trkpt lat="41.421048759094596" lon="0.9935235309356952"><ele>538.8</ele><time>2026-05-04T14:45:27Z</time></trkpt><trkpt lat="41.42100642256185" lon="0.993632967858147"><ele>538.5999999999999</ele><time>2026-05-04T14:45:28Z</time></trkpt><trkpt lat="41.42096106416914" lon="0.993742026476278"><ele>538.4</ele><time>2026-05-04T14:45:29Z</time></trkpt><trkpt lat="41.42091627384197" lon="0.9938513386962365"><ele>538.1999999999999</ele><time>2026-05-04T14:45:30Z</time></trkpt><trkpt lat="41.420869440042786" lon="0.9939604105287277"><ele>538.0</ele><time>2026-05-04T14:45:31Z</time></trkpt><trkpt lat="41.420821045582024" lon="0.994068476815127"><ele>537.4</ele><time>2026-05-04T14:45:32Z</time></trkpt><trkpt lat="41.42077205687606" lon="0.9941752819381673"><ele>536.8</ele><time>2026-05-04T14:45:33Z</time></trkpt><trkpt lat="41.42072357085837" lon="0.9942763165958494"><ele>536.2</ele><time>2026-05-04T14:45:34Z</time></trkpt><trkpt lat="41.42067128153395" lon="0.99437589111896"><ele>535.6</ele><time>2026-05-04T14:45:35Z</time></trkpt><trkpt lat="41.420619456634206" lon="0.9944770713161057"><ele>535.0</ele><time>2026-05-04T14:45:36Z</time></trkpt><trkpt lat="41.420566120655565" lon="0.9945756053752954"><ele>535.0</ele><time>2026-05-04T14:45:37Z</time></trkpt><trkpt lat="41.42050978753682" lon="0.994677178399014"><ele>535.0</ele><time>2026-05-04T14:45:38Z</time></trkpt><trkpt lat="41.420452790572675" lon="0.9947750275594358"><ele>535.0</ele><time>2026-05-04T14:45:39Z</time></trkpt><trkpt lat="41.420396529765746" lon="0.9948757585000261"><ele>535.0</ele><time>2026-05-04T14:45:40Z</time></trkpt><trkpt lat="41.420341349275446" lon="0.9949781339411025"><ele>535.0</ele><time>2026-05-04T14:45:41Z</time></trkpt><trkpt lat="41.42028779581709" lon="0.9950808115512543"><ele>535.4</ele><time>2026-05-04T14:45:42Z</time></trkpt><trkpt lat="41.42023476871959" lon="0.995184348111592"><ele>535.8</ele><time>2026-05-04T14:45:43Z</time></trkpt><trkpt lat="41.42018211948258" lon="0.9952859348567297"><ele>536.2</ele><time>2026-05-04T14:45:44Z</time></trkpt><trkpt lat="41.42013058546573" lon="0.9953919318423728"><ele>536.6</ele><time>2026-05-04T14:45:45Z</time></trkpt><trkpt lat="41.420081612960196" lon="0.9955014400775773"><ele>537.0</ele><time>2026-05-04T14:45:46Z</time></trkpt><trkpt lat="41.42003040052494" lon="0.9956126226558049"><ele>537.0</ele><time>2026-05-04T14:45:47Z</time></trkpt><trkpt lat="41.41998057108579" lon="0.995723527013816"><ele>537.0</ele><time>2026-05-04T14:45:48.001Z</time></trkpt><trkpt lat="41.419933083033705" lon="0.9958331409889387"><ele>537.0</ele><time>2026-05-04T14:45:49.001Z</time></trkpt><trkpt lat="41.41988626700692" lon="0.9959474516520558"><ele>537.0</ele><time>2026-05-04T14:45:50.001Z</time></trkpt><trkpt lat="41.419843316805" lon="0.996063584649953"><ele>537.0</ele><time>2026-05-04T14:45:51.001Z</time></trkpt><trkpt lat="41.41980273602919" lon="0.996180246253696"><ele>537.0</ele><time>2026-05-04T14:45:52.001Z</time></trkpt><trkpt lat="41.41976372183763" lon="0.9962981497409312"><ele>537.0</ele><time>2026-05-04T14:45:53.001Z</time></trkpt><trkpt lat="41.41972689300743" lon="0.996416109631115"><ele>537.0</ele><time>2026-05-04T14:45:54.001Z</time></trkpt><trkpt lat="41.41969115529986" lon="0.9965377722797117"><ele>537.0</ele><time>2026-05-04T14:45:55.001Z</time></trkpt><trkpt lat="41.41965632756623" lon="0.9966634068861591"><ele>537.0</ele><time>2026-05-04T14:45:56.001Z</time></trkpt><trkpt lat="41.41962447519595" lon="0.9967870536673239"><ele>541.0</ele><time>2026-05-04T14:45:57.001Z</time></trkpt><trkpt lat="41.419594347745665" lon="0.9969103468254976"><ele>545.0</ele><time>2026-05-04T14:45:58.001Z</time></trkpt><trkpt lat="41.41956260361626" lon="0.9970335956814073"><ele>549.0</ele><time>2026-05-04T14:45:59.001Z</time></trkpt><trkpt lat="41.41952952087749" lon="0.9971575225779507"><ele>553.0</ele><time>2026-05-04T14:46:00.001Z</time></trkpt><trkpt lat="41.41949851888105" lon="0.997282103950095"><ele>557.0</ele><time>2026-05-04T14:46:01.001Z</time></trkpt><trkpt lat="41.41946825242863" lon="0.997406261484293"><ele>556.2</ele><time>2026-05-04T14:46:02.001Z</time></trkpt><trkpt lat="41.41943854425922" lon="0.9975322605504238"><ele>555.4000000000001</ele><time>2026-05-04T14:46:03.001Z</time></trkpt><trkpt lat="41.41940791986009" lon="0.997658063013983"><ele>554.5999999999999</ele><time>2026-05-04T14:46:04.001Z</time></trkpt><trkpt lat="41.41937876809878" lon="0.9977815979750783"><ele>553.8</ele><time>2026-05-04T14:46:05.001Z</time></trkpt><trkpt lat="41.419349185290315" lon="0.99790485376615"><ele>553.0</ele><time>2026-05-04T14:46:06.001Z</time></trkpt><trkpt lat="41.41931875586436" lon="0.9980297423057397"><ele>553.0</ele><time>2026-05-04T14:46:07.001Z</time></trkpt><trkpt lat="41.41928739654208" lon="0.9981544069656579"><ele>553.0</ele><time>2026-05-04T14:46:08.001Z</time></trkpt><trkpt lat="41.41925609127573" lon="0.998277387214149"><ele>553.0</ele><time>2026-05-04T14:46:09.001Z</time></trkpt><trkpt lat="41.41922641928297" lon="0.9984024114068193"><ele>553.0</ele><time>2026-05-04T14:46:10.001Z</time></trkpt><trkpt lat="41.4191964133612" lon="0.9985313775312603"><ele>553.0</ele><time>2026-05-04T14:46:11.001Z</time></trkpt><trkpt lat="41.41916620907586" lon="0.9986598313698172"><ele>551.1999999999999</ele><time>2026-05-04T14:46:12.001Z</time></trkpt><trkpt lat="41.41913690047294" lon="0.9987881982881334"><ele>549.4</ele><time>2026-05-04T14:46:13.001Z</time></trkpt><trkpt lat="41.41911028887381" lon="0.9989171947326794"><ele>547.5999999999999</ele><time>2026-05-04T14:46:14.001Z</time></trkpt><trkpt lat="41.419081260434666" lon="0.9990462566255661"><ele>545.8</ele><time>2026-05-04T14:46:15.001Z</time></trkpt><trkpt lat="41.41905668933123" lon="0.9991759762154867"><ele>544.0</ele><time>2026-05-04T14:46:16.001Z</time></trkpt><trkpt lat="41.41903336306236" lon="0.9993070940950712"><ele>544.0</ele><time>2026-05-04T14:46:17.001Z</time></trkpt><trkpt lat="41.419014709756695" lon="0.9994412098269476"><ele>544.0</ele><time>2026-05-04T14:46:18.001Z</time></trkpt><trkpt lat="41.41899634957166" lon="0.9995770704968878"><ele>544.0</ele><time>2026-05-04T14:46:19.001Z</time></trkpt><trkpt lat="41.41897837358932" lon="0.9997121839454265"><ele>544.0</ele><time>2026-05-04T14:46:20.001Z</time></trkpt><trkpt lat="41.41896085002579" lon="0.9998486649785192"><ele>544.0</ele><time>2026-05-04T14:46:21.001Z</time></trkpt><trkpt lat="41.418945020992936" lon="0.9999864402547297"><ele>544.0</ele><time>2026-05-04T14:46:22.001Z</time></trkpt><trkpt lat="41.41893031024402" lon="1.0001257900179001"><ele>544.0</ele><time>2026-05-04T14:46:23.001Z</time></trkpt><trkpt lat="41.41891959897462" lon="1.0002637916821282"><ele>544.0</ele><time>2026-05-04T14:46:24.001Z</time></trkpt><trkpt lat="41.418909111600655" lon="1.0004023114933736"><ele>544.0</ele><time>2026-05-04T14:46:25.001Z</time></trkpt><trkpt lat="41.41890323921779" lon="1.0005400719744146"><ele>544.0</ele><time>2026-05-04T14:46:26.001Z</time></trkpt><trkpt lat="41.41890248415788" lon="1.0006792380641978"><ele>544.0</ele><time>2026-05-04T14:46:27.001Z</time></trkpt><trkpt lat="41.418901848817335" lon="1.0008154469358796"><ele>544.0</ele><time>2026-05-04T14:46:28.001Z</time></trkpt><trkpt lat="41.41890411840287" lon="1.0009499781678295"><ele>544.0</ele><time>2026-05-04T14:46:29.001Z</time></trkpt><trkpt lat="41.41890939401831" lon="1.0010846638668105"><ele>544.0</ele><time>2026-05-04T14:46:30.001Z</time></trkpt><trkpt lat="41.41892172453758" lon="1.0012189874740116"><ele>544.0</ele><time>2026-05-04T14:46:31.001Z</time></trkpt><trkpt lat="41.418931314762766" lon="1.001348826490557"><ele>545.2</ele><time>2026-05-04T14:46:32.001Z</time></trkpt><trkpt lat="41.41894986736734" lon="1.0014777848249456"><ele>546.4</ele><time>2026-05-04T14:46:33.001Z</time></trkpt><trkpt lat="41.41896457006072" lon="1.0016076663206812"><ele>547.6</ele><time>2026-05-04T14:46:34.001Z</time></trkpt><trkpt lat="41.418976116368896" lon="1.001733026013589"><ele>548.8</ele><time>2026-05-04T14:46:35.001Z</time></trkpt><trkpt lat="41.41899114225045" lon="1.0018585061367873"><ele>550.0</ele><time>2026-05-04T14:46:36.001Z</time></trkpt><trkpt lat="41.41900619861046" lon="1.0019816294201018"><ele>550.6</ele><time>2026-05-04T14:46:37.001Z</time></trkpt><trkpt lat="41.41902754031167" lon="1.002109614007008"><ele>551.2</ele><time>2026-05-04T14:46:38.001Z</time></trkpt><trkpt lat="41.41904503964599" lon="1.0022236004370517"><ele>551.8</ele><time>2026-05-04T14:46:39.001Z</time></trkpt><trkpt lat="41.41906322917044" lon="1.0023499385932169"><ele>552.4</ele><time>2026-05-04T14:46:40.001Z</time></trkpt><trkpt lat="41.419084122951006" lon="1.0024709709926276"><ele>553.0</ele><time>2026-05-04T14:46:41.001Z</time></trkpt><trkpt lat="41.41910166229204" lon="1.0025925870266776"><ele>554.1999999999999</ele><time>2026-05-04T14:46:42.001Z</time></trkpt><trkpt lat="41.41911888694877" lon="1.0027109207457021"><ele>555.4</ele><time>2026-05-04T14:46:43.001Z</time></trkpt><trkpt lat="41.419135524515895" lon="1.0028304019223044"><ele>556.5999999999999</ele><time>2026-05-04T14:46:44.001Z</time></trkpt><trkpt lat="41.41915201918416" lon="1.0029510847155556"><ele>557.8</ele><time>2026-05-04T14:46:45.001Z</time></trkpt><trkpt lat="41.41916878018394" lon="1.0030707390285694"><ele>559.0</ele><time>2026-05-04T14:46:46.001Z</time></trkpt><trkpt lat="41.41917924816669" lon="1.003192616086041"><ele>559.0</ele><time>2026-05-04T14:46:47.001Z</time></trkpt><trkpt lat="41.41919132117193" lon="1.0033120181930062"><ele>559.0</ele><time>2026-05-04T14:46:48.001Z</time></trkpt><trkpt lat="41.419197280790065" lon="1.003434610755387"><ele>559.0</ele><time>2026-05-04T14:46:49.001Z</time></trkpt><trkpt lat="41.419204111363825" lon="1.0035560944766624"><ele>559.0</ele><time>2026-05-04T14:46:50.001Z</time></trkpt><trkpt lat="41.419209193747236" lon="1.0036746330065471"><ele>559.0</ele><time>2026-05-04T14:46:51.001Z</time></trkpt><trkpt lat="41.41920829977159" lon="1.0037915979581908"><ele>559.5</ele><time>2026-05-04T14:46:52.001Z</time></trkpt><trkpt lat="41.419200478123564" lon="1.0039088666610716"><ele>560.0</ele><time>2026-05-04T14:46:53.001Z</time></trkpt><trkpt lat="41.41918510647489" lon="1.004028930674628"><ele>560.5</ele><time>2026-05-04T14:46:54.001Z</time></trkpt><trkpt lat="41.419170153560536" lon="1.0041408731808474"><ele>561.0</ele><time>2026-05-04T14:46:55.001Z</time></trkpt><trkpt lat="41.41915466048345" lon="1.0042577858017114"><ele>561.5</ele><time>2026-05-04T14:46:56.001Z</time></trkpt><trkpt lat="41.41913357245501" lon="1.0043685804083267"><ele>562.0</ele><time>2026-05-04T14:46:57.001Z</time></trkpt><trkpt lat="41.41910718932678" lon="1.0044743035310948"><ele>562.5</ele><time>2026-05-04T14:46:58.001Z</time></trkpt><trkpt lat="41.41908070660691" lon="1.0045849759567425"><ele>563.0</ele><time>2026-05-04T14:46:59.002Z</time></trkpt><trkpt lat="41.419048671109294" lon="1.004687441137944"><ele>563.5</ele><time>2026-05-04T14:47:00.002Z</time></trkpt><trkpt lat="41.41901872656867" lon="1.0047900672490298"><ele>564.0</ele><time>2026-05-04T14:47:01.002Z</time></trkpt><trkpt lat="41.41898478089056" lon="1.0048918350654032"><ele>564.5</ele><time>2026-05-04T14:47:02.002Z</time></trkpt><trkpt lat="41.418950569279524" lon="1.0049902619793059"><ele>565.0</ele><time>2026-05-04T14:47:03.002Z</time></trkpt><trkpt lat="41.41891641185675" lon="1.0050918700295006"><ele>565.0</ele><time>2026-05-04T14:47:04.002Z</time></trkpt><trkpt lat="41.41887772244864" lon="1.005190595156322"><ele>565.0</ele><time>2026-05-04T14:47:05.002Z</time></trkpt><trkpt lat="41.418839105427516" lon="1.0052853965759232"><ele>565.0</ele><time>2026-05-04T14:47:06.002Z</time></trkpt><trkpt lat="41.418800385334" lon="1.005384087387934"><ele>565.0</ele><time>2026-05-04T14:47:07.002Z</time></trkpt><trkpt lat="41.41875618312205" lon="1.005479521392791"><ele>565.0</ele><time>2026-05-04T14:47:08.002Z</time></trkpt><trkpt lat="41.418716401884474" lon="1.005573644121599"><ele>565.0</ele><time>2026-05-04T14:47:09.002Z</time></trkpt><trkpt lat="41.41867219209409" lon="1.0056711106862153"><ele>566.6666666666667</ele><time>2026-05-04T14:47:10.002Z</time></trkpt><trkpt lat="41.41863060080787" lon="1.0057640305025082"><ele>568.3333333333334</ele><time>2026-05-04T14:47:11.002Z</time></trkpt><trkpt lat="41.41859401523733" lon="1.0058612848771515"><ele>570.0</ele><time>2026-05-04T14:47:12.002Z</time></trkpt><trkpt lat="41.4185608206961" lon="1.0059605640490292"><ele>571.6666666666666</ele><time>2026-05-04T14:47:13.002Z</time></trkpt><trkpt lat="41.418521997567034" lon="1.006056356128391"><ele>573.3333333333333</ele><time>2026-05-04T14:47:14.002Z</time></trkpt><trkpt lat="41.41848474083371" lon="1.006155865475826"><ele>575.0</ele><time>2026-05-04T14:47:15.002Z</time></trkpt><trkpt lat="41.41844926574584" lon="1.0062585830923239"><ele>575.1666666666666</ele><time>2026-05-04T14:47:16.002Z</time></trkpt><trkpt lat="41.418413142532465" lon="1.0063610307700108"><ele>575.3333333333333</ele><time>2026-05-04T14:47:17.002Z</time></trkpt><trkpt lat="41.418378657956616" lon="1.006465134876925"><ele>575.5</ele><time>2026-05-04T14:47:18Z</time></trkpt><trkpt lat="41.41834499804059" lon="1.0065687062293616"><ele>575.6666666666666</ele><time>2026-05-04T14:47:19Z</time></trkpt><trkpt lat="41.418312404158875" lon="1.0066787137235536"><ele>575.8333333333334</ele><time>2026-05-04T14:47:20Z</time></trkpt><trkpt lat="41.41827782026701" lon="1.0067854761408488"><ele>576.0</ele><time>2026-05-04T14:47:21Z</time></trkpt><trkpt lat="41.41824683627035" lon="1.0068966573866114"><ele>576.4</ele><time>2026-05-04T14:47:22Z</time></trkpt><trkpt lat="41.41822016822522" lon="1.007012686787519"><ele>576.8</ele><time>2026-05-04T14:47:23Z</time></trkpt><trkpt lat="41.41819802320062" lon="1.007132441246992"><ele>577.1999999999999</ele><time>2026-05-04T14:47:24Z</time></trkpt><trkpt lat="41.418175546238224" lon="1.007251905761682"><ele>577.6</ele><time>2026-05-04T14:47:25Z</time></trkpt><trkpt lat="41.418148337061744" lon="1.007370509947791"><ele>578.0</ele><time>2026-05-04T14:47:26Z</time></trkpt><trkpt lat="41.41812646340264" lon="1.0074924383204777"><ele>579.0</ele><time>2026-05-04T14:47:27Z</time></trkpt><trkpt lat="41.418112780362755" lon="1.0076248193441153"><ele>580.0</ele><time>2026-05-04T14:47:28Z</time></trkpt><trkpt lat="41.418099446589615" lon="1.0077546890950104"><ele>581.0</ele><time>2026-05-04T14:47:29Z</time></trkpt><trkpt lat="41.418089428596986" lon="1.0078901507359082"><ele>582.0</ele><time>2026-05-04T14:47:30Z</time></trkpt><trkpt lat="41.41807735341523" lon="1.0080268141384365"><ele>583.0</ele><time>2026-05-04T14:47:31Z</time></trkpt><trkpt lat="41.418066358727835" lon="1.0081708320356582"><ele>583.0</ele><time>2026-05-04T14:47:32Z</time></trkpt><trkpt lat="41.418058683860124" lon="1.0083166744551781"><ele>583.0</ele><time>2026-05-04T14:47:33Z</time></trkpt><trkpt lat="41.4180464267936" lon="1.0084607736652875"><ele>583.0</ele><time>2026-05-04T14:47:34Z</time></trkpt><trkpt lat="41.41803600149762" lon="1.008598810174727"><ele>583.0</ele><time>2026-05-04T14:47:35Z</time></trkpt><trkpt lat="41.41802558275441" lon="1.0087568701978558"><ele>583.0</ele><time>2026-05-04T14:47:36Z</time></trkpt><trkpt lat="41.41801637437048" lon="1.0089200519401558"><ele>583.25</ele><time>2026-05-04T14:47:37Z</time></trkpt><trkpt lat="41.418008293750155" lon="1.0090763790254318"><ele>583.5</ele><time>2026-05-04T14:47:38Z</time></trkpt><trkpt lat="41.41800024085632" lon="1.009233473687136"><ele>583.75</ele><time>2026-05-04T14:47:39Z</time></trkpt><trkpt lat="41.41799385454613" lon="1.009392961054529"><ele>584.0</ele><time>2026-05-04T14:47:40Z</time></trkpt><trkpt lat="41.41798448242424" lon="1.0095557856832795"><ele>582.0</ele><time>2026-05-04T14:47:41Z</time></trkpt><trkpt lat="41.417970767247866" lon="1.0097148554474982"><ele>580.0</ele><time>2026-05-04T14:47:42Z</time></trkpt><trkpt lat="41.417956308824685" lon="1.009874675709548"><ele>578.0</ele><time>2026-05-04T14:47:43Z</time></trkpt><trkpt lat="41.41794255422084" lon="1.010033599428074"><ele>576.0</ele><time>2026-05-04T14:47:44Z</time></trkpt><trkpt lat="41.41793403473039" lon="1.0101903756449155"><ele>575.25</ele><time>2026-05-04T14:47:45Z</time></trkpt><trkpt lat="41.417925764030464" lon="1.0103510546791254"><ele>574.5</ele><time>2026-05-04T14:47:46Z</time></trkpt><trkpt lat="41.41791226557766" lon="1.0105030682010383"><ele>573.75</ele><time>2026-05-04T14:47:47Z</time></trkpt><trkpt lat="41.41789855012689" lon="1.010654845466638"><ele>573.0</ele><time>2026-05-04T14:47:48Z</time></trkpt><trkpt lat="41.417886447559596" lon="1.0108097055513898"><ele>572.5</ele><time>2026-05-04T14:47:49Z</time></trkpt><trkpt lat="41.417876126159896" lon="1.0109642523544766"><ele>572.0</ele><time>2026-05-04T14:47:50Z</time></trkpt><trkpt lat="41.41786886261938" lon="1.0111216955075952"><ele>571.5</ele><time>2026-05-04T14:47:51.001Z</time></trkpt><trkpt lat="41.41785972979607" lon="1.0112778903693942"><ele>571.0</ele><time>2026-05-04T14:47:52.001Z</time></trkpt><trkpt lat="41.41785166592614" lon="1.0114311665686884"><ele>571.0</ele><time>2026-05-04T14:47:53.001Z</time></trkpt><trkpt lat="41.417845818358636" lon="1.0115827569635278"><ele>571.0</ele><time>2026-05-04T14:47:54.001Z</time></trkpt><trkpt lat="41.417839757620584" lon="1.0117382538094053"><ele>571.0</ele><time>2026-05-04T14:47:55.001Z</time></trkpt><trkpt lat="41.41783428339219" lon="1.0118933412468416"><ele>571.0</ele><time>2026-05-04T14:47:56.001Z</time></trkpt><trkpt lat="41.41782840733531" lon="1.0120482062560834"><ele>570.0</ele><time>2026-05-04T14:47:57.001Z</time></trkpt><trkpt lat="41.417830224759314" lon="1.0122041986231904"><ele>569.0</ele><time>2026-05-04T14:47:58.001Z</time></trkpt><trkpt lat="41.417826763814624" lon="1.0123599269929429"><ele>568.0</ele><time>2026-05-04T14:47:59.001Z</time></trkpt><trkpt lat="41.41782594035338" lon="1.012513390089418"><ele>567.0</ele><time>2026-05-04T14:48:00.001Z</time></trkpt><trkpt lat="41.41782725038209" lon="1.0126663279483912"><ele>567.0</ele><time>2026-05-04T14:48:01.001Z</time></trkpt><trkpt lat="41.41782794149813" lon="1.012817939346723"><ele>567.0</ele><time>2026-05-04T14:48:02.001Z</time></trkpt><trkpt lat="41.41782692947893" lon="1.0129689358755893"><ele>567.0</ele><time>2026-05-04T14:48:03.001Z</time></trkpt><trkpt lat="41.41782889861731" lon="1.0131220917997361"><ele>567.0</ele><time>2026-05-04T14:48:04.001Z</time></trkpt><trkpt lat="41.41783184825802" lon="1.0132754435292308"><ele>567.5</ele><time>2026-05-04T14:48:05.001Z</time></trkpt><trkpt lat="41.4178341676972" lon="1.0134299599009478"><ele>568.0</ele><time>2026-05-04T14:48:06.001Z</time></trkpt><trkpt lat="41.417837459150384" lon="1.0135863777819731"><ele>568.5</ele><time>2026-05-04T14:48:07.001Z</time></trkpt><trkpt lat="41.41783631854803" lon="1.0137414136865917"><ele>569.0</ele><time>2026-05-04T14:48:08.001Z</time></trkpt><trkpt lat="41.41783739547724" lon="1.013895170705774"><ele>569.0</ele><time>2026-05-04T14:48:09.001Z</time></trkpt><trkpt lat="41.41783444274963" lon="1.0140505109776923"><ele>569.0</ele><time>2026-05-04T14:48:10.001Z</time></trkpt><trkpt lat="41.41783109286173" lon="1.0142077956653892"><ele>569.0</ele><time>2026-05-04T14:48:11.001Z</time></trkpt><trkpt lat="41.417830365853106" lon="1.0143668113946767"><ele>569.0</ele><time>2026-05-04T14:48:12.001Z</time></trkpt><trkpt lat="41.41783133401928" lon="1.0145223528069953"><ele>569.25</ele><time>2026-05-04T14:48:13.001Z</time></trkpt><trkpt lat="41.41782766776681" lon="1.0146822414849899"><ele>569.5</ele><time>2026-05-04T14:48:14.001Z</time></trkpt><trkpt lat="41.41781896281353" lon="1.0148352881319924"><ele>569.75</ele><time>2026-05-04T14:48:15.001Z</time></trkpt><trkpt lat="41.41780851590232" lon="1.014992284722842"><ele>570.0</ele><time>2026-05-04T14:48:16.001Z</time></trkpt><trkpt lat="41.41779727857988" lon="1.0151476282963618"><ele>570.25</ele><time>2026-05-04T14:48:17.001Z</time></trkpt><trkpt lat="41.417780278953266" lon="1.0152995697990688"><ele>570.5</ele><time>2026-05-04T14:48:18.001Z</time></trkpt><trkpt lat="41.417758510197444" lon="1.0154514470356397"><ele>570.75</ele><time>2026-05-04T14:48:19.001Z</time></trkpt><trkpt lat="41.41773044700161" lon="1.0155986862460775"><ele>571.0</ele><time>2026-05-04T14:48:20.001Z</time></trkpt><trkpt lat="41.417707580220934" lon="1.0157510065748843"><ele>570.75</ele><time>2026-05-04T14:48:21.001Z</time></trkpt><trkpt lat="41.417680070843005" lon="1.0159011973247163"><ele>570.5</ele><time>2026-05-04T14:48:22.001Z</time></trkpt><trkpt lat="41.417653164033396" lon="1.016052585451973"><ele>570.25</ele><time>2026-05-04T14:48:23.001Z</time></trkpt><trkpt lat="41.41762449850012" lon="1.016202430938569"><ele>570.0</ele><time>2026-05-04T14:48:24.001Z</time></trkpt><trkpt lat="41.417586170169166" lon="1.0163488444407234"><ele>570.0</ele><time>2026-05-04T14:48:25.001Z</time></trkpt><trkpt lat="41.41754924274484" lon="1.0164995630730507"><ele>570.0</ele><time>2026-05-04T14:48:26.001Z</time></trkpt><trkpt lat="41.41750662657805" lon="1.016650988900821"><ele>570.0</ele><time>2026-05-04T14:48:27.001Z</time></trkpt><trkpt lat="41.41746031113182" lon="1.0167997683808339"><ele>570.0</ele><time>2026-05-04T14:48:28.001Z</time></trkpt><trkpt lat="41.41741041369125" lon="1.0169492623693144"><ele>567.5</ele><time>2026-05-04T14:48:29.001Z</time></trkpt><trkpt lat="41.41735776585467" lon="1.017097754089731"><ele>565.0</ele><time>2026-05-04T14:48:30.001Z</time></trkpt><trkpt lat="41.41730372367312" lon="1.017246735858988"><ele>562.5</ele><time>2026-05-04T14:48:31.001Z</time></trkpt><trkpt lat="41.41724766885033" lon="1.0173889020599458"><ele>560.0</ele><time>2026-05-04T14:48:32.001Z</time></trkpt><trkpt lat="41.41719106877293" lon="1.0175340440800071"><ele>559.5</ele><time>2026-05-04T14:48:33.001Z</time></trkpt><trkpt lat="41.41713264745385" lon="1.0176755085540503"><ele>559.0</ele><time>2026-05-04T14:48:34.001Z</time></trkpt><trkpt lat="41.41707300011312" lon="1.0178158517738356"><ele>558.5</ele><time>2026-05-04T14:48:35.001Z</time></trkpt><trkpt lat="41.41700995379801" lon="1.0179555033129744"><ele>558.0</ele><time>2026-05-04T14:48:36.001Z</time></trkpt><trkpt lat="41.41694711078156" lon="1.0180953686153362"><ele>558.0</ele><time>2026-05-04T14:48:37.001Z</time></trkpt><trkpt lat="41.41688835586097" lon="1.0182384625982905"><ele>558.0</ele><time>2026-05-04T14:48:38.001Z</time></trkpt><trkpt lat="41.416829933064605" lon="1.0183781921043509"><ele>558.0</ele><time>2026-05-04T14:48:39.001Z</time></trkpt><trkpt lat="41.416772686780305" lon="1.0185167836917957"><ele>558.0</ele><time>2026-05-04T14:48:40.001Z</time></trkpt><trkpt lat="41.416714290578334" lon="1.0186552513862368"><ele>555.75</ele><time>2026-05-04T14:48:41.001Z</time></trkpt><trkpt lat="41.416653914593454" lon="1.0187941559538651"><ele>553.5</ele><time>2026-05-04T14:48:42.001Z</time></trkpt><trkpt lat="41.41659372269185" lon="1.0189339002596485"><ele>551.25</ele><time>2026-05-04T14:48:43.001Z</time></trkpt><trkpt lat="41.41653214119569" lon="1.0190675589797673"><ele>549.0</ele><time>2026-05-04T14:48:44.001Z</time></trkpt><trkpt lat="41.416466434820194" lon="1.0192020608964025"><ele>548.75</ele><time>2026-05-04T14:48:45.001Z</time></trkpt><trkpt lat="41.416404564727486" lon="1.019343126281953"><ele>548.5</ele><time>2026-05-04T14:48:46.001Z</time></trkpt><trkpt lat="41.41634621580245" lon="1.0194829440342335"><ele>548.25</ele><time>2026-05-04T14:48:47.001Z</time></trkpt><trkpt lat="41.416288728607725" lon="1.019622219572001"><ele>548.0</ele><time>2026-05-04T14:48:48.001Z</time></trkpt><trkpt lat="41.416233459292734" lon="1.0197600821262054"><ele>548.0</ele><time>2026-05-04T14:48:49.001Z</time></trkpt><trkpt lat="41.41617684666467" lon="1.0198979745658199"><ele>548.0</ele><time>2026-05-04T14:48:50.001Z</time></trkpt><trkpt lat="41.4161172455566" lon="1.0200353816840853"><ele>548.0</ele><time>2026-05-04T14:48:51.001Z</time></trkpt><trkpt lat="41.41605875458679" lon="1.0201728493931415"><ele>548.0</ele><time>2026-05-04T14:48:52.001Z</time></trkpt><trkpt lat="41.41599761504341" lon="1.0203118015066306"><ele>545.5</ele><time>2026-05-04T14:48:53.001Z</time></trkpt><trkpt lat="41.415940185534396" lon="1.020452416569825"><ele>543.0</ele><time>2026-05-04T14:48:54.001Z</time></trkpt><trkpt lat="41.415886414615144" lon="1.0205886275172265"><ele>540.5</ele><time>2026-05-04T14:48:55.001Z</time></trkpt><trkpt lat="41.415826345882785" lon="1.0207215748423752"><ele>538.0</ele><time>2026-05-04T14:48:56.001Z</time></trkpt><trkpt lat="41.415765635313306" lon="1.020857104102431"><ele>536.5</ele><time>2026-05-04T14:48:57.001Z</time></trkpt><trkpt lat="41.41570915714829" lon="1.0209904330391504"><ele>535.0</ele><time>2026-05-04T14:48:58.001Z</time></trkpt><trkpt lat="41.41564886571754" lon="1.0211276257177275"><ele>533.5</ele><time>2026-05-04T14:48:59.001Z</time></trkpt><trkpt lat="41.41558876840819" lon="1.0212650076456065"><ele>532.0</ele><time>2026-05-04T14:49:00.001Z</time></trkpt><trkpt lat="41.41553181370091" lon="1.021401861442109"><ele>533.0</ele><time>2026-05-04T14:49:01.001Z</time></trkpt><trkpt lat="41.41547402982939" lon="1.0215346868915205"><ele>534.0</ele><time>2026-05-04T14:49:02.001Z</time></trkpt><trkpt lat="41.415399619431724" lon="1.0216555092763082"><ele>535.0</ele><time>2026-05-04T14:49:03.001Z</time></trkpt><trkpt lat="41.41533756025506" lon="1.0217843765968042"><ele>536.0</ele><time>2026-05-04T14:49:04.001Z</time></trkpt><trkpt lat="41.41527428831024" lon="1.0219123904285998"><ele>536.0</ele><time>2026-05-04T14:49:05.001Z</time></trkpt><trkpt lat="41.41521789323578" lon="1.0220517717574902"><ele>536.0</ele><time>2026-05-04T14:49:06.002Z</time></trkpt><trkpt lat="41.4151472819962" lon="1.0221782274807218"><ele>536.0</ele><time>2026-05-04T14:49:07.002Z</time></trkpt><trkpt lat="41.41507748818919" lon="1.0223025262872552"><ele>536.0</ele><time>2026-05-04T14:49:08.002Z</time></trkpt><trkpt lat="41.41500729552649" lon="1.022425229510179"><ele>534.25</ele><time>2026-05-04T14:49:09.002Z</time></trkpt><trkpt lat="41.414935174024436" lon="1.0225485538082915"><ele>532.5</ele><time>2026-05-04T14:49:10.002Z</time></trkpt><trkpt lat="41.41486362459906" lon="1.022676457944285"><ele>530.75</ele><time>2026-05-04T14:49:11.002Z</time></trkpt><trkpt lat="41.41479673876809" lon="1.0227996299090936"><ele>529.0</ele><time>2026-05-04T14:49:12.002Z</time></trkpt><trkpt lat="41.41472778035437" lon="1.0229199122573744"><ele>529.0</ele><time>2026-05-04T14:49:13.002Z</time></trkpt><trkpt lat="41.414661684926514" lon="1.0230417004864232"><ele>529.0</ele><time>2026-05-04T14:49:14.002Z</time></trkpt><trkpt lat="41.41458901149158" lon="1.0231648321007927"><ele>529.0</ele><time>2026-05-04T14:49:15.002Z</time></trkpt><trkpt lat="41.41451308930055" lon="1.0232888973311622"><ele>529.0</ele><time>2026-05-04T14:49:16.002Z</time></trkpt><trkpt lat="41.41444122690294" lon="1.0234147196091392"><ele>530.25</ele><time>2026-05-04T14:49:17.002Z</time></trkpt><trkpt lat="41.414372772432884" lon="1.0235416447106378"><ele>531.5</ele><time>2026-05-04T14:49:18.002Z</time></trkpt><trkpt lat="41.41430432184984" lon="1.0236728089522638"><ele>532.75</ele><time>2026-05-04T14:49:19.002Z</time></trkpt><trkpt lat="41.414230669509834" lon="1.023803418957469"><ele>534.0</ele><time>2026-05-04T14:49:20.002Z</time></trkpt><trkpt lat="41.4141487948293" lon="1.0239428424641892"><ele>534.0</ele><time>2026-05-04T14:49:21.002Z</time></trkpt><trkpt lat="41.414110741923274" lon="1.0240444645490971"><ele>534.0</ele><time>2026-05-04T14:49:22.002Z</time></trkpt><trkpt lat="41.41404077988398" lon="1.0241652246191066"><ele>534.0</ele><time>2026-05-04T14:49:23.002Z</time></trkpt><trkpt lat="41.413971754324876" lon="1.0242876162248555"><ele>534.0</ele><time>2026-05-04T14:49:24Z</time></trkpt><trkpt lat="41.41390323771972" lon="1.0244122161411802"><ele>534.0</ele><time>2026-05-04T14:49:25Z</time></trkpt><trkpt lat="41.413835100967425" lon="1.024533736237449"><ele>534.25</ele><time>2026-05-04T14:49:26Z</time></trkpt><trkpt lat="41.413766059431126" lon="1.0246580156840759"><ele>534.5</ele><time>2026-05-04T14:49:27Z</time></trkpt><trkpt lat="41.4137006137722" lon="1.0247813148438307"><ele>534.75</ele><time>2026-05-04T14:49:28Z</time></trkpt><trkpt lat="41.413630643178756" lon="1.0249026581597864"><ele>535.0</ele><time>2026-05-04T14:49:29Z</time></trkpt><trkpt lat="41.41355332258754" lon="1.0250284433735748"><ele>535.0</ele><time>2026-05-04T14:49:30Z</time></trkpt><trkpt lat="41.413502761860535" lon="1.0251394376476737"><ele>535.0</ele><time>2026-05-04T14:49:31Z</time></trkpt><trkpt lat="41.41343697560118" lon="1.0252628082482766"><ele>535.0</ele><time>2026-05-04T14:49:32Z</time></trkpt><trkpt lat="41.41336720493196" lon="1.0253863468869617"><ele>535.0</ele><time>2026-05-04T14:49:33Z</time></trkpt><trkpt lat="41.41329747150205" lon="1.0255108632539718"><ele>535.0</ele><time>2026-05-04T14:49:34Z</time></trkpt><trkpt lat="41.41322364645367" lon="1.0256384083277503"><ele>535.0</ele><time>2026-05-04T14:49:35Z</time></trkpt><trkpt lat="41.41315559819004" lon="1.025763603864728"><ele>535.0</ele><time>2026-05-04T14:49:36Z</time></trkpt><trkpt lat="41.413083736020624" lon="1.0258916604966182"><ele>535.0</ele><time>2026-05-04T14:49:37Z</time></trkpt><trkpt lat="41.41300883736012" lon="1.0260185968090259"><ele>535.0</ele><time>2026-05-04T14:49:38Z</time></trkpt><trkpt lat="41.41293338327393" lon="1.026147036152885"><ele>531.25</ele><time>2026-05-04T14:49:39Z</time></trkpt><trkpt lat="41.41285921405981" lon="1.0262747922572575"><ele>527.5</ele><time>2026-05-04T14:49:40Z</time></trkpt><trkpt lat="41.41278375761999" lon="1.026402675584888"><ele>523.75</ele><time>2026-05-04T14:49:41Z</time></trkpt><trkpt lat="41.41271024988606" lon="1.0265263395866133"><ele>520.0</ele><time>2026-05-04T14:49:42Z</time></trkpt><trkpt lat="41.41263488792296" lon="1.0266507011363393"><ele>518.25</ele><time>2026-05-04T14:49:43Z</time></trkpt><trkpt lat="41.41255830674641" lon="1.0267751589678393"><ele>516.5</ele><time>2026-05-04T14:49:44Z</time></trkpt><trkpt lat="41.412479550684004" lon="1.0269011731631208"><ele>514.75</ele><time>2026-05-04T14:49:45Z</time></trkpt><trkpt lat="41.41239985944746" lon="1.027020293507572"><ele>513.0</ele><time>2026-05-04T14:49:46Z</time></trkpt><trkpt lat="41.41231730318064" lon="1.0271381723788857"><ele>513.0</ele><time>2026-05-04T14:49:47Z</time></trkpt><trkpt lat="41.41223461920997" lon="1.0272528959833898"><ele>513.0</ele><time>2026-05-04T14:49:48Z</time></trkpt><trkpt lat="41.412152241204936" lon="1.0273649857812976"><ele>513.0</ele><time>2026-05-04T14:49:49Z</time></trkpt><trkpt lat="41.41206786991293" lon="1.0274773536658064"><ele>513.0</ele><time>2026-05-04T14:49:50Z</time></trkpt><trkpt lat="41.41198270801979" lon="1.0275864405704533"><ele>512.0</ele><time>2026-05-04T14:49:51Z</time></trkpt><trkpt lat="41.41189913349088" lon="1.0276943483870156"><ele>511.0</ele><time>2026-05-04T14:49:52Z</time></trkpt><trkpt lat="41.411813151826436" lon="1.027802574019493"><ele>510.0</ele><time>2026-05-04T14:49:53Z</time></trkpt><trkpt lat="41.411726224186616" lon="1.0279137036973487"><ele>509.0</ele><time>2026-05-04T14:49:54Z</time></trkpt><trkpt lat="41.411645436280416" lon="1.0280238991819477"><ele>509.0</ele><time>2026-05-04T14:49:55Z</time></trkpt><trkpt lat="41.41156380908591" lon="1.0281355903402014"><ele>509.0</ele><time>2026-05-04T14:49:56Z</time></trkpt><trkpt lat="41.41148393244435" lon="1.0282513806882039"><ele>509.0</ele><time>2026-05-04T14:49:57Z</time></trkpt><trkpt lat="41.41140596933826" lon="1.0283651979641437"><ele>509.0</ele><time>2026-05-04T14:49:58Z</time></trkpt><trkpt lat="41.411331414614075" lon="1.0284858595256685"><ele>509.0</ele><time>2026-05-04T14:49:59Z</time></trkpt><trkpt lat="41.411261822083084" lon="1.0286115406510334"><ele>509.0</ele><time>2026-05-04T14:50:00Z</time></trkpt><trkpt lat="41.411194372211426" lon="1.028741318727591"><ele>509.0</ele><time>2026-05-04T14:50:01Z</time></trkpt><trkpt lat="41.411129080322205" lon="1.0288703847182783"><ele>509.0</ele><time>2026-05-04T14:50:02Z</time></trkpt><trkpt lat="41.41106397086504" lon="1.0290018640194116"><ele>509.0</ele><time>2026-05-04T14:50:03Z</time></trkpt><trkpt lat="41.41099680974061" lon="1.0291310445318442"><ele>509.0</ele><time>2026-05-04T14:50:04Z</time></trkpt><trkpt lat="41.4109283842877" lon="1.029265629416546"><ele>509.0</ele><time>2026-05-04T14:50:05Z</time></trkpt><trkpt lat="41.410868003159926" lon="1.0294008471045826"><ele>509.0</ele><time>2026-05-04T14:50:06Z</time></trkpt><trkpt lat="41.41080021368464" lon="1.0295354341025766"><ele>509.0</ele><time>2026-05-04T14:50:07.001Z</time></trkpt><trkpt lat="41.41073512911683" lon="1.0296654916912793"><ele>509.0</ele><time>2026-05-04T14:50:08.001Z</time></trkpt><trkpt lat="41.41066803605915" lon="1.0297991379230265"><ele>509.0</ele><time>2026-05-04T14:50:09.001Z</time></trkpt><trkpt lat="41.41060099779032" lon="1.0299330093680772"><ele>509.0</ele><time>2026-05-04T14:50:10.001Z</time></trkpt><trkpt lat="41.41053542206734" lon="1.0300686194071793"><ele>508.75</ele><time>2026-05-04T14:50:11.001Z</time></trkpt><trkpt lat="41.41047031191715" lon="1.03019842417425"><ele>508.5</ele><time>2026-05-04T14:50:12.001Z</time></trkpt><trkpt lat="41.41041855178242" lon="1.030328855397783"><ele>508.25</ele><time>2026-05-04T14:50:13.001Z</time></trkpt><trkpt lat="41.41036267433061" lon="1.0304568179441707"><ele>508.0</ele><time>2026-05-04T14:50:14.001Z</time></trkpt><trkpt lat="41.410282654588435" lon="1.0305974070333963"><ele>508.0</ele><time>2026-05-04T14:50:15.001Z</time></trkpt><trkpt lat="41.410212807985204" lon="1.0307206311977548"><ele>508.0</ele><time>2026-05-04T14:50:16.001Z</time></trkpt><trkpt lat="41.41016175719939" lon="1.0308563003028073"><ele>508.0</ele><time>2026-05-04T14:50:17.001Z</time></trkpt><trkpt lat="41.410068115328755" lon="1.0309683003273749"><ele>508.0</ele><time>2026-05-04T14:50:18.001Z</time></trkpt><trkpt lat="41.410003977808586" lon="1.0310913473307655"><ele>507.25</ele><time>2026-05-04T14:50:19.001Z</time></trkpt><trkpt lat="41.40993383542435" lon="1.0312132854436304"><ele>506.5</ele><time>2026-05-04T14:50:20.001Z</time></trkpt><trkpt lat="41.40986297579235" lon="1.0313370320787132"><ele>505.75</ele><time>2026-05-04T14:50:21.001Z</time></trkpt><trkpt lat="41.40979328599759" lon="1.0314562562636764"><ele>505.0</ele><time>2026-05-04T14:50:22.001Z</time></trkpt><trkpt lat="41.40972178693058" lon="1.0315769862303632"><ele>504.2</ele><time>2026-05-04T14:50:23.001Z</time></trkpt><trkpt lat="41.40965463950603" lon="1.0316948401410388"><ele>503.4</ele><time>2026-05-04T14:50:24.001Z</time></trkpt><trkpt lat="41.409580987934554" lon="1.0318156412196646"><ele>502.6</ele><time>2026-05-04T14:50:25.001Z</time></trkpt><trkpt lat="41.409520029579866" lon="1.0319202091884414"><ele>501.8</ele><time>2026-05-04T14:50:26.001Z</time></trkpt><trkpt lat="41.40946888843433" lon="1.0320045894119003"><ele>501.0</ele><time>2026-05-04T14:50:27.001Z</time></trkpt><trkpt lat="41.40935929660014" lon="1.0321556597329589"><ele>501.0</ele><time>2026-05-04T14:50:28.001Z</time></trkpt><trkpt lat="41.409285861423825" lon="1.032269543247741"><ele>501.0</ele><time>2026-05-04T14:50:29.001Z</time></trkpt><trkpt lat="41.40921069162528" lon="1.0323856095635997"><ele>501.0</ele><time>2026-05-04T14:50:30.001Z</time></trkpt><trkpt lat="41.4091379966722" lon="1.0324976010114617"><ele>501.0</ele><time>2026-05-04T14:50:31.001Z</time></trkpt><trkpt lat="41.40906460390892" lon="1.032613849439081"><ele>501.4</ele><time>2026-05-04T14:50:32.001Z</time></trkpt><trkpt lat="41.40898653938624" lon="1.0327229535441107"><ele>501.8</ele><time>2026-05-04T14:50:33.001Z</time></trkpt><trkpt lat="41.40891670861718" lon="1.0328400240113733"><ele>502.19999999999993</ele><time>2026-05-04T14:50:34.001Z</time></trkpt><trkpt lat="41.40883954656053" lon="1.0329497536904044"><ele>502.59999999999997</ele><time>2026-05-04T14:50:35.001Z</time></trkpt><trkpt lat="41.408772952237044" lon="1.0330585492383177"><ele>503.0</ele><time>2026-05-04T14:50:36.001Z</time></trkpt><trkpt lat="41.40870224247773" lon="1.0331696330146207"><ele>502.75</ele><time>2026-05-04T14:50:37.001Z</time></trkpt><trkpt lat="41.4086310619302" lon="1.0332838876464998"><ele>502.5</ele><time>2026-05-04T14:50:38.001Z</time></trkpt><trkpt lat="41.408557644731324" lon="1.0334020333738771"><ele>502.25</ele><time>2026-05-04T14:50:39.001Z</time></trkpt><trkpt lat="41.40848388611321" lon="1.0335378246950546"><ele>502.0</ele><time>2026-05-04T14:50:40.001Z</time></trkpt><trkpt lat="41.408413590354584" lon="1.0336588203812254"><ele>502.0</ele><time>2026-05-04T14:50:41.001Z</time></trkpt><trkpt lat="41.40834044140326" lon="1.0337753223181172"><ele>502.0</ele><time>2026-05-04T14:50:42.001Z</time></trkpt><trkpt lat="41.408270932181146" lon="1.0338947968895456"><ele>502.0</ele><time>2026-05-04T14:50:43.001Z</time></trkpt><trkpt lat="41.408203138603625" lon="1.0340179563310818"><ele>502.0</ele><time>2026-05-04T14:50:44.001Z</time></trkpt><trkpt lat="41.40813579662658" lon="1.0341411469004824"><ele>502.25</ele><time>2026-05-04T14:50:45.001Z</time></trkpt><trkpt lat="41.40806769703733" lon="1.0342632805820855"><ele>502.5</ele><time>2026-05-04T14:50:46.001Z</time></trkpt><trkpt lat="41.40800092375768" lon="1.0343853615873544"><ele>502.75</ele><time>2026-05-04T14:50:47.001Z</time></trkpt><trkpt lat="41.40793538590318" lon="1.034511791600672"><ele>503.0</ele><time>2026-05-04T14:50:48.001Z</time></trkpt><trkpt lat="41.40786897256312" lon="1.0346360877518634"><ele>502.25</ele><time>2026-05-04T14:50:49.001Z</time></trkpt><trkpt lat="41.407802567590046" lon="1.0347654570949651"><ele>501.5</ele><time>2026-05-04T14:50:50.001Z</time></trkpt><trkpt lat="41.40773901995926" lon="1.0348952655296042"><ele>500.75</ele><time>2026-05-04T14:50:51.001Z</time></trkpt><trkpt lat="41.40767769532975" lon="1.0350254866331279"><ele>500.0</ele><time>2026-05-04T14:50:52.001Z</time></trkpt><trkpt lat="41.40761587925199" lon="1.0351563211834183"><ele>500.0</ele><time>2026-05-04T14:50:53.001Z</time></trkpt><trkpt lat="41.40755504225579" lon="1.0352893644720327"><ele>500.0</ele><time>2026-05-04T14:50:54.001Z</time></trkpt><trkpt lat="41.40749235895295" lon="1.0354201981861952"><ele>500.0</ele><time>2026-05-04T14:50:55.001Z</time></trkpt><trkpt lat="41.40743149724765" lon="1.0355526200552418"><ele>500.0</ele><time>2026-05-04T14:50:56.001Z</time></trkpt><trkpt lat="41.40737383502669" lon="1.0356864396804768"><ele>500.0</ele><time>2026-05-04T14:50:57.001Z</time></trkpt><trkpt lat="41.40731694990847" lon="1.035823450739581"><ele>500.0</ele><time>2026-05-04T14:50:58.001Z</time></trkpt><trkpt lat="41.407263985644434" lon="1.0359607685087644"><ele>500.0</ele><time>2026-05-04T14:50:59.001Z</time></trkpt><trkpt lat="41.407209004911095" lon="1.0360975250045872"><ele>500.0</ele><time>2026-05-04T14:51:00.001Z</time></trkpt><trkpt lat="41.407155242792" lon="1.036234037426952"><ele>499.25</ele><time>2026-05-04T14:51:01.001Z</time></trkpt><trkpt lat="41.40710208022974" lon="1.03637118812019"><ele>498.5</ele><time>2026-05-04T14:51:02.001Z</time></trkpt><trkpt lat="41.407052817396305" lon="1.0365098871737124"><ele>497.75</ele><time>2026-05-04T14:51:03.001Z</time></trkpt><trkpt lat="41.40699889476805" lon="1.0366468903352226"><ele>497.0</ele><time>2026-05-04T14:51:04.001Z</time></trkpt><trkpt lat="41.40694700522772" lon="1.0367848777757922"><ele>497.0</ele><time>2026-05-04T14:51:05.001Z</time></trkpt><trkpt lat="41.40689390505904" lon="1.036921504867962"><ele>497.0</ele><time>2026-05-04T14:51:06.001Z</time></trkpt><trkpt lat="41.40683929731813" lon="1.0370570104842323"><ele>497.0</ele><time>2026-05-04T14:51:07.001Z</time></trkpt><trkpt lat="41.40678522610476" lon="1.0371929171233503"><ele>497.0</ele><time>2026-05-04T14:51:08.001Z</time></trkpt><trkpt lat="41.40673271677048" lon="1.0373334850483173"><ele>498.5</ele><time>2026-05-04T14:51:09.001Z</time></trkpt><trkpt lat="41.40668231302921" lon="1.03747231278034"><ele>500.0</ele><time>2026-05-04T14:51:10.001Z</time></trkpt><trkpt lat="41.406629675230505" lon="1.037610641555105"><ele>501.5</ele><time>2026-05-04T14:51:11.001Z</time></trkpt><trkpt lat="41.40657946956967" lon="1.0377499622016602"><ele>503.0</ele><time>2026-05-04T14:51:12.001Z</time></trkpt><trkpt lat="41.40652551792183" lon="1.0378888480818835"><ele>503.0</ele><time>2026-05-04T14:51:13.001Z</time></trkpt><trkpt lat="41.406472594032145" lon="1.0380293180576405"><ele>503.0</ele><time>2026-05-04T14:51:14.001Z</time></trkpt><trkpt lat="41.40642320816841" lon="1.038168124022906"><ele>503.0</ele><time>2026-05-04T14:51:15.001Z</time></trkpt><trkpt lat="41.406371906595844" lon="1.038305469270013"><ele>503.0</ele><time>2026-05-04T14:51:16.001Z</time></trkpt><trkpt lat="41.40631736550044" lon="1.0384453719101816"><ele>499.75</ele><time>2026-05-04T14:51:17.001Z</time></trkpt><trkpt lat="41.406264364973126" lon="1.0385834011006847"><ele>496.5</ele><time>2026-05-04T14:51:18.001Z</time></trkpt><trkpt lat="41.40621164290001" lon="1.0387196296471544"><ele>493.25</ele><time>2026-05-04T14:51:19.001Z</time></trkpt><trkpt lat="41.406160355207454" lon="1.0388563582452432"><ele>490.0</ele><time>2026-05-04T14:51:20.001Z</time></trkpt><trkpt lat="41.406110485635914" lon="1.0389955318495159"><ele>490.0</ele><time>2026-05-04T14:51:21.001Z</time></trkpt><trkpt lat="41.406060546117985" lon="1.039131708682531"><ele>490.0</ele><time>2026-05-04T14:51:22.001Z</time></trkpt><trkpt lat="41.406006701595494" lon="1.0392714073488836"><ele>490.0</ele><time>2026-05-04T14:51:23.001Z</time></trkpt><trkpt lat="41.405955209754275" lon="1.039406441456257"><ele>490.0</ele><time>2026-05-04T14:51:24.001Z</time></trkpt><trkpt lat="41.40590185086611" lon="1.0395407314376048"><ele>490.0</ele><time>2026-05-04T14:51:25.001Z</time></trkpt><trkpt lat="41.405853343968715" lon="1.0396753302444104"><ele>490.0</ele><time>2026-05-04T14:51:26.001Z</time></trkpt><trkpt lat="41.405802586295046" lon="1.039812191561892"><ele>490.0</ele><time>2026-05-04T14:51:27.002Z</time></trkpt><trkpt lat="41.40575134012253" lon="1.0399477122148657"><ele>490.0</ele><time>2026-05-04T14:51:28.002Z</time></trkpt><trkpt lat="41.40569943043832" lon="1.0400848783255063"><ele>489.75</ele><time>2026-05-04T14:51:29.002Z</time></trkpt><trkpt lat="41.40564748272385" lon="1.040219968322929"><ele>489.5</ele><time>2026-05-04T14:51:30Z</time></trkpt><trkpt lat="41.40559470125322" lon="1.0403581092529948"><ele>489.25</ele><time>2026-05-04T14:51:31Z</time></trkpt><trkpt lat="41.40554337570383" lon="1.0404951014120256"><ele>489.0</ele><time>2026-05-04T14:51:32Z</time></trkpt><trkpt lat="41.405490529455044" lon="1.0406335593500229"><ele>489.0</ele><time>2026-05-04T14:51:33Z</time></trkpt><trkpt lat="41.40543843867503" lon="1.0407718196474993"><ele>489.0</ele><time>2026-05-04T14:51:34Z</time></trkpt><trkpt lat="41.40538706838085" lon="1.0409116446028224"><ele>489.0</ele><time>2026-05-04T14:51:35Z</time></trkpt><trkpt lat="41.405338128603375" lon="1.041051636086177"><ele>489.0</ele><time>2026-05-04T14:51:36Z</time></trkpt><trkpt lat="41.405285757720804" lon="1.0411910241711202"><ele>489.0</ele><time>2026-05-04T14:51:37Z</time></trkpt><trkpt lat="41.40522785375645" lon="1.0413270588064047"><ele>489.0</ele><time>2026-05-04T14:51:38Z</time></trkpt><trkpt lat="41.405170027370275" lon="1.0414621089740763"><ele>489.0</ele><time>2026-05-04T14:51:39Z</time></trkpt><trkpt lat="41.40510864459328" lon="1.0415967131690202"><ele>489.0</ele><time>2026-05-04T14:51:40Z</time></trkpt><trkpt lat="41.405051289609645" lon="1.0417281300674004"><ele>489.75</ele><time>2026-05-04T14:51:41Z</time></trkpt><trkpt lat="41.40498943238525" lon="1.0418605607596494"><ele>490.5</ele><time>2026-05-04T14:51:42Z</time></trkpt><trkpt lat="41.40492355490866" lon="1.0419856270314032"><ele>491.25</ele><time>2026-05-04T14:51:43Z</time></trkpt><trkpt lat="41.40485472980213" lon="1.0421085348833943"><ele>492.0</ele><time>2026-05-04T14:51:44Z</time></trkpt><trkpt lat="41.40478518982206" lon="1.0422278057447683"><ele>492.0</ele><time>2026-05-04T14:51:45Z</time></trkpt><trkpt lat="41.40472588258968" lon="1.0423494799933428"><ele>492.00000000000006</ele><time>2026-05-04T14:51:46Z</time></trkpt><trkpt lat="41.40466782767629" lon="1.042423173219957"><ele>492.00000000000006</ele><time>2026-05-04T14:51:47Z</time></trkpt><trkpt lat="41.40457343451835" lon="1.042565995427407"><ele>492.0</ele><time>2026-05-04T14:51:48Z</time></trkpt><trkpt lat="41.40450087178849" lon="1.0426750522840333"><ele>492.0</ele><time>2026-05-04T14:51:49Z</time></trkpt><trkpt lat="41.40443308546209" lon="1.0427821503989108"><ele>493.0</ele><time>2026-05-04T14:51:50Z</time></trkpt><trkpt lat="41.404365837236256" lon="1.042887411142673"><ele>494.00000000000006</ele><time>2026-05-04T14:51:51Z</time></trkpt><trkpt lat="41.40429752865517" lon="1.0429907665388043"><ele>495.00000000000006</ele><time>2026-05-04T14:51:52Z</time></trkpt><trkpt lat="41.40423288865326" lon="1.0430940181800057"><ele>496.0</ele><time>2026-05-04T14:51:53Z</time></trkpt><trkpt lat="41.40417432925059" lon="1.043195761140272"><ele>497.0</ele><time>2026-05-04T14:51:54Z</time></trkpt><trkpt lat="41.40411913141339" lon="1.0433012003112268"><ele>499.40000000000003</ele><time>2026-05-04T14:51:55Z</time></trkpt><trkpt lat="41.4040641349943" lon="1.04341002432513"><ele>501.80000000000007</ele><time>2026-05-04T14:51:56Z</time></trkpt><trkpt lat="41.40401828350379" lon="1.0435155792062576"><ele>504.2</ele><time>2026-05-04T14:51:57Z</time></trkpt><trkpt lat="41.403971492727315" lon="1.0436313197351144"><ele>506.6</ele><time>2026-05-04T14:51:58Z</time></trkpt><trkpt lat="41.40392899713859" lon="1.0437485644913473"><ele>509.0</ele><time>2026-05-04T14:51:59Z</time></trkpt><trkpt lat="41.403891311843395" lon="1.0438669685743813"><ele>509.0</ele><time>2026-05-04T14:52:00Z</time></trkpt><trkpt lat="41.40384828638735" lon="1.0439827845580816"><ele>509.0</ele><time>2026-05-04T14:52:01Z</time></trkpt><trkpt lat="41.40381389905523" lon="1.0441055140741948"><ele>509.0</ele><time>2026-05-04T14:52:02Z</time></trkpt><trkpt lat="41.40376995301479" lon="1.0442256873088238"><ele>509.0</ele><time>2026-05-04T14:52:03Z</time></trkpt><trkpt lat="41.40373816181916" lon="1.0443518518081725"><ele>509.0</ele><time>2026-05-04T14:52:04Z</time></trkpt><trkpt lat="41.40370706549822" lon="1.0444785990510155"><ele>507.2</ele><time>2026-05-04T14:52:05Z</time></trkpt><trkpt lat="41.403676569495175" lon="1.044606542516671"><ele>505.4</ele><time>2026-05-04T14:52:06Z</time></trkpt><trkpt lat="41.403655157370025" lon="1.0447454114418928"><ele>503.6</ele><time>2026-05-04T14:52:07Z</time></trkpt><trkpt lat="41.40363889438791" lon="1.0448888080555367"><ele>501.8</ele><time>2026-05-04T14:52:08Z</time></trkpt><trkpt lat="41.40362258189132" lon="1.0450321734770682"><ele>500.0</ele><time>2026-05-04T14:52:09Z</time></trkpt><trkpt lat="41.403604520091854" lon="1.0451796658258607"><ele>499.75</ele><time>2026-05-04T14:52:10.001Z</time></trkpt><trkpt lat="41.40359683080667" lon="1.0453285315302563"><ele>499.5</ele><time>2026-05-04T14:52:11.001Z</time></trkpt><trkpt lat="41.40359300333755" lon="1.0454916828293113"><ele>499.25</ele><time>2026-05-04T14:52:12.001Z</time></trkpt><trkpt lat="41.40357573630161" lon="1.0456442124378504"><ele>499.0</ele><time>2026-05-04T14:52:13.001Z</time></trkpt><trkpt lat="41.403571288752644" lon="1.045805454720357"><ele>499.0</ele><time>2026-05-04T14:52:14.001Z</time></trkpt><trkpt lat="41.40356325432638" lon="1.0459654357045416"><ele>499.0</ele><time>2026-05-04T14:52:15.001Z</time></trkpt><trkpt lat="41.40355913329132" lon="1.0461211050290535"><ele>499.0</ele><time>2026-05-04T14:52:16.001Z</time></trkpt><trkpt lat="41.40355227468558" lon="1.0462630592305764"><ele>499.0</ele><time>2026-05-04T14:52:17.001Z</time></trkpt><trkpt lat="41.40354540534425" lon="1.0464057651002932"><ele>499.0</ele><time>2026-05-04T14:52:18.001Z</time></trkpt><trkpt lat="41.40354131805617" lon="1.0465486567002256"><ele>499.0</ele><time>2026-05-04T14:52:19.001Z</time></trkpt><trkpt lat="41.40353446839436" lon="1.0466978770090234"><ele>499.0</ele><time>2026-05-04T14:52:20.001Z</time></trkpt><trkpt lat="41.40353054895492" lon="1.0468429793612748"><ele>499.0</ele><time>2026-05-04T14:52:21.001Z</time></trkpt><trkpt lat="41.40352517708664" lon="1.0469996794512981"><ele>499.0</ele><time>2026-05-04T14:52:22.001Z</time></trkpt><trkpt lat="41.40351826416425" lon="1.0471645276838386"><ele>498.75</ele><time>2026-05-04T14:52:23.001Z</time></trkpt><trkpt lat="41.403508562589224" lon="1.0473211189129479"><ele>498.5</ele><time>2026-05-04T14:52:24.001Z</time></trkpt><trkpt lat="41.40350496707669" lon="1.0474745809537271"><ele>498.25</ele><time>2026-05-04T14:52:25.001Z</time></trkpt><trkpt lat="41.403502305242085" lon="1.0476285303664064"><ele>498.0</ele><time>2026-05-04T14:52:26.001Z</time></trkpt><trkpt lat="41.403497892092915" lon="1.0477785281123988"><ele>497.75</ele><time>2026-05-04T14:52:27.001Z</time></trkpt><trkpt lat="41.403490668119886" lon="1.047932166363813"><ele>497.5</ele><time>2026-05-04T14:52:28.001Z</time></trkpt><trkpt lat="41.403480343661464" lon="1.048081846439868"><ele>497.25</ele><time>2026-05-04T14:52:29.001Z</time></trkpt><trkpt lat="41.40347362532784" lon="1.0482343643608383"><ele>497.0</ele><time>2026-05-04T14:52:30.001Z</time></trkpt><trkpt lat="41.40346725836187" lon="1.0483862479750414"><ele>496.5</ele><time>2026-05-04T14:52:31.001Z</time></trkpt><trkpt lat="41.403459591082076" lon="1.0485381658701307"><ele>496.0</ele><time>2026-05-04T14:52:32.001Z</time></trkpt><trkpt lat="41.40345370208217" lon="1.0486895310907673"><ele>495.5</ele><time>2026-05-04T14:52:33.001Z</time></trkpt><trkpt lat="41.40344845944895" lon="1.0488444918351205"><ele>495.0</ele><time>2026-05-04T14:52:34.001Z</time></trkpt><trkpt lat="41.40344281208035" lon="1.0489987154433837"><ele>494.75</ele><time>2026-05-04T14:52:35.001Z</time></trkpt><trkpt lat="41.40343483165632" lon="1.0491533888194662"><ele>494.5</ele><time>2026-05-04T14:52:36.001Z</time></trkpt><trkpt lat="41.403423143705346" lon="1.0493088726444204"><ele>494.25</ele><time>2026-05-04T14:52:37.001Z</time></trkpt><trkpt lat="41.403413112944875" lon="1.0494679956593633"><ele>494.0</ele><time>2026-05-04T14:52:38.001Z</time></trkpt><trkpt lat="41.403401892465645" lon="1.0496254296902423"><ele>494.0</ele><time>2026-05-04T14:52:39.001Z</time></trkpt><trkpt lat="41.40338763733521" lon="1.0497797105794857"><ele>494.0</ele><time>2026-05-04T14:52:40.001Z</time></trkpt><trkpt lat="41.403372244927205" lon="1.049936188421317"><ele>494.0</ele><time>2026-05-04T14:52:41.001Z</time></trkpt><trkpt lat="41.40335044241836" lon="1.0500908821988417"><ele>494.0</ele><time>2026-05-04T14:52:42.001Z</time></trkpt><trkpt lat="41.40333293093144" lon="1.0502460782114709"><ele>493.75</ele><time>2026-05-04T14:52:43.001Z</time></trkpt><trkpt lat="41.403310074371205" lon="1.0503985293402385"><ele>493.5</ele><time>2026-05-04T14:52:44.001Z</time></trkpt><trkpt lat="41.40328638776686" lon="1.0505520986204477"><ele>493.25</ele><time>2026-05-04T14:52:45.001Z</time></trkpt><trkpt lat="41.40326382627967" lon="1.0507048094593037"><ele>493.0</ele><time>2026-05-04T14:52:46.001Z</time></trkpt><trkpt lat="41.403245331522506" lon="1.0508581855152068"><ele>492.25</ele><time>2026-05-04T14:52:47.001Z</time></trkpt><trkpt lat="41.40322432184852" lon="1.0510112927655721"><ele>491.5</ele><time>2026-05-04T14:52:48.001Z</time></trkpt><trkpt lat="41.40320398685506" lon="1.0511649932162388"><ele>490.75</ele><time>2026-05-04T14:52:49.001Z</time></trkpt><trkpt lat="41.403185808283794" lon="1.0513199175946475"><ele>490.0</ele><time>2026-05-04T14:52:50.001Z</time></trkpt><trkpt lat="41.403161553331934" lon="1.0514699502962865"><ele>489.5</ele><time>2026-05-04T14:52:51.001Z</time></trkpt><trkpt lat="41.40313947804406" lon="1.0516257811573675"><ele>489.0</ele><time>2026-05-04T14:52:52.001Z</time></trkpt><trkpt lat="41.403118996498094" lon="1.0517805565939462"><ele>488.5</ele><time>2026-05-04T14:52:53.001Z</time></trkpt><trkpt lat="41.40309431483001" lon="1.0519342143299568"><ele>488.0</ele><time>2026-05-04T14:52:54.001Z</time></trkpt><trkpt lat="41.40307367240243" lon="1.0520867166276802"><ele>488.0</ele><time>2026-05-04T14:52:55.001Z</time></trkpt><trkpt lat="41.40305338425074" lon="1.0522392947652615"><ele>488.0</ele><time>2026-05-04T14:52:56.001Z</time></trkpt><trkpt lat="41.403030816738614" lon="1.052392756292836"><ele>488.0</ele><time>2026-05-04T14:52:57.001Z</time></trkpt><trkpt lat="41.403012660598336" lon="1.052548062667845"><ele>488.0</ele><time>2026-05-04T14:52:58.001Z</time></trkpt><trkpt lat="41.40299433958536" lon="1.0527034697641293"><ele>486.75</ele><time>2026-05-04T14:52:59.001Z</time></trkpt><trkpt lat="41.40297630179199" lon="1.052858403503031"><ele>485.5</ele><time>2026-05-04T14:53:00.001Z</time></trkpt><trkpt lat="41.40295426566177" lon="1.0530146974660561"><ele>484.25</ele><time>2026-05-04T14:53:01.001Z</time></trkpt><trkpt lat="41.402933696698966" lon="1.0531687113473585"><ele>483.0</ele><time>2026-05-04T14:53:02.001Z</time></trkpt><trkpt lat="41.40291158814839" lon="1.0533193319726788"><ele>482.75</ele><time>2026-05-04T14:53:03.001Z</time></trkpt><trkpt lat="41.40289225075242" lon="1.053473315179997"><ele>482.5</ele><time>2026-05-04T14:53:04.001Z</time></trkpt><trkpt lat="41.40287239367191" lon="1.053626102311948"><ele>482.25</ele><time>2026-05-04T14:53:05.001Z</time></trkpt><trkpt lat="41.40285092420426" lon="1.0537760017487097"><ele>482.0</ele><time>2026-05-04T14:53:06.001Z</time></trkpt><trkpt lat="41.402828557092064" lon="1.0539264031966464"><ele>482.0</ele><time>2026-05-04T14:53:07.001Z</time></trkpt><trkpt lat="41.402806972421196" lon="1.0540749855443157"><ele>482.00000000000006</ele><time>2026-05-04T14:53:08.001Z</time></trkpt><trkpt lat="41.40278733209745" lon="1.0542194232801623"><ele>482.00000000000006</ele><time>2026-05-04T14:53:09.001Z</time></trkpt><trkpt lat="41.40276337589083" lon="1.0543671830989463"><ele>482.0</ele><time>2026-05-04T14:53:10.001Z</time></trkpt><trkpt lat="41.40274285280237" lon="1.0545102457542264"><ele>482.0</ele><time>2026-05-04T14:53:11.001Z</time></trkpt><trkpt lat="41.402729181330656" lon="1.054659930860781"><ele>483.0</ele><time>2026-05-04T14:53:12.001Z</time></trkpt><trkpt lat="41.40271052334883" lon="1.0548043554318256"><ele>484.00000000000006</ele><time>2026-05-04T14:53:13.001Z</time></trkpt><trkpt lat="41.40269056204515" lon="1.054951124621011"><ele>485.00000000000006</ele><time>2026-05-04T14:53:14.001Z</time></trkpt><trkpt lat="41.40267005394317" lon="1.0550960767016635"><ele>486.0</ele><time>2026-05-04T14:53:15.001Z</time></trkpt><trkpt lat="41.40265042362652" lon="1.0552422099219414"><ele>487.0</ele><time>2026-05-04T14:53:16.001Z</time></trkpt><trkpt lat="41.40262601025465" lon="1.05538677810292"><ele>487.0</ele><time>2026-05-04T14:53:17.001Z</time></trkpt><trkpt lat="41.4026195051886" lon="1.0555300088386392"><ele>487.0</ele><time>2026-05-04T14:53:18.001Z</time></trkpt><trkpt lat="41.40260613835621" lon="1.0556871345688188"><ele>487.0</ele><time>2026-05-04T14:53:19.001Z</time></trkpt><trkpt lat="41.40260108286888" lon="1.0558409780718594"><ele>487.0</ele><time>2026-05-04T14:53:20.001Z</time></trkpt><trkpt lat="41.40260149455914" lon="1.0559973609618387"><ele>487.0</ele><time>2026-05-04T14:53:21.001Z</time></trkpt><trkpt lat="41.402607860906976" lon="1.056155748163705"><ele>487.0</ele><time>2026-05-04T14:53:22.001Z</time></trkpt><trkpt lat="41.40261749486139" lon="1.0563208786800669"><ele>487.0</ele><time>2026-05-04T14:53:23.001Z</time></trkpt><trkpt lat="41.40262882944596" lon="1.0564800067001165"><ele>487.0</ele><time>2026-05-04T14:53:24.001Z</time></trkpt><trkpt lat="41.40263698797644" lon="1.0566464940194815"><ele>485.5</ele><time>2026-05-04T14:53:25.001Z</time></trkpt><trkpt lat="41.402645993912046" lon="1.0568148879534822"><ele>484.0</ele><time>2026-05-04T14:53:26.001Z</time></trkpt><trkpt lat="41.402654202996075" lon="1.0569749919938474"><ele>482.5</ele><time>2026-05-04T14:53:27.001Z</time></trkpt><trkpt lat="41.40266235894053" lon="1.057133972604046"><ele>481.0</ele><time>2026-05-04T14:53:28.001Z</time></trkpt><trkpt lat="41.40267179173486" lon="1.057294090360578"><ele>480.5</ele><time>2026-05-04T14:53:29.001Z</time></trkpt><trkpt lat="41.4026762647459" lon="1.0574557894725962"><ele>480.0</ele><time>2026-05-04T14:53:30.001Z</time></trkpt><trkpt lat="41.4026793050486" lon="1.0576186497665356"><ele>479.5</ele><time>2026-05-04T14:53:31.001Z</time></trkpt><trkpt lat="41.40268413435546" lon="1.0577802174492854"><ele>479.0</ele><time>2026-05-04T14:53:32.001Z</time></trkpt><trkpt lat="41.402687622465315" lon="1.057939485669409"><ele>479.0</ele><time>2026-05-04T14:53:33.002Z</time></trkpt><trkpt lat="41.402690894956166" lon="1.0580958235822693"><ele>479.0</ele><time>2026-05-04T14:53:34.002Z</time></trkpt><trkpt lat="41.40269112824916" lon="1.0582587145144238"><ele>479.0</ele><time>2026-05-04T14:53:35.002Z</time></trkpt><trkpt lat="41.402688610776146" lon="1.0584214135880128"><ele>479.0</ele><time>2026-05-04T14:53:36Z</time></trkpt><trkpt lat="41.402691012012" lon="1.0585808237483294"><ele>479.5</ele><time>2026-05-04T14:53:37Z</time></trkpt><trkpt lat="41.402687042752746" lon="1.0587379116630669"><ele>480.0</ele><time>2026-05-04T14:53:38Z</time></trkpt><trkpt lat="41.40267504414026" lon="1.0588912000186805"><ele>480.5</ele><time>2026-05-04T14:53:39Z</time></trkpt><trkpt lat="41.402665541372606" lon="1.0590483552428018"><ele>481.0</ele><time>2026-05-04T14:53:40Z</time></trkpt><trkpt lat="41.402661782174235" lon="1.059199777447141"><ele>481.5</ele><time>2026-05-04T14:53:41Z</time></trkpt><trkpt lat="41.4026563422787" lon="1.059351897806595"><ele>482.0</ele><time>2026-05-04T14:53:42Z</time></trkpt><trkpt lat="41.402650661500246" lon="1.059504447226533"><ele>482.5</ele><time>2026-05-04T14:53:43Z</time></trkpt><trkpt lat="41.40264328992339" lon="1.0596561555945807"><ele>483.0</ele><time>2026-05-04T14:53:44Z</time></trkpt><trkpt lat="41.40263190929005" lon="1.0598049472588855"><ele>483.59999999999997</ele><time>2026-05-04T14:53:45Z</time></trkpt><trkpt lat="41.402624233349066" lon="1.0599568527199306"><ele>484.19999999999993</ele><time>2026-05-04T14:53:46Z</time></trkpt><trkpt lat="41.40260790601747" lon="1.060107745919598"><ele>484.8</ele><time>2026-05-04T14:53:47Z</time></trkpt><trkpt lat="41.40260156461532" lon="1.0602427717879392"><ele>485.4</ele><time>2026-05-04T14:53:48Z</time></trkpt><trkpt lat="41.40259160459398" lon="1.0603911465794926"><ele>486.0</ele><time>2026-05-04T14:53:49Z</time></trkpt><trkpt lat="41.402575126902164" lon="1.0605374683283029"><ele>486.0</ele><time>2026-05-04T14:53:50Z</time></trkpt><trkpt lat="41.40255602573356" lon="1.060693025885564"><ele>486.0</ele><time>2026-05-04T14:53:51Z</time></trkpt><trkpt lat="41.40253586589237" lon="1.0608276785659074"><ele>486.0</ele><time>2026-05-04T14:53:52Z</time></trkpt><trkpt lat="41.402515418876746" lon="1.0609723580504864"><ele>486.0</ele><time>2026-05-04T14:53:53Z</time></trkpt><trkpt lat="41.4024971448219" lon="1.061115524580176"><ele>486.0</ele><time>2026-05-04T14:53:54Z</time></trkpt><trkpt lat="41.40247851477704" lon="1.0612625822304258"><ele>486.0</ele><time>2026-05-04T14:53:55Z</time></trkpt><trkpt lat="41.40245980155932" lon="1.0614055543153615"><ele>486.0</ele><time>2026-05-04T14:53:56Z</time></trkpt><trkpt lat="41.402439446222566" lon="1.0615572539390723"><ele>486.0</ele><time>2026-05-04T14:53:57Z</time></trkpt><trkpt lat="41.40242537884882" lon="1.0617023695464267"><ele>486.0</ele><time>2026-05-04T14:53:58Z</time></trkpt><trkpt lat="41.40241106556064" lon="1.061854517850041"><ele>486.0</ele><time>2026-05-04T14:53:59Z</time></trkpt><trkpt lat="41.40239936773138" lon="1.062008994954889"><ele>486.0</ele><time>2026-05-04T14:54:00Z</time></trkpt><trkpt lat="41.40238772115087" lon="1.0621606907745147"><ele>486.0</ele><time>2026-05-04T14:54:01Z</time></trkpt><trkpt lat="41.40237636310531" lon="1.0623126095898034"><ele>486.0</ele><time>2026-05-04T14:54:02Z</time></trkpt><trkpt lat="41.402364672344824" lon="1.0624661727803515"><ele>486.0</ele><time>2026-05-04T14:54:03Z</time></trkpt><trkpt lat="41.402355260532275" lon="1.0626228925286754"><ele>486.0</ele><time>2026-05-04T14:54:04Z</time></trkpt><trkpt lat="41.402346804903615" lon="1.0627796382433206"><ele>486.0</ele><time>2026-05-04T14:54:05Z</time></trkpt><trkpt lat="41.40233549681937" lon="1.0629348616034164"><ele>486.0</ele><time>2026-05-04T14:54:06Z</time></trkpt><trkpt lat="41.40232792634995" lon="1.0630936637106845"><ele>486.0</ele><time>2026-05-04T14:54:07Z</time></trkpt><trkpt lat="41.40232011248806" lon="1.0632542489601158"><ele>485.75</ele><time>2026-05-04T14:54:08Z</time></trkpt><trkpt lat="41.402311519905" lon="1.0634144815283884"><ele>485.5</ele><time>2026-05-04T14:54:09Z</time></trkpt><trkpt lat="41.402305642697975" lon="1.0635737422300375"><ele>485.25</ele><time>2026-05-04T14:54:10Z</time></trkpt><trkpt lat="41.402297278676066" lon="1.0637331412990387"><ele>485.0</ele><time>2026-05-04T14:54:11Z</time></trkpt><trkpt lat="41.402291314969624" lon="1.0638953454124218"><ele>485.0</ele><time>2026-05-04T14:54:12Z</time></trkpt><trkpt lat="41.402288351823124" lon="1.064059384103729"><ele>485.0</ele><time>2026-05-04T14:54:13Z</time></trkpt><trkpt lat="41.40228145242675" lon="1.0642224233838395"><ele>485.0</ele><time>2026-05-04T14:54:14Z</time></trkpt><trkpt lat="41.40227202224578" lon="1.0643854911258899"><ele>485.0</ele><time>2026-05-04T14:54:15Z</time></trkpt><trkpt lat="41.4022616135884" lon="1.0645470719211814"><ele>485.0</ele><time>2026-05-04T14:54:16Z</time></trkpt><trkpt lat="41.402257969901285" lon="1.0647110034999303"><ele>485.0</ele><time>2026-05-04T14:54:17Z</time></trkpt><trkpt lat="41.40225741986798" lon="1.06487451281465"><ele>485.0</ele><time>2026-05-04T14:54:18Z</time></trkpt><trkpt lat="41.402258583283434" lon="1.0650364793273668"><ele>485.0</ele><time>2026-05-04T14:54:19Z</time></trkpt><trkpt lat="41.402258611445966" lon="1.065199494218321"><ele>484.25</ele><time>2026-05-04T14:54:20Z</time></trkpt><trkpt lat="41.40226207188201" lon="1.0653600806976713"><ele>483.5</ele><time>2026-05-04T14:54:21Z</time></trkpt><trkpt lat="41.40227256855932" lon="1.065524661591609"><ele>482.75</ele><time>2026-05-04T14:54:22Z</time></trkpt><trkpt lat="41.402286588300896" lon="1.0656835874377188"><ele>482.0</ele><time>2026-05-04T14:54:23Z</time></trkpt><trkpt lat="41.40230641385822" lon="1.0658445188288153"><ele>480.5</ele><time>2026-05-04T14:54:24.001Z</time></trkpt><trkpt lat="41.40232751759971" lon="1.0660063430089384"><ele>479.0</ele><time>2026-05-04T14:54:25.001Z</time></trkpt><trkpt lat="41.40234972085941" lon="1.0661639311710958"><ele>477.5</ele><time>2026-05-04T14:54:26.001Z</time></trkpt><trkpt lat="41.40237593258486" lon="1.0663210637812712"><ele>476.0</ele><time>2026-05-04T14:54:27.001Z</time></trkpt><trkpt lat="41.402404805424126" lon="1.0664868097762443"><ele>475.0</ele><time>2026-05-04T14:54:28.001Z</time></trkpt><trkpt lat="41.402432377738045" lon="1.066645832380184"><ele>474.0</ele><time>2026-05-04T14:54:29.001Z</time></trkpt><trkpt lat="41.40246119749553" lon="1.0668044137982358"><ele>473.0</ele><time>2026-05-04T14:54:30.001Z</time></trkpt><trkpt lat="41.40249578394898" lon="1.0669651229926294"><ele>472.0</ele><time>2026-05-04T14:54:31.001Z</time></trkpt><trkpt lat="41.40253153616854" lon="1.0671232497047272"><ele>472.0</ele><time>2026-05-04T14:54:32.001Z</time></trkpt><trkpt lat="41.40257230086265" lon="1.0672772995827018"><ele>472.0</ele><time>2026-05-04T14:54:33.001Z</time></trkpt><trkpt lat="41.402620522648775" lon="1.0674365857488362"><ele>472.0</ele><time>2026-05-04T14:54:34.001Z</time></trkpt><trkpt lat="41.40266696429156" lon="1.0675908894029078"><ele>472.0</ele><time>2026-05-04T14:54:35.001Z</time></trkpt><trkpt lat="41.40270998891459" lon="1.0677367948169725"><ele>471.5</ele><time>2026-05-04T14:54:36.001Z</time></trkpt><trkpt lat="41.40276128539371" lon="1.0678836483023253"><ele>471.0</ele><time>2026-05-04T14:54:37.001Z</time></trkpt><trkpt lat="41.402822301339825" lon="1.0680350433808512"><ele>470.5</ele><time>2026-05-04T14:54:38.001Z</time></trkpt><trkpt lat="41.40287707028025" lon="1.0681819009625364"><ele>470.0</ele><time>2026-05-04T14:54:39.001Z</time></trkpt><trkpt lat="41.40293339315031" lon="1.0683278610094804"><ele>470.5</ele><time>2026-05-04T14:54:40.001Z</time></trkpt><trkpt lat="41.40298931276722" lon="1.06847603898676"><ele>471.0</ele><time>2026-05-04T14:54:41.001Z</time></trkpt><trkpt lat="41.4030448946953" lon="1.068627071489171"><ele>471.5</ele><time>2026-05-04T14:54:42.001Z</time></trkpt><trkpt lat="41.40310303211888" lon="1.0687710837916122"><ele>472.0</ele><time>2026-05-04T14:54:43.001Z</time></trkpt><trkpt lat="41.40316240788553" lon="1.0689201459318831"><ele>472.0</ele><time>2026-05-04T14:54:44.001Z</time></trkpt><trkpt lat="41.40321836837745" lon="1.0690715016721541"><ele>472.0</ele><time>2026-05-04T14:54:45.001Z</time></trkpt><trkpt lat="41.4032705297506" lon="1.069216780907467"><ele>472.0</ele><time>2026-05-04T14:54:46.001Z</time></trkpt><trkpt lat="41.40332731240632" lon="1.0693673072647616"><ele>472.0</ele><time>2026-05-04T14:54:47.001Z</time></trkpt><trkpt lat="41.40338014764326" lon="1.0695184640060633"><ele>469.75</ele><time>2026-05-04T14:54:48.001Z</time></trkpt><trkpt lat="41.40343970638373" lon="1.0696731843440617"><ele>467.5</ele><time>2026-05-04T14:54:49.001Z</time></trkpt><trkpt lat="41.40349121766796" lon="1.0698243631264492"><ele>465.25</ele><time>2026-05-04T14:54:50.001Z</time></trkpt><trkpt lat="41.40354691541759" lon="1.0699788288672065"><ele>463.0</ele><time>2026-05-04T14:54:51.001Z</time></trkpt><trkpt lat="41.40359858818258" lon="1.070132993337041"><ele>461.5</ele><time>2026-05-04T14:54:52.001Z</time></trkpt><trkpt lat="41.40364865507527" lon="1.0702878804966942"><ele>460.0</ele><time>2026-05-04T14:54:53.001Z</time></trkpt><trkpt lat="41.40369025871881" lon="1.0704403273725454"><ele>458.5</ele><time>2026-05-04T14:54:54.001Z</time></trkpt><trkpt lat="41.40374304787718" lon="1.070600094498006"><ele>457.0</ele><time>2026-05-04T14:54:55.001Z</time></trkpt><trkpt lat="41.4037792577972" lon="1.0707605358460703"><ele>456.0</ele><time>2026-05-04T14:54:56.001Z</time></trkpt><trkpt lat="41.403815114724054" lon="1.0709156792828396"><ele>455.0</ele><time>2026-05-04T14:54:57.001Z</time></trkpt><trkpt lat="41.40385025392065" lon="1.0710767121745408"><ele>454.0</ele><time>2026-05-04T14:54:58.001Z</time></trkpt><trkpt lat="41.403879534026" lon="1.0712319973260258"><ele>453.0</ele><time>2026-05-04T14:54:59.001Z</time></trkpt><trkpt lat="41.40390980875257" lon="1.0713911108440877"><ele>452.25</ele><time>2026-05-04T14:55:00.001Z</time></trkpt><trkpt lat="41.40393637742199" lon="1.0715523317974993"><ele>451.5</ele><time>2026-05-04T14:55:01.001Z</time></trkpt><trkpt lat="41.403964072732656" lon="1.071710084228526"><ele>450.75</ele><time>2026-05-04T14:55:02.001Z</time></trkpt><trkpt lat="41.403987029469164" lon="1.0718652821518815"><ele>450.0</ele><time>2026-05-04T14:55:03.001Z</time></trkpt><trkpt lat="41.4040050929686" lon="1.0720211870457417"><ele>450.0</ele><time>2026-05-04T14:55:04.001Z</time></trkpt><trkpt lat="41.40402324916417" lon="1.0721801604206367"><ele>450.0</ele><time>2026-05-04T14:55:05.001Z</time></trkpt><trkpt lat="41.40403861519063" lon="1.0723402606311245"><ele>450.0</ele><time>2026-05-04T14:55:06.001Z</time></trkpt><trkpt lat="41.40404878748221" lon="1.072499298189701"><ele>450.0</ele><time>2026-05-04T14:55:07.001Z</time></trkpt><trkpt lat="41.40406088410189" lon="1.072658718017726"><ele>450.25</ele><time>2026-05-04T14:55:08.001Z</time></trkpt><trkpt lat="41.40406988010267" lon="1.072821792187027"><ele>450.5</ele><time>2026-05-04T14:55:09.001Z</time></trkpt><trkpt lat="41.4040725554112" lon="1.072979416704436"><ele>450.75</ele><time>2026-05-04T14:55:10.001Z</time></trkpt><trkpt lat="41.404074020556074" lon="1.0731419389278973"><ele>451.0</ele><time>2026-05-04T14:55:11.001Z</time></trkpt><trkpt lat="41.40407536561098" lon="1.0733020123891632"><ele>451.25</ele><time>2026-05-04T14:55:12.001Z</time></trkpt><trkpt lat="41.40407256636536" lon="1.0734582853680115"><ele>451.5</ele><time>2026-05-04T14:55:13.001Z</time></trkpt><trkpt lat="41.40406657054424" lon="1.0736172840776015"><ele>451.75</ele><time>2026-05-04T14:55:14.001Z</time></trkpt><trkpt lat="41.40405841514749" lon="1.073779397051679"><ele>452.0</ele><time>2026-05-04T14:55:15.001Z</time></trkpt><trkpt lat="41.40404828254115" lon="1.073935167629178"><ele>452.0</ele><time>2026-05-04T14:55:16.001Z</time></trkpt><trkpt lat="41.40403376257573" lon="1.0740895578854421"><ele>452.0</ele><time>2026-05-04T14:55:17.001Z</time></trkpt><trkpt lat="41.40402157129266" lon="1.0742442884168242"><ele>452.0</ele><time>2026-05-04T14:55:18.001Z</time></trkpt><trkpt lat="41.404004072943444" lon="1.0744003632349355"><ele>452.0</ele><time>2026-05-04T14:55:19.001Z</time></trkpt><trkpt lat="41.40398766414203" lon="1.0745594730699615"><ele>452.25</ele><time>2026-05-04T14:55:20.001Z</time></trkpt><trkpt lat="41.40396768346211" lon="1.0747179042453514"><ele>452.5</ele><time>2026-05-04T14:55:21.001Z</time></trkpt><trkpt lat="41.403944528030884" lon="1.0748686113043644"><ele>452.75</ele><time>2026-05-04T14:55:22.001Z</time></trkpt><trkpt lat="41.40391818166175" lon="1.0750216159726995"><ele>453.0</ele><time>2026-05-04T14:55:23.001Z</time></trkpt><trkpt lat="41.40388692121093" lon="1.075177239423454"><ele>452.5</ele><time>2026-05-04T14:55:24.001Z</time></trkpt><trkpt lat="41.40385243849181" lon="1.0753266901091156"><ele>452.0</ele><time>2026-05-04T14:55:25.001Z</time></trkpt><trkpt lat="41.40381180941732" lon="1.0754772032189701"><ele>451.5</ele><time>2026-05-04T14:55:26.001Z</time></trkpt><trkpt lat="41.40377598596351" lon="1.0756258898328273"><ele>451.0</ele><time>2026-05-04T14:55:27.001Z</time></trkpt><trkpt lat="41.40373989562367" lon="1.0757778951825172"><ele>450.0</ele><time>2026-05-04T14:55:28.001Z</time></trkpt><trkpt lat="41.40370394159616" lon="1.0759297421808225"><ele>449.0</ele><time>2026-05-04T14:55:29.001Z</time></trkpt><trkpt lat="41.40366669489657" lon="1.0760814376327015"><ele>448.0</ele><time>2026-05-04T14:55:30.001Z</time></trkpt><trkpt lat="41.4036296132123" lon="1.0762300825239115"><ele>447.0</ele><time>2026-05-04T14:55:31.001Z</time></trkpt><trkpt lat="41.40359304386322" lon="1.0763764615424054"><ele>447.0</ele><time>2026-05-04T14:55:32.001Z</time></trkpt><trkpt lat="41.40355674153098" lon="1.0765261083335773"><ele>447.0</ele><time>2026-05-04T14:55:33.001Z</time></trkpt><trkpt lat="41.40351811984131" lon="1.0766792764517377"><ele>447.0</ele><time>2026-05-04T14:55:34.001Z</time></trkpt><trkpt lat="41.4034824639514" lon="1.0768298935912484"><ele>447.0</ele><time>2026-05-04T14:55:35.001Z</time></trkpt><trkpt lat="41.40344483033334" lon="1.076980587342572"><ele>447.0</ele><time>2026-05-04T14:55:36.001Z</time></trkpt><trkpt lat="41.40340815639371" lon="1.0771276714851183"><ele>447.0</ele><time>2026-05-04T14:55:37.001Z</time></trkpt><trkpt lat="41.40337773617561" lon="1.0772804534925262"><ele>447.0</ele><time>2026-05-04T14:55:38.001Z</time></trkpt><trkpt lat="41.403345047314076" lon="1.0774282154306245"><ele>447.0</ele><time>2026-05-04T14:55:39.001Z</time></trkpt><trkpt lat="41.403313020667866" lon="1.077571677359796"><ele>447.0</ele><time>2026-05-04T14:55:40.001Z</time></trkpt><trkpt lat="41.40328480077649" lon="1.077720159773072"><ele>447.0</ele><time>2026-05-04T14:55:41.001Z</time></trkpt><trkpt lat="41.40326041554211" lon="1.0778702525109534"><ele>447.0</ele><time>2026-05-04T14:55:42Z</time></trkpt><trkpt lat="41.40322210661564" lon="1.0780162118970882"><ele>447.0</ele><time>2026-05-04T14:55:43Z</time></trkpt><trkpt lat="41.40319825773032" lon="1.0781616829292189"><ele>447.75</ele><time>2026-05-04T14:55:44Z</time></trkpt><trkpt lat="41.403190265414395" lon="1.0783131476034413"><ele>448.5</ele><time>2026-05-04T14:55:45Z</time></trkpt><trkpt lat="41.40316331016569" lon="1.0784579716435072"><ele>449.25</ele><time>2026-05-04T14:55:46Z</time></trkpt><trkpt lat="41.403141091772035" lon="1.078602550216892"><ele>450.0</ele><time>2026-05-04T14:55:47Z</time></trkpt><trkpt lat="41.403120037598356" lon="1.0787599021779535"><ele>450.0</ele><time>2026-05-04T14:55:48Z</time></trkpt><trkpt lat="41.403108993400615" lon="1.078902945225829"><ele>450.0</ele><time>2026-05-04T14:55:49Z</time></trkpt><trkpt lat="41.403099504013035" lon="1.0790638040725198"><ele>450.0</ele><time>2026-05-04T14:55:50Z</time></trkpt><trkpt lat="41.403097265802856" lon="1.0792003435151094"><ele>450.0</ele><time>2026-05-04T14:55:51Z</time></trkpt><trkpt lat="41.403095175196405" lon="1.079344579206148"><ele>450.0</ele><time>2026-05-04T14:55:52Z</time></trkpt><trkpt lat="41.40309366726684" lon="1.0794971721743485"><ele>451.2</ele><time>2026-05-04T14:55:53Z</time></trkpt><trkpt lat="41.40309403963578" lon="1.079644907554971"><ele>452.4</ele><time>2026-05-04T14:55:54Z</time></trkpt><trkpt lat="41.40309647467049" lon="1.079787915070265"><ele>453.6</ele><time>2026-05-04T14:55:55Z</time></trkpt><trkpt lat="41.40310452101103" lon="1.0799386738195227"><ele>454.8</ele><time>2026-05-04T14:55:56Z</time></trkpt><trkpt lat="41.403113303481234" lon="1.0800906314144187"><ele>456.0</ele><time>2026-05-04T14:55:57Z</time></trkpt><trkpt lat="41.40312706776011" lon="1.080244492300651"><ele>456.25</ele><time>2026-05-04T14:55:58Z</time></trkpt><trkpt lat="41.403141408732125" lon="1.0803979026845347"><ele>456.5</ele><time>2026-05-04T14:55:59Z</time></trkpt><trkpt lat="41.4031580241631" lon="1.080550950420417"><ele>456.75</ele><time>2026-05-04T14:56:00Z</time></trkpt><trkpt lat="41.403175758967016" lon="1.0807108233454683"><ele>457.0</ele><time>2026-05-04T14:56:01Z</time></trkpt><trkpt lat="41.40319591208398" lon="1.0808630632647656"><ele>455.0</ele><time>2026-05-04T14:56:02Z</time></trkpt><trkpt lat="41.40322058741043" lon="1.081019197486464"><ele>453.0</ele><time>2026-05-04T14:56:03Z</time></trkpt><trkpt lat="41.403247504823035" lon="1.0811787535465553"><ele>451.0</ele><time>2026-05-04T14:56:04Z</time></trkpt><trkpt lat="41.40327127161648" lon="1.081327284408377"><ele>449.0</ele><time>2026-05-04T14:56:05Z</time></trkpt><trkpt lat="41.40329627567636" lon="1.0814773067970098"><ele>447.75</ele><time>2026-05-04T14:56:06Z</time></trkpt><trkpt lat="41.40332251754475" lon="1.0816301140063023"><ele>446.5</ele><time>2026-05-04T14:56:07Z</time></trkpt><trkpt lat="41.40335257570179" lon="1.081784628112029"><ele>445.25</ele><time>2026-05-04T14:56:08Z</time></trkpt><trkpt lat="41.40338117087119" lon="1.0819357297558858"><ele>444.0</ele><time>2026-05-04T14:56:09Z</time></trkpt><trkpt lat="41.4034081606281" lon="1.0820883275743667"><ele>444.0</ele><time>2026-05-04T14:56:10Z</time></trkpt><trkpt lat="41.40343720653096" lon="1.0822405164944273"><ele>444.0</ele><time>2026-05-04T14:56:11Z</time></trkpt><trkpt lat="41.40346388943741" lon="1.082388245570926"><ele>444.0</ele><time>2026-05-04T14:56:12Z</time></trkpt><trkpt lat="41.40349499846797" lon="1.0825388822240845"><ele>444.0</ele><time>2026-05-04T14:56:13Z</time></trkpt><trkpt lat="41.40352113638629" lon="1.0826903264820498"><ele>443.25</ele><time>2026-05-04T14:56:14Z</time></trkpt><trkpt lat="41.40355104428631" lon="1.0828426585459372"><ele>442.5</ele><time>2026-05-04T14:56:15Z</time></trkpt><trkpt lat="41.40357704072437" lon="1.082995265725237"><ele>441.75</ele><time>2026-05-04T14:56:16Z</time></trkpt><trkpt lat="41.40360452784281" lon="1.0831484878794717"><ele>441.0</ele><time>2026-05-04T14:56:17Z</time></trkpt><trkpt lat="41.40362956618444" lon="1.0833020265301763"><ele>440.0</ele><time>2026-05-04T14:56:18Z</time></trkpt><trkpt lat="41.40365160751997" lon="1.0834540980844585"><ele>439.0</ele><time>2026-05-04T14:56:19Z</time></trkpt><trkpt lat="41.403672930806046" lon="1.0836034133936188"><ele>438.0</ele><time>2026-05-04T14:56:20Z</time></trkpt><trkpt lat="41.40369247706698" lon="1.0837566183063518"><ele>437.0</ele><time>2026-05-04T14:56:21Z</time></trkpt><trkpt lat="41.40371124793145" lon="1.0839086364452002"><ele>437.0</ele><time>2026-05-04T14:56:22Z</time></trkpt><trkpt lat="41.40373219449789" lon="1.0840625033708282"><ele>437.0</ele><time>2026-05-04T14:56:23Z</time></trkpt><trkpt lat="41.40375108400162" lon="1.0842161115846447"><ele>437.0</ele><time>2026-05-04T14:56:24Z</time></trkpt><trkpt lat="41.403763415563446" lon="1.084371022978346"><ele>437.0</ele><time>2026-05-04T14:56:25Z</time></trkpt><trkpt lat="41.40377501590307" lon="1.084523988227331"><ele>437.5</ele><time>2026-05-04T14:56:26Z</time></trkpt><trkpt lat="41.40378483643011" lon="1.0846802009820504"><ele>438.0</ele><time>2026-05-04T14:56:27Z</time></trkpt><trkpt lat="41.40379546407851" lon="1.084834364999638"><ele>438.5</ele><time>2026-05-04T14:56:28Z</time></trkpt><trkpt lat="41.40380567757221" lon="1.0849900009174906"><ele>439.0</ele><time>2026-05-04T14:56:29Z</time></trkpt><trkpt lat="41.40380609258912" lon="1.0851441291594166"><ele>439.0</ele><time>2026-05-04T14:56:30Z</time></trkpt><trkpt lat="41.403813228240985" lon="1.0853024944367213"><ele>439.0</ele><time>2026-05-04T14:56:31Z</time></trkpt><trkpt lat="41.40381763216298" lon="1.0854588907010823"><ele>439.0</ele><time>2026-05-04T14:56:32.001Z</time></trkpt><trkpt lat="41.403814630422595" lon="1.0856153853886708"><ele>439.0</ele><time>2026-05-04T14:56:33.001Z</time></trkpt><trkpt lat="41.40380917263382" lon="1.0857740808580587"><ele>437.5</ele><time>2026-05-04T14:56:34.001Z</time></trkpt><trkpt lat="41.40380848748468" lon="1.0859326305739874"><ele>436.0</ele><time>2026-05-04T14:56:35.001Z</time></trkpt><trkpt lat="41.40380998254746" lon="1.0860920315578853"><ele>434.5</ele><time>2026-05-04T14:56:36.001Z</time></trkpt><trkpt lat="41.40380651223458" lon="1.0862511124314391"><ele>433.0</ele><time>2026-05-04T14:56:37.001Z</time></trkpt><trkpt lat="41.4037930364449" lon="1.0864085989180543"><ele>433.0</ele><time>2026-05-04T14:56:38.001Z</time></trkpt><trkpt lat="41.40377733073716" lon="1.0865657147120418"><ele>433.0</ele><time>2026-05-04T14:56:39.001Z</time></trkpt><trkpt lat="41.40377120412038" lon="1.0867196174212088"><ele>433.0</ele><time>2026-05-04T14:56:40.001Z</time></trkpt><trkpt lat="41.40376485634763" lon="1.0868786344766"><ele>433.0</ele><time>2026-05-04T14:56:41.001Z</time></trkpt><trkpt lat="41.403743785307206" lon="1.087035921957272"><ele>433.25</ele><time>2026-05-04T14:56:42.001Z</time></trkpt><trkpt lat="41.403727074289925" lon="1.0871926619445382"><ele>433.5</ele><time>2026-05-04T14:56:43.001Z</time></trkpt><trkpt lat="41.403713419710044" lon="1.0873508996399752"><ele>433.75</ele><time>2026-05-04T14:56:44.001Z</time></trkpt><trkpt lat="41.40369715811831" lon="1.087508108264207"><ele>434.0</ele><time>2026-05-04T14:56:45.001Z</time></trkpt><trkpt lat="41.40367674854879" lon="1.0876653812811767"><ele>434.0</ele><time>2026-05-04T14:56:46.001Z</time></trkpt><trkpt lat="41.40366082141018" lon="1.087821003443049"><ele>434.0</ele><time>2026-05-04T14:56:47.001Z</time></trkpt><trkpt lat="41.40364226131166" lon="1.0879751980940786"><ele>434.0</ele><time>2026-05-04T14:56:48.001Z</time></trkpt><trkpt lat="41.40362739818796" lon="1.0881340931761858"><ele>434.0</ele><time>2026-05-04T14:56:49.001Z</time></trkpt><trkpt lat="41.40360880022465" lon="1.0882874528152542"><ele>434.25</ele><time>2026-05-04T14:56:50.001Z</time></trkpt><trkpt lat="41.403588744524505" lon="1.0884440861171005"><ele>434.5</ele><time>2026-05-04T14:56:51.001Z</time></trkpt><trkpt lat="41.40356994147076" lon="1.0886013943866906"><ele>434.75</ele><time>2026-05-04T14:56:52.001Z</time></trkpt><trkpt lat="41.40355025073971" lon="1.0887556039702346"><ele>435.0</ele><time>2026-05-04T14:56:53.001Z</time></trkpt><trkpt lat="41.403531744906836" lon="1.0889104178203408"><ele>435.0</ele><time>2026-05-04T14:56:54.001Z</time></trkpt><trkpt lat="41.4035171790979" lon="1.0890678054621836"><ele>435.0</ele><time>2026-05-04T14:56:55.001Z</time></trkpt><trkpt lat="41.403499089888086" lon="1.0892246962128236"><ele>435.0</ele><time>2026-05-04T14:56:56.001Z</time></trkpt><trkpt lat="41.403477937807644" lon="1.0893782647636638"><ele>435.0</ele><time>2026-05-04T14:56:57.001Z</time></trkpt><trkpt lat="41.403457381140825" lon="1.0895276390790025"><ele>435.0</ele><time>2026-05-04T14:56:58.001Z</time></trkpt><trkpt lat="41.403442546491846" lon="1.0896831461333705"><ele>435.0</ele><time>2026-05-04T14:56:59.001Z</time></trkpt><trkpt lat="41.40342201813496" lon="1.089837221624006"><ele>435.0</ele><time>2026-05-04T14:57:00.001Z</time></trkpt><trkpt lat="41.4034060369488" lon="1.089994935296506"><ele>435.0</ele><time>2026-05-04T14:57:01.001Z</time></trkpt><trkpt lat="41.40338984756525" lon="1.0901486630591575"><ele>435.0</ele><time>2026-05-04T14:57:02.001Z</time></trkpt><trkpt lat="41.40336751945196" lon="1.090299183152063"><ele>435.0</ele><time>2026-05-04T14:57:03.001Z</time></trkpt><trkpt lat="41.403349182920074" lon="1.0904507115730133"><ele>435.0</ele><time>2026-05-04T14:57:04.001Z</time></trkpt><trkpt lat="41.403331773069425" lon="1.090605515305349"><ele>435.0</ele><time>2026-05-04T14:57:05.001Z</time></trkpt><trkpt lat="41.40331693888447" lon="1.090760336705741"><ele>434.75</ele><time>2026-05-04T14:57:06.001Z</time></trkpt><trkpt lat="41.40330232106058" lon="1.0909188790590763"><ele>434.5</ele><time>2026-05-04T14:57:07.001Z</time></trkpt><trkpt lat="41.403287007768036" lon="1.0910722538512605"><ele>434.25</ele><time>2026-05-04T14:57:08.001Z</time></trkpt><trkpt lat="41.40327067767375" lon="1.0912299488501254"><ele>434.0</ele><time>2026-05-04T14:57:09.001Z</time></trkpt><trkpt lat="41.403256038638375" lon="1.0913855604769322"><ele>434.0</ele><time>2026-05-04T14:57:10.001Z</time></trkpt><trkpt lat="41.40324120300592" lon="1.091543030948808"><ele>434.0</ele><time>2026-05-04T14:57:11.001Z</time></trkpt><trkpt lat="41.403223315674715" lon="1.09170089711729"><ele>434.0</ele><time>2026-05-04T14:57:12.001Z</time></trkpt><trkpt lat="41.403196013093755" lon="1.0918517084473536"><ele>434.0</ele><time>2026-05-04T14:57:13.001Z</time></trkpt><trkpt lat="41.40318442942631" lon="1.092014056736428"><ele>433.25</ele><time>2026-05-04T14:57:14.001Z</time></trkpt><trkpt lat="41.40317441869252" lon="1.092173167998324"><ele>432.5</ele><time>2026-05-04T14:57:15.001Z</time></trkpt><trkpt lat="41.403162509950796" lon="1.0923301893178696"><ele>431.75</ele><time>2026-05-04T14:57:16.001Z</time></trkpt><trkpt lat="41.403144492751856" lon="1.092487248591682"><ele>431.0</ele><time>2026-05-04T14:57:17.001Z</time></trkpt><trkpt lat="41.40312801469828" lon="1.092644245940276"><ele>430.5</ele><time>2026-05-04T14:57:18.001Z</time></trkpt><trkpt lat="41.40311323202707" lon="1.0928043256775708"><ele>430.0</ele><time>2026-05-04T14:57:19.001Z</time></trkpt><trkpt lat="41.40309622660841" lon="1.092959895334134"><ele>429.5</ele><time>2026-05-04T14:57:20.001Z</time></trkpt><trkpt lat="41.40308694773608" lon="1.0931150647341572"><ele>429.0</ele><time>2026-05-04T14:57:21.001Z</time></trkpt><trkpt lat="41.40307021464644" lon="1.0932693908106483"><ele>428.75</ele><time>2026-05-04T14:57:22.001Z</time></trkpt><trkpt lat="41.40305248010928" lon="1.0934255845474719"><ele>428.5</ele><time>2026-05-04T14:57:23.001Z</time></trkpt><trkpt lat="41.40303833203339" lon="1.0935794997728974"><ele>428.25</ele><time>2026-05-04T14:57:24.001Z</time></trkpt><trkpt lat="41.40302488590274" lon="1.0937314312825013"><ele>428.0</ele><time>2026-05-04T14:57:25.001Z</time></trkpt><trkpt lat="41.40300876116517" lon="1.0938855101777851"><ele>427.75</ele><time>2026-05-04T14:57:26.001Z</time></trkpt><trkpt lat="41.40298982345045" lon="1.0940425546284223"><ele>427.5</ele><time>2026-05-04T14:57:27.001Z</time></trkpt><trkpt lat="41.40297205954044" lon="1.0942000583536804"><ele>427.25</ele><time>2026-05-04T14:57:28.001Z</time></trkpt><trkpt lat="41.40295723794217" lon="1.0943595037055114"><ele>427.0</ele><time>2026-05-04T14:57:29.001Z</time></trkpt><trkpt lat="41.40294752147637" lon="1.0945178933559905"><ele>427.0</ele><time>2026-05-04T14:57:30.001Z</time></trkpt><trkpt lat="41.40293452953783" lon="1.0946765014009066"><ele>427.0</ele><time>2026-05-04T14:57:31.001Z</time></trkpt><trkpt lat="41.402917813554616" lon="1.094838421413787"><ele>427.0</ele><time>2026-05-04T14:57:32.001Z</time></trkpt><trkpt lat="41.40290109966515" lon="1.094999078386257"><ele>427.0</ele><time>2026-05-04T14:57:33.001Z</time></trkpt><trkpt lat="41.402880196253385" lon="1.0951561922399868"><ele>426.5</ele><time>2026-05-04T14:57:34.001Z</time></trkpt><trkpt lat="41.40286598945915" lon="1.09531366288486"><ele>426.0</ele><time>2026-05-04T14:57:35.001Z</time></trkpt><trkpt lat="41.402854985662785" lon="1.0954753196403397"><ele>425.5</ele><time>2026-05-04T14:57:36.001Z</time></trkpt><trkpt lat="41.40283771545446" lon="1.0956309140608411"><ele>425.0</ele><time>2026-05-04T14:57:37.001Z</time></trkpt><trkpt lat="41.402821889891044" lon="1.0957892974959025"><ele>425.0</ele><time>2026-05-04T14:57:38.001Z</time></trkpt><trkpt lat="41.40280508072631" lon="1.0959484984407883"><ele>425.0</ele><time>2026-05-04T14:57:39.001Z</time></trkpt><trkpt lat="41.40278939716861" lon="1.0961078466585132"><ele>425.0</ele><time>2026-05-04T14:57:40.001Z</time></trkpt><trkpt lat="41.402776786880125" lon="1.0962630314532553"><ele>425.0</ele><time>2026-05-04T14:57:41.001Z</time></trkpt><trkpt lat="41.402758895737115" lon="1.09641571996529"><ele>425.0</ele><time>2026-05-04T14:57:42.001Z</time></trkpt><trkpt lat="41.402743073671" lon="1.096564495085695"><ele>425.0</ele><time>2026-05-04T14:57:43.001Z</time></trkpt><trkpt lat="41.40273051930184" lon="1.0967168982352697"><ele>425.0</ele><time>2026-05-04T14:57:44.001Z</time></trkpt><trkpt lat="41.40271469365943" lon="1.0968664904581822"><ele>425.0</ele><time>2026-05-04T14:57:45.001Z</time></trkpt><trkpt lat="41.402700150366336" lon="1.097014632340185"><ele>424.8</ele><time>2026-05-04T14:57:46.001Z</time></trkpt><trkpt lat="41.402678728659524" lon="1.0971679582425589"><ele>424.6</ele><time>2026-05-04T14:57:47.001Z</time></trkpt><trkpt lat="41.402677357547574" lon="1.0973100569379244"><ele>424.4</ele><time>2026-05-04T14:57:48Z</time></trkpt><trkpt lat="41.40266225316182" lon="1.0974532330005262"><ele>424.2</ele><time>2026-05-04T14:57:49Z</time></trkpt><trkpt lat="41.402645391480725" lon="1.097596143819266"><ele>424.0</ele><time>2026-05-04T14:57:50Z</time></trkpt><trkpt lat="41.40263108103527" lon="1.0977356647836944"><ele>424.0</ele><time>2026-05-04T14:57:51Z</time></trkpt><trkpt lat="41.402615080611056" lon="1.0978745995859318"><ele>424.0</ele><time>2026-05-04T14:57:52Z</time></trkpt><trkpt lat="41.40260087693355" lon="1.0980116520072407"><ele>424.0</ele><time>2026-05-04T14:57:53Z</time></trkpt><trkpt lat="41.40259064469796" lon="1.0981476140482347"><ele>424.0</ele><time>2026-05-04T14:57:54Z</time></trkpt><trkpt lat="41.40257963107741" lon="1.0982825969709937"><ele>424.0</ele><time>2026-05-04T14:57:55Z</time></trkpt><trkpt lat="41.40256475616514" lon="1.0984137194180996"><ele>425.0</ele><time>2026-05-04T14:57:56Z</time></trkpt><trkpt lat="41.40254978036706" lon="1.098545381430175"><ele>426.0</ele><time>2026-05-04T14:57:57Z</time></trkpt><trkpt lat="41.402540606353476" lon="1.0986786280798078"><ele>427.0</ele><time>2026-05-04T14:57:58Z</time></trkpt><trkpt lat="41.40252574890079" lon="1.09881115525129"><ele>428.0</ele><time>2026-05-04T14:57:59Z</time></trkpt><trkpt lat="41.40251135541792" lon="1.0989444709086147"><ele>429.0</ele><time>2026-05-04T14:58:00Z</time></trkpt><trkpt lat="41.402499260621354" lon="1.0990789355751331"><ele>429.2</ele><time>2026-05-04T14:58:01Z</time></trkpt><trkpt lat="41.40248743626411" lon="1.0992132046200556"><ele>429.4</ele><time>2026-05-04T14:58:02Z</time></trkpt><trkpt lat="41.402476164526696" lon="1.0993478859639365"><ele>429.6</ele><time>2026-05-04T14:58:03Z</time></trkpt><trkpt lat="41.40246232838415" lon="1.0994842288971647"><ele>429.8</ele><time>2026-05-04T14:58:04Z</time></trkpt><trkpt lat="41.402446690108455" lon="1.0996205547767037"><ele>430.0</ele><time>2026-05-04T14:58:05Z</time></trkpt><trkpt lat="41.402434697789026" lon="1.0997592452966325"><ele>430.0</ele><time>2026-05-04T14:58:06Z</time></trkpt><trkpt lat="41.40242233161291" lon="1.0998973963074152"><ele>430.0</ele><time>2026-05-04T14:58:07Z</time></trkpt><trkpt lat="41.402408787744605" lon="1.1000370483292303"><ele>430.0</ele><time>2026-05-04T14:58:08Z</time></trkpt><trkpt lat="41.40239456916865" lon="1.1001796904474601"><ele>430.0</ele><time>2026-05-04T14:58:09Z</time></trkpt><trkpt lat="41.40238202304015" lon="1.1003230200070084"><ele>430.0</ele><time>2026-05-04T14:58:10Z</time></trkpt><trkpt lat="41.402368307722455" lon="1.1004649441123484"><ele>430.4</ele><time>2026-05-04T14:58:11Z</time></trkpt><trkpt lat="41.40235345732322" lon="1.1006116417738394"><ele>430.8</ele><time>2026-05-04T14:58:12Z</time></trkpt><trkpt lat="41.40234096347986" lon="1.1007543210542172"><ele>431.20000000000005</ele><time>2026-05-04T14:58:13Z</time></trkpt><trkpt lat="41.40232812167886" lon="1.1009046281748753"><ele>431.6</ele><time>2026-05-04T14:58:14Z</time></trkpt><trkpt lat="41.40231099866398" lon="1.1010530689209057"><ele>432.0</ele><time>2026-05-04T14:58:15Z</time></trkpt><trkpt lat="41.40228894810131" lon="1.101215411166016"><ele>432.25</ele><time>2026-05-04T14:58:16Z</time></trkpt><trkpt lat="41.4022353567064" lon="1.101403938441138"><ele>432.5</ele><time>2026-05-04T14:58:17Z</time></trkpt><trkpt lat="41.40226755855862" lon="1.1015014441506539"><ele>432.75</ele><time>2026-05-04T14:58:18Z</time></trkpt><trkpt lat="41.402251100112494" lon="1.1016555001796344"><ele>433.0</ele><time>2026-05-04T14:58:19Z</time></trkpt><trkpt lat="41.40223677802242" lon="1.1018105471846376"><ele>433.0</ele><time>2026-05-04T14:58:20Z</time></trkpt><trkpt lat="41.40222001386559" lon="1.1019642136802765"><ele>433.0</ele><time>2026-05-04T14:58:21Z</time></trkpt><trkpt lat="41.40220320359602" lon="1.1021197730183996"><ele>433.0</ele><time>2026-05-04T14:58:22Z</time></trkpt><trkpt lat="41.40218489036369" lon="1.1022735963436638"><ele>433.0</ele><time>2026-05-04T14:58:23Z</time></trkpt><trkpt lat="41.40216930494379" lon="1.1024245592091515"><ele>430.75</ele><time>2026-05-04T14:58:24Z</time></trkpt><trkpt lat="41.40215299541524" lon="1.1025837198796755"><ele>428.5</ele><time>2026-05-04T14:58:25Z</time></trkpt><trkpt lat="41.402140970686965" lon="1.102738514256585"><ele>426.25</ele><time>2026-05-04T14:58:26Z</time></trkpt><trkpt lat="41.402128361039836" lon="1.1028933990558822"><ele>424.0</ele><time>2026-05-04T14:58:27Z</time></trkpt><trkpt lat="41.40210993073624" lon="1.1030512144883489"><ele>424.0</ele><time>2026-05-04T14:58:28Z</time></trkpt><trkpt lat="41.4020943541683" lon="1.1032059271729833"><ele>424.0</ele><time>2026-05-04T14:58:29Z</time></trkpt><trkpt lat="41.402079071379575" lon="1.1033600015556704"><ele>424.0</ele><time>2026-05-04T14:58:30Z</time></trkpt><trkpt lat="41.40206459417711" lon="1.103509493787662"><ele>424.0</ele><time>2026-05-04T14:58:31Z</time></trkpt><trkpt lat="41.402045146987476" lon="1.1036618184037963"><ele>423.5</ele><time>2026-05-04T14:58:32Z</time></trkpt><trkpt lat="41.40202543371803" lon="1.1038171450500696"><ele>423.0</ele><time>2026-05-04T14:58:33Z</time></trkpt><trkpt lat="41.40200246794551" lon="1.1039613755106419"><ele>422.5</ele><time>2026-05-04T14:58:34Z</time></trkpt><trkpt lat="41.401974991988574" lon="1.1041182595239052"><ele>422.0</ele><time>2026-05-04T14:58:35Z</time></trkpt><trkpt lat="41.40192773995931" lon="1.1042658530380733"><ele>421.5</ele><time>2026-05-04T14:58:36Z</time></trkpt><trkpt lat="41.40189838139936" lon="1.1044190195543548"><ele>421.0</ele><time>2026-05-04T14:58:37Z</time></trkpt><trkpt lat="41.40185583345424" lon="1.1045717607873795"><ele>420.5</ele><time>2026-05-04T14:58:38Z</time></trkpt><trkpt lat="41.401794302794286" lon="1.104704843862534"><ele>420.0</ele><time>2026-05-04T14:58:39Z</time></trkpt><trkpt lat="41.40175808138957" lon="1.1048522837393018"><ele>419.5</ele><time>2026-05-04T14:58:40Z</time></trkpt><trkpt lat="41.40168985583668" lon="1.1049863719676034"><ele>419.0</ele><time>2026-05-04T14:58:41Z</time></trkpt><trkpt lat="41.40163529200999" lon="1.105126960796533"><ele>418.5</ele><time>2026-05-04T14:58:42Z</time></trkpt><trkpt lat="41.401581618239355" lon="1.1052671994365948"><ele>418.0</ele><time>2026-05-04T14:58:43Z</time></trkpt><trkpt lat="41.401525303134434" lon="1.1054025413054502"><ele>418.0</ele><time>2026-05-04T14:58:44.001Z</time></trkpt><trkpt lat="41.401470080758514" lon="1.1055404263095383"><ele>418.0</ele><time>2026-05-04T14:58:45.001Z</time></trkpt><trkpt lat="41.401413713457906" lon="1.1056768830980472"><ele>418.0</ele><time>2026-05-04T14:58:46.001Z</time></trkpt><trkpt lat="41.40135817038737" lon="1.1058119776210016"><ele>418.0</ele><time>2026-05-04T14:58:47.001Z</time></trkpt><trkpt lat="41.401304617375445" lon="1.1059446862968088"><ele>418.5</ele><time>2026-05-04T14:58:48.001Z</time></trkpt><trkpt lat="41.401249468123154" lon="1.1060804934570447"><ele>419.0</ele><time>2026-05-04T14:58:49.001Z</time></trkpt><trkpt lat="41.4011950422786" lon="1.106213329366895"><ele>419.5</ele><time>2026-05-04T14:58:50.001Z</time></trkpt><trkpt lat="41.401142938521915" lon="1.1063466662578334"><ele>420.0</ele><time>2026-05-04T14:58:51.001Z</time></trkpt><trkpt lat="41.40108367542637" lon="1.1064760182210645"><ele>420.6</ele><time>2026-05-04T14:58:52.001Z</time></trkpt><trkpt lat="41.40102477213494" lon="1.106607727675742"><ele>421.2</ele><time>2026-05-04T14:58:53.001Z</time></trkpt><trkpt lat="41.40098279325603" lon="1.1067399964445843"><ele>421.79999999999995</ele><time>2026-05-04T14:58:54.001Z</time></trkpt><trkpt lat="41.40093761562999" lon="1.1068681807935417"><ele>422.4</ele><time>2026-05-04T14:58:55.001Z</time></trkpt><trkpt lat="41.4008843361582" lon="1.1069927682579814"><ele>423.0</ele><time>2026-05-04T14:58:56.001Z</time></trkpt><trkpt lat="41.40083171063816" lon="1.1071125611826715"><ele>423.0</ele><time>2026-05-04T14:58:57.001Z</time></trkpt><trkpt lat="41.400778944002006" lon="1.1072293723305418"><ele>423.0</ele><time>2026-05-04T14:58:58.001Z</time></trkpt><trkpt lat="41.40073014320628" lon="1.10735047087914"><ele>423.0</ele><time>2026-05-04T14:58:59.001Z</time></trkpt><trkpt lat="41.400684056521314" lon="1.1074681047092103"><ele>423.0</ele><time>2026-05-04T14:59:00.001Z</time></trkpt><trkpt lat="41.400636172899674" lon="1.1075850163359833"><ele>423.0</ele><time>2026-05-04T14:59:01.001Z</time></trkpt><trkpt lat="41.40059021485326" lon="1.1076962602604412"><ele>423.59999999999997</ele><time>2026-05-04T14:59:02.001Z</time></trkpt><trkpt lat="41.400543364427676" lon="1.1078092476619303"><ele>424.2</ele><time>2026-05-04T14:59:03.001Z</time></trkpt><trkpt lat="41.40049570474999" lon="1.1079172548219687"><ele>424.8</ele><time>2026-05-04T14:59:04.001Z</time></trkpt><trkpt lat="41.400449583122196" lon="1.1080280029754332"><ele>425.4</ele><time>2026-05-04T14:59:05.001Z</time></trkpt><trkpt lat="41.400403795851076" lon="1.1081403675157395"><ele>426.0</ele><time>2026-05-04T14:59:06.001Z</time></trkpt><trkpt lat="41.40035902371681" lon="1.108248703009665"><ele>427.20000000000005</ele><time>2026-05-04T14:59:07.001Z</time></trkpt><trkpt lat="41.4003141724346" lon="1.108357751619247"><ele>428.40000000000003</ele><time>2026-05-04T14:59:08.001Z</time></trkpt><trkpt lat="41.40027121836451" lon="1.1084649663834236"><ele>429.6</ele><time>2026-05-04T14:59:09.001Z</time></trkpt><trkpt lat="41.400227301645934" lon="1.1085706644140518"><ele>430.8</ele><time>2026-05-04T14:59:10.001Z</time></trkpt><trkpt lat="41.40018472761331" lon="1.1086776146783435"><ele>432.0</ele><time>2026-05-04T14:59:11.001Z</time></trkpt><trkpt lat="41.40014548898662" lon="1.1087846925385354"><ele>432.0</ele><time>2026-05-04T14:59:12.001Z</time></trkpt><trkpt lat="41.40010165724529" lon="1.10888944046269"><ele>432.0</ele><time>2026-05-04T14:59:13.001Z</time></trkpt><trkpt lat="41.40005834553068" lon="1.1089912721076631"><ele>432.0</ele><time>2026-05-04T14:59:14.001Z</time></trkpt><trkpt lat="41.40001879528063" lon="1.1090955969536884"><ele>432.0</ele><time>2026-05-04T14:59:15.001Z</time></trkpt><trkpt lat="41.39997822945319" lon="1.1091980620495776"><ele>432.0</ele><time>2026-05-04T14:59:16.001Z</time></trkpt><trkpt lat="41.399936225880246" lon="1.1093006597620028"><ele>432.0</ele><time>2026-05-04T14:59:17.001Z</time></trkpt><trkpt lat="41.399896416728424" lon="1.1094039979518462"><ele>432.3333333333333</ele><time>2026-05-04T14:59:18.001Z</time></trkpt><trkpt lat="41.399857452680045" lon="1.1095053833963557"><ele>432.66666666666663</ele><time>2026-05-04T14:59:19.001Z</time></trkpt><trkpt lat="41.399811381491816" lon="1.109605304438018"><ele>433.0</ele><time>2026-05-04T14:59:20.001Z</time></trkpt><trkpt lat="41.39976651725418" lon="1.1097064959585123"><ele>433.3333333333333</ele><time>2026-05-04T14:59:21.001Z</time></trkpt><trkpt lat="41.39972372844781" lon="1.1098091762435536"><ele>433.66666666666663</ele><time>2026-05-04T14:59:22.001Z</time></trkpt><trkpt lat="41.39967979059062" lon="1.1099157886369753"><ele>434.0</ele><time>2026-05-04T14:59:23.001Z</time></trkpt><trkpt lat="41.399635948018485" lon="1.110023737376594"><ele>435.0</ele><time>2026-05-04T14:59:24.001Z</time></trkpt><trkpt lat="41.39959524310307" lon="1.1101267362832956"><ele>436.0</ele><time>2026-05-04T14:59:25.001Z</time></trkpt><trkpt lat="41.39954935300879" lon="1.1102382520934437"><ele>437.0</ele><time>2026-05-04T14:59:26.001Z</time></trkpt><trkpt lat="41.399501897569415" lon="1.1103504507374875"><ele>438.0</ele><time>2026-05-04T14:59:27.001Z</time></trkpt><trkpt lat="41.39945545939764" lon="1.1104576705479192"><ele>439.0</ele><time>2026-05-04T14:59:28.001Z</time></trkpt><trkpt lat="41.399414205526526" lon="1.1105718617265425"><ele>439.0</ele><time>2026-05-04T14:59:29.001Z</time></trkpt><trkpt lat="41.399367943516935" lon="1.1106877758506568"><ele>439.0</ele><time>2026-05-04T14:59:30.001Z</time></trkpt><trkpt lat="41.39932235290593" lon="1.1108045875800474"><ele>439.0</ele><time>2026-05-04T14:59:31.001Z</time></trkpt><trkpt lat="41.399274947222466" lon="1.1109255043938278"><ele>439.0</ele><time>2026-05-04T14:59:32.001Z</time></trkpt><trkpt lat="41.399231903997375" lon="1.1110488169058184"><ele>439.0</ele><time>2026-05-04T14:59:33.001Z</time></trkpt><trkpt lat="41.39918899738329" lon="1.1111725914358566"><ele>439.0</ele><time>2026-05-04T14:59:34.001Z</time></trkpt><trkpt lat="41.39914548833303" lon="1.1112994559776768"><ele>439.0</ele><time>2026-05-04T14:59:35.001Z</time></trkpt><trkpt lat="41.39909950319499" lon="1.111428046705878"><ele>439.0</ele><time>2026-05-04T14:59:36.001Z</time></trkpt><trkpt lat="41.399055136817175" lon="1.111560129246111"><ele>439.0</ele><time>2026-05-04T14:59:37.001Z</time></trkpt><trkpt lat="41.39901365260808" lon="1.1116957649951538"><ele>439.0</ele><time>2026-05-04T14:59:38.001Z</time></trkpt><trkpt lat="41.39896698037647" lon="1.1118290111680753"><ele>438.5</ele><time>2026-05-04T14:59:39.001Z</time></trkpt><trkpt lat="41.39892157345101" lon="1.1119722347679304"><ele>438.0</ele><time>2026-05-04T14:59:40.001Z</time></trkpt><trkpt lat="41.3988870998461" lon="1.1121134611139762"><ele>437.5</ele><time>2026-05-04T14:59:41.001Z</time></trkpt><trkpt lat="41.39885047109726" lon="1.1122615380976224"><ele>437.0</ele><time>2026-05-04T14:59:42.001Z</time></trkpt><trkpt lat="41.39881413704013" lon="1.1124099359892057"><ele>437.0</ele><time>2026-05-04T14:59:43.001Z</time></trkpt><trkpt lat="41.398775941669214" lon="1.1125603292838226"><ele>437.0</ele><time>2026-05-04T14:59:44.001Z</time></trkpt><trkpt lat="41.398738726772834" lon="1.112709837983898"><ele>437.0</ele><time>2026-05-04T14:59:45.001Z</time></trkpt><trkpt lat="41.39870328151426" lon="1.1128607888875433"><ele>437.0</ele><time>2026-05-04T14:59:46.001Z</time></trkpt><trkpt lat="41.398667792762645" lon="1.1130077713153328"><ele>437.0</ele><time>2026-05-04T14:59:47.001Z</time></trkpt><trkpt lat="41.39863339743959" lon="1.1131562133333506"><ele>437.0</ele><time>2026-05-04T14:59:48.001Z</time></trkpt><trkpt lat="41.398604073952" lon="1.1133068579672205"><ele>437.0</ele><time>2026-05-04T14:59:49.001Z</time></trkpt><trkpt lat="41.39857817580073" lon="1.113460041953934"><ele>437.0</ele><time>2026-05-04T14:59:50.001Z</time></trkpt><trkpt lat="41.398554055709" lon="1.1136139467603519"><ele>436.25</ele><time>2026-05-04T14:59:51.001Z</time></trkpt><trkpt lat="41.398528285318456" lon="1.1137707349022405"><ele>435.5</ele><time>2026-05-04T14:59:52.001Z</time></trkpt><trkpt lat="41.39850293225831" lon="1.1139236328167847"><ele>434.75</ele><time>2026-05-04T14:59:53.001Z</time></trkpt><trkpt lat="41.398481992476064" lon="1.1140788138258584"><ele>434.0</ele><time>2026-05-04T14:59:54Z</time></trkpt><trkpt lat="41.39846003414378" lon="1.114235760462353"><ele>432.5</ele><time>2026-05-04T14:59:55Z</time></trkpt><trkpt lat="41.39843953037364" lon="1.1143934079131592"><ele>431.0</ele><time>2026-05-04T14:59:56Z</time></trkpt><trkpt lat="41.39842293558734" lon="1.1145542468995222"><ele>429.5</ele><time>2026-05-04T14:59:57Z</time></trkpt><trkpt lat="41.3984056659272" lon="1.1147140260472759"><ele>428.0</ele><time>2026-05-04T14:59:58Z</time></trkpt><trkpt lat="41.398393622737835" lon="1.1148754409689814"><ele>427.25</ele><time>2026-05-04T14:59:59Z</time></trkpt><trkpt lat="41.39838163242622" lon="1.1150345910855952"><ele>426.5</ele><time>2026-05-04T15:00:00Z</time></trkpt><trkpt lat="41.39837270657322" lon="1.1151938952833644"><ele>425.75</ele><time>2026-05-04T15:00:01Z</time></trkpt><trkpt lat="41.39836284201459" lon="1.1153512870094289"><ele>425.0</ele><time>2026-05-04T15:00:02Z</time></trkpt><trkpt lat="41.3983536355437" lon="1.1155084362548566"><ele>425.0</ele><time>2026-05-04T15:00:03Z</time></trkpt><trkpt lat="41.39834716897592" lon="1.1156672776050758"><ele>425.0</ele><time>2026-05-04T15:00:04Z</time></trkpt><trkpt lat="41.39834430930294" lon="1.11582600402885"><ele>425.0</ele><time>2026-05-04T15:00:05Z</time></trkpt><trkpt lat="41.39833975730392" lon="1.115984228809071"><ele>425.0</ele><time>2026-05-04T15:00:06Z</time></trkpt><trkpt lat="41.39833730724672" lon="1.1161423768334842"><ele>424.75</ele><time>2026-05-04T15:00:07Z</time></trkpt><trkpt lat="41.398335452247515" lon="1.1162999829841818"><ele>424.5</ele><time>2026-05-04T15:00:08Z</time></trkpt><trkpt lat="41.39833774055969" lon="1.1164589459140248"><ele>424.25</ele><time>2026-05-04T15:00:09Z</time></trkpt><trkpt lat="41.39834023756256" lon="1.1166164319853844"><ele>424.0</ele><time>2026-05-04T15:00:10Z</time></trkpt><trkpt lat="41.398345998868265" lon="1.1167775864627767"><ele>423.75</ele><time>2026-05-04T15:00:11Z</time></trkpt><trkpt lat="41.398353609843824" lon="1.1169382666035212"><ele>423.5</ele><time>2026-05-04T15:00:12Z</time></trkpt><trkpt lat="41.39835956336663" lon="1.117098849158202"><ele>423.25</ele><time>2026-05-04T15:00:13Z</time></trkpt><trkpt lat="41.39836821816579" lon="1.1172619074095"><ele>423.0</ele><time>2026-05-04T15:00:14Z</time></trkpt><trkpt lat="41.3983767088807" lon="1.1174240841292122"><ele>421.0</ele><time>2026-05-04T15:00:15Z</time></trkpt><trkpt lat="41.398389030437514" lon="1.1175865852605862"><ele>419.0</ele><time>2026-05-04T15:00:16Z</time></trkpt><trkpt lat="41.39840566094445" lon="1.117751648817375"><ele>417.0</ele><time>2026-05-04T15:00:17Z</time></trkpt><trkpt lat="41.3984234075163" lon="1.1179133385055569"><ele>415.0</ele><time>2026-05-04T15:00:18Z</time></trkpt><trkpt lat="41.39844183632569" lon="1.1180723564043702"><ele>415.0</ele><time>2026-05-04T15:00:19Z</time></trkpt><trkpt lat="41.398458382540674" lon="1.1182336325141724"><ele>415.0</ele><time>2026-05-04T15:00:20Z</time></trkpt><trkpt lat="41.398482823377066" lon="1.1183956573153746"><ele>415.0</ele><time>2026-05-04T15:00:21Z</time></trkpt><trkpt lat="41.39849626330046" lon="1.1185575029297545"><ele>415.0</ele><time>2026-05-04T15:00:22Z</time></trkpt><trkpt lat="41.39851905469792" lon="1.1187207987575367"><ele>413.75</ele><time>2026-05-04T15:00:23Z</time></trkpt><trkpt lat="41.39854249271131" lon="1.1188836238976276"><ele>412.5</ele><time>2026-05-04T15:00:24Z</time></trkpt><trkpt lat="41.39856234435304" lon="1.1190489290983234"><ele>411.25</ele><time>2026-05-04T15:00:25Z</time></trkpt><trkpt lat="41.39858467402046" lon="1.119216069248142"><ele>410.0</ele><time>2026-05-04T15:00:26Z</time></trkpt><trkpt lat="41.39860853567992" lon="1.1193839331185236"><ele>408.75</ele><time>2026-05-04T15:00:27Z</time></trkpt><trkpt lat="41.39863033400102" lon="1.1195416807399847"><ele>407.5</ele><time>2026-05-04T15:00:28Z</time></trkpt><trkpt lat="41.39865746128937" lon="1.1197085663376818"><ele>406.25</ele><time>2026-05-04T15:00:29Z</time></trkpt><trkpt lat="41.39867836480821" lon="1.1198753992129886"><ele>405.0</ele><time>2026-05-04T15:00:30Z</time></trkpt><trkpt lat="41.398701341216544" lon="1.120036033366852"><ele>404.0</ele><time>2026-05-04T15:00:31Z</time></trkpt><trkpt lat="41.398725725241114" lon="1.1201928929943334"><ele>403.0</ele><time>2026-05-04T15:00:32Z</time></trkpt><trkpt lat="41.39874646285431" lon="1.120357297931001"><ele>402.0</ele><time>2026-05-04T15:00:33Z</time></trkpt><trkpt lat="41.39876730728694" lon="1.120520724214349"><ele>401.0</ele><time>2026-05-04T15:00:34Z</time></trkpt><trkpt lat="41.398787630052524" lon="1.1206851288393889"><ele>400.75</ele><time>2026-05-04T15:00:35Z</time></trkpt><trkpt lat="41.398813358527086" lon="1.1208474159937807"><ele>400.5</ele><time>2026-05-04T15:00:36Z</time></trkpt><trkpt lat="41.39883669278373" lon="1.1210056400003945"><ele>400.25</ele><time>2026-05-04T15:00:37Z</time></trkpt><trkpt lat="41.39886027570351" lon="1.1211632462957257"><ele>400.0</ele><time>2026-05-04T15:00:38Z</time></trkpt><trkpt lat="41.39887838781836" lon="1.1213210374310667"><ele>400.5</ele><time>2026-05-04T15:00:39Z</time></trkpt><trkpt lat="41.39889717413362" lon="1.1214759418221623"><ele>401.0</ele><time>2026-05-04T15:00:40Z</time></trkpt><trkpt lat="41.39891720235913" lon="1.1216328965460662"><ele>401.5</ele><time>2026-05-04T15:00:41Z</time></trkpt><trkpt lat="41.39893473895464" lon="1.121793189393296"><ele>402.0</ele><time>2026-05-04T15:00:42Z</time></trkpt><trkpt lat="41.39895032354555" lon="1.1219480697831143"><ele>400.75</ele><time>2026-05-04T15:00:43Z</time></trkpt><trkpt lat="41.398959407307046" lon="1.1221060308772903"><ele>399.5</ele><time>2026-05-04T15:00:44Z</time></trkpt><trkpt lat="41.39896595086995" lon="1.122257811148031"><ele>398.25</ele><time>2026-05-04T15:00:45Z</time></trkpt><trkpt lat="41.3989619939208" lon="1.122413335649537"><ele>397.0</ele><time>2026-05-04T15:00:46Z</time></trkpt><trkpt lat="41.398950787261036" lon="1.122572500768579"><ele>396.25</ele><time>2026-05-04T15:00:47.001Z</time></trkpt><trkpt lat="41.39892777047583" lon="1.1227242919305918"><ele>395.5</ele><time>2026-05-04T15:00:48.001Z</time></trkpt><trkpt lat="41.398896505750265" lon="1.1228782977570089"><ele>394.75</ele><time>2026-05-04T15:00:49.001Z</time></trkpt><trkpt lat="41.39886838749016" lon="1.123027424005202"><ele>394.0</ele><time>2026-05-04T15:00:50.001Z</time></trkpt><trkpt lat="41.39883531252904" lon="1.1231788614861318"><ele>394.25</ele><time>2026-05-04T15:00:51.001Z</time></trkpt><trkpt lat="41.39878553186331" lon="1.1233223473021"><ele>394.5</ele><time>2026-05-04T15:00:52.001Z</time></trkpt><trkpt lat="41.398739710972215" lon="1.123463495633421"><ele>394.75</ele><time>2026-05-04T15:00:53.001Z</time></trkpt><trkpt lat="41.39868506600159" lon="1.12360071744989"><ele>395.0</ele><time>2026-05-04T15:00:54.001Z</time></trkpt><trkpt lat="41.39862566106254" lon="1.1237400732413703"><ele>395.0</ele><time>2026-05-04T15:00:55.001Z</time></trkpt><trkpt lat="41.39855754412907" lon="1.1238696568924043"><ele>395.0</ele><time>2026-05-04T15:00:56.001Z</time></trkpt><trkpt lat="41.398485969698406" lon="1.1239941540046259"><ele>395.0</ele><time>2026-05-04T15:00:57.001Z</time></trkpt><trkpt lat="41.39841157331553" lon="1.1241154175970314"><ele>395.0</ele><time>2026-05-04T15:00:58.001Z</time></trkpt><trkpt lat="41.39833511753167" lon="1.1242325714718908"><ele>395.0</ele><time>2026-05-04T15:00:59.001Z</time></trkpt><trkpt lat="41.39825565116443" lon="1.1243449556625724"><ele>395.0</ele><time>2026-05-04T15:01:00.001Z</time></trkpt><trkpt lat="41.398176625290176" lon="1.124454111016121"><ele>395.0</ele><time>2026-05-04T15:01:01.001Z</time></trkpt><trkpt lat="41.39809673070287" lon="1.1245661153676634"><ele>395.0</ele><time>2026-05-04T15:01:02.001Z</time></trkpt><trkpt lat="41.398016511764" lon="1.1246788282517857"><ele>395.25</ele><time>2026-05-04T15:01:03.001Z</time></trkpt><trkpt lat="41.39793241787128" lon="1.1247868144841024"><ele>395.5</ele><time>2026-05-04T15:01:04.001Z</time></trkpt><trkpt lat="41.39784390629536" lon="1.1248957423972035"><ele>395.75</ele><time>2026-05-04T15:01:05.001Z</time></trkpt><trkpt lat="41.39775675563472" lon="1.1250068927915717"><ele>396.0</ele><time>2026-05-04T15:01:06.001Z</time></trkpt><trkpt lat="41.39767549434877" lon="1.1251186445557064"><ele>396.0</ele><time>2026-05-04T15:01:07.001Z</time></trkpt><trkpt lat="41.397593530506995" lon="1.1252311249574212"><ele>396.0</ele><time>2026-05-04T15:01:08.001Z</time></trkpt><trkpt lat="41.39751035612875" lon="1.1253383534467853"><ele>396.0</ele><time>2026-05-04T15:01:09.001Z</time></trkpt><trkpt lat="41.397427647795915" lon="1.1254458034009125"><ele>396.0</ele><time>2026-05-04T15:01:10.001Z</time></trkpt><trkpt lat="41.39734523000856" lon="1.1255523510649725"><ele>396.0</ele><time>2026-05-04T15:01:11.001Z</time></trkpt><trkpt lat="41.39726363583613" lon="1.1256605935423716"><ele>396.0</ele><time>2026-05-04T15:01:12.001Z</time></trkpt><trkpt lat="41.39718077204247" lon="1.125766409796182"><ele>396.0</ele><time>2026-05-04T15:01:13.001Z</time></trkpt><trkpt lat="41.39709823313015" lon="1.1258749754183566"><ele>396.0</ele><time>2026-05-04T15:01:14.001Z</time></trkpt><trkpt lat="41.39701352585296" lon="1.1259841144205223"><ele>397.0</ele><time>2026-05-04T15:01:15.001Z</time></trkpt><trkpt lat="41.396926551241165" lon="1.1260884700763192"><ele>398.0</ele><time>2026-05-04T15:01:16.001Z</time></trkpt><trkpt lat="41.39684175032273" lon="1.126197717848133"><ele>399.0</ele><time>2026-05-04T15:01:17.001Z</time></trkpt><trkpt lat="41.396757832178345" lon="1.1263108518058194"><ele>400.0</ele><time>2026-05-04T15:01:18.001Z</time></trkpt><trkpt lat="41.39666998417648" lon="1.1264257938942734"><ele>400.0</ele><time>2026-05-04T15:01:19.001Z</time></trkpt><trkpt lat="41.396579215821355" lon="1.1265391509311473"><ele>400.0</ele><time>2026-05-04T15:01:20.001Z</time></trkpt><trkpt lat="41.39649256226902" lon="1.1266535807882065"><ele>400.0</ele><time>2026-05-04T15:01:21.001Z</time></trkpt><trkpt lat="41.39640223078712" lon="1.1267670573142068"><ele>400.0</ele><time>2026-05-04T15:01:22.001Z</time></trkpt><trkpt lat="41.396324283241064" lon="1.1268889233228228"><ele>397.0</ele><time>2026-05-04T15:01:23.001Z</time></trkpt><trkpt lat="41.39624257394757" lon="1.127008653900646"><ele>394.0</ele><time>2026-05-04T15:01:24.001Z</time></trkpt><trkpt lat="41.39615686477764" lon="1.1271314103012047"><ele>391.0</ele><time>2026-05-04T15:01:25.001Z</time></trkpt><trkpt lat="41.396070336081706" lon="1.127253020140665"><ele>388.0</ele><time>2026-05-04T15:01:26.001Z</time></trkpt><trkpt lat="41.39598645034587" lon="1.1273798516489433"><ele>387.5</ele><time>2026-05-04T15:01:27.001Z</time></trkpt><trkpt lat="41.39590127330041" lon="1.1275017858307017"><ele>387.0</ele><time>2026-05-04T15:01:28.001Z</time></trkpt><trkpt lat="41.3958204079837" lon="1.1276285812088633"><ele>386.5</ele><time>2026-05-04T15:01:29.001Z</time></trkpt><trkpt lat="41.395737063769424" lon="1.1277508763701836"><ele>386.0</ele><time>2026-05-04T15:01:30.001Z</time></trkpt><trkpt lat="41.39566303853247" lon="1.1278802932688394"><ele>386.0</ele><time>2026-05-04T15:01:31.001Z</time></trkpt><trkpt lat="41.39558640914801" lon="1.1280092153318462"><ele>386.0</ele><time>2026-05-04T15:01:32.001Z</time></trkpt><trkpt lat="41.395508243537016" lon="1.128139245571103"><ele>386.0</ele><time>2026-05-04T15:01:33.001Z</time></trkpt><trkpt lat="41.3954336318797" lon="1.128266400476367"><ele>386.0</ele><time>2026-05-04T15:01:34.001Z</time></trkpt><trkpt lat="41.39535267031583" lon="1.1283979463074665"><ele>384.5</ele><time>2026-05-04T15:01:35.001Z</time></trkpt><trkpt lat="41.39527308080409" lon="1.1285262801903755"><ele>383.0</ele><time>2026-05-04T15:01:36.001Z</time></trkpt><trkpt lat="41.39519311711195" lon="1.1286557199326719"><ele>381.5</ele><time>2026-05-04T15:01:37.001Z</time></trkpt><trkpt lat="41.39511843116837" lon="1.1287836121484525"><ele>380.0</ele><time>2026-05-04T15:01:38.001Z</time></trkpt><trkpt lat="41.395041016508685" lon="1.1289110259662987"><ele>380.0</ele><time>2026-05-04T15:01:39.001Z</time></trkpt><trkpt lat="41.39496803972107" lon="1.12904183895191"><ele>380.0</ele><time>2026-05-04T15:01:40.001Z</time></trkpt><trkpt lat="41.39489102723175" lon="1.129171754965548"><ele>380.0</ele><time>2026-05-04T15:01:41.001Z</time></trkpt><trkpt lat="41.39481538170411" lon="1.129303606756776"><ele>380.0</ele><time>2026-05-04T15:01:42.001Z</time></trkpt><trkpt lat="41.39473635069512" lon="1.129435297834558"><ele>379.25</ele><time>2026-05-04T15:01:43.001Z</time></trkpt><trkpt lat="41.39465957650253" lon="1.129563805049581"><ele>378.5</ele><time>2026-05-04T15:01:44.001Z</time></trkpt><trkpt lat="41.39458444472806" lon="1.1297005716072464"><ele>377.75</ele><time>2026-05-04T15:01:45.001Z</time></trkpt><trkpt lat="41.39450574801225" lon="1.1298302604277113"><ele>377.0</ele><time>2026-05-04T15:01:46.001Z</time></trkpt><trkpt lat="41.39442914468619" lon="1.1299611352359773"><ele>376.75</ele><time>2026-05-04T15:01:47.001Z</time></trkpt><trkpt lat="41.39435660526592" lon="1.1300903540086038"><ele>376.5</ele><time>2026-05-04T15:01:48.001Z</time></trkpt><trkpt lat="41.39428266537337" lon="1.1302209045477003"><ele>376.25</ele><time>2026-05-04T15:01:49.001Z</time></trkpt><trkpt lat="41.3942067054076" lon="1.1303408149391534"><ele>376.0</ele><time>2026-05-04T15:01:50.001Z</time></trkpt><trkpt lat="41.39413058981912" lon="1.1304632812079025"><ele>376.0</ele><time>2026-05-04T15:01:51.001Z</time></trkpt><trkpt lat="41.39405032396444" lon="1.1305848951603727"><ele>376.0</ele><time>2026-05-04T15:01:52.001Z</time></trkpt><trkpt lat="41.393973217569304" lon="1.1307056649768745"><ele>376.0</ele><time>2026-05-04T15:01:53.001Z</time></trkpt><trkpt lat="41.393898245293904" lon="1.1308271182648155"><ele>376.0</ele><time>2026-05-04T15:01:54.001Z</time></trkpt><trkpt lat="41.393818374214284" lon="1.13094630905296"><ele>375.25</ele><time>2026-05-04T15:01:55.001Z</time></trkpt><trkpt lat="41.39374070525708" lon="1.131072987137713"><ele>374.5</ele><time>2026-05-04T15:01:56.001Z</time></trkpt><trkpt lat="41.393657032241585" lon="1.1311907273389552"><ele>373.75</ele><time>2026-05-04T15:01:57.001Z</time></trkpt><trkpt lat="41.393574265255864" lon="1.1313056271834545"><ele>373.0</ele><time>2026-05-04T15:01:58.001Z</time></trkpt><trkpt lat="41.39349413340428" lon="1.1314266790885998"><ele>373.0</ele><time>2026-05-04T15:01:59.001Z</time></trkpt><trkpt lat="41.39341136837026" lon="1.1315447260063216"><ele>373.0</ele><time>2026-05-04T15:01:59.999Z</time></trkpt><trkpt lat="41.39332957072257" lon="1.1316600597108053"><ele>373.0</ele><time>2026-05-04T15:02:00.999Z</time></trkpt><trkpt lat="41.393249108518205" lon="1.1317724225909958"><ele>373.0</ele><time>2026-05-04T15:02:01.999Z</time></trkpt><trkpt lat="41.39316270360715" lon="1.1318845800618385"><ele>373.25</ele><time>2026-05-04T15:02:02.999Z</time></trkpt><trkpt lat="41.39307177647863" lon="1.1319888573196137"><ele>373.5</ele><time>2026-05-04T15:02:03.999Z</time></trkpt><trkpt lat="41.39298427566524" lon="1.1320985623925592"><ele>373.75</ele><time>2026-05-04T15:02:04.999Z</time></trkpt><trkpt lat="41.39290572277896" lon="1.132214743065341"><ele>374.0</ele><time>2026-05-04T15:02:05.999Z</time></trkpt><trkpt lat="41.39283095759072" lon="1.1323331902428593"><ele>373.25</ele><time>2026-05-04T15:02:06.999Z</time></trkpt><trkpt lat="41.39275708799935" lon="1.13245690117358"><ele>372.5</ele><time>2026-05-04T15:02:07.999Z</time></trkpt><trkpt lat="41.392685993297015" lon="1.1325881571516787"><ele>371.75</ele><time>2026-05-04T15:02:08.999Z</time></trkpt><trkpt lat="41.39262505665088" lon="1.132731491811354"><ele>371.0</ele><time>2026-05-04T15:02:09.999Z</time></trkpt><trkpt lat="41.39256723518009" lon="1.132862013587406"><ele>371.0</ele><time>2026-05-04T15:02:10.999Z</time></trkpt><trkpt lat="41.39250957100157" lon="1.1330104913532615"><ele>371.0</ele><time>2026-05-04T15:02:11.999Z</time></trkpt><trkpt lat="41.39245307431742" lon="1.1331454708471476"><ele>371.0</ele><time>2026-05-04T15:02:12.999Z</time></trkpt><trkpt lat="41.39240609558656" lon="1.1332958929033512"><ele>371.0</ele><time>2026-05-04T15:02:13.999Z</time></trkpt><trkpt lat="41.3923708719939" lon="1.133453419282626"><ele>371.25</ele><time>2026-05-04T15:02:14.999Z</time></trkpt><trkpt lat="41.392338705694634" lon="1.1336004505667174"><ele>371.5</ele><time>2026-05-04T15:02:15.999Z</time></trkpt><trkpt lat="41.3923003595715" lon="1.1337511053251546"><ele>371.75</ele><time>2026-05-04T15:02:17Z</time></trkpt><trkpt lat="41.39226397710603" lon="1.1339015048945384"><ele>372.0</ele><time>2026-05-04T15:02:18Z</time></trkpt><trkpt lat="41.3922394575146" lon="1.1340644826615767"><ele>371.5</ele><time>2026-05-04T15:02:19Z</time></trkpt><trkpt lat="41.39221235023041" lon="1.1342194364214753"><ele>371.0</ele><time>2026-05-04T15:02:20Z</time></trkpt><trkpt lat="41.3921829099223" lon="1.1343693130152308"><ele>370.5</ele><time>2026-05-04T15:02:21Z</time></trkpt><trkpt lat="41.392153740286446" lon="1.1345277959095217"><ele>370.0</ele><time>2026-05-04T15:02:22Z</time></trkpt><trkpt lat="41.39212413094055" lon="1.1346819976959572"><ele>369.25</ele><time>2026-05-04T15:02:23Z</time></trkpt><trkpt lat="41.39209199800576" lon="1.1348343141206265"><ele>368.5</ele><time>2026-05-04T15:02:24Z</time></trkpt><trkpt lat="41.392062466851115" lon="1.1349878296677975"><ele>367.75</ele><time>2026-05-04T15:02:25Z</time></trkpt><trkpt lat="41.39203372802284" lon="1.1351413499739285"><ele>367.0</ele><time>2026-05-04T15:02:26Z</time></trkpt><trkpt lat="41.39200689959357" lon="1.1352975025544811"><ele>367.0</ele><time>2026-05-04T15:02:27Z</time></trkpt><trkpt lat="41.39198067513008" lon="1.1354528365361696"><ele>367.0</ele><time>2026-05-04T15:02:28Z</time></trkpt><trkpt lat="41.391949188284876" lon="1.135601119348199"><ele>367.0</ele><time>2026-05-04T15:02:29Z</time></trkpt><trkpt lat="41.3919192229318" lon="1.1357557255193496"><ele>367.0</ele><time>2026-05-04T15:02:30Z</time></trkpt><trkpt lat="41.3918937814518" lon="1.1359109137140266"><ele>367.25</ele><time>2026-05-04T15:02:31Z</time></trkpt><trkpt lat="41.391863963169484" lon="1.136066250402876"><ele>367.5</ele><time>2026-05-04T15:02:32Z</time></trkpt><trkpt lat="41.391834965964165" lon="1.1362190767068716"><ele>367.75</ele><time>2026-05-04T15:02:33Z</time></trkpt><trkpt lat="41.391803748718374" lon="1.1363717516756282"><ele>368.0</ele><time>2026-05-04T15:02:34Z</time></trkpt><trkpt lat="41.391775704460024" lon="1.1365294274252316"><ele>368.0</ele><time>2026-05-04T15:02:35Z</time></trkpt><trkpt lat="41.391748638451375" lon="1.136681508424157"><ele>368.0</ele><time>2026-05-04T15:02:36Z</time></trkpt><trkpt lat="41.39171816147355" lon="1.136833990240247"><ele>368.0</ele><time>2026-05-04T15:02:37Z</time></trkpt><trkpt lat="41.39168604720667" lon="1.1369899246599415"><ele>368.0</ele><time>2026-05-04T15:02:38Z</time></trkpt><trkpt lat="41.39165873877569" lon="1.1371440612589097"><ele>368.0</ele><time>2026-05-04T15:02:39Z</time></trkpt><trkpt lat="41.39163377696535" lon="1.1373003675631272"><ele>368.0</ele><time>2026-05-04T15:02:40Z</time></trkpt><trkpt lat="41.39160265422164" lon="1.1374492255317732"><ele>368.0</ele><time>2026-05-04T15:02:41Z</time></trkpt><trkpt lat="41.39156545010277" lon="1.1375963547546477"><ele>368.0</ele><time>2026-05-04T15:02:42Z</time></trkpt><trkpt lat="41.39154063071507" lon="1.1377530559251414"><ele>368.0</ele><time>2026-05-04T15:02:43Z</time></trkpt><trkpt lat="41.391513713320805" lon="1.137908234304234"><ele>368.0</ele><time>2026-05-04T15:02:44Z</time></trkpt><trkpt lat="41.391477889248634" lon="1.138062427116448"><ele>368.0</ele><time>2026-05-04T15:02:45Z</time></trkpt><trkpt lat="41.3914508117424" lon="1.1382154495562586"><ele>368.0</ele><time>2026-05-04T15:02:46Z</time></trkpt><trkpt lat="41.391428340149616" lon="1.1383746993859658"><ele>368.0</ele><time>2026-05-04T15:02:47Z</time></trkpt><trkpt lat="41.391404403819095" lon="1.138531255397249"><ele>368.0</ele><time>2026-05-04T15:02:48Z</time></trkpt><trkpt lat="41.391375976815404" lon="1.1386840947869838"><ele>368.0</ele><time>2026-05-04T15:02:49Z</time></trkpt><trkpt lat="41.39134965545136" lon="1.1388371108898543"><ele>368.0</ele><time>2026-05-04T15:02:50Z</time></trkpt><trkpt lat="41.39131907917615" lon="1.1389926476417631"><ele>366.75</ele><time>2026-05-04T15:02:51Z</time></trkpt><trkpt lat="41.39129219433538" lon="1.139141888800069"><ele>365.5</ele><time>2026-05-04T15:02:52Z</time></trkpt><trkpt lat="41.39126297687288" lon="1.1392980522265057"><ele>364.25</ele><time>2026-05-04T15:02:53Z</time></trkpt><trkpt lat="41.391233993186546" lon="1.1394546712893412"><ele>363.0</ele><time>2026-05-04T15:02:54Z</time></trkpt><trkpt lat="41.39120596485927" lon="1.1396087979378662"><ele>363.0</ele><time>2026-05-04T15:02:55Z</time></trkpt><trkpt lat="41.391175967971556" lon="1.1397630179151297"><ele>363.0</ele><time>2026-05-04T15:02:56Z</time></trkpt><trkpt lat="41.39114074383074" lon="1.1399111298992715"><ele>363.0</ele><time>2026-05-04T15:02:57Z</time></trkpt><trkpt lat="41.3911061860135" lon="1.1400611092075725"><ele>363.0</ele><time>2026-05-04T15:02:58Z</time></trkpt><trkpt lat="41.39107420409305" lon="1.140216407221563"><ele>363.25</ele><time>2026-05-04T15:02:59Z</time></trkpt><trkpt lat="41.391051780168105" lon="1.1403761189593686"><ele>363.5</ele><time>2026-05-04T15:03:00Z</time></trkpt><trkpt lat="41.39104083479867" lon="1.1405458982732015"><ele>363.75</ele><time>2026-05-04T15:03:01Z</time></trkpt><trkpt lat="41.3909985243376" lon="1.1406823153385062"><ele>364.0</ele><time>2026-05-04T15:03:02Z</time></trkpt><trkpt lat="41.390961838114485" lon="1.1408322873196304"><ele>363.25</ele><time>2026-05-04T15:03:03Z</time></trkpt><trkpt lat="41.39093110410336" lon="1.1409881901828423"><ele>362.5</ele><time>2026-05-04T15:03:04Z</time></trkpt><trkpt lat="41.39090331703899" lon="1.1411397949513058"><ele>361.75</ele><time>2026-05-04T15:03:05Z</time></trkpt><trkpt lat="41.390874350185896" lon="1.141292632665638"><ele>361.0</ele><time>2026-05-04T15:03:06Z</time></trkpt><trkpt lat="41.3908548082653" lon="1.141444402121956"><ele>360.75</ele><time>2026-05-04T15:03:07Z</time></trkpt><trkpt lat="41.39083063198001" lon="1.141598658345881"><ele>360.5</ele><time>2026-05-04T15:03:08Z</time></trkpt><trkpt lat="41.39081125860826" lon="1.1417550718190654"><ele>360.25</ele><time>2026-05-04T15:03:09Z</time></trkpt><trkpt lat="41.390783871357186" lon="1.1419038140219908"><ele>360.0</ele><time>2026-05-04T15:03:10Z</time></trkpt><trkpt lat="41.39075209736031" lon="1.1420544850114072"><ele>360.0</ele><time>2026-05-04T15:03:11Z</time></trkpt><trkpt lat="41.39072871775284" lon="1.1422079840595276"><ele>360.0</ele><time>2026-05-04T15:03:12.001Z</time></trkpt><trkpt lat="41.390689773980675" lon="1.1423565340426352"><ele>360.0</ele><time>2026-05-04T15:03:13.001Z</time></trkpt><trkpt lat="41.39066694993527" lon="1.142512251906695"><ele>360.0</ele><time>2026-05-04T15:03:14.001Z</time></trkpt><trkpt lat="41.390635887218025" lon="1.1426673758909687"><ele>360.0</ele><time>2026-05-04T15:03:15.001Z</time></trkpt><trkpt lat="41.39060680739227" lon="1.142819212533458"><ele>360.0</ele><time>2026-05-04T15:03:16.001Z</time></trkpt><trkpt lat="41.39057580952355" lon="1.1429745747662297"><ele>360.0</ele><time>2026-05-04T15:03:17.001Z</time></trkpt><trkpt lat="41.39054900256484" lon="1.1431267261890625"><ele>360.0</ele><time>2026-05-04T15:03:18.001Z</time></trkpt><trkpt lat="41.39051785328342" lon="1.143279686735371"><ele>359.5</ele><time>2026-05-04T15:03:19.001Z</time></trkpt><trkpt lat="41.390487504302484" lon="1.1434372888434863"><ele>359.0</ele><time>2026-05-04T15:03:20.001Z</time></trkpt><trkpt lat="41.39045854050734" lon="1.1435905736146303"><ele>358.5</ele><time>2026-05-04T15:03:21.001Z</time></trkpt><trkpt lat="41.390432927866826" lon="1.1437475244076083"><ele>358.0</ele><time>2026-05-04T15:03:22.001Z</time></trkpt><trkpt lat="41.39040663118215" lon="1.1439015035682627"><ele>358.25</ele><time>2026-05-04T15:03:23.001Z</time></trkpt><trkpt lat="41.39037941033652" lon="1.1440577260590117"><ele>358.5</ele><time>2026-05-04T15:03:24.001Z</time></trkpt><trkpt lat="41.390346878525385" lon="1.1442121880535376"><ele>358.75</ele><time>2026-05-04T15:03:25.001Z</time></trkpt><trkpt lat="41.39032022075613" lon="1.144368199900872"><ele>359.0</ele><time>2026-05-04T15:03:26.001Z</time></trkpt><trkpt lat="41.39029347690114" lon="1.1445253707774163"><ele>359.0</ele><time>2026-05-04T15:03:27.001Z</time></trkpt><trkpt lat="41.39026333049476" lon="1.1446783168834611"><ele>359.0</ele><time>2026-05-04T15:03:28.001Z</time></trkpt><trkpt lat="41.39023138963562" lon="1.144828828027886"><ele>359.0</ele><time>2026-05-04T15:03:29.001Z</time></trkpt><trkpt lat="41.39020104560308" lon="1.144985093118751"><ele>359.0</ele><time>2026-05-04T15:03:30.001Z</time></trkpt><trkpt lat="41.390177693625496" lon="1.1451417246732318"><ele>359.0</ele><time>2026-05-04T15:03:31.001Z</time></trkpt><trkpt lat="41.39014935071861" lon="1.1452974813454504"><ele>359.0</ele><time>2026-05-04T15:03:32.001Z</time></trkpt><trkpt lat="41.39011881793944" lon="1.14544951340576"><ele>359.0</ele><time>2026-05-04T15:03:33.001Z</time></trkpt><trkpt lat="41.39009238578924" lon="1.1456085520129828"><ele>359.0</ele><time>2026-05-04T15:03:34.001Z</time></trkpt><trkpt lat="41.390063752995445" lon="1.145766605033172"><ele>359.0</ele><time>2026-05-04T15:03:35.001Z</time></trkpt><trkpt lat="41.39003407389668" lon="1.145920076802408"><ele>359.0</ele><time>2026-05-04T15:03:36.001Z</time></trkpt><trkpt lat="41.390005971509034" lon="1.146073046133345"><ele>359.0</ele><time>2026-05-04T15:03:37.001Z</time></trkpt><trkpt lat="41.38997817298045" lon="1.1462329061000487"><ele>359.0</ele><time>2026-05-04T15:03:38.001Z</time></trkpt><trkpt lat="41.38994962211616" lon="1.1463888019708113"><ele>359.0</ele><time>2026-05-04T15:03:39.001Z</time></trkpt><trkpt lat="41.38992018834556" lon="1.146541210932342"><ele>359.0</ele><time>2026-05-04T15:03:40.001Z</time></trkpt><trkpt lat="41.38988709189295" lon="1.1466936135512495"><ele>359.0</ele><time>2026-05-04T15:03:41.001Z</time></trkpt><trkpt lat="41.38986846608746" lon="1.1468567784006658"><ele>359.0</ele><time>2026-05-04T15:03:42.001Z</time></trkpt><trkpt lat="41.38984067391969" lon="1.147010574995127"><ele>359.0</ele><time>2026-05-04T15:03:43.001Z</time></trkpt><trkpt lat="41.38979895733006" lon="1.1471555473445674"><ele>359.0</ele><time>2026-05-04T15:03:44.001Z</time></trkpt><trkpt lat="41.38977681906781" lon="1.1473165430470373"><ele>359.0</ele><time>2026-05-04T15:03:45.001Z</time></trkpt><trkpt lat="41.38974772030871" lon="1.147471635815524"><ele>359.0</ele><time>2026-05-04T15:03:46.001Z</time></trkpt><trkpt lat="41.38972194295553" lon="1.1476294938822096"><ele>359.0</ele><time>2026-05-04T15:03:47.001Z</time></trkpt><trkpt lat="41.38969467267361" lon="1.147787514775574"><ele>359.0</ele><time>2026-05-04T15:03:48.001Z</time></trkpt><trkpt lat="41.38966552158384" lon="1.1479409714541506"><ele>359.0</ele><time>2026-05-04T15:03:49.001Z</time></trkpt><trkpt lat="41.38963408561012" lon="1.1480961760935644"><ele>359.0</ele><time>2026-05-04T15:03:50.001Z</time></trkpt><trkpt lat="41.38960628656212" lon="1.1482532348024912"><ele>358.5</ele><time>2026-05-04T15:03:51.001Z</time></trkpt><trkpt lat="41.38958283755652" lon="1.1484107804998689"><ele>358.0</ele><time>2026-05-04T15:03:52.001Z</time></trkpt><trkpt lat="41.38955379687772" lon="1.1485645472531487"><ele>357.5</ele><time>2026-05-04T15:03:53.001Z</time></trkpt><trkpt lat="41.38952546631547" lon="1.1487204209828765"><ele>357.0</ele><time>2026-05-04T15:03:54.001Z</time></trkpt><trkpt lat="41.38949410407656" lon="1.1488760877836692"><ele>357.0</ele><time>2026-05-04T15:03:55.001Z</time></trkpt><trkpt lat="41.38946302111596" lon="1.1490321950257432"><ele>357.0</ele><time>2026-05-04T15:03:56.001Z</time></trkpt><trkpt lat="41.38943386482605" lon="1.1491864212325802"><ele>357.0</ele><time>2026-05-04T15:03:57.001Z</time></trkpt><trkpt lat="41.389406358952876" lon="1.1493458769256604"><ele>357.0</ele><time>2026-05-04T15:03:58.001Z</time></trkpt><trkpt lat="41.38937997325143" lon="1.1495032221893149"><ele>356.5</ele><time>2026-05-04T15:03:59.001Z</time></trkpt><trkpt lat="41.38934997333372" lon="1.1496573512704873"><ele>356.0</ele><time>2026-05-04T15:04:00.001Z</time></trkpt><trkpt lat="41.38932075063408" lon="1.1498105808029455"><ele>355.5</ele><time>2026-05-04T15:04:01.001Z</time></trkpt><trkpt lat="41.38929294022814" lon="1.1499695930550649"><ele>355.0</ele><time>2026-05-04T15:04:02.001Z</time></trkpt><trkpt lat="41.38926671732996" lon="1.1501288477488172"><ele>354.75</ele><time>2026-05-04T15:04:03.001Z</time></trkpt><trkpt lat="41.38923958898375" lon="1.150284751842604"><ele>354.5</ele><time>2026-05-04T15:04:04.001Z</time></trkpt><trkpt lat="41.38921023648478" lon="1.150437900444675"><ele>354.25</ele><time>2026-05-04T15:04:05.001Z</time></trkpt><trkpt lat="41.38918039540913" lon="1.150593816182104"><ele>354.0</ele><time>2026-05-04T15:04:05.999Z</time></trkpt><trkpt lat="41.38915394138306" lon="1.1507491063972206"><ele>354.0</ele><time>2026-05-04T15:04:06.999Z</time></trkpt><trkpt lat="41.389124360617" lon="1.150904443097022"><ele>354.0</ele><time>2026-05-04T15:04:07.999Z</time></trkpt><trkpt lat="41.38909545618049" lon="1.15106164672318"><ele>354.0</ele><time>2026-05-04T15:04:08.999Z</time></trkpt><trkpt lat="41.38906411672695" lon="1.151217442532573"><ele>354.0</ele><time>2026-05-04T15:04:09.999Z</time></trkpt><trkpt lat="41.38903129986927" lon="1.1513716952808477"><ele>354.0</ele><time>2026-05-04T15:04:10.999Z</time></trkpt><trkpt lat="41.38899858467961" lon="1.1515285024602864"><ele>354.0</ele><time>2026-05-04T15:04:11.999Z</time></trkpt><trkpt lat="41.388967594979334" lon="1.15168579952012"><ele>354.0</ele><time>2026-05-04T15:04:12.999Z</time></trkpt><trkpt lat="41.38893751052353" lon="1.1518394274916826"><ele>354.0</ele><time>2026-05-04T15:04:13.999Z</time></trkpt><trkpt lat="41.38890713869825" lon="1.1519916279023301"><ele>353.5</ele><time>2026-05-04T15:04:14.999Z</time></trkpt><trkpt lat="41.388880609838665" lon="1.152143078481417"><ele>353.0</ele><time>2026-05-04T15:04:15.999Z</time></trkpt><trkpt lat="41.388856772812304" lon="1.152289714769091"><ele>352.5</ele><time>2026-05-04T15:04:17Z</time></trkpt><trkpt lat="41.388831114361004" lon="1.1524446036441012"><ele>352.0</ele><time>2026-05-04T15:04:18Z</time></trkpt><trkpt lat="41.38880481798322" lon="1.1525956604455014"><ele>351.0</ele><time>2026-05-04T15:04:19Z</time></trkpt><trkpt lat="41.38877498533129" lon="1.1527445406863372"><ele>350.0</ele><time>2026-05-04T15:04:20Z</time></trkpt><trkpt lat="41.38874820893111" lon="1.1528945331723572"><ele>349.0</ele><time>2026-05-04T15:04:21Z</time></trkpt><trkpt lat="41.388719495817455" lon="1.1530444143135012"><ele>348.0</ele><time>2026-05-04T15:04:22Z</time></trkpt><trkpt lat="41.38869157999227" lon="1.1531934676070714"><ele>347.75</ele><time>2026-05-04T15:04:23Z</time></trkpt><trkpt lat="41.38866514393886" lon="1.153339799758687"><ele>347.5</ele><time>2026-05-04T15:04:24Z</time></trkpt><trkpt lat="41.388642498539106" lon="1.1534865168244754"><ele>347.25</ele><time>2026-05-04T15:04:25Z</time></trkpt><trkpt lat="41.38861551611423" lon="1.1536338744394443"><ele>347.0</ele><time>2026-05-04T15:04:26Z</time></trkpt><trkpt lat="41.388587057370906" lon="1.1537787863484303"><ele>347.0</ele><time>2026-05-04T15:04:27Z</time></trkpt><trkpt lat="41.38855388579461" lon="1.1539074070674478"><ele>347.0</ele><time>2026-05-04T15:04:28Z</time></trkpt><trkpt lat="41.38852922633313" lon="1.1540388155405938"><ele>347.0</ele><time>2026-05-04T15:04:29Z</time></trkpt><trkpt lat="41.38850517246579" lon="1.1541669964343393"><ele>347.0</ele><time>2026-05-04T15:04:30Z</time></trkpt><trkpt lat="41.38848145177985" lon="1.1542934016860338"><ele>347.0</ele><time>2026-05-04T15:04:31Z</time></trkpt><trkpt lat="41.38844138779547" lon="1.1545048210645332"><ele>347.5</ele><time>2026-05-04T15:04:32Z</time></trkpt><trkpt lat="41.38841297500014" lon="1.1546548229804532"><ele>348.0</ele><time>2026-05-04T15:04:33Z</time></trkpt><trkpt lat="41.38838503832393" lon="1.1548023112353534"><ele>348.5</ele><time>2026-05-04T15:04:34Z</time></trkpt><trkpt lat="41.388357756634704" lon="1.1549463405227829"><ele>349.0</ele><time>2026-05-04T15:04:35Z</time></trkpt><trkpt lat="41.38833000366262" lon="1.1550945302218534"><ele>349.0</ele><time>2026-05-04T15:04:36Z</time></trkpt><trkpt lat="41.388318937700774" lon="1.1552436954186123"><ele>349.0</ele><time>2026-05-04T15:04:37Z</time></trkpt><trkpt lat="41.3882899655743" lon="1.1553909016801767"><ele>349.0</ele><time>2026-05-04T15:04:38Z</time></trkpt><trkpt lat="41.388252662258296" lon="1.1555363697980254"><ele>349.0</ele><time>2026-05-04T15:04:39Z</time></trkpt><trkpt lat="41.38822891081441" lon="1.1556827845401396"><ele>349.0</ele><time>2026-05-04T15:04:40Z</time></trkpt><trkpt lat="41.38819609681712" lon="1.1558272348487728"><ele>349.0</ele><time>2026-05-04T15:04:41Z</time></trkpt><trkpt lat="41.388171491747066" lon="1.1559702869450548"><ele>349.0</ele><time>2026-05-04T15:04:42Z</time></trkpt><trkpt lat="41.38814726847124" lon="1.1561184378957987"><ele>349.0</ele><time>2026-05-04T15:04:43Z</time></trkpt><trkpt lat="41.38811745333564" lon="1.1562672095678939"><ele>349.0</ele><time>2026-05-04T15:04:44Z</time></trkpt><trkpt lat="41.38809018474917" lon="1.1564234884880071"><ele>349.0</ele><time>2026-05-04T15:04:45Z</time></trkpt><trkpt lat="41.3880599527965" lon="1.1565690624499239"><ele>349.0</ele><time>2026-05-04T15:04:46Z</time></trkpt><trkpt lat="41.38803530883359" lon="1.1567184513461883"><ele>349.0</ele><time>2026-05-04T15:04:47Z</time></trkpt><trkpt lat="41.38800550340357" lon="1.1568700501434346"><ele>348.0</ele><time>2026-05-04T15:04:48Z</time></trkpt><trkpt lat="41.38797797537687" lon="1.1570239311733905"><ele>347.0</ele><time>2026-05-04T15:04:49Z</time></trkpt><trkpt lat="41.387951740177954" lon="1.1571780394008722"><ele>346.0</ele><time>2026-05-04T15:04:50Z</time></trkpt><trkpt lat="41.38792223869787" lon="1.1573348999296997"><ele>345.0</ele><time>2026-05-04T15:04:51Z</time></trkpt><trkpt lat="41.38789085530366" lon="1.157486540248343"><ele>344.75</ele><time>2026-05-04T15:04:52Z</time></trkpt><trkpt lat="41.38786261309895" lon="1.1576350038074277"><ele>344.5</ele><time>2026-05-04T15:04:53Z</time></trkpt><trkpt lat="41.38783583405921" lon="1.1577882135725832"><ele>344.25</ele><time>2026-05-04T15:04:54Z</time></trkpt><trkpt lat="41.38780774059431" lon="1.1579486619500916"><ele>344.0</ele><time>2026-05-04T15:04:55Z</time></trkpt><trkpt lat="41.3877823572247" lon="1.1581045835294936"><ele>344.25</ele><time>2026-05-04T15:04:56Z</time></trkpt><trkpt lat="41.38774653494632" lon="1.1582579894086367"><ele>344.5</ele><time>2026-05-04T15:04:57Z</time></trkpt><trkpt lat="41.38771618807108" lon="1.1584146930014998"><ele>344.75</ele><time>2026-05-04T15:04:58Z</time></trkpt><trkpt lat="41.38768615684008" lon="1.1585698411121568"><ele>345.0</ele><time>2026-05-04T15:04:59Z</time></trkpt><trkpt lat="41.387653287496875" lon="1.1587253040940617"><ele>345.0</ele><time>2026-05-04T15:05:00Z</time></trkpt><trkpt lat="41.38762484109802" lon="1.1588769246956043"><ele>345.0</ele><time>2026-05-04T15:05:01Z</time></trkpt><trkpt lat="41.38759693200493" lon="1.1590267619988857"><ele>345.0</ele><time>2026-05-04T15:05:02Z</time></trkpt><trkpt lat="41.38756618165872" lon="1.159178199955693"><ele>345.0</ele><time>2026-05-04T15:05:03Z</time></trkpt><trkpt lat="41.38753380946714" lon="1.1593292929254089"><ele>344.0</ele><time>2026-05-04T15:05:04Z</time></trkpt><trkpt lat="41.38749832409301" lon="1.1594826901898025"><ele>343.0</ele><time>2026-05-04T15:05:05Z</time></trkpt><trkpt lat="41.38746667005613" lon="1.159634834801328"><ele>342.0</ele><time>2026-05-04T15:05:06Z</time></trkpt><trkpt lat="41.38743287648302" lon="1.1597896850310452"><ele>341.0</ele><time>2026-05-04T15:05:07Z</time></trkpt><trkpt lat="41.38739633850561" lon="1.1599448142319708"><ele>341.0</ele><time>2026-05-04T15:05:08.001Z</time></trkpt><trkpt lat="41.3873578785608" lon="1.1600995872427171"><ele>341.0</ele><time>2026-05-04T15:05:09.001Z</time></trkpt><trkpt lat="41.38732151255392" lon="1.1602533256528478"><ele>341.0</ele><time>2026-05-04T15:05:10.001Z</time></trkpt><trkpt lat="41.38728881422173" lon="1.1604116856470879"><ele>341.0</ele><time>2026-05-04T15:05:11.001Z</time></trkpt><trkpt lat="41.38724896235288" lon="1.1605672011281767"><ele>340.75</ele><time>2026-05-04T15:05:12.001Z</time></trkpt><trkpt lat="41.38720450845126" lon="1.1607188244417646"><ele>340.5</ele><time>2026-05-04T15:05:13.001Z</time></trkpt><trkpt lat="41.38716444430846" lon="1.1608737299653573"><ele>340.25</ele><time>2026-05-04T15:05:14.001Z</time></trkpt><trkpt lat="41.387124059429226" lon="1.1610285383202938"><ele>340.0</ele><time>2026-05-04T15:05:15.001Z</time></trkpt><trkpt lat="41.38707013114516" lon="1.161177621023869"><ele>340.0</ele><time>2026-05-04T15:05:16.001Z</time></trkpt><trkpt lat="41.38703908834792" lon="1.1613370306969903"><ele>340.0</ele><time>2026-05-04T15:05:17.001Z</time></trkpt><trkpt lat="41.38698780004379" lon="1.161491067818054"><ele>340.0</ele><time>2026-05-04T15:05:18.001Z</time></trkpt><trkpt lat="41.386941914635806" lon="1.1616428783675565"><ele>340.0</ele><time>2026-05-04T15:05:19.001Z</time></trkpt><trkpt lat="41.38689390273223" lon="1.1617926056785166"><ele>339.25</ele><time>2026-05-04T15:05:20.001Z</time></trkpt><trkpt lat="41.38684384642463" lon="1.1619453349498075"><ele>338.5</ele><time>2026-05-04T15:05:21.001Z</time></trkpt><trkpt lat="41.38679036581719" lon="1.1621018266873329"><ele>337.75</ele><time>2026-05-04T15:05:22.001Z</time></trkpt><trkpt lat="41.38674334828617" lon="1.1622542829606906"><ele>337.0</ele><time>2026-05-04T15:05:23.001Z</time></trkpt><trkpt lat="41.3866885854957" lon="1.162403230119186"><ele>337.0</ele><time>2026-05-04T15:05:24.001Z</time></trkpt><trkpt lat="41.38664024187582" lon="1.1625513223749386"><ele>337.0</ele><time>2026-05-04T15:05:25.001Z</time></trkpt><trkpt lat="41.38658105826139" lon="1.162700006399272"><ele>337.0</ele><time>2026-05-04T15:05:26.001Z</time></trkpt><trkpt lat="41.38653013045555" lon="1.162854732356702"><ele>337.0</ele><time>2026-05-04T15:05:27.001Z</time></trkpt><trkpt lat="41.38647394150257" lon="1.1630011079769271"><ele>337.0</ele><time>2026-05-04T15:05:28.001Z</time></trkpt><trkpt lat="41.38641705875032" lon="1.163143570143863"><ele>337.0</ele><time>2026-05-04T15:05:29.001Z</time></trkpt><trkpt lat="41.3863629392237" lon="1.163293515091251"><ele>337.0</ele><time>2026-05-04T15:05:30.001Z</time></trkpt><trkpt lat="41.386304619674945" lon="1.1634365857494728"><ele>337.0</ele><time>2026-05-04T15:05:31.001Z</time></trkpt><trkpt lat="41.386247061646905" lon="1.163586602345307"><ele>336.75</ele><time>2026-05-04T15:05:32.001Z</time></trkpt><trkpt lat="41.3861871455826" lon="1.1637264319179286"><ele>336.5</ele><time>2026-05-04T15:05:33.001Z</time></trkpt><trkpt lat="41.386118689279364" lon="1.1638626891782362"><ele>336.25</ele><time>2026-05-04T15:05:34.001Z</time></trkpt><trkpt lat="41.38606051984857" lon="1.1640005345480293"><ele>336.0</ele><time>2026-05-04T15:05:35.001Z</time></trkpt><trkpt lat="41.38599860497615" lon="1.1641412438628247"><ele>336.0</ele><time>2026-05-04T15:05:36.001Z</time></trkpt><trkpt lat="41.38594185557409" lon="1.1642812723711564"><ele>336.0</ele><time>2026-05-04T15:05:37.001Z</time></trkpt><trkpt lat="41.385881955511714" lon="1.1644164544585118"><ele>336.0</ele><time>2026-05-04T15:05:38.001Z</time></trkpt><trkpt lat="41.38581697551572" lon="1.1645451187652376"><ele>336.0</ele><time>2026-05-04T15:05:39.001Z</time></trkpt><trkpt lat="41.38574769388735" lon="1.1646700495344722"><ele>336.0</ele><time>2026-05-04T15:05:40.001Z</time></trkpt><trkpt lat="41.38567599651531" lon="1.1648213877325633"><ele>336.0</ele><time>2026-05-04T15:05:41.001Z</time></trkpt><trkpt lat="41.385613419850245" lon="1.1649611007401148"><ele>336.0</ele><time>2026-05-04T15:05:42.001Z</time></trkpt><trkpt lat="41.385545856423796" lon="1.165083234786895"><ele>336.0</ele><time>2026-05-04T15:05:43.001Z</time></trkpt><trkpt lat="41.38547866800768" lon="1.1652122356449475"><ele>336.25</ele><time>2026-05-04T15:05:44.001Z</time></trkpt><trkpt lat="41.38541145679556" lon="1.1653398993994275"><ele>336.5</ele><time>2026-05-04T15:05:45.001Z</time></trkpt><trkpt lat="41.385344041099735" lon="1.1654681865782863"><ele>336.75</ele><time>2026-05-04T15:05:46.001Z</time></trkpt><trkpt lat="41.385273830672936" lon="1.1656013551976288"><ele>337.0</ele><time>2026-05-04T15:05:47.001Z</time></trkpt><trkpt lat="41.38519791534421" lon="1.1657228462792681"><ele>336.0</ele><time>2026-05-04T15:05:48.001Z</time></trkpt><trkpt lat="41.38512761196847" lon="1.1658464586669424"><ele>335.0</ele><time>2026-05-04T15:05:49.001Z</time></trkpt><trkpt lat="41.385058245930956" lon="1.1659828374300534"><ele>334.0</ele><time>2026-05-04T15:05:50.001Z</time></trkpt><trkpt lat="41.384984693745345" lon="1.1661062864274119"><ele>333.0</ele><time>2026-05-04T15:05:51.001Z</time></trkpt><trkpt lat="41.384911651379305" lon="1.1662286978939767"><ele>333.0</ele><time>2026-05-04T15:05:52.001Z</time></trkpt><trkpt lat="41.38483362575299" lon="1.1663524637656648"><ele>333.0</ele><time>2026-05-04T15:05:53.001Z</time></trkpt><trkpt lat="41.38475530381773" lon="1.1664705756477594"><ele>333.0</ele><time>2026-05-04T15:05:54.001Z</time></trkpt><trkpt lat="41.38466884896485" lon="1.1665827807636913"><ele>333.0</ele><time>2026-05-04T15:05:55.001Z</time></trkpt><trkpt lat="41.38458918477853" lon="1.1667041100542355"><ele>332.75</ele><time>2026-05-04T15:05:56.001Z</time></trkpt><trkpt lat="41.38450950873574" lon="1.1668242479174866"><ele>332.5</ele><time>2026-05-04T15:05:57.001Z</time></trkpt><trkpt lat="41.38442856773988" lon="1.1669454856778634"><ele>332.25</ele><time>2026-05-04T15:05:58.001Z</time></trkpt><trkpt lat="41.38434276132905" lon="1.1670605027762024"><ele>332.0</ele><time>2026-05-04T15:05:59.001Z</time></trkpt><trkpt lat="41.3842615951772" lon="1.1671825675255016"><ele>332.0</ele><time>2026-05-04T15:06:00.001Z</time></trkpt><trkpt lat="41.38417507702604" lon="1.1673031407370655"><ele>332.0</ele><time>2026-05-04T15:06:01.001Z</time></trkpt><trkpt lat="41.38409856875943" lon="1.1674247567002218"><ele>332.0</ele><time>2026-05-04T15:06:02.001Z</time></trkpt><trkpt lat="41.38401147617127" lon="1.1675366311497442"><ele>332.0</ele><time>2026-05-04T15:06:03.001Z</time></trkpt><trkpt lat="41.3839241451795" lon="1.167650748734771"><ele>332.0</ele><time>2026-05-04T15:06:04.001Z</time></trkpt><trkpt lat="41.38383964379714" lon="1.167771510545053"><ele>332.0</ele><time>2026-05-04T15:06:05.001Z</time></trkpt><trkpt lat="41.383748900244534" lon="1.167884400011893"><ele>332.0</ele><time>2026-05-04T15:06:06.001Z</time></trkpt><trkpt lat="41.38366003047189" lon="1.1679963810583016"><ele>332.0</ele><time>2026-05-04T15:06:07.001Z</time></trkpt><trkpt lat="41.383571614663" lon="1.1681019768084597"><ele>331.25</ele><time>2026-05-04T15:06:08.001Z</time></trkpt><trkpt lat="41.383484784452165" lon="1.16820955979761"><ele>330.5</ele><time>2026-05-04T15:06:09.001Z</time></trkpt><trkpt lat="41.38339224059659" lon="1.1683208845444986"><ele>329.75</ele><time>2026-05-04T15:06:10.001Z</time></trkpt><trkpt lat="41.38330676583135" lon="1.1684313890976505"><ele>329.0</ele><time>2026-05-04T15:06:11.002Z</time></trkpt><trkpt lat="41.38322004343079" lon="1.1685391506114007"><ele>329.0</ele><time>2026-05-04T15:06:12Z</time></trkpt><trkpt lat="41.38313374059121" lon="1.168640336806787"><ele>329.0</ele><time>2026-05-04T15:06:13Z</time></trkpt><trkpt lat="41.38304644317966" lon="1.1687445017590827"><ele>329.0</ele><time>2026-05-04T15:06:14Z</time></trkpt><trkpt lat="41.38295544346214" lon="1.1688459903815045"><ele>329.0</ele><time>2026-05-04T15:06:15Z</time></trkpt><trkpt lat="41.38286904102944" lon="1.1689471543656604"><ele>328.25</ele><time>2026-05-04T15:06:16Z</time></trkpt><trkpt lat="41.38277692512537" lon="1.1690477423377308"><ele>327.5</ele><time>2026-05-04T15:06:17Z</time></trkpt><trkpt lat="41.38268578309515" lon="1.1691493028334865"><ele>326.75</ele><time>2026-05-04T15:06:18Z</time></trkpt><trkpt lat="41.38259294369122" lon="1.169247946136172"><ele>326.0</ele><time>2026-05-04T15:06:19Z</time></trkpt><trkpt lat="41.38249889127989" lon="1.16934548222059"><ele>326.0</ele><time>2026-05-04T15:06:20Z</time></trkpt><trkpt lat="41.382410072347895" lon="1.1694461434125585"><ele>326.0</ele><time>2026-05-04T15:06:21Z</time></trkpt><trkpt lat="41.38231513007601" lon="1.1695395951423555"><ele>326.0</ele><time>2026-05-04T15:06:22Z</time></trkpt><trkpt lat="41.38221944063392" lon="1.169634470081247"><ele>326.0</ele><time>2026-05-04T15:06:23Z</time></trkpt><trkpt lat="41.38212241552348" lon="1.1697268652264174"><ele>326.25</ele><time>2026-05-04T15:06:24Z</time></trkpt><trkpt lat="41.382027181415665" lon="1.169821684785574"><ele>326.5</ele><time>2026-05-04T15:06:25Z</time></trkpt><trkpt lat="41.381927869155646" lon="1.16991633901537"><ele>326.75</ele><time>2026-05-04T15:06:26Z</time></trkpt><trkpt lat="41.38183094828166" lon="1.170004424497531"><ele>327.0</ele><time>2026-05-04T15:06:27Z</time></trkpt><trkpt lat="41.38173305726122" lon="1.1700983461816088"><ele>326.25</ele><time>2026-05-04T15:06:28Z</time></trkpt><trkpt lat="41.3816341395987" lon="1.1701844838855788"><ele>325.5</ele><time>2026-05-04T15:06:29Z</time></trkpt><trkpt lat="41.38153014374277" lon="1.1702589932389458"><ele>324.75</ele><time>2026-05-04T15:06:30Z</time></trkpt><trkpt lat="41.38142889649147" lon="1.1703422472468896"><ele>324.0</ele><time>2026-05-04T15:06:31Z</time></trkpt><trkpt lat="41.38133027783545" lon="1.1704358821499865"><ele>323.75</ele><time>2026-05-04T15:06:32Z</time></trkpt><trkpt lat="41.38123246783335" lon="1.1705218507250659"><ele>323.5</ele><time>2026-05-04T15:06:33Z</time></trkpt><trkpt lat="41.38113104867332" lon="1.1706026032979826"><ele>323.25</ele><time>2026-05-04T15:06:34Z</time></trkpt><trkpt lat="41.38103150957794" lon="1.1706829513923784"><ele>323.0</ele><time>2026-05-04T15:06:35Z</time></trkpt><trkpt lat="41.38093196662847" lon="1.1707642595616308"><ele>323.0</ele><time>2026-05-04T15:06:36Z</time></trkpt><trkpt lat="41.38083244307581" lon="1.170841861150898"><ele>323.0</ele><time>2026-05-04T15:06:37Z</time></trkpt><trkpt lat="41.38073213578678" lon="1.170920946826751"><ele>323.0</ele><time>2026-05-04T15:06:38Z</time></trkpt><trkpt lat="41.38063413769323" lon="1.171002561209801"><ele>323.0</ele><time>2026-05-04T15:06:39Z</time></trkpt><trkpt lat="41.38053654951442" lon="1.1710869655156613"><ele>323.25</ele><time>2026-05-04T15:06:40Z</time></trkpt><trkpt lat="41.3804328766623" lon="1.1711683050612494"><ele>323.5</ele><time>2026-05-04T15:06:41Z</time></trkpt><trkpt lat="41.380333625605914" lon="1.17125195017416"><ele>323.75</ele><time>2026-05-04T15:06:42Z</time></trkpt><trkpt lat="41.38023042406747" lon="1.1713342349836748"><ele>324.0</ele><time>2026-05-04T15:06:43Z</time></trkpt><trkpt lat="41.38012867537518" lon="1.171416043784003"><ele>324.0</ele><time>2026-05-04T15:06:44Z</time></trkpt><trkpt lat="41.38002846924467" lon="1.1714970102742146"><ele>324.0</ele><time>2026-05-04T15:06:45Z</time></trkpt><trkpt lat="41.37992934085278" lon="1.1715818578962933"><ele>324.0</ele><time>2026-05-04T15:06:46Z</time></trkpt><trkpt lat="41.379824490303726" lon="1.1716617006199805"><ele>324.0</ele><time>2026-05-04T15:06:47Z</time></trkpt><trkpt lat="41.37972002123469" lon="1.171739171289226"><ele>323.75</ele><time>2026-05-04T15:06:48Z</time></trkpt><trkpt lat="41.379616068079976" lon="1.1718168003259533"><ele>323.5</ele><time>2026-05-04T15:06:49Z</time></trkpt><trkpt lat="41.37951206322654" lon="1.171898940953457"><ele>323.25</ele><time>2026-05-04T15:06:50Z</time></trkpt><trkpt lat="41.379410397141754" lon="1.17197990550331"><ele>323.0</ele><time>2026-05-04T15:06:51Z</time></trkpt><trkpt lat="41.37930860017751" lon="1.1720584227672899"><ele>323.0</ele><time>2026-05-04T15:06:52Z</time></trkpt><trkpt lat="41.37920781319211" lon="1.1721374629582477"><ele>323.0</ele><time>2026-05-04T15:06:53Z</time></trkpt><trkpt lat="41.37910567786143" lon="1.1722190621198811"><ele>323.0</ele><time>2026-05-04T15:06:54Z</time></trkpt><trkpt lat="41.37900097067832" lon="1.1722979627757413"><ele>323.0</ele><time>2026-05-04T15:06:55.001Z</time></trkpt><trkpt lat="41.37889640855207" lon="1.17237696251878"><ele>322.25</ele><time>2026-05-04T15:06:56.001Z</time></trkpt><trkpt lat="41.37879416637771" lon="1.1724583659089998"><ele>321.5</ele><time>2026-05-04T15:06:57.001Z</time></trkpt><trkpt lat="41.37868952348082" lon="1.1725446980732892"><ele>320.75</ele><time>2026-05-04T15:06:58.001Z</time></trkpt><trkpt lat="41.37858690469325" lon="1.1726258839294774"><ele>320.0</ele><time>2026-05-04T15:06:59.001Z</time></trkpt><trkpt lat="41.37848486540399" lon="1.1727098216458414"><ele>320.0</ele><time>2026-05-04T15:07:00.001Z</time></trkpt><trkpt lat="41.3783799954115" lon="1.1727895464203746"><ele>320.0</ele><time>2026-05-04T15:07:01.001Z</time></trkpt><trkpt lat="41.37827781014471" lon="1.172868053788413"><ele>320.0</ele><time>2026-05-04T15:07:02.001Z</time></trkpt><trkpt lat="41.37817409718676" lon="1.1729508981285421"><ele>320.0</ele><time>2026-05-04T15:07:03.001Z</time></trkpt><trkpt lat="41.378073047676466" lon="1.173036370407051"><ele>319.5</ele><time>2026-05-04T15:07:04.001Z</time></trkpt><trkpt lat="41.37797394778461" lon="1.1731166362105772"><ele>319.0</ele><time>2026-05-04T15:07:05.001Z</time></trkpt><trkpt lat="41.37787099693274" lon="1.173196827342558"><ele>318.5</ele><time>2026-05-04T15:07:06.001Z</time></trkpt><trkpt lat="41.37776951241042" lon="1.1732748818979628"><ele>318.0</ele><time>2026-05-04T15:07:07.001Z</time></trkpt><trkpt lat="41.37766542528686" lon="1.173356128381982"><ele>318.0</ele><time>2026-05-04T15:07:08.001Z</time></trkpt><trkpt lat="41.37756594448516" lon="1.1734375139993123"><ele>318.0</ele><time>2026-05-04T15:07:09.001Z</time></trkpt><trkpt lat="41.377466256279426" lon="1.1735163992544986"><ele>318.0</ele><time>2026-05-04T15:07:10.001Z</time></trkpt><trkpt lat="41.377365358332014" lon="1.173596213635069"><ele>318.0</ele><time>2026-05-04T15:07:11.001Z</time></trkpt><trkpt lat="41.377262526540235" lon="1.173681459876561"><ele>318.75</ele><time>2026-05-04T15:07:12.001Z</time></trkpt><trkpt lat="41.37716257066729" lon="1.173763087515936"><ele>319.5</ele><time>2026-05-04T15:07:13.001Z</time></trkpt><trkpt lat="41.37705961897886" lon="1.1738460329917617"><ele>320.25</ele><time>2026-05-04T15:07:14.001Z</time></trkpt><trkpt lat="41.37696401878945" lon="1.1739324541291087"><ele>321.0</ele><time>2026-05-04T15:07:15.001Z</time></trkpt><trkpt lat="41.37686767864978" lon="1.1740192969951222"><ele>320.25</ele><time>2026-05-04T15:07:16.001Z</time></trkpt><trkpt lat="41.37677062297348" lon="1.1741053184017778"><ele>319.5</ele><time>2026-05-04T15:07:17.001Z</time></trkpt><trkpt lat="41.37667050020015" lon="1.174191739703205"><ele>318.75</ele><time>2026-05-04T15:07:18.001Z</time></trkpt><trkpt lat="41.376568738768455" lon="1.1742723127553938"><ele>318.0</ele><time>2026-05-04T15:07:19.001Z</time></trkpt><trkpt lat="41.3764706398772" lon="1.1743557730806686"><ele>318.0</ele><time>2026-05-04T15:07:20.001Z</time></trkpt><trkpt lat="41.37637636088555" lon="1.1744460539139552"><ele>318.0</ele><time>2026-05-04T15:07:21.001Z</time></trkpt><trkpt lat="41.37627941432775" lon="1.1745353843352242"><ele>318.0</ele><time>2026-05-04T15:07:22.001Z</time></trkpt><trkpt lat="41.37618171956314" lon="1.1746195011254463"><ele>318.0</ele><time>2026-05-04T15:07:23.001Z</time></trkpt><trkpt lat="41.376081544068505" lon="1.1746983573810468"><ele>318.5</ele><time>2026-05-04T15:07:24.001Z</time></trkpt><trkpt lat="41.375983407409606" lon="1.1747811701487116"><ele>319.0</ele><time>2026-05-04T15:07:25.001Z</time></trkpt><trkpt lat="41.37588687898343" lon="1.1748622621380012"><ele>319.5</ele><time>2026-05-04T15:07:26.001Z</time></trkpt><trkpt lat="41.375793742559615" lon="1.1749462437010778"><ele>320.0</ele><time>2026-05-04T15:07:27.001Z</time></trkpt><trkpt lat="41.37569461957378" lon="1.175024175611604"><ele>319.5</ele><time>2026-05-04T15:07:28.001Z</time></trkpt><trkpt lat="41.37559650278156" lon="1.175105519657629"><ele>319.0</ele><time>2026-05-04T15:07:29.001Z</time></trkpt><trkpt lat="41.375502736449626" lon="1.1751873851199017"><ele>318.5</ele><time>2026-05-04T15:07:30.001Z</time></trkpt><trkpt lat="41.37541174508337" lon="1.1752775129586879"><ele>318.0</ele><time>2026-05-04T15:07:31.001Z</time></trkpt><trkpt lat="41.37531812548949" lon="1.1753697397893557"><ele>318.0</ele><time>2026-05-04T15:07:32.001Z</time></trkpt><trkpt lat="41.375238951076305" lon="1.1754311196634364"><ele>318.0</ele><time>2026-05-04T15:07:33.001Z</time></trkpt><trkpt lat="41.375162983850785" lon="1.175436636030969"><ele>318.0</ele><time>2026-05-04T15:07:35.001Z</time></trkpt><trkpt lat="41.375092648671156" lon="1.175458609378637"><ele>318.0</ele><time>2026-05-04T15:07:37.001Z</time></trkpt><trkpt lat="41.37476985641953" lon="1.175897813350926"><ele>317.25</ele><time>2026-05-04T15:07:38.001Z</time></trkpt><trkpt lat="41.37467544515786" lon="1.1759947411563323"><ele>316.5</ele><time>2026-05-04T15:07:39.001Z</time></trkpt><trkpt lat="41.3745895683302" lon="1.176092902306535"><ele>315.75</ele><time>2026-05-04T15:07:40.001Z</time></trkpt><trkpt lat="41.374500970424535" lon="1.1761883560963045"><ele>315.0</ele><time>2026-05-04T15:07:41.001Z</time></trkpt><trkpt lat="41.37441416985029" lon="1.1762884812026253"><ele>315.0</ele><time>2026-05-04T15:07:42.001Z</time></trkpt><trkpt lat="41.374325187959194" lon="1.176381549845136"><ele>315.0</ele><time>2026-05-04T15:07:43.001Z</time></trkpt><trkpt lat="41.374240022607914" lon="1.1764774362031296"><ele>315.0</ele><time>2026-05-04T15:07:44.001Z</time></trkpt><trkpt lat="41.37415296709095" lon="1.1765725194433814"><ele>315.0</ele><time>2026-05-04T15:07:45.001Z</time></trkpt><trkpt lat="41.37406636609398" lon="1.1766763848103914"><ele>314.75</ele><time>2026-05-04T15:07:46.001Z</time></trkpt><trkpt lat="41.373984601006796" lon="1.1767796591307256"><ele>314.5</ele><time>2026-05-04T15:07:47.001Z</time></trkpt><trkpt lat="41.373896342735954" lon="1.1768807812577256"><ele>314.25</ele><time>2026-05-04T15:07:48.001Z</time></trkpt><trkpt lat="41.373812176508714" lon="1.1769837060253259"><ele>314.0</ele><time>2026-05-04T15:07:49.001Z</time></trkpt><trkpt lat="41.373725842188634" lon="1.1770851197699643"><ele>313.0</ele><time>2026-05-04T15:07:50.001Z</time></trkpt><trkpt lat="41.37364321737849" lon="1.1771889144888679"><ele>312.0</ele><time>2026-05-04T15:07:51.001Z</time></trkpt><trkpt lat="41.37355790936857" lon="1.1772912900716017"><ele>311.0</ele><time>2026-05-04T15:07:52.001Z</time></trkpt><trkpt lat="41.37346918329088" lon="1.1773969585919042"><ele>310.0</ele><time>2026-05-04T15:07:53.001Z</time></trkpt><trkpt lat="41.37338600503172" lon="1.1775032305870667"><ele>309.0</ele><time>2026-05-04T15:07:54.001Z</time></trkpt><trkpt lat="41.37330120311809" lon="1.1776145509244675"><ele>308.0</ele><time>2026-05-04T15:07:55.001Z</time></trkpt><trkpt lat="41.373218500929" lon="1.1777263540325824"><ele>307.0</ele><time>2026-05-04T15:07:56.001Z</time></trkpt><trkpt lat="41.373130052434846" lon="1.1778345018663672"><ele>306.0</ele><time>2026-05-04T15:07:57.001Z</time></trkpt><trkpt lat="41.37304492605" lon="1.1779458616679448"><ele>306.0</ele><time>2026-05-04T15:07:58.002Z</time></trkpt><trkpt lat="41.37295896433864" lon="1.1780508222301904"><ele>306.0</ele><time>2026-05-04T15:07:59.002Z</time></trkpt><trkpt lat="41.372872433040534" lon="1.1781614583128035"><ele>306.0</ele><time>2026-05-04T15:08:00.002Z</time></trkpt><trkpt lat="41.37278998766607" lon="1.1782678569447926"><ele>306.0</ele><time>2026-05-04T15:08:01.002Z</time></trkpt><trkpt lat="41.37270682156747" lon="1.1783776372317178"><ele>306.0</ele><time>2026-05-04T15:08:02.002Z</time></trkpt><trkpt lat="41.372621568600614" lon="1.1784886351483461"><ele>306.0</ele><time>2026-05-04T15:08:03.002Z</time></trkpt><trkpt lat="41.37253608142446" lon="1.1785901806332895"><ele>306.0</ele><time>2026-05-04T15:08:04.002Z</time></trkpt><trkpt lat="41.37245192758792" lon="1.1786953056797136"><ele>306.0</ele><time>2026-05-04T15:08:05.002Z</time></trkpt><trkpt lat="41.372369423972636" lon="1.1788068639948681"><ele>306.0</ele><time>2026-05-04T15:08:06.002Z</time></trkpt><trkpt lat="41.372285517453086" lon="1.178912890491108"><ele>306.0</ele><time>2026-05-04T15:08:07.002Z</time></trkpt><trkpt lat="41.372197584759654" lon="1.179020603417606"><ele>306.0</ele><time>2026-05-04T15:08:08.002Z</time></trkpt><trkpt lat="41.37211259089046" lon="1.179129103211429"><ele>306.0</ele><time>2026-05-04T15:08:09.002Z</time></trkpt><trkpt lat="41.37202947355047" lon="1.1792323918787637"><ele>305.75</ele><time>2026-05-04T15:08:10.002Z</time></trkpt><trkpt lat="41.37194663567639" lon="1.1793381892727226"><ele>305.5</ele><time>2026-05-04T15:08:11.002Z</time></trkpt><trkpt lat="41.37186164432064" lon="1.179448154462552"><ele>305.25</ele><time>2026-05-04T15:08:12.002Z</time></trkpt><trkpt lat="41.371773742686614" lon="1.1795548945599768"><ele>305.0</ele><time>2026-05-04T15:08:13.002Z</time></trkpt><trkpt lat="41.37168771315476" lon="1.1796579740668058"><ele>305.0</ele><time>2026-05-04T15:08:14.002Z</time></trkpt><trkpt lat="41.37160143713195" lon="1.1797649585385455"><ele>305.0</ele><time>2026-05-04T15:08:15.002Z</time></trkpt><trkpt lat="41.37151771092228" lon="1.1798737274848345"><ele>305.0</ele><time>2026-05-04T15:08:16.002Z</time></trkpt><trkpt lat="41.37143192307982" lon="1.179983404467785"><ele>305.0</ele><time>2026-05-04T15:08:17.002Z</time></trkpt><trkpt lat="41.37134528676156" lon="1.180090514510351"><ele>304.25</ele><time>2026-05-04T15:08:18Z</time></trkpt><trkpt lat="41.37125842983034" lon="1.1801997160343967"><ele>303.5</ele><time>2026-05-04T15:08:19Z</time></trkpt><trkpt lat="41.371171780368776" lon="1.1803081662438246"><ele>302.75</ele><time>2026-05-04T15:08:20Z</time></trkpt><trkpt lat="41.37108550627801" lon="1.1804198440011755"><ele>302.0</ele><time>2026-05-04T15:08:21Z</time></trkpt><trkpt lat="41.37100499243457" lon="1.1805320730638198"><ele>302.0</ele><time>2026-05-04T15:08:22Z</time></trkpt><trkpt lat="41.37091468577334" lon="1.1806398145248886"><ele>302.0</ele><time>2026-05-04T15:08:23Z</time></trkpt><trkpt lat="41.37082701698812" lon="1.180743760156621"><ele>302.0</ele><time>2026-05-04T15:08:24Z</time></trkpt><trkpt lat="41.37074059632387" lon="1.1808505330765202"><ele>302.0</ele><time>2026-05-04T15:08:25Z</time></trkpt><trkpt lat="41.37064951191355" lon="1.1809595586330097"><ele>301.75</ele><time>2026-05-04T15:08:26Z</time></trkpt><trkpt lat="41.37055937257003" lon="1.1810642507549656"><ele>301.5</ele><time>2026-05-04T15:08:27Z</time></trkpt><trkpt lat="41.370467576382225" lon="1.1811705442272091"><ele>301.25</ele><time>2026-05-04T15:08:28Z</time></trkpt><trkpt lat="41.37037465310513" lon="1.181272802474012"><ele>301.0</ele><time>2026-05-04T15:08:29Z</time></trkpt><trkpt lat="41.370279425203975" lon="1.181373381394847"><ele>301.0</ele><time>2026-05-04T15:08:30Z</time></trkpt><trkpt lat="41.370183025245886" lon="1.1814687254302887"><ele>301.0</ele><time>2026-05-04T15:08:31Z</time></trkpt><trkpt lat="41.370087464523834" lon="1.1815668512929252"><ele>301.0</ele><time>2026-05-04T15:08:32Z</time></trkpt><trkpt lat="41.369991365237645" lon="1.1816578061432101"><ele>301.0</ele><time>2026-05-04T15:08:33Z</time></trkpt><trkpt lat="41.369893706546264" lon="1.181742426998695"><ele>301.0</ele><time>2026-05-04T15:08:34Z</time></trkpt><trkpt lat="41.3697933444846" lon="1.1818256649765368"><ele>301.0</ele><time>2026-05-04T15:08:35Z</time></trkpt><trkpt lat="41.36969002640089" lon="1.1819074135486056"><ele>301.0</ele><time>2026-05-04T15:08:36Z</time></trkpt><trkpt lat="41.36958779441524" lon="1.1819845486945124"><ele>301.0</ele><time>2026-05-04T15:08:37Z</time></trkpt><trkpt lat="41.3694866316615" lon="1.1820592945272907"><ele>300.75</ele><time>2026-05-04T15:08:38Z</time></trkpt><trkpt lat="41.369384055305716" lon="1.1821272894648795"><ele>300.5</ele><time>2026-05-04T15:08:39Z</time></trkpt><trkpt lat="41.369280213076124" lon="1.1821919296995278"><ele>300.25</ele><time>2026-05-04T15:08:40Z</time></trkpt><trkpt lat="41.36917439954665" lon="1.1822544589125643"><ele>300.0</ele><time>2026-05-04T15:08:41Z</time></trkpt><trkpt lat="41.36906863591093" lon="1.1823157674378288"><ele>300.0</ele><time>2026-05-04T15:08:42Z</time></trkpt><trkpt lat="41.36896043848808" lon="1.182373610793138"><ele>300.0</ele><time>2026-05-04T15:08:43Z</time></trkpt><trkpt lat="41.36885072202019" lon="1.1824276858927865"><ele>300.0</ele><time>2026-05-04T15:08:44Z</time></trkpt><trkpt lat="41.36874052545247" lon="1.1824807469744587"><ele>300.0</ele><time>2026-05-04T15:08:45Z</time></trkpt><trkpt lat="41.3686330064877" lon="1.1825298475336723"><ele>300.0</ele><time>2026-05-04T15:08:46Z</time></trkpt><trkpt lat="41.3685219959154" lon="1.1825765681595153"><ele>300.0</ele><time>2026-05-04T15:08:47Z</time></trkpt><trkpt lat="41.368413776543775" lon="1.1826193183552296"><ele>300.0</ele><time>2026-05-04T15:08:48Z</time></trkpt><trkpt lat="41.36829918597161" lon="1.1826598116591054"><ele>300.0</ele><time>2026-05-04T15:08:49Z</time></trkpt><trkpt lat="41.368186727754036" lon="1.182695419525682"><ele>300.0</ele><time>2026-05-04T15:08:50Z</time></trkpt><trkpt lat="41.36807669748258" lon="1.1827268017417767"><ele>300.0</ele><time>2026-05-04T15:08:51Z</time></trkpt><trkpt lat="41.367961958831394" lon="1.1827559767659477"><ele>300.0</ele><time>2026-05-04T15:08:52Z</time></trkpt><trkpt lat="41.36785771771428" lon="1.1827845189137147"><ele>300.0</ele><time>2026-05-04T15:08:53Z</time></trkpt><trkpt lat="41.367765997805854" lon="1.1827890435320454"><ele>300.0</ele><time>2026-05-04T15:08:54Z</time></trkpt><trkpt lat="41.36769730777" lon="1.182805371706268"><ele>300.75</ele><time>2026-05-04T15:08:55Z</time></trkpt><trkpt lat="41.367531398579864" lon="1.1828355729439293"><ele>301.5</ele><time>2026-05-04T15:08:56Z</time></trkpt><trkpt lat="41.36741616129056" lon="1.1828570052377188"><ele>302.25</ele><time>2026-05-04T15:08:57.001Z</time></trkpt><trkpt lat="41.36731204763951" lon="1.1828982362007947"><ele>303.0</ele><time>2026-05-04T15:08:58.001Z</time></trkpt><trkpt lat="41.36720122819802" lon="1.1828969793052804"><ele>302.4</ele><time>2026-05-04T15:08:59.001Z</time></trkpt><trkpt lat="41.36709578654123" lon="1.1829177878168329"><ele>301.8</ele><time>2026-05-04T15:09:00.001Z</time></trkpt><trkpt lat="41.36698876081952" lon="1.1829420405611186"><ele>301.2</ele><time>2026-05-04T15:09:01.001Z</time></trkpt><trkpt lat="41.36688573343803" lon="1.1829791011420114"><ele>300.6</ele><time>2026-05-04T15:09:02.001Z</time></trkpt><trkpt lat="41.366779946682506" lon="1.1830032669954713"><ele>300.0</ele><time>2026-05-04T15:09:03.001Z</time></trkpt><trkpt lat="41.36667495494551" lon="1.1830343480052767"><ele>300.0</ele><time>2026-05-04T15:09:04.001Z</time></trkpt><trkpt lat="41.36656959247644" lon="1.183063849795633"><ele>300.0</ele><time>2026-05-04T15:09:05.001Z</time></trkpt><trkpt lat="41.36646562460891" lon="1.1830970386256798"><ele>300.0</ele><time>2026-05-04T15:09:06.001Z</time></trkpt><trkpt lat="41.366366989854676" lon="1.1831220482340676"><ele>300.0</ele><time>2026-05-04T15:09:07.001Z</time></trkpt><trkpt lat="41.36626261774226" lon="1.183165354817168"><ele>300.0</ele><time>2026-05-04T15:09:08.001Z</time></trkpt><trkpt lat="41.36616146288696" lon="1.1832066126126457"><ele>301.2</ele><time>2026-05-04T15:09:09.001Z</time></trkpt><trkpt lat="41.36606038759044" lon="1.183249441787505"><ele>302.4</ele><time>2026-05-04T15:09:10.001Z</time></trkpt><trkpt lat="41.365961878344514" lon="1.1832952570551287"><ele>303.6</ele><time>2026-05-04T15:09:11.001Z</time></trkpt><trkpt lat="41.365862758263724" lon="1.183347710137778"><ele>304.8</ele><time>2026-05-04T15:09:12.001Z</time></trkpt><trkpt lat="41.36576819589551" lon="1.183396540059394"><ele>306.0</ele><time>2026-05-04T15:09:13.001Z</time></trkpt><trkpt lat="41.365669035938176" lon="1.1834527286184002"><ele>306.0</ele><time>2026-05-04T15:09:14.001Z</time></trkpt><trkpt lat="41.36557513847847" lon="1.183504818418412"><ele>306.0</ele><time>2026-05-04T15:09:15.001Z</time></trkpt><trkpt lat="41.3654795020279" lon="1.1835617472241136"><ele>306.0</ele><time>2026-05-04T15:09:16.001Z</time></trkpt><trkpt lat="41.36538583565297" lon="1.183621226619528"><ele>306.0</ele><time>2026-05-04T15:09:17.001Z</time></trkpt><trkpt lat="41.36529282957146" lon="1.1836842891409862"><ele>306.0</ele><time>2026-05-04T15:09:18.001Z</time></trkpt><trkpt lat="41.365201989515555" lon="1.1837449869246714"><ele>307.40000000000003</ele><time>2026-05-04T15:09:19.001Z</time></trkpt><trkpt lat="41.3651105181197" lon="1.1838120741280298"><ele>308.8</ele><time>2026-05-04T15:09:20.001Z</time></trkpt><trkpt lat="41.36502016201276" lon="1.1838831116016686"><ele>310.20000000000005</ele><time>2026-05-04T15:09:21.001Z</time></trkpt><trkpt lat="41.36493212451118" lon="1.1839568625870225"><ele>311.6</ele><time>2026-05-04T15:09:22.001Z</time></trkpt><trkpt lat="41.36484356429614" lon="1.1840286133746483"><ele>313.0</ele><time>2026-05-04T15:09:23.001Z</time></trkpt><trkpt lat="41.36475672742588" lon="1.1841046729727451"><ele>314.2</ele><time>2026-05-04T15:09:24.001Z</time></trkpt><trkpt lat="41.36467262958307" lon="1.1841802494539644"><ele>315.4</ele><time>2026-05-04T15:09:25.001Z</time></trkpt><trkpt lat="41.364589639131616" lon="1.18426152890555"><ele>316.59999999999997</ele><time>2026-05-04T15:09:26.001Z</time></trkpt><trkpt lat="41.36450761476446" lon="1.1843404133618305"><ele>317.8</ele><time>2026-05-04T15:09:27.001Z</time></trkpt><trkpt lat="41.36442478551394" lon="1.1844239198537718"><ele>319.0</ele><time>2026-05-04T15:09:28.001Z</time></trkpt><trkpt lat="41.36434356184901" lon="1.184507554910466"><ele>319.0</ele><time>2026-05-04T15:09:29.001Z</time></trkpt><trkpt lat="41.36426203404448" lon="1.1845926307235803"><ele>319.0</ele><time>2026-05-04T15:09:30.001Z</time></trkpt><trkpt lat="41.364181770926834" lon="1.1846743817196363"><ele>319.0</ele><time>2026-05-04T15:09:31.001Z</time></trkpt><trkpt lat="41.36410229619874" lon="1.184761269653958"><ele>319.0</ele><time>2026-05-04T15:09:32.001Z</time></trkpt><trkpt lat="41.36402559289578" lon="1.184854064430515"><ele>319.0</ele><time>2026-05-04T15:09:33.001Z</time></trkpt><trkpt lat="41.36395731659712" lon="1.1849515474493066"><ele>318.59999999999997</ele><time>2026-05-04T15:09:34.001Z</time></trkpt><trkpt lat="41.36388611430018" lon="1.185051147576708"><ele>318.2</ele><time>2026-05-04T15:09:35.001Z</time></trkpt><trkpt lat="41.36381735458223" lon="1.1851536221667325"><ele>317.79999999999995</ele><time>2026-05-04T15:09:36.001Z</time></trkpt><trkpt lat="41.36375425356266" lon="1.1852608200565962"><ele>317.4</ele><time>2026-05-04T15:09:37.001Z</time></trkpt><trkpt lat="41.36368320388204" lon="1.1853675910449275"><ele>317.0</ele><time>2026-05-04T15:09:38.001Z</time></trkpt><trkpt lat="41.36361486360608" lon="1.1854712201450237"><ele>317.6</ele><time>2026-05-04T15:09:39.001Z</time></trkpt><trkpt lat="41.36354837840745" lon="1.1855820955518068"><ele>318.2</ele><time>2026-05-04T15:09:40.001Z</time></trkpt><trkpt lat="41.36348334345794" lon="1.185690985532682"><ele>318.8</ele><time>2026-05-04T15:09:41.001Z</time></trkpt><trkpt lat="41.363418903591786" lon="1.1858074920639752"><ele>319.4</ele><time>2026-05-04T15:09:42.001Z</time></trkpt><trkpt lat="41.3633556695456" lon="1.1859246405205348"><ele>320.0</ele><time>2026-05-04T15:09:43.001Z</time></trkpt><trkpt lat="41.36329764456435" lon="1.1860401047539035"><ele>320.0</ele><time>2026-05-04T15:09:44.001Z</time></trkpt><trkpt lat="41.363240784918275" lon="1.1861643586195054"><ele>320.0</ele><time>2026-05-04T15:09:45.001Z</time></trkpt><trkpt lat="41.363180899893145" lon="1.1862882481021217"><ele>320.0</ele><time>2026-05-04T15:09:46.001Z</time></trkpt><trkpt lat="41.36311913372846" lon="1.1864163293229497"><ele>320.0</ele><time>2026-05-04T15:09:47.001Z</time></trkpt><trkpt lat="41.363068847814475" lon="1.186532212982143"><ele>320.0</ele><time>2026-05-04T15:09:48.001Z</time></trkpt><trkpt lat="41.36302398306498" lon="1.1866433868906758"><ele>320.75</ele><time>2026-05-04T15:09:49.001Z</time></trkpt><trkpt lat="41.36295846996594" lon="1.186809017690179"><ele>321.5</ele><time>2026-05-04T15:09:50.001Z</time></trkpt><trkpt lat="41.362916898012486" lon="1.186970957257202"><ele>322.25</ele><time>2026-05-04T15:09:51.001Z</time></trkpt><trkpt lat="41.362847079115326" lon="1.1870654114702077"><ele>323.0</ele><time>2026-05-04T15:09:52.001Z</time></trkpt><trkpt lat="41.362791077337874" lon="1.187194598187743"><ele>323.0</ele><time>2026-05-04T15:09:53.001Z</time></trkpt><trkpt lat="41.36273611165605" lon="1.1873369830474103"><ele>323.0</ele><time>2026-05-04T15:09:54.001Z</time></trkpt><trkpt lat="41.36268697173071" lon="1.1874464796134334"><ele>323.0</ele><time>2026-05-04T15:09:55.001Z</time></trkpt><trkpt lat="41.36262968989044" lon="1.1875751431376584"><ele>323.0</ele><time>2026-05-04T15:09:56.001Z</time></trkpt><trkpt lat="41.362570977765245" lon="1.1876942570686662"><ele>323.0</ele><time>2026-05-04T15:09:57.001Z</time></trkpt><trkpt lat="41.362509633901624" lon="1.1878081005636123"><ele>323.2</ele><time>2026-05-04T15:09:58.001Z</time></trkpt><trkpt lat="41.36245643215886" lon="1.1879276431078343"><ele>323.4</ele><time>2026-05-04T15:09:59.001Z</time></trkpt><trkpt lat="41.36240603649835" lon="1.1880428933438754"><ele>323.59999999999997</ele><time>2026-05-04T15:10:00.001Z</time></trkpt><trkpt lat="41.362353357151385" lon="1.1881578107195745"><ele>323.79999999999995</ele><time>2026-05-04T15:10:01.001Z</time></trkpt><trkpt lat="41.36230484032494" lon="1.1882729920257948"><ele>324.0</ele><time>2026-05-04T15:10:02.001Z</time></trkpt><trkpt lat="41.36225748040958" lon="1.1883845317987995"><ele>324.0</ele><time>2026-05-04T15:10:03.001Z</time></trkpt><trkpt lat="41.362205976144175" lon="1.1884931627218"><ele>324.0</ele><time>2026-05-04T15:10:04.001Z</time></trkpt><trkpt lat="41.36215573813559" lon="1.1886033137759833"><ele>324.0</ele><time>2026-05-04T15:10:05.001Z</time></trkpt><trkpt lat="41.362109469229054" lon="1.1887097011048766"><ele>324.0</ele><time>2026-05-04T15:10:06.002Z</time></trkpt><trkpt lat="41.362061542156894" lon="1.1888246173237877"><ele>324.0</ele><time>2026-05-04T15:10:07.002Z</time></trkpt><trkpt lat="41.362015049062315" lon="1.188936035123218"><ele>324.79999999999995</ele><time>2026-05-04T15:10:08.002Z</time></trkpt><trkpt lat="41.36197077267949" lon="1.1890454278700744"><ele>325.59999999999997</ele><time>2026-05-04T15:10:09.002Z</time></trkpt><trkpt lat="41.361922164339056" lon="1.1891502677496646"><ele>326.4</ele><time>2026-05-04T15:10:10.002Z</time></trkpt><trkpt lat="41.361872798108735" lon="1.1892639086657708"><ele>327.2</ele><time>2026-05-04T15:10:11.002Z</time></trkpt><trkpt lat="41.361826646899566" lon="1.1893741525982422"><ele>328.0</ele><time>2026-05-04T15:10:12.002Z</time></trkpt><trkpt lat="41.361780628982146" lon="1.189483095934926"><ele>328.0</ele><time>2026-05-04T15:10:13.002Z</time></trkpt><trkpt lat="41.36173305944286" lon="1.1895851236353254"><ele>328.0</ele><time>2026-05-04T15:10:14.002Z</time></trkpt><trkpt lat="41.361684828062074" lon="1.1896900904048304"><ele>328.0</ele><time>2026-05-04T15:10:15.002Z</time></trkpt><trkpt lat="41.3616374930865" lon="1.1897992162456021"><ele>328.0</ele><time>2026-05-04T15:10:16.002Z</time></trkpt><trkpt lat="41.36159442987738" lon="1.1899147999023023"><ele>328.0</ele><time>2026-05-04T15:10:17.002Z</time></trkpt><trkpt lat="41.361548765351" lon="1.1900161384352357"><ele>329.2</ele><time>2026-05-04T15:10:18.002Z</time></trkpt><trkpt lat="41.361503295418025" lon="1.1901241536941782"><ele>330.4</ele><time>2026-05-04T15:10:19.002Z</time></trkpt><trkpt lat="41.36145619168554" lon="1.1902279624486227"><ele>331.59999999999997</ele><time>2026-05-04T15:10:20.002Z</time></trkpt><trkpt lat="41.36140976933776" lon="1.190335763088809"><ele>332.79999999999995</ele><time>2026-05-04T15:10:21.002Z</time></trkpt><trkpt lat="41.3613611600241" lon="1.1904453184316999"><ele>334.0</ele><time>2026-05-04T15:10:22.002Z</time></trkpt><trkpt lat="41.36131498148999" lon="1.1905539248556412"><ele>336.0</ele><time>2026-05-04T15:10:23.002Z</time></trkpt><trkpt lat="41.3612696567634" lon="1.1906623063411916"><ele>338.0</ele><time>2026-05-04T15:10:24Z</time></trkpt><trkpt lat="41.361223308181216" lon="1.190770977930048"><ele>340.0</ele><time>2026-05-04T15:10:25Z</time></trkpt><trkpt lat="41.361174226464776" lon="1.1908799944899717"><ele>342.0</ele><time>2026-05-04T15:10:26Z</time></trkpt><trkpt lat="41.36112605440992" lon="1.1909830478500862"><ele>344.0</ele><time>2026-05-04T15:10:27Z</time></trkpt><trkpt lat="41.361079857010374" lon="1.1910923803865372"><ele>344.4</ele><time>2026-05-04T15:10:28Z</time></trkpt><trkpt lat="41.36103401106651" lon="1.1911997445685203"><ele>344.79999999999995</ele><time>2026-05-04T15:10:29Z</time></trkpt><trkpt lat="41.36098477482426" lon="1.1913100215175658"><ele>345.20000000000005</ele><time>2026-05-04T15:10:30Z</time></trkpt><trkpt lat="41.36094072042257" lon="1.1914150648316222"><ele>345.6</ele><time>2026-05-04T15:10:31Z</time></trkpt><trkpt lat="41.36089007560983" lon="1.191525073055927"><ele>346.0</ele><time>2026-05-04T15:10:32Z</time></trkpt><trkpt lat="41.36084344590383" lon="1.1916335095900488"><ele>346.0</ele><time>2026-05-04T15:10:33Z</time></trkpt><trkpt lat="41.36079949396526" lon="1.1917421183492642"><ele>346.0</ele><time>2026-05-04T15:10:34Z</time></trkpt><trkpt lat="41.36075353778396" lon="1.1918532763093286"><ele>346.0</ele><time>2026-05-04T15:10:35Z</time></trkpt><trkpt lat="41.36070462062981" lon="1.191966212900263"><ele>346.0</ele><time>2026-05-04T15:10:36Z</time></trkpt><trkpt lat="41.36065356319003" lon="1.1920730374384814"><ele>346.0</ele><time>2026-05-04T15:10:37Z</time></trkpt><trkpt lat="41.36060437228741" lon="1.1921835639221237"><ele>346.0</ele><time>2026-05-04T15:10:38Z</time></trkpt><trkpt lat="41.36055600639292" lon="1.1922884657227435"><ele>346.0</ele><time>2026-05-04T15:10:39Z</time></trkpt><trkpt lat="41.36050917539168" lon="1.192397327820994"><ele>346.0</ele><time>2026-05-04T15:10:40Z</time></trkpt><trkpt lat="41.360461720194515" lon="1.1925058052519628"><ele>346.0</ele><time>2026-05-04T15:10:41Z</time></trkpt><trkpt lat="41.360414310183096" lon="1.1926175197437479"><ele>346.0</ele><time>2026-05-04T15:10:42Z</time></trkpt><trkpt lat="41.36037088430725" lon="1.1927237723767898"><ele>348.6</ele><time>2026-05-04T15:10:43Z</time></trkpt><trkpt lat="41.36032446487346" lon="1.1928312343281906"><ele>351.20000000000005</ele><time>2026-05-04T15:10:44Z</time></trkpt><trkpt lat="41.36027389062657" lon="1.192940966692974"><ele>353.79999999999995</ele><time>2026-05-04T15:10:45Z</time></trkpt><trkpt lat="41.36022518851127" lon="1.1930468142100776"><ele>356.4</ele><time>2026-05-04T15:10:46Z</time></trkpt><trkpt lat="41.36017877274976" lon="1.1931566616218146"><ele>359.0</ele><time>2026-05-04T15:10:47Z</time></trkpt><trkpt lat="41.36013207299089" lon="1.1932634190686155"><ele>359.0</ele><time>2026-05-04T15:10:48Z</time></trkpt><trkpt lat="41.36008613404242" lon="1.1933683994097317"><ele>359.0</ele><time>2026-05-04T15:10:49Z</time></trkpt><trkpt lat="41.36004119970805" lon="1.193477038852519"><ele>359.0</ele><time>2026-05-04T15:10:50Z</time></trkpt><trkpt lat="41.359994707887296" lon="1.193583505103267"><ele>359.0</ele><time>2026-05-04T15:10:51Z</time></trkpt><trkpt lat="41.3599499088455" lon="1.1936876003730041"><ele>359.0</ele><time>2026-05-04T15:10:52Z</time></trkpt><trkpt lat="41.35990352514651" lon="1.193794585693912"><ele>359.0</ele><time>2026-05-04T15:10:53Z</time></trkpt><trkpt lat="41.359856277931975" lon="1.1938992353695728"><ele>359.0</ele><time>2026-05-04T15:10:54Z</time></trkpt><trkpt lat="41.35980753489195" lon="1.1940068011120772"><ele>359.0</ele><time>2026-05-04T15:10:55Z</time></trkpt><trkpt lat="41.35976642639573" lon="1.1941112996632335"><ele>359.0</ele><time>2026-05-04T15:10:56Z</time></trkpt><trkpt lat="41.359719154577846" lon="1.1942207320052414"><ele>359.0</ele><time>2026-05-04T15:10:57Z</time></trkpt><trkpt lat="41.35967339340578" lon="1.1943293452325112"><ele>360.4</ele><time>2026-05-04T15:10:58Z</time></trkpt><trkpt lat="41.35962765121716" lon="1.1944381283033836"><ele>361.79999999999995</ele><time>2026-05-04T15:10:59Z</time></trkpt><trkpt lat="41.35958165084639" lon="1.1945444766414328"><ele>363.20000000000005</ele><time>2026-05-04T15:11:00Z</time></trkpt><trkpt lat="41.35953467689702" lon="1.1946539226401045"><ele>364.6</ele><time>2026-05-04T15:11:01Z</time></trkpt><trkpt lat="41.359488719484844" lon="1.1947660529929238"><ele>366.0</ele><time>2026-05-04T15:11:02Z</time></trkpt><trkpt lat="41.359442434883825" lon="1.1948786824928788"><ele>366.4</ele><time>2026-05-04T15:11:03Z</time></trkpt><trkpt lat="41.3593991630353" lon="1.1949935263745606"><ele>366.8</ele><time>2026-05-04T15:11:04Z</time></trkpt><trkpt lat="41.35935185746787" lon="1.1951040580393337"><ele>367.2</ele><time>2026-05-04T15:11:05Z</time></trkpt><trkpt lat="41.35930643434403" lon="1.1952203769596295"><ele>367.59999999999997</ele><time>2026-05-04T15:11:06Z</time></trkpt><trkpt lat="41.359259052429444" lon="1.1953310314872851"><ele>368.0</ele><time>2026-05-04T15:11:07Z</time></trkpt><trkpt lat="41.35921292970552" lon="1.1954457685075306"><ele>368.0</ele><time>2026-05-04T15:11:08Z</time></trkpt><trkpt lat="41.35916532547017" lon="1.195558803218435"><ele>368.0</ele><time>2026-05-04T15:11:09Z</time></trkpt><trkpt lat="41.359119065538586" lon="1.1956732200546718"><ele>368.0</ele><time>2026-05-04T15:11:10.001Z</time></trkpt><trkpt lat="41.35907010703974" lon="1.1957875891918002"><ele>368.0</ele><time>2026-05-04T15:11:11.001Z</time></trkpt><trkpt lat="41.35902456565913" lon="1.1958985011009968"><ele>368.0</ele><time>2026-05-04T15:11:12.001Z</time></trkpt><trkpt lat="41.35897677003356" lon="1.1960142378213618"><ele>368.0</ele><time>2026-05-04T15:11:13.001Z</time></trkpt><trkpt lat="41.35893365100072" lon="1.196121170588585"><ele>368.0</ele><time>2026-05-04T15:11:14.001Z</time></trkpt><trkpt lat="41.35888648405694" lon="1.1962308600984894"><ele>368.0</ele><time>2026-05-04T15:11:15.001Z</time></trkpt><trkpt lat="41.358843893988805" lon="1.1963375824297027"><ele>368.0</ele><time>2026-05-04T15:11:16.001Z</time></trkpt><trkpt lat="41.35879730541394" lon="1.1964484320829067"><ele>368.0</ele><time>2026-05-04T15:11:17.001Z</time></trkpt><trkpt lat="41.35875538850853" lon="1.1965535150968996"><ele>368.0</ele><time>2026-05-04T15:11:18.001Z</time></trkpt><trkpt lat="41.35871570894251" lon="1.1966609712650151"><ele>368.0</ele><time>2026-05-04T15:11:19.001Z</time></trkpt><trkpt lat="41.35867136074988" lon="1.1967625664076473"><ele>368.0</ele><time>2026-05-04T15:11:20.001Z</time></trkpt><trkpt lat="41.35863127728988" lon="1.196863231890026"><ele>368.0</ele><time>2026-05-04T15:11:21.001Z</time></trkpt><trkpt lat="41.35859093880439" lon="1.1969622515022593"><ele>368.0</ele><time>2026-05-04T15:11:22.001Z</time></trkpt><trkpt lat="41.35854824967615" lon="1.197062162677754"><ele>368.0</ele><time>2026-05-04T15:11:23.001Z</time></trkpt><trkpt lat="41.35850630321253" lon="1.1971567352875745"><ele>368.0</ele><time>2026-05-04T15:11:24.001Z</time></trkpt><trkpt lat="41.358468334159014" lon="1.1972549697851422"><ele>368.0</ele><time>2026-05-04T15:11:25.001Z</time></trkpt><trkpt lat="41.358429818888574" lon="1.1973470678866085"><ele>368.0</ele><time>2026-05-04T15:11:26.001Z</time></trkpt><trkpt lat="41.35838849184793" lon="1.1974470366988326"><ele>368.0</ele><time>2026-05-04T15:11:27.001Z</time></trkpt><trkpt lat="41.35834927422782" lon="1.1975426107133849"><ele>368.0</ele><time>2026-05-04T15:11:28.001Z</time></trkpt><trkpt lat="41.358311949244275" lon="1.19763686279773"><ele>368.0</ele><time>2026-05-04T15:11:29.001Z</time></trkpt><trkpt lat="41.35827409284322" lon="1.1977310222776651"><ele>368.6666666666667</ele><time>2026-05-04T15:11:30.001Z</time></trkpt><trkpt lat="41.35823271907848" lon="1.1978288055539807"><ele>369.33333333333337</ele><time>2026-05-04T15:11:31.001Z</time></trkpt><trkpt lat="41.35818677419218" lon="1.197918892087828"><ele>370.0</ele><time>2026-05-04T15:11:32.001Z</time></trkpt><trkpt lat="41.3581458327718" lon="1.198008100635557"><ele>370.6666666666667</ele><time>2026-05-04T15:11:33.001Z</time></trkpt><trkpt lat="41.358100580166216" lon="1.198093297156957"><ele>371.3333333333333</ele><time>2026-05-04T15:11:34.001Z</time></trkpt><trkpt lat="41.35804690596927" lon="1.198178449655945"><ele>372.0</ele><time>2026-05-04T15:11:35.001Z</time></trkpt><trkpt lat="41.357987117295956" lon="1.1982576612739784"><ele>374.6666666666667</ele><time>2026-05-04T15:11:36.001Z</time></trkpt><trkpt lat="41.35792819641591" lon="1.1983264168372307"><ele>377.33333333333337</ele><time>2026-05-04T15:11:37.001Z</time></trkpt><trkpt lat="41.35787006727045" lon="1.1983976869850892"><ele>380.0</ele><time>2026-05-04T15:11:38.001Z</time></trkpt><trkpt lat="41.3578080533111" lon="1.198466200742078"><ele>382.6666666666667</ele><time>2026-05-04T15:11:39.001Z</time></trkpt><trkpt lat="41.357745209574034" lon="1.1985340884200795"><ele>385.33333333333337</ele><time>2026-05-04T15:11:40.001Z</time></trkpt><trkpt lat="41.357679015614856" lon="1.198598218634358"><ele>388.0</ele><time>2026-05-04T15:11:41.001Z</time></trkpt><trkpt lat="41.357618382655446" lon="1.1986640910706394"><ele>388.00000000000006</ele><time>2026-05-04T15:11:42.001Z</time></trkpt><trkpt lat="41.35755189978352" lon="1.1987318831892317"><ele>388.0</ele><time>2026-05-04T15:11:43.001Z</time></trkpt><trkpt lat="41.35748645715987" lon="1.198801435390358"><ele>388.0</ele><time>2026-05-04T15:11:44.001Z</time></trkpt><trkpt lat="41.35742370202091" lon="1.1988650145206257"><ele>388.0</ele><time>2026-05-04T15:11:45.001Z</time></trkpt><trkpt lat="41.357357859467946" lon="1.1989329063529288"><ele>388.00000000000006</ele><time>2026-05-04T15:11:46.001Z</time></trkpt><trkpt lat="41.35729831846335" lon="1.1990000495079902"><ele>388.0</ele><time>2026-05-04T15:11:47.001Z</time></trkpt><trkpt lat="41.35723894654579" lon="1.1990737174043875"><ele>388.83333333333337</ele><time>2026-05-04T15:11:48.001Z</time></trkpt><trkpt lat="41.357178363805794" lon="1.199159423609947"><ele>389.6666666666667</ele><time>2026-05-04T15:11:49.001Z</time></trkpt><trkpt lat="41.357122837400446" lon="1.1992399304607573"><ele>390.5</ele><time>2026-05-04T15:11:50.001Z</time></trkpt><trkpt lat="41.35707158652124" lon="1.1993266082372753"><ele>391.33333333333337</ele><time>2026-05-04T15:11:51.001Z</time></trkpt><trkpt lat="41.357021521866976" lon="1.1994172659860405"><ele>392.1666666666667</ele><time>2026-05-04T15:11:52.001Z</time></trkpt><trkpt lat="41.356975696388375" lon="1.1995088240011678"><ele>393.0</ele><time>2026-05-04T15:11:53.001Z</time></trkpt><trkpt lat="41.35693026177811" lon="1.199603630614972"><ele>393.0</ele><time>2026-05-04T15:11:54.001Z</time></trkpt><trkpt lat="41.35689065572697" lon="1.199704872302377"><ele>393.0</ele><time>2026-05-04T15:11:55.001Z</time></trkpt><trkpt lat="41.356848774420314" lon="1.1998079105927522"><ele>393.0</ele><time>2026-05-04T15:11:56.001Z</time></trkpt><trkpt lat="41.35680675333312" lon="1.1999052487655455"><ele>393.0</ele><time>2026-05-04T15:11:57.001Z</time></trkpt><trkpt lat="41.35676676981082" lon="1.2000031632459167"><ele>393.0</ele><time>2026-05-04T15:11:58.001Z</time></trkpt><trkpt lat="41.35672508654999" lon="1.200105083564856"><ele>393.0</ele><time>2026-05-04T15:11:59.001Z</time></trkpt><trkpt lat="41.35668311381942" lon="1.200203887147962"><ele>393.0</ele><time>2026-05-04T15:12:00.001Z</time></trkpt><trkpt lat="41.35664316801221" lon="1.200302896368812"><ele>393.0</ele><time>2026-05-04T15:12:01.001Z</time></trkpt><trkpt lat="41.356613243177044" lon="1.2003850403070737"><ele>393.0</ele><time>2026-05-04T15:12:02.001Z</time></trkpt><trkpt lat="41.35657035441086" lon="1.200509129096952"><ele>393.0</ele><time>2026-05-04T15:12:04.001Z</time></trkpt><trkpt lat="41.35655167298155" lon="1.2007228996216346"><ele>393.0</ele><time>2026-05-04T15:29:44Z</time></trkpt><trkpt lat="41.35651340601155" lon="1.2008731142011184"><ele>393.00000000000006</ele><time>2026-05-04T15:29:46Z</time></trkpt><trkpt lat="41.35648985008783" lon="1.200956522687367"><ele>393.0</ele><time>2026-05-04T15:29:47Z</time></trkpt><trkpt lat="41.35646417960216" lon="1.2010403924148083"><ele>393.0</ele><time>2026-05-04T15:29:48Z</time></trkpt><trkpt lat="41.35644284505482" lon="1.2011368725349985"><ele>393.0</ele><time>2026-05-04T15:29:49Z</time></trkpt><trkpt lat="41.35642089353848" lon="1.2012298346475192"><ele>393.0</ele><time>2026-05-04T15:29:50Z</time></trkpt><trkpt lat="41.356395257907884" lon="1.2013246909432542"><ele>393.00000000000006</ele><time>2026-05-04T15:29:51Z</time></trkpt><trkpt lat="41.356376334314426" lon="1.2014252221661261"><ele>393.0</ele><time>2026-05-04T15:29:52Z</time></trkpt><trkpt lat="41.356354746774215" lon="1.2015299005734623"><ele>394.5</ele><time>2026-05-04T15:29:53Z</time></trkpt><trkpt lat="41.356330877365004" lon="1.2016325924849123"><ele>396.0</ele><time>2026-05-04T15:29:54Z</time></trkpt><trkpt lat="41.35630520752291" lon="1.2017388768846076"><ele>397.5</ele><time>2026-05-04T15:29:55Z</time></trkpt><trkpt lat="41.356276307742114" lon="1.2018431699099366"><ele>399.0</ele><time>2026-05-04T15:29:56Z</time></trkpt><trkpt lat="41.35624649322466" lon="1.2019435395663163"><ele>400.5</ele><time>2026-05-04T15:29:57Z</time></trkpt><trkpt lat="41.35621413225059" lon="1.2020471823556933"><ele>402.0</ele><time>2026-05-04T15:29:58Z</time></trkpt><trkpt lat="41.35617915476195" lon="1.2021455896950937"><ele>402.0</ele><time>2026-05-04T15:29:59Z</time></trkpt><trkpt lat="41.35614508864932" lon="1.2022450187314004"><ele>402.0</ele><time>2026-05-04T15:30:00Z</time></trkpt><trkpt lat="41.35610894720672" lon="1.202338338384659"><ele>402.0</ele><time>2026-05-04T15:30:01Z</time></trkpt><trkpt lat="41.35607119194633" lon="1.2024331822321215"><ele>402.0</ele><time>2026-05-04T15:30:02Z</time></trkpt><trkpt lat="41.356032284856475" lon="1.2025255959585321"><ele>402.0</ele><time>2026-05-04T15:30:03Z</time></trkpt><trkpt lat="41.35599306398232" lon="1.2026174369645448"><ele>402.0</ele><time>2026-05-04T15:30:04Z</time></trkpt><trkpt lat="41.355953927193084" lon="1.2027132018577984"><ele>402.6666666666667</ele><time>2026-05-04T15:30:05Z</time></trkpt><trkpt lat="41.35591262574287" lon="1.202803529446924"><ele>403.33333333333337</ele><time>2026-05-04T15:30:06Z</time></trkpt><trkpt lat="41.35587291235797" lon="1.202895498583179"><ele>404.0</ele><time>2026-05-04T15:30:07Z</time></trkpt><trkpt lat="41.35583530967556" lon="1.202987227394691"><ele>404.6666666666667</ele><time>2026-05-04T15:30:08Z</time></trkpt><trkpt lat="41.35579847702863" lon="1.2030817674758763"><ele>405.33333333333337</ele><time>2026-05-04T15:30:09Z</time></trkpt><trkpt lat="41.35576288239739" lon="1.2031748116005077"><ele>406.0</ele><time>2026-05-04T15:30:10Z</time></trkpt><trkpt lat="41.35572690162279" lon="1.203269922377007"><ele>406.6666666666667</ele><time>2026-05-04T15:30:11Z</time></trkpt><trkpt lat="41.35569053051509" lon="1.2033611546476068"><ele>407.33333333333337</ele><time>2026-05-04T15:30:12Z</time></trkpt><trkpt lat="41.35565887858677" lon="1.2034558872424257"><ele>408.0</ele><time>2026-05-04T15:30:13Z</time></trkpt><trkpt lat="41.355629986506976" lon="1.203552601571547"><ele>408.66666666666663</ele><time>2026-05-04T15:30:14Z</time></trkpt><trkpt lat="41.35559851172383" lon="1.2036475518101493"><ele>409.3333333333333</ele><time>2026-05-04T15:30:15Z</time></trkpt><trkpt lat="41.355570614616916" lon="1.203742293990451"><ele>410.0</ele><time>2026-05-04T15:30:16Z</time></trkpt><trkpt lat="41.35554159438784" lon="1.2038367483103272"><ele>410.66666666666663</ele><time>2026-05-04T15:30:17Z</time></trkpt><trkpt lat="41.35551455845184" lon="1.2039307648778754"><ele>411.3333333333333</ele><time>2026-05-04T15:30:18Z</time></trkpt><trkpt lat="41.35548654318179" lon="1.2040295138811827"><ele>412.0</ele><time>2026-05-04T15:30:19Z</time></trkpt><trkpt lat="41.355458260983134" lon="1.2041267497580728"><ele>412.66666666666663</ele><time>2026-05-04T15:30:20Z</time></trkpt><trkpt lat="41.35543282859525" lon="1.2042219109860757"><ele>413.3333333333333</ele><time>2026-05-04T15:30:21Z</time></trkpt><trkpt lat="41.355404667283004" lon="1.2043194979850989"><ele>414.0</ele><time>2026-05-04T15:30:22Z</time></trkpt><trkpt lat="41.35537826532988" lon="1.204412767204444"><ele>414.0</ele><time>2026-05-04T15:30:23Z</time></trkpt><trkpt lat="41.35535390979244" lon="1.2045111026094422"><ele>414.0</ele><time>2026-05-04T15:30:24Z</time></trkpt><trkpt lat="41.355324617420074" lon="1.2046049139627584"><ele>414.0</ele><time>2026-05-04T15:30:25Z</time></trkpt><trkpt lat="41.35529421049782" lon="1.2047014994569545"><ele>414.0</ele><time>2026-05-04T15:30:26Z</time></trkpt><trkpt lat="41.35526267044933" lon="1.204800264932268"><ele>414.0</ele><time>2026-05-04T15:30:27Z</time></trkpt><trkpt lat="41.35522952371308" lon="1.2049024750223227"><ele>414.0</ele><time>2026-05-04T15:30:28Z</time></trkpt><trkpt lat="41.355198354599295" lon="1.2050031413482682"><ele>414.6666666666667</ele><time>2026-05-04T15:30:29Z</time></trkpt><trkpt lat="41.35516561306724" lon="1.2050998702596285"><ele>415.33333333333337</ele><time>2026-05-04T15:30:30Z</time></trkpt><trkpt lat="41.35513390085505" lon="1.205178945003797"><ele>416.0</ele><time>2026-05-04T15:30:31Z</time></trkpt><trkpt lat="41.35510520636301" lon="1.2052561792580636"><ele>416.6666666666667</ele><time>2026-05-04T15:30:32Z</time></trkpt><trkpt lat="41.35507158664905" lon="1.2053329299893247"><ele>417.33333333333337</ele><time>2026-05-04T15:30:33Z</time></trkpt><trkpt lat="41.3550403182132" lon="1.2054136671292561"><ele>418.0</ele><time>2026-05-04T15:30:34Z</time></trkpt><trkpt lat="41.35498180669611" lon="1.2055453521945434"><ele>418.0</ele><time>2026-05-04T15:30:36.001Z</time></trkpt><trkpt lat="41.354937146322904" lon="1.2056440887463549"><ele>418.0</ele><time>2026-05-04T15:30:38.001Z</time></trkpt><trkpt lat="41.354896330471675" lon="1.2057251415756285"><ele>418.0</ele><time>2026-05-04T15:30:40.001Z</time></trkpt><trkpt lat="41.35484307885586" lon="1.2058348870891873"><ele>418.0</ele><time>2026-05-04T15:30:42.001Z</time></trkpt><trkpt lat="41.354768673869906" lon="1.2059646818615548"><ele>418.0</ele><time>2026-05-04T15:30:44.001Z</time></trkpt><trkpt lat="41.35472671589863" lon="1.2060398909928893"><ele>419.33333333333337</ele><time>2026-05-04T15:30:45.001Z</time></trkpt><trkpt lat="41.35467998954705" lon="1.2061120169942432"><ele>420.6666666666667</ele><time>2026-05-04T15:30:46.001Z</time></trkpt><trkpt lat="41.354630485906895" lon="1.2061871917848956"><ele>422.0</ele><time>2026-05-04T15:30:47.001Z</time></trkpt><trkpt lat="41.35457973843187" lon="1.206265324023623"><ele>423.33333333333337</ele><time>2026-05-04T15:30:48.001Z</time></trkpt><trkpt lat="41.354527687794295" lon="1.206343197395167"><ele>424.6666666666667</ele><time>2026-05-04T15:30:49.001Z</time></trkpt><trkpt lat="41.35447154047621" lon="1.2064204585016334"><ele>426.0</ele><time>2026-05-04T15:30:50.001Z</time></trkpt><trkpt lat="41.35441575348251" lon="1.2064970524402987"><ele>426.3333333333333</ele><time>2026-05-04T15:30:51.001Z</time></trkpt><trkpt lat="41.354350663470235" lon="1.2065730209222991"><ele>426.66666666666663</ele><time>2026-05-04T15:30:52.001Z</time></trkpt><trkpt lat="41.35428884313382" lon="1.206650509904626"><ele>427.0</ele><time>2026-05-04T15:30:53.001Z</time></trkpt><trkpt lat="41.35422123843942" lon="1.2067275915066646"><ele>427.3333333333333</ele><time>2026-05-04T15:30:54.001Z</time></trkpt><trkpt lat="41.35415836327758" lon="1.2068046615573353"><ele>427.66666666666663</ele><time>2026-05-04T15:30:55.001Z</time></trkpt><trkpt lat="41.35408778394834" lon="1.2068816587541686"><ele>428.0</ele><time>2026-05-04T15:30:56.001Z</time></trkpt><trkpt lat="41.354017768860295" lon="1.2069538948570973"><ele>427.99999999999994</ele><time>2026-05-04T15:30:57.001Z</time></trkpt><trkpt lat="41.35394536365521" lon="1.2070226483161588"><ele>428.0</ele><time>2026-05-04T15:30:58.001Z</time></trkpt><trkpt lat="41.35387525249862" lon="1.2070898066012616"><ele>428.0</ele><time>2026-05-04T15:30:59.001Z</time></trkpt><trkpt lat="41.353802782515665" lon="1.20715862532465"><ele>428.0</ele><time>2026-05-04T15:31:00.001Z</time></trkpt><trkpt lat="41.35373217478465" lon="1.2072241545197178"><ele>427.99999999999994</ele><time>2026-05-04T15:31:01.001Z</time></trkpt><trkpt lat="41.35366268086218" lon="1.2072869142101579"><ele>428.0</ele><time>2026-05-04T15:31:02.001Z</time></trkpt><trkpt lat="41.35359267995651" lon="1.2073542798585601"><ele>429.42857142857144</ele><time>2026-05-04T15:31:03.001Z</time></trkpt><trkpt lat="41.35352227914189" lon="1.207412903949223"><ele>430.8571428571429</ele><time>2026-05-04T15:31:04.001Z</time></trkpt><trkpt lat="41.35345195922613" lon="1.2074680873925765"><ele>432.28571428571433</ele><time>2026-05-04T15:31:05.001Z</time></trkpt><trkpt lat="41.353387582627896" lon="1.2075228664472497"><ele>433.7142857142857</ele><time>2026-05-04T15:31:06.001Z</time></trkpt><trkpt lat="41.35332584899054" lon="1.2075716713269098"><ele>435.1428571428571</ele><time>2026-05-04T15:31:07.001Z</time></trkpt><trkpt lat="41.3532701728979" lon="1.2076184930951233"><ele>436.5714285714286</ele><time>2026-05-04T15:31:08.001Z</time></trkpt><trkpt lat="41.35321359895223" lon="1.2076606421286844"><ele>438.0</ele><time>2026-05-04T15:31:09.001Z</time></trkpt><trkpt lat="41.35310787752234" lon="1.2077356891217528"><ele>438.79999999999995</ele><time>2026-05-04T15:31:11.001Z</time></trkpt><trkpt lat="41.35301360232262" lon="1.207799408512836"><ele>439.59999999999997</ele><time>2026-05-04T15:31:13.001Z</time></trkpt><trkpt lat="41.35291213369934" lon="1.2078954629243999"><ele>440.40000000000003</ele><time>2026-05-04T15:31:16.001Z</time></trkpt><trkpt lat="41.35284809073669" lon="1.2079400823134503"><ele>441.20000000000005</ele><time>2026-05-04T15:31:18.001Z</time></trkpt><trkpt lat="41.35277724478597" lon="1.2079857883633045"><ele>442.0</ele><time>2026-05-04T15:31:21.001Z</time></trkpt><trkpt lat="41.35264203905235" lon="1.2080683437026158"><ele>442.0</ele><time>2026-05-04T15:31:37Z</time></trkpt><trkpt lat="41.3525538939114" lon="1.2081178393556606"><ele>442.00000000000006</ele><time>2026-05-04T15:31:39Z</time></trkpt><trkpt lat="41.35244754802527" lon="1.2081720716349207"><ele>442.00000000000006</ele><time>2026-05-04T15:31:41Z</time></trkpt><trkpt lat="41.35238544817488" lon="1.2082021681846775"><ele>442.0</ele><time>2026-05-04T15:31:42Z</time></trkpt><trkpt lat="41.352269356452645" lon="1.2082528738505065"><ele>442.0</ele><time>2026-05-04T15:31:44Z</time></trkpt><trkpt lat="41.352202417689924" lon="1.2082810070433492"><ele>441.1666666666667</ele><time>2026-05-04T15:31:45Z</time></trkpt><trkpt lat="41.35212511609128" lon="1.208311203930921"><ele>440.33333333333337</ele><time>2026-05-04T15:31:46Z</time></trkpt><trkpt lat="41.35205022955628" lon="1.2083385977931362"><ele>439.5</ele><time>2026-05-04T15:31:47Z</time></trkpt><trkpt lat="41.351972126143714" lon="1.2083647867027625"><ele>438.66666666666663</ele><time>2026-05-04T15:31:48Z</time></trkpt><trkpt lat="41.351897180995984" lon="1.2083882045608494"><ele>437.8333333333333</ele><time>2026-05-04T15:31:49Z</time></trkpt><trkpt lat="41.35182114118986" lon="1.208412029488471"><ele>437.0</ele><time>2026-05-04T15:31:50Z</time></trkpt><trkpt lat="41.35174632024772" lon="1.208436226827292"><ele>436.99999999999994</ele><time>2026-05-04T15:31:51Z</time></trkpt><trkpt lat="41.35166375707527" lon="1.2084564634594956"><ele>437.0</ele><time>2026-05-04T15:31:52Z</time></trkpt><trkpt lat="41.35158133580147" lon="1.208458498521077"><ele>437.0</ele><time>2026-05-04T15:31:53Z</time></trkpt><trkpt lat="41.35150211625758" lon="1.2084891291401385"><ele>437.0</ele><time>2026-05-04T15:31:54Z</time></trkpt><trkpt lat="41.35142460019105" lon="1.2085106420324845"><ele>436.99999999999994</ele><time>2026-05-04T15:31:55Z</time></trkpt><trkpt lat="41.35134174571919" lon="1.2085257291037934"><ele>437.0</ele><time>2026-05-04T15:31:56Z</time></trkpt><trkpt lat="41.351256888245814" lon="1.208547059215578"><ele>437.8333333333333</ele><time>2026-05-04T15:31:57Z</time></trkpt><trkpt lat="41.3511715191777" lon="1.208565184621492"><ele>438.66666666666663</ele><time>2026-05-04T15:31:58Z</time></trkpt><trkpt lat="41.351084727688885" lon="1.2085804644025357"><ele>439.5</ele><time>2026-05-04T15:31:59Z</time></trkpt><trkpt lat="41.35099756676448" lon="1.208597210625293"><ele>440.33333333333337</ele><time>2026-05-04T15:32:00Z</time></trkpt><trkpt lat="41.35091096504277" lon="1.2086128454530194"><ele>441.1666666666667</ele><time>2026-05-04T15:32:01Z</time></trkpt><trkpt lat="41.35082381315486" lon="1.2086306455302196"><ele>442.0</ele><time>2026-05-04T15:32:02Z</time></trkpt><trkpt lat="41.35073423523203" lon="1.2086475718043526"><ele>442.0</ele><time>2026-05-04T15:32:03Z</time></trkpt><trkpt lat="41.35064544253817" lon="1.2086588274887284"><ele>442.00000000000006</ele><time>2026-05-04T15:32:04Z</time></trkpt><trkpt lat="41.35055567795152" lon="1.2086695104114047"><ele>442.00000000000006</ele><time>2026-05-04T15:32:05Z</time></trkpt><trkpt lat="41.35046464367228" lon="1.2086762497891355"><ele>442.0</ele><time>2026-05-04T15:32:06Z</time></trkpt><trkpt lat="41.350370154860876" lon="1.2086816088267995"><ele>442.0</ele><time>2026-05-04T15:32:07Z</time></trkpt><trkpt lat="41.35027316580176" lon="1.208689550616847"><ele>442.8</ele><time>2026-05-04T15:32:08Z</time></trkpt><trkpt lat="41.35017826789336" lon="1.208697177820215"><ele>443.6</ele><time>2026-05-04T15:32:09Z</time></trkpt><trkpt lat="41.35008562266285" lon="1.208704878308045"><ele>444.40000000000003</ele><time>2026-05-04T15:32:10Z</time></trkpt><trkpt lat="41.349992089281706" lon="1.2087061907347925"><ele>445.20000000000005</ele><time>2026-05-04T15:32:11Z</time></trkpt><trkpt lat="41.34989587652915" lon="1.208708492740801"><ele>446.0</ele><time>2026-05-04T15:32:12Z</time></trkpt><trkpt lat="41.34980016033317" lon="1.2087038011493278"><ele>446.8</ele><time>2026-05-04T15:32:13Z</time></trkpt><trkpt lat="41.34970619267051" lon="1.2087004749275403"><ele>447.6</ele><time>2026-05-04T15:32:14Z</time></trkpt><trkpt lat="41.34960903518044" lon="1.2087044536694584"><ele>448.4</ele><time>2026-05-04T15:32:15Z</time></trkpt><trkpt lat="41.349514822021675" lon="1.2087055668901914"><ele>449.2</ele><time>2026-05-04T15:32:16Z</time></trkpt><trkpt lat="41.34941974036163" lon="1.2086969869828963"><ele>450.0</ele><time>2026-05-04T15:32:17Z</time></trkpt><trkpt lat="41.34932241257523" lon="1.208689789560302"><ele>450.0</ele><time>2026-05-04T15:32:18Z</time></trkpt><trkpt lat="41.34922369000577" lon="1.2086882445496572"><ele>450.0</ele><time>2026-05-04T15:32:19.001Z</time></trkpt><trkpt lat="41.34912527001521" lon="1.2086863591010293"><ele>450.0</ele><time>2026-05-04T15:32:20.001Z</time></trkpt><trkpt lat="41.349025702776814" lon="1.2086835329876306"><ele>450.0</ele><time>2026-05-04T15:32:21.001Z</time></trkpt><trkpt lat="41.34892737403823" lon="1.208684373269736"><ele>450.0</ele><time>2026-05-04T15:32:22.001Z</time></trkpt><trkpt lat="41.34882929161937" lon="1.208684010857471"><ele>451.2</ele><time>2026-05-04T15:32:23.001Z</time></trkpt><trkpt lat="41.348739374167984" lon="1.208673599738802"><ele>452.4</ele><time>2026-05-04T15:32:24.001Z</time></trkpt><trkpt lat="41.34863618148691" lon="1.2086777329790748"><ele>453.6</ele><time>2026-05-04T15:32:25.001Z</time></trkpt><trkpt lat="41.34853354689187" lon="1.2086826951242309"><ele>454.8</ele><time>2026-05-04T15:32:26.001Z</time></trkpt><trkpt lat="41.34843691680588" lon="1.208682243471149"><ele>456.0</ele><time>2026-05-04T15:32:27.001Z</time></trkpt><trkpt lat="41.34833736651047" lon="1.2086853837442715"><ele>456.0</ele><time>2026-05-04T15:32:28.001Z</time></trkpt><trkpt lat="41.3482344087249" lon="1.208690443178875"><ele>456.0</ele><time>2026-05-04T15:32:29.001Z</time></trkpt><trkpt lat="41.348131042222064" lon="1.2086911332144967"><ele>456.0</ele><time>2026-05-04T15:32:30.001Z</time></trkpt><trkpt lat="41.34802806860818" lon="1.2086934825436912"><ele>456.0</ele><time>2026-05-04T15:32:31.001Z</time></trkpt><trkpt lat="41.34792510169484" lon="1.2086951432413366"><ele>456.0</ele><time>2026-05-04T15:32:32.001Z</time></trkpt><trkpt lat="41.34781805611125" lon="1.2087033512171612"><ele>454.20000000000005</ele><time>2026-05-04T15:32:33.001Z</time></trkpt><trkpt lat="41.34771239555752" lon="1.2087111906863026"><ele>452.40000000000003</ele><time>2026-05-04T15:32:34.001Z</time></trkpt><trkpt lat="41.347605965503234" lon="1.2087241760472636"><ele>450.6</ele><time>2026-05-04T15:32:35.001Z</time></trkpt><trkpt lat="41.347498060011176" lon="1.2087361067130575"><ele>448.8</ele><time>2026-05-04T15:32:36.001Z</time></trkpt><trkpt lat="41.347393440159614" lon="1.2087488120137657"><ele>447.0</ele><time>2026-05-04T15:32:37.001Z</time></trkpt><trkpt lat="41.34728906835007" lon="1.2087613066820382"><ele>442.6</ele><time>2026-05-04T15:32:38.001Z</time></trkpt><trkpt lat="41.34719114827503" lon="1.208771241317485"><ele>438.20000000000005</ele><time>2026-05-04T15:32:39.001Z</time></trkpt><trkpt lat="41.347085588092014" lon="1.2088009235326271"><ele>433.8</ele><time>2026-05-04T15:32:40.001Z</time></trkpt><trkpt lat="41.346980428400954" lon="1.208816416950542"><ele>429.4</ele><time>2026-05-04T15:32:41.001Z</time></trkpt><trkpt lat="41.34687455078382" lon="1.2088311542837247"><ele>425.0</ele><time>2026-05-04T15:32:42.001Z</time></trkpt><trkpt lat="41.346768219147705" lon="1.2088528879182072"><ele>425.0</ele><time>2026-05-04T15:32:43.001Z</time></trkpt><trkpt lat="41.34666166107454" lon="1.2088715193859894"><ele>425.0</ele><time>2026-05-04T15:32:44.001Z</time></trkpt><trkpt lat="41.34655730411378" lon="1.2088921846583112"><ele>425.0</ele><time>2026-05-04T15:32:45.001Z</time></trkpt><trkpt lat="41.34645214244747" lon="1.208914270767757"><ele>425.0</ele><time>2026-05-04T15:32:46.001Z</time></trkpt><trkpt lat="41.34634786519934" lon="1.2089388744357594"><ele>425.0</ele><time>2026-05-04T15:32:47.001Z</time></trkpt><trkpt lat="41.34624063963922" lon="1.2089649095106494"><ele>425.8</ele><time>2026-05-04T15:32:48.001Z</time></trkpt><trkpt lat="41.34613505920573" lon="1.2089896204271142"><ele>426.6</ele><time>2026-05-04T15:32:49.001Z</time></trkpt><trkpt lat="41.34602906707587" lon="1.2090150635467292"><ele>427.4</ele><time>2026-05-04T15:32:50.001Z</time></trkpt><trkpt lat="41.345923130586826" lon="1.2090463451590303"><ele>428.2</ele><time>2026-05-04T15:32:51.001Z</time></trkpt><trkpt lat="41.345817422988716" lon="1.2090777013858451"><ele>429.0</ele><time>2026-05-04T15:32:52.001Z</time></trkpt><trkpt lat="41.3457134605584" lon="1.2091126104442536"><ele>429.0</ele><time>2026-05-04T15:32:53.001Z</time></trkpt><trkpt lat="41.34560941628574" lon="1.2091441614980916"><ele>429.0</ele><time>2026-05-04T15:32:54.001Z</time></trkpt><trkpt lat="41.34550466978319" lon="1.2091771363286168"><ele>429.0</ele><time>2026-05-04T15:32:55.001Z</time></trkpt><trkpt lat="41.34540205444453" lon="1.209215911561451"><ele>429.0</ele><time>2026-05-04T15:32:56.001Z</time></trkpt><trkpt lat="41.34529976116326" lon="1.209252385807737"><ele>429.0</ele><time>2026-05-04T15:32:57.001Z</time></trkpt><trkpt lat="41.345195574668665" lon="1.2092906309564795"><ele>433.0</ele><time>2026-05-04T15:32:58.001Z</time></trkpt><trkpt lat="41.34509291127456" lon="1.2093303023127524"><ele>437.0</ele><time>2026-05-04T15:32:59.001Z</time></trkpt><trkpt lat="41.34499016072298" lon="1.2093724975665237"><ele>441.0</ele><time>2026-05-04T15:33:00.001Z</time></trkpt><trkpt lat="41.34488667670993" lon="1.2094149501866154"><ele>445.0</ele><time>2026-05-04T15:33:01.001Z</time></trkpt><trkpt lat="41.344784083404775" lon="1.2094562440028773"><ele>449.0</ele><time>2026-05-04T15:33:02.001Z</time></trkpt><trkpt lat="41.34468095431735" lon="1.2095012763574933"><ele>450.75</ele><time>2026-05-04T15:33:03.001Z</time></trkpt><trkpt lat="41.344577613780054" lon="1.2095444830214601"><ele>452.5</ele><time>2026-05-04T15:33:04.001Z</time></trkpt><trkpt lat="41.344470594358306" lon="1.209589146249613"><ele>454.25</ele><time>2026-05-04T15:33:05.001Z</time></trkpt><trkpt lat="41.3443623084209" lon="1.20962571648146"><ele>456.0</ele><time>2026-05-04T15:33:06.001Z</time></trkpt><trkpt lat="41.34423729122363" lon="1.2096160452122873"><ele>456.0</ele><time>2026-05-04T15:33:07.001Z</time></trkpt><trkpt lat="41.3441352310881" lon="1.209672416424002"><ele>456.0</ele><time>2026-05-04T15:33:08.001Z</time></trkpt><trkpt lat="41.344021864148516" lon="1.209696724571002"><ele>456.0</ele><time>2026-05-04T15:33:09.001Z</time></trkpt><trkpt lat="41.34391470936647" lon="1.2097645414422111"><ele>456.0</ele><time>2026-05-04T15:33:10.001Z</time></trkpt><trkpt lat="41.34381382220194" lon="1.2098836167645124"><ele>453.0</ele><time>2026-05-04T15:33:11.001Z</time></trkpt><trkpt lat="41.343698290247104" lon="1.2099425131043742"><ele>450.0</ele><time>2026-05-04T15:33:12.001Z</time></trkpt><trkpt lat="41.34360167818835" lon="1.2100110868445735"><ele>447.0</ele><time>2026-05-04T15:33:13.001Z</time></trkpt><trkpt lat="41.343498233262586" lon="1.2100745196752476"><ele>444.0</ele><time>2026-05-04T15:33:14.001Z</time></trkpt><trkpt lat="41.34339408783025" lon="1.2101347838390808"><ele>444.0</ele><time>2026-05-04T15:33:15.001Z</time></trkpt><trkpt lat="41.343288573891776" lon="1.210199142090335"><ele>444.0</ele><time>2026-05-04T15:33:16.001Z</time></trkpt><trkpt lat="41.34318171429264" lon="1.2102704359643779"><ele>444.0</ele><time>2026-05-04T15:33:17.001Z</time></trkpt><trkpt lat="41.343076241329214" lon="1.2103424579646533"><ele>444.0</ele><time>2026-05-04T15:33:18.001Z</time></trkpt><trkpt lat="41.34297571380758" lon="1.2104158167387007"><ele>443.75</ele><time>2026-05-04T15:33:19.001Z</time></trkpt><trkpt lat="41.34287650317837" lon="1.210489100061511"><ele>443.5</ele><time>2026-05-04T15:33:20.001Z</time></trkpt><trkpt lat="41.34278038023214" lon="1.210567765821405"><ele>443.25</ele><time>2026-05-04T15:33:21.001Z</time></trkpt><trkpt lat="41.342678152962804" lon="1.2106433971230903"><ele>443.0</ele><time>2026-05-04T15:33:22.001Z</time></trkpt><trkpt lat="41.34257353491695" lon="1.2107206358166287"><ele>443.0</ele><time>2026-05-04T15:33:23.001Z</time></trkpt><trkpt lat="41.34246987866351" lon="1.2107999940256586"><ele>443.0</ele><time>2026-05-04T15:33:24.001Z</time></trkpt><trkpt lat="41.34236658220314" lon="1.2108820797447537"><ele>443.0</ele><time>2026-05-04T15:33:25.001Z</time></trkpt><trkpt lat="41.34226546969507" lon="1.2109669026607017"><ele>443.0</ele><time>2026-05-04T15:33:26.001Z</time></trkpt><trkpt lat="41.34216052560091" lon="1.2110505332514703"><ele>443.5</ele><time>2026-05-04T15:33:27.001Z</time></trkpt><trkpt lat="41.342051289651614" lon="1.2111289119325443"><ele>444.0</ele><time>2026-05-04T15:33:28.001Z</time></trkpt><trkpt lat="41.341944331118285" lon="1.2112071856598288"><ele>444.5</ele><time>2026-05-04T15:33:29Z</time></trkpt><trkpt lat="41.341839157560756" lon="1.211290860892154"><ele>445.0</ele><time>2026-05-04T15:33:30Z</time></trkpt><trkpt lat="41.341736473806804" lon="1.2113770313711392"><ele>445.0</ele><time>2026-05-04T15:33:31Z</time></trkpt><trkpt lat="41.34163365993353" lon="1.211465483284884"><ele>445.0</ele><time>2026-05-04T15:33:32Z</time></trkpt><trkpt lat="41.34153618882403" lon="1.2115364931188868"><ele>445.0</ele><time>2026-05-04T15:33:33Z</time></trkpt><trkpt lat="41.3414514567116" lon="1.2116256506721805"><ele>445.0</ele><time>2026-05-04T15:33:34Z</time></trkpt><trkpt lat="41.34136606555629" lon="1.21171550234173"><ele>463.5</ele><time>2026-05-04T15:33:35.021Z</time></trkpt><trkpt lat="41.3412832365636" lon="1.2118026576583378"><ele>482.0</ele><time>2026-05-04T15:33:36.023Z</time></trkpt><trkpt lat="41.340881316539125" lon="1.2123125569259632"><ele>484.0</ele><time>2026-05-04T15:33:41.024Z</time></trkpt><trkpt lat="41.34080474986903" lon="1.2124157014742747"><ele>486.0</ele><time>2026-05-04T15:33:42.018Z</time></trkpt><trkpt lat="41.34072658395383" lon="1.2125210422396482"><ele>488.0</ele><time>2026-05-04T15:33:43.023Z</time></trkpt><trkpt lat="41.33918585062117" lon="1.2142668537957686"><ele>575.0</ele><time>2026-05-04T15:33:46.804Z</time></trkpt><trkpt lat="41.33854778772898" lon="1.215421065004566"><ele>572.0</ele><time>2026-05-04T15:33:47.805Z</time></trkpt><trkpt lat="41.33798112168864" lon="1.2166411146509697"><ele>542.0</ele><time>2026-05-04T15:33:48.805Z</time></trkpt><trkpt lat="41.337399817807245" lon="1.2178496775943266"><ele>482.0</ele><time>2026-05-04T15:33:49.805Z</time></trkpt><trkpt lat="41.3368151479332" lon="1.2190543272920602"><ele>482.0</ele><time>2026-05-04T15:33:50.804Z</time></trkpt><trkpt lat="41.3366032" lon="1.2194824"><ele>482.0</ele><time>2026-05-04T15:33:51.805Z</time></trkpt><trkpt lat="41.33331625726198" lon="1.2252402864407983"><ele>464.75</ele><time>2026-05-04T15:35:17.001Z</time></trkpt><trkpt lat="41.33321759720313" lon="1.225342437847256"><ele>447.5</ele><time>2026-05-04T15:35:18.001Z</time></trkpt><trkpt lat="41.33308808414702" lon="1.2253101298404043"><ele>430.25</ele><time>2026-05-04T15:35:19.001Z</time></trkpt><trkpt lat="41.33298495625254" lon="1.2254140277086136"><ele>413.0</ele><time>2026-05-04T15:35:20.001Z</time></trkpt><trkpt lat="41.33288357248205" lon="1.2255115977183464"><ele>410.0</ele><time>2026-05-04T15:35:21.001Z</time></trkpt><trkpt lat="41.332781876342075" lon="1.2256067043617722"><ele>407.0</ele><time>2026-05-04T15:35:22.001Z</time></trkpt><trkpt lat="41.332678079967096" lon="1.2257039313536124"><ele>404.0</ele><time>2026-05-04T15:35:23.001Z</time></trkpt><trkpt lat="41.33257874730273" lon="1.2257944648860541"><ele>401.0</ele><time>2026-05-04T15:35:24.001Z</time></trkpt><trkpt lat="41.3324758579573" lon="1.225892323972617"><ele>400.25</ele><time>2026-05-04T15:35:25.001Z</time></trkpt><trkpt lat="41.3323730853316" lon="1.2259877708100935"><ele>399.5</ele><time>2026-05-04T15:35:26.001Z</time></trkpt><trkpt lat="41.33227094375609" lon="1.226076868226702"><ele>398.75</ele><time>2026-05-04T15:35:27.001Z</time></trkpt><trkpt lat="41.33216351815788" lon="1.226173384296383"><ele>398.0</ele><time>2026-05-04T15:35:28.001Z</time></trkpt><trkpt lat="41.33205892790805" lon="1.2262586124946369"><ele>396.5</ele><time>2026-05-04T15:35:29.001Z</time></trkpt><trkpt lat="41.33195455254797" lon="1.2263490926081706"><ele>395.0</ele><time>2026-05-04T15:35:30.001Z</time></trkpt><trkpt lat="41.33185154035364" lon="1.226430209460062"><ele>393.5</ele><time>2026-05-04T15:35:31.001Z</time></trkpt><trkpt lat="41.33174280901328" lon="1.2265166583512828"><ele>392.0</ele><time>2026-05-04T15:35:32.001Z</time></trkpt><trkpt lat="41.33163614072062" lon="1.2265928731432794"><ele>391.25</ele><time>2026-05-04T15:35:33.001Z</time></trkpt><trkpt lat="41.33152294918308" lon="1.2266727606914478"><ele>390.5</ele><time>2026-05-04T15:35:34.001Z</time></trkpt><trkpt lat="41.33141465894956" lon="1.226746419896917"><ele>389.75</ele><time>2026-05-04T15:35:35Z</time></trkpt><trkpt lat="41.331304795775665" lon="1.226821929352002"><ele>389.0</ele><time>2026-05-04T15:35:36Z</time></trkpt><trkpt lat="41.331192179437934" lon="1.2268949436537424"><ele>387.75</ele><time>2026-05-04T15:35:37Z</time></trkpt><trkpt lat="41.33107703555716" lon="1.2269663558762651"><ele>386.5</ele><time>2026-05-04T15:35:38Z</time></trkpt><trkpt lat="41.3309628566922" lon="1.2270362007410558"><ele>385.25</ele><time>2026-05-04T15:35:39Z</time></trkpt><trkpt lat="41.33084637351703" lon="1.2271059493023573"><ele>384.0</ele><time>2026-05-04T15:35:40Z</time></trkpt><trkpt lat="41.3307311669048" lon="1.2271709946608522"><ele>384.0</ele><time>2026-05-04T15:35:41Z</time></trkpt><trkpt lat="41.33061476460306" lon="1.2272377900053086"><ele>384.0</ele><time>2026-05-04T15:35:42Z</time></trkpt><trkpt lat="41.330494835782595" lon="1.2272995903419213"><ele>384.0</ele><time>2026-05-04T15:35:43Z</time></trkpt><trkpt lat="41.33038146577909" lon="1.2273630747145519"><ele>384.0</ele><time>2026-05-04T15:35:44Z</time></trkpt><trkpt lat="41.33026404263444" lon="1.227421403055601"><ele>383.75</ele><time>2026-05-04T15:35:45Z</time></trkpt><trkpt lat="41.33014063751927" lon="1.2274804346079045"><ele>383.5</ele><time>2026-05-04T15:35:46Z</time></trkpt><trkpt lat="41.330020044383424" lon="1.2275309238593817"><ele>383.25</ele><time>2026-05-04T15:35:47Z</time></trkpt><trkpt lat="41.32990257311287" lon="1.227585909460931"><ele>383.0</ele><time>2026-05-04T15:35:48Z</time></trkpt><trkpt lat="41.32978218302297" lon="1.2276401690968657"><ele>382.5</ele><time>2026-05-04T15:35:49Z</time></trkpt><trkpt lat="41.329661157298624" lon="1.227692875197564"><ele>382.0</ele><time>2026-05-04T15:35:50Z</time></trkpt><trkpt lat="41.32953829465234" lon="1.227742370909016"><ele>381.5</ele><time>2026-05-04T15:35:51Z</time></trkpt><trkpt lat="41.32941718702055" lon="1.2277902602811908"><ele>381.0</ele><time>2026-05-04T15:35:52Z</time></trkpt><trkpt lat="41.329293996169206" lon="1.2278367238205827"><ele>381.0</ele><time>2026-05-04T15:35:53Z</time></trkpt><trkpt lat="41.32917112795206" lon="1.2278847640464716"><ele>381.0</ele><time>2026-05-04T15:35:54Z</time></trkpt><trkpt lat="41.32904790854995" lon="1.227928792186046"><ele>381.0</ele><time>2026-05-04T15:35:55Z</time></trkpt><trkpt lat="41.32892444054646" lon="1.2279744420907477"><ele>381.0</ele><time>2026-05-04T15:35:56Z</time></trkpt><trkpt lat="41.328800611999064" lon="1.2280204119398022"><ele>379.25</ele><time>2026-05-04T15:35:57Z</time></trkpt><trkpt lat="41.328677024863914" lon="1.2280626663913619"><ele>377.5</ele><time>2026-05-04T15:35:58Z</time></trkpt><trkpt lat="41.32855493784153" lon="1.2281027059807075"><ele>375.75</ele><time>2026-05-04T15:35:59Z</time></trkpt><trkpt lat="41.32843411086252" lon="1.2281408413665855"><ele>374.0</ele><time>2026-05-04T15:36:00Z</time></trkpt><trkpt lat="41.328314788945725" lon="1.2281775671954582"><ele>374.0</ele><time>2026-05-04T15:36:01Z</time></trkpt><trkpt lat="41.32819372424128" lon="1.2282168203250803"><ele>374.0</ele><time>2026-05-04T15:36:02Z</time></trkpt><trkpt lat="41.32807249625936" lon="1.2282541293959024"><ele>374.0</ele><time>2026-05-04T15:36:03Z</time></trkpt><trkpt lat="41.32795012056985" lon="1.22829644911637"><ele>374.0</ele><time>2026-05-04T15:36:04Z</time></trkpt><trkpt lat="41.32783093628392" lon="1.2283310990129281"><ele>372.25</ele><time>2026-05-04T15:36:05Z</time></trkpt><trkpt lat="41.32770981472135" lon="1.2283691557272378"><ele>370.5</ele><time>2026-05-04T15:36:06Z</time></trkpt><trkpt lat="41.32758937992082" lon="1.2284036524034354"><ele>368.75</ele><time>2026-05-04T15:36:07Z</time></trkpt><trkpt lat="41.32746900621103" lon="1.2284429631759248"><ele>367.0</ele><time>2026-05-04T15:36:08Z</time></trkpt><trkpt lat="41.327347595078386" lon="1.2284832947309068"><ele>366.5</ele><time>2026-05-04T15:36:09Z</time></trkpt><trkpt lat="41.32722736193417" lon="1.228522476272404"><ele>366.0</ele><time>2026-05-04T15:36:10Z</time></trkpt><trkpt lat="41.327105763236084" lon="1.2285623097669351"><ele>365.5</ele><time>2026-05-04T15:36:11Z</time></trkpt><trkpt lat="41.32698379714508" lon="1.2286017079096891"><ele>365.0</ele><time>2026-05-04T15:36:12Z</time></trkpt><trkpt lat="41.32686370627515" lon="1.228640592981972"><ele>365.0</ele><time>2026-05-04T15:36:13Z</time></trkpt><trkpt lat="41.326743102957835" lon="1.2286826652857203"><ele>365.0</ele><time>2026-05-04T15:36:14Z</time></trkpt><trkpt lat="41.3266239923338" lon="1.2287249063392718"><ele>365.0</ele><time>2026-05-04T15:36:15Z</time></trkpt><trkpt lat="41.32650072573416" lon="1.2287720558452853"><ele>365.0</ele><time>2026-05-04T15:36:16Z</time></trkpt><trkpt lat="41.32637924171131" lon="1.2288161190797395"><ele>363.5</ele><time>2026-05-04T15:36:17Z</time></trkpt><trkpt lat="41.32625686711309" lon="1.228870276676543"><ele>362.0</ele><time>2026-05-04T15:36:18Z</time></trkpt><trkpt lat="41.32613156744112" lon="1.2289265304074999"><ele>360.5</ele><time>2026-05-04T15:36:19Z</time></trkpt><trkpt lat="41.32600715861277" lon="1.2289828684000172"><ele>359.0</ele><time>2026-05-04T15:36:20Z</time></trkpt><trkpt lat="41.32588399158242" lon="1.2290341097712099"><ele>357.5</ele><time>2026-05-04T15:36:21Z</time></trkpt><trkpt lat="41.32576213936939" lon="1.2290896767721917"><ele>356.0</ele><time>2026-05-04T15:36:22Z</time></trkpt><trkpt lat="41.32564436186079" lon="1.229148783156797"><ele>354.5</ele><time>2026-05-04T15:36:23Z</time></trkpt><trkpt lat="41.325527166464454" lon="1.2292099731198698"><ele>353.0</ele><time>2026-05-04T15:36:24Z</time></trkpt><trkpt lat="41.32540756279863" lon="1.2292706546413164"><ele>350.5</ele><time>2026-05-04T15:36:25Z</time></trkpt><trkpt lat="41.325289043310846" lon="1.22932994431261"><ele>348.0</ele><time>2026-05-04T15:36:26Z</time></trkpt><trkpt lat="41.325171510330925" lon="1.2293910986606644"><ele>345.5</ele><time>2026-05-04T15:36:27Z</time></trkpt><trkpt lat="41.32505473453433" lon="1.2294540390132314"><ele>343.0</ele><time>2026-05-04T15:36:28.001Z</time></trkpt><trkpt lat="41.32493754926503" lon="1.2295159518744585"><ele>343.0</ele><time>2026-05-04T15:36:29.001Z</time></trkpt><trkpt lat="41.324821364566084" lon="1.229585961884465"><ele>343.0</ele><time>2026-05-04T15:36:30.001Z</time></trkpt><trkpt lat="41.32470624203151" lon="1.229653320656252"><ele>343.0</ele><time>2026-05-04T15:36:31.001Z</time></trkpt><trkpt lat="41.324591904268964" lon="1.2297236670732712"><ele>343.0</ele><time>2026-05-04T15:36:32.001Z</time></trkpt><trkpt lat="41.32447976780388" lon="1.2297938878978065"><ele>342.75</ele><time>2026-05-04T15:36:33.001Z</time></trkpt><trkpt lat="41.324367774008394" lon="1.229867008790598"><ele>342.5</ele><time>2026-05-04T15:36:34.001Z</time></trkpt><trkpt lat="41.32425726007969" lon="1.229940855684807"><ele>342.25</ele><time>2026-05-04T15:36:35.001Z</time></trkpt><trkpt lat="41.324147061184064" lon="1.2300175443987849"><ele>342.0</ele><time>2026-05-04T15:36:36.001Z</time></trkpt><trkpt lat="41.32403593445766" lon="1.2300997776994258"><ele>342.0</ele><time>2026-05-04T15:36:37.001Z</time></trkpt><trkpt lat="41.32392262205648" lon="1.2301795561388844"><ele>342.0</ele><time>2026-05-04T15:36:38.001Z</time></trkpt><trkpt lat="41.323809006324325" lon="1.23025804447946"><ele>342.0</ele><time>2026-05-04T15:36:39.001Z</time></trkpt><trkpt lat="41.32369554495852" lon="1.230333982085018"><ele>342.0</ele><time>2026-05-04T15:36:40.001Z</time></trkpt><trkpt lat="41.32358279158154" lon="1.2304114854789017"><ele>340.75</ele><time>2026-05-04T15:36:41.001Z</time></trkpt><trkpt lat="41.323471077238004" lon="1.2304957096304525"><ele>339.5</ele><time>2026-05-04T15:36:42.001Z</time></trkpt><trkpt lat="41.32335872518528" lon="1.2305759600168824"><ele>338.25</ele><time>2026-05-04T15:36:43.001Z</time></trkpt><trkpt lat="41.32324891473277" lon="1.2306551050482057"><ele>337.0</ele><time>2026-05-04T15:36:44.001Z</time></trkpt><trkpt lat="41.323137274034764" lon="1.2307343072736767"><ele>336.0</ele><time>2026-05-04T15:36:45.001Z</time></trkpt><trkpt lat="41.32302628591686" lon="1.23081441851761"><ele>335.0</ele><time>2026-05-04T15:36:46.001Z</time></trkpt><trkpt lat="41.32291458679398" lon="1.2308981030281076"><ele>334.0</ele><time>2026-05-04T15:36:47.001Z</time></trkpt><trkpt lat="41.322803509567336" lon="1.2309796717927823"><ele>333.0</ele><time>2026-05-04T15:36:48.001Z</time></trkpt><trkpt lat="41.322691173303205" lon="1.2310575380929372"><ele>333.0</ele><time>2026-05-04T15:36:49.001Z</time></trkpt><trkpt lat="41.32257798773326" lon="1.2311372315627633"><ele>333.0</ele><time>2026-05-04T15:36:50.001Z</time></trkpt><trkpt lat="41.32246388518851" lon="1.2312172297728101"><ele>333.0</ele><time>2026-05-04T15:36:51.001Z</time></trkpt><trkpt lat="41.32234991475502" lon="1.2313021725269204"><ele>333.0</ele><time>2026-05-04T15:36:52.001Z</time></trkpt><trkpt lat="41.32223432460162" lon="1.2313816129363164"><ele>332.25</ele><time>2026-05-04T15:36:53.001Z</time></trkpt><trkpt lat="41.32211976676268" lon="1.2314509862181533"><ele>331.5</ele><time>2026-05-04T15:36:54.001Z</time></trkpt><trkpt lat="41.32200834238226" lon="1.2315321175952447"><ele>330.75</ele><time>2026-05-04T15:36:55.001Z</time></trkpt><trkpt lat="41.3218963718232" lon="1.2316102247439578"><ele>330.0</ele><time>2026-05-04T15:36:56.001Z</time></trkpt><trkpt lat="41.3217827190681" lon="1.231688762752991"><ele>330.0</ele><time>2026-05-04T15:36:57.001Z</time></trkpt><trkpt lat="41.3216719592682" lon="1.2317724811083761"><ele>330.0</ele><time>2026-05-04T15:36:58.001Z</time></trkpt><trkpt lat="41.321559775997486" lon="1.2318525707628203"><ele>330.0</ele><time>2026-05-04T15:36:59.001Z</time></trkpt><trkpt lat="41.32144450876524" lon="1.2319290407136987"><ele>330.0</ele><time>2026-05-04T15:37:00.001Z</time></trkpt><trkpt lat="41.321326333448695" lon="1.2320016268432799"><ele>328.75</ele><time>2026-05-04T15:37:01.001Z</time></trkpt><trkpt lat="41.321205923936546" lon="1.2320752105171808"><ele>327.5</ele><time>2026-05-04T15:37:02.001Z</time></trkpt><trkpt lat="41.321088394849475" lon="1.2321517012714491"><ele>326.25</ele><time>2026-05-04T15:37:03.001Z</time></trkpt><trkpt lat="41.32097139195482" lon="1.2322257119033326"><ele>325.0</ele><time>2026-05-04T15:37:04.001Z</time></trkpt><trkpt lat="41.32085205429956" lon="1.2322989674631604"><ele>324.5</ele><time>2026-05-04T15:37:05.001Z</time></trkpt><trkpt lat="41.32073366779789" lon="1.2323773644008935"><ele>324.0</ele><time>2026-05-04T15:37:06.001Z</time></trkpt><trkpt lat="41.32061809322764" lon="1.232455037814539"><ele>323.5</ele><time>2026-05-04T15:37:07.001Z</time></trkpt><trkpt lat="41.32050079471833" lon="1.2325398927062452"><ele>323.0</ele><time>2026-05-04T15:37:08.001Z</time></trkpt><trkpt lat="41.32038150462363" lon="1.2326176819407024"><ele>322.25</ele><time>2026-05-04T15:37:09.001Z</time></trkpt><trkpt lat="41.3202600036139" lon="1.2326877993551326"><ele>321.5</ele><time>2026-05-04T15:37:10.001Z</time></trkpt><trkpt lat="41.320139654637764" lon="1.2327502785842628"><ele>320.75</ele><time>2026-05-04T15:37:11.001Z</time></trkpt><trkpt lat="41.32001930660725" lon="1.2328191923881682"><ele>320.0</ele><time>2026-05-04T15:37:12.001Z</time></trkpt><trkpt lat="41.319899416508356" lon="1.232890453938036"><ele>320.0</ele><time>2026-05-04T15:37:13.001Z</time></trkpt><trkpt lat="41.319778479952284" lon="1.2329594645735582"><ele>320.0</ele><time>2026-05-04T15:37:14.001Z</time></trkpt><trkpt lat="41.319657028499684" lon="1.2330320777420116"><ele>320.0</ele><time>2026-05-04T15:37:15.001Z</time></trkpt><trkpt lat="41.31953586702027" lon="1.2331047912443827"><ele>320.0</ele><time>2026-05-04T15:37:16.001Z</time></trkpt><trkpt lat="41.31941440188446" lon="1.233170754107765"><ele>318.5</ele><time>2026-05-04T15:37:17.001Z</time></trkpt><trkpt lat="41.319293766149386" lon="1.2332315731733448"><ele>317.0</ele><time>2026-05-04T15:37:18.001Z</time></trkpt><trkpt lat="41.319171436185215" lon="1.2332957047382982"><ele>315.5</ele><time>2026-05-04T15:37:19.001Z</time></trkpt><trkpt lat="41.31905033237863" lon="1.2333581219187923"><ele>314.0</ele><time>2026-05-04T15:37:20.001Z</time></trkpt><trkpt lat="41.31892816000004" lon="1.233422068722048"><ele>313.5</ele><time>2026-05-04T15:37:21.001Z</time></trkpt><trkpt lat="41.31880609322072" lon="1.233486177657398"><ele>313.0</ele><time>2026-05-04T15:37:22.001Z</time></trkpt><trkpt lat="41.3186840013466" lon="1.233549329721471"><ele>312.5</ele><time>2026-05-04T15:37:23.001Z</time></trkpt><trkpt lat="41.31856089102206" lon="1.2336091263255657"><ele>312.0</ele><time>2026-05-04T15:37:24.001Z</time></trkpt><trkpt lat="41.318436462642175" lon="1.2336684226975374"><ele>312.0</ele><time>2026-05-04T15:37:25.001Z</time></trkpt><trkpt lat="41.318312094794194" lon="1.2337304839192673"><ele>312.0</ele><time>2026-05-04T15:37:26.001Z</time></trkpt><trkpt lat="41.318184825307405" lon="1.233789946100786"><ele>312.0</ele><time>2026-05-04T15:37:27.001Z</time></trkpt><trkpt lat="41.31805756549262" lon="1.233848540418031"><ele>312.0</ele><time>2026-05-04T15:37:28.001Z</time></trkpt><trkpt lat="41.317929083217265" lon="1.2339084062155075"><ele>312.5</ele><time>2026-05-04T15:37:29.001Z</time></trkpt><trkpt lat="41.31779836985369" lon="1.233965739203729"><ele>313.0</ele><time>2026-05-04T15:37:30.001Z</time></trkpt><trkpt lat="41.31767341241984" lon="1.2340221577493466"><ele>313.5</ele><time>2026-05-04T15:37:31.001Z</time></trkpt><trkpt lat="41.31754699950178" lon="1.2340761939045648"><ele>314.0</ele><time>2026-05-04T15:37:32.001Z</time></trkpt><trkpt lat="41.317424044507135" lon="1.2341303258553986"><ele>313.0</ele><time>2026-05-04T15:37:33.001Z</time></trkpt><trkpt lat="41.317301686853476" lon="1.2341824241566914"><ele>312.0</ele><time>2026-05-04T15:37:34.001Z</time></trkpt><trkpt lat="41.31718005142144" lon="1.2342350113395735"><ele>311.0</ele><time>2026-05-04T15:37:35.001Z</time></trkpt><trkpt lat="41.317062717217155" lon="1.2342855759071278"><ele>310.0</ele><time>2026-05-04T15:37:36.002Z</time></trkpt><trkpt lat="41.31694372252024" lon="1.2343365066273448"><ele>310.0</ele><time>2026-05-04T15:37:37.002Z</time></trkpt><trkpt lat="41.31682057555683" lon="1.2343831380765011"><ele>310.0</ele><time>2026-05-04T15:37:38.002Z</time></trkpt><trkpt lat="41.31669763469063" lon="1.2344268552151594"><ele>310.0</ele><time>2026-05-04T15:37:39.002Z</time></trkpt><trkpt lat="41.316578494702306" lon="1.2344723258514636"><ele>310.0</ele><time>2026-05-04T15:37:40.002Z</time></trkpt><trkpt lat="41.31645855336166" lon="1.2345187261424224"><ele>309.0</ele><time>2026-05-04T15:37:41Z</time></trkpt><trkpt lat="41.31633719843066" lon="1.2345641044545217"><ele>308.0</ele><time>2026-05-04T15:37:42Z</time></trkpt><trkpt lat="41.3162145654598" lon="1.2346122985940808"><ele>307.0</ele><time>2026-05-04T15:37:43Z</time></trkpt><trkpt lat="41.31609131077066" lon="1.234653721816697"><ele>306.0</ele><time>2026-05-04T15:37:44Z</time></trkpt><trkpt lat="41.31596738574097" lon="1.2346951136235518"><ele>306.0</ele><time>2026-05-04T15:37:45Z</time></trkpt><trkpt lat="41.31584577528704" lon="1.2347420074929814"><ele>306.0</ele><time>2026-05-04T15:37:46Z</time></trkpt><trkpt lat="41.31572526493136" lon="1.2347833172933975"><ele>306.0</ele><time>2026-05-04T15:37:47Z</time></trkpt><trkpt lat="41.31560337308668" lon="1.2348204743228421"><ele>306.0</ele><time>2026-05-04T15:37:48Z</time></trkpt><trkpt lat="41.31548520349819" lon="1.2348617916834077"><ele>304.75</ele><time>2026-05-04T15:37:49Z</time></trkpt><trkpt lat="41.31536693081506" lon="1.234902573832994"><ele>303.5</ele><time>2026-05-04T15:37:50Z</time></trkpt><trkpt lat="41.31524701129517" lon="1.2349404013280085"><ele>302.25</ele><time>2026-05-04T15:37:51Z</time></trkpt><trkpt lat="41.315123701974656" lon="1.2349722688506832"><ele>301.0</ele><time>2026-05-04T15:37:52Z</time></trkpt><trkpt lat="41.31500014309085" lon="1.234999954370728"><ele>301.0</ele><time>2026-05-04T15:37:53Z</time></trkpt><trkpt lat="41.3148791683741" lon="1.235028164958365"><ele>301.0</ele><time>2026-05-04T15:37:54Z</time></trkpt><trkpt lat="41.31475682394932" lon="1.2350520223348154"><ele>301.0</ele><time>2026-05-04T15:37:55Z</time></trkpt><trkpt lat="41.314632214994674" lon="1.2350681189880883"><ele>301.0</ele><time>2026-05-04T15:37:56Z</time></trkpt><trkpt lat="41.31450775869442" lon="1.235083547873173"><ele>300.25</ele><time>2026-05-04T15:37:57Z</time></trkpt><trkpt lat="41.31438551784734" lon="1.235100827200557"><ele>299.5</ele><time>2026-05-04T15:37:58Z</time></trkpt><trkpt lat="41.31426225113953" lon="1.2351166273047225"><ele>298.75</ele><time>2026-05-04T15:37:59Z</time></trkpt><trkpt lat="41.314142297383" lon="1.235132841966576"><ele>298.0</ele><time>2026-05-04T15:38:00Z</time></trkpt><trkpt lat="41.31402279935513" lon="1.2351498529550269"><ele>297.75</ele><time>2026-05-04T15:38:01Z</time></trkpt><trkpt lat="41.31390339556758" lon="1.2351638224931674"><ele>297.5</ele><time>2026-05-04T15:38:02Z</time></trkpt><trkpt lat="41.313786543580704" lon="1.235176941824694"><ele>297.25</ele><time>2026-05-04T15:38:03Z</time></trkpt><trkpt lat="41.31366940832823" lon="1.2351813615027922"><ele>297.0</ele><time>2026-05-04T15:38:04Z</time></trkpt><trkpt lat="41.313549868282585" lon="1.2351780158987369"><ele>297.0</ele><time>2026-05-04T15:38:05Z</time></trkpt><trkpt lat="41.31343268536171" lon="1.2351595341756891"><ele>297.0</ele><time>2026-05-04T15:38:06Z</time></trkpt><trkpt lat="41.3133075412274" lon="1.2351449216119352"><ele>297.0</ele><time>2026-05-04T15:38:07Z</time></trkpt><trkpt lat="41.31318647558309" lon="1.2351265493943961"><ele>297.0</ele><time>2026-05-04T15:38:08Z</time></trkpt><trkpt lat="41.31306276623935" lon="1.2351077633313159"><ele>296.75</ele><time>2026-05-04T15:38:09Z</time></trkpt><trkpt lat="41.31294130314277" lon="1.2350941482085624"><ele>296.5</ele><time>2026-05-04T15:38:10Z</time></trkpt><trkpt lat="41.31282624591762" lon="1.235084391735444"><ele>296.25</ele><time>2026-05-04T15:38:11Z</time></trkpt><trkpt lat="41.312725011774134" lon="1.235073289065259"><ele>296.0</ele><time>2026-05-04T15:38:12Z</time></trkpt><trkpt lat="41.31261575945854" lon="1.235040222886818"><ele>296.0</ele><time>2026-05-04T15:38:13Z</time></trkpt><trkpt lat="41.31250995780132" lon="1.23501395322391"><ele>296.0</ele><time>2026-05-04T15:38:14Z</time></trkpt><trkpt lat="41.31240032508091" lon="1.2349871169293771"><ele>296.0</ele><time>2026-05-04T15:38:15Z</time></trkpt><trkpt lat="41.31228858008342" lon="1.2349655855365937"><ele>296.0</ele><time>2026-05-04T15:38:16Z</time></trkpt><trkpt lat="41.31217952678373" lon="1.234944115039929"><ele>296.0</ele><time>2026-05-04T15:38:17Z</time></trkpt><trkpt lat="41.31207547688972" lon="1.2349211304845156"><ele>295.2</ele><time>2026-05-04T15:38:18Z</time></trkpt><trkpt lat="41.31196995373712" lon="1.234898224081269"><ele>294.40000000000003</ele><time>2026-05-04T15:38:19Z</time></trkpt><trkpt lat="41.31187047823683" lon="1.2348655583336388"><ele>293.6</ele><time>2026-05-04T15:38:20Z</time></trkpt><trkpt lat="41.311780119331566" lon="1.2348060937175303"><ele>292.8</ele><time>2026-05-04T15:38:21Z</time></trkpt><trkpt lat="41.3116877588537" lon="1.2347488131096935"><ele>292.0</ele><time>2026-05-04T15:38:22Z</time></trkpt><trkpt lat="41.31162404194575" lon="1.2346523426199076"><ele>292.0</ele><time>2026-05-04T15:38:23Z</time></trkpt><trkpt lat="41.31158297449914" lon="1.234537350220227"><ele>292.0</ele><time>2026-05-04T15:38:24Z</time></trkpt><trkpt lat="41.31156168992246" lon="1.2344280059152708"><ele>292.0</ele><time>2026-05-04T15:38:25Z</time></trkpt><trkpt lat="41.31155188029512" lon="1.2343194104324215"><ele>292.0</ele><time>2026-05-04T15:38:26Z</time></trkpt><trkpt lat="41.31155338520009" lon="1.2342109107325876"><ele>292.0</ele><time>2026-05-04T15:38:27Z</time></trkpt><trkpt lat="41.311585769488076" lon="1.2341029685203095"><ele>292.0</ele><time>2026-05-04T15:38:28Z</time></trkpt><trkpt lat="41.31159093253184" lon="1.2339992386579648"><ele>292.3333333333333</ele><time>2026-05-04T15:38:29.001Z</time></trkpt><trkpt lat="41.311577053097864" lon="1.2339017365521205"><ele>292.66666666666663</ele><time>2026-05-04T15:38:30.001Z</time></trkpt><trkpt lat="41.31153951495407" lon="1.2338123315948717"><ele>293.0</ele><time>2026-05-04T15:38:31.001Z</time></trkpt><trkpt lat="41.311478248536304" lon="1.233739247183063"><ele>293.3333333333333</ele><time>2026-05-04T15:38:32.001Z</time></trkpt><trkpt lat="41.31141700775718" lon="1.233661736556334"><ele>293.6666666666667</ele><time>2026-05-04T15:38:33.001Z</time></trkpt><trkpt lat="41.31132920074088" lon="1.2336532065744843"><ele>294.0</ele><time>2026-05-04T15:38:34.001Z</time></trkpt><trkpt lat="41.311247176056966" lon="1.2336551959433626"><ele>293.1666666666667</ele><time>2026-05-04T15:38:35.001Z</time></trkpt><trkpt lat="41.31116325498799" lon="1.233692689747636"><ele>292.3333333333333</ele><time>2026-05-04T15:38:36.001Z</time></trkpt><trkpt lat="41.311086645479485" lon="1.2337607487606206"><ele>291.5</ele><time>2026-05-04T15:38:37.001Z</time></trkpt><trkpt lat="41.31103610741899" lon="1.2338465188181733"><ele>290.66666666666663</ele><time>2026-05-04T15:38:38.001Z</time></trkpt><trkpt lat="41.31101048658381" lon="1.2339569885865371"><ele>289.8333333333333</ele><time>2026-05-04T15:38:39.001Z</time></trkpt><trkpt lat="41.311011123505665" lon="1.234073453861754"><ele>289.0</ele><time>2026-05-04T15:38:40.001Z</time></trkpt><trkpt lat="41.31104056447396" lon="1.2341920890499642"><ele>288.8</ele><time>2026-05-04T15:38:41.001Z</time></trkpt><trkpt lat="41.311089475690764" lon="1.234299203506719"><ele>288.59999999999997</ele><time>2026-05-04T15:38:42.001Z</time></trkpt><trkpt lat="41.31106958248551" lon="1.234448405365891"><ele>288.4</ele><time>2026-05-04T15:38:43.001Z</time></trkpt><trkpt lat="41.311049598298524" lon="1.2345773995583682"><ele>288.2</ele><time>2026-05-04T15:38:44.001Z</time></trkpt><trkpt lat="41.31100861491881" lon="1.23470145502778"><ele>288.0</ele><time>2026-05-04T15:38:45.001Z</time></trkpt><trkpt lat="41.31096547931228" lon="1.2348215881547446"><ele>288.0</ele><time>2026-05-04T15:38:46.001Z</time></trkpt><trkpt lat="41.31092194422805" lon="1.2349523963621636"><ele>288.0</ele><time>2026-05-04T15:38:47.001Z</time></trkpt><trkpt lat="41.3108819321759" lon="1.2350831407185252"><ele>288.0</ele><time>2026-05-04T15:38:48.001Z</time></trkpt><trkpt lat="41.310836361314784" lon="1.2352179364848996"><ele>288.0</ele><time>2026-05-04T15:38:49.001Z</time></trkpt><trkpt lat="41.31079361222694" lon="1.2353407397842329"><ele>288.0</ele><time>2026-05-04T15:38:50.001Z</time></trkpt><trkpt lat="41.31075998382345" lon="1.2354642542500298"><ele>288.0</ele><time>2026-05-04T15:38:51.001Z</time></trkpt><trkpt lat="41.310734572400705" lon="1.2355845180368548"><ele>288.0</ele><time>2026-05-04T15:38:52.001Z</time></trkpt><trkpt lat="41.310687889514504" lon="1.2356835163670454"><ele>288.0</ele><time>2026-05-04T15:38:53.001Z</time></trkpt><trkpt lat="41.3106172362759" lon="1.2357615612102688"><ele>288.0</ele><time>2026-05-04T15:38:54.001Z</time></trkpt><trkpt lat="41.310528551349584" lon="1.2358084198216313"><ele>288.0</ele><time>2026-05-04T15:38:55.001Z</time></trkpt><trkpt lat="41.310442964339174" lon="1.2358518329689794"><ele>287.5</ele><time>2026-05-04T15:38:56.001Z</time></trkpt><trkpt lat="41.31037432339884" lon="1.2359094795177343"><ele>287.0</ele><time>2026-05-04T15:38:57.001Z</time></trkpt><trkpt lat="41.31032277957234" lon="1.2359885917125544"><ele>286.5</ele><time>2026-05-04T15:38:58.001Z</time></trkpt><trkpt lat="41.31028731039405" lon="1.2360795982243278"><ele>286.0</ele><time>2026-05-04T15:38:59.001Z</time></trkpt><trkpt lat="41.31025567990307" lon="1.2361829120967445"><ele>285.5</ele><time>2026-05-04T15:39:00.001Z</time></trkpt><trkpt lat="41.31025379202508" lon="1.236284932833522"><ele>285.0</ele><time>2026-05-04T15:39:01.001Z</time></trkpt><trkpt lat="41.31014076353474" lon="1.2363671909902445"><ele>285.0</ele><time>2026-05-04T15:39:02.001Z</time></trkpt><trkpt lat="41.310059788955755" lon="1.2364355569808607"><ele>285.0</ele><time>2026-05-04T15:39:03.001Z</time></trkpt><trkpt lat="41.30995987018795" lon="1.2364693533171773"><ele>285.0</ele><time>2026-05-04T15:39:04.001Z</time></trkpt><trkpt lat="41.30986792783295" lon="1.2365400815082581"><ele>285.0</ele><time>2026-05-04T15:39:05.001Z</time></trkpt><trkpt lat="41.309766228792256" lon="1.2365877112385466"><ele>285.0</ele><time>2026-05-04T15:39:06.001Z</time></trkpt><trkpt lat="41.30965871180258" lon="1.2366328022414503"><ele>285.0</ele><time>2026-05-04T15:39:07.001Z</time></trkpt><trkpt lat="41.309559563192146" lon="1.2366816741516073"><ele>285.0</ele><time>2026-05-04T15:39:08.001Z</time></trkpt><trkpt lat="41.309455759333034" lon="1.2367448081866959"><ele>285.0</ele><time>2026-05-04T15:39:09.001Z</time></trkpt><trkpt lat="41.30934586484485" lon="1.2368039231439423"><ele>285.0</ele><time>2026-05-04T15:39:10.001Z</time></trkpt><trkpt lat="41.30923527445501" lon="1.2368663563793556"><ele>285.0</ele><time>2026-05-04T15:39:11.001Z</time></trkpt><trkpt lat="41.30912365340414" lon="1.2369233781384292"><ele>285.0</ele><time>2026-05-04T15:39:12.001Z</time></trkpt><trkpt lat="41.30900990342129" lon="1.2369801730762053"><ele>285.0</ele><time>2026-05-04T15:39:13.001Z</time></trkpt><trkpt lat="41.30889876464527" lon="1.2370372823034137"><ele>285.0</ele><time>2026-05-04T15:39:14.001Z</time></trkpt><trkpt lat="41.308789352613644" lon="1.2370938066787884"><ele>285.0</ele><time>2026-05-04T15:39:15.001Z</time></trkpt><trkpt lat="41.30867868399635" lon="1.2371503517716897"><ele>285.0</ele><time>2026-05-04T15:39:16.001Z</time></trkpt><trkpt lat="41.308565922705945" lon="1.2372065944618509"><ele>285.0</ele><time>2026-05-04T15:39:17.001Z</time></trkpt><trkpt lat="41.3084541341679" lon="1.2372631867038242"><ele>285.0</ele><time>2026-05-04T15:39:18.001Z</time></trkpt><trkpt lat="41.30834383532402" lon="1.2373195913592394"><ele>284.5</ele><time>2026-05-04T15:39:19.001Z</time></trkpt><trkpt lat="41.30823391082504" lon="1.2373771829575793"><ele>284.0</ele><time>2026-05-04T15:39:20.001Z</time></trkpt><trkpt lat="41.30812529186981" lon="1.2374316764770428"><ele>283.5</ele><time>2026-05-04T15:39:21.001Z</time></trkpt><trkpt lat="41.3080160080565" lon="1.2374879056890933"><ele>283.0</ele><time>2026-05-04T15:39:22.001Z</time></trkpt><trkpt lat="41.30791220677103" lon="1.2375424287508887"><ele>281.75</ele><time>2026-05-04T15:39:23.001Z</time></trkpt><trkpt lat="41.30780323839512" lon="1.237603133091288"><ele>280.5</ele><time>2026-05-04T15:39:24.001Z</time></trkpt><trkpt lat="41.307694539989875" lon="1.2376611798832042"><ele>279.25</ele><time>2026-05-04T15:39:25.001Z</time></trkpt><trkpt lat="41.307585334972465" lon="1.23771931852806"><ele>278.0</ele><time>2026-05-04T15:39:26.001Z</time></trkpt><trkpt lat="41.30747481733585" lon="1.2377717448251007"><ele>278.0</ele><time>2026-05-04T15:39:27.001Z</time></trkpt><trkpt lat="41.307364846355" lon="1.237823381086606"><ele>278.0</ele><time>2026-05-04T15:39:28.001Z</time></trkpt><trkpt lat="41.30725790233729" lon="1.2378776691009061"><ele>278.0</ele><time>2026-05-04T15:39:29.001Z</time></trkpt><trkpt lat="41.307143504874354" lon="1.237940027199556"><ele>278.0</ele><time>2026-05-04T15:39:30.001Z</time></trkpt><trkpt lat="41.30699239384365" lon="1.2380294940428689"><ele>277.25</ele><time>2026-05-04T15:39:31.001Z</time></trkpt><trkpt lat="41.30680633812972" lon="1.2381077634442974"><ele>276.5</ele><time>2026-05-04T15:39:32.001Z</time></trkpt><trkpt lat="41.3067330821199" lon="1.2381562861971225"><ele>275.75</ele><time>2026-05-04T15:39:34.001Z</time></trkpt><trkpt lat="41.30662498816716" lon="1.2382108490631414"><ele>275.0</ele><time>2026-05-04T15:39:35.002Z</time></trkpt><trkpt lat="41.30651894243102" lon="1.2382701736625368"><ele>274.75</ele><time>2026-05-04T15:39:36.002Z</time></trkpt><trkpt lat="41.30641549329513" lon="1.2383278694181414"><ele>274.5</ele><time>2026-05-04T15:39:37.002Z</time></trkpt><trkpt lat="41.30631252422937" lon="1.238386236018123"><ele>274.25</ele><time>2026-05-04T15:39:38.002Z</time></trkpt><trkpt lat="41.30620998187522" lon="1.2384509225575857"><ele>274.0</ele><time>2026-05-04T15:39:39.002Z</time></trkpt><trkpt lat="41.306107567094784" lon="1.2385126291158857"><ele>273.5</ele><time>2026-05-04T15:39:40.002Z</time></trkpt><trkpt lat="41.3060017431842" lon="1.238572510268755"><ele>273.0</ele><time>2026-05-04T15:39:41.002Z</time></trkpt><trkpt lat="41.30589741216498" lon="1.2386382904245907"><ele>272.5</ele><time>2026-05-04T15:39:42.002Z</time></trkpt><trkpt lat="41.305792616258934" lon="1.2387073336838248"><ele>272.0</ele><time>2026-05-04T15:39:43.002Z</time></trkpt><trkpt lat="41.305683811638374" lon="1.238756502743331"><ele>272.0</ele><time>2026-05-04T15:39:44.002Z</time></trkpt><trkpt lat="41.30558284937219" lon="1.238820430126644"><ele>272.0</ele><time>2026-05-04T15:39:45.002Z</time></trkpt><trkpt lat="41.305479209635436" lon="1.238886137662635"><ele>272.0</ele><time>2026-05-04T15:39:46.002Z</time></trkpt><trkpt lat="41.30537769337031" lon="1.2389504988963687"><ele>272.0</ele><time>2026-05-04T15:39:47Z</time></trkpt><trkpt lat="41.305276917586944" lon="1.2390169798783888"><ele>270.5</ele><time>2026-05-04T15:39:48Z</time></trkpt><trkpt lat="41.30517465609782" lon="1.2390848582963185"><ele>269.0</ele><time>2026-05-04T15:39:49Z</time></trkpt><trkpt lat="41.30507346463299" lon="1.2391520264806821"><ele>267.5</ele><time>2026-05-04T15:39:50Z</time></trkpt><trkpt lat="41.30497039364038" lon="1.2392215420539605"><ele>266.0</ele><time>2026-05-04T15:39:51Z</time></trkpt><trkpt lat="41.304871380006524" lon="1.2392895501653718"><ele>266.0</ele><time>2026-05-04T15:39:52Z</time></trkpt><trkpt lat="41.30477278147247" lon="1.2393572730833988"><ele>266.0</ele><time>2026-05-04T15:39:53Z</time></trkpt><trkpt lat="41.30467865757905" lon="1.2394226030963835"><ele>266.0</ele><time>2026-05-04T15:39:54Z</time></trkpt><trkpt lat="41.30458941727149" lon="1.239486288294275"><ele>266.0</ele><time>2026-05-04T15:39:55Z</time></trkpt><trkpt lat="41.30450190422942" lon="1.2395504873877936"><ele>266.0</ele><time>2026-05-04T15:39:56Z</time></trkpt><trkpt lat="41.30441828932067" lon="1.2396242904114634"><ele>265.6</ele><time>2026-05-04T15:39:57Z</time></trkpt><trkpt lat="41.30432793255371" lon="1.239676136217104"><ele>265.20000000000005</ele><time>2026-05-04T15:39:58Z</time></trkpt><trkpt lat="41.30421999454518" lon="1.2396961245471398"><ele>264.79999999999995</ele><time>2026-05-04T15:39:59Z</time></trkpt><trkpt lat="41.304116226324055" lon="1.2396913966139371"><ele>264.4</ele><time>2026-05-04T15:40:00Z</time></trkpt><trkpt lat="41.30403898343125" lon="1.2397075175309615"><ele>264.0</ele><time>2026-05-04T15:40:02Z</time></trkpt><trkpt lat="41.30397531872325" lon="1.2397688258742345"><ele>263.25</ele><time>2026-05-04T15:40:03Z</time></trkpt><trkpt lat="41.30391788774088" lon="1.2400212491459488"><ele>262.5</ele><time>2026-05-04T15:40:04Z</time></trkpt><trkpt lat="41.30397423612933" lon="1.2401807430661052"><ele>261.75</ele><time>2026-05-04T15:40:05Z</time></trkpt><trkpt lat="41.304018794844076" lon="1.2403017407802934"><ele>261.0</ele><time>2026-05-04T15:40:06Z</time></trkpt><trkpt lat="41.30405726960734" lon="1.24042525158024"><ele>261.0</ele><time>2026-05-04T15:40:07Z</time></trkpt><trkpt lat="41.30405870027795" lon="1.2405698050030858"><ele>261.0</ele><time>2026-05-04T15:40:08Z</time></trkpt><trkpt lat="41.303995181709915" lon="1.2407034401276995"><ele>261.0</ele><time>2026-05-04T15:40:09Z</time></trkpt><trkpt lat="41.30397235257776" lon="1.2408484735472334"><ele>261.0</ele><time>2026-05-04T15:40:10Z</time></trkpt><trkpt lat="41.30396852894056" lon="1.2409995066856465"><ele>260.25</ele><time>2026-05-04T15:40:11Z</time></trkpt><trkpt lat="41.3039501849368" lon="1.2411479271635735"><ele>259.5</ele><time>2026-05-04T15:40:12Z</time></trkpt><trkpt lat="41.30394189381362" lon="1.2412987024013586"><ele>258.75</ele><time>2026-05-04T15:40:13Z</time></trkpt><trkpt lat="41.303936031852786" lon="1.2414494954448547"><ele>258.0</ele><time>2026-05-04T15:40:14Z</time></trkpt><trkpt lat="41.303939055588" lon="1.241595752000425"><ele>257.5</ele><time>2026-05-04T15:40:15Z</time></trkpt><trkpt lat="41.30392772485275" lon="1.2417378394033303"><ele>257.0</ele><time>2026-05-04T15:40:16Z</time></trkpt><trkpt lat="41.30393176645563" lon="1.2418338443094372"><ele>256.5</ele><time>2026-05-04T15:40:17Z</time></trkpt><trkpt lat="41.30393738862073" lon="1.241951980724687"><ele>256.0</ele><time>2026-05-04T15:40:18Z</time></trkpt><trkpt lat="41.30395968803707" lon="1.2422033106343295"><ele>256.0</ele><time>2026-05-04T15:40:19Z</time></trkpt><trkpt lat="41.303969190078476" lon="1.2423509660664664"><ele>256.0</ele><time>2026-05-04T15:40:20Z</time></trkpt><trkpt lat="41.30397961011208" lon="1.2424963865321106"><ele>256.0</ele><time>2026-05-04T15:40:21Z</time></trkpt><trkpt lat="41.30398905967144" lon="1.2426414177959388"><ele>256.0</ele><time>2026-05-04T15:40:22Z</time></trkpt><trkpt lat="41.304000150073165" lon="1.2427841494704321"><ele>256.0</ele><time>2026-05-04T15:40:23.001Z</time></trkpt><trkpt lat="41.30400249296721" lon="1.2429296305172366"><ele>256.0</ele><time>2026-05-04T15:40:24.001Z</time></trkpt><trkpt lat="41.30401144579979" lon="1.2430726298487176"><ele>256.0</ele><time>2026-05-04T15:40:25.001Z</time></trkpt><trkpt lat="41.30402312772243" lon="1.2432167858579757"><ele>256.0</ele><time>2026-05-04T15:40:26.001Z</time></trkpt><trkpt lat="41.30403330794767" lon="1.2433596958242217"><ele>256.0</ele><time>2026-05-04T15:40:27.001Z</time></trkpt><trkpt lat="41.3040446737597" lon="1.2435041909851396"><ele>256.0</ele><time>2026-05-04T15:40:28.001Z</time></trkpt><trkpt lat="41.30404957371457" lon="1.243649589636149"><ele>256.2</ele><time>2026-05-04T15:40:29.001Z</time></trkpt><trkpt lat="41.304061350966556" lon="1.2437944602148732"><ele>256.40000000000003</ele><time>2026-05-04T15:40:30.001Z</time></trkpt><trkpt lat="41.3040721833906" lon="1.2439386975483804"><ele>256.6</ele><time>2026-05-04T15:40:31.001Z</time></trkpt><trkpt lat="41.30408079198992" lon="1.2440860181414977"><ele>256.8</ele><time>2026-05-04T15:40:32.001Z</time></trkpt><trkpt lat="41.304084147405135" lon="1.2442273107658381"><ele>257.0</ele><time>2026-05-04T15:40:33.001Z</time></trkpt><trkpt lat="41.304095443470466" lon="1.244376595593836"><ele>257.0</ele><time>2026-05-04T15:40:34.001Z</time></trkpt><trkpt lat="41.3041064334372" lon="1.2445233684073873"><ele>257.0</ele><time>2026-05-04T15:40:35.001Z</time></trkpt><trkpt lat="41.30411723619507" lon="1.244670122716789"><ele>257.0</ele><time>2026-05-04T15:40:36.001Z</time></trkpt><trkpt lat="41.30412830429982" lon="1.2448177925096544"><ele>257.0</ele><time>2026-05-04T15:40:37.001Z</time></trkpt><trkpt lat="41.30412910422452" lon="1.2449651232680023"><ele>257.0</ele><time>2026-05-04T15:40:38.001Z</time></trkpt><trkpt lat="41.30413711237201" lon="1.2451141164752155"><ele>257.2</ele><time>2026-05-04T15:40:39.001Z</time></trkpt><trkpt lat="41.30414638381352" lon="1.2452609817431595"><ele>257.4</ele><time>2026-05-04T15:40:40.001Z</time></trkpt><trkpt lat="41.30415577451623" lon="1.2454088946586335"><ele>257.6</ele><time>2026-05-04T15:40:41.001Z</time></trkpt><trkpt lat="41.30417096057729" lon="1.2455562054862486"><ele>257.8</ele><time>2026-05-04T15:40:42.001Z</time></trkpt><trkpt lat="41.304180165424604" lon="1.2457032818811846"><ele>258.0</ele><time>2026-05-04T15:40:43.001Z</time></trkpt><trkpt lat="41.30418839401479" lon="1.2458514420641917"><ele>258.0</ele><time>2026-05-04T15:40:44.001Z</time></trkpt><trkpt lat="41.30419935343361" lon="1.2459989144800399"><ele>258.0</ele><time>2026-05-04T15:40:45.001Z</time></trkpt><trkpt lat="41.30420889399343" lon="1.2461457715304485"><ele>258.0</ele><time>2026-05-04T15:40:46.001Z</time></trkpt><trkpt lat="41.304219217900865" lon="1.2462927830765727"><ele>258.0</ele><time>2026-05-04T15:40:47.001Z</time></trkpt><trkpt lat="41.30422141657063" lon="1.2464443797967921"><ele>258.0</ele><time>2026-05-04T15:40:48.001Z</time></trkpt><trkpt lat="41.30423071680795" lon="1.2465919509878125"><ele>257.25</ele><time>2026-05-04T15:40:49.001Z</time></trkpt><trkpt lat="41.30424190296672" lon="1.2467451131134217"><ele>256.5</ele><time>2026-05-04T15:40:50.001Z</time></trkpt><trkpt lat="41.304248027724796" lon="1.246888200165381"><ele>255.75</ele><time>2026-05-04T15:40:51.001Z</time></trkpt><trkpt lat="41.30424559073604" lon="1.2470474313154174"><ele>255.0</ele><time>2026-05-04T15:40:52.001Z</time></trkpt><trkpt lat="41.304246440467075" lon="1.247200071000834"><ele>254.6</ele><time>2026-05-04T15:40:53.001Z</time></trkpt><trkpt lat="41.30424723860707" lon="1.2473465913338586"><ele>254.2</ele><time>2026-05-04T15:40:54.001Z</time></trkpt><trkpt lat="41.30424496757456" lon="1.2474952236312746"><ele>253.8</ele><time>2026-05-04T15:40:55.001Z</time></trkpt><trkpt lat="41.30423690973037" lon="1.247644667609342"><ele>253.4</ele><time>2026-05-04T15:40:56.001Z</time></trkpt><trkpt lat="41.30422608279774" lon="1.2477903717433356"><ele>253.0</ele><time>2026-05-04T15:40:57.001Z</time></trkpt><trkpt lat="41.30419715906909" lon="1.2479381482911378"><ele>253.0</ele><time>2026-05-04T15:40:58.001Z</time></trkpt><trkpt lat="41.30419178005953" lon="1.2480989524225092"><ele>253.0</ele><time>2026-05-04T15:40:59.001Z</time></trkpt><trkpt lat="41.30417131422702" lon="1.2482494761129355"><ele>253.0</ele><time>2026-05-04T15:41:00.001Z</time></trkpt><trkpt lat="41.30414753906938" lon="1.2483995026682773"><ele>253.0</ele><time>2026-05-04T15:41:01.001Z</time></trkpt><trkpt lat="41.3041254922849" lon="1.2485457838049083"><ele>252.5</ele><time>2026-05-04T15:41:02.001Z</time></trkpt><trkpt lat="41.30409735890376" lon="1.2486961431477546"><ele>252.0</ele><time>2026-05-04T15:41:03.001Z</time></trkpt><trkpt lat="41.30405191307131" lon="1.248834843862283"><ele>251.5</ele><time>2026-05-04T15:41:04.001Z</time></trkpt><trkpt lat="41.30403430024687" lon="1.2489859451685732"><ele>251.0</ele><time>2026-05-04T15:41:05.001Z</time></trkpt><trkpt lat="41.304001830822564" lon="1.2491292919369665"><ele>250.4</ele><time>2026-05-04T15:41:06.001Z</time></trkpt><trkpt lat="41.30395353593444" lon="1.2492659738899632"><ele>249.8</ele><time>2026-05-04T15:41:07.001Z</time></trkpt><trkpt lat="41.30392038728957" lon="1.249408357460593"><ele>249.20000000000002</ele><time>2026-05-04T15:41:08.001Z</time></trkpt><trkpt lat="41.30388767467769" lon="1.2495488681550202"><ele>248.60000000000002</ele><time>2026-05-04T15:41:09.001Z</time></trkpt><trkpt lat="41.30386302632748" lon="1.2496913172652067"><ele>248.0</ele><time>2026-05-04T15:41:10.001Z</time></trkpt><trkpt lat="41.303829968136135" lon="1.2498340430373402"><ele>248.0</ele><time>2026-05-04T15:41:11.001Z</time></trkpt><trkpt lat="41.303797773721755" lon="1.249981717847839"><ele>248.0</ele><time>2026-05-04T15:41:12.001Z</time></trkpt><trkpt lat="41.303759594765005" lon="1.2501194777987488"><ele>248.0</ele><time>2026-05-04T15:41:13.001Z</time></trkpt><trkpt lat="41.30372746808952" lon="1.250258459611629"><ele>248.0</ele><time>2026-05-04T15:41:14.001Z</time></trkpt><trkpt lat="41.3036980031773" lon="1.2503956843194486"><ele>248.0</ele><time>2026-05-04T15:41:15.001Z</time></trkpt><trkpt lat="41.303666647155474" lon="1.2505380636865284"><ele>248.8</ele><time>2026-05-04T15:41:16.001Z</time></trkpt><trkpt lat="41.30363478666025" lon="1.2506746080761915"><ele>249.60000000000002</ele><time>2026-05-04T15:41:17.001Z</time></trkpt><trkpt lat="41.303600278244126" lon="1.250812445467111"><ele>250.39999999999998</ele><time>2026-05-04T15:41:18.001Z</time></trkpt><trkpt lat="41.30356831911357" lon="1.2509515145210888"><ele>251.2</ele><time>2026-05-04T15:41:19.001Z</time></trkpt><trkpt lat="41.303526827937056" lon="1.2510929840192118"><ele>252.0</ele><time>2026-05-04T15:41:20.001Z</time></trkpt><trkpt lat="41.30349331896024" lon="1.251228548381703"><ele>252.0</ele><time>2026-05-04T15:41:21.001Z</time></trkpt><trkpt lat="41.30346201662001" lon="1.251371919506316"><ele>252.0</ele><time>2026-05-04T15:41:22.001Z</time></trkpt><trkpt lat="41.30342551465882" lon="1.25150857117351"><ele>252.0</ele><time>2026-05-04T15:41:23.001Z</time></trkpt><trkpt lat="41.30339108588258" lon="1.2516466966472675"><ele>252.0</ele><time>2026-05-04T15:41:24.001Z</time></trkpt><trkpt lat="41.30335546698903" lon="1.2517858945160043"><ele>252.0</ele><time>2026-05-04T15:41:25.001Z</time></trkpt><trkpt lat="41.30332097856006" lon="1.251922917355134"><ele>252.0</ele><time>2026-05-04T15:41:26.001Z</time></trkpt><trkpt lat="41.303280845227626" lon="1.252061443329348"><ele>252.0</ele><time>2026-05-04T15:41:27.001Z</time></trkpt><trkpt lat="41.30323840365562" lon="1.252197223894623"><ele>252.0</ele><time>2026-05-04T15:41:28.001Z</time></trkpt><trkpt lat="41.30319797510632" lon="1.2523343341928896"><ele>252.0</ele><time>2026-05-04T15:41:29.001Z</time></trkpt><trkpt lat="41.303164472516265" lon="1.2524730921556033"><ele>252.0</ele><time>2026-05-04T15:41:30.001Z</time></trkpt><trkpt lat="41.303120800970696" lon="1.2526092286214359"><ele>252.0</ele><time>2026-05-04T15:41:31.001Z</time></trkpt><trkpt lat="41.3030772471634" lon="1.2527442690728487"><ele>252.0</ele><time>2026-05-04T15:41:32.001Z</time></trkpt><trkpt lat="41.30303845303545" lon="1.2528836769788514"><ele>252.0</ele><time>2026-05-04T15:41:33.001Z</time></trkpt><trkpt lat="41.302997521474495" lon="1.2530232383345534"><ele>252.0</ele><time>2026-05-04T15:41:34.001Z</time></trkpt><trkpt lat="41.302953248780035" lon="1.2531596259515616"><ele>252.0</ele><time>2026-05-04T15:41:35.001Z</time></trkpt><trkpt lat="41.30290957303608" lon="1.2532941126358437"><ele>252.2</ele><time>2026-05-04T15:41:36.001Z</time></trkpt><trkpt lat="41.302863400899" lon="1.2534215448640136"><ele>252.39999999999998</ele><time>2026-05-04T15:41:37.001Z</time></trkpt><trkpt lat="41.30282548158466" lon="1.253563374589372"><ele>252.60000000000002</ele><time>2026-05-04T15:41:38.002Z</time></trkpt><trkpt lat="41.30278193443228" lon="1.2537001014183287"><ele>252.8</ele><time>2026-05-04T15:41:39.002Z</time></trkpt><trkpt lat="41.302739336375524" lon="1.2538319589402296"><ele>253.0</ele><time>2026-05-04T15:41:40.002Z</time></trkpt><trkpt lat="41.30269612369674" lon="1.253969454171962"><ele>253.0</ele><time>2026-05-04T15:41:41.002Z</time></trkpt><trkpt lat="41.30265534543501" lon="1.25410886010363"><ele>253.0</ele><time>2026-05-04T15:41:42.002Z</time></trkpt><trkpt lat="41.30260988271914" lon="1.2542465259595705"><ele>253.0</ele><time>2026-05-04T15:41:43.002Z</time></trkpt><trkpt lat="41.30256730859685" lon="1.2543864427848894"><ele>253.0</ele><time>2026-05-04T15:41:44.002Z</time></trkpt><trkpt lat="41.302516424925344" lon="1.2545303929760079"><ele>253.0</ele><time>2026-05-04T15:41:45.002Z</time></trkpt><trkpt lat="41.30247236290514" lon="1.2546697674166787"><ele>253.0</ele><time>2026-05-04T15:41:46.002Z</time></trkpt><trkpt lat="41.302425325363814" lon="1.2548110867036442"><ele>253.0</ele><time>2026-05-04T15:41:47.002Z</time></trkpt><trkpt lat="41.30239239422138" lon="1.2549528366251126"><ele>253.0</ele><time>2026-05-04T15:41:48.002Z</time></trkpt><trkpt lat="41.302337887252634" lon="1.2550978406111102"><ele>251.75</ele><time>2026-05-04T15:41:49.002Z</time></trkpt><trkpt lat="41.302294271980784" lon="1.2552395490671406"><ele>250.5</ele><time>2026-05-04T15:41:50.002Z</time></trkpt><trkpt lat="41.302248539201976" lon="1.2553803151165959"><ele>249.25</ele><time>2026-05-04T15:41:51.002Z</time></trkpt><trkpt lat="41.30220537291244" lon="1.2555179894590736"><ele>248.0</ele><time>2026-05-04T15:41:52.002Z</time></trkpt><trkpt lat="41.30216050901216" lon="1.2556583446429597"><ele>246.5</ele><time>2026-05-04T15:41:53.001Z</time></trkpt><trkpt lat="41.30211169153716" lon="1.255800934822692"><ele>245.0</ele><time>2026-05-04T15:41:54.001Z</time></trkpt><trkpt lat="41.30206493851429" lon="1.255941995166805"><ele>243.5</ele><time>2026-05-04T15:41:55.001Z</time></trkpt><trkpt lat="41.30201563260458" lon="1.2560807209060338"><ele>242.0</ele><time>2026-05-04T15:41:56.001Z</time></trkpt><trkpt lat="41.30196528389142" lon="1.2562167441312293"><ele>242.0</ele><time>2026-05-04T15:41:57.001Z</time></trkpt><trkpt lat="41.301917600761286" lon="1.2563543387787928"><ele>242.0</ele><time>2026-05-04T15:41:58.001Z</time></trkpt><trkpt lat="41.30186725056633" lon="1.2564927699810704"><ele>242.0</ele><time>2026-05-04T15:41:59.001Z</time></trkpt><trkpt lat="41.30182246162787" lon="1.2566313416452932"><ele>242.0</ele><time>2026-05-04T15:42:00.001Z</time></trkpt><trkpt lat="41.30177731600841" lon="1.2567727838990868"><ele>241.5</ele><time>2026-05-04T15:42:01.001Z</time></trkpt><trkpt lat="41.30172583734968" lon="1.2569090454448284"><ele>241.0</ele><time>2026-05-04T15:42:02.001Z</time></trkpt><trkpt lat="41.3016765180913" lon="1.2570473637084"><ele>240.5</ele><time>2026-05-04T15:42:03.001Z</time></trkpt><trkpt lat="41.30162664447281" lon="1.2571847027003735"><ele>240.0</ele><time>2026-05-04T15:42:04.001Z</time></trkpt><trkpt lat="41.30157527031246" lon="1.2573200629041794"><ele>240.5</ele><time>2026-05-04T15:42:05.001Z</time></trkpt><trkpt lat="41.301527379052615" lon="1.2574579216086943"><ele>241.0</ele><time>2026-05-04T15:42:06.001Z</time></trkpt><trkpt lat="41.30147414124321" lon="1.257591576695194"><ele>241.5</ele><time>2026-05-04T15:42:07.001Z</time></trkpt><trkpt lat="41.30142260244208" lon="1.257724982542838"><ele>242.0</ele><time>2026-05-04T15:42:08.001Z</time></trkpt><trkpt lat="41.30137546497839" lon="1.2578611661970993"><ele>242.0</ele><time>2026-05-04T15:42:09.001Z</time></trkpt><trkpt lat="41.30132346637313" lon="1.2579918405818058"><ele>242.0</ele><time>2026-05-04T15:42:10.001Z</time></trkpt><trkpt lat="41.30127754991542" lon="1.2581274314280029"><ele>242.0</ele><time>2026-05-04T15:42:11.001Z</time></trkpt><trkpt lat="41.30122751048129" lon="1.2582616635561392"><ele>242.0</ele><time>2026-05-04T15:42:12.001Z</time></trkpt><trkpt lat="41.3011789494406" lon="1.2583959047577322"><ele>242.0</ele><time>2026-05-04T15:42:13.001Z</time></trkpt><trkpt lat="41.30113060254336" lon="1.2585284736547013"><ele>243.39999999999998</ele><time>2026-05-04T15:42:14.001Z</time></trkpt><trkpt lat="41.30108344348639" lon="1.2586578283623813"><ele>244.79999999999998</ele><time>2026-05-04T15:42:15.001Z</time></trkpt><trkpt lat="41.301032404441266" lon="1.2587936978854177"><ele>246.2</ele><time>2026-05-04T15:42:16.001Z</time></trkpt><trkpt lat="41.300984304262975" lon="1.2589314188936664"><ele>247.6</ele><time>2026-05-04T15:42:17.001Z</time></trkpt><trkpt lat="41.300933149987436" lon="1.2590612296217334"><ele>249.0</ele><time>2026-05-04T15:42:18.001Z</time></trkpt><trkpt lat="41.30089012886601" lon="1.2591994756609133"><ele>250.0</ele><time>2026-05-04T15:42:19.001Z</time></trkpt><trkpt lat="41.300844180966195" lon="1.2593363027019773"><ele>250.99999999999997</ele><time>2026-05-04T15:42:20.001Z</time></trkpt><trkpt lat="41.30079374062429" lon="1.2594706454930928"><ele>251.99999999999997</ele><time>2026-05-04T15:42:21.001Z</time></trkpt><trkpt lat="41.30074466309368" lon="1.2596036552300367"><ele>253.0</ele><time>2026-05-04T15:42:22.001Z</time></trkpt><trkpt lat="41.30067720967922" lon="1.2597206787410613"><ele>254.0</ele><time>2026-05-04T15:42:23.001Z</time></trkpt><trkpt lat="41.300644271620236" lon="1.259867138430534"><ele>254.0</ele><time>2026-05-04T15:42:24.001Z</time></trkpt><trkpt lat="41.300584084779054" lon="1.2599913895529053"><ele>253.99999999999997</ele><time>2026-05-04T15:42:25.001Z</time></trkpt><trkpt lat="41.30053536870286" lon="1.2601232983537212"><ele>253.99999999999997</ele><time>2026-05-04T15:42:26.001Z</time></trkpt><trkpt lat="41.300499603250024" lon="1.2602694624318962"><ele>254.0</ele><time>2026-05-04T15:42:27.001Z</time></trkpt><trkpt lat="41.30044658560287" lon="1.2603970788227814"><ele>254.0</ele><time>2026-05-04T15:42:28.001Z</time></trkpt><trkpt lat="41.30039479183723" lon="1.2605270238803448"><ele>253.0</ele><time>2026-05-04T15:42:29.001Z</time></trkpt><trkpt lat="41.30034392918713" lon="1.2606595749305682"><ele>252.0</ele><time>2026-05-04T15:42:30.001Z</time></trkpt><trkpt lat="41.30029034758999" lon="1.260794395499457"><ele>251.0</ele><time>2026-05-04T15:42:31.001Z</time></trkpt><trkpt lat="41.3002424752449" lon="1.2609282880312664"><ele>250.0</ele><time>2026-05-04T15:42:32.001Z</time></trkpt><trkpt lat="41.300191056898974" lon="1.2610637908744133"><ele>250.0</ele><time>2026-05-04T15:42:33.001Z</time></trkpt><trkpt lat="41.3001490139925" lon="1.2611933683944654"><ele>250.0</ele><time>2026-05-04T15:42:34.001Z</time></trkpt><trkpt lat="41.300098528776346" lon="1.261327198420443"><ele>250.0</ele><time>2026-05-04T15:42:35.001Z</time></trkpt><trkpt lat="41.30004459400642" lon="1.2614593358161421"><ele>250.0</ele><time>2026-05-04T15:42:36.001Z</time></trkpt><trkpt lat="41.29999681110027" lon="1.2615951669566663"><ele>250.0</ele><time>2026-05-04T15:42:37.001Z</time></trkpt><trkpt lat="41.29995162942441" lon="1.2617282311047187"><ele>250.0</ele><time>2026-05-04T15:42:38.001Z</time></trkpt><trkpt lat="41.29990157629909" lon="1.2618609449485794"><ele>250.0</ele><time>2026-05-04T15:42:39.001Z</time></trkpt><trkpt lat="41.299852372472955" lon="1.2619976291372703"><ele>250.0</ele><time>2026-05-04T15:42:40.001Z</time></trkpt><trkpt lat="41.299813620206066" lon="1.262146905431043"><ele>250.0</ele><time>2026-05-04T15:42:41.001Z</time></trkpt><trkpt lat="41.29975749196295" lon="1.2622847982850156"><ele>249.6</ele><time>2026-05-04T15:42:42.001Z</time></trkpt><trkpt lat="41.29969376502583" lon="1.2623978072947377"><ele>249.2</ele><time>2026-05-04T15:42:43.001Z</time></trkpt><trkpt lat="41.299639066558406" lon="1.2625218777470228"><ele>248.8</ele><time>2026-05-04T15:42:44.001Z</time></trkpt><trkpt lat="41.29958497309846" lon="1.2626555793783911"><ele>248.4</ele><time>2026-05-04T15:42:45.001Z</time></trkpt><trkpt lat="41.29953222898118" lon="1.2627909945947358"><ele>248.0</ele><time>2026-05-04T15:42:46.001Z</time></trkpt><trkpt lat="41.29947954388515" lon="1.262921593952813"><ele>248.0</ele><time>2026-05-04T15:42:47.001Z</time></trkpt><trkpt lat="41.299424676092336" lon="1.263047517877696"><ele>248.0</ele><time>2026-05-04T15:42:48.001Z</time></trkpt><trkpt lat="41.299366808607815" lon="1.2631787894601063"><ele>248.0</ele><time>2026-05-04T15:42:49.001Z</time></trkpt><trkpt lat="41.29930765579728" lon="1.2633035612015124"><ele>248.0</ele><time>2026-05-04T15:42:50.001Z</time></trkpt><trkpt lat="41.299250182461044" lon="1.2634295750387992"><ele>248.0</ele><time>2026-05-04T15:42:51.001Z</time></trkpt><trkpt lat="41.299194754597586" lon="1.2635584427346354"><ele>248.5</ele><time>2026-05-04T15:42:52.001Z</time></trkpt><trkpt lat="41.29912775629843" lon="1.263677103437446"><ele>249.0</ele><time>2026-05-04T15:42:53.001Z</time></trkpt><trkpt lat="41.29906152054268" lon="1.263801934038695"><ele>249.5</ele><time>2026-05-04T15:42:54.001Z</time></trkpt><trkpt lat="41.29899721193187" lon="1.2639332647593524"><ele>250.0</ele><time>2026-05-04T15:42:55.001Z</time></trkpt><trkpt lat="41.298940117744515" lon="1.2640534950003737"><ele>250.0</ele><time>2026-05-04T15:42:56.001Z</time></trkpt><trkpt lat="41.29887717929719" lon="1.264181432354344"><ele>250.0</ele><time>2026-05-04T15:42:57.001Z</time></trkpt><trkpt lat="41.29880793971854" lon="1.2643065934007698"><ele>250.0</ele><time>2026-05-04T15:42:58.001Z</time></trkpt><trkpt lat="41.29873746946942" lon="1.2644302999004584"><ele>250.0</ele><time>2026-05-04T15:42:59.001Z</time></trkpt><trkpt lat="41.29866385372115" lon="1.2645536162632747"><ele>250.0</ele><time>2026-05-04T15:43:00.001Z</time></trkpt><trkpt lat="41.29858881739336" lon="1.2646732091191244"><ele>250.0</ele><time>2026-05-04T15:43:01.001Z</time></trkpt><trkpt lat="41.298513972601754" lon="1.2647882370291315"><ele>250.0</ele><time>2026-05-04T15:43:02.001Z</time></trkpt><trkpt lat="41.29843619390518" lon="1.2649004835116098"><ele>250.0</ele><time>2026-05-04T15:43:03.001Z</time></trkpt><trkpt lat="41.298353442470116" lon="1.265008568121883"><ele>250.25</ele><time>2026-05-04T15:43:04.001Z</time></trkpt><trkpt lat="41.2982732648417" lon="1.265122513436587"><ele>250.5</ele><time>2026-05-04T15:43:05.001Z</time></trkpt><trkpt lat="41.29819266358869" lon="1.2652293996374475"><ele>250.75</ele><time>2026-05-04T15:43:06.001Z</time></trkpt><trkpt lat="41.298103210795546" lon="1.2653320398158123"><ele>251.0</ele><time>2026-05-04T15:43:07.001Z</time></trkpt><trkpt lat="41.298016343687344" lon="1.265436664559732"><ele>250.5</ele><time>2026-05-04T15:43:08.001Z</time></trkpt><trkpt lat="41.297927863070775" lon="1.2655335233999019"><ele>250.0</ele><time>2026-05-04T15:43:09.001Z</time></trkpt><trkpt lat="41.29783714320639" lon="1.265629432136008"><ele>249.5</ele><time>2026-05-04T15:43:10.001Z</time></trkpt><trkpt lat="41.297747242208686" lon="1.2657224565583451"><ele>249.0</ele><time>2026-05-04T15:43:11.001Z</time></trkpt><trkpt lat="41.297654344458444" lon="1.2658099915826653"><ele>248.25</ele><time>2026-05-04T15:43:12.001Z</time></trkpt><trkpt lat="41.297555196932706" lon="1.2659002513808968"><ele>247.5</ele><time>2026-05-04T15:43:13.001Z</time></trkpt><trkpt lat="41.29745753395549" lon="1.2659850393531817"><ele>246.75</ele><time>2026-05-04T15:43:14.001Z</time></trkpt><trkpt lat="41.29736266912097" lon="1.266062493918441"><ele>246.0</ele><time>2026-05-04T15:43:15.001Z</time></trkpt><trkpt lat="41.297254549823734" lon="1.2661422062494676"><ele>245.25</ele><time>2026-05-04T15:43:16.001Z</time></trkpt><trkpt lat="41.29715422935348" lon="1.2662161570555934"><ele>244.5</ele><time>2026-05-04T15:43:17.001Z</time></trkpt><trkpt lat="41.29705421612927" lon="1.2662747730525283"><ele>243.75</ele><time>2026-05-04T15:43:18.001Z</time></trkpt><trkpt lat="41.296947099023186" lon="1.2663372913998763"><ele>243.0</ele><time>2026-05-04T15:43:19.001Z</time></trkpt><trkpt lat="41.2968411590996" lon="1.2664146757255017"><ele>242.0</ele><time>2026-05-04T15:43:20.001Z</time></trkpt><trkpt lat="41.296739478104364" lon="1.2664624720569473"><ele>241.0</ele><time>2026-05-04T15:43:21.001Z</time></trkpt><trkpt lat="41.29663049102452" lon="1.266516982290384"><ele>240.0</ele><time>2026-05-04T15:43:22.001Z</time></trkpt><trkpt lat="41.29652348740062" lon="1.2665751061441541"><ele>239.0</ele><time>2026-05-04T15:43:23.001Z</time></trkpt><trkpt lat="41.296408680034006" lon="1.2666361624957327"><ele>239.0</ele><time>2026-05-04T15:43:24.001Z</time></trkpt><trkpt lat="41.29630037077847" lon="1.2666895666928788"><ele>239.0</ele><time>2026-05-04T15:43:25.001Z</time></trkpt><trkpt lat="41.29619118569598" lon="1.2667469688066457"><ele>239.0</ele><time>2026-05-04T15:43:26.001Z</time></trkpt><trkpt lat="41.29607970106644" lon="1.266804251973849"><ele>239.0</ele><time>2026-05-04T15:43:27.001Z</time></trkpt><trkpt lat="41.29596806792471" lon="1.266857863137696"><ele>239.0</ele><time>2026-05-04T15:43:28.001Z</time></trkpt><trkpt lat="41.29585838430183" lon="1.2669101019174351"><ele>239.0</ele><time>2026-05-04T15:43:29.001Z</time></trkpt><trkpt lat="41.295745565294354" lon="1.2669634655369117"><ele>239.0</ele><time>2026-05-04T15:43:30.001Z</time></trkpt><trkpt lat="41.29563542941485" lon="1.2670220242333343"><ele>239.0</ele><time>2026-05-04T15:43:31.001Z</time></trkpt><trkpt lat="41.295523165548815" lon="1.2670772659632126"><ele>238.5</ele><time>2026-05-04T15:43:32.001Z</time></trkpt><trkpt lat="41.29541203464138" lon="1.2671309259945558"><ele>238.0</ele><time>2026-05-04T15:43:33.001Z</time></trkpt><trkpt lat="41.29530050659523" lon="1.2671882561962038"><ele>237.5</ele><time>2026-05-04T15:43:34.001Z</time></trkpt><trkpt lat="41.29519012551095" lon="1.2672418430999626"><ele>237.0</ele><time>2026-05-04T15:43:35.001Z</time></trkpt><trkpt lat="41.295079197822986" lon="1.2672980419636906"><ele>236.0</ele><time>2026-05-04T15:43:36.001Z</time></trkpt><trkpt lat="41.29496503847244" lon="1.2673502699091883"><ele>235.0</ele><time>2026-05-04T15:43:37.001Z</time></trkpt><trkpt lat="41.29485245704677" lon="1.2674089802208914"><ele>234.0</ele><time>2026-05-04T15:43:38.001Z</time></trkpt><trkpt lat="41.29474119288028" lon="1.2674671384332914"><ele>233.0</ele><time>2026-05-04T15:43:39.001Z</time></trkpt><trkpt lat="41.29462876914232" lon="1.2675222116715252"><ele>233.0</ele><time>2026-05-04T15:43:40.001Z</time></trkpt><trkpt lat="41.29451712754235" lon="1.2675790671821312"><ele>233.0</ele><time>2026-05-04T15:43:41.001Z</time></trkpt><trkpt lat="41.29440810599505" lon="1.267627072041267"><ele>233.0</ele><time>2026-05-04T15:43:42.001Z</time></trkpt><trkpt lat="41.294296131818186" lon="1.2676843569355225"><ele>233.0</ele><time>2026-05-04T15:43:43.001Z</time></trkpt><trkpt lat="41.29418625527727" lon="1.2677407303160972"><ele>233.0</ele><time>2026-05-04T15:43:44.001Z</time></trkpt><trkpt lat="41.29407854326569" lon="1.2678049987085533"><ele>233.0</ele><time>2026-05-04T15:43:45.002Z</time></trkpt><trkpt lat="41.293971601836176" lon="1.26786500467938"><ele>233.0</ele><time>2026-05-04T15:43:46.002Z</time></trkpt><trkpt lat="41.29386576007727" lon="1.2679281775074214"><ele>233.0</ele><time>2026-05-04T15:43:47.002Z</time></trkpt><trkpt lat="41.29376024041326" lon="1.2679959976207829"><ele>233.0</ele><time>2026-05-04T15:43:48.002Z</time></trkpt><trkpt lat="41.29365562149673" lon="1.2680704063724035"><ele>233.0</ele><time>2026-05-04T15:43:49.002Z</time></trkpt><trkpt lat="41.293555718601354" lon="1.2681482650985092"><ele>233.0</ele><time>2026-05-04T15:43:50.002Z</time></trkpt><trkpt lat="41.29345589210297" lon="1.2682254891386073"><ele>233.0</ele><time>2026-05-04T15:43:51.002Z</time></trkpt><trkpt lat="41.29335941398633" lon="1.2683059652781803"><ele>233.5</ele><time>2026-05-04T15:43:52.002Z</time></trkpt><trkpt lat="41.29326365339569" lon="1.2683921819146038"><ele>234.0</ele><time>2026-05-04T15:43:53.002Z</time></trkpt><trkpt lat="41.293170267967824" lon="1.2684832935249024"><ele>234.5</ele><time>2026-05-04T15:43:54.002Z</time></trkpt><trkpt lat="41.293078984377054" lon="1.2685790923059652"><ele>235.0</ele><time>2026-05-04T15:43:55.002Z</time></trkpt><trkpt lat="41.29298631663723" lon="1.268666893395618"><ele>235.25</ele><time>2026-05-04T15:43:56.002Z</time></trkpt><trkpt lat="41.29290220158763" lon="1.2687722030081547"><ele>235.5</ele><time>2026-05-04T15:43:57.002Z</time></trkpt><trkpt lat="41.29281739324189" lon="1.2688738793449545"><ele>235.75</ele><time>2026-05-04T15:43:58.002Z</time></trkpt><trkpt lat="41.29273937768734" lon="1.2689871959117118"><ele>236.0</ele><time>2026-05-04T15:43:59Z</time></trkpt><trkpt lat="41.29266020953246" lon="1.2690933722280866"><ele>236.60000000000002</ele><time>2026-05-04T15:44:00Z</time></trkpt><trkpt lat="41.29258399834453" lon="1.2691937660124872"><ele>237.20000000000002</ele><time>2026-05-04T15:44:01Z</time></trkpt><trkpt lat="41.2925117263141" lon="1.2693034452447594"><ele>237.79999999999998</ele><time>2026-05-04T15:44:02Z</time></trkpt><trkpt lat="41.29244285111277" lon="1.2694172731102453"><ele>238.39999999999998</ele><time>2026-05-04T15:44:03Z</time></trkpt><trkpt lat="41.292360300367946" lon="1.2695164873216094"><ele>239.0</ele><time>2026-05-04T15:44:04Z</time></trkpt><trkpt lat="41.29229043700389" lon="1.2696319271642504"><ele>239.39999999999998</ele><time>2026-05-04T15:44:05Z</time></trkpt><trkpt lat="41.29222207471851" lon="1.2697451963937265"><ele>239.79999999999998</ele><time>2026-05-04T15:44:06Z</time></trkpt><trkpt lat="41.29215337090606" lon="1.2698590319552754"><ele>240.20000000000002</ele><time>2026-05-04T15:44:07Z</time></trkpt><trkpt lat="41.29209144739559" lon="1.2699808284530467"><ele>240.60000000000002</ele><time>2026-05-04T15:44:08Z</time></trkpt><trkpt lat="41.29202528036603" lon="1.2700990976191164"><ele>241.0</ele><time>2026-05-04T15:44:09Z</time></trkpt><trkpt lat="41.291956245114406" lon="1.270211724147981"><ele>241.20000000000002</ele><time>2026-05-04T15:44:10Z</time></trkpt><trkpt lat="41.291883624484186" lon="1.2703237487726746"><ele>241.40000000000003</ele><time>2026-05-04T15:44:11Z</time></trkpt><trkpt lat="41.291808539008116" lon="1.2704336137784822"><ele>241.6</ele><time>2026-05-04T15:44:12Z</time></trkpt><trkpt lat="41.291728080377176" lon="1.2705393529560518"><ele>241.8</ele><time>2026-05-04T15:44:13Z</time></trkpt><trkpt lat="41.291643789872104" lon="1.2706357721635342"><ele>242.0</ele><time>2026-05-04T15:44:14Z</time></trkpt><trkpt lat="41.29154651746713" lon="1.2707121660351086"><ele>242.25</ele><time>2026-05-04T15:44:15Z</time></trkpt><trkpt lat="41.29145345700153" lon="1.270799821318911"><ele>242.5</ele><time>2026-05-04T15:44:16Z</time></trkpt><trkpt lat="41.291367141998386" lon="1.2708938961199532"><ele>242.75</ele><time>2026-05-04T15:44:17Z</time></trkpt><trkpt lat="41.291265088968196" lon="1.2709570391501432"><ele>243.0</ele><time>2026-05-04T15:44:18Z</time></trkpt><trkpt lat="41.29116220825162" lon="1.2710260891471588"><ele>243.25</ele><time>2026-05-04T15:44:19Z</time></trkpt><trkpt lat="41.291061277714775" lon="1.2710857279374237"><ele>243.5</ele><time>2026-05-04T15:44:20Z</time></trkpt><trkpt lat="41.290948700691125" lon="1.271143550883907"><ele>243.75</ele><time>2026-05-04T15:44:21Z</time></trkpt><trkpt lat="41.290846013368586" lon="1.2712059452750173"><ele>244.0</ele><time>2026-05-04T15:44:22Z</time></trkpt><trkpt lat="41.2907323797202" lon="1.271244814282286"><ele>244.0</ele><time>2026-05-04T15:44:23Z</time></trkpt><trkpt lat="41.290619999072526" lon="1.2712772882043757"><ele>243.99999999999997</ele><time>2026-05-04T15:44:24Z</time></trkpt><trkpt lat="41.29050666492221" lon="1.2712969619394285"><ele>243.99999999999997</ele><time>2026-05-04T15:44:25Z</time></trkpt><trkpt lat="41.29039967847489" lon="1.2713396436659674"><ele>244.0</ele><time>2026-05-04T15:44:26Z</time></trkpt><trkpt lat="41.2902966007414" lon="1.2713750222667244"><ele>244.0</ele><time>2026-05-04T15:44:27Z</time></trkpt><trkpt lat="41.29019902110215" lon="1.2713932390373206"><ele>244.0</ele><time>2026-05-04T15:44:28Z</time></trkpt><trkpt lat="41.29010945409266" lon="1.2714164828552346"><ele>243.99999999999997</ele><time>2026-05-04T15:44:29Z</time></trkpt><trkpt lat="41.29001794085405" lon="1.2714339342124465"><ele>243.99999999999997</ele><time>2026-05-04T15:44:30Z</time></trkpt><trkpt lat="41.28992171570013" lon="1.271423072660502"><ele>244.0</ele><time>2026-05-04T15:44:31Z</time></trkpt><trkpt lat="41.28982426743529" lon="1.2713727186646289"><ele>244.0</ele><time>2026-05-04T15:44:32Z</time></trkpt><trkpt lat="41.2897332097214" lon="1.2713139635171269"><ele>243.79999999999998</ele><time>2026-05-04T15:44:33Z</time></trkpt><trkpt lat="41.2896500155973" lon="1.2712857398459736"><ele>243.59999999999997</ele><time>2026-05-04T15:44:34Z</time></trkpt><trkpt lat="41.289563276417056" lon="1.271285827396889"><ele>243.4</ele><time>2026-05-04T15:44:35Z</time></trkpt><trkpt lat="41.289484969810836" lon="1.2713312068613574"><ele>243.2</ele><time>2026-05-04T15:44:36Z</time></trkpt><trkpt lat="41.28941695383702" lon="1.2713595111750373"><ele>243.0</ele><time>2026-05-04T15:44:37Z</time></trkpt><trkpt lat="41.28939928500592" lon="1.271542385577131"><ele>243.0</ele><time>2026-05-04T15:44:38Z</time></trkpt><trkpt lat="41.28939677202332" lon="1.2716658592864734"><ele>243.0</ele><time>2026-05-04T15:44:39Z</time></trkpt><trkpt lat="41.28943259241465" lon="1.2717874242392977"><ele>243.0</ele><time>2026-05-04T15:44:40Z</time></trkpt><trkpt lat="41.28949317436698" lon="1.271890329168617"><ele>243.0</ele><time>2026-05-04T15:44:41Z</time></trkpt><trkpt lat="41.28955786236528" lon="1.2719881185349318"><ele>243.0</ele><time>2026-05-04T15:44:42Z</time></trkpt><trkpt lat="41.2896147721637" lon="1.2720983655988014"><ele>243.0</ele><time>2026-05-04T15:44:43.001Z</time></trkpt><trkpt lat="41.28966168981717" lon="1.2722179480372529"><ele>243.0</ele><time>2026-05-04T15:44:44.001Z</time></trkpt><trkpt lat="41.289700298143224" lon="1.2723452276167257"><ele>243.0</ele><time>2026-05-04T15:44:45.001Z</time></trkpt><trkpt lat="41.2897326929172" lon="1.2724734242111342"><ele>243.0</ele><time>2026-05-04T15:44:46.001Z</time></trkpt><trkpt lat="41.28977107246973" lon="1.2726022770118643"><ele>243.0</ele><time>2026-05-04T15:44:47.001Z</time></trkpt><trkpt lat="41.28981131718892" lon="1.2727326837463966"><ele>242.8</ele><time>2026-05-04T15:44:48.001Z</time></trkpt><trkpt lat="41.28985051297473" lon="1.272870549264284"><ele>242.60000000000002</ele><time>2026-05-04T15:44:49.001Z</time></trkpt><trkpt lat="41.28988788975249" lon="1.2729994371090334"><ele>242.39999999999998</ele><time>2026-05-04T15:44:50.001Z</time></trkpt><trkpt lat="41.289928200539265" lon="1.273131450011511"><ele>242.2</ele><time>2026-05-04T15:44:51.001Z</time></trkpt><trkpt lat="41.289969362162715" lon="1.2732616358024822"><ele>242.0</ele><time>2026-05-04T15:44:52.001Z</time></trkpt><trkpt lat="41.29001018885359" lon="1.2733930697369207"><ele>242.0</ele><time>2026-05-04T15:44:53.001Z</time></trkpt><trkpt lat="41.29004973590347" lon="1.2735313828328927"><ele>242.0</ele><time>2026-05-04T15:44:54.001Z</time></trkpt><trkpt lat="41.290091436410506" lon="1.2736669752100604"><ele>242.0</ele><time>2026-05-04T15:44:55.001Z</time></trkpt><trkpt lat="41.2901316948509" lon="1.2738019640097897"><ele>242.0</ele><time>2026-05-04T15:44:56.001Z</time></trkpt><trkpt lat="41.29016859282387" lon="1.2739365727326066"><ele>242.0</ele><time>2026-05-04T15:44:57.001Z</time></trkpt><trkpt lat="41.290208077962944" lon="1.2740712077919425"><ele>242.2</ele><time>2026-05-04T15:44:58.001Z</time></trkpt><trkpt lat="41.29025075188149" lon="1.2742065895601857"><ele>242.39999999999998</ele><time>2026-05-04T15:44:59.001Z</time></trkpt><trkpt lat="41.29029124692716" lon="1.2743397770253118"><ele>242.60000000000002</ele><time>2026-05-04T15:45:00.001Z</time></trkpt><trkpt lat="41.290332474356575" lon="1.2744747290539653"><ele>242.8</ele><time>2026-05-04T15:45:01.001Z</time></trkpt><trkpt lat="41.29037334700753" lon="1.2746117101658472"><ele>243.0</ele><time>2026-05-04T15:45:02.001Z</time></trkpt><trkpt lat="41.29041280727553" lon="1.2747468551251755"><ele>243.2</ele><time>2026-05-04T15:45:03.001Z</time></trkpt><trkpt lat="41.2904528427207" lon="1.2748840790743947"><ele>243.4</ele><time>2026-05-04T15:45:04.001Z</time></trkpt><trkpt lat="41.290493769749894" lon="1.2750198858320294"><ele>243.59999999999997</ele><time>2026-05-04T15:45:05.001Z</time></trkpt><trkpt lat="41.29053688435012" lon="1.275155010056772"><ele>243.79999999999998</ele><time>2026-05-04T15:45:06.001Z</time></trkpt><trkpt lat="41.290576792370054" lon="1.2752894109736144"><ele>244.0</ele><time>2026-05-04T15:45:07.001Z</time></trkpt><trkpt lat="41.290618139510265" lon="1.2754239429711203"><ele>244.0</ele><time>2026-05-04T15:45:08.001Z</time></trkpt><trkpt lat="41.290659057081655" lon="1.2755597899392341"><ele>243.99999999999997</ele><time>2026-05-04T15:45:09.001Z</time></trkpt><trkpt lat="41.29069787425899" lon="1.2756977325811254"><ele>243.99999999999997</ele><time>2026-05-04T15:45:10.001Z</time></trkpt><trkpt lat="41.29073597696033" lon="1.2758339393613878"><ele>244.0</ele><time>2026-05-04T15:45:11.001Z</time></trkpt><trkpt lat="41.29077596580684" lon="1.2759683649498943"><ele>244.0</ele><time>2026-05-04T15:45:12.001Z</time></trkpt><trkpt lat="41.290816382020424" lon="1.2761020636938813"><ele>244.2</ele><time>2026-05-04T15:45:13.001Z</time></trkpt><trkpt lat="41.29085602426111" lon="1.2762358505600082"><ele>244.39999999999998</ele><time>2026-05-04T15:45:14.001Z</time></trkpt><trkpt lat="41.29089565808495" lon="1.2763669923896244"><ele>244.6</ele><time>2026-05-04T15:45:15.001Z</time></trkpt><trkpt lat="41.290935179527885" lon="1.2765007234019303"><ele>244.8</ele><time>2026-05-04T15:45:16.001Z</time></trkpt><trkpt lat="41.290975447648506" lon="1.2766339834651983"><ele>245.0</ele><time>2026-05-04T15:45:17.001Z</time></trkpt><trkpt lat="41.29101582589445" lon="1.2767654661129921"><ele>245.0</ele><time>2026-05-04T15:45:18.001Z</time></trkpt><trkpt lat="41.29105504630074" lon="1.2768993238933113"><ele>245.0</ele><time>2026-05-04T15:45:19.001Z</time></trkpt><trkpt lat="41.29109520098514" lon="1.2770316259353394"><ele>245.0</ele><time>2026-05-04T15:45:20.001Z</time></trkpt><trkpt lat="41.29113353537287" lon="1.277162791186331"><ele>245.0</ele><time>2026-05-04T15:45:21.001Z</time></trkpt><trkpt lat="41.291172500234936" lon="1.2772988635836728"><ele>245.0</ele><time>2026-05-04T15:45:22.001Z</time></trkpt><trkpt lat="41.29121492454101" lon="1.2774326458693535"><ele>245.0</ele><time>2026-05-04T15:45:23.001Z</time></trkpt><trkpt lat="41.29125225058072" lon="1.2775701176738403"><ele>245.0</ele><time>2026-05-04T15:45:24.001Z</time></trkpt><trkpt lat="41.29129822324142" lon="1.2777041779993163"><ele>245.0</ele><time>2026-05-04T15:45:25.001Z</time></trkpt><trkpt lat="41.29133530317628" lon="1.2778381968059156"><ele>245.0</ele><time>2026-05-04T15:45:26.001Z</time></trkpt><trkpt lat="41.291379259106826" lon="1.2779764210453781"><ele>245.0</ele><time>2026-05-04T15:45:27.001Z</time></trkpt><trkpt lat="41.2914185793736" lon="1.2781138727189114"><ele>245.0</ele><time>2026-05-04T15:45:28.001Z</time></trkpt><trkpt lat="41.29145873919667" lon="1.2782504904446823"><ele>245.0</ele><time>2026-05-04T15:45:29.001Z</time></trkpt><trkpt lat="41.29150084895626" lon="1.2783863691251451"><ele>245.0</ele><time>2026-05-04T15:45:30.001Z</time></trkpt><trkpt lat="41.29154086040744" lon="1.2785197770201107"><ele>245.0</ele><time>2026-05-04T15:45:31.001Z</time></trkpt><trkpt lat="41.29158659365508" lon="1.2786533651143506"><ele>245.0</ele><time>2026-05-04T15:45:32.001Z</time></trkpt><trkpt lat="41.29162492314265" lon="1.2787889587601953"><ele>245.0</ele><time>2026-05-04T15:45:33.001Z</time></trkpt><trkpt lat="41.29166512261137" lon="1.278925914621691"><ele>245.0</ele><time>2026-05-04T15:45:34.001Z</time></trkpt><trkpt lat="41.291707249785354" lon="1.2790624069742864"><ele>245.0</ele><time>2026-05-04T15:45:35.001Z</time></trkpt><trkpt lat="41.29174908098114" lon="1.2791964874222759"><ele>245.0</ele><time>2026-05-04T15:45:36.001Z</time></trkpt><trkpt lat="41.291791117623056" lon="1.2793335230237894"><ele>245.0</ele><time>2026-05-04T15:45:37.001Z</time></trkpt><trkpt lat="41.29182901144332" lon="1.2794689220851339"><ele>245.4</ele><time>2026-05-04T15:45:38.001Z</time></trkpt><trkpt lat="41.29187440649584" lon="1.2796043402266155"><ele>245.8</ele><time>2026-05-04T15:45:39.001Z</time></trkpt><trkpt lat="41.29191734631791" lon="1.2797410336889845"><ele>246.2</ele><time>2026-05-04T15:45:40.001Z</time></trkpt><trkpt lat="41.29195838158324" lon="1.279879320985853"><ele>246.6</ele><time>2026-05-04T15:45:41.001Z</time></trkpt><trkpt lat="41.29199725252419" lon="1.2800185381301905"><ele>247.0</ele><time>2026-05-04T15:45:42.001Z</time></trkpt><trkpt lat="41.292041169888705" lon="1.2801574998222724"><ele>247.25</ele><time>2026-05-04T15:45:43.001Z</time></trkpt><trkpt lat="41.29208310191636" lon="1.2802965382226854"><ele>247.5</ele><time>2026-05-04T15:45:44.001Z</time></trkpt><trkpt lat="41.29212653324163" lon="1.2804344584017966"><ele>247.75</ele><time>2026-05-04T15:45:45.001Z</time></trkpt><trkpt lat="41.29215665598309" lon="1.2805767877490846"><ele>248.0</ele><time>2026-05-04T15:45:46.001Z</time></trkpt><trkpt lat="41.292199626977556" lon="1.280718547939969"><ele>248.0</ele><time>2026-05-04T15:45:47.001Z</time></trkpt><trkpt lat="41.292238747784786" lon="1.2808562745411993"><ele>248.0</ele><time>2026-05-04T15:45:48.001Z</time></trkpt><trkpt lat="41.292276288949395" lon="1.2809982435511256"><ele>248.0</ele><time>2026-05-04T15:45:49.001Z</time></trkpt><trkpt lat="41.29231217111531" lon="1.2811396039349718"><ele>248.0</ele><time>2026-05-04T15:45:50.001Z</time></trkpt><trkpt lat="41.292346890322925" lon="1.281283974951287"><ele>248.0</ele><time>2026-05-04T15:45:51.001Z</time></trkpt><trkpt lat="41.29238085767505" lon="1.2814263889094937"><ele>248.0</ele><time>2026-05-04T15:45:52.001Z</time></trkpt><trkpt lat="41.29240984070547" lon="1.281571379201787"><ele>248.0</ele><time>2026-05-04T15:45:53.001Z</time></trkpt><trkpt lat="41.29244077217841" lon="1.281714955544652"><ele>248.0</ele><time>2026-05-04T15:45:54.001Z</time></trkpt><trkpt lat="41.292468238890656" lon="1.28185919862483"><ele>248.0</ele><time>2026-05-04T15:45:55.001Z</time></trkpt><trkpt lat="41.292496468510535" lon="1.2820020056737378"><ele>247.8</ele><time>2026-05-04T15:45:56.001Z</time></trkpt><trkpt lat="41.29252315450658" lon="1.2821458705481343"><ele>247.60000000000002</ele><time>2026-05-04T15:45:57.001Z</time></trkpt><trkpt lat="41.29254464901989" lon="1.2822894808875414"><ele>247.39999999999998</ele><time>2026-05-04T15:45:58.001Z</time></trkpt><trkpt lat="41.29256759148937" lon="1.2824355675880499"><ele>247.2</ele><time>2026-05-04T15:45:59.001Z</time></trkpt><trkpt lat="41.2925886069795" lon="1.2825811474014117"><ele>247.0</ele><time>2026-05-04T15:46:00.001Z</time></trkpt><trkpt lat="41.29260842202139" lon="1.282726047185195"><ele>247.0</ele><time>2026-05-04T15:46:01.001Z</time></trkpt><trkpt lat="41.29262941355873" lon="1.282871653216393"><ele>247.0</ele><time>2026-05-04T15:46:02.001Z</time></trkpt><trkpt lat="41.29264624402394" lon="1.2830193275632744"><ele>247.0</ele><time>2026-05-04T15:46:03.001Z</time></trkpt><trkpt lat="41.29266166053266" lon="1.283165136225921"><ele>247.0</ele><time>2026-05-04T15:46:04.001Z</time></trkpt><trkpt lat="41.292676956723426" lon="1.2833100885556732"><ele>247.0</ele><time>2026-05-04T15:46:05Z</time></trkpt><trkpt lat="41.2926904690504" lon="1.2834568622190037"><ele>247.0</ele><time>2026-05-04T15:46:06Z</time></trkpt><trkpt lat="41.2927019638335" lon="1.2836036372123085"><ele>247.0</ele><time>2026-05-04T15:46:07Z</time></trkpt><trkpt lat="41.2927131366208" lon="1.2837524620269232"><ele>247.0</ele><time>2026-05-04T15:46:08Z</time></trkpt><trkpt lat="41.29272156035828" lon="1.2839013663730776"><ele>247.0</ele><time>2026-05-04T15:46:09Z</time></trkpt><trkpt lat="41.29272970341229" lon="1.284049072615109"><ele>247.0</ele><time>2026-05-04T15:46:10Z</time></trkpt><trkpt lat="41.2927374167574" lon="1.2841957844679293"><ele>247.39999999999998</ele><time>2026-05-04T15:46:11Z</time></trkpt><trkpt lat="41.29274195191876" lon="1.2843451112930395"><ele>247.79999999999998</ele><time>2026-05-04T15:46:12Z</time></trkpt><trkpt lat="41.292745135863086" lon="1.2844920042811017"><ele>248.2</ele><time>2026-05-04T15:46:13Z</time></trkpt><trkpt lat="41.292747114684595" lon="1.2846403154050665"><ele>248.6</ele><time>2026-05-04T15:46:14Z</time></trkpt><trkpt lat="41.29274870874482" lon="1.284788639704135"><ele>249.0</ele><time>2026-05-04T15:46:15Z</time></trkpt><trkpt lat="41.29274563922967" lon="1.2849400965995903"><ele>249.0</ele><time>2026-05-04T15:46:16Z</time></trkpt><trkpt lat="41.29274549590541" lon="1.2850875050310466"><ele>249.0</ele><time>2026-05-04T15:46:17Z</time></trkpt><trkpt lat="41.29273845622166" lon="1.2852435368880517"><ele>249.0</ele><time>2026-05-04T15:46:18Z</time></trkpt><trkpt lat="41.29273839118834" lon="1.2853893882383578"><ele>249.0</ele><time>2026-05-04T15:46:19Z</time></trkpt><trkpt lat="41.29273641240194" lon="1.2855408514819069"><ele>248.6</ele><time>2026-05-04T15:46:20Z</time></trkpt><trkpt lat="41.29273273528912" lon="1.2856881243184222"><ele>248.2</ele><time>2026-05-04T15:46:21Z</time></trkpt><trkpt lat="41.29272845604021" lon="1.2858369944132735"><ele>247.79999999999998</ele><time>2026-05-04T15:46:22Z</time></trkpt><trkpt lat="41.29272656112862" lon="1.285984597925796"><ele>247.39999999999998</ele><time>2026-05-04T15:46:23Z</time></trkpt><trkpt lat="41.29272606970842" lon="1.2861336096352063"><ele>247.0</ele><time>2026-05-04T15:46:24Z</time></trkpt><trkpt lat="41.292722360461184" lon="1.286280265069479"><ele>246.8</ele><time>2026-05-04T15:46:25Z</time></trkpt><trkpt lat="41.292715240560774" lon="1.2864291738062656"><ele>246.6</ele><time>2026-05-04T15:46:26Z</time></trkpt><trkpt lat="41.29271026334405" lon="1.2865753280821606"><ele>246.40000000000003</ele><time>2026-05-04T15:46:27Z</time></trkpt><trkpt lat="41.292706826820414" lon="1.286722467849834"><ele>246.20000000000002</ele><time>2026-05-04T15:46:28Z</time></trkpt><trkpt lat="41.29270452200708" lon="1.2868687014881268"><ele>246.0</ele><time>2026-05-04T15:46:29Z</time></trkpt><trkpt lat="41.29270071447444" lon="1.2870156615406236"><ele>246.0</ele><time>2026-05-04T15:46:30Z</time></trkpt><trkpt lat="41.29269553843064" lon="1.2871625922344638"><ele>246.00000000000003</ele><time>2026-05-04T15:46:31Z</time></trkpt><trkpt lat="41.29269119187925" lon="1.2873110100195697"><ele>246.00000000000003</ele><time>2026-05-04T15:46:32Z</time></trkpt><trkpt lat="41.29268792617194" lon="1.2874577519775288"><ele>246.0</ele><time>2026-05-04T15:46:33Z</time></trkpt><trkpt lat="41.29268369347791" lon="1.2876044924098122"><ele>246.0</ele><time>2026-05-04T15:46:34Z</time></trkpt><trkpt lat="41.292679536618415" lon="1.2877502667320357"><ele>246.0</ele><time>2026-05-04T15:46:35Z</time></trkpt><trkpt lat="41.29267736573662" lon="1.2878972189142657"><ele>246.00000000000003</ele><time>2026-05-04T15:46:36Z</time></trkpt><trkpt lat="41.292673602636036" lon="1.2880424959685277"><ele>246.00000000000003</ele><time>2026-05-04T15:46:37Z</time></trkpt><trkpt lat="41.292670488401235" lon="1.2881892898737286"><ele>246.0</ele><time>2026-05-04T15:46:38Z</time></trkpt><trkpt lat="41.292664862191714" lon="1.2883378282131464"><ele>246.0</ele><time>2026-05-04T15:46:39Z</time></trkpt><trkpt lat="41.292661661886456" lon="1.2884873871370508"><ele>246.0</ele><time>2026-05-04T15:46:40Z</time></trkpt><trkpt lat="41.29265492256465" lon="1.2886351171968033"><ele>246.0</ele><time>2026-05-04T15:46:41Z</time></trkpt><trkpt lat="41.2926491916003" lon="1.2887858865551245"><ele>246.0</ele><time>2026-05-04T15:46:42Z</time></trkpt><trkpt lat="41.29263920368979" lon="1.2889396195868146"><ele>246.0</ele><time>2026-05-04T15:46:43Z</time></trkpt><trkpt lat="41.292625506188" lon="1.2890846090598933"><ele>246.25</ele><time>2026-05-04T15:46:44Z</time></trkpt><trkpt lat="41.292614317673575" lon="1.2892351570846037"><ele>246.5</ele><time>2026-05-04T15:46:45Z</time></trkpt><trkpt lat="41.292597916520236" lon="1.2893853690271802"><ele>246.75</ele><time>2026-05-04T15:46:46Z</time></trkpt><trkpt lat="41.292581065872255" lon="1.2895304869100888"><ele>247.0</ele><time>2026-05-04T15:46:47Z</time></trkpt><trkpt lat="41.29255717758895" lon="1.2896786278409997"><ele>247.5</ele><time>2026-05-04T15:46:48Z</time></trkpt><trkpt lat="41.29253207866562" lon="1.289826780492109"><ele>248.0</ele><time>2026-05-04T15:46:49Z</time></trkpt><trkpt lat="41.29249690961686" lon="1.2899742010365847"><ele>248.5</ele><time>2026-05-04T15:46:50Z</time></trkpt><trkpt lat="41.29247054208013" lon="1.2901196217395594"><ele>249.0</ele><time>2026-05-04T15:46:51Z</time></trkpt><trkpt lat="41.292437445938326" lon="1.2902630545748903"><ele>249.0</ele><time>2026-05-04T15:46:52Z</time></trkpt><trkpt lat="41.29239856800031" lon="1.290412120468756"><ele>249.0</ele><time>2026-05-04T15:46:53Z</time></trkpt><trkpt lat="41.292361403057704" lon="1.290555133731278"><ele>249.0</ele><time>2026-05-04T15:46:54Z</time></trkpt><trkpt lat="41.29231772028741" lon="1.2906892632777638"><ele>249.0</ele><time>2026-05-04T15:46:55Z</time></trkpt><trkpt lat="41.292271358042136" lon="1.290831771923669"><ele>248.6</ele><time>2026-05-04T15:46:56Z</time></trkpt><trkpt lat="41.29222303223855" lon="1.2909703201512235"><ele>248.2</ele><time>2026-05-04T15:46:57Z</time></trkpt><trkpt lat="41.29217298040023" lon="1.2911026891146695"><ele>247.79999999999998</ele><time>2026-05-04T15:46:58Z</time></trkpt><trkpt lat="41.292124329049386" lon="1.2912341487424543"><ele>247.39999999999998</ele><time>2026-05-04T15:46:59Z</time></trkpt><trkpt lat="41.29207073909404" lon="1.2913588652130448"><ele>247.0</ele><time>2026-05-04T15:47:00Z</time></trkpt><trkpt lat="41.29201439363262" lon="1.291483599763399"><ele>247.0</ele><time>2026-05-04T15:47:01Z</time></trkpt><trkpt lat="41.29195421273089" lon="1.2916038226040119"><ele>247.0</ele><time>2026-05-04T15:47:02Z</time></trkpt><trkpt lat="41.29189568511492" lon="1.2917217848025317"><ele>247.0</ele><time>2026-05-04T15:47:03Z</time></trkpt><trkpt lat="41.291837693232715" lon="1.2918421707429857"><ele>247.0</ele><time>2026-05-04T15:47:04Z</time></trkpt><trkpt lat="41.29178132879713" lon="1.2919585295019147"><ele>247.0</ele><time>2026-05-04T15:47:05.001Z</time></trkpt><trkpt lat="41.29172755447436" lon="1.2920654675779824"><ele>246.99999999999997</ele><time>2026-05-04T15:47:06.001Z</time></trkpt><trkpt lat="41.29167788394833" lon="1.2921630057011186"><ele>247.0</ele><time>2026-05-04T15:47:07.001Z</time></trkpt><trkpt lat="41.29161664528752" lon="1.2922435572123159"><ele>247.0</ele><time>2026-05-04T15:47:08.001Z</time></trkpt><trkpt lat="41.2915423258063" lon="1.292302255589033"><ele>247.0</ele><time>2026-05-04T15:47:09.001Z</time></trkpt><trkpt lat="41.29145505171032" lon="1.2923393385344992"><ele>246.99999999999997</ele><time>2026-05-04T15:47:10.001Z</time></trkpt><trkpt lat="41.291360061349955" lon="1.292325582166796"><ele>247.0</ele><time>2026-05-04T15:47:11.001Z</time></trkpt><trkpt lat="41.291271132813414" lon="1.2923531025181594"><ele>246.39999999999998</ele><time>2026-05-04T15:47:12.001Z</time></trkpt><trkpt lat="41.29119700379755" lon="1.2924240279934605"><ele>245.79999999999998</ele><time>2026-05-04T15:47:13.001Z</time></trkpt><trkpt lat="41.29113959757228" lon="1.292522129620592"><ele>245.2</ele><time>2026-05-04T15:47:14.001Z</time></trkpt><trkpt lat="41.2910973131015" lon="1.2926390938173051"><ele>244.6</ele><time>2026-05-04T15:47:15.001Z</time></trkpt><trkpt lat="41.29107917413433" lon="1.2927644953921815"><ele>244.0</ele><time>2026-05-04T15:47:16.001Z</time></trkpt><trkpt lat="41.29108376329277" lon="1.2928913335398846"><ele>244.0</ele><time>2026-05-04T15:47:17.001Z</time></trkpt><trkpt lat="41.29110467366958" lon="1.2930206909666393"><ele>243.99999999999997</ele><time>2026-05-04T15:47:18.001Z</time></trkpt><trkpt lat="41.29112873250923" lon="1.2931487880406054"><ele>243.99999999999997</ele><time>2026-05-04T15:47:19.001Z</time></trkpt><trkpt lat="41.291134805416704" lon="1.2932833728657867"><ele>244.0</ele><time>2026-05-04T15:47:20.001Z</time></trkpt><trkpt lat="41.29112060387098" lon="1.2934251647963995"><ele>244.0</ele><time>2026-05-04T15:47:21.001Z</time></trkpt><trkpt lat="41.291084825283846" lon="1.293558858355279"><ele>243.79999999999998</ele><time>2026-05-04T15:47:22.001Z</time></trkpt><trkpt lat="41.29103798142827" lon="1.2936821574707318"><ele>243.59999999999997</ele><time>2026-05-04T15:47:23.001Z</time></trkpt><trkpt lat="41.29098952881652" lon="1.2937999244831166"><ele>243.4</ele><time>2026-05-04T15:47:24.001Z</time></trkpt><trkpt lat="41.29094502671403" lon="1.293922685842254"><ele>243.2</ele><time>2026-05-04T15:47:25.001Z</time></trkpt><trkpt lat="41.29091255013734" lon="1.2940484756245705"><ele>243.0</ele><time>2026-05-04T15:47:26.001Z</time></trkpt><trkpt lat="41.29088613092341" lon="1.2941789803847104"><ele>243.0</ele><time>2026-05-04T15:47:27.001Z</time></trkpt><trkpt lat="41.29086478760325" lon="1.2943115401564875"><ele>243.0</ele><time>2026-05-04T15:47:28.001Z</time></trkpt><trkpt lat="41.29084143646482" lon="1.2944455335991005"><ele>243.0</ele><time>2026-05-04T15:47:29.001Z</time></trkpt><trkpt lat="41.29082461171236" lon="1.2945817658122316"><ele>243.0</ele><time>2026-05-04T15:47:30.001Z</time></trkpt><trkpt lat="41.290810352812535" lon="1.2947176513045433"><ele>243.0</ele><time>2026-05-04T15:47:31.001Z</time></trkpt><trkpt lat="41.29079961762227" lon="1.2948545310002364"><ele>243.4</ele><time>2026-05-04T15:47:32.001Z</time></trkpt><trkpt lat="41.290794160084246" lon="1.2949942132891552"><ele>243.8</ele><time>2026-05-04T15:47:33.001Z</time></trkpt><trkpt lat="41.290796159017304" lon="1.2951353597458801"><ele>244.2</ele><time>2026-05-04T15:47:34.001Z</time></trkpt><trkpt lat="41.29079445436433" lon="1.2952727185463293"><ele>244.6</ele><time>2026-05-04T15:47:35.001Z</time></trkpt><trkpt lat="41.29080120265871" lon="1.2954113656276776"><ele>245.0</ele><time>2026-05-04T15:47:36.001Z</time></trkpt><trkpt lat="41.29080743787578" lon="1.2955499425332773"><ele>245.4</ele><time>2026-05-04T15:47:37.001Z</time></trkpt><trkpt lat="41.29081561195112" lon="1.2956860009124165"><ele>245.8</ele><time>2026-05-04T15:47:38.001Z</time></trkpt><trkpt lat="41.29082241903812" lon="1.2958229587967562"><ele>246.2</ele><time>2026-05-04T15:47:39.001Z</time></trkpt><trkpt lat="41.29083342962268" lon="1.2959611036422098"><ele>246.6</ele><time>2026-05-04T15:47:40.001Z</time></trkpt><trkpt lat="41.290844351786504" lon="1.2960980575510919"><ele>247.0</ele><time>2026-05-04T15:47:41.001Z</time></trkpt><trkpt lat="41.29085568381452" lon="1.2962377216607317"><ele>247.0</ele><time>2026-05-04T15:47:42.001Z</time></trkpt><trkpt lat="41.29086791630147" lon="1.2963791024211477"><ele>247.0</ele><time>2026-05-04T15:47:43.001Z</time></trkpt><trkpt lat="41.290875466915196" lon="1.2965170559051502"><ele>247.0</ele><time>2026-05-04T15:47:44.001Z</time></trkpt><trkpt lat="41.29088628272956" lon="1.2966580664843355"><ele>247.0</ele><time>2026-05-04T15:47:45.001Z</time></trkpt><trkpt lat="41.29089620499305" lon="1.2968008249305194"><ele>247.0</ele><time>2026-05-04T15:47:46.001Z</time></trkpt><trkpt lat="41.290898902349106" lon="1.2969430442046055"><ele>247.39999999999998</ele><time>2026-05-04T15:47:47.001Z</time></trkpt><trkpt lat="41.290899206816356" lon="1.2970874611711716"><ele>247.79999999999998</ele><time>2026-05-04T15:47:48.001Z</time></trkpt><trkpt lat="41.29089628798457" lon="1.2972321361486199"><ele>248.2</ele><time>2026-05-04T15:47:49.001Z</time></trkpt><trkpt lat="41.290897470343936" lon="1.2973784947072853"><ele>248.6</ele><time>2026-05-04T15:47:50.001Z</time></trkpt><trkpt lat="41.290887882337245" lon="1.2975235812766484"><ele>249.0</ele><time>2026-05-04T15:47:51.001Z</time></trkpt><trkpt lat="41.290884297797575" lon="1.2976672651428107"><ele>249.0</ele><time>2026-05-04T15:47:52.001Z</time></trkpt><trkpt lat="41.29086664109207" lon="1.2978080858275531"><ele>248.99999999999997</ele><time>2026-05-04T15:47:53.001Z</time></trkpt><trkpt lat="41.290853478736864" lon="1.297950528869399"><ele>248.99999999999997</ele><time>2026-05-04T15:47:54.001Z</time></trkpt><trkpt lat="41.290837368302405" lon="1.2980915699849085"><ele>249.0</ele><time>2026-05-04T15:47:55.001Z</time></trkpt><trkpt lat="41.29082178133216" lon="1.2982318067883776"><ele>249.0</ele><time>2026-05-04T15:47:56.001Z</time></trkpt><trkpt lat="41.29080215044844" lon="1.2983719442179722"><ele>249.0</ele><time>2026-05-04T15:47:57.001Z</time></trkpt><trkpt lat="41.29078237633191" lon="1.298512614445016"><ele>248.99999999999997</ele><time>2026-05-04T15:47:58.001Z</time></trkpt><trkpt lat="41.290762531091815" lon="1.298654431596475"><ele>248.99999999999997</ele><time>2026-05-04T15:47:59.001Z</time></trkpt><trkpt lat="41.290741371804714" lon="1.298798753210892"><ele>249.0</ele><time>2026-05-04T15:48:00.001Z</time></trkpt><trkpt lat="41.290719871613184" lon="1.298944780086756"><ele>249.0</ele><time>2026-05-04T15:48:01.001Z</time></trkpt><trkpt lat="41.29069842036078" lon="1.2990936359722953"><ele>248.25</ele><time>2026-05-04T15:48:02.001Z</time></trkpt><trkpt lat="41.29068314681154" lon="1.2992339617136162"><ele>247.5</ele><time>2026-05-04T15:48:03.001Z</time></trkpt><trkpt lat="41.29066122424877" lon="1.2993964107030387"><ele>246.75</ele><time>2026-05-04T15:48:04.001Z</time></trkpt><trkpt lat="41.290635561317124" lon="1.2995507430648519"><ele>246.0</ele><time>2026-05-04T15:48:05.001Z</time></trkpt><trkpt lat="41.29061753491333" lon="1.299701825890439"><ele>245.0</ele><time>2026-05-04T15:48:06.001Z</time></trkpt><trkpt lat="41.29059446539255" lon="1.299845122886007"><ele>244.0</ele><time>2026-05-04T15:48:07.001Z</time></trkpt><trkpt lat="41.29057996926682" lon="1.3000027232305489"><ele>243.0</ele><time>2026-05-04T15:48:08.001Z</time></trkpt><trkpt lat="41.29055179078625" lon="1.3001372423306796"><ele>242.0</ele><time>2026-05-04T15:48:09.001Z</time></trkpt><trkpt lat="41.29053514583358" lon="1.3002968440191631"><ele>242.0</ele><time>2026-05-04T15:48:10.001Z</time></trkpt><trkpt lat="41.29050837173011" lon="1.3004409563573456"><ele>242.0</ele><time>2026-05-04T15:48:11Z</time></trkpt><trkpt lat="41.29048922195906" lon="1.3005874223771108"><ele>242.0</ele><time>2026-05-04T15:48:12Z</time></trkpt><trkpt lat="41.290466952924376" lon="1.3007352804686123"><ele>242.0</ele><time>2026-05-04T15:48:13Z</time></trkpt><trkpt lat="41.290445423983556" lon="1.3008868013309993"><ele>241.75</ele><time>2026-05-04T15:48:14Z</time></trkpt><trkpt lat="41.29042699810661" lon="1.301034854097207"><ele>241.5</ele><time>2026-05-04T15:48:15Z</time></trkpt><trkpt lat="41.29040718394773" lon="1.301185224277963"><ele>241.25</ele><time>2026-05-04T15:48:16Z</time></trkpt><trkpt lat="41.29038157944406" lon="1.3013366352473246"><ele>241.0</ele><time>2026-05-04T15:48:17Z</time></trkpt><trkpt lat="41.290364575005825" lon="1.30148432572575"><ele>241.0</ele><time>2026-05-04T15:48:18Z</time></trkpt><trkpt lat="41.29034304903557" lon="1.301633989966444"><ele>241.0</ele><time>2026-05-04T15:48:19Z</time></trkpt><trkpt lat="41.29032027970344" lon="1.3017866489928769"><ele>241.0</ele><time>2026-05-04T15:48:20Z</time></trkpt><trkpt lat="41.2902992595981" lon="1.3019354618405496"><ele>241.0</ele><time>2026-05-04T15:48:21Z</time></trkpt><trkpt lat="41.29027971432241" lon="1.302081626818834"><ele>241.0</ele><time>2026-05-04T15:48:22Z</time></trkpt><trkpt lat="41.290259159625805" lon="1.3022296832310025"><ele>241.0</ele><time>2026-05-04T15:48:23Z</time></trkpt><trkpt lat="41.29024194968788" lon="1.3023813031326879"><ele>241.0</ele><time>2026-05-04T15:48:24Z</time></trkpt><trkpt lat="41.290222999474494" lon="1.3025281373382973"><ele>241.0</ele><time>2026-05-04T15:48:25Z</time></trkpt><trkpt lat="41.29020121365313" lon="1.3026745090476286"><ele>241.0</ele><time>2026-05-04T15:48:26Z</time></trkpt><trkpt lat="41.2901787310127" lon="1.3028219286049343"><ele>241.00000000000003</ele><time>2026-05-04T15:48:27Z</time></trkpt><trkpt lat="41.290159197235944" lon="1.3029682367875928"><ele>241.00000000000003</ele><time>2026-05-04T15:48:28Z</time></trkpt><trkpt lat="41.29014170729983" lon="1.3031113044991014"><ele>241.0</ele><time>2026-05-04T15:48:29Z</time></trkpt><trkpt lat="41.29012199162866" lon="1.303254984003122"><ele>241.0</ele><time>2026-05-04T15:48:30Z</time></trkpt><trkpt lat="41.29010855863313" lon="1.3033989194183195"><ele>241.20000000000002</ele><time>2026-05-04T15:48:31Z</time></trkpt><trkpt lat="41.29009246302342" lon="1.3035467926483646"><ele>241.40000000000003</ele><time>2026-05-04T15:48:32Z</time></trkpt><trkpt lat="41.29007892773099" lon="1.3036942894091919"><ele>241.6</ele><time>2026-05-04T15:48:33Z</time></trkpt><trkpt lat="41.29006466526124" lon="1.3038378838491769"><ele>241.8</ele><time>2026-05-04T15:48:34Z</time></trkpt><trkpt lat="41.29005348739153" lon="1.3039846437205989"><ele>242.0</ele><time>2026-05-04T15:48:35Z</time></trkpt><trkpt lat="41.2900436182516" lon="1.3041310870322809"><ele>242.0</ele><time>2026-05-04T15:48:36Z</time></trkpt><trkpt lat="41.29003476774906" lon="1.3042795312571795"><ele>242.0</ele><time>2026-05-04T15:48:37Z</time></trkpt><trkpt lat="41.29003127505359" lon="1.3044258470601169"><ele>242.0</ele><time>2026-05-04T15:48:38Z</time></trkpt><trkpt lat="41.29002904877204" lon="1.3045743396200182"><ele>242.0</ele><time>2026-05-04T15:48:39Z</time></trkpt><trkpt lat="41.29002688626377" lon="1.3047227412439653"><ele>242.0</ele><time>2026-05-04T15:48:40Z</time></trkpt><trkpt lat="41.29002870104658" lon="1.304870820359177"><ele>242.0</ele><time>2026-05-04T15:48:41Z</time></trkpt><trkpt lat="41.29003008725776" lon="1.3050206510932505"><ele>242.0</ele><time>2026-05-04T15:48:42Z</time></trkpt><trkpt lat="41.290034859711206" lon="1.3051695095021985"><ele>242.0</ele><time>2026-05-04T15:48:43Z</time></trkpt><trkpt lat="41.29004010488556" lon="1.305317756992169"><ele>242.0</ele><time>2026-05-04T15:48:44Z</time></trkpt><trkpt lat="41.29004809736439" lon="1.3054668014541595"><ele>242.0</ele><time>2026-05-04T15:48:45Z</time></trkpt><trkpt lat="41.2900552974679" lon="1.3056152210570455"><ele>242.0</ele><time>2026-05-04T15:48:46Z</time></trkpt><trkpt lat="41.2900752861936" lon="1.3057614570535507"><ele>242.0</ele><time>2026-05-04T15:48:47Z</time></trkpt><trkpt lat="41.29008090695545" lon="1.3059121565600098"><ele>242.0</ele><time>2026-05-04T15:48:48Z</time></trkpt><trkpt lat="41.290101232136024" lon="1.3060541379120763"><ele>242.0</ele><time>2026-05-04T15:48:49Z</time></trkpt><trkpt lat="41.29011895236757" lon="1.3061995539500881"><ele>242.0</ele><time>2026-05-04T15:48:50Z</time></trkpt><trkpt lat="41.290137472939584" lon="1.306347762236316"><ele>243.0</ele><time>2026-05-04T15:48:51Z</time></trkpt><trkpt lat="41.29016182919343" lon="1.3065181737981717"><ele>244.0</ele><time>2026-05-04T15:48:52Z</time></trkpt><trkpt lat="41.29017504650624" lon="1.306657218990656"><ele>245.0</ele><time>2026-05-04T15:48:53Z</time></trkpt><trkpt lat="41.290203197138666" lon="1.3068058848862536"><ele>246.0</ele><time>2026-05-04T15:48:54Z</time></trkpt><trkpt lat="41.29023025934094" lon="1.3069474894659805"><ele>246.0</ele><time>2026-05-04T15:48:55Z</time></trkpt><trkpt lat="41.290262267327265" lon="1.3070965849083291"><ele>246.0</ele><time>2026-05-04T15:48:56Z</time></trkpt><trkpt lat="41.29029900878525" lon="1.30723797208299"><ele>246.0</ele><time>2026-05-04T15:48:57Z</time></trkpt><trkpt lat="41.29033593310865" lon="1.307378599604133"><ele>246.0</ele><time>2026-05-04T15:48:58Z</time></trkpt><trkpt lat="41.29037478250728" lon="1.3075265443468689"><ele>246.20000000000002</ele><time>2026-05-04T15:48:59Z</time></trkpt><trkpt lat="41.29042004021726" lon="1.3076585204174944"><ele>246.40000000000003</ele><time>2026-05-04T15:49:00Z</time></trkpt><trkpt lat="41.290466748110745" lon="1.3077919485406524"><ele>246.6</ele><time>2026-05-04T15:49:01Z</time></trkpt><trkpt lat="41.29051563419726" lon="1.3079250320590283"><ele>246.8</ele><time>2026-05-04T15:49:02Z</time></trkpt><trkpt lat="41.290567310505864" lon="1.3080548576329176"><ele>247.0</ele><time>2026-05-04T15:49:03Z</time></trkpt><trkpt lat="41.29062506250695" lon="1.3081799646426644"><ele>247.0</ele><time>2026-05-04T15:49:04Z</time></trkpt><trkpt lat="41.29068142937628" lon="1.3083069204090596"><ele>247.0</ele><time>2026-05-04T15:49:05.001Z</time></trkpt><trkpt lat="41.29074119881886" lon="1.3084319056971834"><ele>247.0</ele><time>2026-05-04T15:49:06.001Z</time></trkpt><trkpt lat="41.290803636600245" lon="1.30855618085851"><ele>247.0</ele><time>2026-05-04T15:49:07.001Z</time></trkpt><trkpt lat="41.29086766784427" lon="1.308678508864368"><ele>247.0</ele><time>2026-05-04T15:49:08.001Z</time></trkpt><trkpt lat="41.29093702146107" lon="1.308795421910815"><ele>247.6</ele><time>2026-05-04T15:49:09.001Z</time></trkpt><trkpt lat="41.291004180366954" lon="1.3089161073649398"><ele>248.2</ele><time>2026-05-04T15:49:10.001Z</time></trkpt><trkpt lat="41.29107517317618" lon="1.3090329572739638"><ele>248.8</ele><time>2026-05-04T15:49:11.001Z</time></trkpt><trkpt lat="41.2911479452938" lon="1.3091413222757962"><ele>249.4</ele><time>2026-05-04T15:49:12.001Z</time></trkpt><trkpt lat="41.29122650937551" lon="1.3092511837632856"><ele>250.0</ele><time>2026-05-04T15:49:13.001Z</time></trkpt><trkpt lat="41.29130758271067" lon="1.3093564639804376"><ele>250.0</ele><time>2026-05-04T15:49:14.001Z</time></trkpt><trkpt lat="41.29138841444303" lon="1.3094627089673851"><ele>250.0</ele><time>2026-05-04T15:49:15.001Z</time></trkpt><trkpt lat="41.29146940614642" lon="1.3095700962270482"><ele>250.0</ele><time>2026-05-04T15:49:16.001Z</time></trkpt><trkpt lat="41.29155461142867" lon="1.309669596742687"><ele>250.0</ele><time>2026-05-04T15:49:17.001Z</time></trkpt><trkpt lat="41.291648523209474" lon="1.309758152439944"><ele>251.75</ele><time>2026-05-04T15:49:18.001Z</time></trkpt><trkpt lat="41.291732754915486" lon="1.3098557194476887"><ele>253.5</ele><time>2026-05-04T15:49:19.001Z</time></trkpt><trkpt lat="41.29182813019894" lon="1.3099404963908874"><ele>255.25</ele><time>2026-05-04T15:49:20.001Z</time></trkpt><trkpt lat="41.29192107857239" lon="1.31002688877439"><ele>257.0</ele><time>2026-05-04T15:49:21.001Z</time></trkpt><trkpt lat="41.292014660432095" lon="1.310105262156085"><ele>257.0</ele><time>2026-05-04T15:49:22.001Z</time></trkpt><trkpt lat="41.2921083008589" lon="1.310182022307147"><ele>257.0</ele><time>2026-05-04T15:49:23.001Z</time></trkpt><trkpt lat="41.29220445209835" lon="1.3102490794785742"><ele>257.0</ele><time>2026-05-04T15:49:24.001Z</time></trkpt><trkpt lat="41.29229822202248" lon="1.3103218779406622"><ele>257.0</ele><time>2026-05-04T15:49:25.001Z</time></trkpt><trkpt lat="41.2923886880761" lon="1.310390215745605"><ele>257.0</ele><time>2026-05-04T15:49:26.001Z</time></trkpt><trkpt lat="41.292495077091935" lon="1.3104486056193572"><ele>256.4</ele><time>2026-05-04T15:49:27.001Z</time></trkpt><trkpt lat="41.29258617783432" lon="1.310520777762796"><ele>255.79999999999998</ele><time>2026-05-04T15:49:28.001Z</time></trkpt><trkpt lat="41.29268084853034" lon="1.3105863831944682"><ele>255.2</ele><time>2026-05-04T15:49:29.001Z</time></trkpt><trkpt lat="41.29277747806927" lon="1.3106515596633947"><ele>254.6</ele><time>2026-05-04T15:49:30.001Z</time></trkpt><trkpt lat="41.29287583321474" lon="1.3107087542430977"><ele>254.0</ele><time>2026-05-04T15:49:31.001Z</time></trkpt><trkpt lat="41.292969033938554" lon="1.310781486640459"><ele>255.2</ele><time>2026-05-04T15:49:32.001Z</time></trkpt><trkpt lat="41.293061331877595" lon="1.3108505963212285"><ele>256.4</ele><time>2026-05-04T15:49:33.001Z</time></trkpt><trkpt lat="41.29314839666162" lon="1.3109196867408452"><ele>257.6</ele><time>2026-05-04T15:49:34.001Z</time></trkpt><trkpt lat="41.293242802862494" lon="1.310983653862452"><ele>258.8</ele><time>2026-05-04T15:49:35.001Z</time></trkpt><trkpt lat="41.293328381780405" lon="1.3110571357115495"><ele>260.0</ele><time>2026-05-04T15:49:36.001Z</time></trkpt><trkpt lat="41.2934103942675" lon="1.3111334074752823"><ele>260.4</ele><time>2026-05-04T15:49:37.001Z</time></trkpt><trkpt lat="41.29349189802606" lon="1.3112120495365964"><ele>260.8</ele><time>2026-05-04T15:49:38.001Z</time></trkpt><trkpt lat="41.293573297756694" lon="1.3112888728321448"><ele>261.2</ele><time>2026-05-04T15:49:39.001Z</time></trkpt><trkpt lat="41.2936547045363" lon="1.3113661618475243"><ele>261.6</ele><time>2026-05-04T15:49:40.001Z</time></trkpt><trkpt lat="41.29373156613898" lon="1.3114505943054413"><ele>262.0</ele><time>2026-05-04T15:49:41.001Z</time></trkpt><trkpt lat="41.293804282871804" lon="1.3115371588938223"><ele>262.6</ele><time>2026-05-04T15:49:42.001Z</time></trkpt><trkpt lat="41.29387736917153" lon="1.31161344229426"><ele>263.2</ele><time>2026-05-04T15:49:43.001Z</time></trkpt><trkpt lat="41.2939507536527" lon="1.3117044245790914"><ele>263.8</ele><time>2026-05-04T15:49:44.001Z</time></trkpt><trkpt lat="41.29402935159873" lon="1.3117920203291247"><ele>264.4</ele><time>2026-05-04T15:49:45.001Z</time></trkpt><trkpt lat="41.29409769821305" lon="1.3118828042896016"><ele>265.0</ele><time>2026-05-04T15:49:46.001Z</time></trkpt><trkpt lat="41.29416383957307" lon="1.3119798670116165"><ele>265.0</ele><time>2026-05-04T15:49:47.001Z</time></trkpt><trkpt lat="41.29422837374779" lon="1.3120811323592023"><ele>265.0</ele><time>2026-05-04T15:49:48.001Z</time></trkpt><trkpt lat="41.29428333164021" lon="1.312187409726931"><ele>265.0</ele><time>2026-05-04T15:49:49.001Z</time></trkpt><trkpt lat="41.294355685800454" lon="1.3122816697146524"><ele>265.0</ele><time>2026-05-04T15:49:50.001Z</time></trkpt><trkpt lat="41.29442303683463" lon="1.3123841590096177"><ele>265.0</ele><time>2026-05-04T15:49:51.001Z</time></trkpt><trkpt lat="41.29448160038521" lon="1.3124919379703053"><ele>265.6</ele><time>2026-05-04T15:49:52.001Z</time></trkpt><trkpt lat="41.29454017496842" lon="1.3125966563132225"><ele>266.2</ele><time>2026-05-04T15:49:53.001Z</time></trkpt><trkpt lat="41.29460177749954" lon="1.3127081064806183"><ele>266.8</ele><time>2026-05-04T15:49:54.001Z</time></trkpt><trkpt lat="41.29465535934199" lon="1.3128237055739294"><ele>267.4</ele><time>2026-05-04T15:49:55.001Z</time></trkpt><trkpt lat="41.29470692507943" lon="1.312939160175825"><ele>268.0</ele><time>2026-05-04T15:49:56.001Z</time></trkpt><trkpt lat="41.29476037044672" lon="1.3130582825349368"><ele>268.6</ele><time>2026-05-04T15:49:57.001Z</time></trkpt><trkpt lat="41.294809698336024" lon="1.3131797647482986"><ele>269.20000000000005</ele><time>2026-05-04T15:49:58.001Z</time></trkpt><trkpt lat="41.29486699240633" lon="1.3132982425557287"><ele>269.8</ele><time>2026-05-04T15:49:59.001Z</time></trkpt><trkpt lat="41.29490881293874" lon="1.313426684073535"><ele>270.40000000000003</ele><time>2026-05-04T15:50:00.001Z</time></trkpt><trkpt lat="41.29495572988649" lon="1.313551233807028"><ele>271.0</ele><time>2026-05-04T15:50:01.001Z</time></trkpt><trkpt lat="41.29499934598087" lon="1.3136800365210048"><ele>271.0</ele><time>2026-05-04T15:50:02.001Z</time></trkpt><trkpt lat="41.29503943337041" lon="1.3138100493408273"><ele>271.0</ele><time>2026-05-04T15:50:03.001Z</time></trkpt><trkpt lat="41.295079666897216" lon="1.3139419861927855"><ele>271.0</ele><time>2026-05-04T15:50:04.001Z</time></trkpt><trkpt lat="41.29512212846161" lon="1.3140758453027426"><ele>271.0</ele><time>2026-05-04T15:50:05.001Z</time></trkpt><trkpt lat="41.29515884741145" lon="1.3142102023419189"><ele>271.0</ele><time>2026-05-04T15:50:06.001Z</time></trkpt><trkpt lat="41.29518922751194" lon="1.3143442557258749"><ele>271.2</ele><time>2026-05-04T15:50:07.001Z</time></trkpt><trkpt lat="41.295224894159915" lon="1.3144837621935144"><ele>271.40000000000003</ele><time>2026-05-04T15:50:08.001Z</time></trkpt><trkpt lat="41.29525799890389" lon="1.3146210039803465"><ele>271.6</ele><time>2026-05-04T15:50:09.001Z</time></trkpt><trkpt lat="41.29527862857473" lon="1.3147664180798677"><ele>271.8</ele><time>2026-05-04T15:50:10.001Z</time></trkpt><trkpt lat="41.29529950074804" lon="1.314910797209636"><ele>272.0</ele><time>2026-05-04T15:50:11.001Z</time></trkpt><trkpt lat="41.29531911760714" lon="1.3150550783788952"><ele>272.0</ele><time>2026-05-04T15:50:12.001Z</time></trkpt><trkpt lat="41.29532986534462" lon="1.315201093828018"><ele>272.0</ele><time>2026-05-04T15:50:13.001Z</time></trkpt><trkpt lat="41.29534639375114" lon="1.3153570883086683"><ele>272.0</ele><time>2026-05-04T15:50:14.001Z</time></trkpt><trkpt lat="41.29535910019748" lon="1.315506579538487"><ele>272.0</ele><time>2026-05-04T15:50:15.001Z</time></trkpt><trkpt lat="41.29535393961473" lon="1.3156462985330286"><ele>272.0</ele><time>2026-05-04T15:50:16.001Z</time></trkpt><trkpt lat="41.29536125055937" lon="1.3157919337510395"><ele>272.2</ele><time>2026-05-04T15:50:17Z</time></trkpt><trkpt lat="41.295365532701055" lon="1.3159403881306488"><ele>272.4</ele><time>2026-05-04T15:50:18Z</time></trkpt><trkpt lat="41.295368038357225" lon="1.3160876272315494"><ele>272.6</ele><time>2026-05-04T15:50:19Z</time></trkpt><trkpt lat="41.29536600488841" lon="1.3162311900641273"><ele>272.8</ele><time>2026-05-04T15:50:20Z</time></trkpt><trkpt lat="41.295359571362184" lon="1.316376284825914"><ele>273.0</ele><time>2026-05-04T15:50:21Z</time></trkpt><trkpt lat="41.29535190997711" lon="1.3165212594331988"><ele>273.2</ele><time>2026-05-04T15:50:22Z</time></trkpt><trkpt lat="41.295341298498464" lon="1.3166622263729322"><ele>273.4</ele><time>2026-05-04T15:50:23Z</time></trkpt><trkpt lat="41.295328727795" lon="1.3168050351528469"><ele>273.59999999999997</ele><time>2026-05-04T15:50:24Z</time></trkpt><trkpt lat="41.295315347922035" lon="1.3169487925423033"><ele>273.8</ele><time>2026-05-04T15:50:25Z</time></trkpt><trkpt lat="41.29529911811012" lon="1.3170952253857127"><ele>274.0</ele><time>2026-05-04T15:50:26Z</time></trkpt><trkpt lat="41.29526631512944" lon="1.3172355921796959"><ele>274.4</ele><time>2026-05-04T15:50:27Z</time></trkpt><trkpt lat="41.295245442827216" lon="1.3173790533527434"><ele>274.79999999999995</ele><time>2026-05-04T15:50:28Z</time></trkpt><trkpt lat="41.295229668900184" lon="1.3175221447360344"><ele>275.20000000000005</ele><time>2026-05-04T15:50:29Z</time></trkpt><trkpt lat="41.29521228452651" lon="1.3176725868703683"><ele>275.6</ele><time>2026-05-04T15:50:30Z</time></trkpt><trkpt lat="41.295189467246175" lon="1.317816169854332"><ele>276.0</ele><time>2026-05-04T15:50:31Z</time></trkpt><trkpt lat="41.295171745670345" lon="1.317965092322043"><ele>276.0</ele><time>2026-05-04T15:50:32Z</time></trkpt><trkpt lat="41.29515367067425" lon="1.3181113501579547"><ele>276.0</ele><time>2026-05-04T15:50:33Z</time></trkpt><trkpt lat="41.2951355677802" lon="1.3182573676911917"><ele>276.0</ele><time>2026-05-04T15:50:34Z</time></trkpt><trkpt lat="41.29510640183777" lon="1.318402056263158"><ele>276.0</ele><time>2026-05-04T15:50:35Z</time></trkpt><trkpt lat="41.2950853647805" lon="1.318549775391268"><ele>276.0</ele><time>2026-05-04T15:50:36Z</time></trkpt><trkpt lat="41.29506496708719" lon="1.318699730121443"><ele>276.0</ele><time>2026-05-04T15:50:37Z</time></trkpt><trkpt lat="41.29504380739031" lon="1.3188487278005125"><ele>276.0</ele><time>2026-05-04T15:50:38Z</time></trkpt><trkpt lat="41.29502683383434" lon="1.3189993659554287"><ele>276.0</ele><time>2026-05-04T15:50:39Z</time></trkpt><trkpt lat="41.29500716802235" lon="1.3191508799495488"><ele>276.0</ele><time>2026-05-04T15:50:40Z</time></trkpt><trkpt lat="41.29499005009072" lon="1.3192981572066131"><ele>276.0</ele><time>2026-05-04T15:50:41Z</time></trkpt><trkpt lat="41.29497120862065" lon="1.3194476766589522"><ele>276.0</ele><time>2026-05-04T15:50:42Z</time></trkpt><trkpt lat="41.294952564779045" lon="1.3195980207660905"><ele>276.0</ele><time>2026-05-04T15:50:43Z</time></trkpt><trkpt lat="41.29493437816078" lon="1.3197486500933229"><ele>276.0</ele><time>2026-05-04T15:50:44Z</time></trkpt><trkpt lat="41.29491520958076" lon="1.3198994397932304"><ele>276.0</ele><time>2026-05-04T15:50:45Z</time></trkpt><trkpt lat="41.29489722365474" lon="1.320050713746959"><ele>276.0</ele><time>2026-05-04T15:50:46Z</time></trkpt><trkpt lat="41.294875270603846" lon="1.3202010593414901"><ele>276.0</ele><time>2026-05-04T15:50:47Z</time></trkpt><trkpt lat="41.294856674202336" lon="1.320355099944336"><ele>276.0</ele><time>2026-05-04T15:50:48Z</time></trkpt><trkpt lat="41.29483607118252" lon="1.320506595359113"><ele>276.25</ele><time>2026-05-04T15:50:49Z</time></trkpt><trkpt lat="41.29481659809134" lon="1.3206590291521334"><ele>276.5</ele><time>2026-05-04T15:50:50Z</time></trkpt><trkpt lat="41.29479891865663" lon="1.3208071278517934"><ele>276.75</ele><time>2026-05-04T15:50:51Z</time></trkpt><trkpt lat="41.294780312945186" lon="1.3209594230506299"><ele>277.0</ele><time>2026-05-04T15:50:52Z</time></trkpt><trkpt lat="41.29476060060946" lon="1.3211110643530906"><ele>276.5</ele><time>2026-05-04T15:50:53Z</time></trkpt><trkpt lat="41.29473957023867" lon="1.3212609647501463"><ele>276.0</ele><time>2026-05-04T15:50:54Z</time></trkpt><trkpt lat="41.29471764585414" lon="1.3214152244650608"><ele>275.5</ele><time>2026-05-04T15:50:55Z</time></trkpt><trkpt lat="41.29469600424229" lon="1.3215683160609037"><ele>275.0</ele><time>2026-05-04T15:50:56Z</time></trkpt><trkpt lat="41.29467589092999" lon="1.3217241973541665"><ele>275.0</ele><time>2026-05-04T15:50:57Z</time></trkpt><trkpt lat="41.29465549822072" lon="1.3218746245202142"><ele>275.0</ele><time>2026-05-04T15:50:58Z</time></trkpt><trkpt lat="41.294637320111654" lon="1.3220234555512456"><ele>275.0</ele><time>2026-05-04T15:50:59Z</time></trkpt><trkpt lat="41.29461717486933" lon="1.3221766053192066"><ele>275.0</ele><time>2026-05-04T15:51:00Z</time></trkpt><trkpt lat="41.294598600738915" lon="1.3223295764952936"><ele>275.25</ele><time>2026-05-04T15:51:01Z</time></trkpt><trkpt lat="41.29457791977938" lon="1.3224807389184703"><ele>275.5</ele><time>2026-05-04T15:51:02Z</time></trkpt><trkpt lat="41.29455758306469" lon="1.3226314004486188"><ele>275.75</ele><time>2026-05-04T15:51:03Z</time></trkpt><trkpt lat="41.2945358879858" lon="1.3227821719927535"><ele>276.0</ele><time>2026-05-04T15:51:04Z</time></trkpt><trkpt lat="41.29452472170018" lon="1.3229359711364537"><ele>276.0</ele><time>2026-05-04T15:51:05Z</time></trkpt><trkpt lat="41.294496835870845" lon="1.3230885960098984"><ele>276.0</ele><time>2026-05-04T15:51:06Z</time></trkpt><trkpt lat="41.294480791581854" lon="1.3232423291973299"><ele>276.0</ele><time>2026-05-04T15:51:07Z</time></trkpt><trkpt lat="41.29445962429553" lon="1.3233916924332443"><ele>276.0</ele><time>2026-05-04T15:51:08Z</time></trkpt><trkpt lat="41.29444115496426" lon="1.323544390638653"><ele>276.0</ele><time>2026-05-04T15:51:09Z</time></trkpt><trkpt lat="41.29442061909441" lon="1.32369667367779"><ele>276.0</ele><time>2026-05-04T15:51:10Z</time></trkpt><trkpt lat="41.294399963790305" lon="1.3238469576043645"><ele>276.0</ele><time>2026-05-04T15:51:11Z</time></trkpt><trkpt lat="41.29437898939492" lon="1.3239988233185331"><ele>276.0</ele><time>2026-05-04T15:51:12Z</time></trkpt><trkpt lat="41.29435803034172" lon="1.324149588621472"><ele>276.0</ele><time>2026-05-04T15:51:13Z</time></trkpt><trkpt lat="41.294338779558736" lon="1.3243023121971784"><ele>276.0</ele><time>2026-05-04T15:51:14Z</time></trkpt><trkpt lat="41.29431875977969" lon="1.3244530892676627"><ele>276.0</ele><time>2026-05-04T15:51:15Z</time></trkpt><trkpt lat="41.294298330288775" lon="1.3246050392567752"><ele>276.0</ele><time>2026-05-04T15:51:16Z</time></trkpt><trkpt lat="41.294278495801684" lon="1.3247549908992593"><ele>276.25</ele><time>2026-05-04T15:51:17Z</time></trkpt><trkpt lat="41.29426027504608" lon="1.3249074077460488"><ele>276.5</ele><time>2026-05-04T15:51:18Z</time></trkpt><trkpt lat="41.29423770798431" lon="1.3250554108162174"><ele>276.75</ele><time>2026-05-04T15:51:19Z</time></trkpt><trkpt lat="41.294217926845384" lon="1.325204851462278"><ele>277.0</ele><time>2026-05-04T15:51:20Z</time></trkpt><trkpt lat="41.29419541931062" lon="1.3253545385226297"><ele>277.0</ele><time>2026-05-04T15:51:21Z</time></trkpt><trkpt lat="41.294175795429126" lon="1.3255044135428484"><ele>277.0</ele><time>2026-05-04T15:51:22.001Z</time></trkpt><trkpt lat="41.294159402454284" lon="1.3256570587695935"><ele>277.0</ele><time>2026-05-04T15:51:23.001Z</time></trkpt><trkpt lat="41.29414089403064" lon="1.3258085434560667"><ele>277.0</ele><time>2026-05-04T15:51:24.001Z</time></trkpt><trkpt lat="41.294118074059206" lon="1.325953752762419"><ele>276.75</ele><time>2026-05-04T15:51:25.001Z</time></trkpt><trkpt lat="41.29410083017356" lon="1.3261058212805572"><ele>276.5</ele><time>2026-05-04T15:51:26.001Z</time></trkpt><trkpt lat="41.2940801365003" lon="1.32625403314659"><ele>276.25</ele><time>2026-05-04T15:51:27.001Z</time></trkpt><trkpt lat="41.29406171613567" lon="1.3264009407122708"><ele>276.0</ele><time>2026-05-04T15:51:28.001Z</time></trkpt><trkpt lat="41.29404193890814" lon="1.326556953965666"><ele>276.0</ele><time>2026-05-04T15:51:29.001Z</time></trkpt><trkpt lat="41.294022948628616" lon="1.3267076122443344"><ele>276.0</ele><time>2026-05-04T15:51:30.001Z</time></trkpt><trkpt lat="41.29400548497778" lon="1.326856432017218"><ele>276.0</ele><time>2026-05-04T15:51:31.001Z</time></trkpt><trkpt lat="41.29398814470716" lon="1.3270077405360794"><ele>276.0</ele><time>2026-05-04T15:51:32.001Z</time></trkpt><trkpt lat="41.29396604342392" lon="1.3271597869392828"><ele>276.25</ele><time>2026-05-04T15:51:33.001Z</time></trkpt><trkpt lat="41.293945756098786" lon="1.3273116266308942"><ele>276.5</ele><time>2026-05-04T15:51:34.001Z</time></trkpt><trkpt lat="41.29392494972238" lon="1.3274645516649215"><ele>276.75</ele><time>2026-05-04T15:51:35.001Z</time></trkpt><trkpt lat="41.29390536856621" lon="1.3276194256635276"><ele>277.0</ele><time>2026-05-04T15:51:36.001Z</time></trkpt><trkpt lat="41.293883016347465" lon="1.3277710092688322"><ele>277.0</ele><time>2026-05-04T15:51:37.001Z</time></trkpt><trkpt lat="41.29386351348243" lon="1.3279266916751271"><ele>277.0</ele><time>2026-05-04T15:51:38.001Z</time></trkpt><trkpt lat="41.29384311630063" lon="1.3280806511134493"><ele>277.0</ele><time>2026-05-04T15:51:39.001Z</time></trkpt><trkpt lat="41.2938231918769" lon="1.3282313014809286"><ele>277.0</ele><time>2026-05-04T15:51:40.001Z</time></trkpt><trkpt lat="41.29380299072567" lon="1.3283818546930322"><ele>277.5</ele><time>2026-05-04T15:51:41.001Z</time></trkpt><trkpt lat="41.29378447871295" lon="1.3285321871332223"><ele>278.0</ele><time>2026-05-04T15:51:42.001Z</time></trkpt><trkpt lat="41.29376425341184" lon="1.3286789574049471"><ele>278.5</ele><time>2026-05-04T15:51:43.001Z</time></trkpt><trkpt lat="41.29374423178134" lon="1.328830488085718"><ele>279.0</ele><time>2026-05-04T15:51:44.001Z</time></trkpt><trkpt lat="41.29372254801714" lon="1.3289826768182176"><ele>279.0</ele><time>2026-05-04T15:51:45.001Z</time></trkpt><trkpt lat="41.293702541259435" lon="1.3291297941431548"><ele>279.0</ele><time>2026-05-04T15:51:46.001Z</time></trkpt><trkpt lat="41.29368458221231" lon="1.3292792219519276"><ele>279.0</ele><time>2026-05-04T15:51:47.001Z</time></trkpt><trkpt lat="41.29366284807095" lon="1.3294340395465818"><ele>279.0</ele><time>2026-05-04T15:51:48.001Z</time></trkpt><trkpt lat="41.29364433909842" lon="1.3295759391656334"><ele>279.0</ele><time>2026-05-04T15:51:49.001Z</time></trkpt><trkpt lat="41.29362440707722" lon="1.3297324899948133"><ele>279.0</ele><time>2026-05-04T15:51:50.001Z</time></trkpt><trkpt lat="41.2936039041164" lon="1.3298774450749817"><ele>279.0</ele><time>2026-05-04T15:51:51.001Z</time></trkpt><trkpt lat="41.29358522809883" lon="1.3300240830204741"><ele>279.0</ele><time>2026-05-04T15:51:52.001Z</time></trkpt><trkpt lat="41.29356198781255" lon="1.3301792349952464"><ele>279.0</ele><time>2026-05-04T15:51:53.001Z</time></trkpt><trkpt lat="41.29354635818818" lon="1.330331990588724"><ele>279.0</ele><time>2026-05-04T15:51:54.001Z</time></trkpt><trkpt lat="41.29352135116385" lon="1.3304646954246848"><ele>279.0</ele><time>2026-05-04T15:51:55.001Z</time></trkpt><trkpt lat="41.29350591280512" lon="1.330621205637219"><ele>279.0</ele><time>2026-05-04T15:51:56.001Z</time></trkpt><trkpt lat="41.293484238133345" lon="1.3307720217342114"><ele>278.5</ele><time>2026-05-04T15:51:57.001Z</time></trkpt><trkpt lat="41.2934634530683" lon="1.3309204898918352"><ele>278.0</ele><time>2026-05-04T15:51:58.001Z</time></trkpt><trkpt lat="41.29344807195659" lon="1.331068921480759"><ele>277.5</ele><time>2026-05-04T15:51:59.001Z</time></trkpt><trkpt lat="41.293432027362584" lon="1.3312242340399467"><ele>277.0</ele><time>2026-05-04T15:52:00.001Z</time></trkpt><trkpt lat="41.2934138938561" lon="1.331376485995617"><ele>276.5</ele><time>2026-05-04T15:52:01.001Z</time></trkpt><trkpt lat="41.293391310408964" lon="1.3315285429632837"><ele>276.0</ele><time>2026-05-04T15:52:02.001Z</time></trkpt><trkpt lat="41.29337010639092" lon="1.3316814230829241"><ele>275.5</ele><time>2026-05-04T15:52:03.001Z</time></trkpt><trkpt lat="41.29334821650973" lon="1.3318366698068689"><ele>275.0</ele><time>2026-05-04T15:52:04.001Z</time></trkpt><trkpt lat="41.293326243926806" lon="1.3319933104586679"><ele>275.0</ele><time>2026-05-04T15:52:05.001Z</time></trkpt><trkpt lat="41.29330484143285" lon="1.3321459559287963"><ele>275.0</ele><time>2026-05-04T15:52:06.001Z</time></trkpt><trkpt lat="41.29328435566358" lon="1.332300561025446"><ele>275.0</ele><time>2026-05-04T15:52:07.001Z</time></trkpt><trkpt lat="41.29326297904082" lon="1.3324557816949691"><ele>275.0</ele><time>2026-05-04T15:52:08.001Z</time></trkpt><trkpt lat="41.29324270477779" lon="1.3326174712784635"><ele>274.75</ele><time>2026-05-04T15:52:09.001Z</time></trkpt><trkpt lat="41.29322037507451" lon="1.3327759470337688"><ele>274.5</ele><time>2026-05-04T15:52:10.001Z</time></trkpt><trkpt lat="41.29320078006083" lon="1.3329279086482595"><ele>274.25</ele><time>2026-05-04T15:52:11.001Z</time></trkpt><trkpt lat="41.29317966487412" lon="1.3330880902317506"><ele>274.0</ele><time>2026-05-04T15:52:12.001Z</time></trkpt><trkpt lat="41.293158492162625" lon="1.3332427394997313"><ele>274.0</ele><time>2026-05-04T15:52:13.001Z</time></trkpt><trkpt lat="41.293135816665284" lon="1.3333998362921942"><ele>274.0</ele><time>2026-05-04T15:52:14.001Z</time></trkpt><trkpt lat="41.29311506094617" lon="1.3335555005473623"><ele>274.0</ele><time>2026-05-04T15:52:15.001Z</time></trkpt><trkpt lat="41.293094199089815" lon="1.3337099368246057"><ele>274.0</ele><time>2026-05-04T15:52:16.001Z</time></trkpt><trkpt lat="41.29307165629784" lon="1.3338686286245713"><ele>272.75</ele><time>2026-05-04T15:52:17.001Z</time></trkpt><trkpt lat="41.293049768564764" lon="1.334027465994835"><ele>271.5</ele><time>2026-05-04T15:52:18.001Z</time></trkpt><trkpt lat="41.29302957722688" lon="1.334188566611055"><ele>270.25</ele><time>2026-05-04T15:52:19.001Z</time></trkpt><trkpt lat="41.29300841395761" lon="1.3343468398872531"><ele>269.0</ele><time>2026-05-04T15:52:20.001Z</time></trkpt><trkpt lat="41.29298626815247" lon="1.334506447034595"><ele>269.0</ele><time>2026-05-04T15:52:21.001Z</time></trkpt><trkpt lat="41.2929654529875" lon="1.334664090355043"><ele>269.0</ele><time>2026-05-04T15:52:22.001Z</time></trkpt><trkpt lat="41.292943759909086" lon="1.3348223233681191"><ele>269.0</ele><time>2026-05-04T15:52:22.999Z</time></trkpt><trkpt lat="41.29292193343071" lon="1.3349786769195684"><ele>269.0</ele><time>2026-05-04T15:52:23.999Z</time></trkpt><trkpt lat="41.29290044357994" lon="1.3351372647012387"><ele>268.5</ele><time>2026-05-04T15:52:24.999Z</time></trkpt><trkpt lat="41.29287760076781" lon="1.3352960222693404"><ele>268.0</ele><time>2026-05-04T15:52:25.999Z</time></trkpt><trkpt lat="41.29285490196176" lon="1.3354530774315347"><ele>267.5</ele><time>2026-05-04T15:52:26.999Z</time></trkpt><trkpt lat="41.29283292007519" lon="1.3356098212130438"><ele>267.0</ele><time>2026-05-04T15:52:27.999Z</time></trkpt><trkpt lat="41.292811119870265" lon="1.3357658240090549"><ele>266.75</ele><time>2026-05-04T15:52:28.999Z</time></trkpt><trkpt lat="41.292790955072896" lon="1.3359245263358455"><ele>266.5</ele><time>2026-05-04T15:52:29.999Z</time></trkpt><trkpt lat="41.29276906771617" lon="1.3360778219165967"><ele>266.25</ele><time>2026-05-04T15:52:30.999Z</time></trkpt><trkpt lat="41.29274842549617" lon="1.336230856200756"><ele>266.0</ele><time>2026-05-04T15:52:31.999Z</time></trkpt><trkpt lat="41.29272928629233" lon="1.3363817704352514"><ele>266.5</ele><time>2026-05-04T15:52:32.999Z</time></trkpt><trkpt lat="41.29270832975571" lon="1.3365351946399984"><ele>267.0</ele><time>2026-05-04T15:52:34Z</time></trkpt><trkpt lat="41.292686255781824" lon="1.3366861133691381"><ele>267.5</ele><time>2026-05-04T15:52:35Z</time></trkpt><trkpt lat="41.292665241090376" lon="1.3368381081362835"><ele>268.0</ele><time>2026-05-04T15:52:36Z</time></trkpt><trkpt lat="41.2926443672563" lon="1.3369880754188088"><ele>268.0</ele><time>2026-05-04T15:52:37Z</time></trkpt><trkpt lat="41.292625840158856" lon="1.3371393837275591"><ele>268.0</ele><time>2026-05-04T15:52:38Z</time></trkpt><trkpt lat="41.29260491522787" lon="1.3372900930802591"><ele>268.0</ele><time>2026-05-04T15:52:39Z</time></trkpt><trkpt lat="41.2925837067358" lon="1.337438344007421"><ele>268.0</ele><time>2026-05-04T15:52:40Z</time></trkpt><trkpt lat="41.2925626511179" lon="1.3375904346855423"><ele>268.25</ele><time>2026-05-04T15:52:41Z</time></trkpt><trkpt lat="41.29254241424627" lon="1.3377386773647217"><ele>268.5</ele><time>2026-05-04T15:52:42Z</time></trkpt><trkpt lat="41.29252247046407" lon="1.3378903096456234"><ele>268.75</ele><time>2026-05-04T15:52:43Z</time></trkpt><trkpt lat="41.292504221832594" lon="1.3380393365257695"><ele>269.0</ele><time>2026-05-04T15:52:44Z</time></trkpt><trkpt lat="41.292480332546404" lon="1.3381944958346987"><ele>269.0</ele><time>2026-05-04T15:52:45Z</time></trkpt><trkpt lat="41.29246606404073" lon="1.3383330641982334"><ele>269.0</ele><time>2026-05-04T15:52:46Z</time></trkpt><trkpt lat="41.292436847203156" lon="1.3384963179067997"><ele>269.0</ele><time>2026-05-04T15:52:47Z</time></trkpt><trkpt lat="41.29242304460836" lon="1.3386336913098777"><ele>269.0</ele><time>2026-05-04T15:52:48Z</time></trkpt><trkpt lat="41.29240376002249" lon="1.3387788040787296"><ele>269.0</ele><time>2026-05-04T15:52:49Z</time></trkpt><trkpt lat="41.29238434113087" lon="1.3389276640876964"><ele>268.5</ele><time>2026-05-04T15:52:50Z</time></trkpt><trkpt lat="41.2923649041536" lon="1.3390788641870661"><ele>268.0</ele><time>2026-05-04T15:52:51Z</time></trkpt><trkpt lat="41.29234440113254" lon="1.3392248935319462"><ele>267.5</ele><time>2026-05-04T15:52:52Z</time></trkpt><trkpt lat="41.29232418534255" lon="1.339374775872657"><ele>267.0</ele><time>2026-05-04T15:52:53Z</time></trkpt><trkpt lat="41.29230323367768" lon="1.3395234504263847"><ele>267.0</ele><time>2026-05-04T15:52:54Z</time></trkpt><trkpt lat="41.292284784934495" lon="1.3396724182992903"><ele>267.0</ele><time>2026-05-04T15:52:55Z</time></trkpt><trkpt lat="41.29226514458305" lon="1.339818847988781"><ele>267.0</ele><time>2026-05-04T15:52:56Z</time></trkpt><trkpt lat="41.29225090999596" lon="1.339964721803194"><ele>267.0</ele><time>2026-05-04T15:52:57Z</time></trkpt><trkpt lat="41.292234764395324" lon="1.3401147294077207"><ele>267.0</ele><time>2026-05-04T15:52:58Z</time></trkpt><trkpt lat="41.292222396824315" lon="1.3402627023911555"><ele>267.0</ele><time>2026-05-04T15:52:59Z</time></trkpt><trkpt lat="41.29220908380119" lon="1.340412543108644"><ele>267.0</ele><time>2026-05-04T15:53:00Z</time></trkpt><trkpt lat="41.29219835710892" lon="1.340557688594386"><ele>267.0</ele><time>2026-05-04T15:53:01Z</time></trkpt><trkpt lat="41.292186940176634" lon="1.3406969308276497"><ele>267.0</ele><time>2026-05-04T15:53:02Z</time></trkpt><trkpt lat="41.292171880685636" lon="1.3408330408404394"><ele>267.0</ele><time>2026-05-04T15:53:03Z</time></trkpt><trkpt lat="41.29214510770928" lon="1.3409581090147684"><ele>267.0</ele><time>2026-05-04T15:53:04Z</time></trkpt><trkpt lat="41.29211744247513" lon="1.3410763496690365"><ele>267.0</ele><time>2026-05-04T15:53:05Z</time></trkpt><trkpt lat="41.2920782246894" lon="1.3411816720900838"><ele>267.0</ele><time>2026-05-04T15:53:06Z</time></trkpt><trkpt lat="41.292017979287785" lon="1.3412780654195242"><ele>267.0</ele><time>2026-05-04T15:53:07Z</time></trkpt><trkpt lat="41.29191639700002" lon="1.3413196273132921"><ele>267.0</ele><time>2026-05-04T15:53:08Z</time></trkpt><trkpt lat="41.29183897269654" lon="1.3414095784632565"><ele>267.0</ele><time>2026-05-04T15:53:09Z</time></trkpt><trkpt lat="41.29176465293561" lon="1.3415021642552023"><ele>267.0</ele><time>2026-05-04T15:53:10Z</time></trkpt><trkpt lat="41.29171453053991" lon="1.3416279059554448"><ele>267.0</ele><time>2026-05-04T15:53:11Z</time></trkpt><trkpt lat="41.29168687731882" lon="1.341772821832691"><ele>267.0</ele><time>2026-05-04T15:53:12Z</time></trkpt><trkpt lat="41.29167326759714" lon="1.341917017716846"><ele>267.0</ele><time>2026-05-04T15:53:13Z</time></trkpt><trkpt lat="41.2916866354861" lon="1.3420626926209256"><ele>267.0</ele><time>2026-05-04T15:53:14Z</time></trkpt><trkpt lat="41.29172403891797" lon="1.3422036444304601"><ele>267.0</ele><time>2026-05-04T15:53:15Z</time></trkpt><trkpt lat="41.2917763368391" lon="1.3423357596254606"><ele>267.0</ele><time>2026-05-04T15:53:16Z</time></trkpt><trkpt lat="41.29183767951156" lon="1.3424605695476588"><ele>267.0</ele><time>2026-05-04T15:53:17Z</time></trkpt><trkpt lat="41.291884449445796" lon="1.3425975165870228"><ele>266.75</ele><time>2026-05-04T15:53:18Z</time></trkpt><trkpt lat="41.29189675590544" lon="1.3427470196857902"><ele>266.5</ele><time>2026-05-04T15:53:19Z</time></trkpt><trkpt lat="41.29188443543629" lon="1.3429043932496725"><ele>266.25</ele><time>2026-05-04T15:53:20Z</time></trkpt><trkpt lat="41.29186322532106" lon="1.3430435900977176"><ele>266.0</ele><time>2026-05-04T15:53:21Z</time></trkpt><trkpt lat="41.2918349191576" lon="1.3431924060193847"><ele>266.0</ele><time>2026-05-04T15:53:22Z</time></trkpt><trkpt lat="41.29181716048454" lon="1.3433343000616282"><ele>266.0</ele><time>2026-05-04T15:53:23Z</time></trkpt><trkpt lat="41.29179628953926" lon="1.3434837814738605"><ele>266.0</ele><time>2026-05-04T15:53:24Z</time></trkpt><trkpt lat="41.29176728611028" lon="1.3436347866051477"><ele>266.0</ele><time>2026-05-04T15:53:25Z</time></trkpt><trkpt lat="41.291740908372645" lon="1.343779965531885"><ele>265.75</ele><time>2026-05-04T15:53:26Z</time></trkpt><trkpt lat="41.291733847875435" lon="1.3439196799217517"><ele>265.5</ele><time>2026-05-04T15:53:27Z</time></trkpt><trkpt lat="41.29171360407871" lon="1.3440666714686549"><ele>265.25</ele><time>2026-05-04T15:53:28Z</time></trkpt><trkpt lat="41.29169554601109" lon="1.3442141110685015"><ele>265.0</ele><time>2026-05-04T15:53:29Z</time></trkpt><trkpt lat="41.29166325556122" lon="1.3443682408106437"><ele>265.0</ele><time>2026-05-04T15:53:30Z</time></trkpt><trkpt lat="41.29163828787784" lon="1.3445107745745133"><ele>265.0</ele><time>2026-05-04T15:53:31Z</time></trkpt><trkpt lat="41.29161852171761" lon="1.344651573125772"><ele>265.0</ele><time>2026-05-04T15:53:32Z</time></trkpt><trkpt lat="41.29160502630087" lon="1.3448112202171176"><ele>265.0</ele><time>2026-05-04T15:53:33.001Z</time></trkpt><trkpt lat="41.291579102572335" lon="1.3449571993086111"><ele>265.2</ele><time>2026-05-04T15:53:34.001Z</time></trkpt><trkpt lat="41.291552183757695" lon="1.3450966262199149"><ele>265.4</ele><time>2026-05-04T15:53:35.001Z</time></trkpt><trkpt lat="41.29153058450411" lon="1.3452456816884493"><ele>265.6</ele><time>2026-05-04T15:53:36.001Z</time></trkpt><trkpt lat="41.29151001022121" lon="1.3453928623429154"><ele>265.8</ele><time>2026-05-04T15:53:37.001Z</time></trkpt><trkpt lat="41.29148933302674" lon="1.3455384219588866"><ele>266.0</ele><time>2026-05-04T15:53:38.001Z</time></trkpt><trkpt lat="41.291473919835866" lon="1.345687012176167"><ele>266.0</ele><time>2026-05-04T15:53:39.001Z</time></trkpt><trkpt lat="41.29144697080395" lon="1.3458306310519683"><ele>266.0</ele><time>2026-05-04T15:53:40.001Z</time></trkpt><trkpt lat="41.29142862285925" lon="1.3459808287456008"><ele>266.0</ele><time>2026-05-04T15:53:41.001Z</time></trkpt><trkpt lat="41.291407001354536" lon="1.3461251395341651"><ele>266.0</ele><time>2026-05-04T15:53:42.001Z</time></trkpt><trkpt lat="41.29139568330447" lon="1.3462775417302075"><ele>265.0</ele><time>2026-05-04T15:53:43.001Z</time></trkpt><trkpt lat="41.29138368222904" lon="1.3464281932369722"><ele>264.0</ele><time>2026-05-04T15:53:44.001Z</time></trkpt><trkpt lat="41.29135781233893" lon="1.346584769910979"><ele>263.0</ele><time>2026-05-04T15:53:45.001Z</time></trkpt><trkpt lat="41.29132802505267" lon="1.3467305556404876"><ele>262.0</ele><time>2026-05-04T15:53:46.001Z</time></trkpt><trkpt lat="41.291310566362384" lon="1.346873965886932"><ele>262.0</ele><time>2026-05-04T15:53:47.001Z</time></trkpt><trkpt lat="41.29129199733152" lon="1.347018208335599"><ele>262.0</ele><time>2026-05-04T15:53:48.001Z</time></trkpt><trkpt lat="41.291272082495446" lon="1.3471677360680197"><ele>262.0</ele><time>2026-05-04T15:53:49.001Z</time></trkpt><trkpt lat="41.291254133186214" lon="1.3473069706643326"><ele>262.0</ele><time>2026-05-04T15:53:50.001Z</time></trkpt><trkpt lat="41.29123156966251" lon="1.347455797341398"><ele>262.0</ele><time>2026-05-04T15:53:51.001Z</time></trkpt><trkpt lat="41.291211767431356" lon="1.3476106535045351"><ele>262.25</ele><time>2026-05-04T15:53:52.001Z</time></trkpt><trkpt lat="41.29119205241726" lon="1.3477627932037513"><ele>262.5</ele><time>2026-05-04T15:53:53.001Z</time></trkpt><trkpt lat="41.29117218338412" lon="1.3479122441311322"><ele>262.75</ele><time>2026-05-04T15:53:54.001Z</time></trkpt><trkpt lat="41.29115342908803" lon="1.3480614573179481"><ele>263.0</ele><time>2026-05-04T15:53:55.001Z</time></trkpt><trkpt lat="41.291134857895734" lon="1.34820685809779"><ele>263.0</ele><time>2026-05-04T15:53:56.001Z</time></trkpt><trkpt lat="41.29111676238562" lon="1.348350383716648"><ele>263.0</ele><time>2026-05-04T15:53:57.001Z</time></trkpt><trkpt lat="41.29109964152705" lon="1.3484857572468492"><ele>263.0</ele><time>2026-05-04T15:53:58.001Z</time></trkpt><trkpt lat="41.29108353012863" lon="1.3486125716903816"><ele>263.0</ele><time>2026-05-04T15:53:59.001Z</time></trkpt><trkpt lat="41.29106899224203" lon="1.3487351317752856"><ele>263.0</ele><time>2026-05-04T15:54:00.001Z</time></trkpt><trkpt lat="41.2910521125993" lon="1.3488590263016933"><ele>262.2</ele><time>2026-05-04T15:54:01.001Z</time></trkpt><trkpt lat="41.29102853180851" lon="1.3489757207420752"><ele>261.4</ele><time>2026-05-04T15:54:02.001Z</time></trkpt><trkpt lat="41.29097895759891" lon="1.3490773709050443"><ele>260.59999999999997</ele><time>2026-05-04T15:54:03.001Z</time></trkpt><trkpt lat="41.290907904693896" lon="1.3491559301549936"><ele>259.8</ele><time>2026-05-04T15:54:04.001Z</time></trkpt><trkpt lat="41.29082616079622" lon="1.3492303419782572"><ele>259.0</ele><time>2026-05-04T15:54:05.001Z</time></trkpt><trkpt lat="41.29076871399734" lon="1.3493262200162839"><ele>259.0</ele><time>2026-05-04T15:54:06.001Z</time></trkpt><trkpt lat="41.29074827666403" lon="1.3494476814542653"><ele>259.0</ele><time>2026-05-04T15:54:07.001Z</time></trkpt><trkpt lat="41.29075777966002" lon="1.349570582207411"><ele>259.0</ele><time>2026-05-04T15:54:08.001Z</time></trkpt><trkpt lat="41.29078236279191" lon="1.3496901501424494"><ele>259.0</ele><time>2026-05-04T15:54:09.001Z</time></trkpt><trkpt lat="41.29080270960754" lon="1.3498068815330173"><ele>259.0</ele><time>2026-05-04T15:54:10.001Z</time></trkpt><trkpt lat="41.29080140694464" lon="1.3499275876944081"><ele>259.0</ele><time>2026-05-04T15:54:11.001Z</time></trkpt><trkpt lat="41.290769991553866" lon="1.3500574635969866"><ele>259.0</ele><time>2026-05-04T15:54:12.001Z</time></trkpt><trkpt lat="41.290683822648006" lon="1.3501588938513944"><ele>259.0</ele><time>2026-05-04T15:54:13.001Z</time></trkpt><trkpt lat="41.2906276176445" lon="1.3502846843687972"><ele>259.0</ele><time>2026-05-04T15:54:14.001Z</time></trkpt><trkpt lat="41.2905692808681" lon="1.3504002137357323"><ele>259.0</ele><time>2026-05-04T15:54:15.001Z</time></trkpt><trkpt lat="41.29051119964912" lon="1.350507646069863"><ele>257.8333333333333</ele><time>2026-05-04T15:54:16.001Z</time></trkpt><trkpt lat="41.29045222410965" lon="1.350607194422739"><ele>256.66666666666663</ele><time>2026-05-04T15:54:17.001Z</time></trkpt><trkpt lat="41.29039940761629" lon="1.3507102883991782"><ele>255.5</ele><time>2026-05-04T15:54:18.001Z</time></trkpt><trkpt lat="41.29032465898092" lon="1.3507809103633122"><ele>254.33333333333331</ele><time>2026-05-04T15:54:19.001Z</time></trkpt><trkpt lat="41.290248942236154" lon="1.3508345199744842"><ele>253.16666666666666</ele><time>2026-05-04T15:54:20.001Z</time></trkpt><trkpt lat="41.290172383412305" lon="1.3508767016302872"><ele>252.0</ele><time>2026-05-04T15:54:21.001Z</time></trkpt><trkpt lat="41.290105620921864" lon="1.350915076007791"><ele>252.0</ele><time>2026-05-04T15:54:22.001Z</time></trkpt><trkpt lat="41.29004640988212" lon="1.3509519426173704"><ele>252.0</ele><time>2026-05-04T15:54:23.001Z</time></trkpt><trkpt lat="41.28995870558547" lon="1.3510166684745304"><ele>252.0</ele><time>2026-05-04T15:54:25.001Z</time></trkpt><trkpt lat="41.28990289716801" lon="1.351122850753526"><ele>252.0</ele><time>2026-05-04T15:54:27.001Z</time></trkpt><trkpt lat="41.28984337994058" lon="1.3511839704768318"><ele>252.0</ele><time>2026-05-04T15:54:30Z</time></trkpt><trkpt lat="41.2897760516922" lon="1.3512297267037057"><ele>252.0</ele><time>2026-05-04T16:11:30.001Z</time></trkpt><trkpt lat="41.289747538615565" lon="1.351318540592227"><ele>251.0</ele><time>2026-05-04T16:11:32.001Z</time></trkpt><trkpt lat="41.28972401925128" lon="1.3514487778746955"><ele>250.0</ele><time>2026-05-04T16:11:34.001Z</time></trkpt><trkpt lat="41.28970202248233" lon="1.3515975319618212"><ele>249.0</ele><time>2026-05-04T16:11:36.001Z</time></trkpt><trkpt lat="41.289682453542405" lon="1.3516776508571016"><ele>248.0</ele><time>2026-05-04T16:11:37.001Z</time></trkpt><trkpt lat="41.28964881661996" lon="1.3517618735992372"><ele>247.0</ele><time>2026-05-04T16:11:38.001Z</time></trkpt><trkpt lat="41.289606564146375" lon="1.3518397734700773"><ele>246.0</ele><time>2026-05-04T16:11:39.001Z</time></trkpt><trkpt lat="41.289558536558786" lon="1.3519185387033068"><ele>246.0</ele><time>2026-05-04T16:11:40.001Z</time></trkpt><trkpt lat="41.28950438238415" lon="1.3519948580559353"><ele>246.0</ele><time>2026-05-04T16:11:41.001Z</time></trkpt><trkpt lat="41.28944715971601" lon="1.3520766522591967"><ele>246.0</ele><time>2026-05-04T16:11:42.001Z</time></trkpt><trkpt lat="41.2893862190408" lon="1.3521573048078508"><ele>246.0</ele><time>2026-05-04T16:11:43.001Z</time></trkpt><trkpt lat="41.2893269481635" lon="1.3522300284235107"><ele>246.0</ele><time>2026-05-04T16:11:44.001Z</time></trkpt><trkpt lat="41.289275204351604" lon="1.3522963814175981"><ele>246.0</ele><time>2026-05-04T16:11:45.001Z</time></trkpt><trkpt lat="41.28921921395611" lon="1.3523775440449768"><ele>244.8</ele><time>2026-05-04T16:11:47.001Z</time></trkpt><trkpt lat="41.289153019212236" lon="1.352469845281777"><ele>243.60000000000002</ele><time>2026-05-04T16:12:08.001Z</time></trkpt><trkpt lat="41.28906192233079" lon="1.3525934598334814"><ele>242.4</ele><time>2026-05-04T16:12:10.001Z</time></trkpt><trkpt lat="41.289013163745885" lon="1.352666135150607"><ele>241.2</ele><time>2026-05-04T16:12:11.001Z</time></trkpt><trkpt lat="41.288955615024236" lon="1.3527368685023893"><ele>240.0</ele><time>2026-05-04T16:12:12.001Z</time></trkpt><trkpt lat="41.28889830419107" lon="1.3528205481737867"><ele>240.0</ele><time>2026-05-04T16:12:13.001Z</time></trkpt><trkpt lat="41.28883650812691" lon="1.35290554756755"><ele>240.0</ele><time>2026-05-04T16:12:14.001Z</time></trkpt><trkpt lat="41.28877186591646" lon="1.3529941765238558"><ele>240.0</ele><time>2026-05-04T16:12:15.001Z</time></trkpt><trkpt lat="41.28870428722593" lon="1.3530831823873513"><ele>240.0</ele><time>2026-05-04T16:12:16.001Z</time></trkpt><trkpt lat="41.288634715757844" lon="1.353176013482838"><ele>240.0</ele><time>2026-05-04T16:12:17.001Z</time></trkpt><trkpt lat="41.28856671570111" lon="1.3532730439404397"><ele>239.4</ele><time>2026-05-04T16:12:18.001Z</time></trkpt><trkpt lat="41.28849097641385" lon="1.3533715471481078"><ele>238.8</ele><time>2026-05-04T16:12:19.001Z</time></trkpt><trkpt lat="41.28841937401741" lon="1.3534688973433682"><ele>238.2</ele><time>2026-05-04T16:12:20.001Z</time></trkpt><trkpt lat="41.28834485021283" lon="1.3535688979649538"><ele>237.6</ele><time>2026-05-04T16:12:21.001Z</time></trkpt><trkpt lat="41.28826817477931" lon="1.3536735085377891"><ele>237.0</ele><time>2026-05-04T16:12:22.001Z</time></trkpt><trkpt lat="41.288192570892534" lon="1.3537782447144946"><ele>236.39999999999998</ele><time>2026-05-04T16:12:23.001Z</time></trkpt><trkpt lat="41.288116417960595" lon="1.3538847999188655"><ele>235.79999999999998</ele><time>2026-05-04T16:12:24.001Z</time></trkpt><trkpt lat="41.28804089425944" lon="1.3539884696366125"><ele>235.2</ele><time>2026-05-04T16:12:25.001Z</time></trkpt><trkpt lat="41.28796406982828" lon="1.354092955020973"><ele>234.6</ele><time>2026-05-04T16:12:26.001Z</time></trkpt><trkpt lat="41.28788740883346" lon="1.3541971337823004"><ele>234.0</ele><time>2026-05-04T16:12:27.001Z</time></trkpt><trkpt lat="41.28781121053477" lon="1.3543011903493278"><ele>233.79999999999998</ele><time>2026-05-04T16:12:28.001Z</time></trkpt><trkpt lat="41.28773626313653" lon="1.3544040964212491"><ele>233.59999999999997</ele><time>2026-05-04T16:12:29.001Z</time></trkpt><trkpt lat="41.28766146077047" lon="1.3545078457494897"><ele>233.4</ele><time>2026-05-04T16:12:30.001Z</time></trkpt><trkpt lat="41.28758597093329" lon="1.3546120946456557"><ele>233.2</ele><time>2026-05-04T16:12:31.001Z</time></trkpt><trkpt lat="41.28751024046518" lon="1.354718379043263"><ele>233.0</ele><time>2026-05-04T16:12:32.001Z</time></trkpt><trkpt lat="41.287431692358396" lon="1.3548196357456057"><ele>232.8</ele><time>2026-05-04T16:12:33.001Z</time></trkpt><trkpt lat="41.2873546214514" lon="1.3549235941643223"><ele>232.60000000000002</ele><time>2026-05-04T16:12:34.001Z</time></trkpt><trkpt lat="41.28727919059528" lon="1.3550287564718027"><ele>232.39999999999998</ele><time>2026-05-04T16:12:35.001Z</time></trkpt><trkpt lat="41.28720312396417" lon="1.3551340144629267"><ele>232.2</ele><time>2026-05-04T16:12:36.001Z</time></trkpt><trkpt lat="41.28712704909442" lon="1.3552393403578573"><ele>232.0</ele><time>2026-05-04T16:12:37.001Z</time></trkpt><trkpt lat="41.28705043812693" lon="1.355344074972866"><ele>231.8</ele><time>2026-05-04T16:12:38.001Z</time></trkpt><trkpt lat="41.2869739188038" lon="1.355446959465526"><ele>231.6</ele><time>2026-05-04T16:12:39.001Z</time></trkpt><trkpt lat="41.2868964605943" lon="1.3555531264104108"><ele>231.40000000000003</ele><time>2026-05-04T16:12:40.001Z</time></trkpt><trkpt lat="41.286822467207486" lon="1.3556568296129254"><ele>231.20000000000002</ele><time>2026-05-04T16:12:41.001Z</time></trkpt><trkpt lat="41.28674841736093" lon="1.3557597358280664"><ele>231.0</ele><time>2026-05-04T16:12:42.001Z</time></trkpt><trkpt lat="41.28667511805719" lon="1.3558728407444172"><ele>230.60000000000002</ele><time>2026-05-04T16:12:43.001Z</time></trkpt><trkpt lat="41.28660384496053" lon="1.3559818819661145"><ele>230.20000000000002</ele><time>2026-05-04T16:12:44.001Z</time></trkpt><trkpt lat="41.28653780545272" lon="1.3560960152518224"><ele>229.79999999999998</ele><time>2026-05-04T16:12:45.001Z</time></trkpt><trkpt lat="41.28647356389168" lon="1.3562114445039086"><ele>229.39999999999998</ele><time>2026-05-04T16:12:46.001Z</time></trkpt><trkpt lat="41.28641532515365" lon="1.3563312282459252"><ele>229.0</ele><time>2026-05-04T16:12:47.001Z</time></trkpt><trkpt lat="41.28635948053134" lon="1.3564552539297463"><ele>228.39999999999998</ele><time>2026-05-04T16:12:48.001Z</time></trkpt><trkpt lat="41.286305679021275" lon="1.3565855787707515"><ele>227.79999999999998</ele><time>2026-05-04T16:12:49.001Z</time></trkpt><trkpt lat="41.28625449465017" lon="1.3567200823440606"><ele>227.20000000000002</ele><time>2026-05-04T16:12:50.001Z</time></trkpt><trkpt lat="41.28621125620802" lon="1.356857995292788"><ele>226.60000000000002</ele><time>2026-05-04T16:12:51.001Z</time></trkpt><trkpt lat="41.28616475287617" lon="1.356993557628908"><ele>226.0</ele><time>2026-05-04T16:12:52.001Z</time></trkpt><trkpt lat="41.286123622486556" lon="1.3571282494001564"><ele>225.20000000000002</ele><time>2026-05-04T16:12:53.001Z</time></trkpt><trkpt lat="41.28608568849869" lon="1.3572696396669202"><ele>224.40000000000003</ele><time>2026-05-04T16:12:54.001Z</time></trkpt><trkpt lat="41.28604697866758" lon="1.357407235680106"><ele>223.6</ele><time>2026-05-04T16:12:55.001Z</time></trkpt><trkpt lat="41.28600793319471" lon="1.3575428333274846"><ele>222.8</ele><time>2026-05-04T16:12:56.001Z</time></trkpt><trkpt lat="41.285968415873064" lon="1.357680613336983"><ele>222.0</ele><time>2026-05-04T16:12:57.001Z</time></trkpt><trkpt lat="41.28592794727239" lon="1.3578178062054458"><ele>222.0</ele><time>2026-05-04T16:12:58.001Z</time></trkpt><trkpt lat="41.28589065842816" lon="1.3579558135840966"><ele>222.0</ele><time>2026-05-04T16:12:59.001Z</time></trkpt><trkpt lat="41.285853316258574" lon="1.3580918054083744"><ele>222.0</ele><time>2026-05-04T16:13:00.001Z</time></trkpt><trkpt lat="41.28581156926003" lon="1.3582244650692772"><ele>222.0</ele><time>2026-05-04T16:13:01.001Z</time></trkpt><trkpt lat="41.28577680723323" lon="1.358361016150513"><ele>222.0</ele><time>2026-05-04T16:13:02.001Z</time></trkpt><trkpt lat="41.28573766780644" lon="1.3584928286663083"><ele>221.8</ele><time>2026-05-04T16:13:03.001Z</time></trkpt><trkpt lat="41.28569834309278" lon="1.3586276323551256"><ele>221.6</ele><time>2026-05-04T16:13:04.001Z</time></trkpt><trkpt lat="41.28565968617945" lon="1.358763207570972"><ele>221.40000000000003</ele><time>2026-05-04T16:13:05.001Z</time></trkpt><trkpt lat="41.28562126300637" lon="1.3588978763218305"><ele>221.20000000000002</ele><time>2026-05-04T16:13:06.001Z</time></trkpt><trkpt lat="41.28558112923096" lon="1.359032432658613"><ele>221.0</ele><time>2026-05-04T16:13:07.001Z</time></trkpt><trkpt lat="41.285542400706035" lon="1.3591635953691847"><ele>221.0</ele><time>2026-05-04T16:13:08.001Z</time></trkpt><trkpt lat="41.28550512767683" lon="1.3593012188924871"><ele>221.00000000000003</ele><time>2026-05-04T16:13:09.001Z</time></trkpt><trkpt lat="41.2854660693688" lon="1.3594333400127134"><ele>221.00000000000003</ele><time>2026-05-04T16:13:10.001Z</time></trkpt><trkpt lat="41.2854272508532" lon="1.3595639617636164"><ele>221.0</ele><time>2026-05-04T16:13:11.001Z</time></trkpt><trkpt lat="41.28538941926744" lon="1.3596970325154571"><ele>221.0</ele><time>2026-05-04T16:13:12.001Z</time></trkpt><trkpt lat="41.28535136639416" lon="1.3598301793993188"><ele>221.20000000000002</ele><time>2026-05-04T16:13:13.001Z</time></trkpt><trkpt lat="41.28531489486979" lon="1.359963889573314"><ele>221.40000000000003</ele><time>2026-05-04T16:13:14.001Z</time></trkpt><trkpt lat="41.28527633356275" lon="1.3600995386578434"><ele>221.6</ele><time>2026-05-04T16:13:15.001Z</time></trkpt><trkpt lat="41.2852398876446" lon="1.3602337682417454"><ele>221.8</ele><time>2026-05-04T16:13:16.001Z</time></trkpt><trkpt lat="41.28520467119264" lon="1.3603648975177016"><ele>222.0</ele><time>2026-05-04T16:13:17.001Z</time></trkpt><trkpt lat="41.285169503384815" lon="1.360497283476314"><ele>222.39999999999998</ele><time>2026-05-04T16:13:18.001Z</time></trkpt><trkpt lat="41.285137701568594" lon="1.3606290358776836"><ele>222.79999999999998</ele><time>2026-05-04T16:13:19.001Z</time></trkpt><trkpt lat="41.285114202861884" lon="1.360766453128737"><ele>223.2</ele><time>2026-05-04T16:13:20.001Z</time></trkpt><trkpt lat="41.285093457427244" lon="1.3609041479925263"><ele>223.6</ele><time>2026-05-04T16:13:21.001Z</time></trkpt><trkpt lat="41.285080131158146" lon="1.3610429559833546"><ele>224.0</ele><time>2026-05-04T16:13:22.001Z</time></trkpt><trkpt lat="41.285074263687825" lon="1.3611793808751336"><ele>224.0</ele><time>2026-05-04T16:13:23Z</time></trkpt><trkpt lat="41.28507767288045" lon="1.361317779852706"><ele>223.99999999999997</ele><time>2026-05-04T16:13:24Z</time></trkpt><trkpt lat="41.28507799443635" lon="1.3614545048482585"><ele>223.99999999999997</ele><time>2026-05-04T16:13:25Z</time></trkpt><trkpt lat="41.28509036373905" lon="1.3615860910110877"><ele>224.0</ele><time>2026-05-04T16:13:26Z</time></trkpt><trkpt lat="41.28509668910397" lon="1.3617273755055388"><ele>224.0</ele><time>2026-05-04T16:13:27Z</time></trkpt><trkpt lat="41.28511104509565" lon="1.3618594333905991"><ele>224.0</ele><time>2026-05-04T16:13:28Z</time></trkpt><trkpt lat="41.28511596635599" lon="1.3619918897148822"><ele>223.99999999999997</ele><time>2026-05-04T16:13:29Z</time></trkpt><trkpt lat="41.28512635966887" lon="1.3621286876632226"><ele>223.99999999999997</ele><time>2026-05-04T16:13:30Z</time></trkpt><trkpt lat="41.285135762078575" lon="1.362259155216715"><ele>224.0</ele><time>2026-05-04T16:13:31Z</time></trkpt><trkpt lat="41.285149543512624" lon="1.3623917893375377"><ele>224.0</ele><time>2026-05-04T16:13:32Z</time></trkpt><trkpt lat="41.28516120951013" lon="1.362527315772372"><ele>224.39999999999998</ele><time>2026-05-04T16:13:33Z</time></trkpt><trkpt lat="41.28517604708638" lon="1.3626594241778098"><ele>224.79999999999998</ele><time>2026-05-04T16:13:34Z</time></trkpt><trkpt lat="41.28518671822327" lon="1.3627913547475"><ele>225.20000000000002</ele><time>2026-05-04T16:13:35Z</time></trkpt><trkpt lat="41.285196768956126" lon="1.3629257954941505"><ele>225.60000000000002</ele><time>2026-05-04T16:13:36Z</time></trkpt><trkpt lat="41.28520908588008" lon="1.3630587507538852"><ele>226.0</ele><time>2026-05-04T16:13:37Z</time></trkpt><trkpt lat="41.28522277046326" lon="1.3631935511897364"><ele>226.60000000000002</ele><time>2026-05-04T16:13:38Z</time></trkpt><trkpt lat="41.285235030129655" lon="1.3633263225178212"><ele>227.20000000000002</ele><time>2026-05-04T16:13:39Z</time></trkpt><trkpt lat="41.285247712112614" lon="1.363458626923873"><ele>227.79999999999998</ele><time>2026-05-04T16:13:40Z</time></trkpt><trkpt lat="41.28526505919345" lon="1.3635917640130422"><ele>228.39999999999998</ele><time>2026-05-04T16:13:41Z</time></trkpt><trkpt lat="41.28527073538982" lon="1.3637186445644291"><ele>229.0</ele><time>2026-05-04T16:13:42Z</time></trkpt><trkpt lat="41.28528063748418" lon="1.363850510025835"><ele>229.6</ele><time>2026-05-04T16:13:43Z</time></trkpt><trkpt lat="41.28529176830783" lon="1.3639835606453172"><ele>230.2</ele><time>2026-05-04T16:13:44Z</time></trkpt><trkpt lat="41.285304257697184" lon="1.364114676102784"><ele>230.79999999999998</ele><time>2026-05-04T16:13:45Z</time></trkpt><trkpt lat="41.28531766155205" lon="1.3642425878007567"><ele>231.39999999999998</ele><time>2026-05-04T16:13:46Z</time></trkpt><trkpt lat="41.28532841206331" lon="1.3643707033879853"><ele>232.0</ele><time>2026-05-04T16:13:47Z</time></trkpt><trkpt lat="41.28534150788979" lon="1.36449732744479"><ele>232.0</ele><time>2026-05-04T16:13:48Z</time></trkpt><trkpt lat="41.28535855872996" lon="1.3646195746595067"><ele>232.0</ele><time>2026-05-04T16:13:49Z</time></trkpt><trkpt lat="41.28538115136038" lon="1.3647396293196652"><ele>232.0</ele><time>2026-05-04T16:13:50Z</time></trkpt><trkpt lat="41.28541019976003" lon="1.364858715187509"><ele>232.0</ele><time>2026-05-04T16:13:51Z</time></trkpt><trkpt lat="41.28544445510759" lon="1.3649742195994001"><ele>232.0</ele><time>2026-05-04T16:13:52Z</time></trkpt><trkpt lat="41.28548539237823" lon="1.365086609878662"><ele>232.6</ele><time>2026-05-04T16:13:53Z</time></trkpt><trkpt lat="41.28553012844316" lon="1.365195410867801"><ele>233.2</ele><time>2026-05-04T16:13:54Z</time></trkpt><trkpt lat="41.28558050626984" lon="1.3653016963701063"><ele>233.8</ele><time>2026-05-04T16:13:55Z</time></trkpt><trkpt lat="41.285633749755064" lon="1.3654065299304856"><ele>234.4</ele><time>2026-05-04T16:13:56Z</time></trkpt><trkpt lat="41.28569047380191" lon="1.365506960208417"><ele>235.0</ele><time>2026-05-04T16:13:57Z</time></trkpt><trkpt lat="41.28574880899465" lon="1.3656029240261283"><ele>236.8</ele><time>2026-05-04T16:13:58Z</time></trkpt><trkpt lat="41.28580811506478" lon="1.365696613256562"><ele>238.6</ele><time>2026-05-04T16:13:59Z</time></trkpt><trkpt lat="41.28586944807493" lon="1.3657860165742846"><ele>240.39999999999998</ele><time>2026-05-04T16:14:00Z</time></trkpt><trkpt lat="41.28593754785587" lon="1.365870257586578"><ele>242.2</ele><time>2026-05-04T16:14:01Z</time></trkpt><trkpt lat="41.286009491937186" lon="1.3659494237087508"><ele>244.0</ele><time>2026-05-04T16:14:02Z</time></trkpt><trkpt lat="41.28608324739227" lon="1.3660241212654647"><ele>244.0</ele><time>2026-05-04T16:14:03Z</time></trkpt><trkpt lat="41.28615702788852" lon="1.3661001260269796"><ele>243.99999999999997</ele><time>2026-05-04T16:14:04Z</time></trkpt><trkpt lat="41.28623043595072" lon="1.3661754296642696"><ele>243.99999999999997</ele><time>2026-05-04T16:14:05Z</time></trkpt><trkpt lat="41.28630538232934" lon="1.3662514751997212"><ele>244.0</ele><time>2026-05-04T16:14:06Z</time></trkpt><trkpt lat="41.286379384327354" lon="1.3663266282949351"><ele>244.0</ele><time>2026-05-04T16:14:07Z</time></trkpt><trkpt lat="41.2864517661846" lon="1.3664039719118908"><ele>246.0</ele><time>2026-05-04T16:14:08Z</time></trkpt><trkpt lat="41.28652469027227" lon="1.3664812580472399"><ele>247.99999999999997</ele><time>2026-05-04T16:14:09Z</time></trkpt><trkpt lat="41.28659524931379" lon="1.3665557805657378"><ele>249.99999999999997</ele><time>2026-05-04T16:14:10Z</time></trkpt><trkpt lat="41.28666644930235" lon="1.3666306779646065"><ele>252.0</ele><time>2026-05-04T16:14:11Z</time></trkpt><trkpt lat="41.286735735164186" lon="1.3667046203176239"><ele>254.0</ele><time>2026-05-04T16:14:12Z</time></trkpt><trkpt lat="41.286805249448804" lon="1.3667774474130199"><ele>254.0</ele><time>2026-05-04T16:14:13Z</time></trkpt><trkpt lat="41.28687696360448" lon="1.36685283367536"><ele>253.99999999999997</ele><time>2026-05-04T16:14:14Z</time></trkpt><trkpt lat="41.286950581420115" lon="1.3669267761191704"><ele>253.99999999999997</ele><time>2026-05-04T16:14:15Z</time></trkpt><trkpt lat="41.287020516477305" lon="1.3670045971713611"><ele>254.0</ele><time>2026-05-04T16:14:16Z</time></trkpt><trkpt lat="41.287090740017376" lon="1.3670805809666284"><ele>254.0</ele><time>2026-05-04T16:14:17Z</time></trkpt><trkpt lat="41.287161113063334" lon="1.3671548999992804"><ele>254.6</ele><time>2026-05-04T16:14:18Z</time></trkpt><trkpt lat="41.28723189128169" lon="1.3672296367816785"><ele>255.2</ele><time>2026-05-04T16:14:19Z</time></trkpt><trkpt lat="41.28730204571264" lon="1.367305714386014"><ele>255.79999999999998</ele><time>2026-05-04T16:14:20Z</time></trkpt><trkpt lat="41.28737183729166" lon="1.3673812967304029"><ele>256.4</ele><time>2026-05-04T16:14:21Z</time></trkpt><trkpt lat="41.2874441267877" lon="1.3674536427416275"><ele>257.0</ele><time>2026-05-04T16:14:22.001Z</time></trkpt><trkpt lat="41.28751648880941" lon="1.3675242107911616"><ele>257.0</ele><time>2026-05-04T16:14:23.001Z</time></trkpt><trkpt lat="41.28759164876005" lon="1.36759106629642"><ele>257.0</ele><time>2026-05-04T16:14:24.001Z</time></trkpt><trkpt lat="41.28766790343095" lon="1.3676529964705113"><ele>257.0</ele><time>2026-05-04T16:14:25.001Z</time></trkpt><trkpt lat="41.28774382960399" lon="1.3677111066255327"><ele>257.0</ele><time>2026-05-04T16:14:26.001Z</time></trkpt><trkpt lat="41.287822695047964" lon="1.3677667417313653"><ele>257.0</ele><time>2026-05-04T16:14:27.001Z</time></trkpt><trkpt lat="41.28790289364635" lon="1.3678196911438292"><ele>257.0</ele><time>2026-05-04T16:14:28.001Z</time></trkpt><trkpt lat="41.2879843700651" lon="1.367868074574499"><ele>257.0</ele><time>2026-05-04T16:14:29.001Z</time></trkpt><trkpt lat="41.28806602231801" lon="1.3679153881503978"><ele>257.0</ele><time>2026-05-04T16:14:30.001Z</time></trkpt><trkpt lat="41.28814965557996" lon="1.3679562391527533"><ele>257.0</ele><time>2026-05-04T16:14:31.001Z</time></trkpt><trkpt lat="41.28823542203827" lon="1.367995825836322"><ele>257.0</ele><time>2026-05-04T16:14:32.001Z</time></trkpt><trkpt lat="41.288320331123266" lon="1.3680347689566372"><ele>257.0</ele><time>2026-05-04T16:14:33.001Z</time></trkpt><trkpt lat="41.2884074210977" lon="1.3680705797995367"><ele>258.8</ele><time>2026-05-04T16:14:34.001Z</time></trkpt><trkpt lat="41.28849207686918" lon="1.3681070498873158"><ele>260.6</ele><time>2026-05-04T16:14:35.001Z</time></trkpt><trkpt lat="41.288579568824574" lon="1.3681401736904477"><ele>262.40000000000003</ele><time>2026-05-04T16:14:36.001Z</time></trkpt><trkpt lat="41.28866920692023" lon="1.3681694534599234"><ele>264.2</ele><time>2026-05-04T16:14:37.001Z</time></trkpt><trkpt lat="41.28875900728999" lon="1.3681955763978024"><ele>266.0</ele><time>2026-05-04T16:14:38.001Z</time></trkpt><trkpt lat="41.28884986557745" lon="1.3682238103143096"><ele>266.6</ele><time>2026-05-04T16:14:39.001Z</time></trkpt><trkpt lat="41.28894039640861" lon="1.368255095361736"><ele>267.20000000000005</ele><time>2026-05-04T16:14:40.001Z</time></trkpt><trkpt lat="41.28902973094493" lon="1.3682903434114184"><ele>267.79999999999995</ele><time>2026-05-04T16:14:41.001Z</time></trkpt><trkpt lat="41.289117802534626" lon="1.368328788982306"><ele>268.4</ele><time>2026-05-04T16:14:42.001Z</time></trkpt><trkpt lat="41.2892020965232" lon="1.3683711406333225"><ele>269.0</ele><time>2026-05-04T16:14:43.001Z</time></trkpt><trkpt lat="41.28928790043706" lon="1.3684153022005958"><ele>269.0</ele><time>2026-05-04T16:14:44.001Z</time></trkpt><trkpt lat="41.28937270890241" lon="1.3684639814298736"><ele>269.0</ele><time>2026-05-04T16:14:45.001Z</time></trkpt><trkpt lat="41.28945488881034" lon="1.3685198351188919"><ele>269.0</ele><time>2026-05-04T16:14:46.001Z</time></trkpt><trkpt lat="41.28953340241013" lon="1.3685827354491311"><ele>269.0</ele><time>2026-05-04T16:14:47.001Z</time></trkpt><trkpt lat="41.289608996323054" lon="1.3686482649198464"><ele>269.0</ele><time>2026-05-04T16:14:48.001Z</time></trkpt><trkpt lat="41.28968526445676" lon="1.3687143964371373"><ele>269.59999999999997</ele><time>2026-05-04T16:14:49.001Z</time></trkpt><trkpt lat="41.28975934171359" lon="1.3687839634402814"><ele>270.2</ele><time>2026-05-04T16:14:50.001Z</time></trkpt><trkpt lat="41.28982821715407" lon="1.368861666201882"><ele>270.79999999999995</ele><time>2026-05-04T16:14:51.001Z</time></trkpt><trkpt lat="41.28989410603407" lon="1.3689457924193877"><ele>271.4</ele><time>2026-05-04T16:14:52.001Z</time></trkpt><trkpt lat="41.289957574625866" lon="1.369035790095958"><ele>272.0</ele><time>2026-05-04T16:14:53.001Z</time></trkpt><trkpt lat="41.29001739338908" lon="1.3691309727716796"><ele>272.0</ele><time>2026-05-04T16:14:54.001Z</time></trkpt><trkpt lat="41.29007626754382" lon="1.3692271075440825"><ele>272.0</ele><time>2026-05-04T16:14:55.001Z</time></trkpt><trkpt lat="41.29013299730394" lon="1.3693271420932818"><ele>272.0</ele><time>2026-05-04T16:14:56.001Z</time></trkpt><trkpt lat="41.290185143440766" lon="1.3694364523113365"><ele>272.0</ele><time>2026-05-04T16:14:57.001Z</time></trkpt><trkpt lat="41.2902322519108" lon="1.3695491784719664"><ele>272.0</ele><time>2026-05-04T16:14:58.001Z</time></trkpt><trkpt lat="41.290273363516704" lon="1.3696628534613098"><ele>273.4</ele><time>2026-05-04T16:14:59.001Z</time></trkpt><trkpt lat="41.290314592073415" lon="1.3697782789682433"><ele>274.79999999999995</ele><time>2026-05-04T16:15:00.001Z</time></trkpt><trkpt lat="41.290349756677195" lon="1.3698964992674758"><ele>276.2</ele><time>2026-05-04T16:15:01.001Z</time></trkpt><trkpt lat="41.29038384080327" lon="1.3700145472956657"><ele>277.59999999999997</ele><time>2026-05-04T16:15:02.001Z</time></trkpt><trkpt lat="41.29041375415444" lon="1.370137179717073"><ele>279.0</ele><time>2026-05-04T16:15:03.001Z</time></trkpt><trkpt lat="41.29043893239063" lon="1.3702637721629316"><ele>279.0</ele><time>2026-05-04T16:15:04.001Z</time></trkpt><trkpt lat="41.2904633309404" lon="1.3703921057514616"><ele>279.0</ele><time>2026-05-04T16:15:05.001Z</time></trkpt><trkpt lat="41.290488238017936" lon="1.3705216827183642"><ele>279.0</ele><time>2026-05-04T16:15:06.001Z</time></trkpt><trkpt lat="41.290512141725436" lon="1.3706512539540552"><ele>279.0</ele><time>2026-05-04T16:15:07.001Z</time></trkpt><trkpt lat="41.290534906694866" lon="1.3707827095192806"><ele>279.0</ele><time>2026-05-04T16:15:08.001Z</time></trkpt><trkpt lat="41.29055709815128" lon="1.3709163285437909"><ele>279.59999999999997</ele><time>2026-05-04T16:15:09.001Z</time></trkpt><trkpt lat="41.29057997541088" lon="1.3710482017522088"><ele>280.2</ele><time>2026-05-04T16:15:10.001Z</time></trkpt><trkpt lat="41.29060201356416" lon="1.3711787381145277"><ele>280.79999999999995</ele><time>2026-05-04T16:15:11.001Z</time></trkpt><trkpt lat="41.29062489607279" lon="1.371308261838737"><ele>281.4</ele><time>2026-05-04T16:15:12.001Z</time></trkpt><trkpt lat="41.290647933972586" lon="1.3714389427652722"><ele>282.0</ele><time>2026-05-04T16:15:13.001Z</time></trkpt><trkpt lat="41.29067164079246" lon="1.3715694173720563"><ele>282.0</ele><time>2026-05-04T16:15:14.001Z</time></trkpt><trkpt lat="41.29069331441616" lon="1.3716984517342692"><ele>282.0</ele><time>2026-05-04T16:15:15.001Z</time></trkpt><trkpt lat="41.29071637262342" lon="1.3718272299046683"><ele>282.0</ele><time>2026-05-04T16:15:16.001Z</time></trkpt><trkpt lat="41.29073766509079" lon="1.371958177185808"><ele>282.0</ele><time>2026-05-04T16:15:17.001Z</time></trkpt><trkpt lat="41.29075928952372" lon="1.3720878529181522"><ele>282.0</ele><time>2026-05-04T16:15:18.001Z</time></trkpt><trkpt lat="41.29078067922348" lon="1.3722189441998196"><ele>282.2</ele><time>2026-05-04T16:15:19.001Z</time></trkpt><trkpt lat="41.29080540130231" lon="1.372351017599668"><ele>282.4</ele><time>2026-05-04T16:15:20.001Z</time></trkpt><trkpt lat="41.29082921164664" lon="1.37248479225928"><ele>282.6</ele><time>2026-05-04T16:15:21.001Z</time></trkpt><trkpt lat="41.290856249551695" lon="1.3726189592366975"><ele>282.8</ele><time>2026-05-04T16:15:22.001Z</time></trkpt><trkpt lat="41.290885325779506" lon="1.3727532911301328"><ele>283.0</ele><time>2026-05-04T16:15:23.001Z</time></trkpt><trkpt lat="41.29091549314408" lon="1.3728894535593266"><ele>283.0</ele><time>2026-05-04T16:15:24.001Z</time></trkpt><trkpt lat="41.290948839685164" lon="1.373024852042481"><ele>283.0</ele><time>2026-05-04T16:15:25.001Z</time></trkpt><trkpt lat="41.290981844318104" lon="1.3731612987448465"><ele>283.0</ele><time>2026-05-04T16:15:26.001Z</time></trkpt><trkpt lat="41.291012962397716" lon="1.373299315272336"><ele>283.0</ele><time>2026-05-04T16:15:27.001Z</time></trkpt><trkpt lat="41.291043991906065" lon="1.3734358529854183"><ele>283.0</ele><time>2026-05-04T16:15:28.001Z</time></trkpt><trkpt lat="41.29107673073327" lon="1.3735712178126935"><ele>283.0</ele><time>2026-05-04T16:15:29Z</time></trkpt><trkpt lat="41.29111084011874" lon="1.373705474720251"><ele>283.0</ele><time>2026-05-04T16:15:30Z</time></trkpt><trkpt lat="41.2911435348635" lon="1.3738388888037565"><ele>283.0</ele><time>2026-05-04T16:15:31Z</time></trkpt><trkpt lat="41.29117604552672" lon="1.3739709952805308"><ele>283.0</ele><time>2026-05-04T16:15:32Z</time></trkpt><trkpt lat="41.291208874220274" lon="1.3741061626136477"><ele>283.0</ele><time>2026-05-04T16:15:33Z</time></trkpt><trkpt lat="41.29124029430036" lon="1.374240492327457"><ele>282.6</ele><time>2026-05-04T16:15:34Z</time></trkpt><trkpt lat="41.29127119305283" lon="1.3743744165439498"><ele>282.20000000000005</ele><time>2026-05-04T16:15:35Z</time></trkpt><trkpt lat="41.291300759880926" lon="1.3745097158834585"><ele>281.8</ele><time>2026-05-04T16:15:36Z</time></trkpt><trkpt lat="41.29133000644425" lon="1.3746452266640103"><ele>281.40000000000003</ele><time>2026-05-04T16:15:37Z</time></trkpt><trkpt lat="41.291355402574794" lon="1.3747809866197553"><ele>281.0</ele><time>2026-05-04T16:15:38Z</time></trkpt><trkpt lat="41.291377552293234" lon="1.3749172050786176"><ele>280.8</ele><time>2026-05-04T16:15:39Z</time></trkpt><trkpt lat="41.291402532996095" lon="1.3750526510461163"><ele>280.6</ele><time>2026-05-04T16:15:40Z</time></trkpt><trkpt lat="41.291426028162434" lon="1.3751872239386471"><ele>280.4</ele><time>2026-05-04T16:15:41Z</time></trkpt><trkpt lat="41.29144873275237" lon="1.3753225912709446"><ele>280.2</ele><time>2026-05-04T16:15:42Z</time></trkpt><trkpt lat="41.29147198655372" lon="1.3754583795477735"><ele>280.0</ele><time>2026-05-04T16:15:43Z</time></trkpt><trkpt lat="41.29149642417557" lon="1.3755931961065144"><ele>281.6</ele><time>2026-05-04T16:15:44Z</time></trkpt><trkpt lat="41.291521157978394" lon="1.375728182726392"><ele>283.2</ele><time>2026-05-04T16:15:45Z</time></trkpt><trkpt lat="41.29154550791184" lon="1.3758631876308094"><ele>284.8</ele><time>2026-05-04T16:15:46Z</time></trkpt><trkpt lat="41.29157374794341" lon="1.3759981985734746"><ele>286.4</ele><time>2026-05-04T16:15:47Z</time></trkpt><trkpt lat="41.291597063340035" lon="1.3761357688763969"><ele>288.0</ele><time>2026-05-04T16:15:48Z</time></trkpt><trkpt lat="41.29161943146716" lon="1.376273732779421"><ele>287.8</ele><time>2026-05-04T16:15:49Z</time></trkpt><trkpt lat="41.29164553707728" lon="1.376409958053979"><ele>287.6</ele><time>2026-05-04T16:15:50Z</time></trkpt><trkpt lat="41.29166915844381" lon="1.3765475342577778"><ele>287.4</ele><time>2026-05-04T16:15:51Z</time></trkpt><trkpt lat="41.291691309851686" lon="1.3766845656145827"><ele>287.2</ele><time>2026-05-04T16:15:52Z</time></trkpt><trkpt lat="41.291712454762916" lon="1.3768234517394187"><ele>287.0</ele><time>2026-05-04T16:15:53Z</time></trkpt><trkpt lat="41.291732943036436" lon="1.376963224765292"><ele>287.0</ele><time>2026-05-04T16:15:54Z</time></trkpt><trkpt lat="41.29175419334461" lon="1.3771026340471757"><ele>287.0</ele><time>2026-05-04T16:15:55Z</time></trkpt><trkpt lat="41.291770272247184" lon="1.3772406643983315"><ele>287.0</ele><time>2026-05-04T16:15:56Z</time></trkpt><trkpt lat="41.29178017663023" lon="1.3773801076843246"><ele>287.0</ele><time>2026-05-04T16:15:57Z</time></trkpt><trkpt lat="41.29179134718713" lon="1.3775208346556662"><ele>287.0</ele><time>2026-05-04T16:15:58Z</time></trkpt><trkpt lat="41.291799826584075" lon="1.377660496109343"><ele>287.0</ele><time>2026-05-04T16:15:59Z</time></trkpt><trkpt lat="41.29180530727224" lon="1.3777997690235595"><ele>287.0</ele><time>2026-05-04T16:16:00Z</time></trkpt><trkpt lat="41.291808020145915" lon="1.3779388106085093"><ele>287.0</ele><time>2026-05-04T16:16:01Z</time></trkpt><trkpt lat="41.29180788579224" lon="1.3780779083271029"><ele>287.0</ele><time>2026-05-04T16:16:02Z</time></trkpt><trkpt lat="41.291804375592115" lon="1.3782164924604423"><ele>287.0</ele><time>2026-05-04T16:16:03Z</time></trkpt><trkpt lat="41.29179666700348" lon="1.378354042388317"><ele>287.0</ele><time>2026-05-04T16:16:04Z</time></trkpt><trkpt lat="41.2917855207657" lon="1.3784904718098583"><ele>287.0</ele><time>2026-05-04T16:16:05Z</time></trkpt><trkpt lat="41.291771679581316" lon="1.3786254397566877"><ele>287.0</ele><time>2026-05-04T16:16:06Z</time></trkpt><trkpt lat="41.29175304386013" lon="1.3787597603808959"><ele>287.0</ele><time>2026-05-04T16:16:07Z</time></trkpt><trkpt lat="41.29173230269614" lon="1.3788935606286432"><ele>287.0</ele><time>2026-05-04T16:16:08Z</time></trkpt><trkpt lat="41.291708886631525" lon="1.3790265525573087"><ele>286.8</ele><time>2026-05-04T16:16:09Z</time></trkpt><trkpt lat="41.29168128498516" lon="1.3791581128590522"><ele>286.6</ele><time>2026-05-04T16:16:10Z</time></trkpt><trkpt lat="41.29165023628482" lon="1.379286344998029"><ele>286.40000000000003</ele><time>2026-05-04T16:16:11Z</time></trkpt><trkpt lat="41.29161707284246" lon="1.379413857401937"><ele>286.2</ele><time>2026-05-04T16:16:12Z</time></trkpt><trkpt lat="41.2915828492132" lon="1.3795379326949435"><ele>286.0</ele><time>2026-05-04T16:16:13Z</time></trkpt><trkpt lat="41.29154768044905" lon="1.3796601403047137"><ele>286.6</ele><time>2026-05-04T16:16:14Z</time></trkpt><trkpt lat="41.291514033498224" lon="1.3797798406538992"><ele>287.20000000000005</ele><time>2026-05-04T16:16:15Z</time></trkpt><trkpt lat="41.29147801589191" lon="1.3799019717861392"><ele>287.79999999999995</ele><time>2026-05-04T16:16:16Z</time></trkpt><trkpt lat="41.29144365084587" lon="1.3800222978867154"><ele>288.4</ele><time>2026-05-04T16:16:17Z</time></trkpt><trkpt lat="41.29140808372574" lon="1.380143127740098"><ele>289.0</ele><time>2026-05-04T16:16:18Z</time></trkpt><trkpt lat="41.291370100669035" lon="1.3802642003940295"><ele>289.59999999999997</ele><time>2026-05-04T16:16:19Z</time></trkpt><trkpt lat="41.29133103374852" lon="1.3803856921079756"><ele>290.2</ele><time>2026-05-04T16:16:20Z</time></trkpt><trkpt lat="41.291292624391154" lon="1.380505598813187"><ele>290.79999999999995</ele><time>2026-05-04T16:16:21Z</time></trkpt><trkpt lat="41.291256517152874" lon="1.3806254635912534"><ele>291.4</ele><time>2026-05-04T16:16:22Z</time></trkpt><trkpt lat="41.29121982420051" lon="1.3807464600895711"><ele>292.0</ele><time>2026-05-04T16:16:23Z</time></trkpt><trkpt lat="41.29118449397988" lon="1.380867843926757"><ele>292.8</ele><time>2026-05-04T16:16:24Z</time></trkpt><trkpt lat="41.291148986515196" lon="1.3809888810017381"><ele>293.6</ele><time>2026-05-04T16:16:25Z</time></trkpt><trkpt lat="41.29111399770546" lon="1.3811097232403955"><ele>294.40000000000003</ele><time>2026-05-04T16:16:26Z</time></trkpt><trkpt lat="41.291077500755726" lon="1.3812320876055595"><ele>295.2</ele><time>2026-05-04T16:16:27Z</time></trkpt><trkpt lat="41.291038599676426" lon="1.3813521360067569"><ele>296.0</ele><time>2026-05-04T16:16:28Z</time></trkpt><trkpt lat="41.29100169627906" lon="1.3814714125110474"><ele>297.0</ele><time>2026-05-04T16:16:29Z</time></trkpt><trkpt lat="41.29096639833281" lon="1.3815920433765432"><ele>298.0</ele><time>2026-05-04T16:16:30Z</time></trkpt><trkpt lat="41.2909327366216" lon="1.3817143329662436"><ele>299.0</ele><time>2026-05-04T16:16:31Z</time></trkpt><trkpt lat="41.290898722722325" lon="1.3818348756308325"><ele>300.0</ele><time>2026-05-04T16:16:32Z</time></trkpt><trkpt lat="41.29086331593546" lon="1.3819560155175616"><ele>301.0</ele><time>2026-05-04T16:16:33Z</time></trkpt><trkpt lat="41.29082627431815" lon="1.3820772467818199"><ele>301.8</ele><time>2026-05-04T16:16:34.001Z</time></trkpt><trkpt lat="41.29078959115845" lon="1.3821993338921834"><ele>302.6</ele><time>2026-05-04T16:16:35.001Z</time></trkpt><trkpt lat="41.290753391892316" lon="1.3823209154629976"><ele>303.4</ele><time>2026-05-04T16:16:36.001Z</time></trkpt><trkpt lat="41.290717626903806" lon="1.3824407502825256"><ele>304.2</ele><time>2026-05-04T16:16:37.001Z</time></trkpt><trkpt lat="41.290680833216605" lon="1.3825602545354956"><ele>305.0</ele><time>2026-05-04T16:16:38.001Z</time></trkpt><trkpt lat="41.29064399038163" lon="1.3826805358309304"><ele>305.0</ele><time>2026-05-04T16:16:39.001Z</time></trkpt><trkpt lat="41.290607221969445" lon="1.3828024890644883"><ele>305.0</ele><time>2026-05-04T16:16:40.001Z</time></trkpt><trkpt lat="41.29057089026294" lon="1.3829235881087358"><ele>305.0</ele><time>2026-05-04T16:16:41.001Z</time></trkpt><trkpt lat="41.29053528220945" lon="1.3830452934489237"><ele>305.0</ele><time>2026-05-04T16:16:42.001Z</time></trkpt><trkpt lat="41.290501391908045" lon="1.3831687614856043"><ele>305.0</ele><time>2026-05-04T16:16:43.001Z</time></trkpt><trkpt lat="41.29046651918073" lon="1.3832927326147644"><ele>305.8</ele><time>2026-05-04T16:16:44.001Z</time></trkpt><trkpt lat="41.29043038398552" lon="1.3834162885192656"><ele>306.6</ele><time>2026-05-04T16:16:45.001Z</time></trkpt><trkpt lat="41.290392556090765" lon="1.3835401768326119"><ele>307.4</ele><time>2026-05-04T16:16:46.001Z</time></trkpt><trkpt lat="41.29035608990025" lon="1.3836659378264105"><ele>308.2</ele><time>2026-05-04T16:16:47.001Z</time></trkpt><trkpt lat="41.290317019040266" lon="1.3837916074592862"><ele>309.0</ele><time>2026-05-04T16:16:48.001Z</time></trkpt><trkpt lat="41.290280881887846" lon="1.3839183019944132"><ele>309.0</ele><time>2026-05-04T16:16:49.001Z</time></trkpt><trkpt lat="41.29024271550203" lon="1.3840448755553956"><ele>309.0</ele><time>2026-05-04T16:16:50.001Z</time></trkpt><trkpt lat="41.29020075422135" lon="1.3841712932655115"><ele>309.0</ele><time>2026-05-04T16:16:51.001Z</time></trkpt><trkpt lat="41.29016065001833" lon="1.3843004359706979"><ele>309.0</ele><time>2026-05-04T16:16:52.001Z</time></trkpt><trkpt lat="41.290120460561376" lon="1.3844315244252587"><ele>309.0</ele><time>2026-05-04T16:16:53.001Z</time></trkpt><trkpt lat="41.29008095636151" lon="1.384563738184894"><ele>309.4</ele><time>2026-05-04T16:16:54.001Z</time></trkpt><trkpt lat="41.29004347736965" lon="1.3846979219298123"><ele>309.79999999999995</ele><time>2026-05-04T16:16:55.001Z</time></trkpt><trkpt lat="41.290006753030056" lon="1.3848314343001198"><ele>310.20000000000005</ele><time>2026-05-04T16:16:56.001Z</time></trkpt><trkpt lat="41.28996780819815" lon="1.384963672653231"><ele>310.6</ele><time>2026-05-04T16:16:57.001Z</time></trkpt><trkpt lat="41.28992622313629" lon="1.3850960317323584"><ele>311.0</ele><time>2026-05-04T16:16:58.001Z</time></trkpt><trkpt lat="41.28988645642747" lon="1.3852283748372014"><ele>311.0</ele><time>2026-05-04T16:16:59.001Z</time></trkpt><trkpt lat="41.28984772928807" lon="1.3853616351728044"><ele>311.0</ele><time>2026-05-04T16:17:00.001Z</time></trkpt><trkpt lat="41.28980734306411" lon="1.385496080639595"><ele>311.0</ele><time>2026-05-04T16:17:01.001Z</time></trkpt><trkpt lat="41.2897660969923" lon="1.3856293221361278"><ele>311.0</ele><time>2026-05-04T16:17:02.001Z</time></trkpt><trkpt lat="41.289726419139484" lon="1.3857631121960556"><ele>311.0</ele><time>2026-05-04T16:17:03.001Z</time></trkpt><trkpt lat="41.28968815751085" lon="1.3858970932387236"><ele>310.40000000000003</ele><time>2026-05-04T16:17:04.001Z</time></trkpt><trkpt lat="41.2896476107132" lon="1.386030660089708"><ele>309.8</ele><time>2026-05-04T16:17:05.001Z</time></trkpt><trkpt lat="41.289607169303494" lon="1.3861635833959438"><ele>309.20000000000005</ele><time>2026-05-04T16:17:06.001Z</time></trkpt><trkpt lat="41.2895663962646" lon="1.3862972937152969"><ele>308.6</ele><time>2026-05-04T16:17:07.001Z</time></trkpt><trkpt lat="41.28952632066978" lon="1.3864319283314646"><ele>308.0</ele><time>2026-05-04T16:17:08.001Z</time></trkpt><trkpt lat="41.28948826612931" lon="1.3865666129108165"><ele>307.8</ele><time>2026-05-04T16:17:09.001Z</time></trkpt><trkpt lat="41.28945110322325" lon="1.3867009142148117"><ele>307.6</ele><time>2026-05-04T16:17:10.001Z</time></trkpt><trkpt lat="41.28941167872043" lon="1.386834877693526"><ele>307.4</ele><time>2026-05-04T16:17:11.001Z</time></trkpt><trkpt lat="41.28937228788451" lon="1.3869682965412287"><ele>307.2</ele><time>2026-05-04T16:17:12.001Z</time></trkpt><trkpt lat="41.28933254191202" lon="1.3871020578274245"><ele>307.0</ele><time>2026-05-04T16:17:13.001Z</time></trkpt><trkpt lat="41.28929183193993" lon="1.387235129125771"><ele>307.6</ele><time>2026-05-04T16:17:14.001Z</time></trkpt><trkpt lat="41.2892510810542" lon="1.3873689316871105"><ele>308.2</ele><time>2026-05-04T16:17:15.001Z</time></trkpt><trkpt lat="41.2892129720218" lon="1.3875022290758696"><ele>308.8</ele><time>2026-05-04T16:17:16.001Z</time></trkpt><trkpt lat="41.289173398125" lon="1.3876370286448476"><ele>309.4</ele><time>2026-05-04T16:17:17.001Z</time></trkpt><trkpt lat="41.289134154184254" lon="1.387771083672001"><ele>310.0</ele><time>2026-05-04T16:17:18.001Z</time></trkpt><trkpt lat="41.289092919820185" lon="1.3879050641568913"><ele>309.4</ele><time>2026-05-04T16:17:19.001Z</time></trkpt><trkpt lat="41.28905224585546" lon="1.3880382104639886"><ele>308.8</ele><time>2026-05-04T16:17:20.001Z</time></trkpt><trkpt lat="41.28901171212056" lon="1.388171843500703"><ele>308.2</ele><time>2026-05-04T16:17:21.001Z</time></trkpt><trkpt lat="41.28897426692495" lon="1.3883048237347186"><ele>307.6</ele><time>2026-05-04T16:17:22.001Z</time></trkpt><trkpt lat="41.28893587859271" lon="1.3884390167200835"><ele>307.0</ele><time>2026-05-04T16:17:23.001Z</time></trkpt><trkpt lat="41.2888955626792" lon="1.3885735964616144"><ele>307.0</ele><time>2026-05-04T16:17:24.001Z</time></trkpt><trkpt lat="41.28885644415858" lon="1.38870760166101"><ele>307.0</ele><time>2026-05-04T16:17:25.001Z</time></trkpt><trkpt lat="41.288818513996425" lon="1.388843002269023"><ele>307.0</ele><time>2026-05-04T16:17:26.001Z</time></trkpt><trkpt lat="41.288780658932666" lon="1.388976787561109"><ele>307.0</ele><time>2026-05-04T16:17:27.001Z</time></trkpt><trkpt lat="41.288744778417076" lon="1.389111321109855"><ele>307.0</ele><time>2026-05-04T16:17:28.001Z</time></trkpt><trkpt lat="41.28870991477731" lon="1.3892457802874194"><ele>307.6</ele><time>2026-05-04T16:17:29.001Z</time></trkpt><trkpt lat="41.28867480703963" lon="1.3893808361169566"><ele>308.2</ele><time>2026-05-04T16:17:30.001Z</time></trkpt><trkpt lat="41.28863713121135" lon="1.3895148104680477"><ele>308.8</ele><time>2026-05-04T16:17:31.001Z</time></trkpt><trkpt lat="41.28859878916576" lon="1.389648215012314"><ele>309.4</ele><time>2026-05-04T16:17:32.001Z</time></trkpt><trkpt lat="41.28856167167333" lon="1.3897815848858739"><ele>310.0</ele><time>2026-05-04T16:17:33.001Z</time></trkpt><trkpt lat="41.28852570818194" lon="1.389913642756773"><ele>310.4</ele><time>2026-05-04T16:17:34.001Z</time></trkpt><trkpt lat="41.2884897447741" lon="1.3900478447535487"><ele>310.8</ele><time>2026-05-04T16:17:35Z</time></trkpt><trkpt lat="41.28845166614348" lon="1.3901804001525506"><ele>311.2</ele><time>2026-05-04T16:17:36Z</time></trkpt><trkpt lat="41.28841275694957" lon="1.3903122336701166"><ele>311.6</ele><time>2026-05-04T16:17:37Z</time></trkpt><trkpt lat="41.28837270937702" lon="1.3904439024069366"><ele>312.0</ele><time>2026-05-04T16:17:38Z</time></trkpt><trkpt lat="41.288332676860215" lon="1.3905747186183717"><ele>312.2</ele><time>2026-05-04T16:17:39Z</time></trkpt><trkpt lat="41.288293280895694" lon="1.3907067235805723"><ele>312.4</ele><time>2026-05-04T16:17:40Z</time></trkpt><trkpt lat="41.28825580958853" lon="1.3908369517749364"><ele>312.6</ele><time>2026-05-04T16:17:41Z</time></trkpt><trkpt lat="41.28821606638762" lon="1.390966650353495"><ele>312.8</ele><time>2026-05-04T16:17:42Z</time></trkpt><trkpt lat="41.28817572177154" lon="1.3910959984902644"><ele>313.0</ele><time>2026-05-04T16:17:43Z</time></trkpt><trkpt lat="41.288135408294586" lon="1.3912264009005684"><ele>312.8</ele><time>2026-05-04T16:17:44Z</time></trkpt><trkpt lat="41.28809622062842" lon="1.3913569376323645"><ele>312.6</ele><time>2026-05-04T16:17:45Z</time></trkpt><trkpt lat="41.28805629822265" lon="1.3914887989023437"><ele>312.4</ele><time>2026-05-04T16:17:46Z</time></trkpt><trkpt lat="41.28801627085013" lon="1.3916218080063618"><ele>312.2</ele><time>2026-05-04T16:17:47Z</time></trkpt><trkpt lat="41.287976594824976" lon="1.3917546088758512"><ele>312.0</ele><time>2026-05-04T16:17:48Z</time></trkpt><trkpt lat="41.28793787562818" lon="1.3918862494380129"><ele>311.4</ele><time>2026-05-04T16:17:49Z</time></trkpt><trkpt lat="41.28789934396653" lon="1.3920197484303174"><ele>310.79999999999995</ele><time>2026-05-04T16:17:50Z</time></trkpt><trkpt lat="41.287858690247816" lon="1.3921519186651774"><ele>310.2</ele><time>2026-05-04T16:17:51Z</time></trkpt><trkpt lat="41.28782028705072" lon="1.3922835845293284"><ele>309.59999999999997</ele><time>2026-05-04T16:17:52Z</time></trkpt><trkpt lat="41.287781275914185" lon="1.392415995087748"><ele>309.0</ele><time>2026-05-04T16:17:53Z</time></trkpt><trkpt lat="41.2877425092173" lon="1.392548168744328"><ele>309.0</ele><time>2026-05-04T16:17:54Z</time></trkpt><trkpt lat="41.28770336127246" lon="1.3926791679867478"><ele>309.0</ele><time>2026-05-04T16:17:55Z</time></trkpt><trkpt lat="41.287665554596835" lon="1.3928101201126986"><ele>309.0</ele><time>2026-05-04T16:17:56Z</time></trkpt><trkpt lat="41.28762789857868" lon="1.392940277171219"><ele>309.0</ele><time>2026-05-04T16:17:57Z</time></trkpt><trkpt lat="41.28759007350015" lon="1.3930721637050791"><ele>309.0</ele><time>2026-05-04T16:17:58Z</time></trkpt><trkpt lat="41.28755088780557" lon="1.3932044831982384"><ele>309.59999999999997</ele><time>2026-05-04T16:17:59Z</time></trkpt><trkpt lat="41.28751248577338" lon="1.3933361262800292"><ele>310.2</ele><time>2026-05-04T16:18:00Z</time></trkpt><trkpt lat="41.287472626684036" lon="1.3934691816343743"><ele>310.79999999999995</ele><time>2026-05-04T16:18:01Z</time></trkpt><trkpt lat="41.28743255022926" lon="1.3936008155616244"><ele>311.4</ele><time>2026-05-04T16:18:02Z</time></trkpt><trkpt lat="41.28739263061928" lon="1.393733669789009"><ele>312.0</ele><time>2026-05-04T16:18:03Z</time></trkpt><trkpt lat="41.287352627581264" lon="1.3938661466210167"><ele>312.6</ele><time>2026-05-04T16:18:04Z</time></trkpt><trkpt lat="41.287312935784236" lon="1.3939991050489313"><ele>313.2</ele><time>2026-05-04T16:18:05Z</time></trkpt><trkpt lat="41.287273327984764" lon="1.3941315973677881"><ele>313.8</ele><time>2026-05-04T16:18:06Z</time></trkpt><trkpt lat="41.28723462823975" lon="1.3942632529162717"><ele>314.4</ele><time>2026-05-04T16:18:07Z</time></trkpt><trkpt lat="41.287196252499086" lon="1.3943954158974103"><ele>315.0</ele><time>2026-05-04T16:18:08Z</time></trkpt><trkpt lat="41.28715593953731" lon="1.3945279448863466"><ele>315.0</ele><time>2026-05-04T16:18:09Z</time></trkpt><trkpt lat="41.28711462431686" lon="1.3946599416255314"><ele>315.0</ele><time>2026-05-04T16:18:10Z</time></trkpt><trkpt lat="41.28707563564436" lon="1.394791417302445"><ele>315.0</ele><time>2026-05-04T16:18:11Z</time></trkpt><trkpt lat="41.28703569519071" lon="1.394923209239728"><ele>315.0</ele><time>2026-05-04T16:18:12Z</time></trkpt><trkpt lat="41.28699575337982" lon="1.3950540467176313"><ele>315.0</ele><time>2026-05-04T16:18:13Z</time></trkpt><trkpt lat="41.28695669580561" lon="1.395186750083056"><ele>315.4</ele><time>2026-05-04T16:18:14Z</time></trkpt><trkpt lat="41.28691837296444" lon="1.3953186836275278"><ele>315.8</ele><time>2026-05-04T16:18:15Z</time></trkpt><trkpt lat="41.286880522042" lon="1.3954497713668677"><ele>316.2</ele><time>2026-05-04T16:18:16Z</time></trkpt><trkpt lat="41.286841411798555" lon="1.3955798487948878"><ele>316.6</ele><time>2026-05-04T16:18:17Z</time></trkpt><trkpt lat="41.286802148990525" lon="1.3957094534508052"><ele>317.0</ele><time>2026-05-04T16:18:18Z</time></trkpt><trkpt lat="41.28676309133834" lon="1.3958380083567248"><ele>317.4</ele><time>2026-05-04T16:18:19Z</time></trkpt><trkpt lat="41.28672543129868" lon="1.3959683452214917"><ele>317.79999999999995</ele><time>2026-05-04T16:18:20Z</time></trkpt><trkpt lat="41.28668815978015" lon="1.3960982423686124"><ele>318.2</ele><time>2026-05-04T16:18:21Z</time></trkpt><trkpt lat="41.28665030245574" lon="1.39622683434164"><ele>318.59999999999997</ele><time>2026-05-04T16:18:22Z</time></trkpt><trkpt lat="41.2866116079084" lon="1.3963559943671247"><ele>319.0</ele><time>2026-05-04T16:18:23Z</time></trkpt><trkpt lat="41.2865733441672" lon="1.3964850087104783"><ele>318.8</ele><time>2026-05-04T16:18:24Z</time></trkpt><trkpt lat="41.286536334500894" lon="1.3966152041647009"><ele>318.59999999999997</ele><time>2026-05-04T16:18:25Z</time></trkpt><trkpt lat="41.2864967770368" lon="1.396746144015851"><ele>318.4</ele><time>2026-05-04T16:18:26Z</time></trkpt><trkpt lat="41.2864568145358" lon="1.3968760990033582"><ele>318.2</ele><time>2026-05-04T16:18:27Z</time></trkpt><trkpt lat="41.286417668522624" lon="1.3970062375956263"><ele>318.0</ele><time>2026-05-04T16:18:28Z</time></trkpt><trkpt lat="41.28637811708404" lon="1.3971378572936124"><ele>318.2</ele><time>2026-05-04T16:18:29Z</time></trkpt><trkpt lat="41.28633890733165" lon="1.397268086010509"><ele>318.4</ele><time>2026-05-04T16:18:30Z</time></trkpt><trkpt lat="41.2863018796699" lon="1.3973988539789077"><ele>318.59999999999997</ele><time>2026-05-04T16:18:31Z</time></trkpt><trkpt lat="41.28626319259017" lon="1.3975284001685977"><ele>318.8</ele><time>2026-05-04T16:18:32Z</time></trkpt><trkpt lat="41.28622562112654" lon="1.3976568671770355"><ele>319.0</ele><time>2026-05-04T16:18:33Z</time></trkpt><trkpt lat="41.286187994499684" lon="1.3977869687228925"><ele>319.0</ele><time>2026-05-04T16:18:34Z</time></trkpt><trkpt lat="41.286150148284285" lon="1.3979121792278144"><ele>319.0</ele><time>2026-05-04T16:18:35Z</time></trkpt><trkpt lat="41.286111964113275" lon="1.3980293519625133"><ele>319.0</ele><time>2026-05-04T16:18:36.001Z</time></trkpt><trkpt lat="41.2860728000235" lon="1.3981405676155472"><ele>319.0</ele><time>2026-05-04T16:18:37.001Z</time></trkpt><trkpt lat="41.2860196200983" lon="1.398237567272342"><ele>319.0</ele><time>2026-05-04T16:18:38.001Z</time></trkpt><trkpt lat="41.2859507879358" lon="1.398317121180171"><ele>319.2</ele><time>2026-05-04T16:18:39.001Z</time></trkpt><trkpt lat="41.28587278710319" lon="1.3983805259947286"><ele>319.4</ele><time>2026-05-04T16:18:40.001Z</time></trkpt><trkpt lat="41.285794523303004" lon="1.3984414644321868"><ele>319.6</ele><time>2026-05-04T16:18:41.001Z</time></trkpt><trkpt lat="41.285725193464636" lon="1.3985217556835985"><ele>319.8</ele><time>2026-05-04T16:18:42.001Z</time></trkpt><trkpt lat="41.28567603377817" lon="1.3986259587097776"><ele>320.0</ele><time>2026-05-04T16:18:43.001Z</time></trkpt><trkpt lat="41.2856487332722" lon="1.3987475631612045"><ele>321.0</ele><time>2026-05-04T16:18:44.001Z</time></trkpt><trkpt lat="41.285638963613216" lon="1.3988774253302185"><ele>322.0</ele><time>2026-05-04T16:18:45.001Z</time></trkpt><trkpt lat="41.28563953640596" lon="1.3990093000994708"><ele>323.0</ele><time>2026-05-04T16:18:46.001Z</time></trkpt><trkpt lat="41.285651045265375" lon="1.3991434469765316"><ele>324.0</ele><time>2026-05-04T16:18:47.001Z</time></trkpt><trkpt lat="41.285661212465776" lon="1.399278045984458"><ele>325.0</ele><time>2026-05-04T16:18:48.001Z</time></trkpt><trkpt lat="41.28565327691742" lon="1.39941691237208"><ele>325.0</ele><time>2026-05-04T16:18:49.001Z</time></trkpt><trkpt lat="41.28562992730399" lon="1.399554431507541"><ele>325.0</ele><time>2026-05-04T16:18:50.001Z</time></trkpt><trkpt lat="41.28559505303459" lon="1.3996880369513494"><ele>325.0</ele><time>2026-05-04T16:18:51.001Z</time></trkpt><trkpt lat="41.28555266204278" lon="1.3998150582078202"><ele>325.0</ele><time>2026-05-04T16:18:52.001Z</time></trkpt><trkpt lat="41.28550811637141" lon="1.3999420365804525"><ele>325.0</ele><time>2026-05-04T16:18:53.001Z</time></trkpt><trkpt lat="41.28546841885732" lon="1.4000709824354987"><ele>324.8</ele><time>2026-05-04T16:18:54.001Z</time></trkpt><trkpt lat="41.28543233028765" lon="1.4002019251079343"><ele>324.6</ele><time>2026-05-04T16:18:55.001Z</time></trkpt><trkpt lat="41.28539421132933" lon="1.4003309328342686"><ele>324.4</ele><time>2026-05-04T16:18:56.001Z</time></trkpt><trkpt lat="41.28535379017781" lon="1.4004601618862054"><ele>324.2</ele><time>2026-05-04T16:18:57.001Z</time></trkpt><trkpt lat="41.28531676756018" lon="1.4005908983164121"><ele>324.0</ele><time>2026-05-04T16:18:58.001Z</time></trkpt><trkpt lat="41.28527642355567" lon="1.4007207192917988"><ele>324.4</ele><time>2026-05-04T16:18:59.001Z</time></trkpt><trkpt lat="41.28523859272367" lon="1.4008513475938884"><ele>324.79999999999995</ele><time>2026-05-04T16:19:00.001Z</time></trkpt><trkpt lat="41.2852003429378" lon="1.4009827158790253"><ele>325.20000000000005</ele><time>2026-05-04T16:19:01.001Z</time></trkpt><trkpt lat="41.28516149701915" lon="1.4011130085261352"><ele>325.6</ele><time>2026-05-04T16:19:02.001Z</time></trkpt><trkpt lat="41.28512374833877" lon="1.4012432039921985"><ele>326.0</ele><time>2026-05-04T16:19:03.001Z</time></trkpt><trkpt lat="41.285086623497804" lon="1.401373923294862"><ele>326.0</ele><time>2026-05-04T16:19:04.001Z</time></trkpt><trkpt lat="41.28504767265285" lon="1.4015029569125825"><ele>326.0</ele><time>2026-05-04T16:19:05.001Z</time></trkpt><trkpt lat="41.285008718619125" lon="1.4016318314019587"><ele>326.0</ele><time>2026-05-04T16:19:06.001Z</time></trkpt><trkpt lat="41.284970244571184" lon="1.4017624750018727"><ele>326.0</ele><time>2026-05-04T16:19:07.001Z</time></trkpt><trkpt lat="41.28493214751505" lon="1.4018927737155493"><ele>326.0</ele><time>2026-05-04T16:19:08.001Z</time></trkpt><trkpt lat="41.28489341837387" lon="1.402024154471422"><ele>326.0</ele><time>2026-05-04T16:19:09.001Z</time></trkpt><trkpt lat="41.28485570196753" lon="1.4021541734291878"><ele>326.0</ele><time>2026-05-04T16:19:10.001Z</time></trkpt><trkpt lat="41.284817264570314" lon="1.4022849858615023"><ele>326.0</ele><time>2026-05-04T16:19:11.001Z</time></trkpt><trkpt lat="41.2847776394027" lon="1.4024157820791006"><ele>326.0</ele><time>2026-05-04T16:19:12.001Z</time></trkpt><trkpt lat="41.2847374360739" lon="1.4025480589785755"><ele>326.0</ele><time>2026-05-04T16:19:13.001Z</time></trkpt><trkpt lat="41.28469597364336" lon="1.402681236981097"><ele>325.6</ele><time>2026-05-04T16:19:14.001Z</time></trkpt><trkpt lat="41.284655857396615" lon="1.4028129861145966"><ele>325.20000000000005</ele><time>2026-05-04T16:19:15.001Z</time></trkpt><trkpt lat="41.284615879600935" lon="1.4029462103815913"><ele>324.79999999999995</ele><time>2026-05-04T16:19:16.001Z</time></trkpt><trkpt lat="41.28457573717748" lon="1.4030786651169134"><ele>324.4</ele><time>2026-05-04T16:19:17.001Z</time></trkpt><trkpt lat="41.284536189136155" lon="1.4032111479993126"><ele>324.0</ele><time>2026-05-04T16:19:18.001Z</time></trkpt><trkpt lat="41.284499121355644" lon="1.4033454099542302"><ele>324.0</ele><time>2026-05-04T16:19:19.001Z</time></trkpt><trkpt lat="41.284460725866616" lon="1.4034768067499581"><ele>324.0</ele><time>2026-05-04T16:19:20.001Z</time></trkpt><trkpt lat="41.28442100172486" lon="1.403608280499654"><ele>324.0</ele><time>2026-05-04T16:19:21.001Z</time></trkpt><trkpt lat="41.28438136360365" lon="1.4037401149223054"><ele>324.0</ele><time>2026-05-04T16:19:22.001Z</time></trkpt><trkpt lat="41.284342420168706" lon="1.4038736924113078"><ele>324.0</ele><time>2026-05-04T16:19:23.001Z</time></trkpt><trkpt lat="41.284301984501305" lon="1.4040072043125331"><ele>323.2</ele><time>2026-05-04T16:19:24.001Z</time></trkpt><trkpt lat="41.2842618575674" lon="1.404140759849668"><ele>322.4</ele><time>2026-05-04T16:19:25.001Z</time></trkpt><trkpt lat="41.28422237877572" lon="1.404275635161067"><ele>321.6</ele><time>2026-05-04T16:19:26.001Z</time></trkpt><trkpt lat="41.28418336471999" lon="1.4044102527474494"><ele>320.8</ele><time>2026-05-04T16:19:27.001Z</time></trkpt><trkpt lat="41.2841427442583" lon="1.4045444901054518"><ele>320.0</ele><time>2026-05-04T16:19:28.001Z</time></trkpt><trkpt lat="41.28410142217153" lon="1.4046783721302882"><ele>319.6</ele><time>2026-05-04T16:19:29.001Z</time></trkpt><trkpt lat="41.28406215265908" lon="1.4048148251213726"><ele>319.2</ele><time>2026-05-04T16:19:30.001Z</time></trkpt><trkpt lat="41.284022148350815" lon="1.4049491340853715"><ele>318.8</ele><time>2026-05-04T16:19:31.001Z</time></trkpt><trkpt lat="41.283979862234126" lon="1.4050829266163964"><ele>318.4</ele><time>2026-05-04T16:19:32.001Z</time></trkpt><trkpt lat="41.28393927424547" lon="1.405218531822085"><ele>318.0</ele><time>2026-05-04T16:19:33.001Z</time></trkpt><trkpt lat="41.2838983693458" lon="1.4053534381354562"><ele>317.8</ele><time>2026-05-04T16:19:34.001Z</time></trkpt><trkpt lat="41.28385874933788" lon="1.4054910120005215"><ele>317.6</ele><time>2026-05-04T16:19:35.001Z</time></trkpt><trkpt lat="41.28381730668006" lon="1.4056275910336289"><ele>317.4</ele><time>2026-05-04T16:19:36.001Z</time></trkpt><trkpt lat="41.28377785551178" lon="1.405764203603026"><ele>317.2</ele><time>2026-05-04T16:19:37.001Z</time></trkpt><trkpt lat="41.283737713331895" lon="1.4059014398401568"><ele>317.0</ele><time>2026-05-04T16:19:38.001Z</time></trkpt><trkpt lat="41.283696395669" lon="1.406037855350859"><ele>316.2</ele><time>2026-05-04T16:19:39.001Z</time></trkpt><trkpt lat="41.28365420628659" lon="1.4061732109626512"><ele>315.4</ele><time>2026-05-04T16:19:40.001Z</time></trkpt><trkpt lat="41.283614323475675" lon="1.4063097917873062"><ele>314.6</ele><time>2026-05-04T16:19:41Z</time></trkpt><trkpt lat="41.28357397562189" lon="1.4064461670782362"><ele>313.8</ele><time>2026-05-04T16:19:42Z</time></trkpt><trkpt lat="41.28353387251485" lon="1.4065838329419291"><ele>313.0</ele><time>2026-05-04T16:19:43Z</time></trkpt><trkpt lat="41.28349344872126" lon="1.4067202362145566"><ele>312.8</ele><time>2026-05-04T16:19:44Z</time></trkpt><trkpt lat="41.28345438328209" lon="1.4068566966510827"><ele>312.6</ele><time>2026-05-04T16:19:45Z</time></trkpt><trkpt lat="41.28341395924977" lon="1.4069927024404794"><ele>312.4</ele><time>2026-05-04T16:19:46Z</time></trkpt><trkpt lat="41.28337413903607" lon="1.4071270139022993"><ele>312.2</ele><time>2026-05-04T16:19:47Z</time></trkpt><trkpt lat="41.283333400725944" lon="1.4072605351099323"><ele>312.0</ele><time>2026-05-04T16:19:48Z</time></trkpt><trkpt lat="41.283292821678295" lon="1.407394033614737"><ele>312.0</ele><time>2026-05-04T16:19:49Z</time></trkpt><trkpt lat="41.28325376752222" lon="1.4075278935232676"><ele>312.0</ele><time>2026-05-04T16:19:50Z</time></trkpt><trkpt lat="41.28321466985146" lon="1.4076616738740995"><ele>312.0</ele><time>2026-05-04T16:19:51Z</time></trkpt><trkpt lat="41.283175266745744" lon="1.407794721685422"><ele>312.0</ele><time>2026-05-04T16:19:52Z</time></trkpt><trkpt lat="41.28313815738389" lon="1.4079279671993892"><ele>312.0</ele><time>2026-05-04T16:19:53Z</time></trkpt><trkpt lat="41.28310099471151" lon="1.4080619917515778"><ele>311.2</ele><time>2026-05-04T16:19:54Z</time></trkpt><trkpt lat="41.283063695819656" lon="1.408195941424297"><ele>310.4</ele><time>2026-05-04T16:19:55Z</time></trkpt><trkpt lat="41.28302762342958" lon="1.408329498666525"><ele>309.6</ele><time>2026-05-04T16:19:56Z</time></trkpt><trkpt lat="41.28299393348663" lon="1.408464501726761"><ele>308.8</ele><time>2026-05-04T16:19:57Z</time></trkpt><trkpt lat="41.28296139004721" lon="1.4086008201771223"><ele>308.0</ele><time>2026-05-04T16:19:58Z</time></trkpt><trkpt lat="41.28292826973233" lon="1.4087376174898782"><ele>307.8</ele><time>2026-05-04T16:19:59Z</time></trkpt><trkpt lat="41.28289622693956" lon="1.4088752393013984"><ele>307.6</ele><time>2026-05-04T16:20:00Z</time></trkpt><trkpt lat="41.282865970355324" lon="1.40901402649297"><ele>307.4</ele><time>2026-05-04T16:20:01Z</time></trkpt><trkpt lat="41.28283738560318" lon="1.4091534129040628"><ele>307.2</ele><time>2026-05-04T16:20:02Z</time></trkpt><trkpt lat="41.282809411958056" lon="1.40929295197606"><ele>307.0</ele><time>2026-05-04T16:20:03Z</time></trkpt><trkpt lat="41.28278201768729" lon="1.4094287580089995"><ele>307.0</ele><time>2026-05-04T16:20:04Z</time></trkpt><trkpt lat="41.28275614929341" lon="1.4095635551735601"><ele>307.0</ele><time>2026-05-04T16:20:05Z</time></trkpt><trkpt lat="41.282731487015035" lon="1.4097010483194239"><ele>307.0</ele><time>2026-05-04T16:20:06Z</time></trkpt><trkpt lat="41.28270773216186" lon="1.4098379161844345"><ele>307.0</ele><time>2026-05-04T16:20:07Z</time></trkpt><trkpt lat="41.28268404151175" lon="1.4099760516451079"><ele>307.0</ele><time>2026-05-04T16:20:08Z</time></trkpt><trkpt lat="41.28266129515297" lon="1.4101145226904854"><ele>307.0</ele><time>2026-05-04T16:20:09Z</time></trkpt><trkpt lat="41.28263964283019" lon="1.410254661283855"><ele>307.0</ele><time>2026-05-04T16:20:10Z</time></trkpt><trkpt lat="41.282618828764925" lon="1.4103951162923734"><ele>307.0</ele><time>2026-05-04T16:20:11Z</time></trkpt><trkpt lat="41.28259970506683" lon="1.4105355375507096"><ele>307.0</ele><time>2026-05-04T16:20:12Z</time></trkpt><trkpt lat="41.28258226409512" lon="1.410676879990407"><ele>307.0</ele><time>2026-05-04T16:20:13Z</time></trkpt><trkpt lat="41.28256694757785" lon="1.4108184414083997"><ele>306.6</ele><time>2026-05-04T16:20:14Z</time></trkpt><trkpt lat="41.28255074602471" lon="1.410961106551259"><ele>306.2</ele><time>2026-05-04T16:20:15Z</time></trkpt><trkpt lat="41.28253482057349" lon="1.4111002056681254"><ele>305.8</ele><time>2026-05-04T16:20:16Z</time></trkpt><trkpt lat="41.28252019764477" lon="1.411239883112729"><ele>305.4</ele><time>2026-05-04T16:20:17Z</time></trkpt><trkpt lat="41.28250671138822" lon="1.4113812293361139"><ele>305.0</ele><time>2026-05-04T16:20:18Z</time></trkpt><trkpt lat="41.28249471936991" lon="1.411522837938018"><ele>305.0</ele><time>2026-05-04T16:20:19Z</time></trkpt><trkpt lat="41.282484366545766" lon="1.4116654968907931"><ele>305.0</ele><time>2026-05-04T16:20:20Z</time></trkpt><trkpt lat="41.28247404612503" lon="1.4118076081079158"><ele>305.0</ele><time>2026-05-04T16:20:21Z</time></trkpt><trkpt lat="41.282464283151114" lon="1.4119508204068818"><ele>305.0</ele><time>2026-05-04T16:20:22Z</time></trkpt><trkpt lat="41.28245685326308" lon="1.4120946049012701"><ele>305.0</ele><time>2026-05-04T16:20:23Z</time></trkpt><trkpt lat="41.28244925705771" lon="1.412239004794257"><ele>305.2</ele><time>2026-05-04T16:20:24Z</time></trkpt><trkpt lat="41.28244333855951" lon="1.4123834343442332"><ele>305.4</ele><time>2026-05-04T16:20:25Z</time></trkpt><trkpt lat="41.282438554712115" lon="1.4125288150821853"><ele>305.6</ele><time>2026-05-04T16:20:26Z</time></trkpt><trkpt lat="41.2824345458219" lon="1.4126739097025678"><ele>305.8</ele><time>2026-05-04T16:20:27Z</time></trkpt><trkpt lat="41.282432459445076" lon="1.4128185028300735"><ele>306.0</ele><time>2026-05-04T16:20:28Z</time></trkpt><trkpt lat="41.28243144681747" lon="1.4129645490717326"><ele>306.0</ele><time>2026-05-04T16:20:29Z</time></trkpt><trkpt lat="41.282432355931746" lon="1.4131105594892108"><ele>306.0</ele><time>2026-05-04T16:20:30Z</time></trkpt><trkpt lat="41.2824325678012" lon="1.4132546643774264"><ele>306.0</ele><time>2026-05-04T16:20:31Z</time></trkpt><trkpt lat="41.28243222553488" lon="1.4133984281172127"><ele>306.0</ele><time>2026-05-04T16:20:32Z</time></trkpt><trkpt lat="41.282435125432194" lon="1.4135407079370326"><ele>306.0</ele><time>2026-05-04T16:20:33.001Z</time></trkpt><trkpt lat="41.282439313699705" lon="1.413683239482913"><ele>305.6</ele><time>2026-05-04T16:20:34.001Z</time></trkpt><trkpt lat="41.28244303783454" lon="1.413824415367365"><ele>305.20000000000005</ele><time>2026-05-04T16:20:35.001Z</time></trkpt><trkpt lat="41.28244629579561" lon="1.4139673354220688"><ele>304.79999999999995</ele><time>2026-05-04T16:20:36.001Z</time></trkpt><trkpt lat="41.282449532866295" lon="1.414108060574669"><ele>304.4</ele><time>2026-05-04T16:20:37.001Z</time></trkpt><trkpt lat="41.28245381846776" lon="1.4142502538439228"><ele>304.0</ele><time>2026-05-04T16:20:38.001Z</time></trkpt><trkpt lat="41.282457836939386" lon="1.414393851658547"><ele>304.0</ele><time>2026-05-04T16:20:39.001Z</time></trkpt><trkpt lat="41.282463110322105" lon="1.414537641377842"><ele>304.0</ele><time>2026-05-04T16:20:40.001Z</time></trkpt><trkpt lat="41.28246941855086" lon="1.4146815219879678"><ele>304.0</ele><time>2026-05-04T16:20:41.001Z</time></trkpt><trkpt lat="41.28247656221308" lon="1.4148235644155018"><ele>304.0</ele><time>2026-05-04T16:20:42.001Z</time></trkpt><trkpt lat="41.282480279649256" lon="1.41496710387528"><ele>304.0</ele><time>2026-05-04T16:20:43.001Z</time></trkpt><trkpt lat="41.28248460511559" lon="1.41511154822015"><ele>304.2</ele><time>2026-05-04T16:20:44.001Z</time></trkpt><trkpt lat="41.282489846272945" lon="1.415256558051643"><ele>304.4</ele><time>2026-05-04T16:20:45.001Z</time></trkpt><trkpt lat="41.28249544828612" lon="1.4154001046238527"><ele>304.6</ele><time>2026-05-04T16:20:46.001Z</time></trkpt><trkpt lat="41.282499880723165" lon="1.4155433168671763"><ele>304.8</ele><time>2026-05-04T16:20:47.001Z</time></trkpt><trkpt lat="41.282501883878034" lon="1.4156870966461497"><ele>305.0</ele><time>2026-05-04T16:20:48.001Z</time></trkpt><trkpt lat="41.28250530312493" lon="1.415830973007506"><ele>305.0</ele><time>2026-05-04T16:20:49.001Z</time></trkpt><trkpt lat="41.28250973498271" lon="1.4159741248504323"><ele>305.0</ele><time>2026-05-04T16:20:50.001Z</time></trkpt><trkpt lat="41.282514865670116" lon="1.4161172166432965"><ele>305.0</ele><time>2026-05-04T16:20:51.001Z</time></trkpt><trkpt lat="41.28251993010731" lon="1.4162595846896833"><ele>305.0</ele><time>2026-05-04T16:20:52.001Z</time></trkpt><trkpt lat="41.28252538436787" lon="1.4164014893001526"><ele>305.0</ele><time>2026-05-04T16:20:53.001Z</time></trkpt><trkpt lat="41.282528765442336" lon="1.4165438114116808"><ele>305.0</ele><time>2026-05-04T16:20:54.001Z</time></trkpt><trkpt lat="41.28253336626794" lon="1.4166854740764128"><ele>305.0</ele><time>2026-05-04T16:20:55.001Z</time></trkpt><trkpt lat="41.28253786587774" lon="1.4168275908937917"><ele>305.0</ele><time>2026-05-04T16:20:56.001Z</time></trkpt><trkpt lat="41.28254260444579" lon="1.416968069221214"><ele>305.0</ele><time>2026-05-04T16:20:57.001Z</time></trkpt><trkpt lat="41.28254692234486" lon="1.4171090195304294"><ele>305.0</ele><time>2026-05-04T16:20:58.001Z</time></trkpt><trkpt lat="41.28255136895957" lon="1.4172492760288078"><ele>305.0</ele><time>2026-05-04T16:20:59.001Z</time></trkpt><trkpt lat="41.28255750290564" lon="1.41738752378865"><ele>305.0</ele><time>2026-05-04T16:21:00.001Z</time></trkpt><trkpt lat="41.28256320912803" lon="1.4175271492864494"><ele>305.0</ele><time>2026-05-04T16:21:01.001Z</time></trkpt><trkpt lat="41.28256871921937" lon="1.4176658116424483"><ele>305.0</ele><time>2026-05-04T16:21:02.001Z</time></trkpt><trkpt lat="41.28257273129703" lon="1.4178051611734386"><ele>305.0</ele><time>2026-05-04T16:21:03.001Z</time></trkpt><trkpt lat="41.28257844949698" lon="1.4179424188559322"><ele>305.0</ele><time>2026-05-04T16:21:04.001Z</time></trkpt><trkpt lat="41.2825804923037" lon="1.4180819401536844"><ele>305.0</ele><time>2026-05-04T16:21:05.001Z</time></trkpt><trkpt lat="41.282583871553356" lon="1.4182196589256844"><ele>305.0</ele><time>2026-05-04T16:21:06.001Z</time></trkpt><trkpt lat="41.28258710199218" lon="1.4183568511217906"><ele>305.0</ele><time>2026-05-04T16:21:07.001Z</time></trkpt><trkpt lat="41.28259266123365" lon="1.418494229377255"><ele>305.0</ele><time>2026-05-04T16:21:08.001Z</time></trkpt><trkpt lat="41.28259627762624" lon="1.4186308467212982"><ele>305.0</ele><time>2026-05-04T16:21:09.001Z</time></trkpt><trkpt lat="41.28260159197304" lon="1.4187672389839698"><ele>305.0</ele><time>2026-05-04T16:21:10.001Z</time></trkpt><trkpt lat="41.28260572860904" lon="1.418903552889634"><ele>305.0</ele><time>2026-05-04T16:21:11.001Z</time></trkpt><trkpt lat="41.282609723389506" lon="1.419039034930439"><ele>305.0</ele><time>2026-05-04T16:21:12.001Z</time></trkpt><trkpt lat="41.28261332000395" lon="1.4191735504697687"><ele>305.0</ele><time>2026-05-04T16:21:13.001Z</time></trkpt><trkpt lat="41.28261439679669" lon="1.4193087298130387"><ele>305.6</ele><time>2026-05-04T16:21:14.001Z</time></trkpt><trkpt lat="41.28262105990575" lon="1.4194428798836145"><ele>306.2</ele><time>2026-05-04T16:21:15.001Z</time></trkpt><trkpt lat="41.28262690949625" lon="1.4195761547162062"><ele>306.8</ele><time>2026-05-04T16:21:16.001Z</time></trkpt><trkpt lat="41.282632594646635" lon="1.419708175434247"><ele>307.4</ele><time>2026-05-04T16:21:17.001Z</time></trkpt><trkpt lat="41.282637089211015" lon="1.4198409253979454"><ele>308.0</ele><time>2026-05-04T16:21:18.001Z</time></trkpt><trkpt lat="41.28264079303594" lon="1.4199724354055068"><ele>309.0</ele><time>2026-05-04T16:21:19.001Z</time></trkpt><trkpt lat="41.28264409670159" lon="1.420105225988492"><ele>310.0</ele><time>2026-05-04T16:21:20.001Z</time></trkpt><trkpt lat="41.28264808546875" lon="1.4202361953136515"><ele>311.0</ele><time>2026-05-04T16:21:21.001Z</time></trkpt><trkpt lat="41.282650334891756" lon="1.4203662141405784"><ele>312.0</ele><time>2026-05-04T16:21:22.001Z</time></trkpt><trkpt lat="41.28264956746502" lon="1.4204945135642963"><ele>313.0</ele><time>2026-05-04T16:21:23.001Z</time></trkpt><trkpt lat="41.28264831538154" lon="1.420623447827715"><ele>313.8</ele><time>2026-05-04T16:21:24.001Z</time></trkpt><trkpt lat="41.28264940360813" lon="1.4207511941485356"><ele>314.6</ele><time>2026-05-04T16:21:25.001Z</time></trkpt><trkpt lat="41.28265280886408" lon="1.4208789520773824"><ele>315.4</ele><time>2026-05-04T16:21:26.001Z</time></trkpt><trkpt lat="41.282654475973274" lon="1.4210095735567696"><ele>316.2</ele><time>2026-05-04T16:21:27.001Z</time></trkpt><trkpt lat="41.282651958807875" lon="1.4211283124106473"><ele>317.0</ele><time>2026-05-04T16:21:28.001Z</time></trkpt><trkpt lat="41.28263251883193" lon="1.4212335849278983"><ele>317.1666666666667</ele><time>2026-05-04T16:21:29.001Z</time></trkpt><trkpt lat="41.282594323221744" lon="1.4213281501904993"><ele>317.33333333333337</ele><time>2026-05-04T16:21:30.001Z</time></trkpt><trkpt lat="41.282537008561576" lon="1.421408505835671"><ele>317.5</ele><time>2026-05-04T16:21:31.001Z</time></trkpt><trkpt lat="41.28246771720524" lon="1.4214769965767973"><ele>317.6666666666667</ele><time>2026-05-04T16:21:32.001Z</time></trkpt><trkpt lat="41.282404248122845" lon="1.4215544103326014"><ele>317.8333333333333</ele><time>2026-05-04T16:21:33.001Z</time></trkpt><trkpt lat="41.28235181345113" lon="1.4216449041526347"><ele>318.0</ele><time>2026-05-04T16:21:34.001Z</time></trkpt><trkpt lat="41.2823208503779" lon="1.4217507342563631"><ele>318.0</ele><time>2026-05-04T16:21:35.001Z</time></trkpt><trkpt lat="41.28230661682438" lon="1.421861053379632"><ele>318.0</ele><time>2026-05-04T16:21:36.001Z</time></trkpt><trkpt lat="41.28232696612788" lon="1.4220911609000695"><ele>318.0</ele><time>2026-05-04T16:21:38.001Z</time></trkpt><trkpt lat="41.282348570707605" lon="1.4222074860959295"><ele>318.0</ele><time>2026-05-04T16:21:39.001Z</time></trkpt><trkpt lat="41.282367558125344" lon="1.422328647063508"><ele>318.0</ele><time>2026-05-04T16:21:40.001Z</time></trkpt><trkpt lat="41.28237430837841" lon="1.4224531599973227"><ele>318.6</ele><time>2026-05-04T16:21:41.001Z</time></trkpt><trkpt lat="41.28235927268293" lon="1.4225761544226248"><ele>319.20000000000005</ele><time>2026-05-04T16:21:42.001Z</time></trkpt><trkpt lat="41.282332981377344" lon="1.4226956948011167"><ele>319.8</ele><time>2026-05-04T16:21:43.001Z</time></trkpt><trkpt lat="41.282297688029736" lon="1.4228102490111378"><ele>320.40000000000003</ele><time>2026-05-04T16:21:44.001Z</time></trkpt><trkpt lat="41.28225649109161" lon="1.4229180971576096"><ele>321.0</ele><time>2026-05-04T16:21:45.001Z</time></trkpt><trkpt lat="41.282217823592966" lon="1.4230252624080952"><ele>322.8333333333333</ele><time>2026-05-04T16:21:46.001Z</time></trkpt><trkpt lat="41.28218345711438" lon="1.4231346221753693"><ele>324.6666666666667</ele><time>2026-05-04T16:21:47Z</time></trkpt><trkpt lat="41.28215043632988" lon="1.423244246826074"><ele>326.5</ele><time>2026-05-04T16:21:48Z</time></trkpt><trkpt lat="41.28212254139693" lon="1.4233558305952054"><ele>328.33333333333337</ele><time>2026-05-04T16:21:49Z</time></trkpt><trkpt lat="41.282092953837896" lon="1.4234664685312124"><ele>330.1666666666667</ele><time>2026-05-04T16:21:50Z</time></trkpt><trkpt lat="41.282066439427986" lon="1.4235768295954043"><ele>332.0</ele><time>2026-05-04T16:21:51Z</time></trkpt><trkpt lat="41.282046783472126" lon="1.4236910306743433"><ele>332.0</ele><time>2026-05-04T16:21:52Z</time></trkpt><trkpt lat="41.28203010915459" lon="1.4238077422392885"><ele>332.0</ele><time>2026-05-04T16:21:53Z</time></trkpt><trkpt lat="41.282015450517505" lon="1.4239245812436458"><ele>332.0</ele><time>2026-05-04T16:21:54Z</time></trkpt><trkpt lat="41.28199938261572" lon="1.4240441816763423"><ele>332.0</ele><time>2026-05-04T16:21:55Z</time></trkpt><trkpt lat="41.28198640434541" lon="1.4241639214425155"><ele>332.0</ele><time>2026-05-04T16:21:56Z</time></trkpt><trkpt lat="41.28197375612315" lon="1.424286424320784"><ele>332.6</ele><time>2026-05-04T16:21:57Z</time></trkpt><trkpt lat="41.281966322235405" lon="1.4244071316191662"><ele>333.20000000000005</ele><time>2026-05-04T16:21:58Z</time></trkpt><trkpt lat="41.28196107921673" lon="1.424525569508032"><ele>333.8</ele><time>2026-05-04T16:21:59Z</time></trkpt><trkpt lat="41.281960075688445" lon="1.4246459504525997"><ele>334.4</ele><time>2026-05-04T16:22:00Z</time></trkpt><trkpt lat="41.28196131025254" lon="1.4247668044437487"><ele>335.0</ele><time>2026-05-04T16:22:01Z</time></trkpt><trkpt lat="41.28196572940101" lon="1.4248882372432852"><ele>336.2</ele><time>2026-05-04T16:22:02Z</time></trkpt><trkpt lat="41.28196946971092" lon="1.4250101422133823"><ele>337.4</ele><time>2026-05-04T16:22:03Z</time></trkpt><trkpt lat="41.281976512547885" lon="1.425134723777703"><ele>338.6</ele><time>2026-05-04T16:22:04Z</time></trkpt><trkpt lat="41.281982532315524" lon="1.4252610201357043"><ele>339.8</ele><time>2026-05-04T16:22:05Z</time></trkpt><trkpt lat="41.28198937828138" lon="1.4253864897652242"><ele>341.0</ele><time>2026-05-04T16:22:06Z</time></trkpt><trkpt lat="41.28199617326927" lon="1.4255129329321807"><ele>341.4</ele><time>2026-05-04T16:22:07Z</time></trkpt><trkpt lat="41.2820077305688" lon="1.4256393405530108"><ele>341.8</ele><time>2026-05-04T16:22:08Z</time></trkpt><trkpt lat="41.28201923734519" lon="1.4257662885602667"><ele>342.2</ele><time>2026-05-04T16:22:09Z</time></trkpt><trkpt lat="41.28203005485875" lon="1.4258934709403728"><ele>342.59999999999997</ele><time>2026-05-04T16:22:10Z</time></trkpt><trkpt lat="41.28203835704953" lon="1.4260216031479132"><ele>343.0</ele><time>2026-05-04T16:22:11Z</time></trkpt><trkpt lat="41.28204502461796" lon="1.4261497714261382"><ele>343.0</ele><time>2026-05-04T16:22:12Z</time></trkpt><trkpt lat="41.28205042242781" lon="1.4262791481466888"><ele>343.0</ele><time>2026-05-04T16:22:13Z</time></trkpt><trkpt lat="41.282052531169974" lon="1.4264107117821565"><ele>343.0</ele><time>2026-05-04T16:22:14Z</time></trkpt><trkpt lat="41.28205362050254" lon="1.42654229528609"><ele>343.0</ele><time>2026-05-04T16:22:15Z</time></trkpt><trkpt lat="41.28204906037964" lon="1.4266736076576518"><ele>343.0</ele><time>2026-05-04T16:22:16Z</time></trkpt><trkpt lat="41.28204353022448" lon="1.4268060282596493"><ele>342.79999999999995</ele><time>2026-05-04T16:22:17Z</time></trkpt><trkpt lat="41.28203366249315" lon="1.426938907977963"><ele>342.6</ele><time>2026-05-04T16:22:18Z</time></trkpt><trkpt lat="41.282025452219706" lon="1.4270688298950072"><ele>342.4</ele><time>2026-05-04T16:22:19Z</time></trkpt><trkpt lat="41.282015872315704" lon="1.4271994945803832"><ele>342.20000000000005</ele><time>2026-05-04T16:22:20Z</time></trkpt><trkpt lat="41.28200053003223" lon="1.4273300499969077"><ele>342.0</ele><time>2026-05-04T16:22:21Z</time></trkpt><trkpt lat="41.28197942922991" lon="1.4274601132937197"><ele>343.20000000000005</ele><time>2026-05-04T16:22:22Z</time></trkpt><trkpt lat="41.281956334473556" lon="1.4275896887573558"><ele>344.4</ele><time>2026-05-04T16:22:23Z</time></trkpt><trkpt lat="41.281929800461526" lon="1.4277165385683357"><ele>345.6</ele><time>2026-05-04T16:22:24Z</time></trkpt><trkpt lat="41.281901198627175" lon="1.4278430287776849"><ele>346.79999999999995</ele><time>2026-05-04T16:22:25Z</time></trkpt><trkpt lat="41.28187053996007" lon="1.427968883088098"><ele>348.0</ele><time>2026-05-04T16:22:26Z</time></trkpt><trkpt lat="41.28183897893395" lon="1.4280944763926193"><ele>348.79999999999995</ele><time>2026-05-04T16:22:27Z</time></trkpt><trkpt lat="41.28179863841907" lon="1.4282184680707055"><ele>349.6</ele><time>2026-05-04T16:22:28Z</time></trkpt><trkpt lat="41.28175806313538" lon="1.4283415748188082"><ele>350.4</ele><time>2026-05-04T16:22:29Z</time></trkpt><trkpt lat="41.28171486521205" lon="1.4284642731648274"><ele>351.20000000000005</ele><time>2026-05-04T16:22:30Z</time></trkpt><trkpt lat="41.28166667154392" lon="1.4285846922755958"><ele>352.0</ele><time>2026-05-04T16:22:31Z</time></trkpt><trkpt lat="41.28161828638468" lon="1.4287061604898812"><ele>351.40000000000003</ele><time>2026-05-04T16:22:32Z</time></trkpt><trkpt lat="41.28156496593176" lon="1.428824965431071"><ele>350.8</ele><time>2026-05-04T16:22:33Z</time></trkpt><trkpt lat="41.28150935694427" lon="1.4289425070661135"><ele>350.2</ele><time>2026-05-04T16:22:34Z</time></trkpt><trkpt lat="41.28145416286897" lon="1.4290604445983657"><ele>349.6</ele><time>2026-05-04T16:22:35Z</time></trkpt><trkpt lat="41.28139656672376" lon="1.4291725258235841"><ele>349.0</ele><time>2026-05-04T16:22:36Z</time></trkpt><trkpt lat="41.28133209701846" lon="1.429277088995169"><ele>349.79999999999995</ele><time>2026-05-04T16:22:37Z</time></trkpt><trkpt lat="41.28126133583696" lon="1.4293821105558449"><ele>350.59999999999997</ele><time>2026-05-04T16:22:38Z</time></trkpt><trkpt lat="41.281186706098694" lon="1.4294847575203031"><ele>351.4</ele><time>2026-05-04T16:22:39Z</time></trkpt><trkpt lat="41.28111596465034" lon="1.429586232347259"><ele>352.2</ele><time>2026-05-04T16:22:40Z</time></trkpt><trkpt lat="41.281043608159266" lon="1.429697288193737"><ele>353.0</ele><time>2026-05-04T16:22:41Z</time></trkpt><trkpt lat="41.28095936555814" lon="1.4297948117595112"><ele>353.0</ele><time>2026-05-04T16:22:42.001Z</time></trkpt><trkpt lat="41.28087822403618" lon="1.4299005903422572"><ele>353.0</ele><time>2026-05-04T16:22:43.001Z</time></trkpt><trkpt lat="41.28078510066587" lon="1.4299923238669796"><ele>353.0</ele><time>2026-05-04T16:22:44.001Z</time></trkpt><trkpt lat="41.280665051418374" lon="1.4300708550980672"><ele>353.0</ele><time>2026-05-04T16:22:45.001Z</time></trkpt><trkpt lat="41.28049976340264" lon="1.4301708964818574"><ele>353.25</ele><time>2026-05-04T16:22:46.001Z</time></trkpt><trkpt lat="41.28040553329481" lon="1.430324225625142"><ele>353.5</ele><time>2026-05-04T16:22:48.001Z</time></trkpt><trkpt lat="41.28030724882414" lon="1.4303979448338233"><ele>353.75</ele><time>2026-05-04T16:22:49.001Z</time></trkpt><trkpt lat="41.28020705255475" lon="1.4304688912637895"><ele>354.0</ele><time>2026-05-04T16:22:50.001Z</time></trkpt><trkpt lat="41.28010521855704" lon="1.4305440138007948"><ele>354.0</ele><time>2026-05-04T16:22:51.001Z</time></trkpt><trkpt lat="41.28000480016518" lon="1.4306214334231664"><ele>354.0</ele><time>2026-05-04T16:22:52.001Z</time></trkpt><trkpt lat="41.279901924652506" lon="1.4306875010482185"><ele>354.0</ele><time>2026-05-04T16:22:53.001Z</time></trkpt><trkpt lat="41.27979839243285" lon="1.4307522599656288"><ele>354.0</ele><time>2026-05-04T16:22:54.001Z</time></trkpt><trkpt lat="41.27969661746296" lon="1.4308293864867556"><ele>354.0</ele><time>2026-05-04T16:22:55.001Z</time></trkpt><trkpt lat="41.27959294515224" lon="1.4309073269858321"><ele>354.0</ele><time>2026-05-04T16:22:56.001Z</time></trkpt><trkpt lat="41.27949236665252" lon="1.4309733340176294"><ele>354.0</ele><time>2026-05-04T16:22:57.001Z</time></trkpt><trkpt lat="41.27939132861441" lon="1.4310432057874567"><ele>354.0</ele><time>2026-05-04T16:22:58.001Z</time></trkpt><trkpt lat="41.27928433254554" lon="1.4311172970121695"><ele>354.0</ele><time>2026-05-04T16:22:59.001Z</time></trkpt><trkpt lat="41.27919077397622" lon="1.43119741188862"><ele>354.0</ele><time>2026-05-04T16:23:00.001Z</time></trkpt><trkpt lat="41.279094316450525" lon="1.4312852542128"><ele>354.0</ele><time>2026-05-04T16:23:01.001Z</time></trkpt><trkpt lat="41.279000914799504" lon="1.4313749994813176"><ele>354.0</ele><time>2026-05-04T16:23:02.001Z</time></trkpt><trkpt lat="41.278903945778715" lon="1.4314657806184186"><ele>349.25</ele><time>2026-05-04T16:23:03.001Z</time></trkpt><trkpt lat="41.278817329316524" lon="1.431564451360358"><ele>344.5</ele><time>2026-05-04T16:23:04.001Z</time></trkpt><trkpt lat="41.2787295691112" lon="1.4316680006185611"><ele>339.75</ele><time>2026-05-04T16:23:05.001Z</time></trkpt><trkpt lat="41.27864552619145" lon="1.4317739365537925"><ele>335.0</ele><time>2026-05-04T16:23:06.001Z</time></trkpt><trkpt lat="41.278563515847075" lon="1.4318868921495005"><ele>335.0</ele><time>2026-05-04T16:23:07.001Z</time></trkpt><trkpt lat="41.278485817926935" lon="1.4319989276241734"><ele>335.0</ele><time>2026-05-04T16:23:08.001Z</time></trkpt><trkpt lat="41.27840606489574" lon="1.432117091884204"><ele>335.0</ele><time>2026-05-04T16:23:09.001Z</time></trkpt><trkpt lat="41.27833803456992" lon="1.4322453381075309"><ele>335.0</ele><time>2026-05-04T16:23:10.001Z</time></trkpt><trkpt lat="41.27826859637796" lon="1.4323775909320862"><ele>337.0</ele><time>2026-05-04T16:23:11.001Z</time></trkpt><trkpt lat="41.27820122577269" lon="1.4325143439230126"><ele>339.0</ele><time>2026-05-04T16:23:12.001Z</time></trkpt><trkpt lat="41.278140237848966" lon="1.4326581457877885"><ele>341.0</ele><time>2026-05-04T16:23:13.001Z</time></trkpt><trkpt lat="41.278082363709835" lon="1.4328077575773233"><ele>343.0</ele><time>2026-05-04T16:23:14.001Z</time></trkpt><trkpt lat="41.27803416335524" lon="1.4329499018959184"><ele>342.75</ele><time>2026-05-04T16:23:15.001Z</time></trkpt><trkpt lat="41.277983192095974" lon="1.4330987916045665"><ele>342.5</ele><time>2026-05-04T16:23:16.001Z</time></trkpt><trkpt lat="41.277939297887954" lon="1.4332466848040994"><ele>342.25</ele><time>2026-05-04T16:23:17.001Z</time></trkpt><trkpt lat="41.277897476744386" lon="1.4333952614977128"><ele>342.0</ele><time>2026-05-04T16:23:18.001Z</time></trkpt><trkpt lat="41.27785566961673" lon="1.433540690610657"><ele>342.0</ele><time>2026-05-04T16:23:19.001Z</time></trkpt><trkpt lat="41.27781598189216" lon="1.4336871292734847"><ele>342.0</ele><time>2026-05-04T16:23:20.001Z</time></trkpt><trkpt lat="41.277777981928516" lon="1.4338339490786183"><ele>342.0</ele><time>2026-05-04T16:23:21.001Z</time></trkpt><trkpt lat="41.27773377743777" lon="1.4339844110243873"><ele>342.0</ele><time>2026-05-04T16:23:22.001Z</time></trkpt><trkpt lat="41.27769493828336" lon="1.4341310669317031"><ele>341.25</ele><time>2026-05-04T16:23:23.001Z</time></trkpt><trkpt lat="41.27765458282045" lon="1.4342759184464764"><ele>340.5</ele><time>2026-05-04T16:23:24.001Z</time></trkpt><trkpt lat="41.27761298544508" lon="1.4344194619416366"><ele>339.75</ele><time>2026-05-04T16:23:25.001Z</time></trkpt><trkpt lat="41.277569667199494" lon="1.434561847531771"><ele>339.0</ele><time>2026-05-04T16:23:26.001Z</time></trkpt><trkpt lat="41.27752228528891" lon="1.434698806895011"><ele>335.25</ele><time>2026-05-04T16:23:27.001Z</time></trkpt><trkpt lat="41.277469284374305" lon="1.4348345397409146"><ele>331.5</ele><time>2026-05-04T16:23:28.001Z</time></trkpt><trkpt lat="41.27741137376771" lon="1.4349677723050198"><ele>327.75</ele><time>2026-05-04T16:23:29.001Z</time></trkpt><trkpt lat="41.27734307084418" lon="1.435094686204338"><ele>324.0</ele><time>2026-05-04T16:23:30.001Z</time></trkpt><trkpt lat="41.277276979817984" lon="1.4352210604672615"><ele>324.5</ele><time>2026-05-04T16:23:31.001Z</time></trkpt><trkpt lat="41.27720736307934" lon="1.435348365178748"><ele>325.0</ele><time>2026-05-04T16:23:32.001Z</time></trkpt><trkpt lat="41.2771322707514" lon="1.435468689365279"><ele>325.5</ele><time>2026-05-04T16:23:33.001Z</time></trkpt><trkpt lat="41.27705405711912" lon="1.4355860485800191"><ele>326.0</ele><time>2026-05-04T16:23:34.001Z</time></trkpt><trkpt lat="41.276973954323466" lon="1.435698669505395"><ele>326.0</ele><time>2026-05-04T16:23:35.001Z</time></trkpt><trkpt lat="41.27689056739248" lon="1.4358109727522175"><ele>326.0</ele><time>2026-05-04T16:23:36.001Z</time></trkpt><trkpt lat="41.27680658333925" lon="1.4359220080364477"><ele>326.0</ele><time>2026-05-04T16:23:37.001Z</time></trkpt><trkpt lat="41.27672410031859" lon="1.4360324864800305"><ele>326.0</ele><time>2026-05-04T16:23:38.001Z</time></trkpt><trkpt lat="41.27664343068944" lon="1.4361452492337912"><ele>326.0</ele><time>2026-05-04T16:23:39.001Z</time></trkpt><trkpt lat="41.276562334007785" lon="1.4362579983670485"><ele>326.0</ele><time>2026-05-04T16:23:40.001Z</time></trkpt><trkpt lat="41.27648519941734" lon="1.436374822120846"><ele>326.0</ele><time>2026-05-04T16:23:41.001Z</time></trkpt><trkpt lat="41.27641010227036" lon="1.4364981168902948"><ele>326.0</ele><time>2026-05-04T16:23:42.001Z</time></trkpt><trkpt lat="41.276338161300025" lon="1.436622718338999"><ele>323.75</ele><time>2026-05-04T16:23:43.001Z</time></trkpt><trkpt lat="41.27627009478025" lon="1.436751782198525"><ele>321.5</ele><time>2026-05-04T16:23:44.001Z</time></trkpt><trkpt lat="41.27620656553463" lon="1.4368828744226712"><ele>319.25</ele><time>2026-05-04T16:23:45.001Z</time></trkpt><trkpt lat="41.27614594286161" lon="1.4370195293584758"><ele>317.0</ele><time>2026-05-04T16:23:46.001Z</time></trkpt><trkpt lat="41.27609353567188" lon="1.4371628118177129"><ele>313.25</ele><time>2026-05-04T16:23:47.001Z</time></trkpt><trkpt lat="41.276043203509154" lon="1.4373030455031024"><ele>309.5</ele><time>2026-05-04T16:23:48.001Z</time></trkpt><trkpt lat="41.275997976123534" lon="1.437450280814137"><ele>305.75</ele><time>2026-05-04T16:23:49.001Z</time></trkpt><trkpt lat="41.27595871894507" lon="1.4376002984640721"><ele>302.0</ele><time>2026-05-04T16:23:50.001Z</time></trkpt><trkpt lat="41.27592659827891" lon="1.437751136265011"><ele>302.0</ele><time>2026-05-04T16:23:51.001Z</time></trkpt><trkpt lat="41.275892815806515" lon="1.4379061201134504"><ele>302.0</ele><time>2026-05-04T16:23:52.001Z</time></trkpt><trkpt lat="41.27586909154923" lon="1.438061320444351"><ele>302.0</ele><time>2026-05-04T16:23:53Z</time></trkpt><trkpt lat="41.27584411695431" lon="1.4382167659837928"><ele>302.0</ele><time>2026-05-04T16:23:54Z</time></trkpt><trkpt lat="41.27582002414759" lon="1.4383741098670992"><ele>300.75</ele><time>2026-05-04T16:23:55Z</time></trkpt><trkpt lat="41.27581224836004" lon="1.4385294058398845"><ele>299.5</ele><time>2026-05-04T16:23:56Z</time></trkpt><trkpt lat="41.27580089237519" lon="1.438695711483476"><ele>298.25</ele><time>2026-05-04T16:23:57Z</time></trkpt><trkpt lat="41.27578880864496" lon="1.4388558917392626"><ele>297.0</ele><time>2026-05-04T16:23:58Z</time></trkpt><trkpt lat="41.275772295142424" lon="1.4390172263365197"><ele>295.5</ele><time>2026-05-04T16:23:59Z</time></trkpt><trkpt lat="41.27575949718617" lon="1.4391776630422892"><ele>294.0</ele><time>2026-05-04T16:24:00Z</time></trkpt><trkpt lat="41.275743453832796" lon="1.4393394256753769"><ele>292.5</ele><time>2026-05-04T16:24:01Z</time></trkpt><trkpt lat="41.27572314607338" lon="1.4394995754333995"><ele>291.0</ele><time>2026-05-04T16:24:02Z</time></trkpt><trkpt lat="41.275705520739265" lon="1.4396606037237831"><ele>289.0</ele><time>2026-05-04T16:24:03Z</time></trkpt><trkpt lat="41.27567122355517" lon="1.4398280251710682"><ele>287.0</ele><time>2026-05-04T16:24:04Z</time></trkpt><trkpt lat="41.275643760919614" lon="1.4399911734104422"><ele>285.0</ele><time>2026-05-04T16:24:05Z</time></trkpt><trkpt lat="41.27561090365249" lon="1.4401514690539188"><ele>283.0</ele><time>2026-05-04T16:24:06Z</time></trkpt><trkpt lat="41.27557129210374" lon="1.4403085396474153"><ele>284.5</ele><time>2026-05-04T16:24:07Z</time></trkpt><trkpt lat="41.27552573683714" lon="1.4404645283254378"><ele>286.0</ele><time>2026-05-04T16:24:08Z</time></trkpt><trkpt lat="41.27547630458829" lon="1.4406171981815372"><ele>287.5</ele><time>2026-05-04T16:24:09Z</time></trkpt><trkpt lat="41.27542646558277" lon="1.440766110670674"><ele>289.0</ele><time>2026-05-04T16:24:10Z</time></trkpt><trkpt lat="41.27537250610653" lon="1.440914224487972"><ele>289.0</ele><time>2026-05-04T16:24:11Z</time></trkpt><trkpt lat="41.275315271350344" lon="1.441059063325319"><ele>289.0</ele><time>2026-05-04T16:24:12Z</time></trkpt><trkpt lat="41.27525717570968" lon="1.4412005863487638"><ele>289.0</ele><time>2026-05-04T16:24:13Z</time></trkpt><trkpt lat="41.27519751509485" lon="1.4413417513502214"><ele>289.0</ele><time>2026-05-04T16:24:14Z</time></trkpt><trkpt lat="41.27513678746965" lon="1.4414811653549027"><ele>286.5</ele><time>2026-05-04T16:24:15Z</time></trkpt><trkpt lat="41.275074494930756" lon="1.4416233197827661"><ele>284.0</ele><time>2026-05-04T16:24:16Z</time></trkpt><trkpt lat="41.27501542510211" lon="1.4417656023740415"><ele>281.5</ele><time>2026-05-04T16:24:17Z</time></trkpt><trkpt lat="41.27495484590786" lon="1.4419060031994078"><ele>279.0</ele><time>2026-05-04T16:24:18Z</time></trkpt><trkpt lat="41.274895355106054" lon="1.4420485433372727"><ele>277.0</ele><time>2026-05-04T16:24:19Z</time></trkpt><trkpt lat="41.27483664017331" lon="1.4421907422123112"><ele>275.0</ele><time>2026-05-04T16:24:20Z</time></trkpt><trkpt lat="41.27478190188923" lon="1.4423337975755668"><ele>273.0</ele><time>2026-05-04T16:24:21Z</time></trkpt><trkpt lat="41.27472661175673" lon="1.4424771450357239"><ele>271.0</ele><time>2026-05-04T16:24:22Z</time></trkpt><trkpt lat="41.274673073955384" lon="1.4426219701893082"><ele>273.75</ele><time>2026-05-04T16:24:23Z</time></trkpt><trkpt lat="41.27462320758796" lon="1.442770139502424"><ele>276.5</ele><time>2026-05-04T16:24:24Z</time></trkpt><trkpt lat="41.27457651278632" lon="1.442918325745814"><ele>279.25</ele><time>2026-05-04T16:24:25Z</time></trkpt><trkpt lat="41.274530692498494" lon="1.443068625786928"><ele>282.0</ele><time>2026-05-04T16:24:26Z</time></trkpt><trkpt lat="41.27448458619898" lon="1.4432199536539332"><ele>282.0</ele><time>2026-05-04T16:24:27Z</time></trkpt><trkpt lat="41.27444209789064" lon="1.4433733796533412"><ele>282.0</ele><time>2026-05-04T16:24:28Z</time></trkpt><trkpt lat="41.27439974460381" lon="1.4435255035341623"><ele>282.0</ele><time>2026-05-04T16:24:29Z</time></trkpt><trkpt lat="41.27436100991227" lon="1.4436787321215148"><ele>282.0</ele><time>2026-05-04T16:24:30Z</time></trkpt><trkpt lat="41.27432418904376" lon="1.4438344768478708"><ele>281.0</ele><time>2026-05-04T16:24:31Z</time></trkpt><trkpt lat="41.27428909530544" lon="1.4439878905398966"><ele>280.0</ele><time>2026-05-04T16:24:32Z</time></trkpt><trkpt lat="41.274258469838706" lon="1.444143316265753"><ele>279.0</ele><time>2026-05-04T16:24:33Z</time></trkpt><trkpt lat="41.274226423985446" lon="1.444298646119763"><ele>278.0</ele><time>2026-05-04T16:24:34Z</time></trkpt><trkpt lat="41.274198807691285" lon="1.4444536183572927"><ele>278.0</ele><time>2026-05-04T16:24:35Z</time></trkpt><trkpt lat="41.27417244736847" lon="1.4446092575452574"><ele>278.0</ele><time>2026-05-04T16:24:36Z</time></trkpt><trkpt lat="41.274150417331995" lon="1.4447659135723123"><ele>278.0</ele><time>2026-05-04T16:24:37Z</time></trkpt><trkpt lat="41.274128084524904" lon="1.44492435209023"><ele>278.0</ele><time>2026-05-04T16:24:38Z</time></trkpt><trkpt lat="41.274109339702306" lon="1.4450816647510452"><ele>276.5</ele><time>2026-05-04T16:24:39Z</time></trkpt><trkpt lat="41.274092483025896" lon="1.4452412830082202"><ele>275.0</ele><time>2026-05-04T16:24:40.001Z</time></trkpt><trkpt lat="41.27407533752281" lon="1.4454004113812016"><ele>273.5</ele><time>2026-05-04T16:24:41.001Z</time></trkpt><trkpt lat="41.27406219972317" lon="1.4455606290895684"><ele>272.0</ele><time>2026-05-04T16:24:42.001Z</time></trkpt><trkpt lat="41.27405078656491" lon="1.4457223501176182"><ele>270.0</ele><time>2026-05-04T16:24:43.001Z</time></trkpt><trkpt lat="41.274038297828696" lon="1.4458865848794236"><ele>268.0</ele><time>2026-05-04T16:24:44.001Z</time></trkpt><trkpt lat="41.27402385414995" lon="1.4460526781609329"><ele>266.0</ele><time>2026-05-04T16:24:45.001Z</time></trkpt><trkpt lat="41.27400884302416" lon="1.4462165619333567"><ele>264.0</ele><time>2026-05-04T16:24:46.001Z</time></trkpt><trkpt lat="41.2739966727538" lon="1.4463788065811378"><ele>262.5</ele><time>2026-05-04T16:24:47.001Z</time></trkpt><trkpt lat="41.273986666461184" lon="1.4465387279326771"><ele>261.0</ele><time>2026-05-04T16:24:48.001Z</time></trkpt><trkpt lat="41.273971315677386" lon="1.4467019982440774"><ele>259.5</ele><time>2026-05-04T16:24:49.001Z</time></trkpt><trkpt lat="41.27396087457994" lon="1.4468651758219622"><ele>258.0</ele><time>2026-05-04T16:24:50.001Z</time></trkpt><trkpt lat="41.273948050540156" lon="1.447022522854356"><ele>257.75</ele><time>2026-05-04T16:24:51.001Z</time></trkpt><trkpt lat="41.27393675780902" lon="1.4471845073448024"><ele>257.5</ele><time>2026-05-04T16:24:52.001Z</time></trkpt><trkpt lat="41.2739282551044" lon="1.4473470627947604"><ele>257.25</ele><time>2026-05-04T16:24:53.001Z</time></trkpt><trkpt lat="41.27391782070872" lon="1.4475052765632392"><ele>257.0</ele><time>2026-05-04T16:24:54.001Z</time></trkpt><trkpt lat="41.27390601204411" lon="1.447671797688878"><ele>257.0</ele><time>2026-05-04T16:24:55.001Z</time></trkpt><trkpt lat="41.27389280305347" lon="1.4478303199606544"><ele>257.0</ele><time>2026-05-04T16:24:56.001Z</time></trkpt><trkpt lat="41.27388239898404" lon="1.4479919463640956"><ele>257.0</ele><time>2026-05-04T16:24:57.001Z</time></trkpt><trkpt lat="41.27386883579569" lon="1.4481572816054256"><ele>257.0</ele><time>2026-05-04T16:24:58.001Z</time></trkpt><trkpt lat="41.2738528699865" lon="1.4483185350440388"><ele>257.25</ele><time>2026-05-04T16:24:59.001Z</time></trkpt><trkpt lat="41.273840302789445" lon="1.44847763006381"><ele>257.5</ele><time>2026-05-04T16:25:00.001Z</time></trkpt><trkpt lat="41.27382696367287" lon="1.4486414456169794"><ele>257.75</ele><time>2026-05-04T16:25:01.001Z</time></trkpt><trkpt lat="41.273814774818334" lon="1.4488042072025251"><ele>258.0</ele><time>2026-05-04T16:25:02.001Z</time></trkpt><trkpt lat="41.27380133965857" lon="1.4489696806194674"><ele>258.0</ele><time>2026-05-04T16:25:03.001Z</time></trkpt><trkpt lat="41.27378958991224" lon="1.4491304129152742"><ele>258.0</ele><time>2026-05-04T16:25:04.001Z</time></trkpt><trkpt lat="41.27377494316864" lon="1.4492899353312318"><ele>258.0</ele><time>2026-05-04T16:25:05.001Z</time></trkpt><trkpt lat="41.27376111254175" lon="1.4494552417898745"><ele>258.0</ele><time>2026-05-04T16:25:06.001Z</time></trkpt><trkpt lat="41.27374890165005" lon="1.4496155911003508"><ele>257.0</ele><time>2026-05-04T16:25:07.001Z</time></trkpt><trkpt lat="41.2737374474228" lon="1.449778742299146"><ele>256.0</ele><time>2026-05-04T16:25:08.001Z</time></trkpt><trkpt lat="41.273727973984165" lon="1.4499387592123905"><ele>255.0</ele><time>2026-05-04T16:25:09.001Z</time></trkpt><trkpt lat="41.27371387744099" lon="1.4501016088103178"><ele>254.0</ele><time>2026-05-04T16:25:10.001Z</time></trkpt><trkpt lat="41.273703363506485" lon="1.4502627148857614"><ele>254.0</ele><time>2026-05-04T16:25:11.001Z</time></trkpt><trkpt lat="41.27369461260536" lon="1.4504216701973165"><ele>254.0</ele><time>2026-05-04T16:25:12.001Z</time></trkpt><trkpt lat="41.273679940205874" lon="1.4505866764023119"><ele>254.0</ele><time>2026-05-04T16:25:13.001Z</time></trkpt><trkpt lat="41.273669454122754" lon="1.45074470039307"><ele>254.0</ele><time>2026-05-04T16:25:14.001Z</time></trkpt><trkpt lat="41.27365828091852" lon="1.4509029701936462"><ele>252.0</ele><time>2026-05-04T16:25:15.001Z</time></trkpt><trkpt lat="41.27364334702565" lon="1.4510635005863877"><ele>250.0</ele><time>2026-05-04T16:25:16.001Z</time></trkpt><trkpt lat="41.27363410066324" lon="1.4512235647740177"><ele>248.0</ele><time>2026-05-04T16:25:17.001Z</time></trkpt><trkpt lat="41.273621779754485" lon="1.4513819554328469"><ele>246.0</ele><time>2026-05-04T16:25:18.001Z</time></trkpt><trkpt lat="41.27361059067993" lon="1.451540564092088"><ele>245.0</ele><time>2026-05-04T16:25:19.001Z</time></trkpt><trkpt lat="41.27359613587906" lon="1.4517029654803524"><ele>244.0</ele><time>2026-05-04T16:25:20.001Z</time></trkpt><trkpt lat="41.273582989562826" lon="1.4518635335235643"><ele>243.0</ele><time>2026-05-04T16:25:21.001Z</time></trkpt><trkpt lat="41.273574500546964" lon="1.452022205121199"><ele>242.0</ele><time>2026-05-04T16:25:22.001Z</time></trkpt><trkpt lat="41.27356124970584" lon="1.4521841078691893"><ele>240.5</ele><time>2026-05-04T16:25:23.001Z</time></trkpt><trkpt lat="41.273547741441135" lon="1.4523460251801616"><ele>239.0</ele><time>2026-05-04T16:25:24.001Z</time></trkpt><trkpt lat="41.273536258841055" lon="1.4525085832019027"><ele>237.5</ele><time>2026-05-04T16:25:25.001Z</time></trkpt><trkpt lat="41.273523739697644" lon="1.4526725734094272"><ele>236.0</ele><time>2026-05-04T16:25:26.001Z</time></trkpt><trkpt lat="41.27351113860916" lon="1.4528332333988538"><ele>234.25</ele><time>2026-05-04T16:25:27.001Z</time></trkpt><trkpt lat="41.273499681952494" lon="1.4529970423573393"><ele>232.5</ele><time>2026-05-04T16:25:28.001Z</time></trkpt><trkpt lat="41.273486624071985" lon="1.4531640326327075"><ele>230.75</ele><time>2026-05-04T16:25:29.001Z</time></trkpt><trkpt lat="41.273472532470734" lon="1.4533282114151929"><ele>229.0</ele><time>2026-05-04T16:25:30.001Z</time></trkpt><trkpt lat="41.273460496961675" lon="1.4534935393681425"><ele>229.0</ele><time>2026-05-04T16:25:31.001Z</time></trkpt><trkpt lat="41.27345087489387" lon="1.4536527666010124"><ele>229.0</ele><time>2026-05-04T16:25:32.001Z</time></trkpt><trkpt lat="41.273434860771395" lon="1.4538221338824855"><ele>229.0</ele><time>2026-05-04T16:25:33.001Z</time></trkpt><trkpt lat="41.273424902738675" lon="1.453985230576143"><ele>229.0</ele><time>2026-05-04T16:25:34.001Z</time></trkpt><trkpt lat="41.27341183082931" lon="1.4541488837692729"><ele>228.0</ele><time>2026-05-04T16:25:35.001Z</time></trkpt><trkpt lat="41.27339751711437" lon="1.4543196523657884"><ele>227.0</ele><time>2026-05-04T16:25:36.001Z</time></trkpt><trkpt lat="41.27338535309557" lon="1.4544816507025815"><ele>226.0</ele><time>2026-05-04T16:25:37.001Z</time></trkpt><trkpt lat="41.273371588017014" lon="1.4546487456189443"><ele>225.0</ele><time>2026-05-04T16:25:38.001Z</time></trkpt><trkpt lat="41.27335580124347" lon="1.454813788379517"><ele>225.0</ele><time>2026-05-04T16:25:39.001Z</time></trkpt><trkpt lat="41.2733390681434" lon="1.4549790532228248"><ele>225.0</ele><time>2026-05-04T16:25:40.001Z</time></trkpt><trkpt lat="41.273320641987624" lon="1.4551401274997429"><ele>225.0</ele><time>2026-05-04T16:25:41.001Z</time></trkpt><trkpt lat="41.273297700198555" lon="1.455304964042769"><ele>225.0</ele><time>2026-05-04T16:25:42.001Z</time></trkpt><trkpt lat="41.273270908163276" lon="1.4554687519269187"><ele>223.5</ele><time>2026-05-04T16:25:43.001Z</time></trkpt><trkpt lat="41.27324214535893" lon="1.4556282396109976"><ele>222.0</ele><time>2026-05-04T16:25:44.001Z</time></trkpt><trkpt lat="41.27320884478549" lon="1.4557888378974957"><ele>220.5</ele><time>2026-05-04T16:25:45.001Z</time></trkpt><trkpt lat="41.273171186842205" lon="1.4559427532412479"><ele>219.0</ele><time>2026-05-04T16:25:46.001Z</time></trkpt><trkpt lat="41.27312970445715" lon="1.456095796499018"><ele>219.5</ele><time>2026-05-04T16:25:47.001Z</time></trkpt><trkpt lat="41.273086276466955" lon="1.45625031431476"><ele>220.0</ele><time>2026-05-04T16:25:48.001Z</time></trkpt><trkpt lat="41.273038436220574" lon="1.4564010212388472"><ele>220.5</ele><time>2026-05-04T16:25:49.001Z</time></trkpt><trkpt lat="41.272989213891805" lon="1.456550321431917"><ele>221.0</ele><time>2026-05-04T16:25:50.001Z</time></trkpt><trkpt lat="41.27293583767625" lon="1.4566948120576373"><ele>221.0</ele><time>2026-05-04T16:25:51.001Z</time></trkpt><trkpt lat="41.2728782542187" lon="1.456837626443192"><ele>221.0</ele><time>2026-05-04T16:25:52.001Z</time></trkpt><trkpt lat="41.272818386959464" lon="1.4569793412129846"><ele>221.0</ele><time>2026-05-04T16:25:53.001Z</time></trkpt><trkpt lat="41.27275478166635" lon="1.4571167901297017"><ele>221.0</ele><time>2026-05-04T16:25:54.001Z</time></trkpt><trkpt lat="41.27268911107327" lon="1.4572513675956142"><ele>218.0</ele><time>2026-05-04T16:25:55.001Z</time></trkpt><trkpt lat="41.27261943026361" lon="1.4573815571872826"><ele>215.0</ele><time>2026-05-04T16:25:56.001Z</time></trkpt><trkpt lat="41.272546295383805" lon="1.4575092466119848"><ele>212.0</ele><time>2026-05-04T16:25:57.001Z</time></trkpt><trkpt lat="41.2724714549601" lon="1.457635146308321"><ele>209.0</ele><time>2026-05-04T16:25:58.001Z</time></trkpt><trkpt lat="41.27239534955592" lon="1.4577582880027207"><ele>209.0</ele><time>2026-05-04T16:25:59Z</time></trkpt><trkpt lat="41.27231629357181" lon="1.457878177936605"><ele>209.0</ele><time>2026-05-04T16:26:00Z</time></trkpt><trkpt lat="41.272232265557015" lon="1.4579925946790488"><ele>209.0</ele><time>2026-05-04T16:26:01Z</time></trkpt><trkpt lat="41.27214650619763" lon="1.4581053816635956"><ele>209.0</ele><time>2026-05-04T16:26:02Z</time></trkpt><trkpt lat="41.2720595063923" lon="1.4582158313346782"><ele>208.0</ele><time>2026-05-04T16:26:03Z</time></trkpt><trkpt lat="41.271968615294" lon="1.4583237566512928"><ele>207.0</ele><time>2026-05-04T16:26:04Z</time></trkpt><trkpt lat="41.27187486194579" lon="1.4584282419241217"><ele>206.0</ele><time>2026-05-04T16:26:05Z</time></trkpt><trkpt lat="41.271779059231015" lon="1.4585297268126691"><ele>205.0</ele><time>2026-05-04T16:26:06Z</time></trkpt><trkpt lat="41.27168177831298" lon="1.4586286261526866"><ele>205.0</ele><time>2026-05-04T16:26:07Z</time></trkpt><trkpt lat="41.27158308530359" lon="1.4587222387148238"><ele>205.0</ele><time>2026-05-04T16:26:08Z</time></trkpt><trkpt lat="41.27148179432839" lon="1.4588133478078922"><ele>205.0</ele><time>2026-05-04T16:26:09Z</time></trkpt><trkpt lat="41.27138040860468" lon="1.4589022830526892"><ele>205.0</ele><time>2026-05-04T16:26:10Z</time></trkpt><trkpt lat="41.27127853680926" lon="1.458988379975499"><ele>204.0</ele><time>2026-05-04T16:26:11Z</time></trkpt><trkpt lat="41.271176153676016" lon="1.4590765405098711"><ele>203.0</ele><time>2026-05-04T16:26:12Z</time></trkpt><trkpt lat="41.27107233000054" lon="1.4591652363236736"><ele>202.0</ele><time>2026-05-04T16:26:13Z</time></trkpt><trkpt lat="41.27097238423357" lon="1.4592594743659408"><ele>201.0</ele><time>2026-05-04T16:26:14Z</time></trkpt><trkpt lat="41.27087345486898" lon="1.4593527728601383"><ele>201.0</ele><time>2026-05-04T16:26:15Z</time></trkpt><trkpt lat="41.27077429449337" lon="1.4594475580653155"><ele>201.0</ele><time>2026-05-04T16:26:16Z</time></trkpt><trkpt lat="41.27067514725509" lon="1.4595435882607732"><ele>201.0</ele><time>2026-05-04T16:26:17Z</time></trkpt><trkpt lat="41.270580040132344" lon="1.4596430517880479"><ele>201.0</ele><time>2026-05-04T16:26:18Z</time></trkpt><trkpt lat="41.27048830771511" lon="1.4597480702194907"><ele>199.75</ele><time>2026-05-04T16:26:19Z</time></trkpt><trkpt lat="41.270398506351015" lon="1.4598561623858037"><ele>198.5</ele><time>2026-05-04T16:26:20Z</time></trkpt><trkpt lat="41.270311569317386" lon="1.4599684995132975"><ele>197.25</ele><time>2026-05-04T16:26:21Z</time></trkpt><trkpt lat="41.27023017179779" lon="1.4600823814314037"><ele>196.0</ele><time>2026-05-04T16:26:22Z</time></trkpt><trkpt lat="41.270152674896615" lon="1.4602018979770726"><ele>196.0</ele><time>2026-05-04T16:26:23Z</time></trkpt><trkpt lat="41.270076587961334" lon="1.4603225811165976"><ele>196.0</ele><time>2026-05-04T16:26:24Z</time></trkpt><trkpt lat="41.27000370296703" lon="1.4604536836492688"><ele>196.0</ele><time>2026-05-04T16:26:25Z</time></trkpt><trkpt lat="41.269934847659016" lon="1.4605870253958975"><ele>196.0</ele><time>2026-05-04T16:26:26Z</time></trkpt><trkpt lat="41.26986617025366" lon="1.4607147446767816"><ele>196.0</ele><time>2026-05-04T16:26:27Z</time></trkpt><trkpt lat="41.269798197662375" lon="1.460844440015962"><ele>196.0</ele><time>2026-05-04T16:26:28Z</time></trkpt><trkpt lat="41.269732510754736" lon="1.460978083049103"><ele>196.0</ele><time>2026-05-04T16:26:29Z</time></trkpt><trkpt lat="41.269670883946034" lon="1.4611128963281568"><ele>196.0</ele><time>2026-05-04T16:26:30Z</time></trkpt><trkpt lat="41.269612394162365" lon="1.461252615868048"><ele>195.0</ele><time>2026-05-04T16:26:31Z</time></trkpt><trkpt lat="41.26955713239302" lon="1.4613937987290964"><ele>194.0</ele><time>2026-05-04T16:26:32Z</time></trkpt><trkpt lat="41.26950490831482" lon="1.461534669420339"><ele>193.0</ele><time>2026-05-04T16:26:33Z</time></trkpt><trkpt lat="41.26945281152423" lon="1.4616773073403573"><ele>192.0</ele><time>2026-05-04T16:26:34Z</time></trkpt><trkpt lat="41.269402235524865" lon="1.4618226269237427"><ele>192.0</ele><time>2026-05-04T16:26:35Z</time></trkpt><trkpt lat="41.26935377239699" lon="1.461967351114438"><ele>192.0</ele><time>2026-05-04T16:26:36Z</time></trkpt><trkpt lat="41.26930663329795" lon="1.462114338003572"><ele>192.0</ele><time>2026-05-04T16:26:37Z</time></trkpt><trkpt lat="41.269259049704246" lon="1.4622622740160922"><ele>192.0</ele><time>2026-05-04T16:26:38Z</time></trkpt><trkpt lat="41.2692108566996" lon="1.4624100829063194"><ele>190.75</ele><time>2026-05-04T16:26:39Z</time></trkpt><trkpt lat="41.269162151062325" lon="1.4625569659030886"><ele>189.5</ele><time>2026-05-04T16:26:40Z</time></trkpt><trkpt lat="41.26911363490997" lon="1.4627022407495485"><ele>188.25</ele><time>2026-05-04T16:26:41.001Z</time></trkpt><trkpt lat="41.26906182288209" lon="1.46285080475191"><ele>187.0</ele><time>2026-05-04T16:26:42.001Z</time></trkpt><trkpt lat="41.26901531851467" lon="1.4629957469928505"><ele>186.6</ele><time>2026-05-04T16:26:43.001Z</time></trkpt><trkpt lat="41.26897176478545" lon="1.4631357229347204"><ele>186.2</ele><time>2026-05-04T16:26:44.001Z</time></trkpt><trkpt lat="41.268920994873305" lon="1.4632541555058265"><ele>185.8</ele><time>2026-05-04T16:26:45.001Z</time></trkpt><trkpt lat="41.268883407413206" lon="1.4633729510503144"><ele>185.4</ele><time>2026-05-04T16:26:46.001Z</time></trkpt><trkpt lat="41.268845154471464" lon="1.4635194115305439"><ele>185.0</ele><time>2026-05-04T16:26:47.001Z</time></trkpt><trkpt lat="41.268791042718576" lon="1.4636264079524122"><ele>185.0</ele><time>2026-05-04T16:26:48.001Z</time></trkpt><trkpt lat="41.268710709151" lon="1.4636942859170772"><ele>185.0</ele><time>2026-05-04T16:26:49.001Z</time></trkpt><trkpt lat="41.268627022438984" lon="1.4637410971817055"><ele>185.0</ele><time>2026-05-04T16:26:50.001Z</time></trkpt><trkpt lat="41.26856365580165" lon="1.4638099988754996"><ele>185.0</ele><time>2026-05-04T16:26:51.001Z</time></trkpt><trkpt lat="41.26853550898589" lon="1.4639108568566073"><ele>185.0</ele><time>2026-05-04T16:26:52.001Z</time></trkpt><trkpt lat="41.26854291156546" lon="1.4640189908658174"><ele>185.0</ele><time>2026-05-04T16:26:53.001Z</time></trkpt><trkpt lat="41.26857412602971" lon="1.4641201290704797"><ele>184.66666666666666</ele><time>2026-05-04T16:26:54.001Z</time></trkpt><trkpt lat="41.26867117940445" lon="1.4641596721106267"><ele>184.33333333333331</ele><time>2026-05-04T16:26:55.001Z</time></trkpt><trkpt lat="41.268743575966546" lon="1.4641958843607332"><ele>184.0</ele><time>2026-05-04T16:26:56.001Z</time></trkpt><trkpt lat="41.268824607565236" lon="1.4641526798752809"><ele>183.66666666666666</ele><time>2026-05-04T16:26:57.001Z</time></trkpt><trkpt lat="41.26888246883894" lon="1.4640980058650694"><ele>183.33333333333334</ele><time>2026-05-04T16:26:58.001Z</time></trkpt><trkpt lat="41.26893666913518" lon="1.464024416208263"><ele>183.0</ele><time>2026-05-04T16:26:59.001Z</time></trkpt><trkpt lat="41.2689642158258" lon="1.4639281780405022"><ele>182.8</ele><time>2026-05-04T16:27:00.001Z</time></trkpt><trkpt lat="41.269004251458334" lon="1.463841992214407"><ele>182.60000000000002</ele><time>2026-05-04T16:27:01.001Z</time></trkpt><trkpt lat="41.2691682894424" lon="1.463888841003856"><ele>182.39999999999998</ele><time>2026-05-04T16:27:02.001Z</time></trkpt><trkpt lat="41.26926075486047" lon="1.463892484543145"><ele>182.2</ele><time>2026-05-04T16:27:03.001Z</time></trkpt><trkpt lat="41.26935645448804" lon="1.4639009942591354"><ele>182.0</ele><time>2026-05-04T16:27:04.001Z</time></trkpt><trkpt lat="41.269454655497384" lon="1.463899289179765"><ele>182.0</ele><time>2026-05-04T16:27:05.001Z</time></trkpt><trkpt lat="41.269554128496324" lon="1.4638957379831758"><ele>182.0</ele><time>2026-05-04T16:27:06.001Z</time></trkpt><trkpt lat="41.26965822649941" lon="1.4638900165987698"><ele>182.0</ele><time>2026-05-04T16:27:07.001Z</time></trkpt><trkpt lat="41.26976280015214" lon="1.4638822937765101"><ele>182.0</ele><time>2026-05-04T16:27:08.001Z</time></trkpt><trkpt lat="41.269877067628094" lon="1.4638780079819513"><ele>182.0</ele><time>2026-05-04T16:27:09.001Z</time></trkpt><trkpt lat="41.26998413218404" lon="1.463867471505462"><ele>182.2</ele><time>2026-05-04T16:27:10.001Z</time></trkpt><trkpt lat="41.2700892991343" lon="1.4638391897615377"><ele>182.39999999999998</ele><time>2026-05-04T16:27:11.001Z</time></trkpt><trkpt lat="41.270191531687644" lon="1.4637908198969316"><ele>182.60000000000002</ele><time>2026-05-04T16:27:12.001Z</time></trkpt><trkpt lat="41.27028683663667" lon="1.4637165605394313"><ele>182.8</ele><time>2026-05-04T16:27:13.001Z</time></trkpt><trkpt lat="41.270376266945384" lon="1.4636303044952594"><ele>183.0</ele><time>2026-05-04T16:27:14.001Z</time></trkpt><trkpt lat="41.27045433544545" lon="1.4635279516287358"><ele>183.25</ele><time>2026-05-04T16:27:15.001Z</time></trkpt><trkpt lat="41.27052820513539" lon="1.4634170484134115"><ele>183.5</ele><time>2026-05-04T16:27:16.001Z</time></trkpt><trkpt lat="41.27060526497915" lon="1.4633087214090426"><ele>183.75</ele><time>2026-05-04T16:27:17.001Z</time></trkpt><trkpt lat="41.270683259001345" lon="1.4632049569265193"><ele>184.0</ele><time>2026-05-04T16:27:18.001Z</time></trkpt><trkpt lat="41.27077599622112" lon="1.4631121717579374"><ele>184.0</ele><time>2026-05-04T16:27:19.001Z</time></trkpt><trkpt lat="41.270861671383614" lon="1.4630343346944623"><ele>184.0</ele><time>2026-05-04T16:27:20.001Z</time></trkpt><trkpt lat="41.27097550417384" lon="1.4629739140881652"><ele>184.0</ele><time>2026-05-04T16:27:21.001Z</time></trkpt><trkpt lat="41.271090147068264" lon="1.4629415942718527"><ele>184.0</ele><time>2026-05-04T16:27:22.001Z</time></trkpt><trkpt lat="41.27120920098494" lon="1.4629445374172043"><ele>184.0</ele><time>2026-05-04T16:27:23.001Z</time></trkpt><trkpt lat="41.27132569157751" lon="1.4629765443834704"><ele>184.0</ele><time>2026-05-04T16:27:24.001Z</time></trkpt><trkpt lat="41.27143507982097" lon="1.4630343857154784"><ele>184.0</ele><time>2026-05-04T16:27:25.001Z</time></trkpt><trkpt lat="41.27153766117957" lon="1.4631144169480819"><ele>184.0</ele><time>2026-05-04T16:27:26.001Z</time></trkpt><trkpt lat="41.2716277974482" lon="1.4632222678193891"><ele>184.25</ele><time>2026-05-04T16:27:27.001Z</time></trkpt><trkpt lat="41.27170609093646" lon="1.4633394648436953"><ele>184.5</ele><time>2026-05-04T16:27:28.001Z</time></trkpt><trkpt lat="41.27176562930822" lon="1.4634709937745178"><ele>184.75</ele><time>2026-05-04T16:27:29.001Z</time></trkpt><trkpt lat="41.27182030262323" lon="1.4636053605136354"><ele>185.0</ele><time>2026-05-04T16:27:30.001Z</time></trkpt><trkpt lat="41.27187464979357" lon="1.463732193582331"><ele>184.8</ele><time>2026-05-04T16:27:31.001Z</time></trkpt><trkpt lat="41.27193341058931" lon="1.4638758498266313"><ele>184.6</ele><time>2026-05-04T16:27:32.001Z</time></trkpt><trkpt lat="41.27197612228285" lon="1.4639995089627147"><ele>184.39999999999998</ele><time>2026-05-04T16:27:33.001Z</time></trkpt><trkpt lat="41.27202500067858" lon="1.4641267589297873"><ele>184.2</ele><time>2026-05-04T16:27:34.001Z</time></trkpt><trkpt lat="41.27207271040092" lon="1.4642553489158416"><ele>184.0</ele><time>2026-05-04T16:27:35.001Z</time></trkpt><trkpt lat="41.272118151962516" lon="1.4643885286359157"><ele>184.0</ele><time>2026-05-04T16:27:36.001Z</time></trkpt><trkpt lat="41.27215942040626" lon="1.4645172331182446"><ele>184.0</ele><time>2026-05-04T16:27:37.001Z</time></trkpt><trkpt lat="41.272202390500674" lon="1.4646455511550285"><ele>184.0</ele><time>2026-05-04T16:27:38.001Z</time></trkpt><trkpt lat="41.272246805419556" lon="1.4647743549283923"><ele>184.0</ele><time>2026-05-04T16:27:39.001Z</time></trkpt><trkpt lat="41.27228920056291" lon="1.4649030173324005"><ele>184.0</ele><time>2026-05-04T16:27:40.001Z</time></trkpt><trkpt lat="41.272333447513596" lon="1.4650290877699106"><ele>185.39999999999998</ele><time>2026-05-04T16:27:41.001Z</time></trkpt><trkpt lat="41.27237721987541" lon="1.465154029147024"><ele>186.8</ele><time>2026-05-04T16:27:42.001Z</time></trkpt><trkpt lat="41.27241911171889" lon="1.4652812297717028"><ele>188.2</ele><time>2026-05-04T16:27:43.001Z</time></trkpt><trkpt lat="41.272462506790156" lon="1.46540705471367"><ele>189.60000000000002</ele><time>2026-05-04T16:27:44.001Z</time></trkpt><trkpt lat="41.27250324695436" lon="1.4655332129050118"><ele>191.0</ele><time>2026-05-04T16:27:45.001Z</time></trkpt><trkpt lat="41.27254278055895" lon="1.465656568485288"><ele>191.0</ele><time>2026-05-04T16:27:46.001Z</time></trkpt><trkpt lat="41.272577915929354" lon="1.4657878446316996"><ele>191.0</ele><time>2026-05-04T16:27:47.001Z</time></trkpt><trkpt lat="41.27263011543977" lon="1.4659077755249146"><ele>191.0</ele><time>2026-05-04T16:27:48.001Z</time></trkpt><trkpt lat="41.27269115571587" lon="1.4660252354662833"><ele>191.0</ele><time>2026-05-04T16:27:49.001Z</time></trkpt><trkpt lat="41.272756348845" lon="1.4661421305501567"><ele>191.0</ele><time>2026-05-04T16:27:50.001Z</time></trkpt><trkpt lat="41.27282642307123" lon="1.4662559159733597"><ele>190.75</ele><time>2026-05-04T16:27:51.001Z</time></trkpt><trkpt lat="41.27290381041394" lon="1.4663795492387273"><ele>190.5</ele><time>2026-05-04T16:27:52.001Z</time></trkpt><trkpt lat="41.27297121012239" lon="1.4665016781506492"><ele>190.25</ele><time>2026-05-04T16:27:53.001Z</time></trkpt><trkpt lat="41.273035450908885" lon="1.4666298785960852"><ele>190.0</ele><time>2026-05-04T16:27:54.001Z</time></trkpt><trkpt lat="41.27310735227451" lon="1.4667590754389341"><ele>189.5</ele><time>2026-05-04T16:27:55.001Z</time></trkpt><trkpt lat="41.273179720888315" lon="1.4668894192823905"><ele>189.0</ele><time>2026-05-04T16:27:56.001Z</time></trkpt><trkpt lat="41.273251428225734" lon="1.467020855229489"><ele>188.5</ele><time>2026-05-04T16:27:57.001Z</time></trkpt><trkpt lat="41.27332776902255" lon="1.4671508312403594"><ele>188.0</ele><time>2026-05-04T16:27:58.001Z</time></trkpt><trkpt lat="41.27340038978802" lon="1.4672823935697223"><ele>187.25</ele><time>2026-05-04T16:27:59.001Z</time></trkpt><trkpt lat="41.27347336513842" lon="1.4674089040045966"><ele>186.5</ele><time>2026-05-04T16:28:00.001Z</time></trkpt><trkpt lat="41.273544508126626" lon="1.4675405036868026"><ele>185.75</ele><time>2026-05-04T16:28:01.001Z</time></trkpt><trkpt lat="41.273617618707014" lon="1.4676669510480795"><ele>185.0</ele><time>2026-05-04T16:28:02.001Z</time></trkpt><trkpt lat="41.27369022006361" lon="1.4677933892171364"><ele>185.0</ele><time>2026-05-04T16:28:03.001Z</time></trkpt><trkpt lat="41.27375436068961" lon="1.4679266381335454"><ele>185.0</ele><time>2026-05-04T16:28:04.001Z</time></trkpt><trkpt lat="41.2737923632116" lon="1.4680733982108265"><ele>185.0</ele><time>2026-05-04T16:28:05Z</time></trkpt><trkpt lat="41.273833473320096" lon="1.4682131244842993"><ele>185.0</ele><time>2026-05-04T16:28:06Z</time></trkpt><trkpt lat="41.273887387185034" lon="1.4683486346457442"><ele>184.25</ele><time>2026-05-04T16:28:07Z</time></trkpt><trkpt lat="41.273918599037394" lon="1.4684923248565551"><ele>183.5</ele><time>2026-05-04T16:28:08Z</time></trkpt><trkpt lat="41.27395434484038" lon="1.4686338803134473"><ele>182.75</ele><time>2026-05-04T16:28:09Z</time></trkpt><trkpt lat="41.27399125943395" lon="1.4687737301762922"><ele>182.0</ele><time>2026-05-04T16:28:10Z</time></trkpt><trkpt lat="41.27403289363084" lon="1.4689151456896874"><ele>182.0</ele><time>2026-05-04T16:28:11Z</time></trkpt><trkpt lat="41.27407572855695" lon="1.4690483987684733"><ele>182.0</ele><time>2026-05-04T16:28:12Z</time></trkpt><trkpt lat="41.27411895376955" lon="1.469197789318794"><ele>182.0</ele><time>2026-05-04T16:28:13Z</time></trkpt><trkpt lat="41.27416710576991" lon="1.469345499480817"><ele>182.0</ele><time>2026-05-04T16:28:14Z</time></trkpt><trkpt lat="41.274203461658374" lon="1.4694713570849787"><ele>182.0</ele><time>2026-05-04T16:28:15Z</time></trkpt><trkpt lat="41.27424057103594" lon="1.4696066138472987"><ele>182.0</ele><time>2026-05-04T16:28:16Z</time></trkpt><trkpt lat="41.27427307356365" lon="1.4697591734515503"><ele>182.0</ele><time>2026-05-04T16:28:17Z</time></trkpt><trkpt lat="41.27431465454566" lon="1.4698892835479107"><ele>182.0</ele><time>2026-05-04T16:28:18Z</time></trkpt><trkpt lat="41.274359686449095" lon="1.47002350924781"><ele>182.0</ele><time>2026-05-04T16:28:19Z</time></trkpt><trkpt lat="41.27440231071008" lon="1.470160232169215"><ele>181.75</ele><time>2026-05-04T16:28:20Z</time></trkpt><trkpt lat="41.274448715156595" lon="1.4702912310902403"><ele>181.5</ele><time>2026-05-04T16:28:21Z</time></trkpt><trkpt lat="41.2744891429322" lon="1.4704453054785664"><ele>181.25</ele><time>2026-05-04T16:28:22Z</time></trkpt><trkpt lat="41.27452751705214" lon="1.4705964779662661"><ele>181.0</ele><time>2026-05-04T16:28:23Z</time></trkpt><trkpt lat="41.274568385884464" lon="1.4707435059846965"><ele>180.25</ele><time>2026-05-04T16:28:24Z</time></trkpt><trkpt lat="41.274613273648775" lon="1.470890051317922"><ele>179.5</ele><time>2026-05-04T16:28:25Z</time></trkpt><trkpt lat="41.27465736450082" lon="1.4710398523570378"><ele>178.75</ele><time>2026-05-04T16:28:26Z</time></trkpt><trkpt lat="41.27469335245425" lon="1.471190742341171"><ele>178.0</ele><time>2026-05-04T16:28:27Z</time></trkpt><trkpt lat="41.274741905589075" lon="1.4713369066776987"><ele>178.25</ele><time>2026-05-04T16:28:28Z</time></trkpt><trkpt lat="41.27478423902308" lon="1.4714863126317816"><ele>178.5</ele><time>2026-05-04T16:28:29Z</time></trkpt><trkpt lat="41.27482471064237" lon="1.4716336298529182"><ele>178.75</ele><time>2026-05-04T16:28:30Z</time></trkpt><trkpt lat="41.27486833545409" lon="1.471777382298146"><ele>179.0</ele><time>2026-05-04T16:28:31Z</time></trkpt><trkpt lat="41.274916631568125" lon="1.4719154390356244"><ele>179.0</ele><time>2026-05-04T16:28:32Z</time></trkpt><trkpt lat="41.27498225517152" lon="1.4720381947202834"><ele>179.0</ele><time>2026-05-04T16:28:33Z</time></trkpt><trkpt lat="41.275060382894424" lon="1.4721316566621507"><ele>179.0</ele><time>2026-05-04T16:28:34Z</time></trkpt><trkpt lat="41.27515272855409" lon="1.4722225366224728"><ele>179.0</ele><time>2026-05-04T16:28:35Z</time></trkpt><trkpt lat="41.27525199790925" lon="1.4722951822128565"><ele>179.0</ele><time>2026-05-04T16:28:36Z</time></trkpt><trkpt lat="41.27534675876085" lon="1.4723657365464333"><ele>180.0</ele><time>2026-05-04T16:28:37Z</time></trkpt><trkpt lat="41.27543794874131" lon="1.4724326122964004"><ele>181.0</ele><time>2026-05-04T16:28:38Z</time></trkpt><trkpt lat="41.27552514715663" lon="1.4724987513940793"><ele>182.0</ele><time>2026-05-04T16:28:39Z</time></trkpt><trkpt lat="41.27561264441246" lon="1.472567854704616"><ele>183.0</ele><time>2026-05-04T16:28:40Z</time></trkpt><trkpt lat="41.275698667380055" lon="1.4726359572704002"><ele>184.0</ele><time>2026-05-04T16:28:41Z</time></trkpt><trkpt lat="41.27578539255748" lon="1.4727019261630725"><ele>184.0</ele><time>2026-05-04T16:28:42Z</time></trkpt><trkpt lat="41.275871868024375" lon="1.4727663439530303"><ele>184.0</ele><time>2026-05-04T16:28:43Z</time></trkpt><trkpt lat="41.27595473780328" lon="1.4728352555974722"><ele>184.0</ele><time>2026-05-04T16:28:44Z</time></trkpt><trkpt lat="41.276036245362675" lon="1.4729041831799192"><ele>184.0</ele><time>2026-05-04T16:28:45Z</time></trkpt><trkpt lat="41.276119253319585" lon="1.4729722247766277"><ele>184.0</ele><time>2026-05-04T16:28:46Z</time></trkpt><trkpt lat="41.27620532062594" lon="1.4730393063778988"><ele>184.79999999999998</ele><time>2026-05-04T16:28:47Z</time></trkpt><trkpt lat="41.2762880512185" lon="1.4731115147556877"><ele>185.6</ele><time>2026-05-04T16:28:48Z</time></trkpt><trkpt lat="41.27636127805663" lon="1.4731960107022757"><ele>186.4</ele><time>2026-05-04T16:28:49Z</time></trkpt><trkpt lat="41.27640499020206" lon="1.4733157973417832"><ele>187.2</ele><time>2026-05-04T16:28:50Z</time></trkpt><trkpt lat="41.276436317929786" lon="1.4734316977362185"><ele>188.0</ele><time>2026-05-04T16:28:51Z</time></trkpt><trkpt lat="41.27645037390045" lon="1.4735486156090494"><ele>188.0</ele><time>2026-05-04T16:28:52Z</time></trkpt><trkpt lat="41.27644968136142" lon="1.4736661646881455"><ele>188.0</ele><time>2026-05-04T16:28:53Z</time></trkpt><trkpt lat="41.27644328634955" lon="1.4737828253941103"><ele>188.0</ele><time>2026-05-04T16:28:54Z</time></trkpt><trkpt lat="41.276429490248205" lon="1.4738983702057056"><ele>188.0</ele><time>2026-05-04T16:28:55Z</time></trkpt><trkpt lat="41.27641880391677" lon="1.4740084154266413"><ele>188.0</ele><time>2026-05-04T16:28:56Z</time></trkpt><trkpt lat="41.276408042504215" lon="1.4741192338036149"><ele>188.0</ele><time>2026-05-04T16:28:57Z</time></trkpt><trkpt lat="41.27639711112461" lon="1.474231802519492"><ele>190.5</ele><time>2026-05-04T16:28:58.001Z</time></trkpt><trkpt lat="41.276386967657714" lon="1.4743411049296848"><ele>193.0</ele><time>2026-05-04T16:28:59.001Z</time></trkpt><trkpt lat="41.27639338666667" lon="1.4744517952534026"><ele>195.5</ele><time>2026-05-04T16:29:00.001Z</time></trkpt><trkpt lat="41.27638864493374" lon="1.4745623781738584"><ele>198.0</ele><time>2026-05-04T16:29:01.001Z</time></trkpt><trkpt lat="41.27638784747934" lon="1.4746646534129102"><ele>200.50000000000003</ele><time>2026-05-04T16:29:02.001Z</time></trkpt><trkpt lat="41.276391844441086" lon="1.4747758736329797"><ele>203.0</ele><time>2026-05-04T16:29:03.001Z</time></trkpt><trkpt lat="41.2763980476551" lon="1.4748791566393875"><ele>202.83333333333334</ele><time>2026-05-04T16:29:04.001Z</time></trkpt><trkpt lat="41.27641597954459" lon="1.4749857025239186"><ele>202.66666666666669</ele><time>2026-05-04T16:29:05.001Z</time></trkpt><trkpt lat="41.27643689158992" lon="1.475094111426906"><ele>202.5</ele><time>2026-05-04T16:29:06.001Z</time></trkpt><trkpt lat="41.2764732021389" lon="1.4751961102222746"><ele>202.33333333333331</ele><time>2026-05-04T16:29:07.001Z</time></trkpt><trkpt lat="41.27650362128572" lon="1.4752999404097853"><ele>202.16666666666666</ele><time>2026-05-04T16:29:08.001Z</time></trkpt><trkpt lat="41.27654199757328" lon="1.4754057144041957"><ele>202.0</ele><time>2026-05-04T16:29:09.001Z</time></trkpt><trkpt lat="41.2765820634815" lon="1.4755107418692328"><ele>202.0</ele><time>2026-05-04T16:29:10.001Z</time></trkpt><trkpt lat="41.276622907750884" lon="1.475611533907123"><ele>202.0</ele><time>2026-05-04T16:29:11.001Z</time></trkpt><trkpt lat="41.27666446258235" lon="1.4757230724360664"><ele>202.0</ele><time>2026-05-04T16:29:12.001Z</time></trkpt><trkpt lat="41.276703724253665" lon="1.4758367445978677"><ele>202.0</ele><time>2026-05-04T16:29:13.001Z</time></trkpt><trkpt lat="41.276744154941525" lon="1.4759496636473088"><ele>202.0</ele><time>2026-05-04T16:29:14.001Z</time></trkpt><trkpt lat="41.276784450786494" lon="1.4760705130525675"><ele>202.0</ele><time>2026-05-04T16:29:15.001Z</time></trkpt><trkpt lat="41.276824754354436" lon="1.4761859752156852"><ele>202.0</ele><time>2026-05-04T16:29:16.001Z</time></trkpt><trkpt lat="41.27686505563867" lon="1.4763076500720413"><ele>202.0</ele><time>2026-05-04T16:29:17.001Z</time></trkpt><trkpt lat="41.27690894912226" lon="1.47642709098183"><ele>202.0</ele><time>2026-05-04T16:29:18.001Z</time></trkpt><trkpt lat="41.27695198613601" lon="1.4765484062590777"><ele>202.0</ele><time>2026-05-04T16:29:19.001Z</time></trkpt><trkpt lat="41.27699568038966" lon="1.4766700295532291"><ele>202.0</ele><time>2026-05-04T16:29:20.001Z</time></trkpt><trkpt lat="41.27703724040045" lon="1.4767949973697958"><ele>202.0</ele><time>2026-05-04T16:29:21.001Z</time></trkpt><trkpt lat="41.27708129205039" lon="1.4769198593035109"><ele>202.0</ele><time>2026-05-04T16:29:22.001Z</time></trkpt><trkpt lat="41.2771206678184" lon="1.4770445127378793"><ele>202.0</ele><time>2026-05-04T16:29:23.001Z</time></trkpt><trkpt lat="41.277170348106544" lon="1.4771660347218163"><ele>202.0</ele><time>2026-05-04T16:29:24.001Z</time></trkpt><trkpt lat="41.277225906350985" lon="1.477286520999508"><ele>202.8</ele><time>2026-05-04T16:29:25.001Z</time></trkpt><trkpt lat="41.27728593077025" lon="1.4774014968313147"><ele>203.6</ele><time>2026-05-04T16:29:26.001Z</time></trkpt><trkpt lat="41.27735203495856" lon="1.4775132697186928"><ele>204.4</ele><time>2026-05-04T16:29:27.001Z</time></trkpt><trkpt lat="41.27742511347086" lon="1.4776186186337017"><ele>205.20000000000002</ele><time>2026-05-04T16:29:28.001Z</time></trkpt><trkpt lat="41.277501368630034" lon="1.477722469055439"><ele>206.0</ele><time>2026-05-04T16:29:29.001Z</time></trkpt><trkpt lat="41.27757632200072" lon="1.4778317731685244"><ele>205.0</ele><time>2026-05-04T16:29:30.001Z</time></trkpt><trkpt lat="41.27764859745245" lon="1.4779373214953677"><ele>204.0</ele><time>2026-05-04T16:29:31.001Z</time></trkpt><trkpt lat="41.27772050538951" lon="1.47804483777432"><ele>203.0</ele><time>2026-05-04T16:29:32.001Z</time></trkpt><trkpt lat="41.27779237511329" lon="1.478154796055968"><ele>202.0</ele><time>2026-05-04T16:29:33.001Z</time></trkpt><trkpt lat="41.277861593066305" lon="1.4782699500570429"><ele>201.0</ele><time>2026-05-04T16:29:34.001Z</time></trkpt><trkpt lat="41.2779271302237" lon="1.4783892722148864"><ele>201.0</ele><time>2026-05-04T16:29:35.001Z</time></trkpt><trkpt lat="41.27798573205643" lon="1.478514648955712"><ele>201.0</ele><time>2026-05-04T16:29:36.001Z</time></trkpt><trkpt lat="41.278040371913804" lon="1.4786450920121348"><ele>201.0</ele><time>2026-05-04T16:29:37.001Z</time></trkpt><trkpt lat="41.278090006346936" lon="1.4787782131126435"><ele>201.0</ele><time>2026-05-04T16:29:38.001Z</time></trkpt><trkpt lat="41.2781445926628" lon="1.4789179184697072"><ele>200.25</ele><time>2026-05-04T16:29:39.001Z</time></trkpt><trkpt lat="41.278199067320735" lon="1.4790545896556104"><ele>199.5</ele><time>2026-05-04T16:29:40.001Z</time></trkpt><trkpt lat="41.27825309614638" lon="1.4791868564993298"><ele>198.75</ele><time>2026-05-04T16:29:41.001Z</time></trkpt><trkpt lat="41.27830941884605" lon="1.4793199439731508"><ele>198.0</ele><time>2026-05-04T16:29:42.001Z</time></trkpt><trkpt lat="41.278365966958354" lon="1.479454524001414"><ele>198.0</ele><time>2026-05-04T16:29:43.001Z</time></trkpt><trkpt lat="41.27842269116991" lon="1.4795867902311404"><ele>198.0</ele><time>2026-05-04T16:29:44.001Z</time></trkpt><trkpt lat="41.27847766039015" lon="1.4797195532004763"><ele>198.0</ele><time>2026-05-04T16:29:45.001Z</time></trkpt><trkpt lat="41.27853509600415" lon="1.4798528512636193"><ele>198.0</ele><time>2026-05-04T16:29:46.001Z</time></trkpt><trkpt lat="41.2785886044552" lon="1.479984283304665"><ele>197.5</ele><time>2026-05-04T16:29:47.001Z</time></trkpt><trkpt lat="41.27864088702719" lon="1.4801221677984513"><ele>197.0</ele><time>2026-05-04T16:29:48.001Z</time></trkpt><trkpt lat="41.278697131722005" lon="1.4802563055959095"><ele>196.5</ele><time>2026-05-04T16:29:49.001Z</time></trkpt><trkpt lat="41.278751213168285" lon="1.4803897249259494"><ele>196.0</ele><time>2026-05-04T16:29:50.001Z</time></trkpt><trkpt lat="41.27880665519393" lon="1.4805469643109748"><ele>195.8</ele><time>2026-05-04T16:29:51.001Z</time></trkpt><trkpt lat="41.2788574994084" lon="1.4806578373187038"><ele>195.60000000000002</ele><time>2026-05-04T16:29:52.001Z</time></trkpt><trkpt lat="41.27890694237254" lon="1.480785694967185"><ele>195.4</ele><time>2026-05-04T16:29:53.001Z</time></trkpt><trkpt lat="41.27892865339309" lon="1.480930260944566"><ele>195.2</ele><time>2026-05-04T16:29:54.001Z</time></trkpt><trkpt lat="41.27895079358341" lon="1.4810692546817221"><ele>195.0</ele><time>2026-05-04T16:29:55.001Z</time></trkpt><trkpt lat="41.278958751711734" lon="1.4812112969267766"><ele>194.25</ele><time>2026-05-04T16:29:56.001Z</time></trkpt><trkpt lat="41.27895516355072" lon="1.4813584755346114"><ele>193.5</ele><time>2026-05-04T16:29:57.001Z</time></trkpt><trkpt lat="41.27895111230712" lon="1.4815069184999"><ele>192.75</ele><time>2026-05-04T16:29:58.001Z</time></trkpt><trkpt lat="41.278944826179014" lon="1.4816630352791087"><ele>192.0</ele><time>2026-05-04T16:29:59.001Z</time></trkpt><trkpt lat="41.27893862613731" lon="1.4818170146521883"><ele>192.5</ele><time>2026-05-04T16:30:00.001Z</time></trkpt><trkpt lat="41.27893256646978" lon="1.4819675098674003"><ele>193.0</ele><time>2026-05-04T16:30:01.001Z</time></trkpt><trkpt lat="41.27892709855926" lon="1.4821212791135758"><ele>193.5</ele><time>2026-05-04T16:30:02.001Z</time></trkpt><trkpt lat="41.27892158394169" lon="1.4822728876313016"><ele>194.0</ele><time>2026-05-04T16:30:03.001Z</time></trkpt><trkpt lat="41.278915971004814" lon="1.4824271989589954"><ele>192.25</ele><time>2026-05-04T16:30:04.001Z</time></trkpt><trkpt lat="41.278910360349066" lon="1.4825814477862649"><ele>190.5</ele><time>2026-05-04T16:30:05.001Z</time></trkpt><trkpt lat="41.278904767886836" lon="1.482735196246784"><ele>188.75</ele><time>2026-05-04T16:30:06.001Z</time></trkpt><trkpt lat="41.27889924427039" lon="1.4828870520114652"><ele>187.0</ele><time>2026-05-04T16:30:07.001Z</time></trkpt><trkpt lat="41.27889363220275" lon="1.4830413395986486"><ele>186.0</ele><time>2026-05-04T16:30:08.001Z</time></trkpt><trkpt lat="41.27888826566725" lon="1.4831899727278366"><ele>185.0</ele><time>2026-05-04T16:30:09.001Z</time></trkpt><trkpt lat="41.278882834238196" lon="1.483343887745829"><ele>184.0</ele><time>2026-05-04T16:30:10.001Z</time></trkpt><trkpt lat="41.27887750784419" lon="1.483494826178884"><ele>183.0</ele><time>2026-05-04T16:30:11Z</time></trkpt><trkpt lat="41.278872061752196" lon="1.4836491567219119"><ele>182.75</ele><time>2026-05-04T16:30:12Z</time></trkpt><trkpt lat="41.27886670174238" lon="1.4837992567585994"><ele>182.5</ele><time>2026-05-04T16:30:13Z</time></trkpt><trkpt lat="41.27886073420548" lon="1.483952197119527"><ele>182.25</ele><time>2026-05-04T16:30:14Z</time></trkpt><trkpt lat="41.27885507002969" lon="1.4840973626594702"><ele>182.0</ele><time>2026-05-04T16:30:15Z</time></trkpt><trkpt lat="41.2788652998058" lon="1.484259195307626"><ele>182.0</ele><time>2026-05-04T16:30:16Z</time></trkpt><trkpt lat="41.27885701034849" lon="1.4844095108763518"><ele>182.0</ele><time>2026-05-04T16:30:17Z</time></trkpt><trkpt lat="41.27883847306806" lon="1.484541968903402"><ele>182.0</ele><time>2026-05-04T16:30:18Z</time></trkpt><trkpt lat="41.27885744212948" lon="1.484688550024913"><ele>182.0</ele><time>2026-05-04T16:30:19Z</time></trkpt><trkpt lat="41.27885138926398" lon="1.484836319470792"><ele>182.0</ele><time>2026-05-04T16:30:20Z</time></trkpt><trkpt lat="41.278845074173454" lon="1.484985080291193"><ele>182.0</ele><time>2026-05-04T16:30:21Z</time></trkpt><trkpt lat="41.278838499004145" lon="1.4851336571599678"><ele>182.0</ele><time>2026-05-04T16:30:22Z</time></trkpt><trkpt lat="41.278811457891145" lon="1.4852844502801303"><ele>182.0</ele><time>2026-05-04T16:30:23Z</time></trkpt><trkpt lat="41.27880627523469" lon="1.4854253051669546"><ele>182.0</ele><time>2026-05-04T16:30:24Z</time></trkpt><trkpt lat="41.278800270269095" lon="1.485588508942995"><ele>182.0</ele><time>2026-05-04T16:30:25Z</time></trkpt><trkpt lat="41.2787945322145" lon="1.4857444584897208"><ele>182.0</ele><time>2026-05-04T16:30:26Z</time></trkpt><trkpt lat="41.278788853134614" lon="1.4858988052985496"><ele>182.0</ele><time>2026-05-04T16:30:27Z</time></trkpt><trkpt lat="41.27878359973941" lon="1.486041582703683"><ele>182.0</ele><time>2026-05-04T16:30:28Z</time></trkpt><trkpt lat="41.27879360015462" lon="1.4861931833966457"><ele>182.0</ele><time>2026-05-04T16:30:29Z</time></trkpt><trkpt lat="41.278788258698384" lon="1.486346877011087"><ele>182.0</ele><time>2026-05-04T16:30:30Z</time></trkpt><trkpt lat="41.27877017394206" lon="1.4864954210737389"><ele>182.0</ele><time>2026-05-04T16:30:31Z</time></trkpt><trkpt lat="41.2787666338415" lon="1.4866402146696582"><ele>182.0</ele><time>2026-05-04T16:30:32Z</time></trkpt><trkpt lat="41.27875954844622" lon="1.4867912805181338"><ele>182.0</ele><time>2026-05-04T16:30:33Z</time></trkpt><trkpt lat="41.278752637373934" lon="1.4869371972760685"><ele>182.0</ele><time>2026-05-04T16:30:34Z</time></trkpt><trkpt lat="41.27873492862185" lon="1.48708043302284"><ele>182.0</ele><time>2026-05-04T16:30:35Z</time></trkpt><trkpt lat="41.278693845353814" lon="1.4872138577020737"><ele>182.0</ele><time>2026-05-04T16:30:36Z</time></trkpt><trkpt lat="41.27862787274805" lon="1.4873352619888713"><ele>182.0</ele><time>2026-05-04T16:30:37Z</time></trkpt><trkpt lat="41.27855564281473" lon="1.487449638421241"><ele>181.2</ele><time>2026-05-04T16:30:38Z</time></trkpt><trkpt lat="41.27847414940372" lon="1.4875502717949853"><ele>180.39999999999998</ele><time>2026-05-04T16:30:39Z</time></trkpt><trkpt lat="41.278407281570146" lon="1.4876729914649434"><ele>179.60000000000002</ele><time>2026-05-04T16:30:40Z</time></trkpt><trkpt lat="41.27834460680868" lon="1.4877890883812308"><ele>178.8</ele><time>2026-05-04T16:30:41Z</time></trkpt><trkpt lat="41.27830434293459" lon="1.487918930425868"><ele>178.0</ele><time>2026-05-04T16:30:42Z</time></trkpt><trkpt lat="41.27829334427201" lon="1.4880541063868347"><ele>177.2</ele><time>2026-05-04T16:30:43Z</time></trkpt><trkpt lat="41.27827695829224" lon="1.4881905742037589"><ele>176.4</ele><time>2026-05-04T16:30:44Z</time></trkpt><trkpt lat="41.278303204577966" lon="1.4883230799721106"><ele>175.6</ele><time>2026-05-04T16:30:45Z</time></trkpt><trkpt lat="41.278331829819514" lon="1.4884571954447312"><ele>174.79999999999998</ele><time>2026-05-04T16:30:46Z</time></trkpt><trkpt lat="41.27833931145502" lon="1.4885891934251172"><ele>174.0</ele><time>2026-05-04T16:30:47Z</time></trkpt><trkpt lat="41.27828358282042" lon="1.488685168400783"><ele>174.0</ele><time>2026-05-04T16:30:48Z</time></trkpt><trkpt lat="41.27820830905951" lon="1.4887531905122884"><ele>174.0</ele><time>2026-05-04T16:30:49Z</time></trkpt><trkpt lat="41.27812134747165" lon="1.4888101719933842"><ele>174.0</ele><time>2026-05-04T16:30:50Z</time></trkpt><trkpt lat="41.27803650419329" lon="1.4888658046716037"><ele>174.0</ele><time>2026-05-04T16:30:51Z</time></trkpt><trkpt lat="41.27796150902654" lon="1.4889149305992435"><ele>174.0</ele><time>2026-05-04T16:30:52Z</time></trkpt><trkpt lat="41.27788766327412" lon="1.4889633035581153"><ele>174.0</ele><time>2026-05-04T16:30:53Z</time></trkpt><trkpt lat="41.27782306716518" lon="1.4890056175490305"><ele>173.83333333333334</ele><time>2026-05-04T16:30:54Z</time></trkpt><trkpt lat="41.277759725194436" lon="1.489047388820816"><ele>173.66666666666666</ele><time>2026-05-04T16:30:55Z</time></trkpt><trkpt lat="41.277702178506075" lon="1.4890854926476678"><ele>173.5</ele><time>2026-05-04T16:30:56Z</time></trkpt><trkpt lat="41.27759960872771" lon="1.4891534079552327"><ele>173.33333333333331</ele><time>2026-05-04T16:30:58Z</time></trkpt><trkpt lat="41.27751000255997" lon="1.4892089356531935"><ele>173.16666666666666</ele><time>2026-05-04T16:31:00Z</time></trkpt><trkpt lat="41.27743894208183" lon="1.4892520418793442"><ele>173.0</ele><time>2026-05-04T16:31:02Z</time></trkpt><trkpt lat="41.277382607563275" lon="1.489292099351614"><ele>173.0</ele><time>2026-05-04T16:31:05Z</time></trkpt><trkpt lat="41.27732779670032" lon="1.489338660791163"><ele>173.0</ele><time>2026-05-04T16:31:20.001Z</time></trkpt><trkpt lat="41.277254118731015" lon="1.489415549465632"><ele>173.0</ele><time>2026-05-04T16:31:23.001Z</time></trkpt><trkpt lat="41.2771859413022" lon="1.4895290489333366"><ele>173.0</ele><time>2026-05-04T16:31:25.001Z</time></trkpt><trkpt lat="41.27715769052671" lon="1.489616309748959"><ele>173.0</ele><time>2026-05-04T16:31:26.001Z</time></trkpt><trkpt lat="41.277145520735445" lon="1.4897146748471648"><ele>173.0</ele><time>2026-05-04T16:31:27.001Z</time></trkpt><trkpt lat="41.277173501944226" lon="1.4898220591927336"><ele>173.60000000000002</ele><time>2026-05-04T16:31:28.001Z</time></trkpt><trkpt lat="41.2771999824878" lon="1.4899264724306176"><ele>174.20000000000002</ele><time>2026-05-04T16:31:29.001Z</time></trkpt><trkpt lat="41.27722780590961" lon="1.4900385939217564"><ele>174.8</ele><time>2026-05-04T16:31:30.001Z</time></trkpt><trkpt lat="41.277256454326505" lon="1.490152398821424"><ele>175.4</ele><time>2026-05-04T16:31:31.001Z</time></trkpt><trkpt lat="41.27728578813087" lon="1.4902748572563616"><ele>176.0</ele><time>2026-05-04T16:31:32.001Z</time></trkpt><trkpt lat="41.27731573809849" lon="1.4903974755278586"><ele>176.4</ele><time>2026-05-04T16:31:33.001Z</time></trkpt><trkpt lat="41.277351751733384" lon="1.4905218223468315"><ele>176.8</ele><time>2026-05-04T16:31:34.001Z</time></trkpt><trkpt lat="41.27738557071279" lon="1.4906483078167478"><ele>177.20000000000002</ele><time>2026-05-04T16:31:35.001Z</time></trkpt><trkpt lat="41.2774159363877" lon="1.4907764885099488"><ele>177.60000000000002</ele><time>2026-05-04T16:31:36.001Z</time></trkpt><trkpt lat="41.27745017082218" lon="1.4909008244504895"><ele>178.0</ele><time>2026-05-04T16:31:37.001Z</time></trkpt><trkpt lat="41.277480954762" lon="1.4910261184885094"><ele>178.0</ele><time>2026-05-04T16:31:38.001Z</time></trkpt><trkpt lat="41.277511940868685" lon="1.4911512878025703"><ele>178.0</ele><time>2026-05-04T16:31:39.001Z</time></trkpt><trkpt lat="41.2775454872929" lon="1.4912764219881622"><ele>178.0</ele><time>2026-05-04T16:31:40.001Z</time></trkpt><trkpt lat="41.27757953585168" lon="1.4914049585531188"><ele>178.0</ele><time>2026-05-04T16:31:41.001Z</time></trkpt><trkpt lat="41.27761540993414" lon="1.4915322778065268"><ele>178.0</ele><time>2026-05-04T16:31:42.001Z</time></trkpt><trkpt lat="41.27765021685957" lon="1.4916619329643805"><ele>177.4</ele><time>2026-05-04T16:31:43.001Z</time></trkpt><trkpt lat="41.27768315302398" lon="1.4917923383959593"><ele>176.8</ele><time>2026-05-04T16:31:44.001Z</time></trkpt><trkpt lat="41.277715988558214" lon="1.4919217304680075"><ele>176.2</ele><time>2026-05-04T16:31:45.001Z</time></trkpt><trkpt lat="41.27775103916874" lon="1.4920516884674768"><ele>175.6</ele><time>2026-05-04T16:31:46.001Z</time></trkpt><trkpt lat="41.277786532680786" lon="1.4921803373022486"><ele>175.0</ele><time>2026-05-04T16:31:47.001Z</time></trkpt><trkpt lat="41.27781970536428" lon="1.492308026391388"><ele>174.2</ele><time>2026-05-04T16:31:48.001Z</time></trkpt><trkpt lat="41.277855183668166" lon="1.4924411931998287"><ele>173.4</ele><time>2026-05-04T16:31:49.001Z</time></trkpt><trkpt lat="41.27788711488165" lon="1.4925683453193348"><ele>172.60000000000002</ele><time>2026-05-04T16:31:50.001Z</time></trkpt><trkpt lat="41.27792268107084" lon="1.4927011435702011"><ele>171.8</ele><time>2026-05-04T16:31:51.001Z</time></trkpt><trkpt lat="41.277960202502314" lon="1.492826403230118"><ele>171.0</ele><time>2026-05-04T16:31:52.001Z</time></trkpt><trkpt lat="41.277979238836416" lon="1.4929619896042239"><ele>170.60000000000002</ele><time>2026-05-04T16:31:53.001Z</time></trkpt><trkpt lat="41.278025949958455" lon="1.4930881939946474"><ele>170.2</ele><time>2026-05-04T16:31:54.001Z</time></trkpt><trkpt lat="41.27805815786855" lon="1.4932168347699708"><ele>169.8</ele><time>2026-05-04T16:31:55.001Z</time></trkpt><trkpt lat="41.27809093172603" lon="1.493346957455385"><ele>169.39999999999998</ele><time>2026-05-04T16:31:56.001Z</time></trkpt><trkpt lat="41.27812632206583" lon="1.4934759196347873"><ele>169.0</ele><time>2026-05-04T16:31:57.001Z</time></trkpt><trkpt lat="41.27816043917195" lon="1.49360820173344"><ele>169.0</ele><time>2026-05-04T16:31:58.001Z</time></trkpt><trkpt lat="41.278197403320476" lon="1.4937357791399934"><ele>169.0</ele><time>2026-05-04T16:31:59.001Z</time></trkpt><trkpt lat="41.278233739692794" lon="1.4938670094953708"><ele>169.0</ele><time>2026-05-04T16:32:00.001Z</time></trkpt><trkpt lat="41.27825648434597" lon="1.4939987286147687"><ele>169.0</ele><time>2026-05-04T16:32:01.001Z</time></trkpt><trkpt lat="41.278260784253085" lon="1.4941265686251575"><ele>169.0</ele><time>2026-05-04T16:32:02.001Z</time></trkpt><trkpt lat="41.27823048081509" lon="1.4942639811127323"><ele>168.79999999999998</ele><time>2026-05-04T16:32:03.001Z</time></trkpt><trkpt lat="41.27824686385086" lon="1.4944026777946953"><ele>168.6</ele><time>2026-05-04T16:32:04.001Z</time></trkpt><trkpt lat="41.27831778189674" lon="1.4945166877237173"><ele>168.4</ele><time>2026-05-04T16:32:05.001Z</time></trkpt><trkpt lat="41.278375565438225" lon="1.494627160396714"><ele>168.2</ele><time>2026-05-04T16:32:06.001Z</time></trkpt><trkpt lat="41.27845663381539" lon="1.494723911041891"><ele>168.0</ele><time>2026-05-04T16:32:07.001Z</time></trkpt><trkpt lat="41.27849114488349" lon="1.4948675971461873"><ele>167.8</ele><time>2026-05-04T16:32:08.001Z</time></trkpt><trkpt lat="41.27852728751625" lon="1.4950018289136329"><ele>167.60000000000002</ele><time>2026-05-04T16:32:09.001Z</time></trkpt><trkpt lat="41.27856152654739" lon="1.495140818450789"><ele>167.39999999999998</ele><time>2026-05-04T16:32:10.001Z</time></trkpt><trkpt lat="41.2785959476351" lon="1.4952785126515271"><ele>167.2</ele><time>2026-05-04T16:32:11.001Z</time></trkpt><trkpt lat="41.2786317098644" lon="1.4954118674259735"><ele>167.0</ele><time>2026-05-04T16:32:12.001Z</time></trkpt><trkpt lat="41.278660276526374" lon="1.495547997081305"><ele>167.39999999999998</ele><time>2026-05-04T16:32:13.001Z</time></trkpt><trkpt lat="41.27869513322661" lon="1.4956794834185614"><ele>167.79999999999998</ele><time>2026-05-04T16:32:14.001Z</time></trkpt><trkpt lat="41.27872382429206" lon="1.4958137840696837"><ele>168.2</ele><time>2026-05-04T16:32:15.001Z</time></trkpt><trkpt lat="41.27874819807729" lon="1.4959472655892256"><ele>168.6</ele><time>2026-05-04T16:32:16.001Z</time></trkpt><trkpt lat="41.27876808393497" lon="1.4960842240398877"><ele>169.0</ele><time>2026-05-04T16:32:17Z</time></trkpt><trkpt lat="41.278764477462424" lon="1.4962197148145637"><ele>169.0</ele><time>2026-05-04T16:32:18Z</time></trkpt><trkpt lat="41.27877731925738" lon="1.4963549781676133"><ele>169.0</ele><time>2026-05-04T16:32:19Z</time></trkpt><trkpt lat="41.2787885450675" lon="1.4964883151674853"><ele>169.0</ele><time>2026-05-04T16:32:20Z</time></trkpt><trkpt lat="41.27879921376308" lon="1.4966213566648807"><ele>169.0</ele><time>2026-05-04T16:32:21Z</time></trkpt><trkpt lat="41.27882631491598" lon="1.4967525653637783"><ele>169.0</ele><time>2026-05-04T16:32:22Z</time></trkpt><trkpt lat="41.2788311435241" lon="1.4968882905993304"><ele>169.0</ele><time>2026-05-04T16:32:23Z</time></trkpt><trkpt lat="41.27884080446894" lon="1.4970201529471256"><ele>169.0</ele><time>2026-05-04T16:32:24Z</time></trkpt><trkpt lat="41.27884795278531" lon="1.4971516485938956"><ele>169.0</ele><time>2026-05-04T16:32:25Z</time></trkpt><trkpt lat="41.27886581896172" lon="1.497287244122146"><ele>169.0</ele><time>2026-05-04T16:32:26Z</time></trkpt><trkpt lat="41.27887873731833" lon="1.4974128159315225"><ele>169.0</ele><time>2026-05-04T16:32:27Z</time></trkpt><trkpt lat="41.27887421528659" lon="1.497549530421624"><ele>169.0</ele><time>2026-05-04T16:32:28Z</time></trkpt><trkpt lat="41.27888540040926" lon="1.4976837741234261"><ele>169.0</ele><time>2026-05-04T16:32:29Z</time></trkpt><trkpt lat="41.27891306708544" lon="1.4978170543211338"><ele>169.0</ele><time>2026-05-04T16:32:30Z</time></trkpt><trkpt lat="41.27892225211392" lon="1.4979501363320789"><ele>169.0</ele><time>2026-05-04T16:32:31Z</time></trkpt><trkpt lat="41.27893177941638" lon="1.4980860584969171"><ele>169.0</ele><time>2026-05-04T16:32:32Z</time></trkpt><trkpt lat="41.27893895067137" lon="1.4982231693994434"><ele>169.2</ele><time>2026-05-04T16:32:33Z</time></trkpt><trkpt lat="41.27894801295236" lon="1.4983588177476406"><ele>169.39999999999998</ele><time>2026-05-04T16:32:34Z</time></trkpt><trkpt lat="41.27895918980597" lon="1.4984909419386654"><ele>169.6</ele><time>2026-05-04T16:32:35Z</time></trkpt><trkpt lat="41.278968561382534" lon="1.498615263450588"><ele>169.8</ele><time>2026-05-04T16:32:36Z</time></trkpt><trkpt lat="41.278972104130155" lon="1.4987340070039776"><ele>170.0</ele><time>2026-05-04T16:32:37Z</time></trkpt><trkpt lat="41.278967703996024" lon="1.498846973270796"><ele>170.0</ele><time>2026-05-04T16:32:38Z</time></trkpt><trkpt lat="41.2789528831545" lon="1.4989490466224131"><ele>170.0</ele><time>2026-05-04T16:32:39Z</time></trkpt><trkpt lat="41.2789313370993" lon="1.4990475992703023"><ele>170.0</ele><time>2026-05-04T16:32:40Z</time></trkpt><trkpt lat="41.278903950601375" lon="1.4991483345901837"><ele>170.0</ele><time>2026-05-04T16:32:41Z</time></trkpt><trkpt lat="41.27887839741662" lon="1.499257192629707"><ele>170.0</ele><time>2026-05-04T16:32:42Z</time></trkpt><trkpt lat="41.278870141172256" lon="1.499375716176725"><ele>170.0</ele><time>2026-05-04T16:32:43Z</time></trkpt><trkpt lat="41.27890371513277" lon="1.4994935134080756"><ele>169.8</ele><time>2026-05-04T16:32:44Z</time></trkpt><trkpt lat="41.27896008536005" lon="1.4995977964459872"><ele>169.6</ele><time>2026-05-04T16:32:45Z</time></trkpt><trkpt lat="41.27904906853433" lon="1.4996514108008085"><ele>169.39999999999998</ele><time>2026-05-04T16:32:46Z</time></trkpt><trkpt lat="41.27906380879896" lon="1.499819196759509"><ele>169.2</ele><time>2026-05-04T16:32:47Z</time></trkpt><trkpt lat="41.2790791388458" lon="1.4999526425040446"><ele>169.0</ele><time>2026-05-04T16:32:48Z</time></trkpt><trkpt lat="41.279093576328435" lon="1.5000848893274654"><ele>169.0</ele><time>2026-05-04T16:32:49Z</time></trkpt><trkpt lat="41.27910655638325" lon="1.5002207649462937"><ele>169.0</ele><time>2026-05-04T16:32:50Z</time></trkpt><trkpt lat="41.279120976726865" lon="1.5003593152796313"><ele>169.0</ele><time>2026-05-04T16:32:51Z</time></trkpt><trkpt lat="41.27911627149308" lon="1.5005025561657956"><ele>169.0</ele><time>2026-05-04T16:32:52Z</time></trkpt><trkpt lat="41.27912819062584" lon="1.5006466085166914"><ele>169.0</ele><time>2026-05-04T16:32:53Z</time></trkpt><trkpt lat="41.27915410527566" lon="1.5007888407979555"><ele>169.0</ele><time>2026-05-04T16:32:54Z</time></trkpt><trkpt lat="41.27916434068026" lon="1.500931975346286"><ele>169.0</ele><time>2026-05-04T16:32:55Z</time></trkpt><trkpt lat="41.27917615685704" lon="1.5010763760402295"><ele>169.0</ele><time>2026-05-04T16:32:56Z</time></trkpt><trkpt lat="41.27918869722744" lon="1.501221302367568"><ele>169.0</ele><time>2026-05-04T16:32:57Z</time></trkpt><trkpt lat="41.27920051417445" lon="1.5013666753753911"><ele>169.0</ele><time>2026-05-04T16:32:58Z</time></trkpt><trkpt lat="41.279211643451575" lon="1.5015124351028049"><ele>169.0</ele><time>2026-05-04T16:32:59Z</time></trkpt><trkpt lat="41.27922491602807" lon="1.5016567351263619"><ele>169.0</ele><time>2026-05-04T16:33:00Z</time></trkpt><trkpt lat="41.27923617520242" lon="1.5017999933709754"><ele>169.0</ele><time>2026-05-04T16:33:01Z</time></trkpt><trkpt lat="41.27924798942558" lon="1.501943240765036"><ele>169.0</ele><time>2026-05-04T16:33:02Z</time></trkpt><trkpt lat="41.27926185902332" lon="1.5020859098025532"><ele>169.0</ele><time>2026-05-04T16:33:03Z</time></trkpt><trkpt lat="41.2792748985862" lon="1.502231372594961"><ele>168.6</ele><time>2026-05-04T16:33:04Z</time></trkpt><trkpt lat="41.27927054034129" lon="1.5023802763639709"><ele>168.2</ele><time>2026-05-04T16:33:05Z</time></trkpt><trkpt lat="41.279282042196634" lon="1.5025276253603874"><ele>167.79999999999998</ele><time>2026-05-04T16:33:06Z</time></trkpt><trkpt lat="41.279293476037815" lon="1.5026741029723703"><ele>167.39999999999998</ele><time>2026-05-04T16:33:07Z</time></trkpt><trkpt lat="41.27930508380126" lon="1.5028228086829698"><ele>167.0</ele><time>2026-05-04T16:33:08Z</time></trkpt><trkpt lat="41.27932943549394" lon="1.5029708585357773"><ele>166.66666666666666</ele><time>2026-05-04T16:33:09Z</time></trkpt><trkpt lat="41.27933868659099" lon="1.503099617406429"><ele>166.33333333333334</ele><time>2026-05-04T16:33:10Z</time></trkpt><trkpt lat="41.27940673029314" lon="1.503550808287033"><ele>166.0</ele><time>2026-05-04T16:33:13Z</time></trkpt><trkpt lat="41.279438323144845" lon="1.5036929068019755"><ele>166.5</ele><time>2026-05-04T16:33:14Z</time></trkpt><trkpt lat="41.27947164045109" lon="1.5038353785563485"><ele>167.0</ele><time>2026-05-04T16:33:15Z</time></trkpt><trkpt lat="41.27950216227624" lon="1.5039779266456663"><ele>167.5</ele><time>2026-05-04T16:33:16Z</time></trkpt><trkpt lat="41.27953344159472" lon="1.5041272927722482"><ele>168.0</ele><time>2026-05-04T16:33:17Z</time></trkpt><trkpt lat="41.27956776030012" lon="1.504267005549796"><ele>168.0</ele><time>2026-05-04T16:33:18Z</time></trkpt><trkpt lat="41.27959957347885" lon="1.5044155194755353"><ele>168.0</ele><time>2026-05-04T16:33:19Z</time></trkpt><trkpt lat="41.279638092602475" lon="1.5045604704660316"><ele>168.0</ele><time>2026-05-04T16:33:20Z</time></trkpt><trkpt lat="41.279666699420076" lon="1.5047062771746271"><ele>168.0</ele><time>2026-05-04T16:33:21Z</time></trkpt><trkpt lat="41.27970154265149" lon="1.5048504996628511"><ele>168.0</ele><time>2026-05-04T16:33:22Z</time></trkpt><trkpt lat="41.27973289865117" lon="1.5049945201989499"><ele>168.0</ele><time>2026-05-04T16:33:23Z</time></trkpt><trkpt lat="41.27976108829687" lon="1.5051219475453246"><ele>168.0</ele><time>2026-05-04T16:33:24Z</time></trkpt><trkpt lat="41.2798005719579" lon="1.5052765298285802"><ele>168.0</ele><time>2026-05-04T16:33:25Z</time></trkpt><trkpt lat="41.27982584071149" lon="1.5054008205103335"><ele>168.0</ele><time>2026-05-04T16:33:26Z</time></trkpt><trkpt lat="41.27986064381355" lon="1.505555598812145"><ele>168.0</ele><time>2026-05-04T16:33:27Z</time></trkpt><trkpt lat="41.27989655950421" lon="1.5057308729067678"><ele>168.0</ele><time>2026-05-04T16:33:28.001Z</time></trkpt><trkpt lat="41.279934925876574" lon="1.5058690250066356"><ele>168.0</ele><time>2026-05-04T16:33:29.001Z</time></trkpt><trkpt lat="41.27996880450073" lon="1.5060133380416763"><ele>168.0</ele><time>2026-05-04T16:33:30.001Z</time></trkpt><trkpt lat="41.28000450039335" lon="1.5061519630686633"><ele>167.8</ele><time>2026-05-04T16:33:31.001Z</time></trkpt><trkpt lat="41.280038451671686" lon="1.5062944546091912"><ele>167.60000000000002</ele><time>2026-05-04T16:33:32.001Z</time></trkpt><trkpt lat="41.280069705391575" lon="1.506434015976622"><ele>167.39999999999998</ele><time>2026-05-04T16:33:33.001Z</time></trkpt><trkpt lat="41.28009653648306" lon="1.5065681120428611"><ele>167.2</ele><time>2026-05-04T16:33:34.001Z</time></trkpt><trkpt lat="41.280128832945884" lon="1.5067044973289234"><ele>167.0</ele><time>2026-05-04T16:33:35.001Z</time></trkpt><trkpt lat="41.280157580394764" lon="1.5068354591556383"><ele>167.0</ele><time>2026-05-04T16:33:36.001Z</time></trkpt><trkpt lat="41.28019205509224" lon="1.5069719204989296"><ele>167.0</ele><time>2026-05-04T16:33:37.001Z</time></trkpt><trkpt lat="41.28022411776031" lon="1.5071114801925694"><ele>167.0</ele><time>2026-05-04T16:33:38.001Z</time></trkpt><trkpt lat="41.280256481165836" lon="1.5072519030743425"><ele>167.0</ele><time>2026-05-04T16:33:39.001Z</time></trkpt><trkpt lat="41.28028943436972" lon="1.5073904305883694"><ele>167.0</ele><time>2026-05-04T16:33:40.001Z</time></trkpt><trkpt lat="41.280324513574826" lon="1.5075308337328654"><ele>167.25</ele><time>2026-05-04T16:33:41.001Z</time></trkpt><trkpt lat="41.28035522611627" lon="1.507675535968792"><ele>167.5</ele><time>2026-05-04T16:33:42.001Z</time></trkpt><trkpt lat="41.280390666513284" lon="1.507817313170368"><ele>167.75</ele><time>2026-05-04T16:33:43.001Z</time></trkpt><trkpt lat="41.2804174582913" lon="1.5079631781694556"><ele>168.0</ele><time>2026-05-04T16:33:44.001Z</time></trkpt><trkpt lat="41.28045278615469" lon="1.508105756309885"><ele>168.0</ele><time>2026-05-04T16:33:45.001Z</time></trkpt><trkpt lat="41.28048539485876" lon="1.5082449094446868"><ele>168.0</ele><time>2026-05-04T16:33:46.001Z</time></trkpt><trkpt lat="41.28051898506705" lon="1.508388561731688"><ele>168.0</ele><time>2026-05-04T16:33:47.001Z</time></trkpt><trkpt lat="41.2805534227198" lon="1.5085231174192144"><ele>168.0</ele><time>2026-05-04T16:33:48.001Z</time></trkpt><trkpt lat="41.28058184648392" lon="1.508665473435392"><ele>168.0</ele><time>2026-05-04T16:33:49.001Z</time></trkpt><trkpt lat="41.28061358143563" lon="1.5088058451784092"><ele>169.2</ele><time>2026-05-04T16:33:50.001Z</time></trkpt><trkpt lat="41.28064873311628" lon="1.5089464989336057"><ele>170.4</ele><time>2026-05-04T16:33:51.001Z</time></trkpt><trkpt lat="41.28068339305591" lon="1.5090853838663443"><ele>171.6</ele><time>2026-05-04T16:33:52.001Z</time></trkpt><trkpt lat="41.280715352019875" lon="1.5092259928767646"><ele>172.79999999999998</ele><time>2026-05-04T16:33:53.001Z</time></trkpt><trkpt lat="41.280747056778665" lon="1.5093662577285194"><ele>174.0</ele><time>2026-05-04T16:33:54.001Z</time></trkpt><trkpt lat="41.28077386108094" lon="1.5095083322126843"><ele>174.0</ele><time>2026-05-04T16:33:55.001Z</time></trkpt><trkpt lat="41.280807757683405" lon="1.5096491978905346"><ele>174.0</ele><time>2026-05-04T16:33:56.001Z</time></trkpt><trkpt lat="41.280839706447495" lon="1.5097874440133283"><ele>174.0</ele><time>2026-05-04T16:33:57.001Z</time></trkpt><trkpt lat="41.280871751241136" lon="1.5099284095055947"><ele>174.0</ele><time>2026-05-04T16:33:58.001Z</time></trkpt><trkpt lat="41.28089692185932" lon="1.5100713459397188"><ele>174.0</ele><time>2026-05-04T16:33:59.001Z</time></trkpt><trkpt lat="41.28092301269725" lon="1.5102168522455268"><ele>174.0</ele><time>2026-05-04T16:34:00.001Z</time></trkpt><trkpt lat="41.28095075637496" lon="1.510358766005982"><ele>174.0</ele><time>2026-05-04T16:34:01.001Z</time></trkpt><trkpt lat="41.28097623541516" lon="1.51050366831858"><ele>174.0</ele><time>2026-05-04T16:34:02.001Z</time></trkpt><trkpt lat="41.2809909763104" lon="1.5106421378365884"><ele>174.0</ele><time>2026-05-04T16:34:03.001Z</time></trkpt><trkpt lat="41.28101000613039" lon="1.5108053248063142"><ele>174.0</ele><time>2026-05-04T16:34:04.001Z</time></trkpt><trkpt lat="41.281034392889815" lon="1.5109582380647142"><ele>174.0</ele><time>2026-05-04T16:34:05.001Z</time></trkpt><trkpt lat="41.2810690009946" lon="1.5111826665572028"><ele>174.0</ele><time>2026-05-04T16:34:06.001Z</time></trkpt><trkpt lat="41.28110080913696" lon="1.511388594354042"><ele>174.0</ele><time>2026-05-04T16:34:08.001Z</time></trkpt><trkpt lat="41.28112433320053" lon="1.5115358257018388"><ele>174.0</ele><time>2026-05-04T16:34:09.001Z</time></trkpt><trkpt lat="41.281148057244565" lon="1.5116843087560385"><ele>174.0</ele><time>2026-05-04T16:34:10.001Z</time></trkpt><trkpt lat="41.28117170847539" lon="1.5118323361054573"><ele>174.0</ele><time>2026-05-04T16:34:11.001Z</time></trkpt><trkpt lat="41.28121110788964" lon="1.5119734211505145"><ele>174.0</ele><time>2026-05-04T16:34:12.001Z</time></trkpt><trkpt lat="41.28123251616244" lon="1.51211653194101"><ele>174.39999999999998</ele><time>2026-05-04T16:34:13.001Z</time></trkpt><trkpt lat="41.28124118122723" lon="1.5122671491900361"><ele>174.8</ele><time>2026-05-04T16:34:14.001Z</time></trkpt><trkpt lat="41.2812638983717" lon="1.5124093302828323"><ele>175.2</ele><time>2026-05-04T16:34:15.001Z</time></trkpt><trkpt lat="41.281286971611046" lon="1.512553740090566"><ele>175.60000000000002</ele><time>2026-05-04T16:34:16.001Z</time></trkpt><trkpt lat="41.28132580178943" lon="1.512691585126682"><ele>176.0</ele><time>2026-05-04T16:34:17.001Z</time></trkpt><trkpt lat="41.28134683967583" lon="1.512838079331813"><ele>176.0</ele><time>2026-05-04T16:34:18.001Z</time></trkpt><trkpt lat="41.281371423427956" lon="1.5129800193987069"><ele>176.0</ele><time>2026-05-04T16:34:19.001Z</time></trkpt><trkpt lat="41.281379216774084" lon="1.5131310801457594"><ele>176.0</ele><time>2026-05-04T16:34:20.001Z</time></trkpt><trkpt lat="41.281401914651475" lon="1.513273140639377"><ele>176.0</ele><time>2026-05-04T16:34:21.001Z</time></trkpt><trkpt lat="41.28142434322054" lon="1.5134135158466147"><ele>176.0</ele><time>2026-05-04T16:34:22.001Z</time></trkpt><trkpt lat="41.28144755655997" lon="1.5135588026568174"><ele>176.0</ele><time>2026-05-04T16:34:23Z</time></trkpt><trkpt lat="41.2814706301551" lon="1.5137032145390228"><ele>176.0</ele><time>2026-05-04T16:34:24Z</time></trkpt><trkpt lat="41.28149368716235" lon="1.5138478337030914"><ele>176.0</ele><time>2026-05-04T16:34:25Z</time></trkpt><trkpt lat="41.28151704637888" lon="1.5139962416725488"><ele>176.0</ele><time>2026-05-04T16:34:26Z</time></trkpt><trkpt lat="41.281540646654726" lon="1.514146181184102"><ele>175.75</ele><time>2026-05-04T16:34:27Z</time></trkpt><trkpt lat="41.28156347424182" lon="1.5142912117434062"><ele>175.5</ele><time>2026-05-04T16:34:28Z</time></trkpt><trkpt lat="41.281586068776285" lon="1.514434761514039"><ele>175.25</ele><time>2026-05-04T16:34:29Z</time></trkpt><trkpt lat="41.281632604519224" lon="1.5147304168947153"><ele>175.0</ele><time>2026-05-04T16:34:31Z</time></trkpt><trkpt lat="41.281656161581424" lon="1.514880081984118"><ele>175.0</ele><time>2026-05-04T16:34:32Z</time></trkpt><trkpt lat="41.2816816935278" lon="1.5150259254748855"><ele>175.0</ele><time>2026-05-04T16:34:33Z</time></trkpt><trkpt lat="41.28171810765841" lon="1.5151683542862602"><ele>175.0</ele><time>2026-05-04T16:34:34Z</time></trkpt><trkpt lat="41.281743321320015" lon="1.515311147499231"><ele>175.0</ele><time>2026-05-04T16:34:35Z</time></trkpt><trkpt lat="41.28177627489034" lon="1.515448892260979"><ele>175.0</ele><time>2026-05-04T16:34:36Z</time></trkpt><trkpt lat="41.2818060906229" lon="1.5155892414888974"><ele>174.25</ele><time>2026-05-04T16:34:37Z</time></trkpt><trkpt lat="41.281855724856406" lon="1.5157237323953416"><ele>173.5</ele><time>2026-05-04T16:34:38Z</time></trkpt><trkpt lat="41.28191087482836" lon="1.515855196343754"><ele>172.75</ele><time>2026-05-04T16:34:39Z</time></trkpt><trkpt lat="41.28197422811634" lon="1.515977252068521"><ele>172.0</ele><time>2026-05-04T16:34:40Z</time></trkpt><trkpt lat="41.28204676547318" lon="1.5160963839748958"><ele>172.0</ele><time>2026-05-04T16:34:41Z</time></trkpt><trkpt lat="41.282127627901126" lon="1.5161989545697636"><ele>172.0</ele><time>2026-05-04T16:34:42Z</time></trkpt><trkpt lat="41.28220430635305" lon="1.5163017876910159"><ele>172.0</ele><time>2026-05-04T16:34:43Z</time></trkpt><trkpt lat="41.28228239765359" lon="1.516408147020157"><ele>172.0</ele><time>2026-05-04T16:34:44Z</time></trkpt><trkpt lat="41.282356569353354" lon="1.516509388287839"><ele>172.0</ele><time>2026-05-04T16:34:45Z</time></trkpt><trkpt lat="41.282434502543055" lon="1.5166161537727783"><ele>171.75</ele><time>2026-05-04T16:34:46Z</time></trkpt><trkpt lat="41.28250803118871" lon="1.5167251214543835"><ele>171.5</ele><time>2026-05-04T16:34:47Z</time></trkpt><trkpt lat="41.28256732393052" lon="1.5168521080013393"><ele>171.25</ele><time>2026-05-04T16:34:48Z</time></trkpt><trkpt lat="41.282633496564024" lon="1.5169750821518524"><ele>171.0</ele><time>2026-05-04T16:34:49Z</time></trkpt><trkpt lat="41.282698061466824" lon="1.5171026914441854"><ele>171.0</ele><time>2026-05-04T16:34:50Z</time></trkpt><trkpt lat="41.282757376574274" lon="1.5172290721808463"><ele>171.0</ele><time>2026-05-04T16:34:51Z</time></trkpt><trkpt lat="41.28280844134548" lon="1.5173603664994297"><ele>171.0</ele><time>2026-05-04T16:34:52Z</time></trkpt><trkpt lat="41.282858152128846" lon="1.5174989130978875"><ele>171.0</ele><time>2026-05-04T16:34:53Z</time></trkpt><trkpt lat="41.28291936056741" lon="1.51763054288758"><ele>171.0</ele><time>2026-05-04T16:34:54Z</time></trkpt><trkpt lat="41.28296391858676" lon="1.517780270969666"><ele>171.0</ele><time>2026-05-04T16:34:55Z</time></trkpt><trkpt lat="41.282990529790936" lon="1.517922566513272"><ele>171.0</ele><time>2026-05-04T16:34:56Z</time></trkpt><trkpt lat="41.28303513340779" lon="1.5180520305748444"><ele>171.0</ele><time>2026-05-04T16:34:57Z</time></trkpt><trkpt lat="41.28306473138204" lon="1.518187129371371"><ele>171.0</ele><time>2026-05-04T16:34:58Z</time></trkpt><trkpt lat="41.28310678924926" lon="1.5183236435780632"><ele>171.60000000000002</ele><time>2026-05-04T16:34:59Z</time></trkpt><trkpt lat="41.2831470215613" lon="1.5184564141335908"><ele>172.2</ele><time>2026-05-04T16:35:00Z</time></trkpt><trkpt lat="41.283186400572376" lon="1.5185910806517564"><ele>172.8</ele><time>2026-05-04T16:35:01Z</time></trkpt><trkpt lat="41.283234838134234" lon="1.518723435071533"><ele>173.39999999999998</ele><time>2026-05-04T16:35:02Z</time></trkpt><trkpt lat="41.28327402115287" lon="1.5188625142529906"><ele>174.0</ele><time>2026-05-04T16:35:03Z</time></trkpt><trkpt lat="41.28332515591424" lon="1.5190018140487438"><ele>174.0</ele><time>2026-05-04T16:35:04Z</time></trkpt><trkpt lat="41.283364298438684" lon="1.5191482434750445"><ele>174.0</ele><time>2026-05-04T16:35:05Z</time></trkpt><trkpt lat="41.28339510967153" lon="1.5192967977181357"><ele>174.0</ele><time>2026-05-04T16:35:06Z</time></trkpt><trkpt lat="41.283419434035814" lon="1.5194426332552875"><ele>174.0</ele><time>2026-05-04T16:35:07Z</time></trkpt><trkpt lat="41.283444228020876" lon="1.519597287999155"><ele>173.0</ele><time>2026-05-04T16:35:08Z</time></trkpt><trkpt lat="41.2834721458758" lon="1.5197502742911762"><ele>172.0</ele><time>2026-05-04T16:35:09Z</time></trkpt><trkpt lat="41.28349901054413" lon="1.5199035631968056"><ele>171.0</ele><time>2026-05-04T16:35:10Z</time></trkpt><trkpt lat="41.283523394797996" lon="1.520054678801379"><ele>170.0</ele><time>2026-05-04T16:35:11Z</time></trkpt><trkpt lat="41.283549191770646" lon="1.520205069539299"><ele>170.0</ele><time>2026-05-04T16:35:12Z</time></trkpt><trkpt lat="41.283568793758135" lon="1.5203536685009162"><ele>170.0</ele><time>2026-05-04T16:35:13Z</time></trkpt><trkpt lat="41.283595701900815" lon="1.5204907671899577"><ele>170.0</ele><time>2026-05-04T16:35:14Z</time></trkpt><trkpt lat="41.28361587875598" lon="1.5206459058292123"><ele>170.0</ele><time>2026-05-04T16:35:15Z</time></trkpt><trkpt lat="41.28364392192283" lon="1.5207935543027"><ele>169.6</ele><time>2026-05-04T16:35:16Z</time></trkpt><trkpt lat="41.283654930172155" lon="1.5209398249884332"><ele>169.2</ele><time>2026-05-04T16:35:17Z</time></trkpt><trkpt lat="41.283688110309946" lon="1.521083578951996"><ele>168.8</ele><time>2026-05-04T16:35:18Z</time></trkpt><trkpt lat="41.28371375670363" lon="1.5212308993827635"><ele>168.4</ele><time>2026-05-04T16:35:19Z</time></trkpt><trkpt lat="41.28373575241013" lon="1.5213738502243643"><ele>168.0</ele><time>2026-05-04T16:35:20Z</time></trkpt><trkpt lat="41.28375876266299" lon="1.52151590384954"><ele>167.75</ele><time>2026-05-04T16:35:21Z</time></trkpt><trkpt lat="41.28377945198784" lon="1.5216586725429018"><ele>167.5</ele><time>2026-05-04T16:35:22Z</time></trkpt><trkpt lat="41.283806484078106" lon="1.5218044573856089"><ele>167.25</ele><time>2026-05-04T16:35:23Z</time></trkpt><trkpt lat="41.283836011603626" lon="1.5219474248168867"><ele>167.0</ele><time>2026-05-04T16:35:24Z</time></trkpt><trkpt lat="41.28385870702454" lon="1.5221015467218717"><ele>167.0</ele><time>2026-05-04T16:35:25Z</time></trkpt><trkpt lat="41.28387621885388" lon="1.5222517523072627"><ele>167.0</ele><time>2026-05-04T16:35:26Z</time></trkpt><trkpt lat="41.28387444284563" lon="1.5223969827735353"><ele>167.0</ele><time>2026-05-04T16:35:27Z</time></trkpt><trkpt lat="41.28387574269266" lon="1.5225419650995096"><ele>167.0</ele><time>2026-05-04T16:35:28Z</time></trkpt><trkpt lat="41.28386930103288" lon="1.5226960808012828"><ele>167.0</ele><time>2026-05-04T16:35:29Z</time></trkpt><trkpt lat="41.283858545076356" lon="1.5228457018457913"><ele>167.0</ele><time>2026-05-04T16:35:30Z</time></trkpt><trkpt lat="41.283846299823" lon="1.5229864250159857"><ele>167.0</ele><time>2026-05-04T16:35:31Z</time></trkpt><trkpt lat="41.28383382194509" lon="1.5231266877695118"><ele>167.0</ele><time>2026-05-04T16:35:32Z</time></trkpt><trkpt lat="41.283822262912466" lon="1.5232703818537359"><ele>167.0</ele><time>2026-05-04T16:35:33Z</time></trkpt><trkpt lat="41.28381309834498" lon="1.5234132722550802"><ele>167.0</ele><time>2026-05-04T16:35:34.001Z</time></trkpt><trkpt lat="41.28380514373114" lon="1.5235520191466607"><ele>167.0</ele><time>2026-05-04T16:35:35.001Z</time></trkpt><trkpt lat="41.28381822764284" lon="1.5236940220493065"><ele>167.0</ele><time>2026-05-04T16:35:36.001Z</time></trkpt><trkpt lat="41.283825724333205" lon="1.5238369286993474"><ele>167.0</ele><time>2026-05-04T16:35:37.001Z</time></trkpt><trkpt lat="41.28384179216701" lon="1.5239801923850271"><ele>167.0</ele><time>2026-05-04T16:35:38.001Z</time></trkpt><trkpt lat="41.28386666685861" lon="1.524115377973749"><ele>167.0</ele><time>2026-05-04T16:35:39.001Z</time></trkpt><trkpt lat="41.28389862885782" lon="1.5242556457325864"><ele>168.0</ele><time>2026-05-04T16:35:40.001Z</time></trkpt><trkpt lat="41.283937391722475" lon="1.524390007546232"><ele>169.0</ele><time>2026-05-04T16:35:41.001Z</time></trkpt><trkpt lat="41.28397266094504" lon="1.5245245895922745"><ele>170.0</ele><time>2026-05-04T16:35:42.001Z</time></trkpt><trkpt lat="41.284009071774214" lon="1.5246637615358931"><ele>171.0</ele><time>2026-05-04T16:35:43.001Z</time></trkpt><trkpt lat="41.28403925989247" lon="1.5248049912835142"><ele>172.0</ele><time>2026-05-04T16:35:44.001Z</time></trkpt><trkpt lat="41.28406717826791" lon="1.524947674538327"><ele>172.0</ele><time>2026-05-04T16:35:45.001Z</time></trkpt><trkpt lat="41.284104686363776" lon="1.5250822680608531"><ele>172.0</ele><time>2026-05-04T16:35:46.001Z</time></trkpt><trkpt lat="41.28413974655889" lon="1.525219391122118"><ele>172.0</ele><time>2026-05-04T16:35:47.001Z</time></trkpt><trkpt lat="41.28417350083823" lon="1.525358971678514"><ele>172.0</ele><time>2026-05-04T16:35:48.001Z</time></trkpt><trkpt lat="41.284200837635275" lon="1.5254893983653022"><ele>172.0</ele><time>2026-05-04T16:35:49.001Z</time></trkpt><trkpt lat="41.28423801880915" lon="1.52562065523108"><ele>171.6</ele><time>2026-05-04T16:35:50.001Z</time></trkpt><trkpt lat="41.28427814567638" lon="1.5257532300574244"><ele>171.2</ele><time>2026-05-04T16:35:51.001Z</time></trkpt><trkpt lat="41.28431262134927" lon="1.5258897404976501"><ele>170.8</ele><time>2026-05-04T16:35:52.001Z</time></trkpt><trkpt lat="41.28434182567872" lon="1.5260265941425355"><ele>170.4</ele><time>2026-05-04T16:35:53.001Z</time></trkpt><trkpt lat="41.284374806542644" lon="1.526156366084908"><ele>170.0</ele><time>2026-05-04T16:35:54.001Z</time></trkpt><trkpt lat="41.28440723284654" lon="1.5262816711816691"><ele>170.0</ele><time>2026-05-04T16:35:55.001Z</time></trkpt><trkpt lat="41.28444230998199" lon="1.526402166230198"><ele>170.0</ele><time>2026-05-04T16:35:56.001Z</time></trkpt><trkpt lat="41.28447159149608" lon="1.526527076246633"><ele>170.0</ele><time>2026-05-04T16:35:57.001Z</time></trkpt><trkpt lat="41.28449811988838" lon="1.5266616691636303"><ele>170.0</ele><time>2026-05-04T16:35:58.001Z</time></trkpt><trkpt lat="41.28449881177521" lon="1.5268036664134554"><ele>170.0</ele><time>2026-05-04T16:35:59.001Z</time></trkpt><trkpt lat="41.28448458924262" lon="1.5269347756377527"><ele>170.0</ele><time>2026-05-04T16:36:00.001Z</time></trkpt><trkpt lat="41.28445699746295" lon="1.5270405037534267"><ele>170.0</ele><time>2026-05-04T16:36:01.001Z</time></trkpt><trkpt lat="41.284425707726705" lon="1.5271824486884316"><ele>170.0</ele><time>2026-05-04T16:36:02.001Z</time></trkpt><trkpt lat="41.284403521468505" lon="1.5273211619973854"><ele>170.0</ele><time>2026-05-04T16:36:03.001Z</time></trkpt><trkpt lat="41.284339831694396" lon="1.5274184621262692"><ele>170.0</ele><time>2026-05-04T16:36:04.001Z</time></trkpt><trkpt lat="41.28431911341446" lon="1.527546342182376"><ele>169.75</ele><time>2026-05-04T16:36:05.001Z</time></trkpt><trkpt lat="41.28428338055773" lon="1.5276918153143844"><ele>169.5</ele><time>2026-05-04T16:36:06.001Z</time></trkpt><trkpt lat="41.2842641776209" lon="1.5278464297527399"><ele>169.25</ele><time>2026-05-04T16:36:07.001Z</time></trkpt><trkpt lat="41.284230659685605" lon="1.5279908669297586"><ele>169.0</ele><time>2026-05-04T16:36:08.001Z</time></trkpt><trkpt lat="41.28417005458177" lon="1.528113305006268"><ele>168.39999999999998</ele><time>2026-05-04T16:36:09.001Z</time></trkpt><trkpt lat="41.28412772826694" lon="1.5282278004128458"><ele>167.8</ele><time>2026-05-04T16:36:10.001Z</time></trkpt><trkpt lat="41.28406629921912" lon="1.5283578926519306"><ele>167.2</ele><time>2026-05-04T16:36:11.001Z</time></trkpt><trkpt lat="41.284025411443466" lon="1.5284955594203087"><ele>166.60000000000002</ele><time>2026-05-04T16:36:12.001Z</time></trkpt><trkpt lat="41.283983740747104" lon="1.5286358623312304"><ele>166.0</ele><time>2026-05-04T16:36:13.001Z</time></trkpt><trkpt lat="41.28394323236513" lon="1.5287722515057425"><ele>165.20000000000002</ele><time>2026-05-04T16:36:14.001Z</time></trkpt><trkpt lat="41.283903508950196" lon="1.5289059981365611"><ele>164.4</ele><time>2026-05-04T16:36:15.001Z</time></trkpt><trkpt lat="41.283863688424795" lon="1.5290400713369519"><ele>163.6</ele><time>2026-05-04T16:36:16.001Z</time></trkpt><trkpt lat="41.283822564370574" lon="1.5291785335302477"><ele>162.8</ele><time>2026-05-04T16:36:17.001Z</time></trkpt><trkpt lat="41.28378386361543" lon="1.5293088368511067"><ele>162.0</ele><time>2026-05-04T16:36:18.001Z</time></trkpt><trkpt lat="41.2837453226373" lon="1.5294386020438073"><ele>162.25</ele><time>2026-05-04T16:36:19.001Z</time></trkpt><trkpt lat="41.28370485279712" lon="1.5295748616615208"><ele>162.5</ele><time>2026-05-04T16:36:20.001Z</time></trkpt><trkpt lat="41.283663106577876" lon="1.529715418419398"><ele>162.75</ele><time>2026-05-04T16:36:21.001Z</time></trkpt><trkpt lat="41.283621126063295" lon="1.5298565599402927"><ele>163.0</ele><time>2026-05-04T16:36:22.001Z</time></trkpt><trkpt lat="41.28357838791861" lon="1.5300000759926238"><ele>163.0</ele><time>2026-05-04T16:36:23.001Z</time></trkpt><trkpt lat="41.283535305252244" lon="1.5301447496869383"><ele>163.0</ele><time>2026-05-04T16:36:24.001Z</time></trkpt><trkpt lat="41.283491586192966" lon="1.5302915600296227"><ele>163.0</ele><time>2026-05-04T16:36:25.001Z</time></trkpt><trkpt lat="41.283447919091245" lon="1.530438195773084"><ele>163.0</ele><time>2026-05-04T16:36:26.001Z</time></trkpt><trkpt lat="41.283404460454264" lon="1.5305841315260527"><ele>162.5</ele><time>2026-05-04T16:36:27.001Z</time></trkpt><trkpt lat="41.28336046521658" lon="1.5307318693641825"><ele>162.0</ele><time>2026-05-04T16:36:28.001Z</time></trkpt><trkpt lat="41.2833165146984" lon="1.5308794569476507"><ele>161.5</ele><time>2026-05-04T16:36:29Z</time></trkpt><trkpt lat="41.2832725049784" lon="1.531027243167479"><ele>161.0</ele><time>2026-05-04T16:36:30Z</time></trkpt><trkpt lat="41.28322689107531" lon="1.5311804158388775"><ele>160.25</ele><time>2026-05-04T16:36:31Z</time></trkpt><trkpt lat="41.283183033522704" lon="1.5313288113469166"><ele>159.5</ele><time>2026-05-04T16:36:32Z</time></trkpt><trkpt lat="41.283139442514766" lon="1.5314759290457571"><ele>158.75</ele><time>2026-05-04T16:36:33Z</time></trkpt><trkpt lat="41.2830968076235" lon="1.5316195241897876"><ele>158.0</ele><time>2026-05-04T16:36:34Z</time></trkpt><trkpt lat="41.283067552465795" lon="1.5317752642661469"><ele>157.75</ele><time>2026-05-04T16:36:35Z</time></trkpt><trkpt lat="41.28301066797284" lon="1.5319096441951656"><ele>157.5</ele><time>2026-05-04T16:36:36Z</time></trkpt><trkpt lat="41.28296945560534" lon="1.532048448101445"><ele>157.25</ele><time>2026-05-04T16:36:37Z</time></trkpt><trkpt lat="41.282941474876004" lon="1.5321948234135225"><ele>157.0</ele><time>2026-05-04T16:36:38Z</time></trkpt><trkpt lat="41.282885124414854" lon="1.53233003641729"><ele>157.8</ele><time>2026-05-04T16:36:39Z</time></trkpt><trkpt lat="41.282846305332576" lon="1.5324573100425083"><ele>158.6</ele><time>2026-05-04T16:36:40Z</time></trkpt><trkpt lat="41.2828061554851" lon="1.5325889466680473"><ele>159.4</ele><time>2026-05-04T16:36:41Z</time></trkpt><trkpt lat="41.28276560932556" lon="1.5327220460696038"><ele>160.20000000000002</ele><time>2026-05-04T16:36:42Z</time></trkpt><trkpt lat="41.28272543280653" lon="1.5328555786870255"><ele>161.0</ele><time>2026-05-04T16:36:43Z</time></trkpt><trkpt lat="41.2826860639618" lon="1.5329864268735305"><ele>161.4</ele><time>2026-05-04T16:36:44Z</time></trkpt><trkpt lat="41.28264666367236" lon="1.5331173796148185"><ele>161.8</ele><time>2026-05-04T16:36:45Z</time></trkpt><trkpt lat="41.28261068419084" lon="1.5332523974329453"><ele>162.20000000000002</ele><time>2026-05-04T16:36:46Z</time></trkpt><trkpt lat="41.282596589196395" lon="1.5333933572569347"><ele>162.60000000000002</ele><time>2026-05-04T16:36:47Z</time></trkpt><trkpt lat="41.282575820921274" lon="1.5335297392832143"><ele>163.0</ele><time>2026-05-04T16:36:48Z</time></trkpt><trkpt lat="41.28256166823466" lon="1.5336687693478088"><ele>163.4</ele><time>2026-05-04T16:36:49Z</time></trkpt><trkpt lat="41.28253628658404" lon="1.5338087649640542"><ele>163.8</ele><time>2026-05-04T16:36:50Z</time></trkpt><trkpt lat="41.28252525716162" lon="1.5339542195289224"><ele>164.2</ele><time>2026-05-04T16:36:51Z</time></trkpt><trkpt lat="41.28251456819375" lon="1.5341000286327855"><ele>164.6</ele><time>2026-05-04T16:36:52Z</time></trkpt><trkpt lat="41.28250411407086" lon="1.5342445116756673"><ele>165.0</ele><time>2026-05-04T16:36:53Z</time></trkpt><trkpt lat="41.282493673449885" lon="1.534388809252339"><ele>165.0</ele><time>2026-05-04T16:36:54Z</time></trkpt><trkpt lat="41.28248313723304" lon="1.5345344276508919"><ele>165.0</ele><time>2026-05-04T16:36:55Z</time></trkpt><trkpt lat="41.28247243752456" lon="1.534682305591717"><ele>165.0</ele><time>2026-05-04T16:36:56Z</time></trkpt><trkpt lat="41.28246184875089" lon="1.5348286500473456"><ele>165.0</ele><time>2026-05-04T16:36:57Z</time></trkpt><trkpt lat="41.28245117902358" lon="1.5349761139335905"><ele>165.0</ele><time>2026-05-04T16:36:58Z</time></trkpt><trkpt lat="41.28244064977529" lon="1.5351216360768158"><ele>165.0</ele><time>2026-05-04T16:36:59Z</time></trkpt><trkpt lat="41.28243006032243" lon="1.5352679879231304"><ele>165.0</ele><time>2026-05-04T16:37:00Z</time></trkpt><trkpt lat="41.28241883650678" lon="1.5354140733380337"><ele>165.0</ele><time>2026-05-04T16:37:01Z</time></trkpt><trkpt lat="41.28242310639274" lon="1.5355656127796176"><ele>165.0</ele><time>2026-05-04T16:37:02Z</time></trkpt><trkpt lat="41.28241236432936" lon="1.5357116863633549"><ele>165.0</ele><time>2026-05-04T16:37:03Z</time></trkpt><trkpt lat="41.28239902604934" lon="1.535861150202013"><ele>165.0</ele><time>2026-05-04T16:37:04Z</time></trkpt><trkpt lat="41.28238789600734" lon="1.5360078565542543"><ele>165.0</ele><time>2026-05-04T16:37:05Z</time></trkpt><trkpt lat="41.28237760412295" lon="1.5361550312174095"><ele>165.0</ele><time>2026-05-04T16:37:06Z</time></trkpt><trkpt lat="41.28236415072857" lon="1.5363028418996512"><ele>165.0</ele><time>2026-05-04T16:37:07Z</time></trkpt><trkpt lat="41.28235235182793" lon="1.5364488416295208"><ele>165.0</ele><time>2026-05-04T16:37:08Z</time></trkpt><trkpt lat="41.282341334712896" lon="1.5365957452705699"><ele>165.0</ele><time>2026-05-04T16:37:09Z</time></trkpt><trkpt lat="41.28232935669811" lon="1.5367426254522318"><ele>165.0</ele><time>2026-05-04T16:37:10Z</time></trkpt><trkpt lat="41.282320055439975" lon="1.536889415268702"><ele>165.0</ele><time>2026-05-04T16:37:11Z</time></trkpt><trkpt lat="41.2823090031132" lon="1.5370368112037873"><ele>165.0</ele><time>2026-05-04T16:37:12Z</time></trkpt><trkpt lat="41.28229347288691" lon="1.5371816431601137"><ele>165.0</ele><time>2026-05-04T16:37:13Z</time></trkpt><trkpt lat="41.28228435554738" lon="1.5373287457506104"><ele>165.0</ele><time>2026-05-04T16:37:14Z</time></trkpt><trkpt lat="41.2822724913088" lon="1.537474906492024"><ele>165.0</ele><time>2026-05-04T16:37:15Z</time></trkpt><trkpt lat="41.2822629175246" lon="1.5376202271057886"><ele>165.0</ele><time>2026-05-04T16:37:16Z</time></trkpt><trkpt lat="41.28225284207383" lon="1.537765965657808"><ele>165.0</ele><time>2026-05-04T16:37:17Z</time></trkpt><trkpt lat="41.28224072427292" lon="1.537912489746429"><ele>165.0</ele><time>2026-05-04T16:37:18Z</time></trkpt><trkpt lat="41.28222538744733" lon="1.538061188657395"><ele>164.6</ele><time>2026-05-04T16:37:19Z</time></trkpt><trkpt lat="41.28221792835697" lon="1.5382076272069494"><ele>164.2</ele><time>2026-05-04T16:37:20Z</time></trkpt><trkpt lat="41.282207922154214" lon="1.538354971344877"><ele>163.8</ele><time>2026-05-04T16:37:21Z</time></trkpt><trkpt lat="41.282197918288475" lon="1.5385044719284837"><ele>163.4</ele><time>2026-05-04T16:37:22Z</time></trkpt><trkpt lat="41.28218818019918" lon="1.5386507097925075"><ele>163.0</ele><time>2026-05-04T16:37:23Z</time></trkpt><trkpt lat="41.28217750117971" lon="1.5388000104040442"><ele>163.0</ele><time>2026-05-04T16:37:24Z</time></trkpt><trkpt lat="41.2821620730179" lon="1.5389454924410362"><ele>163.0</ele><time>2026-05-04T16:37:25Z</time></trkpt><trkpt lat="41.28215331234919" lon="1.5390951891931872"><ele>163.0</ele><time>2026-05-04T16:37:26Z</time></trkpt><trkpt lat="41.282139087094954" lon="1.5392403474614127"><ele>163.0</ele><time>2026-05-04T16:37:27Z</time></trkpt><trkpt lat="41.28213257056478" lon="1.5393860231734628"><ele>163.0</ele><time>2026-05-04T16:37:28Z</time></trkpt><trkpt lat="41.2821171203209" lon="1.5395309546490803"><ele>163.60000000000002</ele><time>2026-05-04T16:37:29Z</time></trkpt><trkpt lat="41.282106938978714" lon="1.5396744366432626"><ele>164.20000000000002</ele><time>2026-05-04T16:37:30Z</time></trkpt><trkpt lat="41.282095554874985" lon="1.53982276245087"><ele>164.8</ele><time>2026-05-04T16:37:31Z</time></trkpt><trkpt lat="41.28208683893308" lon="1.5399689471324536"><ele>165.4</ele><time>2026-05-04T16:37:32Z</time></trkpt><trkpt lat="41.282072761842315" lon="1.5401136287556239"><ele>166.0</ele><time>2026-05-04T16:37:33Z</time></trkpt><trkpt lat="41.2820626191437" lon="1.540257786286498"><ele>166.60000000000002</ele><time>2026-05-04T16:37:34.001Z</time></trkpt><trkpt lat="41.28204893731332" lon="1.5403983384410016"><ele>167.2</ele><time>2026-05-04T16:37:35.001Z</time></trkpt><trkpt lat="41.28204121085742" lon="1.5405411894076873"><ele>167.8</ele><time>2026-05-04T16:37:36.001Z</time></trkpt><trkpt lat="41.282028996566595" lon="1.5406867611081319"><ele>168.39999999999998</ele><time>2026-05-04T16:37:37.001Z</time></trkpt><trkpt lat="41.28201854863681" lon="1.5408310072551257"><ele>169.0</ele><time>2026-05-04T16:37:38.001Z</time></trkpt><trkpt lat="41.282004579736146" lon="1.540977265870062"><ele>169.0</ele><time>2026-05-04T16:37:39.001Z</time></trkpt><trkpt lat="41.281997254619775" lon="1.541122577187869"><ele>169.0</ele><time>2026-05-04T16:37:40.001Z</time></trkpt><trkpt lat="41.2819926229137" lon="1.5412705801510813"><ele>169.0</ele><time>2026-05-04T16:37:41.001Z</time></trkpt><trkpt lat="41.282000768465664" lon="1.5414179531292713"><ele>169.0</ele><time>2026-05-04T16:37:42.001Z</time></trkpt><trkpt lat="41.28201819429949" lon="1.5415649750989233"><ele>169.0</ele><time>2026-05-04T16:37:43.001Z</time></trkpt><trkpt lat="41.28204735104743" lon="1.5417105837693321"><ele>168.25</ele><time>2026-05-04T16:37:44.001Z</time></trkpt><trkpt lat="41.28208255836614" lon="1.5418550962935011"><ele>167.5</ele><time>2026-05-04T16:37:45.001Z</time></trkpt><trkpt lat="41.282109952592144" lon="1.5420069182511709"><ele>166.75</ele><time>2026-05-04T16:37:46.001Z</time></trkpt><trkpt lat="41.28214823472039" lon="1.5421479900719453"><ele>166.0</ele><time>2026-05-04T16:37:47.001Z</time></trkpt><trkpt lat="41.28218647148459" lon="1.54228975831416"><ele>165.8</ele><time>2026-05-04T16:37:48.001Z</time></trkpt><trkpt lat="41.28222033437063" lon="1.5424382856443586"><ele>165.60000000000002</ele><time>2026-05-04T16:37:49.001Z</time></trkpt><trkpt lat="41.2822540411686" lon="1.542574331207978"><ele>165.4</ele><time>2026-05-04T16:37:50.001Z</time></trkpt><trkpt lat="41.28228420619671" lon="1.5427164914074132"><ele>165.2</ele><time>2026-05-04T16:37:51.001Z</time></trkpt><trkpt lat="41.28227935490089" lon="1.5428674849908228"><ele>165.0</ele><time>2026-05-04T16:37:52.001Z</time></trkpt><trkpt lat="41.28225843928379" lon="1.5430137754088016"><ele>164.4</ele><time>2026-05-04T16:37:53.001Z</time></trkpt><trkpt lat="41.28221315389551" lon="1.5431429618254617"><ele>163.8</ele><time>2026-05-04T16:37:54.001Z</time></trkpt><trkpt lat="41.28215250814713" lon="1.5432690583912632"><ele>163.2</ele><time>2026-05-04T16:37:55.001Z</time></trkpt><trkpt lat="41.28209473417171" lon="1.5433894706391134"><ele>162.6</ele><time>2026-05-04T16:37:56.001Z</time></trkpt><trkpt lat="41.28203656370551" lon="1.5435107085377509"><ele>162.0</ele><time>2026-05-04T16:37:57.001Z</time></trkpt><trkpt lat="41.28197803831473" lon="1.5436328438689602"><ele>162.2</ele><time>2026-05-04T16:37:58.001Z</time></trkpt><trkpt lat="41.28192023210599" lon="1.5437530464425526"><ele>162.39999999999998</ele><time>2026-05-04T16:37:59.001Z</time></trkpt><trkpt lat="41.281864158635145" lon="1.5438749043567312"><ele>162.60000000000002</ele><time>2026-05-04T16:38:00.001Z</time></trkpt><trkpt lat="41.28181673095518" lon="1.5440003981011847"><ele>162.8</ele><time>2026-05-04T16:38:01.001Z</time></trkpt><trkpt lat="41.28178242444334" lon="1.5441323641601636"><ele>163.0</ele><time>2026-05-04T16:38:02.001Z</time></trkpt><trkpt lat="41.28175814974159" lon="1.5442584790391298"><ele>163.0</ele><time>2026-05-04T16:38:03.001Z</time></trkpt><trkpt lat="41.28174230779664" lon="1.5443801409562519"><ele>163.0</ele><time>2026-05-04T16:38:04.001Z</time></trkpt><trkpt lat="41.28174434728789" lon="1.5444932614395237"><ele>163.0</ele><time>2026-05-04T16:38:05.001Z</time></trkpt><trkpt lat="41.28172323635357" lon="1.5446020529768747"><ele>163.0</ele><time>2026-05-04T16:38:06.001Z</time></trkpt><trkpt lat="41.2816638622765" lon="1.5446943933579589"><ele>163.0</ele><time>2026-05-04T16:38:07.001Z</time></trkpt><trkpt lat="41.28163913593473" lon="1.5448009262487328"><ele>163.0</ele><time>2026-05-04T16:38:08.001Z</time></trkpt><trkpt lat="41.281627408016696" lon="1.5449257540636436"><ele>162.8</ele><time>2026-05-04T16:38:09.001Z</time></trkpt><trkpt lat="41.28165228359601" lon="1.5450581992175747"><ele>162.60000000000002</ele><time>2026-05-04T16:38:10.001Z</time></trkpt><trkpt lat="41.281682997055704" lon="1.545179938062682"><ele>162.39999999999998</ele><time>2026-05-04T16:38:11.001Z</time></trkpt><trkpt lat="41.281669650220046" lon="1.5453150619358091"><ele>162.2</ele><time>2026-05-04T16:38:12.001Z</time></trkpt><trkpt lat="41.281666429769906" lon="1.5454545399908892"><ele>162.0</ele><time>2026-05-04T16:38:13.001Z</time></trkpt><trkpt lat="41.28165493702263" lon="1.5455955329173467"><ele>161.8</ele><time>2026-05-04T16:38:14.001Z</time></trkpt><trkpt lat="41.28163966468591" lon="1.545739658349399"><ele>161.6</ele><time>2026-05-04T16:38:15.001Z</time></trkpt><trkpt lat="41.28162714424085" lon="1.5458850740682901"><ele>161.4</ele><time>2026-05-04T16:38:16.001Z</time></trkpt><trkpt lat="41.28161716175927" lon="1.5460327458888479"><ele>161.20000000000002</ele><time>2026-05-04T16:38:17.001Z</time></trkpt><trkpt lat="41.28160301198766" lon="1.5461771917705056"><ele>161.0</ele><time>2026-05-04T16:38:18.001Z</time></trkpt><trkpt lat="41.281589934119715" lon="1.5463260807451567"><ele>161.0</ele><time>2026-05-04T16:38:19.001Z</time></trkpt><trkpt lat="41.281578450121" lon="1.5464732389225666"><ele>161.0</ele><time>2026-05-04T16:38:20.001Z</time></trkpt><trkpt lat="41.2815670474394" lon="1.5466156866105698"><ele>161.0</ele><time>2026-05-04T16:38:21.001Z</time></trkpt><trkpt lat="41.2815579328377" lon="1.5467591372683283"><ele>161.0</ele><time>2026-05-04T16:38:22.001Z</time></trkpt><trkpt lat="41.28154519716908" lon="1.5469008034872944"><ele>161.0</ele><time>2026-05-04T16:38:23.001Z</time></trkpt><trkpt lat="41.28152786512169" lon="1.5470426347362303"><ele>160.8</ele><time>2026-05-04T16:38:24.001Z</time></trkpt><trkpt lat="41.28150630973897" lon="1.5471872619563294"><ele>160.60000000000002</ele><time>2026-05-04T16:38:25.001Z</time></trkpt><trkpt lat="41.28147883961783" lon="1.547327467570873"><ele>160.4</ele><time>2026-05-04T16:38:26.001Z</time></trkpt><trkpt lat="41.281445543302354" lon="1.5474665859412722"><ele>160.2</ele><time>2026-05-04T16:38:27.001Z</time></trkpt><trkpt lat="41.281404862950836" lon="1.5475904243949095"><ele>160.0</ele><time>2026-05-04T16:38:28.001Z</time></trkpt><trkpt lat="41.281363306025334" lon="1.5477042479003211"><ele>159.83333333333334</ele><time>2026-05-04T16:38:29.001Z</time></trkpt><trkpt lat="41.2813198165774" lon="1.5478083850033535"><ele>159.66666666666669</ele><time>2026-05-04T16:38:30.001Z</time></trkpt><trkpt lat="41.28127726063357" lon="1.547907056852602"><ele>159.5</ele><time>2026-05-04T16:38:31.001Z</time></trkpt><trkpt lat="41.281230145842585" lon="1.5479964760001887"><ele>159.33333333333334</ele><time>2026-05-04T16:38:32.001Z</time></trkpt><trkpt lat="41.28118384799198" lon="1.5480715606330127"><ele>159.16666666666666</ele><time>2026-05-04T16:38:33.001Z</time></trkpt><trkpt lat="41.28113380803663" lon="1.5481296270551548"><ele>159.0</ele><time>2026-05-04T16:38:34.001Z</time></trkpt><trkpt lat="41.28107519302486" lon="1.5481825158232994"><ele>158.83333333333334</ele><time>2026-05-04T16:38:35Z</time></trkpt><trkpt lat="41.281026899915005" lon="1.5482590170546735"><ele>158.66666666666666</ele><time>2026-05-04T16:38:36Z</time></trkpt><trkpt lat="41.28101489815193" lon="1.548362860279228"><ele>158.5</ele><time>2026-05-04T16:38:37Z</time></trkpt><trkpt lat="41.28101805935486" lon="1.548467439586236"><ele>158.33333333333331</ele><time>2026-05-04T16:38:38Z</time></trkpt><trkpt lat="41.281016698314346" lon="1.54857547287057"><ele>158.16666666666666</ele><time>2026-05-04T16:38:39Z</time></trkpt><trkpt lat="41.28096950247682" lon="1.548672469452268"><ele>158.0</ele><time>2026-05-04T16:38:40Z</time></trkpt><trkpt lat="41.280927666746564" lon="1.548782918444884"><ele>157.66666666666666</ele><time>2026-05-04T16:38:41Z</time></trkpt><trkpt lat="41.2808856288992" lon="1.5488936493803604"><ele>157.33333333333331</ele><time>2026-05-04T16:38:42Z</time></trkpt><trkpt lat="41.28084305707958" lon="1.549005692213472"><ele>157.0</ele><time>2026-05-04T16:38:43Z</time></trkpt><trkpt lat="41.280801106609275" lon="1.5491152869923848"><ele>156.66666666666666</ele><time>2026-05-04T16:38:44Z</time></trkpt><trkpt lat="41.28076161146028" lon="1.549217661803496"><ele>156.33333333333334</ele><time>2026-05-04T16:38:45Z</time></trkpt><trkpt lat="41.2807240526635" lon="1.5493150175729906"><ele>156.0</ele><time>2026-05-04T16:38:46Z</time></trkpt><trkpt lat="41.2806863150587" lon="1.549412836774573"><ele>156.0</ele><time>2026-05-04T16:38:47Z</time></trkpt><trkpt lat="41.280658548628956" lon="1.5495298924261212"><ele>156.0</ele><time>2026-05-04T16:38:48Z</time></trkpt><trkpt lat="41.280597050964936" lon="1.5496367629575087"><ele>156.0</ele><time>2026-05-04T16:38:49Z</time></trkpt><trkpt lat="41.28054998911252" lon="1.5497537671629886"><ele>156.0</ele><time>2026-05-04T16:38:50Z</time></trkpt><trkpt lat="41.280516892271244" lon="1.5498830398320353"><ele>156.0</ele><time>2026-05-04T16:38:51Z</time></trkpt><trkpt lat="41.28045304452673" lon="1.5499949579175383"><ele>155.4</ele><time>2026-05-04T16:38:52Z</time></trkpt><trkpt lat="41.28040257016663" lon="1.5501201423383264"><ele>154.8</ele><time>2026-05-04T16:38:53Z</time></trkpt><trkpt lat="41.28035490638528" lon="1.5502474424766421"><ele>154.20000000000002</ele><time>2026-05-04T16:38:54Z</time></trkpt><trkpt lat="41.28031111889787" lon="1.5503759420968126"><ele>153.6</ele><time>2026-05-04T16:38:55Z</time></trkpt><trkpt lat="41.28027178055255" lon="1.55050607278356"><ele>153.0</ele><time>2026-05-04T16:38:56Z</time></trkpt><trkpt lat="41.280234647041915" lon="1.550642022587569"><ele>152.6</ele><time>2026-05-04T16:38:57Z</time></trkpt><trkpt lat="41.28020198438788" lon="1.5507814034972944"><ele>152.20000000000002</ele><time>2026-05-04T16:38:58Z</time></trkpt><trkpt lat="41.28017422808052" lon="1.5509246058881216"><ele>151.8</ele><time>2026-05-04T16:38:59Z</time></trkpt><trkpt lat="41.280152218625744" lon="1.5510649770937683"><ele>151.4</ele><time>2026-05-04T16:39:00Z</time></trkpt><trkpt lat="41.280147813940665" lon="1.5512080344220696"><ele>151.0</ele><time>2026-05-04T16:39:01Z</time></trkpt><trkpt lat="41.28013123031236" lon="1.5513500579726687"><ele>150.4</ele><time>2026-05-04T16:39:02Z</time></trkpt><trkpt lat="41.28011622649636" lon="1.551489851412704"><ele>149.8</ele><time>2026-05-04T16:39:03Z</time></trkpt><trkpt lat="41.28010433067738" lon="1.5516308259729452"><ele>149.20000000000002</ele><time>2026-05-04T16:39:04Z</time></trkpt><trkpt lat="41.280092654456865" lon="1.5517721741009027"><ele>148.6</ele><time>2026-05-04T16:39:05Z</time></trkpt><trkpt lat="41.2800813805579" lon="1.5519172713239204"><ele>148.0</ele><time>2026-05-04T16:39:06Z</time></trkpt><trkpt lat="41.280069010513" lon="1.5520600107200442"><ele>148.0</ele><time>2026-05-04T16:39:07Z</time></trkpt><trkpt lat="41.28005565762968" lon="1.5522021740706031"><ele>148.0</ele><time>2026-05-04T16:39:08Z</time></trkpt><trkpt lat="41.28004187172674" lon="1.5523416542958808"><ele>148.0</ele><time>2026-05-04T16:39:09Z</time></trkpt><trkpt lat="41.28003167516971" lon="1.5524851117584897"><ele>148.0</ele><time>2026-05-04T16:39:10Z</time></trkpt><trkpt lat="41.28001621058656" lon="1.5526187534025773"><ele>148.0</ele><time>2026-05-04T16:39:11Z</time></trkpt><trkpt lat="41.280007425564655" lon="1.5527407517612755"><ele>148.0</ele><time>2026-05-04T16:39:12Z</time></trkpt><trkpt lat="41.279982785684865" lon="1.5528522483877067"><ele>148.0</ele><time>2026-05-04T16:39:13Z</time></trkpt><trkpt lat="41.27997376542776" lon="1.5529458367214024"><ele>148.0</ele><time>2026-05-04T16:39:14Z</time></trkpt><trkpt lat="41.27996941686337" lon="1.5530704511490754"><ele>148.0</ele><time>2026-05-04T16:39:16Z</time></trkpt><trkpt lat="41.27991530742876" lon="1.5531586464471532"><ele>148.0</ele><time>2026-05-04T16:39:27Z</time></trkpt><trkpt lat="41.27983251025503" lon="1.553252962869348"><ele>148.0</ele><time>2026-05-04T16:39:29Z</time></trkpt><trkpt lat="41.279881168057216" lon="1.5534618727788414"><ele>148.5</ele><time>2026-05-04T16:39:31Z</time></trkpt><trkpt lat="41.27993824578018" lon="1.5535206645023545"><ele>149.0</ele><time>2026-05-04T16:39:32.001Z</time></trkpt><trkpt lat="41.28000962178431" lon="1.5535316097210756"><ele>149.5</ele><time>2026-05-04T16:39:33.001Z</time></trkpt><trkpt lat="41.280079995160946" lon="1.5534956532559947"><ele>150.0</ele><time>2026-05-04T16:39:34.001Z</time></trkpt><trkpt lat="41.280147450821524" lon="1.5534421941010657"><ele>150.5</ele><time>2026-05-04T16:39:35.001Z</time></trkpt><trkpt lat="41.2802218376214" lon="1.5534093411548406"><ele>151.0</ele><time>2026-05-04T16:39:36.001Z</time></trkpt><trkpt lat="41.28030289995421" lon="1.5534123507732474"><ele>151.0</ele><time>2026-05-04T16:39:37.001Z</time></trkpt><trkpt lat="41.28038614257117" lon="1.5534287251627035"><ele>151.0</ele><time>2026-05-04T16:39:38.001Z</time></trkpt><trkpt lat="41.28046941852777" lon="1.5534466962112745"><ele>151.0</ele><time>2026-05-04T16:39:39.001Z</time></trkpt><trkpt lat="41.28055704597828" lon="1.5534640517807896"><ele>151.0</ele><time>2026-05-04T16:39:40.001Z</time></trkpt><trkpt lat="41.28064590626622" lon="1.553480947354015"><ele>151.0</ele><time>2026-05-04T16:39:41.001Z</time></trkpt><trkpt lat="41.28073488639209" lon="1.553496632509676"><ele>151.0</ele><time>2026-05-04T16:39:42.001Z</time></trkpt><trkpt lat="41.28082316784027" lon="1.5535066736218235"><ele>151.8</ele><time>2026-05-04T16:39:43.001Z</time></trkpt><trkpt lat="41.28091330440185" lon="1.5535224401266674"><ele>152.6</ele><time>2026-05-04T16:39:44.001Z</time></trkpt><trkpt lat="41.281003008197075" lon="1.5535406977948683"><ele>153.4</ele><time>2026-05-04T16:39:45.001Z</time></trkpt><trkpt lat="41.28109547027472" lon="1.5535584804960665"><ele>154.2</ele><time>2026-05-04T16:39:46.001Z</time></trkpt><trkpt lat="41.2811876357279" lon="1.5535792342557562"><ele>155.0</ele><time>2026-05-04T16:39:47.001Z</time></trkpt><trkpt lat="41.28128026905179" lon="1.5535968519360994"><ele>155.0</ele><time>2026-05-04T16:39:48.001Z</time></trkpt><trkpt lat="41.28137522139417" lon="1.5536123575597651"><ele>155.0</ele><time>2026-05-04T16:39:49.001Z</time></trkpt><trkpt lat="41.28147133832988" lon="1.5536344828371242"><ele>155.0</ele><time>2026-05-04T16:39:50.001Z</time></trkpt><trkpt lat="41.28156875040416" lon="1.5536617725702326"><ele>155.0</ele><time>2026-05-04T16:39:51.001Z</time></trkpt><trkpt lat="41.281665886799985" lon="1.5536880692623836"><ele>155.0</ele><time>2026-05-04T16:39:52.001Z</time></trkpt><trkpt lat="41.281762572015666" lon="1.5537156375959673"><ele>156.0</ele><time>2026-05-04T16:39:53.001Z</time></trkpt><trkpt lat="41.28185721344198" lon="1.553741940035268"><ele>157.0</ele><time>2026-05-04T16:39:54.001Z</time></trkpt><trkpt lat="41.28194990437815" lon="1.5537723665578194"><ele>158.0</ele><time>2026-05-04T16:39:55.001Z</time></trkpt><trkpt lat="41.28204132845741" lon="1.5537982931408774"><ele>159.0</ele><time>2026-05-04T16:39:56.001Z</time></trkpt><trkpt lat="41.28213113582052" lon="1.5538228629857151"><ele>160.0</ele><time>2026-05-04T16:39:57.001Z</time></trkpt><trkpt lat="41.28221772818538" lon="1.5538479254605926"><ele>160.4</ele><time>2026-05-04T16:39:58.001Z</time></trkpt><trkpt lat="41.28230488620393" lon="1.5538745981618547"><ele>160.8</ele><time>2026-05-04T16:39:59.001Z</time></trkpt><trkpt lat="41.282393784988194" lon="1.553904637857924"><ele>161.2</ele><time>2026-05-04T16:40:00.001Z</time></trkpt><trkpt lat="41.28248719808382" lon="1.5539322671757123"><ele>161.6</ele><time>2026-05-04T16:40:01.001Z</time></trkpt><trkpt lat="41.28258031727646" lon="1.5539611352683824"><ele>162.0</ele><time>2026-05-04T16:40:02.001Z</time></trkpt><trkpt lat="41.28267622439634" lon="1.5539916473451774"><ele>162.0</ele><time>2026-05-04T16:40:03.001Z</time></trkpt><trkpt lat="41.28277066000162" lon="1.554016211512759"><ele>162.0</ele><time>2026-05-04T16:40:04.001Z</time></trkpt><trkpt lat="41.28286751463969" lon="1.5540494718410018"><ele>162.0</ele><time>2026-05-04T16:40:05.001Z</time></trkpt><trkpt lat="41.28296630611134" lon="1.5540848572450545"><ele>162.0</ele><time>2026-05-04T16:40:06.001Z</time></trkpt><trkpt lat="41.28306842224542" lon="1.5541130252853024"><ele>162.0</ele><time>2026-05-04T16:40:07.001Z</time></trkpt><trkpt lat="41.28316882661888" lon="1.5541434840496517"><ele>161.2</ele><time>2026-05-04T16:40:08.001Z</time></trkpt><trkpt lat="41.28326816661092" lon="1.5541771255196855"><ele>160.39999999999998</ele><time>2026-05-04T16:40:09.001Z</time></trkpt><trkpt lat="41.28336842063667" lon="1.5542113548677534"><ele>159.60000000000002</ele><time>2026-05-04T16:40:10.001Z</time></trkpt><trkpt lat="41.28346924421254" lon="1.5542490919654839"><ele>158.8</ele><time>2026-05-04T16:40:11.001Z</time></trkpt><trkpt lat="41.283572189770396" lon="1.5542833854814013"><ele>158.0</ele><time>2026-05-04T16:40:12.001Z</time></trkpt><trkpt lat="41.28367313893189" lon="1.5543154320019523"><ele>158.0</ele><time>2026-05-04T16:40:13.001Z</time></trkpt><trkpt lat="41.283775759003696" lon="1.554351214445211"><ele>158.0</ele><time>2026-05-04T16:40:14.001Z</time></trkpt><trkpt lat="41.28387763108788" lon="1.5543840679786136"><ele>158.0</ele><time>2026-05-04T16:40:15.001Z</time></trkpt><trkpt lat="41.283982219687914" lon="1.5544177551200595"><ele>158.0</ele><time>2026-05-04T16:40:16.001Z</time></trkpt><trkpt lat="41.28408659913081" lon="1.5544503964070198"><ele>158.0</ele><time>2026-05-04T16:40:17.001Z</time></trkpt><trkpt lat="41.28419026720678" lon="1.5544827641918173"><ele>158.0</ele><time>2026-05-04T16:40:18.001Z</time></trkpt><trkpt lat="41.28429318217786" lon="1.5545165407069654"><ele>158.0</ele><time>2026-05-04T16:40:19.001Z</time></trkpt><trkpt lat="41.284397231619856" lon="1.5545492781682548"><ele>158.0</ele><time>2026-05-04T16:40:20.001Z</time></trkpt><trkpt lat="41.284498770429266" lon="1.5545800420835825"><ele>158.0</ele><time>2026-05-04T16:40:21.001Z</time></trkpt><trkpt lat="41.28460409397442" lon="1.5546128241548753"><ele>158.0</ele><time>2026-05-04T16:40:22.001Z</time></trkpt><trkpt lat="41.28470938479086" lon="1.5546462984438023"><ele>158.20000000000002</ele><time>2026-05-04T16:40:23.001Z</time></trkpt><trkpt lat="41.284814523613065" lon="1.5546773457087597"><ele>158.4</ele><time>2026-05-04T16:40:24.001Z</time></trkpt><trkpt lat="41.28492048170176" lon="1.5547062849909823"><ele>158.60000000000002</ele><time>2026-05-04T16:40:25.001Z</time></trkpt><trkpt lat="41.28502348162931" lon="1.5547371398804934"><ele>158.8</ele><time>2026-05-04T16:40:26.001Z</time></trkpt><trkpt lat="41.28512688433965" lon="1.5547710266037174"><ele>159.0</ele><time>2026-05-04T16:40:27.001Z</time></trkpt><trkpt lat="41.28523050670208" lon="1.5548054087258076"><ele>159.0</ele><time>2026-05-04T16:40:28.001Z</time></trkpt><trkpt lat="41.2853329694146" lon="1.5548372137509248"><ele>159.0</ele><time>2026-05-04T16:40:29.001Z</time></trkpt><trkpt lat="41.28543352391632" lon="1.5548689450926036"><ele>159.0</ele><time>2026-05-04T16:40:30.001Z</time></trkpt><trkpt lat="41.28552839105325" lon="1.5548983383535029"><ele>159.0</ele><time>2026-05-04T16:40:31.001Z</time></trkpt><trkpt lat="41.285620384775484" lon="1.5549266245083129"><ele>159.0</ele><time>2026-05-04T16:40:32.001Z</time></trkpt><trkpt lat="41.28570202859306" lon="1.554968227588974"><ele>159.6</ele><time>2026-05-04T16:40:33.001Z</time></trkpt><trkpt lat="41.285773517067256" lon="1.555039312556563"><ele>160.2</ele><time>2026-05-04T16:40:34.001Z</time></trkpt><trkpt lat="41.28582726469677" lon="1.5551378746293822"><ele>160.79999999999998</ele><time>2026-05-04T16:40:35.001Z</time></trkpt><trkpt lat="41.285861597180975" lon="1.5552542017198903"><ele>161.4</ele><time>2026-05-04T16:40:36.001Z</time></trkpt><trkpt lat="41.285871410279206" lon="1.5553827097133404"><ele>162.0</ele><time>2026-05-04T16:40:37.001Z</time></trkpt><trkpt lat="41.28584080099" lon="1.5555063291184605"><ele>162.0</ele><time>2026-05-04T16:40:38.001Z</time></trkpt><trkpt lat="41.28583432821649" lon="1.55563840294746"><ele>162.0</ele><time>2026-05-04T16:40:39.001Z</time></trkpt><trkpt lat="41.28581692856918" lon="1.5557692079843681"><ele>162.0</ele><time>2026-05-04T16:40:40.001Z</time></trkpt><trkpt lat="41.285799195291965" lon="1.555906879576555"><ele>162.0</ele><time>2026-05-04T16:40:41Z</time></trkpt><trkpt lat="41.28578279569735" lon="1.5560444271448242"><ele>162.0</ele><time>2026-05-04T16:40:42Z</time></trkpt><trkpt lat="41.28576666755306" lon="1.5561858809411608"><ele>162.2</ele><time>2026-05-04T16:40:43Z</time></trkpt><trkpt lat="41.2857480552736" lon="1.5563278739053548"><ele>162.39999999999998</ele><time>2026-05-04T16:40:44Z</time></trkpt><trkpt lat="41.28573097822102" lon="1.556472922123464"><ele>162.60000000000002</ele><time>2026-05-04T16:40:45Z</time></trkpt><trkpt lat="41.28571369942566" lon="1.556620294005372"><ele>162.8</ele><time>2026-05-04T16:40:46Z</time></trkpt><trkpt lat="41.28569629515174" lon="1.5567703716415957"><ele>163.0</ele><time>2026-05-04T16:40:47Z</time></trkpt><trkpt lat="41.2856647274732" lon="1.5569435021293696"><ele>163.33333333333334</ele><time>2026-05-04T16:40:48Z</time></trkpt><trkpt lat="41.28559955485297" lon="1.5571709059179646"><ele>163.66666666666666</ele><time>2026-05-04T16:40:49Z</time></trkpt><trkpt lat="41.28557285742597" lon="1.5574352334889314"><ele>164.0</ele><time>2026-05-04T16:40:50Z</time></trkpt><trkpt lat="41.285636911936805" lon="1.5573708967480258"><ele>164.0</ele><time>2026-05-04T16:40:51Z</time></trkpt><trkpt lat="41.285632001715214" lon="1.557522093847012"><ele>164.0</ele><time>2026-05-04T16:40:52Z</time></trkpt><trkpt lat="41.28561949371983" lon="1.5576706797033495"><ele>164.0</ele><time>2026-05-04T16:40:53Z</time></trkpt><trkpt lat="41.285609720299" lon="1.5578189057340412"><ele>164.0</ele><time>2026-05-04T16:40:54Z</time></trkpt><trkpt lat="41.28559815585247" lon="1.5579676326576335"><ele>162.5</ele><time>2026-05-04T16:40:55Z</time></trkpt><trkpt lat="41.28558787361937" lon="1.558115569824567"><ele>161.0</ele><time>2026-05-04T16:40:56Z</time></trkpt><trkpt lat="41.285575960145" lon="1.5582663479747965"><ele>159.5</ele><time>2026-05-04T16:40:57Z</time></trkpt><trkpt lat="41.285559962268344" lon="1.558417865962692"><ele>158.0</ele><time>2026-05-04T16:40:58Z</time></trkpt><trkpt lat="41.28555006331276" lon="1.558567956503021"><ele>158.5</ele><time>2026-05-04T16:40:59Z</time></trkpt><trkpt lat="41.28553389307469" lon="1.5587172964082094"><ele>159.0</ele><time>2026-05-04T16:41:00Z</time></trkpt><trkpt lat="41.2855252273412" lon="1.5588677914410842"><ele>159.5</ele><time>2026-05-04T16:41:01Z</time></trkpt><trkpt lat="41.28551379844744" lon="1.5590166771177525"><ele>160.0</ele><time>2026-05-04T16:41:02Z</time></trkpt><trkpt lat="41.2855021263183" lon="1.5591629857407325"><ele>160.0</ele><time>2026-05-04T16:41:03Z</time></trkpt><trkpt lat="41.28548585743218" lon="1.5593104035135712"><ele>160.0</ele><time>2026-05-04T16:41:04Z</time></trkpt><trkpt lat="41.285476048858214" lon="1.5594574059396515"><ele>160.0</ele><time>2026-05-04T16:41:05Z</time></trkpt><trkpt lat="41.28546125928956" lon="1.5596059472218433"><ele>160.0</ele><time>2026-05-04T16:41:06Z</time></trkpt><trkpt lat="41.2854515383943" lon="1.559750054466619"><ele>160.0</ele><time>2026-05-04T16:41:07Z</time></trkpt><trkpt lat="41.285445441707196" lon="1.559892551555652"><ele>160.6</ele><time>2026-05-04T16:41:08Z</time></trkpt><trkpt lat="41.285434562440216" lon="1.5600298004763313"><ele>161.2</ele><time>2026-05-04T16:41:09Z</time></trkpt><trkpt lat="41.28543019723459" lon="1.5601625243191461"><ele>161.8</ele><time>2026-05-04T16:41:10Z</time></trkpt><trkpt lat="41.28542410663272" lon="1.5602926441218015"><ele>162.4</ele><time>2026-05-04T16:41:11Z</time></trkpt><trkpt lat="41.285406987913504" lon="1.5604206717218987"><ele>163.0</ele><time>2026-05-04T16:41:12Z</time></trkpt><trkpt lat="41.28533293165211" lon="1.5605233613877505"><ele>163.5</ele><time>2026-05-04T16:41:13Z</time></trkpt><trkpt lat="41.2852888404677" lon="1.5606769444237527"><ele>164.0</ele><time>2026-05-04T16:41:14Z</time></trkpt><trkpt lat="41.28526273350192" lon="1.5608662337500854"><ele>164.5</ele><time>2026-05-04T16:41:15Z</time></trkpt><trkpt lat="41.285344138069064" lon="1.5609671109080288"><ele>165.0</ele><time>2026-05-04T16:41:16Z</time></trkpt><trkpt lat="41.28541788924525" lon="1.5610774180282345"><ele>164.25</ele><time>2026-05-04T16:41:17Z</time></trkpt><trkpt lat="41.28542172444127" lon="1.5612416883858147"><ele>163.5</ele><time>2026-05-04T16:41:18Z</time></trkpt><trkpt lat="41.285414913693806" lon="1.561389143811345"><ele>162.75</ele><time>2026-05-04T16:41:19Z</time></trkpt><trkpt lat="41.28535387595565" lon="1.5615211238647362"><ele>162.0</ele><time>2026-05-04T16:41:20Z</time></trkpt><trkpt lat="41.28532896088222" lon="1.5616696539349353"><ele>162.0</ele><time>2026-05-04T16:41:21Z</time></trkpt><trkpt lat="41.285304804685225" lon="1.5618137802447352"><ele>162.0</ele><time>2026-05-04T16:41:22Z</time></trkpt><trkpt lat="41.28528073838561" lon="1.5619573702339231"><ele>162.0</ele><time>2026-05-04T16:41:23Z</time></trkpt><trkpt lat="41.285255969174365" lon="1.562101250760521"><ele>162.0</ele><time>2026-05-04T16:41:24Z</time></trkpt><trkpt lat="41.285231345720575" lon="1.562242572110995"><ele>162.0</ele><time>2026-05-04T16:41:25Z</time></trkpt><trkpt lat="41.28520701849689" lon="1.562382073826594"><ele>162.6</ele><time>2026-05-04T16:41:26Z</time></trkpt><trkpt lat="41.28518264969318" lon="1.5625217363539616"><ele>163.2</ele><time>2026-05-04T16:41:27Z</time></trkpt><trkpt lat="41.2851574351934" lon="1.5626662462905634"><ele>163.8</ele><time>2026-05-04T16:41:28Z</time></trkpt><trkpt lat="41.28514353190445" lon="1.5628115632308848"><ele>164.4</ele><time>2026-05-04T16:41:29Z</time></trkpt><trkpt lat="41.28512003790918" lon="1.5629491331408063"><ele>165.0</ele><time>2026-05-04T16:41:30Z</time></trkpt><trkpt lat="41.28509589873539" lon="1.563088275259826"><ele>165.4</ele><time>2026-05-04T16:41:31Z</time></trkpt><trkpt lat="41.28506827319438" lon="1.563226918773224"><ele>165.8</ele><time>2026-05-04T16:41:32Z</time></trkpt><trkpt lat="41.28504732492857" lon="1.563366576719838"><ele>166.2</ele><time>2026-05-04T16:41:33.001Z</time></trkpt><trkpt lat="41.28502750197875" lon="1.5635087822372389"><ele>166.6</ele><time>2026-05-04T16:41:34.001Z</time></trkpt><trkpt lat="41.285007386604775" lon="1.5636492981241081"><ele>167.0</ele><time>2026-05-04T16:41:35.001Z</time></trkpt><trkpt lat="41.28499321770809" lon="1.5637961483051404"><ele>167.2</ele><time>2026-05-04T16:41:36.001Z</time></trkpt><trkpt lat="41.2849727843155" lon="1.563941837080572"><ele>167.39999999999998</ele><time>2026-05-04T16:41:37.001Z</time></trkpt><trkpt lat="41.28495981092754" lon="1.5640826390216935"><ele>167.60000000000002</ele><time>2026-05-04T16:41:38.001Z</time></trkpt><trkpt lat="41.28494925031743" lon="1.5642288504285249"><ele>167.8</ele><time>2026-05-04T16:41:39.001Z</time></trkpt><trkpt lat="41.28494277595904" lon="1.5643777019054548"><ele>168.0</ele><time>2026-05-04T16:41:40.001Z</time></trkpt><trkpt lat="41.28492571553906" lon="1.564521977471582"><ele>168.0</ele><time>2026-05-04T16:41:41.001Z</time></trkpt><trkpt lat="41.28491284224768" lon="1.5646689917138032"><ele>168.0</ele><time>2026-05-04T16:41:42.001Z</time></trkpt><trkpt lat="41.284901447212725" lon="1.5648159034131643"><ele>168.0</ele><time>2026-05-04T16:41:43.001Z</time></trkpt><trkpt lat="41.28488736637823" lon="1.564963306311749"><ele>168.0</ele><time>2026-05-04T16:41:44.001Z</time></trkpt><trkpt lat="41.28487494126774" lon="1.5651162264569956"><ele>168.0</ele><time>2026-05-04T16:41:45.001Z</time></trkpt><trkpt lat="41.284864646212924" lon="1.5652661075961152"><ele>167.25</ele><time>2026-05-04T16:41:46.001Z</time></trkpt><trkpt lat="41.2848520753773" lon="1.5654173772998479"><ele>166.5</ele><time>2026-05-04T16:41:47.001Z</time></trkpt><trkpt lat="41.284839425491946" lon="1.5655680429225374"><ele>165.75</ele><time>2026-05-04T16:41:48.001Z</time></trkpt><trkpt lat="41.2848259894698" lon="1.5657173396397026"><ele>165.0</ele><time>2026-05-04T16:41:49.001Z</time></trkpt><trkpt lat="41.28481459954245" lon="1.5658664366821033"><ele>165.0</ele><time>2026-05-04T16:41:50.001Z</time></trkpt><trkpt lat="41.284803257019206" lon="1.5660151169355176"><ele>165.0</ele><time>2026-05-04T16:41:51.001Z</time></trkpt><trkpt lat="41.28478830371116" lon="1.5661641675758053"><ele>165.0</ele><time>2026-05-04T16:41:52.001Z</time></trkpt><trkpt lat="41.28477198632915" lon="1.5663129493090566"><ele>165.0</ele><time>2026-05-04T16:41:53.001Z</time></trkpt><trkpt lat="41.28475986127995" lon="1.5664614034950664"><ele>164.0</ele><time>2026-05-04T16:41:54.001Z</time></trkpt><trkpt lat="41.284747592079704" lon="1.5666128009300644"><ele>163.0</ele><time>2026-05-04T16:41:55.001Z</time></trkpt><trkpt lat="41.284733843729114" lon="1.5667622768211436"><ele>162.0</ele><time>2026-05-04T16:41:56.001Z</time></trkpt><trkpt lat="41.28472351296853" lon="1.5669102904365408"><ele>161.0</ele><time>2026-05-04T16:41:57.001Z</time></trkpt><trkpt lat="41.28471224880006" lon="1.5670614799947526"><ele>160.5</ele><time>2026-05-04T16:41:58.001Z</time></trkpt><trkpt lat="41.28470598825886" lon="1.5672120114958608"><ele>160.0</ele><time>2026-05-04T16:41:59.001Z</time></trkpt><trkpt lat="41.284692524674874" lon="1.5673730643838488"><ele>159.5</ele><time>2026-05-04T16:42:00.001Z</time></trkpt><trkpt lat="41.28467732940925" lon="1.5675173655421373"><ele>159.0</ele><time>2026-05-04T16:42:01.001Z</time></trkpt><trkpt lat="41.28466125957208" lon="1.5676696641691752"><ele>159.0</ele><time>2026-05-04T16:42:02.001Z</time></trkpt><trkpt lat="41.28465247536241" lon="1.567819019187587"><ele>159.0</ele><time>2026-05-04T16:42:03.001Z</time></trkpt><trkpt lat="41.28463975351676" lon="1.567971173781409"><ele>159.0</ele><time>2026-05-04T16:42:04.001Z</time></trkpt><trkpt lat="41.2846276025507" lon="1.5681283015399017"><ele>159.0</ele><time>2026-05-04T16:42:05.001Z</time></trkpt><trkpt lat="41.28461480647923" lon="1.5682828752637552"><ele>159.25</ele><time>2026-05-04T16:42:06.001Z</time></trkpt><trkpt lat="41.28460229461022" lon="1.5684338281608812"><ele>159.5</ele><time>2026-05-04T16:42:07.001Z</time></trkpt><trkpt lat="41.284591428355135" lon="1.5685877306136433"><ele>159.75</ele><time>2026-05-04T16:42:08.001Z</time></trkpt><trkpt lat="41.284577296840105" lon="1.5687410579171952"><ele>160.0</ele><time>2026-05-04T16:42:09.001Z</time></trkpt><trkpt lat="41.284563017929806" lon="1.568893030988464"><ele>159.25</ele><time>2026-05-04T16:42:10.001Z</time></trkpt><trkpt lat="41.28454807529267" lon="1.5690462319382656"><ele>158.5</ele><time>2026-05-04T16:42:11.001Z</time></trkpt><trkpt lat="41.284536289154964" lon="1.569196920695061"><ele>157.75</ele><time>2026-05-04T16:42:12.001Z</time></trkpt><trkpt lat="41.28452348562156" lon="1.5693489657645705"><ele>157.0</ele><time>2026-05-04T16:42:13.001Z</time></trkpt><trkpt lat="41.28450691061344" lon="1.5695005283635748"><ele>156.5</ele><time>2026-05-04T16:42:14.001Z</time></trkpt><trkpt lat="41.28448914205606" lon="1.5696525210962546"><ele>156.0</ele><time>2026-05-04T16:42:15.001Z</time></trkpt><trkpt lat="41.28447513172232" lon="1.5698036498168078"><ele>155.5</ele><time>2026-05-04T16:42:16.001Z</time></trkpt><trkpt lat="41.28445943074994" lon="1.5699554569934262"><ele>155.0</ele><time>2026-05-04T16:42:17.001Z</time></trkpt><trkpt lat="41.28444586280153" lon="1.5701068991748761"><ele>155.0</ele><time>2026-05-04T16:42:18.001Z</time></trkpt><trkpt lat="41.28442447600238" lon="1.5702589190531437"><ele>155.0</ele><time>2026-05-04T16:42:19.001Z</time></trkpt><trkpt lat="41.28440831769894" lon="1.5704106952432637"><ele>155.0</ele><time>2026-05-04T16:42:20.001Z</time></trkpt><trkpt lat="41.28439262074334" lon="1.5705619549880772"><ele>155.0</ele><time>2026-05-04T16:42:21.001Z</time></trkpt><trkpt lat="41.28437600492263" lon="1.5707129473387462"><ele>154.75</ele><time>2026-05-04T16:42:22.001Z</time></trkpt><trkpt lat="41.28435663309197" lon="1.5708634859604664"><ele>154.5</ele><time>2026-05-04T16:42:23.001Z</time></trkpt><trkpt lat="41.28433406081171" lon="1.571013374959564"><ele>154.25</ele><time>2026-05-04T16:42:24.001Z</time></trkpt><trkpt lat="41.284315238893285" lon="1.571165588613826"><ele>154.0</ele><time>2026-05-04T16:42:25.001Z</time></trkpt><trkpt lat="41.28429311154102" lon="1.571309974949677"><ele>154.0</ele><time>2026-05-04T16:42:26.001Z</time></trkpt><trkpt lat="41.28426362188625" lon="1.5714554995763388"><ele>154.0</ele><time>2026-05-04T16:42:27.001Z</time></trkpt><trkpt lat="41.284247315700206" lon="1.5715975434161515"><ele>154.0</ele><time>2026-05-04T16:42:28.001Z</time></trkpt><trkpt lat="41.2842188014724" lon="1.5717492912914321"><ele>154.0</ele><time>2026-05-04T16:42:29.001Z</time></trkpt><trkpt lat="41.284188597996526" lon="1.5718966636147083"><ele>154.6</ele><time>2026-05-04T16:42:30.001Z</time></trkpt><trkpt lat="41.284165718911034" lon="1.5720411904979863"><ele>155.2</ele><time>2026-05-04T16:42:31.001Z</time></trkpt><trkpt lat="41.2841370941665" lon="1.5721881063366727"><ele>155.79999999999998</ele><time>2026-05-04T16:42:32.001Z</time></trkpt><trkpt lat="41.28411130107624" lon="1.5723339052344967"><ele>156.4</ele><time>2026-05-04T16:42:33.001Z</time></trkpt><trkpt lat="41.2840840983805" lon="1.5724738258138613"><ele>157.0</ele><time>2026-05-04T16:42:34.001Z</time></trkpt><trkpt lat="41.284055942276474" lon="1.57261862781236"><ele>157.0</ele><time>2026-05-04T16:42:35.001Z</time></trkpt><trkpt lat="41.28402614439382" lon="1.5727608738865106"><ele>157.0</ele><time>2026-05-04T16:42:36.001Z</time></trkpt><trkpt lat="41.28399404737266" lon="1.5728988101486494"><ele>157.0</ele><time>2026-05-04T16:42:37.001Z</time></trkpt><trkpt lat="41.28395983754563" lon="1.5730370218780096"><ele>157.0</ele><time>2026-05-04T16:42:38.001Z</time></trkpt><trkpt lat="41.28392643770562" lon="1.573177855979888"><ele>157.0</ele><time>2026-05-04T16:42:39.001Z</time></trkpt><trkpt lat="41.283889095554414" lon="1.573316679129141"><ele>156.79999999999998</ele><time>2026-05-04T16:42:40.001Z</time></trkpt><trkpt lat="41.283851130331826" lon="1.5734525250981146"><ele>156.6</ele><time>2026-05-04T16:42:41.001Z</time></trkpt><trkpt lat="41.283815574569594" lon="1.5735893953725661"><ele>156.39999999999998</ele><time>2026-05-04T16:42:42.001Z</time></trkpt><trkpt lat="41.28377917068032" lon="1.5737239227293565"><ele>156.2</ele><time>2026-05-04T16:42:43.001Z</time></trkpt><trkpt lat="41.28373776368713" lon="1.573863908816868"><ele>156.0</ele><time>2026-05-04T16:42:44.001Z</time></trkpt><trkpt lat="41.28369508650721" lon="1.5739980066822106"><ele>156.25</ele><time>2026-05-04T16:42:45.001Z</time></trkpt><trkpt lat="41.28364910275483" lon="1.5741337053060955"><ele>156.5</ele><time>2026-05-04T16:42:46.001Z</time></trkpt><trkpt lat="41.28359838585895" lon="1.5742646422757238"><ele>156.75</ele><time>2026-05-04T16:42:47Z</time></trkpt><trkpt lat="41.28355807607234" lon="1.5743853014905256"><ele>157.0</ele><time>2026-05-04T16:42:48Z</time></trkpt><trkpt lat="41.28351611470027" lon="1.5745482072748336"><ele>157.0</ele><time>2026-05-04T16:42:49Z</time></trkpt><trkpt lat="41.28346581629306" lon="1.5746869023250518"><ele>157.0</ele><time>2026-05-04T16:42:50Z</time></trkpt><trkpt lat="41.28342026239662" lon="1.5748296612081978"><ele>157.0</ele><time>2026-05-04T16:42:51Z</time></trkpt><trkpt lat="41.283374016254804" lon="1.5749673533037247"><ele>157.0</ele><time>2026-05-04T16:42:52Z</time></trkpt><trkpt lat="41.28332825445208" lon="1.57510567906361"><ele>157.0</ele><time>2026-05-04T16:42:53Z</time></trkpt><trkpt lat="41.28327310825501" lon="1.5752277630344924"><ele>157.0</ele><time>2026-05-04T16:42:54Z</time></trkpt><trkpt lat="41.28323292716661" lon="1.5753876590003997"><ele>157.0</ele><time>2026-05-04T16:42:55Z</time></trkpt><trkpt lat="41.28317142309639" lon="1.575516220355648"><ele>157.0</ele><time>2026-05-04T16:42:56Z</time></trkpt><trkpt lat="41.28312861980117" lon="1.5756392865684552"><ele>156.75</ele><time>2026-05-04T16:42:57Z</time></trkpt><trkpt lat="41.283079994149674" lon="1.5757798825137115"><ele>156.5</ele><time>2026-05-04T16:42:58Z</time></trkpt><trkpt lat="41.283022080111195" lon="1.5759488998497642"><ele>156.25</ele><time>2026-05-04T16:42:59Z</time></trkpt><trkpt lat="41.28297313128528" lon="1.5760918413386573"><ele>156.0</ele><time>2026-05-04T16:43:00Z</time></trkpt><trkpt lat="41.28292505214133" lon="1.5762019189019136"><ele>156.4</ele><time>2026-05-04T16:43:01Z</time></trkpt><trkpt lat="41.28290323352166" lon="1.5763196184155368"><ele>156.8</ele><time>2026-05-04T16:43:02Z</time></trkpt><trkpt lat="41.282865779772905" lon="1.5764408807557588"><ele>157.20000000000002</ele><time>2026-05-04T16:43:03Z</time></trkpt><trkpt lat="41.28282399003251" lon="1.5765671992156511"><ele>157.6</ele><time>2026-05-04T16:43:04Z</time></trkpt><trkpt lat="41.28277628220037" lon="1.5766933271687325"><ele>158.0</ele><time>2026-05-04T16:43:05Z</time></trkpt><trkpt lat="41.28273409199541" lon="1.5768204093594602"><ele>158.0</ele><time>2026-05-04T16:43:06Z</time></trkpt><trkpt lat="41.282691159004145" lon="1.5769491285070467"><ele>158.0</ele><time>2026-05-04T16:43:07Z</time></trkpt><trkpt lat="41.28264946129995" lon="1.5770763117334277"><ele>158.0</ele><time>2026-05-04T16:43:08Z</time></trkpt><trkpt lat="41.28260614405862" lon="1.5772036630020108"><ele>158.0</ele><time>2026-05-04T16:43:09Z</time></trkpt><trkpt lat="41.28256263190454" lon="1.5773330584460936"><ele>158.0</ele><time>2026-05-04T16:43:10Z</time></trkpt><trkpt lat="41.28251775720325" lon="1.577459027553202"><ele>158.4</ele><time>2026-05-04T16:43:11Z</time></trkpt><trkpt lat="41.2824779227358" lon="1.5775831849711337"><ele>158.8</ele><time>2026-05-04T16:43:12Z</time></trkpt><trkpt lat="41.28243205101978" lon="1.577711303795907"><ele>159.2</ele><time>2026-05-04T16:43:13Z</time></trkpt><trkpt lat="41.28238965411423" lon="1.5778404409989653"><ele>159.6</ele><time>2026-05-04T16:43:14Z</time></trkpt><trkpt lat="41.282348057966686" lon="1.5779669812580854"><ele>160.0</ele><time>2026-05-04T16:43:15Z</time></trkpt><trkpt lat="41.28230498978693" lon="1.578094233643914"><ele>163.0</ele><time>2026-05-04T16:43:16Z</time></trkpt><trkpt lat="41.282260357116606" lon="1.5782198253335622"><ele>166.0</ele><time>2026-05-04T16:43:17Z</time></trkpt><trkpt lat="41.282216125601664" lon="1.578345684178993"><ele>169.0</ele><time>2026-05-04T16:43:18Z</time></trkpt><trkpt lat="41.282174738838314" lon="1.578475178856607"><ele>172.0</ele><time>2026-05-04T16:43:19Z</time></trkpt><trkpt lat="41.28213316101685" lon="1.5786072802701625"><ele>175.0</ele><time>2026-05-04T16:43:20Z</time></trkpt><trkpt lat="41.28208332585004" lon="1.5787309648019592"><ele>175.0</ele><time>2026-05-04T16:43:21Z</time></trkpt><trkpt lat="41.28204106830971" lon="1.5788603841234028"><ele>175.0</ele><time>2026-05-04T16:43:22Z</time></trkpt><trkpt lat="41.28199570638975" lon="1.5789882994997873"><ele>175.0</ele><time>2026-05-04T16:43:23Z</time></trkpt><trkpt lat="41.28194614711904" lon="1.5791174883261454"><ele>175.0</ele><time>2026-05-04T16:43:24Z</time></trkpt><trkpt lat="41.28190143887532" lon="1.57924928791537"><ele>175.0</ele><time>2026-05-04T16:43:25Z</time></trkpt><trkpt lat="41.28185210851842" lon="1.579375672650093"><ele>175.0</ele><time>2026-05-04T16:43:26Z</time></trkpt><trkpt lat="41.2818011098156" lon="1.579500691281083"><ele>175.0</ele><time>2026-05-04T16:43:27Z</time></trkpt><trkpt lat="41.28175257359735" lon="1.5796183575228975"><ele>175.0</ele><time>2026-05-04T16:43:28Z</time></trkpt><trkpt lat="41.28170730488958" lon="1.5797266978909839"><ele>175.0</ele><time>2026-05-04T16:43:29Z</time></trkpt><trkpt lat="41.281657738064844" lon="1.5798226363189594"><ele>175.0</ele><time>2026-05-04T16:43:30Z</time></trkpt><trkpt lat="41.28159673945242" lon="1.5799131275113365"><ele>175.0</ele><time>2026-05-04T16:43:31Z</time></trkpt><trkpt lat="41.28152147779425" lon="1.5799809956307185"><ele>175.0</ele><time>2026-05-04T16:43:32Z</time></trkpt><trkpt lat="41.28142864229749" lon="1.5800021177107002"><ele>175.0</ele><time>2026-05-04T16:43:33Z</time></trkpt><trkpt lat="41.28136978217641" lon="1.580102223690877"><ele>175.0</ele><time>2026-05-04T16:43:34Z</time></trkpt><trkpt lat="41.28136326870084" lon="1.5802575376380121"><ele>175.0</ele><time>2026-05-04T16:43:35Z</time></trkpt><trkpt lat="41.2813678421641" lon="1.5803871987749376"><ele>174.0</ele><time>2026-05-04T16:43:36Z</time></trkpt><trkpt lat="41.28133089128003" lon="1.5805185885549446"><ele>173.0</ele><time>2026-05-04T16:43:37Z</time></trkpt><trkpt lat="41.28124957721713" lon="1.5806109701233029"><ele>172.0</ele><time>2026-05-04T16:43:38Z</time></trkpt><trkpt lat="41.281188802034016" lon="1.5807217393109678"><ele>171.0</ele><time>2026-05-04T16:43:39Z</time></trkpt><trkpt lat="41.281138528529425" lon="1.5808481015240177"><ele>170.0</ele><time>2026-05-04T16:43:40Z</time></trkpt><trkpt lat="41.28106563841239" lon="1.5809495264423215"><ele>170.0</ele><time>2026-05-04T16:43:41Z</time></trkpt><trkpt lat="41.28100415932686" lon="1.5810689243851201"><ele>170.0</ele><time>2026-05-04T16:43:42Z</time></trkpt><trkpt lat="41.28094609989511" lon="1.5811816812337784"><ele>170.0</ele><time>2026-05-04T16:43:43.001Z</time></trkpt><trkpt lat="41.280888335006125" lon="1.581293865886207"><ele>170.0</ele><time>2026-05-04T16:43:44.001Z</time></trkpt><trkpt lat="41.28083095039107" lon="1.5814047294334883"><ele>170.0</ele><time>2026-05-04T16:43:45.001Z</time></trkpt><trkpt lat="41.280772443797076" lon="1.5815177017947541"><ele>170.0</ele><time>2026-05-04T16:43:46.001Z</time></trkpt><trkpt lat="41.280714710095225" lon="1.5816286992775197"><ele>170.0</ele><time>2026-05-04T16:43:47.001Z</time></trkpt><trkpt lat="41.28067065833978" lon="1.5817491471961498"><ele>170.0</ele><time>2026-05-04T16:43:48.001Z</time></trkpt><trkpt lat="41.28061652622812" lon="1.5818501634045241"><ele>170.0</ele><time>2026-05-04T16:43:49.001Z</time></trkpt><trkpt lat="41.28055736946037" lon="1.5819316178076666"><ele>170.0</ele><time>2026-05-04T16:43:50.001Z</time></trkpt><trkpt lat="41.280502885705594" lon="1.582037362934728"><ele>169.0</ele><time>2026-05-04T16:43:51.001Z</time></trkpt><trkpt lat="41.28045315442686" lon="1.5821363038867449"><ele>168.0</ele><time>2026-05-04T16:43:52.001Z</time></trkpt><trkpt lat="41.280403661834356" lon="1.5822347698689239"><ele>167.0</ele><time>2026-05-04T16:43:53.001Z</time></trkpt><trkpt lat="41.28035300465921" lon="1.5823355527033849"><ele>166.0</ele><time>2026-05-04T16:43:54.001Z</time></trkpt><trkpt lat="41.28030380765826" lon="1.5824334306177792"><ele>165.0</ele><time>2026-05-04T16:43:55.001Z</time></trkpt><trkpt lat="41.28026979127625" lon="1.5825403000690557"><ele>164.0</ele><time>2026-05-04T16:43:56.001Z</time></trkpt><trkpt lat="41.28021186987971" lon="1.5826155746061972"><ele>163.99999999999997</ele><time>2026-05-04T16:43:57.001Z</time></trkpt><trkpt lat="41.28016909104845" lon="1.5827003211076658"><ele>164.0</ele><time>2026-05-04T16:43:58.001Z</time></trkpt><trkpt lat="41.2801284367857" lon="1.5827808589869479"><ele>164.0</ele><time>2026-05-04T16:43:59.001Z</time></trkpt><trkpt lat="41.28008814624941" lon="1.5828606761061357"><ele>164.0</ele><time>2026-05-04T16:44:00.001Z</time></trkpt><trkpt lat="41.28004970555676" lon="1.5829368264122206"><ele>164.0</ele><time>2026-05-04T16:44:01.001Z</time></trkpt><trkpt lat="41.28002750711761" lon="1.5830188954266096"><ele>163.99999999999997</ele><time>2026-05-04T16:44:02.001Z</time></trkpt><trkpt lat="41.27999205962252" lon="1.5830899875266329"><ele>164.0</ele><time>2026-05-04T16:44:03.001Z</time></trkpt><trkpt lat="41.279954950306944" lon="1.5831619057073554"><ele>163.57142857142856</ele><time>2026-05-04T16:44:04.001Z</time></trkpt><trkpt lat="41.279915989692306" lon="1.5832359432069825"><ele>163.14285714285714</ele><time>2026-05-04T16:44:05.001Z</time></trkpt><trkpt lat="41.27987883912094" lon="1.5833156400398154"><ele>162.71428571428572</ele><time>2026-05-04T16:44:06.001Z</time></trkpt><trkpt lat="41.27983452159854" lon="1.5833904103479595"><ele>162.28571428571428</ele><time>2026-05-04T16:44:07.001Z</time></trkpt><trkpt lat="41.279796529066765" lon="1.583464541721338"><ele>161.85714285714286</ele><time>2026-05-04T16:44:08.001Z</time></trkpt><trkpt lat="41.279753005338385" lon="1.583544135528734"><ele>161.42857142857142</ele><time>2026-05-04T16:44:09.001Z</time></trkpt><trkpt lat="41.279709230878716" lon="1.5836303815359234"><ele>161.0</ele><time>2026-05-04T16:44:10.001Z</time></trkpt><trkpt lat="41.27966257983136" lon="1.583721435542342"><ele>160.4</ele><time>2026-05-04T16:44:11.001Z</time></trkpt><trkpt lat="41.27961415361455" lon="1.5838186421981357"><ele>159.8</ele><time>2026-05-04T16:44:12.001Z</time></trkpt><trkpt lat="41.27956044948587" lon="1.5839174963898701"><ele>159.20000000000002</ele><time>2026-05-04T16:44:13.001Z</time></trkpt><trkpt lat="41.27950875958122" lon="1.584024863870808"><ele>158.60000000000002</ele><time>2026-05-04T16:44:14.001Z</time></trkpt><trkpt lat="41.2794548580407" lon="1.584134625524588"><ele>158.0</ele><time>2026-05-04T16:44:15.001Z</time></trkpt><trkpt lat="41.27939714108376" lon="1.584243990902915"><ele>158.0</ele><time>2026-05-04T16:44:16.001Z</time></trkpt><trkpt lat="41.27934568104186" lon="1.5843587546888254"><ele>158.0</ele><time>2026-05-04T16:44:17.001Z</time></trkpt><trkpt lat="41.279290084522984" lon="1.5844695456525666"><ele>158.0</ele><time>2026-05-04T16:44:18.001Z</time></trkpt><trkpt lat="41.27922949219073" lon="1.584580326281992"><ele>158.0</ele><time>2026-05-04T16:44:19.001Z</time></trkpt><trkpt lat="41.279172655570825" lon="1.5846962922760286"><ele>158.0</ele><time>2026-05-04T16:44:20.001Z</time></trkpt><trkpt lat="41.279113929748945" lon="1.5848120124161929"><ele>158.0</ele><time>2026-05-04T16:44:21.001Z</time></trkpt><trkpt lat="41.2790555731689" lon="1.5849300465175482"><ele>158.0</ele><time>2026-05-04T16:44:22.001Z</time></trkpt><trkpt lat="41.27899712165581" lon="1.585045525103097"><ele>158.0</ele><time>2026-05-04T16:44:23.001Z</time></trkpt><trkpt lat="41.27893877773009" lon="1.5851602214477645"><ele>158.0</ele><time>2026-05-04T16:44:24.001Z</time></trkpt><trkpt lat="41.27888211518226" lon="1.5852737547952556"><ele>158.0</ele><time>2026-05-04T16:44:25.001Z</time></trkpt><trkpt lat="41.278825953882176" lon="1.5853834365149748"><ele>157.8</ele><time>2026-05-04T16:44:26.001Z</time></trkpt><trkpt lat="41.27877060375391" lon="1.5854901193598998"><ele>157.60000000000002</ele><time>2026-05-04T16:44:27.001Z</time></trkpt><trkpt lat="41.27871781831607" lon="1.5855973078663512"><ele>157.39999999999998</ele><time>2026-05-04T16:44:28.001Z</time></trkpt><trkpt lat="41.27866492591501" lon="1.5857040380346161"><ele>157.2</ele><time>2026-05-04T16:44:29.001Z</time></trkpt><trkpt lat="41.27861284853824" lon="1.5858104674374407"><ele>157.0</ele><time>2026-05-04T16:44:30.001Z</time></trkpt><trkpt lat="41.2785614264762" lon="1.585919122373604"><ele>157.0</ele><time>2026-05-04T16:44:31.001Z</time></trkpt><trkpt lat="41.278509240350616" lon="1.586026957576764"><ele>157.0</ele><time>2026-05-04T16:44:32.001Z</time></trkpt><trkpt lat="41.2784551201789" lon="1.5861319582050208"><ele>157.0</ele><time>2026-05-04T16:44:33.001Z</time></trkpt><trkpt lat="41.27840269050077" lon="1.5862378952780105"><ele>157.0</ele><time>2026-05-04T16:44:34.001Z</time></trkpt><trkpt lat="41.27834758504811" lon="1.5863433274338303"><ele>157.0</ele><time>2026-05-04T16:44:35.001Z</time></trkpt><trkpt lat="41.27829308898186" lon="1.5864509219235443"><ele>157.0</ele><time>2026-05-04T16:44:36.001Z</time></trkpt><trkpt lat="41.278237685601404" lon="1.586558780477838"><ele>157.0</ele><time>2026-05-04T16:44:37.001Z</time></trkpt><trkpt lat="41.27818623830625" lon="1.5866564866107191"><ele>157.0</ele><time>2026-05-04T16:44:38.001Z</time></trkpt><trkpt lat="41.278138151746525" lon="1.5867553818343225"><ele>157.0</ele><time>2026-05-04T16:44:39.001Z</time></trkpt><trkpt lat="41.27808907525336" lon="1.5868533606998039"><ele>157.0</ele><time>2026-05-04T16:44:40.001Z</time></trkpt><trkpt lat="41.27804158870331" lon="1.5869522431151561"><ele>157.0</ele><time>2026-05-04T16:44:41.001Z</time></trkpt><trkpt lat="41.27799534593287" lon="1.587044294414885"><ele>157.0</ele><time>2026-05-04T16:44:42.001Z</time></trkpt><trkpt lat="41.277938524932665" lon="1.5871273476413212"><ele>157.0</ele><time>2026-05-04T16:44:43.001Z</time></trkpt><trkpt lat="41.277870971869596" lon="1.5871941569279089"><ele>157.0</ele><time>2026-05-04T16:44:44.001Z</time></trkpt><trkpt lat="41.27780196540566" lon="1.5872579253435892"><ele>157.0</ele><time>2026-05-04T16:44:45.001Z</time></trkpt><trkpt lat="41.27774428613956" lon="1.5873392926489496"><ele>157.0</ele><time>2026-05-04T16:44:46.001Z</time></trkpt><trkpt lat="41.27770340835184" lon="1.5874458464393455"><ele>157.0</ele><time>2026-05-04T16:44:47.001Z</time></trkpt><trkpt lat="41.27769004682694" lon="1.5875694630727613"><ele>157.0</ele><time>2026-05-04T16:44:48.001Z</time></trkpt><trkpt lat="41.277678298459534" lon="1.587698368593293"><ele>157.0</ele><time>2026-05-04T16:44:49.001Z</time></trkpt><trkpt lat="41.2776338430464" lon="1.587813685787144"><ele>157.0</ele><time>2026-05-04T16:44:50.001Z</time></trkpt><trkpt lat="41.27757276008887" lon="1.5879202676531614"><ele>157.0</ele><time>2026-05-04T16:44:51.001Z</time></trkpt><trkpt lat="41.27751575535871" lon="1.5880286130263304"><ele>157.4</ele><time>2026-05-04T16:44:52.001Z</time></trkpt><trkpt lat="41.27746150290827" lon="1.5881387460606453"><ele>157.79999999999998</ele><time>2026-05-04T16:44:53Z</time></trkpt><trkpt lat="41.27740225416655" lon="1.588250614297538"><ele>158.2</ele><time>2026-05-04T16:44:54Z</time></trkpt><trkpt lat="41.27734454295425" lon="1.588367602507583"><ele>158.6</ele><time>2026-05-04T16:44:55Z</time></trkpt><trkpt lat="41.27728611220494" lon="1.588484453486915"><ele>159.0</ele><time>2026-05-04T16:44:56Z</time></trkpt><trkpt lat="41.27722600928838" lon="1.588602597072466"><ele>157.6</ele><time>2026-05-04T16:44:57Z</time></trkpt><trkpt lat="41.27716732285052" lon="1.5887220864501306"><ele>156.2</ele><time>2026-05-04T16:44:58Z</time></trkpt><trkpt lat="41.27710738678593" lon="1.5888415321117384"><ele>154.79999999999998</ele><time>2026-05-04T16:44:59Z</time></trkpt><trkpt lat="41.277046371730435" lon="1.5889600666177848"><ele>153.4</ele><time>2026-05-04T16:45:00Z</time></trkpt><trkpt lat="41.276986597021725" lon="1.5890803915089529"><ele>152.0</ele><time>2026-05-04T16:45:01Z</time></trkpt><trkpt lat="41.276925319347754" lon="1.5892014914867336"><ele>152.0</ele><time>2026-05-04T16:45:02Z</time></trkpt><trkpt lat="41.27686309625873" lon="1.589322986702057"><ele>152.0</ele><time>2026-05-04T16:45:03Z</time></trkpt><trkpt lat="41.2768011959921" lon="1.589446767909965"><ele>152.0</ele><time>2026-05-04T16:45:04Z</time></trkpt><trkpt lat="41.27674036953937" lon="1.5895713374116247"><ele>152.0</ele><time>2026-05-04T16:45:05Z</time></trkpt><trkpt lat="41.276679067123375" lon="1.5896949728236665"><ele>152.0</ele><time>2026-05-04T16:45:06Z</time></trkpt><trkpt lat="41.27661487820374" lon="1.5898166389627524"><ele>152.0</ele><time>2026-05-04T16:45:07Z</time></trkpt><trkpt lat="41.27655135657866" lon="1.5899388349246062"><ele>152.0</ele><time>2026-05-04T16:45:08Z</time></trkpt><trkpt lat="41.27648892274196" lon="1.5900603872643033"><ele>152.0</ele><time>2026-05-04T16:45:09Z</time></trkpt><trkpt lat="41.276427034557145" lon="1.5901869301507552"><ele>152.0</ele><time>2026-05-04T16:45:10Z</time></trkpt><trkpt lat="41.27636609815754" lon="1.5903129353573093"><ele>152.0</ele><time>2026-05-04T16:45:11Z</time></trkpt><trkpt lat="41.27630420761735" lon="1.590439592559189"><ele>152.25</ele><time>2026-05-04T16:45:12Z</time></trkpt><trkpt lat="41.27624133964785" lon="1.590565070390818"><ele>152.5</ele><time>2026-05-04T16:45:13Z</time></trkpt><trkpt lat="41.2761757004767" lon="1.5906868129381198"><ele>152.75</ele><time>2026-05-04T16:45:14Z</time></trkpt><trkpt lat="41.27611596331185" lon="1.590814918769799"><ele>153.0</ele><time>2026-05-04T16:45:15Z</time></trkpt><trkpt lat="41.27605785352778" lon="1.590941424200338"><ele>153.0</ele><time>2026-05-04T16:45:16Z</time></trkpt><trkpt lat="41.27599246995241" lon="1.5910654608652994"><ele>153.0</ele><time>2026-05-04T16:45:17Z</time></trkpt><trkpt lat="41.27589536023919" lon="1.5911762230446413"><ele>153.0</ele><time>2026-05-04T16:45:18Z</time></trkpt><trkpt lat="41.27578857111941" lon="1.591310297386481"><ele>153.0</ele><time>2026-05-04T16:45:19Z</time></trkpt><trkpt lat="41.275705734204216" lon="1.5914757966757618"><ele>152.6</ele><time>2026-05-04T16:45:20Z</time></trkpt><trkpt lat="41.27573689493072" lon="1.5915793137775058"><ele>152.20000000000002</ele><time>2026-05-04T16:45:21Z</time></trkpt><trkpt lat="41.27567276259277" lon="1.591703340051271"><ele>151.8</ele><time>2026-05-04T16:45:22Z</time></trkpt><trkpt lat="41.275610929693904" lon="1.5918322146161707"><ele>151.4</ele><time>2026-05-04T16:45:23Z</time></trkpt><trkpt lat="41.27554701184427" lon="1.5919585266176264"><ele>151.0</ele><time>2026-05-04T16:45:24Z</time></trkpt><trkpt lat="41.27548381460254" lon="1.592085607908482"><ele>151.0</ele><time>2026-05-04T16:45:25Z</time></trkpt><trkpt lat="41.27542293033098" lon="1.592211479556888"><ele>151.0</ele><time>2026-05-04T16:45:26Z</time></trkpt><trkpt lat="41.27536042819315" lon="1.5923355678032778"><ele>151.0</ele><time>2026-05-04T16:45:27Z</time></trkpt><trkpt lat="41.275297399954106" lon="1.5924608249023247"><ele>151.0</ele><time>2026-05-04T16:45:28Z</time></trkpt><trkpt lat="41.27523322236685" lon="1.59258510814785"><ele>151.0</ele><time>2026-05-04T16:45:29Z</time></trkpt><trkpt lat="41.27516600253044" lon="1.5927100147105784"><ele>151.0</ele><time>2026-05-04T16:45:30Z</time></trkpt><trkpt lat="41.27510293141442" lon="1.5928407519988488"><ele>151.0</ele><time>2026-05-04T16:45:31Z</time></trkpt><trkpt lat="41.275040220008535" lon="1.5929672471681373"><ele>151.0</ele><time>2026-05-04T16:45:32Z</time></trkpt><trkpt lat="41.274975898625996" lon="1.5930968871006643"><ele>151.5</ele><time>2026-05-04T16:45:33Z</time></trkpt><trkpt lat="41.274910722255484" lon="1.5932244500065285"><ele>152.0</ele><time>2026-05-04T16:45:34Z</time></trkpt><trkpt lat="41.27484701582482" lon="1.5933479314281862"><ele>152.5</ele><time>2026-05-04T16:45:35Z</time></trkpt><trkpt lat="41.27478529018888" lon="1.5934772222664246"><ele>153.0</ele><time>2026-05-04T16:45:36Z</time></trkpt><trkpt lat="41.274721252080774" lon="1.593605114614555"><ele>151.5</ele><time>2026-05-04T16:45:37Z</time></trkpt><trkpt lat="41.27465970969793" lon="1.5937334984578453"><ele>150.0</ele><time>2026-05-04T16:45:38Z</time></trkpt><trkpt lat="41.274597427593456" lon="1.5938638523454323"><ele>148.5</ele><time>2026-05-04T16:45:39Z</time></trkpt><trkpt lat="41.274532206940385" lon="1.5939906387174936"><ele>147.0</ele><time>2026-05-04T16:45:40Z</time></trkpt><trkpt lat="41.27446918655737" lon="1.5941139241681304"><ele>147.0</ele><time>2026-05-04T16:45:41Z</time></trkpt><trkpt lat="41.274404642591364" lon="1.5942438117191635"><ele>147.0</ele><time>2026-05-04T16:45:42Z</time></trkpt><trkpt lat="41.27433721349284" lon="1.5943673105623204"><ele>147.0</ele><time>2026-05-04T16:45:43Z</time></trkpt><trkpt lat="41.27427476628699" lon="1.5944950001721565"><ele>147.0</ele><time>2026-05-04T16:45:44Z</time></trkpt><trkpt lat="41.27421380492066" lon="1.5946229594185948"><ele>146.75</ele><time>2026-05-04T16:45:45Z</time></trkpt><trkpt lat="41.27414912426343" lon="1.594750780922635"><ele>146.5</ele><time>2026-05-04T16:45:46Z</time></trkpt><trkpt lat="41.274085564920554" lon="1.5948802721131614"><ele>146.25</ele><time>2026-05-04T16:45:47Z</time></trkpt><trkpt lat="41.27402237534246" lon="1.5950075068572422"><ele>146.0</ele><time>2026-05-04T16:45:48Z</time></trkpt><trkpt lat="41.2739581157803" lon="1.5951335920390515"><ele>145.75</ele><time>2026-05-04T16:45:49Z</time></trkpt><trkpt lat="41.2738969527447" lon="1.5952636877104551"><ele>145.5</ele><time>2026-05-04T16:45:50.001Z</time></trkpt><trkpt lat="41.27382984690466" lon="1.595385965168046"><ele>145.25</ele><time>2026-05-04T16:45:51.001Z</time></trkpt><trkpt lat="41.27376727716492" lon="1.5955080967720572"><ele>145.0</ele><time>2026-05-04T16:45:52.001Z</time></trkpt><trkpt lat="41.27370743947192" lon="1.5956303247090393"><ele>145.0</ele><time>2026-05-04T16:45:53.001Z</time></trkpt><trkpt lat="41.2736562250946" lon="1.595754178493913"><ele>145.0</ele><time>2026-05-04T16:45:54.001Z</time></trkpt><trkpt lat="41.273597313786" lon="1.5958748126154358"><ele>145.0</ele><time>2026-05-04T16:45:55.001Z</time></trkpt><trkpt lat="41.27353499706796" lon="1.5959943036182898"><ele>145.0</ele><time>2026-05-04T16:45:56.001Z</time></trkpt><trkpt lat="41.27347407072196" lon="1.5961144927288027"><ele>145.0</ele><time>2026-05-04T16:45:57.001Z</time></trkpt><trkpt lat="41.273403576856666" lon="1.5962219349683044"><ele>144.8</ele><time>2026-05-04T16:45:58.001Z</time></trkpt><trkpt lat="41.273341058074955" lon="1.5963442391415155"><ele>144.6</ele><time>2026-05-04T16:45:59.001Z</time></trkpt><trkpt lat="41.27328207969905" lon="1.596459406951648"><ele>144.4</ele><time>2026-05-04T16:46:00.001Z</time></trkpt><trkpt lat="41.273222478056255" lon="1.5965757917724888"><ele>144.2</ele><time>2026-05-04T16:46:01.001Z</time></trkpt><trkpt lat="41.27316514502342" lon="1.5966883974506787"><ele>144.0</ele><time>2026-05-04T16:46:02.001Z</time></trkpt><trkpt lat="41.27310854714799" lon="1.5968011049122866"><ele>144.4</ele><time>2026-05-04T16:46:03.001Z</time></trkpt><trkpt lat="41.2730535625367" lon="1.5969105998588515"><ele>144.8</ele><time>2026-05-04T16:46:04.001Z</time></trkpt><trkpt lat="41.273000888687285" lon="1.597018309499509"><ele>145.2</ele><time>2026-05-04T16:46:05.001Z</time></trkpt><trkpt lat="41.27295031322581" lon="1.597126685427763"><ele>145.6</ele><time>2026-05-04T16:46:06.001Z</time></trkpt><trkpt lat="41.27290049659871" lon="1.597235318767866"><ele>146.0</ele><time>2026-05-04T16:46:07.001Z</time></trkpt><trkpt lat="41.272853445649055" lon="1.5973410805308106"><ele>146.0</ele><time>2026-05-04T16:46:08.001Z</time></trkpt><trkpt lat="41.272809084884514" lon="1.5974483641876278"><ele>146.0</ele><time>2026-05-04T16:46:09.001Z</time></trkpt><trkpt lat="41.27276788829283" lon="1.5975564193663165"><ele>146.0</ele><time>2026-05-04T16:46:10.001Z</time></trkpt><trkpt lat="41.27272889003785" lon="1.5976665700248527"><ele>146.0</ele><time>2026-05-04T16:46:11.001Z</time></trkpt><trkpt lat="41.27269133938446" lon="1.5977744273346057"><ele>146.0</ele><time>2026-05-04T16:46:12.001Z</time></trkpt><trkpt lat="41.27265474575353" lon="1.5978814864208661"><ele>146.75</ele><time>2026-05-04T16:46:13.001Z</time></trkpt><trkpt lat="41.27258336584026" lon="1.598099229846962"><ele>147.5</ele><time>2026-05-04T16:46:15.001Z</time></trkpt><trkpt lat="41.27254876904978" lon="1.5982120916544016"><ele>148.25</ele><time>2026-05-04T16:46:16.001Z</time></trkpt><trkpt lat="41.27251400419723" lon="1.598327112373298"><ele>149.0</ele><time>2026-05-04T16:46:17.001Z</time></trkpt><trkpt lat="41.27247991243558" lon="1.5984420101635757"><ele>149.0</ele><time>2026-05-04T16:46:18.001Z</time></trkpt><trkpt lat="41.272444794774295" lon="1.5985609715897213"><ele>149.0</ele><time>2026-05-04T16:46:19.001Z</time></trkpt><trkpt lat="41.272407759201236" lon="1.598681683102991"><ele>149.0</ele><time>2026-05-04T16:46:20.001Z</time></trkpt><trkpt lat="41.27237093661139" lon="1.5988048467151894"><ele>149.0</ele><time>2026-05-04T16:46:21.001Z</time></trkpt><trkpt lat="41.27233432163007" lon="1.598929951939876"><ele>149.0</ele><time>2026-05-04T16:46:22.001Z</time></trkpt><trkpt lat="41.27229710652537" lon="1.599062957763884"><ele>150.0</ele><time>2026-05-04T16:46:23.001Z</time></trkpt><trkpt lat="41.2722585488893" lon="1.599198070303267"><ele>151.0</ele><time>2026-05-04T16:46:24.001Z</time></trkpt><trkpt lat="41.272217517086524" lon="1.599338699107977"><ele>152.0</ele><time>2026-05-04T16:46:25.001Z</time></trkpt><trkpt lat="41.27217590461402" lon="1.5994812471252842"><ele>153.0</ele><time>2026-05-04T16:46:26.001Z</time></trkpt><trkpt lat="41.27213685296304" lon="1.5996129196830366"><ele>154.0</ele><time>2026-05-04T16:46:27.001Z</time></trkpt><trkpt lat="41.27209561129273" lon="1.5997518095911536"><ele>154.8</ele><time>2026-05-04T16:46:28.001Z</time></trkpt><trkpt lat="41.27205559683217" lon="1.5998865667344524"><ele>155.60000000000002</ele><time>2026-05-04T16:46:29.001Z</time></trkpt><trkpt lat="41.272025661449554" lon="1.6000434810925899"><ele>156.4</ele><time>2026-05-04T16:46:30.001Z</time></trkpt><trkpt lat="41.27197175278247" lon="1.6001689297309367"><ele>157.20000000000002</ele><time>2026-05-04T16:46:31.001Z</time></trkpt><trkpt lat="41.27193176254612" lon="1.6003039971080795"><ele>158.0</ele><time>2026-05-04T16:46:32.001Z</time></trkpt><trkpt lat="41.27189054223081" lon="1.6004423417203892"><ele>158.0</ele><time>2026-05-04T16:46:33.001Z</time></trkpt><trkpt lat="41.27185026066059" lon="1.6005774144654938"><ele>158.0</ele><time>2026-05-04T16:46:34.001Z</time></trkpt><trkpt lat="41.27181108801066" lon="1.6007087688910977"><ele>158.0</ele><time>2026-05-04T16:46:35.001Z</time></trkpt><trkpt lat="41.27177297577224" lon="1.600835826901991"><ele>158.0</ele><time>2026-05-04T16:46:36.001Z</time></trkpt><trkpt lat="41.2717350989037" lon="1.6009585290293216"><ele>158.0</ele><time>2026-05-04T16:46:37.001Z</time></trkpt><trkpt lat="41.27169746788223" lon="1.601079671826338"><ele>157.8</ele><time>2026-05-04T16:46:38.001Z</time></trkpt><trkpt lat="41.27169182476095" lon="1.6012068699147386"><ele>157.60000000000002</ele><time>2026-05-04T16:46:39.001Z</time></trkpt><trkpt lat="41.271654653430915" lon="1.6013140691220897"><ele>157.39999999999998</ele><time>2026-05-04T16:46:40.001Z</time></trkpt><trkpt lat="41.271605076310806" lon="1.6014055375978284"><ele>157.2</ele><time>2026-05-04T16:46:41.001Z</time></trkpt><trkpt lat="41.2715098926677" lon="1.6014245601414534"><ele>157.0</ele><time>2026-05-04T16:46:42.001Z</time></trkpt><trkpt lat="41.27146744273818" lon="1.6015249009900043"><ele>157.0</ele><time>2026-05-04T16:46:43.001Z</time></trkpt><trkpt lat="41.27142406174816" lon="1.6016220730705437"><ele>157.0</ele><time>2026-05-04T16:46:44.001Z</time></trkpt><trkpt lat="41.27140893795024" lon="1.6017367939818565"><ele>157.0</ele><time>2026-05-04T16:46:45.001Z</time></trkpt><trkpt lat="41.27142666775425" lon="1.6018561319687719"><ele>157.0</ele><time>2026-05-04T16:46:46.001Z</time></trkpt><trkpt lat="41.27145949074693" lon="1.6019752519193988"><ele>157.0</ele><time>2026-05-04T16:46:47.001Z</time></trkpt><trkpt lat="41.271480927435114" lon="1.602098897814935"><ele>157.0</ele><time>2026-05-04T16:46:48.001Z</time></trkpt><trkpt lat="41.271441569025995" lon="1.6022212322647624"><ele>157.0</ele><time>2026-05-04T16:46:49.001Z</time></trkpt><trkpt lat="41.27142182164186" lon="1.6023545783985311"><ele>157.0</ele><time>2026-05-04T16:46:50.001Z</time></trkpt><trkpt lat="41.27133081314431" lon="1.6024399675523426"><ele>157.0</ele><time>2026-05-04T16:46:51.001Z</time></trkpt><trkpt lat="41.27127329742011" lon="1.60255496562578"><ele>157.0</ele><time>2026-05-04T16:46:52.001Z</time></trkpt><trkpt lat="41.27122714913795" lon="1.6026861423747925"><ele>157.0</ele><time>2026-05-04T16:46:53.001Z</time></trkpt><trkpt lat="41.27116124211667" lon="1.6028011878248187"><ele>157.0</ele><time>2026-05-04T16:46:54.001Z</time></trkpt><trkpt lat="41.271098625827726" lon="1.6029187607739253"><ele>157.0</ele><time>2026-05-04T16:46:55.001Z</time></trkpt><trkpt lat="41.27103837936374" lon="1.603043313557343"><ele>157.0</ele><time>2026-05-04T16:46:56.001Z</time></trkpt><trkpt lat="41.27097591362927" lon="1.6031654339172512"><ele>157.0</ele><time>2026-05-04T16:46:57.001Z</time></trkpt><trkpt lat="41.270911947591095" lon="1.603285547963232"><ele>157.0</ele><time>2026-05-04T16:46:58.001Z</time></trkpt><trkpt lat="41.270850954835375" lon="1.6034095510084048"><ele>157.0</ele><time>2026-05-04T16:46:59Z</time></trkpt><trkpt lat="41.27078843173562" lon="1.6035323104553763"><ele>157.0</ele><time>2026-05-04T16:47:00Z</time></trkpt><trkpt lat="41.27072612297748" lon="1.6036542347815665"><ele>157.0</ele><time>2026-05-04T16:47:01Z</time></trkpt><trkpt lat="41.270664449350825" lon="1.6037791760933584"><ele>157.0</ele><time>2026-05-04T16:47:02Z</time></trkpt><trkpt lat="41.27060083085299" lon="1.6039030699789503"><ele>157.0</ele><time>2026-05-04T16:47:03Z</time></trkpt><trkpt lat="41.27053752663926" lon="1.604027326801811"><ele>157.0</ele><time>2026-05-04T16:47:04Z</time></trkpt><trkpt lat="41.27047505510356" lon="1.6041468945902346"><ele>157.0</ele><time>2026-05-04T16:47:05Z</time></trkpt><trkpt lat="41.27040920406968" lon="1.6042712013752567"><ele>157.0</ele><time>2026-05-04T16:47:06Z</time></trkpt><trkpt lat="41.2703515882803" lon="1.6043981272053836"><ele>157.0</ele><time>2026-05-04T16:47:07Z</time></trkpt><trkpt lat="41.27028394340743" lon="1.6045191203072746"><ele>155.79999999999998</ele><time>2026-05-04T16:47:08Z</time></trkpt><trkpt lat="41.27022207295674" lon="1.6046426019524767"><ele>154.6</ele><time>2026-05-04T16:47:09Z</time></trkpt><trkpt lat="41.27016212429228" lon="1.6047621223586515"><ele>153.39999999999998</ele><time>2026-05-04T16:47:10Z</time></trkpt><trkpt lat="41.27010076197822" lon="1.6048813793534722"><ele>152.2</ele><time>2026-05-04T16:47:11Z</time></trkpt><trkpt lat="41.27004840219652" lon="1.6049944919405408"><ele>151.0</ele><time>2026-05-04T16:47:12Z</time></trkpt><trkpt lat="41.26999506079109" lon="1.6051045830344208"><ele>151.0</ele><time>2026-05-04T16:47:13Z</time></trkpt><trkpt lat="41.2699349986842" lon="1.6051918745992042"><ele>151.0</ele><time>2026-05-04T16:47:14Z</time></trkpt><trkpt lat="41.2698686157713" lon="1.605263027451242"><ele>151.0</ele><time>2026-05-04T16:47:15Z</time></trkpt><trkpt lat="41.269790627255965" lon="1.6053091724173387"><ele>151.0</ele><time>2026-05-04T16:47:16Z</time></trkpt><trkpt lat="41.26976324690185" lon="1.6054066590666167"><ele>151.0</ele><time>2026-05-04T16:47:17Z</time></trkpt><trkpt lat="41.26975679924136" lon="1.6054953687134172"><ele>151.0</ele><time>2026-05-04T16:47:18Z</time></trkpt><trkpt lat="41.269794009191905" lon="1.6055700773859245"><ele>150.42857142857144</ele><time>2026-05-04T16:47:19Z</time></trkpt><trkpt lat="41.269856194534896" lon="1.6056078719434876"><ele>149.85714285714286</ele><time>2026-05-04T16:47:20Z</time></trkpt><trkpt lat="41.269921391973426" lon="1.6056122731929354"><ele>149.28571428571428</ele><time>2026-05-04T16:47:21Z</time></trkpt><trkpt lat="41.27001895179634" lon="1.6056023699196171"><ele>148.71428571428572</ele><time>2026-05-04T16:47:23Z</time></trkpt><trkpt lat="41.270081512439916" lon="1.6056333398273057"><ele>148.14285714285714</ele><time>2026-05-04T16:47:28Z</time></trkpt><trkpt lat="41.27002384262952" lon="1.605596706936876"><ele>147.57142857142858</ele><time>2026-05-04T16:47:31Z</time></trkpt><trkpt lat="41.269953912577314" lon="1.6055522874992534"><ele>147.0</ele><time>2026-05-04T16:47:45Z</time></trkpt><trkpt lat="41.26986940298567" lon="1.6054986054302252"><ele>147.0</ele><time>2026-05-04T16:47:48.001Z</time></trkpt><trkpt lat="41.26980894448349" lon="1.6054602001188651"><ele>147.0</ele><time>2026-05-04T16:47:50.001Z</time></trkpt><trkpt lat="41.26977247616703" lon="1.6053443857387513"><ele>147.0</ele><time>2026-05-04T16:47:53.001Z</time></trkpt><trkpt lat="41.269750823432766" lon="1.6054391141139983"><ele>147.0</ele><time>2026-05-04T16:47:55.001Z</time></trkpt><trkpt lat="41.26977106571389" lon="1.605535437630144"><ele>147.0</ele><time>2026-05-04T16:47:57.001Z</time></trkpt><trkpt lat="41.26983499977598" lon="1.6055956597477359"><ele>147.0</ele><time>2026-05-04T16:47:59.001Z</time></trkpt><trkpt lat="41.269915172715294" lon="1.605528270682226"><ele>147.0</ele><time>2026-05-04T16:48:01.001Z</time></trkpt><trkpt lat="41.26991569839222" lon="1.6053852987484527"><ele>147.0</ele><time>2026-05-04T16:48:03.001Z</time></trkpt><trkpt lat="41.26982276687696" lon="1.6053423216564915"><ele>147.0</ele><time>2026-05-04T16:48:05.001Z</time></trkpt><trkpt lat="41.269764411936954" lon="1.6053840885970911"><ele>147.0</ele><time>2026-05-04T16:48:06.001Z</time></trkpt><trkpt lat="41.26971454561584" lon="1.605455005088047"><ele>147.0</ele><time>2026-05-04T16:48:07.001Z</time></trkpt><trkpt lat="41.269680824748" lon="1.60553217164786"><ele>147.0</ele><time>2026-05-04T16:48:08.001Z</time></trkpt><trkpt lat="41.26970363367738" lon="1.6056544523579284"><ele>147.66666666666666</ele><time>2026-05-04T16:48:09.001Z</time></trkpt><trkpt lat="41.269670417997865" lon="1.6057543272756105"><ele>148.33333333333334</ele><time>2026-05-04T16:48:10.001Z</time></trkpt><trkpt lat="41.26962196366926" lon="1.6058444824127631"><ele>149.0</ele><time>2026-05-04T16:48:11.001Z</time></trkpt><trkpt lat="41.26957008914653" lon="1.6059410121792375"><ele>149.66666666666669</ele><time>2026-05-04T16:48:12.001Z</time></trkpt><trkpt lat="41.26951652737471" lon="1.606042172628502"><ele>150.33333333333334</ele><time>2026-05-04T16:48:13.001Z</time></trkpt><trkpt lat="41.269461679765946" lon="1.6061463751721181"><ele>151.0</ele><time>2026-05-04T16:48:14.001Z</time></trkpt><trkpt lat="41.2694044456183" lon="1.6062511667370285"><ele>151.0</ele><time>2026-05-04T16:48:15.001Z</time></trkpt><trkpt lat="41.26934491290137" lon="1.6063610020629617"><ele>151.0</ele><time>2026-05-04T16:48:16.001Z</time></trkpt><trkpt lat="41.269287717004936" lon="1.6064740983789665"><ele>151.0</ele><time>2026-05-04T16:48:17.001Z</time></trkpt><trkpt lat="41.26923257655853" lon="1.606584444693441"><ele>151.0</ele><time>2026-05-04T16:48:18.001Z</time></trkpt><trkpt lat="41.26917780302118" lon="1.6066873900386662"><ele>151.0</ele><time>2026-05-04T16:48:19.001Z</time></trkpt><trkpt lat="41.26912250605797" lon="1.606781771400121"><ele>151.0</ele><time>2026-05-04T16:48:20.001Z</time></trkpt><trkpt lat="41.269065107670954" lon="1.6068663813286463"><ele>151.0</ele><time>2026-05-04T16:48:21.001Z</time></trkpt><trkpt lat="41.2690055709885" lon="1.606944155207505"><ele>151.0</ele><time>2026-05-04T16:48:22.001Z</time></trkpt><trkpt lat="41.26894280603864" lon="1.6070093612758913"><ele>151.0</ele><time>2026-05-04T16:48:23.001Z</time></trkpt><trkpt lat="41.268876661069754" lon="1.6070619528059447"><ele>151.0</ele><time>2026-05-04T16:48:24.001Z</time></trkpt><trkpt lat="41.26881099596842" lon="1.607110314959433"><ele>151.0</ele><time>2026-05-04T16:48:25.001Z</time></trkpt><trkpt lat="41.26875799308154" lon="1.6071674324147507"><ele>150.5</ele><time>2026-05-04T16:48:26.001Z</time></trkpt><trkpt lat="41.26871593020572" lon="1.6072376525555658"><ele>150.0</ele><time>2026-05-04T16:48:27.001Z</time></trkpt><trkpt lat="41.268698678892854" lon="1.6074052950898567"><ele>149.5</ele><time>2026-05-04T16:48:29.001Z</time></trkpt><trkpt lat="41.268718827429716" lon="1.6074960931979754"><ele>149.0</ele><time>2026-05-04T16:48:30.001Z</time></trkpt><trkpt lat="41.26876509865699" lon="1.6075679624370185"><ele>148.5</ele><time>2026-05-04T16:48:31.001Z</time></trkpt><trkpt lat="41.26883906191244" lon="1.6076067278481214"><ele>148.0</ele><time>2026-05-04T16:48:32.001Z</time></trkpt><trkpt lat="41.26892292700588" lon="1.6076163983639702"><ele>148.0</ele><time>2026-05-04T16:48:33.001Z</time></trkpt><trkpt lat="41.26900844093716" lon="1.6076020979116599"><ele>148.0</ele><time>2026-05-04T16:48:34.001Z</time></trkpt><trkpt lat="41.269099057354126" lon="1.6075897899097933"><ele>148.0</ele><time>2026-05-04T16:48:35.001Z</time></trkpt><trkpt lat="41.26919039045084" lon="1.6076017816935677"><ele>148.0</ele><time>2026-05-04T16:48:36.001Z</time></trkpt><trkpt lat="41.269284217602845" lon="1.607633903476155"><ele>148.0</ele><time>2026-05-04T16:48:37.001Z</time></trkpt><trkpt lat="41.269381901204184" lon="1.6076736506192801"><ele>148.0</ele><time>2026-05-04T16:48:38.001Z</time></trkpt><trkpt lat="41.26948158657746" lon="1.6077260398367514"><ele>148.0</ele><time>2026-05-04T16:48:39.001Z</time></trkpt><trkpt lat="41.269584382030644" lon="1.6077813727696262"><ele>148.0</ele><time>2026-05-04T16:48:40.001Z</time></trkpt><trkpt lat="41.269689465483104" lon="1.6078337391543616"><ele>148.0</ele><time>2026-05-04T16:48:41.001Z</time></trkpt><trkpt lat="41.26979270632852" lon="1.607890791985549"><ele>148.0</ele><time>2026-05-04T16:48:42.001Z</time></trkpt><trkpt lat="41.269899176840234" lon="1.6079461320434336"><ele>146.6</ele><time>2026-05-04T16:48:43.001Z</time></trkpt><trkpt lat="41.270006293209555" lon="1.6080058878561179"><ele>145.20000000000002</ele><time>2026-05-04T16:48:44.001Z</time></trkpt><trkpt lat="41.2701079328768" lon="1.6080428714911092"><ele>143.8</ele><time>2026-05-04T16:48:45.001Z</time></trkpt><trkpt lat="41.270202265194996" lon="1.6080398629242796"><ele>142.4</ele><time>2026-05-04T16:48:46.001Z</time></trkpt><trkpt lat="41.27028078339129" lon="1.6080934966553833"><ele>141.0</ele><time>2026-05-04T16:48:47.001Z</time></trkpt><trkpt lat="41.270444751757694" lon="1.6082084045561476"><ele>141.0</ele><time>2026-05-04T16:48:48.001Z</time></trkpt><trkpt lat="41.27055305327842" lon="1.6082648229905412"><ele>141.0</ele><time>2026-05-04T16:48:49.001Z</time></trkpt><trkpt lat="41.27065961709812" lon="1.6083209319751495"><ele>141.0</ele><time>2026-05-04T16:48:50.001Z</time></trkpt><trkpt lat="41.270768236694465" lon="1.6083781400693768"><ele>141.0</ele><time>2026-05-04T16:48:51.001Z</time></trkpt><trkpt lat="41.270878492805764" lon="1.6084349383980583"><ele>140.25</ele><time>2026-05-04T16:48:52.001Z</time></trkpt><trkpt lat="41.27098570839072" lon="1.6084878951579815"><ele>139.5</ele><time>2026-05-04T16:48:53.001Z</time></trkpt><trkpt lat="41.271094219492745" lon="1.6085438123914648"><ele>138.75</ele><time>2026-05-04T16:48:54.001Z</time></trkpt><trkpt lat="41.27120124180161" lon="1.60860073787156"><ele>138.0</ele><time>2026-05-04T16:48:55.001Z</time></trkpt><trkpt lat="41.27131323532757" lon="1.6086550295107649"><ele>138.0</ele><time>2026-05-04T16:48:56.001Z</time></trkpt><trkpt lat="41.27142345296803" lon="1.60870959916293"><ele>138.0</ele><time>2026-05-04T16:48:57.001Z</time></trkpt><trkpt lat="41.27153305636291" lon="1.608764893228688"><ele>138.0</ele><time>2026-05-04T16:48:58.001Z</time></trkpt><trkpt lat="41.27164348714916" lon="1.6088198915892533"><ele>138.0</ele><time>2026-05-04T16:48:59.002Z</time></trkpt><trkpt lat="41.27175466569781" lon="1.608874716778809"><ele>136.75</ele><time>2026-05-04T16:49:00.002Z</time></trkpt><trkpt lat="41.27186244458985" lon="1.6089307645176105"><ele>135.5</ele><time>2026-05-04T16:49:01.002Z</time></trkpt><trkpt lat="41.27196819441893" lon="1.6089851284673815"><ele>134.25</ele><time>2026-05-04T16:49:02.002Z</time></trkpt><trkpt lat="41.27207445348517" lon="1.609038610406669"><ele>133.0</ele><time>2026-05-04T16:49:03.002Z</time></trkpt><trkpt lat="41.27218208179615" lon="1.6090923681000229"><ele>132.75</ele><time>2026-05-04T16:49:04.002Z</time></trkpt><trkpt lat="41.27228843485233" lon="1.6091469975429487"><ele>132.5</ele><time>2026-05-04T16:49:05Z</time></trkpt><trkpt lat="41.272394331442214" lon="1.6092031360229169"><ele>132.25</ele><time>2026-05-04T16:49:06Z</time></trkpt><trkpt lat="41.27250035879635" lon="1.6092606801503786"><ele>132.0</ele><time>2026-05-04T16:49:07Z</time></trkpt><trkpt lat="41.2726046503181" lon="1.6093149459931007"><ele>132.0</ele><time>2026-05-04T16:49:08Z</time></trkpt><trkpt lat="41.272709266525275" lon="1.6093668660652416"><ele>132.0</ele><time>2026-05-04T16:49:09Z</time></trkpt><trkpt lat="41.272813767728785" lon="1.60942059626874"><ele>132.0</ele><time>2026-05-04T16:49:10Z</time></trkpt><trkpt lat="41.27291422466967" lon="1.6094711409711586"><ele>132.0</ele><time>2026-05-04T16:49:11Z</time></trkpt><trkpt lat="41.27302089806345" lon="1.6095262638410555"><ele>132.0</ele><time>2026-05-04T16:49:12Z</time></trkpt><trkpt lat="41.273125933712585" lon="1.609579005411846"><ele>132.5</ele><time>2026-05-04T16:49:13Z</time></trkpt><trkpt lat="41.27322986043503" lon="1.609632682725599"><ele>133.0</ele><time>2026-05-04T16:49:14Z</time></trkpt><trkpt lat="41.27333595183848" lon="1.609684659316245"><ele>133.5</ele><time>2026-05-04T16:49:15Z</time></trkpt><trkpt lat="41.27344182026712" lon="1.6097408489881897"><ele>134.0</ele><time>2026-05-04T16:49:16Z</time></trkpt><trkpt lat="41.27354704039603" lon="1.609800490431931"><ele>134.0</ele><time>2026-05-04T16:49:17Z</time></trkpt><trkpt lat="41.27365244882019" lon="1.6098534236346602"><ele>134.0</ele><time>2026-05-04T16:49:18Z</time></trkpt><trkpt lat="41.27376034939066" lon="1.6099072973817796"><ele>134.0</ele><time>2026-05-04T16:49:19Z</time></trkpt><trkpt lat="41.27386758956729" lon="1.6099610434826122"><ele>134.0</ele><time>2026-05-04T16:49:20Z</time></trkpt><trkpt lat="41.27397414893278" lon="1.610018494834175"><ele>135.0</ele><time>2026-05-04T16:49:21Z</time></trkpt><trkpt lat="41.27407909410971" lon="1.6100725578817054"><ele>136.0</ele><time>2026-05-04T16:49:22Z</time></trkpt><trkpt lat="41.27418150822734" lon="1.6101288117302697"><ele>137.0</ele><time>2026-05-04T16:49:23Z</time></trkpt><trkpt lat="41.27428768703771" lon="1.6101829517516513"><ele>138.0</ele><time>2026-05-04T16:49:24Z</time></trkpt><trkpt lat="41.274395737372636" lon="1.610238137914269"><ele>138.0</ele><time>2026-05-04T16:49:25Z</time></trkpt><trkpt lat="41.27450147074419" lon="1.6102924776608698"><ele>138.0</ele><time>2026-05-04T16:49:26Z</time></trkpt><trkpt lat="41.274606403954145" lon="1.610348031851761"><ele>138.0</ele><time>2026-05-04T16:49:27Z</time></trkpt><trkpt lat="41.27471455020187" lon="1.6104065501511133"><ele>138.0</ele><time>2026-05-04T16:49:28Z</time></trkpt><trkpt lat="41.274821677962976" lon="1.6104607557420263"><ele>137.6</ele><time>2026-05-04T16:49:29Z</time></trkpt><trkpt lat="41.27492534567302" lon="1.6105128476939352"><ele>137.20000000000002</ele><time>2026-05-04T16:49:30Z</time></trkpt><trkpt lat="41.275029987239236" lon="1.610564591532836"><ele>136.8</ele><time>2026-05-04T16:49:31Z</time></trkpt><trkpt lat="41.27513497199822" lon="1.610617272205831"><ele>136.4</ele><time>2026-05-04T16:49:32Z</time></trkpt><trkpt lat="41.27523887112936" lon="1.6106724809469606"><ele>136.0</ele><time>2026-05-04T16:49:33Z</time></trkpt><trkpt lat="41.27534438538876" lon="1.610724424905967"><ele>136.0</ele><time>2026-05-04T16:49:34Z</time></trkpt><trkpt lat="41.27545017855691" lon="1.6107793994659378"><ele>136.0</ele><time>2026-05-04T16:49:35Z</time></trkpt><trkpt lat="41.27555753474109" lon="1.610834209447618"><ele>136.0</ele><time>2026-05-04T16:49:36Z</time></trkpt><trkpt lat="41.27566189012039" lon="1.6109057456635134"><ele>136.0</ele><time>2026-05-04T16:49:37Z</time></trkpt><trkpt lat="41.2757655178707" lon="1.6109557430281403"><ele>135.75</ele><time>2026-05-04T16:49:38Z</time></trkpt><trkpt lat="41.27587037751738" lon="1.6110067340647622"><ele>135.5</ele><time>2026-05-04T16:49:39Z</time></trkpt><trkpt lat="41.27597571286108" lon="1.6110612734790832"><ele>135.25</ele><time>2026-05-04T16:49:40Z</time></trkpt><trkpt lat="41.27608198048153" lon="1.6111146653499098"><ele>135.0</ele><time>2026-05-04T16:49:41Z</time></trkpt><trkpt lat="41.27618524506992" lon="1.611170267400337"><ele>135.0</ele><time>2026-05-04T16:49:42Z</time></trkpt><trkpt lat="41.27629287975063" lon="1.611222312929521"><ele>135.0</ele><time>2026-05-04T16:49:43Z</time></trkpt><trkpt lat="41.27640060076383" lon="1.611274453462125"><ele>135.0</ele><time>2026-05-04T16:49:44Z</time></trkpt><trkpt lat="41.27649710977259" lon="1.6113290363671104"><ele>135.0</ele><time>2026-05-04T16:49:45Z</time></trkpt><trkpt lat="41.27660385201143" lon="1.6113843773615435"><ele>135.0</ele><time>2026-05-04T16:49:46Z</time></trkpt><trkpt lat="41.276708326390185" lon="1.611437160641598"><ele>135.0</ele><time>2026-05-04T16:49:47Z</time></trkpt><trkpt lat="41.27681354965697" lon="1.611489231265255"><ele>135.0</ele><time>2026-05-04T16:49:48Z</time></trkpt><trkpt lat="41.27692031787908" lon="1.6115432802703578"><ele>135.0</ele><time>2026-05-04T16:49:49Z</time></trkpt><trkpt lat="41.27702297568947" lon="1.6115947923484715"><ele>135.0</ele><time>2026-05-04T16:49:50Z</time></trkpt><trkpt lat="41.27712853322487" lon="1.6116492135228369"><ele>135.0</ele><time>2026-05-04T16:49:51Z</time></trkpt><trkpt lat="41.277231747262405" lon="1.6117027777214228"><ele>135.2</ele><time>2026-05-04T16:49:52Z</time></trkpt><trkpt lat="41.27733678509461" lon="1.6117570792353257"><ele>135.4</ele><time>2026-05-04T16:49:53Z</time></trkpt><trkpt lat="41.27743965861702" lon="1.6118126926422467"><ele>135.6</ele><time>2026-05-04T16:49:54Z</time></trkpt><trkpt lat="41.27754370301904" lon="1.611867839360222"><ele>135.8</ele><time>2026-05-04T16:49:55Z</time></trkpt><trkpt lat="41.27764937310684" lon="1.611918040443207"><ele>136.0</ele><time>2026-05-04T16:49:56Z</time></trkpt><trkpt lat="41.2777564030556" lon="1.6119771428611127"><ele>136.0</ele><time>2026-05-04T16:49:57Z</time></trkpt><trkpt lat="41.277857739723345" lon="1.612019700572704"><ele>136.0</ele><time>2026-05-04T16:49:58Z</time></trkpt><trkpt lat="41.27795522934527" lon="1.6120334571594923"><ele>136.0</ele><time>2026-05-04T16:49:59Z</time></trkpt><trkpt lat="41.27806124104967" lon="1.6120971297908007"><ele>136.0</ele><time>2026-05-04T16:50:00Z</time></trkpt><trkpt lat="41.27817765657951" lon="1.612195194527464"><ele>136.0</ele><time>2026-05-04T16:50:01Z</time></trkpt><trkpt lat="41.27828618663316" lon="1.6122519767666894"><ele>136.0</ele><time>2026-05-04T16:50:02.001Z</time></trkpt><trkpt lat="41.27838552456591" lon="1.6122993624775104"><ele>136.0</ele><time>2026-05-04T16:50:03.001Z</time></trkpt><trkpt lat="41.27849045367182" lon="1.6123603179060455"><ele>136.0</ele><time>2026-05-04T16:50:04.001Z</time></trkpt><trkpt lat="41.278599797522304" lon="1.6124174960337927"><ele>136.0</ele><time>2026-05-04T16:50:05.001Z</time></trkpt><trkpt lat="41.27870751510827" lon="1.6124726527381354"><ele>136.0</ele><time>2026-05-04T16:50:06.001Z</time></trkpt><trkpt lat="41.27881781363321" lon="1.6125395237164557"><ele>136.0</ele><time>2026-05-04T16:50:07.001Z</time></trkpt><trkpt lat="41.27894806828889" lon="1.6126205506244815"><ele>136.0</ele><time>2026-05-04T16:50:08.001Z</time></trkpt><trkpt lat="41.27902280711358" lon="1.6126373759052128"><ele>136.2</ele><time>2026-05-04T16:50:09.001Z</time></trkpt><trkpt lat="41.27912682492381" lon="1.6126883950855575"><ele>136.39999999999998</ele><time>2026-05-04T16:50:10.001Z</time></trkpt><trkpt lat="41.27923290634202" lon="1.6127410557842468"><ele>136.6</ele><time>2026-05-04T16:50:11.001Z</time></trkpt><trkpt lat="41.27933551573811" lon="1.612793743088689"><ele>136.79999999999998</ele><time>2026-05-04T16:50:12.001Z</time></trkpt><trkpt lat="41.279440203199435" lon="1.6128475994081621"><ele>137.0</ele><time>2026-05-04T16:50:13.001Z</time></trkpt><trkpt lat="41.279542239606705" lon="1.6129031094114412"><ele>137.0</ele><time>2026-05-04T16:50:14.001Z</time></trkpt><trkpt lat="41.279646288560265" lon="1.6129559108445022"><ele>137.0</ele><time>2026-05-04T16:50:15.001Z</time></trkpt><trkpt lat="41.27975147336246" lon="1.613010623040202"><ele>137.0</ele><time>2026-05-04T16:50:16.001Z</time></trkpt><trkpt lat="41.2798574289185" lon="1.6130641615584291"><ele>137.0</ele><time>2026-05-04T16:50:17.001Z</time></trkpt><trkpt lat="41.27996137686839" lon="1.6131172169404244"><ele>137.0</ele><time>2026-05-04T16:50:18.001Z</time></trkpt><trkpt lat="41.28007164550339" lon="1.613173761476307"><ele>137.25</ele><time>2026-05-04T16:50:19.001Z</time></trkpt><trkpt lat="41.280170122974795" lon="1.6132305509383216"><ele>137.5</ele><time>2026-05-04T16:50:20.001Z</time></trkpt><trkpt lat="41.28027906067153" lon="1.6132808273581634"><ele>137.75</ele><time>2026-05-04T16:50:21.001Z</time></trkpt><trkpt lat="41.28039098764141" lon="1.6133342417734728"><ele>138.0</ele><time>2026-05-04T16:50:22.001Z</time></trkpt><trkpt lat="41.28049757689483" lon="1.613389007407737"><ele>138.5</ele><time>2026-05-04T16:50:23.001Z</time></trkpt><trkpt lat="41.280605456326015" lon="1.6134465501608672"><ele>139.0</ele><time>2026-05-04T16:50:24.001Z</time></trkpt><trkpt lat="41.28071184704927" lon="1.6134992580365588"><ele>139.5</ele><time>2026-05-04T16:50:25.001Z</time></trkpt><trkpt lat="41.28081980463593" lon="1.6135549488641192"><ele>140.0</ele><time>2026-05-04T16:50:26.001Z</time></trkpt><trkpt lat="41.28092846629294" lon="1.6136093817194213"><ele>140.0</ele><time>2026-05-04T16:50:27.001Z</time></trkpt><trkpt lat="41.281036884445356" lon="1.613666781315511"><ele>140.0</ele><time>2026-05-04T16:50:28.001Z</time></trkpt><trkpt lat="41.281145015645734" lon="1.6137237189760543"><ele>140.0</ele><time>2026-05-04T16:50:29.001Z</time></trkpt><trkpt lat="41.28125712663673" lon="1.6137755151249635"><ele>140.0</ele><time>2026-05-04T16:50:30.001Z</time></trkpt><trkpt lat="41.28136732476459" lon="1.6138367621603464"><ele>140.0</ele><time>2026-05-04T16:50:31.001Z</time></trkpt><trkpt lat="41.28147392997488" lon="1.6138925327233535"><ele>140.0</ele><time>2026-05-04T16:50:32.001Z</time></trkpt><trkpt lat="41.28158188368859" lon="1.6139448514541728"><ele>140.0</ele><time>2026-05-04T16:50:33.001Z</time></trkpt><trkpt lat="41.28169030944948" lon="1.6139872081099502"><ele>140.0</ele><time>2026-05-04T16:50:34.001Z</time></trkpt><trkpt lat="41.28180186658424" lon="1.6140282334116576"><ele>140.0</ele><time>2026-05-04T16:50:35.001Z</time></trkpt><trkpt lat="41.28190953876246" lon="1.6140758530760213"><ele>140.0</ele><time>2026-05-04T16:50:36.001Z</time></trkpt><trkpt lat="41.28202253122237" lon="1.6141083032869776"><ele>140.0</ele><time>2026-05-04T16:50:37.001Z</time></trkpt><trkpt lat="41.28213050807452" lon="1.6141341981541042"><ele>140.0</ele><time>2026-05-04T16:50:38.001Z</time></trkpt><trkpt lat="41.282245208502" lon="1.6141920211515173"><ele>140.5</ele><time>2026-05-04T16:50:39.001Z</time></trkpt><trkpt lat="41.28235393633784" lon="1.6142383842779469"><ele>141.0</ele><time>2026-05-04T16:50:40.001Z</time></trkpt><trkpt lat="41.282462542406606" lon="1.6142911224127212"><ele>141.5</ele><time>2026-05-04T16:50:41.001Z</time></trkpt><trkpt lat="41.282573492444875" lon="1.614349862684184"><ele>142.0</ele><time>2026-05-04T16:50:42.001Z</time></trkpt><trkpt lat="41.282679846087525" lon="1.6144090354669585"><ele>142.0</ele><time>2026-05-04T16:50:43.001Z</time></trkpt><trkpt lat="41.282786670346304" lon="1.6144759012848653"><ele>142.0</ele><time>2026-05-04T16:50:44.001Z</time></trkpt><trkpt lat="41.28288559700874" lon="1.614551591777031"><ele>142.0</ele><time>2026-05-04T16:50:45.001Z</time></trkpt><trkpt lat="41.2829849772327" lon="1.6146400733669624"><ele>142.0</ele><time>2026-05-04T16:50:46.001Z</time></trkpt><trkpt lat="41.283073797810744" lon="1.6147243543554854"><ele>140.5</ele><time>2026-05-04T16:50:47.001Z</time></trkpt><trkpt lat="41.28316662297702" lon="1.6148255123563586"><ele>139.0</ele><time>2026-05-04T16:50:48.001Z</time></trkpt><trkpt lat="41.283255357805665" lon="1.6149273583469768"><ele>137.5</ele><time>2026-05-04T16:50:49.001Z</time></trkpt><trkpt lat="41.28334279351521" lon="1.6150277787631788"><ele>136.0</ele><time>2026-05-04T16:50:50.001Z</time></trkpt><trkpt lat="41.28342338115647" lon="1.6151205802753708"><ele>136.0</ele><time>2026-05-04T16:50:51.001Z</time></trkpt><trkpt lat="41.28350743749697" lon="1.615229444776371"><ele>136.0</ele><time>2026-05-04T16:50:52.001Z</time></trkpt><trkpt lat="41.28360199719286" lon="1.6153435647311207"><ele>136.0</ele><time>2026-05-04T16:50:53.001Z</time></trkpt><trkpt lat="41.28371677580513" lon="1.6154976061950241"><ele>136.0</ele><time>2026-05-04T16:50:54.001Z</time></trkpt><trkpt lat="41.28380591077929" lon="1.6156066013836992"><ele>135.75</ele><time>2026-05-04T16:50:55.001Z</time></trkpt><trkpt lat="41.283926710671686" lon="1.615761740427355"><ele>135.5</ele><time>2026-05-04T16:50:57.001Z</time></trkpt><trkpt lat="41.28401205547844" lon="1.6158651324454925"><ele>135.25</ele><time>2026-05-04T16:50:58.001Z</time></trkpt><trkpt lat="41.28409642295623" lon="1.6159734986134853"><ele>135.0</ele><time>2026-05-04T16:50:59.001Z</time></trkpt><trkpt lat="41.28417936002747" lon="1.6160800206203958"><ele>135.25</ele><time>2026-05-04T16:51:00.001Z</time></trkpt><trkpt lat="41.28426439174014" lon="1.6161833034558597"><ele>135.5</ele><time>2026-05-04T16:51:01.001Z</time></trkpt><trkpt lat="41.28434824351027" lon="1.6162902014631468"><ele>135.75</ele><time>2026-05-04T16:51:02.001Z</time></trkpt><trkpt lat="41.28443340626595" lon="1.616391755780007"><ele>136.0</ele><time>2026-05-04T16:51:03.001Z</time></trkpt><trkpt lat="41.28451693907883" lon="1.6164987245184945"><ele>136.0</ele><time>2026-05-04T16:51:04.001Z</time></trkpt><trkpt lat="41.28459734128373" lon="1.6166035786054753"><ele>136.0</ele><time>2026-05-04T16:51:05.001Z</time></trkpt><trkpt lat="41.284680240414154" lon="1.6167057187914111"><ele>136.0</ele><time>2026-05-04T16:51:06.001Z</time></trkpt><trkpt lat="41.28475646927014" lon="1.6168010639753219"><ele>136.0</ele><time>2026-05-04T16:51:07.001Z</time></trkpt><trkpt lat="41.284844838902735" lon="1.616900904311857"><ele>136.0</ele><time>2026-05-04T16:51:08.001Z</time></trkpt><trkpt lat="41.28492684264376" lon="1.6170027193711638"><ele>136.4</ele><time>2026-05-04T16:51:09.001Z</time></trkpt><trkpt lat="41.28500810121807" lon="1.6171000294863234"><ele>136.8</ele><time>2026-05-04T16:51:10.001Z</time></trkpt><trkpt lat="41.285089786110014" lon="1.6171926334450601"><ele>137.20000000000002</ele><time>2026-05-04T16:51:10.999Z</time></trkpt><trkpt lat="41.285173169859604" lon="1.6172870618416635"><ele>137.6</ele><time>2026-05-04T16:51:11.999Z</time></trkpt><trkpt lat="41.28525898741648" lon="1.6173819228158137"><ele>138.0</ele><time>2026-05-04T16:51:13Z</time></trkpt><trkpt lat="41.28534734691013" lon="1.6174720631323982"><ele>138.0</ele><time>2026-05-04T16:51:14Z</time></trkpt><trkpt lat="41.28543657569894" lon="1.6175596894961914"><ele>138.0</ele><time>2026-05-04T16:51:15Z</time></trkpt><trkpt lat="41.285524563651855" lon="1.6176496622277523"><ele>138.0</ele><time>2026-05-04T16:51:16Z</time></trkpt><trkpt lat="41.28561861982469" lon="1.6177354505882249"><ele>138.0</ele><time>2026-05-04T16:51:17Z</time></trkpt><trkpt lat="41.28571066491879" lon="1.6178246647368355"><ele>138.8</ele><time>2026-05-04T16:51:18Z</time></trkpt><trkpt lat="41.285800947936366" lon="1.6179131189141935"><ele>139.60000000000002</ele><time>2026-05-04T16:51:19Z</time></trkpt><trkpt lat="41.28589090298059" lon="1.618002609355035"><ele>140.39999999999998</ele><time>2026-05-04T16:51:20Z</time></trkpt><trkpt lat="41.2859791118899" lon="1.6180935762295923"><ele>141.2</ele><time>2026-05-04T16:51:21Z</time></trkpt><trkpt lat="41.28606889119625" lon="1.618181631652644"><ele>142.0</ele><time>2026-05-04T16:51:22Z</time></trkpt><trkpt lat="41.28615804391717" lon="1.6182689069929979"><ele>142.0</ele><time>2026-05-04T16:51:23Z</time></trkpt><trkpt lat="41.28624698861758" lon="1.6183568355306637"><ele>142.0</ele><time>2026-05-04T16:51:24Z</time></trkpt><trkpt lat="41.28633546143167" lon="1.6184423309855818"><ele>142.0</ele><time>2026-05-04T16:51:25Z</time></trkpt><trkpt lat="41.286425136901805" lon="1.6185322347049758"><ele>142.0</ele><time>2026-05-04T16:51:26Z</time></trkpt><trkpt lat="41.286515273126525" lon="1.6186175606127982"><ele>142.0</ele><time>2026-05-04T16:51:27Z</time></trkpt><trkpt lat="41.28660232626131" lon="1.6187073183420433"><ele>141.6</ele><time>2026-05-04T16:51:28Z</time></trkpt><trkpt lat="41.28669054491012" lon="1.6187936416392013"><ele>141.2</ele><time>2026-05-04T16:51:29Z</time></trkpt><trkpt lat="41.286780255718064" lon="1.6188814115658565"><ele>140.8</ele><time>2026-05-04T16:51:30Z</time></trkpt><trkpt lat="41.286869505677" lon="1.6189692114921417"><ele>140.4</ele><time>2026-05-04T16:51:31Z</time></trkpt><trkpt lat="41.28695854169955" lon="1.6190596155326875"><ele>140.0</ele><time>2026-05-04T16:51:32Z</time></trkpt><trkpt lat="41.28705088154619" lon="1.6191487974629937"><ele>140.0</ele><time>2026-05-04T16:51:33Z</time></trkpt><trkpt lat="41.287141658704655" lon="1.6192365166703246"><ele>140.0</ele><time>2026-05-04T16:51:34Z</time></trkpt><trkpt lat="41.2872336241371" lon="1.61932303931963"><ele>140.0</ele><time>2026-05-04T16:51:35Z</time></trkpt><trkpt lat="41.2873235557436" lon="1.6194159796998184"><ele>140.0</ele><time>2026-05-04T16:51:36Z</time></trkpt><trkpt lat="41.28741089211192" lon="1.6195048658730717"><ele>140.0</ele><time>2026-05-04T16:51:37Z</time></trkpt><trkpt lat="41.287504807754495" lon="1.6195906229729913"><ele>140.75</ele><time>2026-05-04T16:51:38Z</time></trkpt><trkpt lat="41.287593770087696" lon="1.6196829716953858"><ele>141.5</ele><time>2026-05-04T16:51:39Z</time></trkpt><trkpt lat="41.28768508992213" lon="1.619769846306221"><ele>142.25</ele><time>2026-05-04T16:51:40Z</time></trkpt><trkpt lat="41.28777684085137" lon="1.6198578502691694"><ele>143.0</ele><time>2026-05-04T16:51:41Z</time></trkpt><trkpt lat="41.28786639278813" lon="1.6199477873029366"><ele>143.0</ele><time>2026-05-04T16:51:42Z</time></trkpt><trkpt lat="41.28796125037676" lon="1.6200229143467526"><ele>143.0</ele><time>2026-05-04T16:51:43Z</time></trkpt><trkpt lat="41.28805387244291" lon="1.620128719818139"><ele>143.0</ele><time>2026-05-04T16:51:44Z</time></trkpt><trkpt lat="41.28814234326225" lon="1.6202195828910477"><ele>143.0</ele><time>2026-05-04T16:51:45Z</time></trkpt><trkpt lat="41.28823367661635" lon="1.6203088053430583"><ele>143.20000000000002</ele><time>2026-05-04T16:51:46Z</time></trkpt><trkpt lat="41.28832217609893" lon="1.620400706477969"><ele>143.4</ele><time>2026-05-04T16:51:47Z</time></trkpt><trkpt lat="41.28841066436803" lon="1.6204900135625135"><ele>143.60000000000002</ele><time>2026-05-04T16:51:48Z</time></trkpt><trkpt lat="41.28850134931126" lon="1.6205804848999044"><ele>143.8</ele><time>2026-05-04T16:51:49Z</time></trkpt><trkpt lat="41.28859225509377" lon="1.620667608430154"><ele>144.0</ele><time>2026-05-04T16:51:50Z</time></trkpt><trkpt lat="41.28868186296542" lon="1.6207525903735531"><ele>144.0</ele><time>2026-05-04T16:51:51Z</time></trkpt><trkpt lat="41.28877151722792" lon="1.6208451810596816"><ele>144.0</ele><time>2026-05-04T16:51:52Z</time></trkpt><trkpt lat="41.2888616405734" lon="1.6209353225569596"><ele>144.0</ele><time>2026-05-04T16:51:53Z</time></trkpt><trkpt lat="41.28895303120652" lon="1.621022664732166"><ele>144.0</ele><time>2026-05-04T16:51:54Z</time></trkpt><trkpt lat="41.28904323728328" lon="1.6211106462014797"><ele>143.5</ele><time>2026-05-04T16:51:55Z</time></trkpt><trkpt lat="41.289132351008746" lon="1.6211973650513423"><ele>143.0</ele><time>2026-05-04T16:51:56Z</time></trkpt><trkpt lat="41.28922363563755" lon="1.6212846310848608"><ele>142.5</ele><time>2026-05-04T16:51:57Z</time></trkpt><trkpt lat="41.28931422781412" lon="1.621371557761325"><ele>142.0</ele><time>2026-05-04T16:51:58Z</time></trkpt><trkpt lat="41.28940650930107" lon="1.6214638691308998"><ele>142.0</ele><time>2026-05-04T16:51:59Z</time></trkpt><trkpt lat="41.28949385614065" lon="1.6215537416473313"><ele>142.0</ele><time>2026-05-04T16:52:00Z</time></trkpt><trkpt lat="41.28958441907291" lon="1.6216415584322912"><ele>142.0</ele><time>2026-05-04T16:52:01Z</time></trkpt><trkpt lat="41.28967791497266" lon="1.6217298846928383"><ele>142.0</ele><time>2026-05-04T16:52:02Z</time></trkpt><trkpt lat="41.2897672197158" lon="1.621820691343083"><ele>142.0</ele><time>2026-05-04T16:52:03Z</time></trkpt><trkpt lat="41.28985582755998" lon="1.6219117556147356"><ele>142.6</ele><time>2026-05-04T16:52:04Z</time></trkpt><trkpt lat="41.28994560480136" lon="1.6220002991599358"><ele>143.2</ele><time>2026-05-04T16:52:05Z</time></trkpt><trkpt lat="41.29003725390275" lon="1.6220899644126947"><ele>143.8</ele><time>2026-05-04T16:52:06Z</time></trkpt><trkpt lat="41.29012790297028" lon="1.6221786386942536"><ele>144.4</ele><time>2026-05-04T16:52:07Z</time></trkpt><trkpt lat="41.29021717858688" lon="1.6222674532832737"><ele>145.0</ele><time>2026-05-04T16:52:08Z</time></trkpt><trkpt lat="41.29030650200227" lon="1.6223535699821081"><ele>145.0</ele><time>2026-05-04T16:52:09.001Z</time></trkpt><trkpt lat="41.29039755590627" lon="1.6224406930209536"><ele>145.0</ele><time>2026-05-04T16:52:10.001Z</time></trkpt><trkpt lat="41.29048563185195" lon="1.6225274100727705"><ele>145.0</ele><time>2026-05-04T16:52:11.001Z</time></trkpt><trkpt lat="41.290573821364944" lon="1.6226132764678713"><ele>145.0</ele><time>2026-05-04T16:52:12.001Z</time></trkpt><trkpt lat="41.290660789503406" lon="1.6227002032256328"><ele>145.0</ele><time>2026-05-04T16:52:13.001Z</time></trkpt><trkpt lat="41.290748360385436" lon="1.622786806086302"><ele>146.2</ele><time>2026-05-04T16:52:14.001Z</time></trkpt><trkpt lat="41.290834137364726" lon="1.622872435506391"><ele>147.4</ele><time>2026-05-04T16:52:15.001Z</time></trkpt><trkpt lat="41.29092222244636" lon="1.6229574870218217"><ele>148.6</ele><time>2026-05-04T16:52:16.001Z</time></trkpt><trkpt lat="41.2910084060182" lon="1.6230430884761726"><ele>149.8</ele><time>2026-05-04T16:52:17.001Z</time></trkpt><trkpt lat="41.291095196781384" lon="1.6231275926915727"><ele>151.0</ele><time>2026-05-04T16:52:18.001Z</time></trkpt><trkpt lat="41.29118184506321" lon="1.623215082090461"><ele>151.0</ele><time>2026-05-04T16:52:19.001Z</time></trkpt><trkpt lat="41.29126985496245" lon="1.6233008819803558"><ele>151.0</ele><time>2026-05-04T16:52:20.001Z</time></trkpt><trkpt lat="41.291357742130224" lon="1.6233847376512875"><ele>151.0</ele><time>2026-05-04T16:52:21.001Z</time></trkpt><trkpt lat="41.29144361003811" lon="1.6234706852446377"><ele>151.0</ele><time>2026-05-04T16:52:22.001Z</time></trkpt><trkpt lat="41.29153042547371" lon="1.623555198357525"><ele>151.0</ele><time>2026-05-04T16:52:23.001Z</time></trkpt><trkpt lat="41.29162108363633" lon="1.623633709539647"><ele>151.0</ele><time>2026-05-04T16:52:24.001Z</time></trkpt><trkpt lat="41.291717069870494" lon="1.62371478985384"><ele>151.0</ele><time>2026-05-04T16:52:25.001Z</time></trkpt><trkpt lat="41.2918135929167" lon="1.6237934845468738"><ele>151.0</ele><time>2026-05-04T16:52:26.001Z</time></trkpt><trkpt lat="41.291908965011416" lon="1.62387196751436"><ele>151.0</ele><time>2026-05-04T16:52:27.001Z</time></trkpt><trkpt lat="41.292007944227834" lon="1.6239676370491913"><ele>151.0</ele><time>2026-05-04T16:52:28.001Z</time></trkpt><trkpt lat="41.29210415262696" lon="1.6240562633213529"><ele>151.0</ele><time>2026-05-04T16:52:29.001Z</time></trkpt><trkpt lat="41.29219959176608" lon="1.6241395583610545"><ele>151.0</ele><time>2026-05-04T16:52:30.001Z</time></trkpt><trkpt lat="41.29229852544457" lon="1.624223471316874"><ele>151.0</ele><time>2026-05-04T16:52:31.001Z</time></trkpt><trkpt lat="41.29239773283609" lon="1.6243033156436073"><ele>150.75</ele><time>2026-05-04T16:52:32.001Z</time></trkpt><trkpt lat="41.29249316743634" lon="1.624395449686804"><ele>150.5</ele><time>2026-05-04T16:52:33.001Z</time></trkpt><trkpt lat="41.29258922215559" lon="1.624473759989793"><ele>150.25</ele><time>2026-05-04T16:52:34.001Z</time></trkpt><trkpt lat="41.292679593225614" lon="1.6245500029653068"><ele>150.0</ele><time>2026-05-04T16:52:35.001Z</time></trkpt><trkpt lat="41.29278334972495" lon="1.6246514508443703"><ele>149.5</ele><time>2026-05-04T16:52:36.001Z</time></trkpt><trkpt lat="41.29287402222375" lon="1.624728568191985"><ele>149.0</ele><time>2026-05-04T16:52:37.001Z</time></trkpt><trkpt lat="41.292962287230864" lon="1.6247991635080359"><ele>148.5</ele><time>2026-05-04T16:52:38.001Z</time></trkpt><trkpt lat="41.29303796053214" lon="1.6248764349107454"><ele>148.0</ele><time>2026-05-04T16:52:39.001Z</time></trkpt><trkpt lat="41.293168696431465" lon="1.6249713738948142"><ele>147.75</ele><time>2026-05-04T16:52:40.001Z</time></trkpt><trkpt lat="41.29325891681476" lon="1.625060626931895"><ele>147.5</ele><time>2026-05-04T16:52:41.001Z</time></trkpt><trkpt lat="41.29335454082178" lon="1.625143459707157"><ele>147.25</ele><time>2026-05-04T16:52:42.001Z</time></trkpt><trkpt lat="41.29344848364436" lon="1.6252237499447708"><ele>147.0</ele><time>2026-05-04T16:52:43.001Z</time></trkpt><trkpt lat="41.29354379031057" lon="1.6253063160256673"><ele>146.5</ele><time>2026-05-04T16:52:44.001Z</time></trkpt><trkpt lat="41.29363662315588" lon="1.6253874267957749"><ele>146.0</ele><time>2026-05-04T16:52:45.001Z</time></trkpt><trkpt lat="41.29373162142804" lon="1.6254742589477684"><ele>145.5</ele><time>2026-05-04T16:52:46.001Z</time></trkpt><trkpt lat="41.29382298180957" lon="1.6255634965368009"><ele>145.0</ele><time>2026-05-04T16:52:47.001Z</time></trkpt><trkpt lat="41.293913170334676" lon="1.6256551007135842"><ele>145.0</ele><time>2026-05-04T16:52:48.001Z</time></trkpt><trkpt lat="41.293998543015746" lon="1.6257493695631653"><ele>145.0</ele><time>2026-05-04T16:52:49.001Z</time></trkpt><trkpt lat="41.29408479952304" lon="1.6258452252020958"><ele>145.0</ele><time>2026-05-04T16:52:50.001Z</time></trkpt><trkpt lat="41.294170909138074" lon="1.625944777644265"><ele>145.0</ele><time>2026-05-04T16:52:51.001Z</time></trkpt><trkpt lat="41.29425202007942" lon="1.6260451051211693"><ele>145.0</ele><time>2026-05-04T16:52:52.001Z</time></trkpt><trkpt lat="41.29433391135648" lon="1.6261505093148991"><ele>145.0</ele><time>2026-05-04T16:52:53.001Z</time></trkpt><trkpt lat="41.29441204482834" lon="1.6262592896838437"><ele>145.0</ele><time>2026-05-04T16:52:54.001Z</time></trkpt><trkpt lat="41.29449007522015" lon="1.6263644997072852"><ele>145.0</ele><time>2026-05-04T16:52:55.001Z</time></trkpt><trkpt lat="41.29456707150155" lon="1.626476183778471"><ele>145.0</ele><time>2026-05-04T16:52:56.001Z</time></trkpt><trkpt lat="41.29464291079393" lon="1.6265883555164633"><ele>145.0</ele><time>2026-05-04T16:52:57.001Z</time></trkpt><trkpt lat="41.294715645735394" lon="1.626702929520701"><ele>145.0</ele><time>2026-05-04T16:52:58.001Z</time></trkpt><trkpt lat="41.294788927884596" lon="1.6268258722462454"><ele>145.0</ele><time>2026-05-04T16:52:59.001Z</time></trkpt><trkpt lat="41.29485906959371" lon="1.6269475051770395"><ele>145.0</ele><time>2026-05-04T16:53:00.001Z</time></trkpt><trkpt lat="41.294934504326356" lon="1.627063862398143"><ele>145.75</ele><time>2026-05-04T16:53:01.001Z</time></trkpt><trkpt lat="41.29500299492574" lon="1.6271922937134833"><ele>146.5</ele><time>2026-05-04T16:53:02.001Z</time></trkpt><trkpt lat="41.295061271130955" lon="1.6273253259749578"><ele>147.25</ele><time>2026-05-04T16:53:03.001Z</time></trkpt><trkpt lat="41.29512530064438" lon="1.6274651598186218"><ele>148.0</ele><time>2026-05-04T16:53:04.001Z</time></trkpt><trkpt lat="41.29518737490571" lon="1.627600818577938"><ele>148.0</ele><time>2026-05-04T16:53:05.001Z</time></trkpt><trkpt lat="41.29523614704064" lon="1.6277406969909822"><ele>148.0</ele><time>2026-05-04T16:53:06.001Z</time></trkpt><trkpt lat="41.29528727748207" lon="1.6278836869316775"><ele>148.0</ele><time>2026-05-04T16:53:07.001Z</time></trkpt><trkpt lat="41.29534413613458" lon="1.6280285417997258"><ele>148.0</ele><time>2026-05-04T16:53:08.001Z</time></trkpt><trkpt lat="41.29539372856946" lon="1.6281719967978563"><ele>147.75</ele><time>2026-05-04T16:53:09.001Z</time></trkpt><trkpt lat="41.29544312450952" lon="1.6283170547416128"><ele>147.5</ele><time>2026-05-04T16:53:10.001Z</time></trkpt><trkpt lat="41.29548999866742" lon="1.628463428715407"><ele>147.25</ele><time>2026-05-04T16:53:11.001Z</time></trkpt><trkpt lat="41.2955352579682" lon="1.6286135832234174"><ele>147.0</ele><time>2026-05-04T16:53:12.001Z</time></trkpt><trkpt lat="41.295581080752186" lon="1.6287614802992352"><ele>147.0</ele><time>2026-05-04T16:53:13.001Z</time></trkpt><trkpt lat="41.29562882621455" lon="1.6289097343402283"><ele>147.0</ele><time>2026-05-04T16:53:14.001Z</time></trkpt><trkpt lat="41.29566962250636" lon="1.6290585824444028"><ele>147.0</ele><time>2026-05-04T16:53:15.002Z</time></trkpt><trkpt lat="41.29571325411536" lon="1.6292047648752639"><ele>147.0</ele><time>2026-05-04T16:53:16.002Z</time></trkpt><trkpt lat="41.29575618631098" lon="1.629348666184112"><ele>145.75</ele><time>2026-05-04T16:53:17Z</time></trkpt><trkpt lat="41.295801838880834" lon="1.6294951702184937"><ele>144.5</ele><time>2026-05-04T16:53:18Z</time></trkpt><trkpt lat="41.29584553300179" lon="1.6296381621022984"><ele>143.25</ele><time>2026-05-04T16:53:19Z</time></trkpt><trkpt lat="41.29588382052943" lon="1.6297798093730342"><ele>142.0</ele><time>2026-05-04T16:53:20Z</time></trkpt><trkpt lat="41.29592699541586" lon="1.6299208167524084"><ele>142.0</ele><time>2026-05-04T16:53:21Z</time></trkpt><trkpt lat="41.29596877330472" lon="1.6300623585314507"><ele>142.0</ele><time>2026-05-04T16:53:22Z</time></trkpt><trkpt lat="41.29601447014779" lon="1.6302015260426304"><ele>142.0</ele><time>2026-05-04T16:53:23Z</time></trkpt><trkpt lat="41.29605977510844" lon="1.6303371555451802"><ele>142.0</ele><time>2026-05-04T16:53:24Z</time></trkpt><trkpt lat="41.29610207692183" lon="1.6304762805729127"><ele>142.0</ele><time>2026-05-04T16:53:25Z</time></trkpt><trkpt lat="41.29615238427599" lon="1.630604985686316"><ele>142.0</ele><time>2026-05-04T16:53:26Z</time></trkpt><trkpt lat="41.296209265249146" lon="1.630731188876255"><ele>142.0</ele><time>2026-05-04T16:53:27Z</time></trkpt><trkpt lat="41.296269370538994" lon="1.6308533034989954"><ele>142.0</ele><time>2026-05-04T16:53:28Z</time></trkpt><trkpt lat="41.29632925664984" lon="1.6309740369288446"><ele>142.0</ele><time>2026-05-04T16:53:29Z</time></trkpt><trkpt lat="41.2963867619658" lon="1.6310944049487919"><ele>143.4</ele><time>2026-05-04T16:53:30Z</time></trkpt><trkpt lat="41.296448888047806" lon="1.631210717245994"><ele>144.79999999999998</ele><time>2026-05-04T16:53:31Z</time></trkpt><trkpt lat="41.29651721753819" lon="1.6313212547629226"><ele>146.2</ele><time>2026-05-04T16:53:32Z</time></trkpt><trkpt lat="41.29658977920801" lon="1.6314226208237026"><ele>147.6</ele><time>2026-05-04T16:53:33Z</time></trkpt><trkpt lat="41.296663802692294" lon="1.6315276946625852"><ele>149.0</ele><time>2026-05-04T16:53:34Z</time></trkpt><trkpt lat="41.296734328892875" lon="1.6316313910960765"><ele>149.0</ele><time>2026-05-04T16:53:35Z</time></trkpt><trkpt lat="41.29681085428824" lon="1.631727142908014"><ele>149.0</ele><time>2026-05-04T16:53:36Z</time></trkpt><trkpt lat="41.2968931525428" lon="1.6318161789292438"><ele>149.0</ele><time>2026-05-04T16:53:37Z</time></trkpt><trkpt lat="41.29697675156861" lon="1.6319016737586076"><ele>149.0</ele><time>2026-05-04T16:53:38Z</time></trkpt><trkpt lat="41.29706351249869" lon="1.631983038231649"><ele>149.0</ele><time>2026-05-04T16:53:39Z</time></trkpt><trkpt lat="41.297149326119495" lon="1.6320646842160802"><ele>149.6</ele><time>2026-05-04T16:53:40Z</time></trkpt><trkpt lat="41.297234654075744" lon="1.6321436731328391"><ele>150.2</ele><time>2026-05-04T16:53:41Z</time></trkpt><trkpt lat="41.297322493089226" lon="1.6322165883758804"><ele>150.79999999999998</ele><time>2026-05-04T16:53:42Z</time></trkpt><trkpt lat="41.297413609955484" lon="1.632284910990608"><ele>151.4</ele><time>2026-05-04T16:53:43Z</time></trkpt><trkpt lat="41.297506824748375" lon="1.6323465154117858"><ele>152.0</ele><time>2026-05-04T16:53:44Z</time></trkpt><trkpt lat="41.29760312463903" lon="1.6324044686835262"><ele>152.6</ele><time>2026-05-04T16:53:45Z</time></trkpt><trkpt lat="41.29770016323002" lon="1.632458639408895"><ele>153.2</ele><time>2026-05-04T16:53:46Z</time></trkpt><trkpt lat="41.297796867372156" lon="1.6325092919816335"><ele>153.8</ele><time>2026-05-04T16:53:47Z</time></trkpt><trkpt lat="41.297894749878" lon="1.6325574824451397"><ele>154.4</ele><time>2026-05-04T16:53:48Z</time></trkpt><trkpt lat="41.297994686154134" lon="1.63259854709885"><ele>155.0</ele><time>2026-05-04T16:53:49Z</time></trkpt><trkpt lat="41.298096815886524" lon="1.6326366581293774"><ele>155.2</ele><time>2026-05-04T16:53:50Z</time></trkpt><trkpt lat="41.298198116684695" lon="1.6326700485403052"><ele>155.4</ele><time>2026-05-04T16:53:51Z</time></trkpt><trkpt lat="41.29830091464293" lon="1.6327008303174857"><ele>155.6</ele><time>2026-05-04T16:53:52Z</time></trkpt><trkpt lat="41.2984025686962" lon="1.6327356337734407"><ele>155.8</ele><time>2026-05-04T16:53:53Z</time></trkpt><trkpt lat="41.2985048998845" lon="1.6327720243808492"><ele>156.0</ele><time>2026-05-04T16:53:54Z</time></trkpt><trkpt lat="41.2986063779933" lon="1.6328058672787558"><ele>155.8</ele><time>2026-05-04T16:53:55Z</time></trkpt><trkpt lat="41.29870791403274" lon="1.6328371593414"><ele>155.6</ele><time>2026-05-04T16:53:56Z</time></trkpt><trkpt lat="41.298808296386234" lon="1.6328682554697675"><ele>155.4</ele><time>2026-05-04T16:53:57Z</time></trkpt><trkpt lat="41.29891056354768" lon="1.6328998191763213"><ele>155.2</ele><time>2026-05-04T16:53:58Z</time></trkpt><trkpt lat="41.29900764295931" lon="1.6329362523007105"><ele>155.0</ele><time>2026-05-04T16:53:59Z</time></trkpt><trkpt lat="41.299109513221076" lon="1.6329670139803278"><ele>155.0</ele><time>2026-05-04T16:54:00Z</time></trkpt><trkpt lat="41.29921043667205" lon="1.63299710448791"><ele>155.0</ele><time>2026-05-04T16:54:01Z</time></trkpt><trkpt lat="41.29930973351551" lon="1.6330405175064555"><ele>155.0</ele><time>2026-05-04T16:54:02Z</time></trkpt><trkpt lat="41.299414291901556" lon="1.6330697677588513"><ele>155.0</ele><time>2026-05-04T16:54:03Z</time></trkpt><trkpt lat="41.299520942749815" lon="1.6330969816870515"><ele>155.0</ele><time>2026-05-04T16:54:04Z</time></trkpt><trkpt lat="41.2996218225486" lon="1.6331353262752077"><ele>155.0</ele><time>2026-05-04T16:54:05Z</time></trkpt><trkpt lat="41.29972216580041" lon="1.633175476331538"><ele>155.0</ele><time>2026-05-04T16:54:06Z</time></trkpt><trkpt lat="41.29982918194082" lon="1.6332148608243093"><ele>155.0</ele><time>2026-05-04T16:54:07Z</time></trkpt><trkpt lat="41.299939463083575" lon="1.6332387387522513"><ele>155.0</ele><time>2026-05-04T16:54:08Z</time></trkpt><trkpt lat="41.300048772222695" lon="1.6332723212623441"><ele>155.0</ele><time>2026-05-04T16:54:09Z</time></trkpt><trkpt lat="41.300159154539294" lon="1.6333075996186832"><ele>155.75</ele><time>2026-05-04T16:54:10.001Z</time></trkpt><trkpt lat="41.3002666181995" lon="1.6333409099506155"><ele>156.5</ele><time>2026-05-04T16:54:11.001Z</time></trkpt><trkpt lat="41.30038114776065" lon="1.633384232181102"><ele>157.25</ele><time>2026-05-04T16:54:12.001Z</time></trkpt><trkpt lat="41.30049269963721" lon="1.6334188744652103"><ele>158.0</ele><time>2026-05-04T16:54:13.001Z</time></trkpt><trkpt lat="41.30060810696776" lon="1.6334585579747147"><ele>158.25</ele><time>2026-05-04T16:54:14.001Z</time></trkpt><trkpt lat="41.300729748597256" lon="1.6334970671543843"><ele>158.5</ele><time>2026-05-04T16:54:15.001Z</time></trkpt><trkpt lat="41.30080993159657" lon="1.633538229458677"><ele>158.75</ele><time>2026-05-04T16:54:16.001Z</time></trkpt><trkpt lat="41.30092850813952" lon="1.6335721780936967"><ele>159.0</ele><time>2026-05-04T16:54:17.001Z</time></trkpt><trkpt lat="41.30104516597481" lon="1.6336062523374901"><ele>158.5</ele><time>2026-05-04T16:54:18.001Z</time></trkpt><trkpt lat="41.30116004287003" lon="1.6336420223711068"><ele>158.0</ele><time>2026-05-04T16:54:19.001Z</time></trkpt><trkpt lat="41.3012766650545" lon="1.6336749653094351"><ele>157.5</ele><time>2026-05-04T16:54:20.001Z</time></trkpt><trkpt lat="41.30138890299733" lon="1.6337058903216028"><ele>157.0</ele><time>2026-05-04T16:54:21.001Z</time></trkpt><trkpt lat="41.30150253336985" lon="1.6337470845749358"><ele>157.0</ele><time>2026-05-04T16:54:22.001Z</time></trkpt><trkpt lat="41.30161721899886" lon="1.6337759153961862"><ele>157.0</ele><time>2026-05-04T16:54:23.001Z</time></trkpt><trkpt lat="41.30173013290181" lon="1.6338139551720157"><ele>157.0</ele><time>2026-05-04T16:54:24.001Z</time></trkpt><trkpt lat="41.30184282520222" lon="1.6338564699773999"><ele>157.0</ele><time>2026-05-04T16:54:25.001Z</time></trkpt><trkpt lat="41.30195828464242" lon="1.6338984844700875"><ele>157.0</ele><time>2026-05-04T16:54:26.001Z</time></trkpt><trkpt lat="41.30207438560174" lon="1.633931328787627"><ele>157.0</ele><time>2026-05-04T16:54:27.001Z</time></trkpt><trkpt lat="41.30219012625571" lon="1.633964023039199"><ele>157.0</ele><time>2026-05-04T16:54:28.001Z</time></trkpt><trkpt lat="41.302306264341446" lon="1.6340000291008807"><ele>157.0</ele><time>2026-05-04T16:54:29.001Z</time></trkpt><trkpt lat="41.302424046716105" lon="1.6340369190541246"><ele>157.0</ele><time>2026-05-04T16:54:30.001Z</time></trkpt><trkpt lat="41.302540207302606" lon="1.6340708095341128"><ele>157.0</ele><time>2026-05-04T16:54:31.001Z</time></trkpt><trkpt lat="41.302654589813415" lon="1.6341008386405016"><ele>157.0</ele><time>2026-05-04T16:54:32.001Z</time></trkpt><trkpt lat="41.30277037191392" lon="1.6341304492348367"><ele>157.0</ele><time>2026-05-04T16:54:33.001Z</time></trkpt><trkpt lat="41.3028880264841" lon="1.6341548252400335"><ele>157.0</ele><time>2026-05-04T16:54:34.001Z</time></trkpt><trkpt lat="41.303005652441676" lon="1.6341781272630118"><ele>157.0</ele><time>2026-05-04T16:54:35.001Z</time></trkpt><trkpt lat="41.303124097630416" lon="1.6342018564298713"><ele>157.0</ele><time>2026-05-04T16:54:36.001Z</time></trkpt><trkpt lat="41.30324433908015" lon="1.6342251709030808"><ele>157.0</ele><time>2026-05-04T16:54:37.001Z</time></trkpt><trkpt lat="41.30336410034091" lon="1.6342496402877575"><ele>157.75</ele><time>2026-05-04T16:54:38.001Z</time></trkpt><trkpt lat="41.30348365914853" lon="1.6342761429508106"><ele>158.5</ele><time>2026-05-04T16:54:39.001Z</time></trkpt><trkpt lat="41.30360591902333" lon="1.6342888839313086"><ele>159.25</ele><time>2026-05-04T16:54:40.001Z</time></trkpt><trkpt lat="41.303731132167954" lon="1.6343014187824174"><ele>160.0</ele><time>2026-05-04T16:54:41.001Z</time></trkpt><trkpt lat="41.30385271712585" lon="1.6343153489152753"><ele>159.0</ele><time>2026-05-04T16:54:42.001Z</time></trkpt><trkpt lat="41.30397311422682" lon="1.6343259874041938"><ele>158.0</ele><time>2026-05-04T16:54:43.001Z</time></trkpt><trkpt lat="41.30409544429243" lon="1.6343438118164118"><ele>157.0</ele><time>2026-05-04T16:54:44.001Z</time></trkpt><trkpt lat="41.30422126983732" lon="1.6343517682125508"><ele>156.0</ele><time>2026-05-04T16:54:45.001Z</time></trkpt><trkpt lat="41.30434142403083" lon="1.634371590354818"><ele>156.0</ele><time>2026-05-04T16:54:46.001Z</time></trkpt><trkpt lat="41.30445980679366" lon="1.6343894718946637"><ele>156.0</ele><time>2026-05-04T16:54:47.001Z</time></trkpt><trkpt lat="41.304579319397725" lon="1.6344050597514455"><ele>156.0</ele><time>2026-05-04T16:54:48.001Z</time></trkpt><trkpt lat="41.30469969868283" lon="1.634428171098053"><ele>156.0</ele><time>2026-05-04T16:54:49.001Z</time></trkpt><trkpt lat="41.304833085611776" lon="1.6344416445525145"><ele>155.0</ele><time>2026-05-04T16:54:50.001Z</time></trkpt><trkpt lat="41.30493666065163" lon="1.634495487651641"><ele>154.0</ele><time>2026-05-04T16:54:51.001Z</time></trkpt><trkpt lat="41.30504692906857" lon="1.63452457068142"><ele>153.0</ele><time>2026-05-04T16:54:52.001Z</time></trkpt><trkpt lat="41.305166120801935" lon="1.6345584600593517"><ele>152.0</ele><time>2026-05-04T16:54:53.001Z</time></trkpt><trkpt lat="41.30528761793705" lon="1.6345920301361248"><ele>152.0</ele><time>2026-05-04T16:54:54.001Z</time></trkpt><trkpt lat="41.305404328932276" lon="1.634630551300741"><ele>152.0</ele><time>2026-05-04T16:54:55.001Z</time></trkpt><trkpt lat="41.30551831473919" lon="1.6346722094904818"><ele>152.0</ele><time>2026-05-04T16:54:56.001Z</time></trkpt><trkpt lat="41.305632618082875" lon="1.6347179394775995"><ele>152.0</ele><time>2026-05-04T16:54:57.001Z</time></trkpt><trkpt lat="41.30575148088417" lon="1.6347604326823246"><ele>151.25</ele><time>2026-05-04T16:54:58.001Z</time></trkpt><trkpt lat="41.305866748077435" lon="1.6348049660634212"><ele>150.5</ele><time>2026-05-04T16:54:59.001Z</time></trkpt><trkpt lat="41.30598057066735" lon="1.6348564525278595"><ele>149.75</ele><time>2026-05-04T16:55:00.001Z</time></trkpt><trkpt lat="41.30609058878857" lon="1.6349141415974373"><ele>149.0</ele><time>2026-05-04T16:55:01.001Z</time></trkpt><trkpt lat="41.306201623576506" lon="1.6349722489604839"><ele>149.0</ele><time>2026-05-04T16:55:02.001Z</time></trkpt><trkpt lat="41.306312508726435" lon="1.6350307699276303"><ele>149.0</ele><time>2026-05-04T16:55:03.001Z</time></trkpt><trkpt lat="41.30641804572157" lon="1.6350929108842338"><ele>149.0</ele><time>2026-05-04T16:55:04.001Z</time></trkpt><trkpt lat="41.3065237220985" lon="1.6351585398522024"><ele>149.0</ele><time>2026-05-04T16:55:05.001Z</time></trkpt><trkpt lat="41.30662705138595" lon="1.635227719319025"><ele>148.5</ele><time>2026-05-04T16:55:06.001Z</time></trkpt><trkpt lat="41.30673215395374" lon="1.6352949356464757"><ele>148.0</ele><time>2026-05-04T16:55:07.001Z</time></trkpt><trkpt lat="41.30683785572198" lon="1.6353640083752976"><ele>147.5</ele><time>2026-05-04T16:55:08.001Z</time></trkpt><trkpt lat="41.306940241250445" lon="1.6354380659230425"><ele>147.0</ele><time>2026-05-04T16:55:09.001Z</time></trkpt><trkpt lat="41.307040713050476" lon="1.6355115454354694"><ele>147.0</ele><time>2026-05-04T16:55:10.001Z</time></trkpt><trkpt lat="41.30714570163927" lon="1.6355908177399257"><ele>147.0</ele><time>2026-05-04T16:55:11.001Z</time></trkpt><trkpt lat="41.30724320632389" lon="1.6356722884440464"><ele>147.0</ele><time>2026-05-04T16:55:12.001Z</time></trkpt><trkpt lat="41.3073402276913" lon="1.635758265516158"><ele>147.0</ele><time>2026-05-04T16:55:13.001Z</time></trkpt><trkpt lat="41.30744294815362" lon="1.6358432625795514"><ele>147.25</ele><time>2026-05-04T16:55:14.001Z</time></trkpt><trkpt lat="41.30754010144755" lon="1.6359349486189714"><ele>147.5</ele><time>2026-05-04T16:55:15.002Z</time></trkpt><trkpt lat="41.30763619868457" lon="1.6360260401504594"><ele>147.75</ele><time>2026-05-04T16:55:16.002Z</time></trkpt><trkpt lat="41.3077322119655" lon="1.6361197980049533"><ele>148.0</ele><time>2026-05-04T16:55:17.002Z</time></trkpt><trkpt lat="41.307829603867816" lon="1.6362148117145932"><ele>148.5</ele><time>2026-05-04T16:55:18.002Z</time></trkpt><trkpt lat="41.30792504655281" lon="1.6363126485102977"><ele>149.0</ele><time>2026-05-04T16:55:19.002Z</time></trkpt><trkpt lat="41.30801604336822" lon="1.6364142389001421"><ele>149.5</ele><time>2026-05-04T16:55:20.002Z</time></trkpt><trkpt lat="41.3081080608106" lon="1.6365169907856632"><ele>150.0</ele><time>2026-05-04T16:55:21.002Z</time></trkpt><trkpt lat="41.308200382207986" lon="1.6366216364424246"><ele>150.0</ele><time>2026-05-04T16:55:22.002Z</time></trkpt><trkpt lat="41.30829109308432" lon="1.6367271616178416"><ele>150.0</ele><time>2026-05-04T16:55:23Z</time></trkpt><trkpt lat="41.30837734052226" lon="1.6368331454846792"><ele>150.0</ele><time>2026-05-04T16:55:24Z</time></trkpt><trkpt lat="41.30846311677776" lon="1.6369414671255846"><ele>150.0</ele><time>2026-05-04T16:55:25Z</time></trkpt><trkpt lat="41.30855145134638" lon="1.6370511408063972"><ele>150.0</ele><time>2026-05-04T16:55:26Z</time></trkpt><trkpt lat="41.30863956523916" lon="1.637157492151582"><ele>150.0</ele><time>2026-05-04T16:55:27Z</time></trkpt><trkpt lat="41.30872919649549" lon="1.637262508642148"><ele>150.0</ele><time>2026-05-04T16:55:28Z</time></trkpt><trkpt lat="41.308821523064175" lon="1.6373693188479077"><ele>150.0</ele><time>2026-05-04T16:55:29Z</time></trkpt><trkpt lat="41.308907662419756" lon="1.6374738562758482"><ele>150.0</ele><time>2026-05-04T16:55:30Z</time></trkpt><trkpt lat="41.30899618228788" lon="1.6375780609954416"><ele>150.0</ele><time>2026-05-04T16:55:31Z</time></trkpt><trkpt lat="41.309087019463526" lon="1.6376818926582002"><ele>150.0</ele><time>2026-05-04T16:55:32Z</time></trkpt><trkpt lat="41.3091788016573" lon="1.6377838210744644"><ele>150.0</ele><time>2026-05-04T16:55:33Z</time></trkpt><trkpt lat="41.30927288625972" lon="1.637885120736957"><ele>150.0</ele><time>2026-05-04T16:55:34Z</time></trkpt><trkpt lat="41.30936377924312" lon="1.6379828707879998"><ele>150.0</ele><time>2026-05-04T16:55:35Z</time></trkpt><trkpt lat="41.30945709317863" lon="1.6380831906484914"><ele>150.0</ele><time>2026-05-04T16:55:36Z</time></trkpt><trkpt lat="41.30954804897654" lon="1.6381812670621045"><ele>150.0</ele><time>2026-05-04T16:55:37Z</time></trkpt><trkpt lat="41.30964252027951" lon="1.6382771943842915"><ele>150.75</ele><time>2026-05-04T16:55:38Z</time></trkpt><trkpt lat="41.30974289459625" lon="1.6383691556241422"><ele>151.5</ele><time>2026-05-04T16:55:39Z</time></trkpt><trkpt lat="41.309841142268176" lon="1.6384600107519827"><ele>152.25</ele><time>2026-05-04T16:55:40Z</time></trkpt><trkpt lat="41.30993955380466" lon="1.63854812740417"><ele>153.0</ele><time>2026-05-04T16:55:41Z</time></trkpt><trkpt lat="41.310037983186604" lon="1.6386361084326186"><ele>153.75</ele><time>2026-05-04T16:55:42Z</time></trkpt><trkpt lat="41.31014124307783" lon="1.6387249342653123"><ele>154.5</ele><time>2026-05-04T16:55:43Z</time></trkpt><trkpt lat="41.3102449997848" lon="1.6388088173661206"><ele>155.25</ele><time>2026-05-04T16:55:44Z</time></trkpt><trkpt lat="41.310345610791984" lon="1.638894170161061"><ele>156.0</ele><time>2026-05-04T16:55:45Z</time></trkpt><trkpt lat="41.31044729478476" lon="1.6389747751941734"><ele>156.0</ele><time>2026-05-04T16:55:46Z</time></trkpt><trkpt lat="41.31055275890412" lon="1.639055931450048"><ele>156.0</ele><time>2026-05-04T16:55:47Z</time></trkpt><trkpt lat="41.31066051613366" lon="1.6391316130870204"><ele>156.0</ele><time>2026-05-04T16:55:48Z</time></trkpt><trkpt lat="41.31076565880717" lon="1.639209337278896"><ele>156.0</ele><time>2026-05-04T16:55:49Z</time></trkpt><trkpt lat="41.31086737963697" lon="1.639284097000504"><ele>155.75</ele><time>2026-05-04T16:55:50Z</time></trkpt><trkpt lat="41.31097774976914" lon="1.639351908812091"><ele>155.5</ele><time>2026-05-04T16:55:51Z</time></trkpt><trkpt lat="41.311088800335995" lon="1.639422520167664"><ele>155.25</ele><time>2026-05-04T16:55:52Z</time></trkpt><trkpt lat="41.31119726758277" lon="1.639488792664542"><ele>155.0</ele><time>2026-05-04T16:55:53.001Z</time></trkpt><trkpt lat="41.311306828633114" lon="1.6395557389394315"><ele>155.25</ele><time>2026-05-04T16:55:54.001Z</time></trkpt><trkpt lat="41.31141233616451" lon="1.6396228303645395"><ele>155.5</ele><time>2026-05-04T16:55:55.001Z</time></trkpt><trkpt lat="41.311523255435496" lon="1.639688276987257"><ele>155.75</ele><time>2026-05-04T16:55:56.001Z</time></trkpt><trkpt lat="41.31163670185147" lon="1.6397485216257013"><ele>156.0</ele><time>2026-05-04T16:55:57.001Z</time></trkpt><trkpt lat="41.3117449992206" lon="1.639809984067728"><ele>156.0</ele><time>2026-05-04T16:55:58.001Z</time></trkpt><trkpt lat="41.311856148570314" lon="1.6398679922790078"><ele>156.0</ele><time>2026-05-04T16:55:59.001Z</time></trkpt><trkpt lat="41.31197054907995" lon="1.6399175999698088"><ele>156.0</ele><time>2026-05-04T16:56:00.001Z</time></trkpt><trkpt lat="41.31207312242115" lon="1.6399703885348629"><ele>156.0</ele><time>2026-05-04T16:56:01.001Z</time></trkpt><trkpt lat="41.31218393399049" lon="1.6400191656965142"><ele>156.75</ele><time>2026-05-04T16:56:02.001Z</time></trkpt><trkpt lat="41.31230667245072" lon="1.6400625026311033"><ele>157.5</ele><time>2026-05-04T16:56:03.001Z</time></trkpt><trkpt lat="41.312419428370156" lon="1.6401063260990976"><ele>158.25</ele><time>2026-05-04T16:56:04.001Z</time></trkpt><trkpt lat="41.31253027624298" lon="1.640149331966104"><ele>159.0</ele><time>2026-05-04T16:56:05.001Z</time></trkpt><trkpt lat="41.312642002792906" lon="1.640193132231477"><ele>159.0</ele><time>2026-05-04T16:56:06.001Z</time></trkpt><trkpt lat="41.31275382556663" lon="1.6402315855798066"><ele>159.0</ele><time>2026-05-04T16:56:07.001Z</time></trkpt><trkpt lat="41.3128671333234" lon="1.6402639046696708"><ele>159.0</ele><time>2026-05-04T16:56:08.001Z</time></trkpt><trkpt lat="41.31298143264268" lon="1.6402896391584507"><ele>159.0</ele><time>2026-05-04T16:56:09.001Z</time></trkpt><trkpt lat="41.31309484905891" lon="1.6403197056886254"><ele>158.75</ele><time>2026-05-04T16:56:10.001Z</time></trkpt><trkpt lat="41.31320700824912" lon="1.6403487641459809"><ele>158.5</ele><time>2026-05-04T16:56:11.001Z</time></trkpt><trkpt lat="41.31332053354325" lon="1.6403841595499724"><ele>158.25</ele><time>2026-05-04T16:56:12.001Z</time></trkpt><trkpt lat="41.31343202580888" lon="1.6404148450524096"><ele>158.0</ele><time>2026-05-04T16:56:13.001Z</time></trkpt><trkpt lat="41.31354593371649" lon="1.6404411756588388"><ele>158.0</ele><time>2026-05-04T16:56:14.001Z</time></trkpt><trkpt lat="41.31365847648849" lon="1.6404623421045534"><ele>158.0</ele><time>2026-05-04T16:56:15.001Z</time></trkpt><trkpt lat="41.31377191633374" lon="1.64048349350849"><ele>158.0</ele><time>2026-05-04T16:56:16.001Z</time></trkpt><trkpt lat="41.3138856912092" lon="1.6405071607675943"><ele>158.0</ele><time>2026-05-04T16:56:17.001Z</time></trkpt><trkpt lat="41.31399757371158" lon="1.6405365100885507"><ele>157.5</ele><time>2026-05-04T16:56:18.001Z</time></trkpt><trkpt lat="41.31411045207078" lon="1.6405636785567015"><ele>157.0</ele><time>2026-05-04T16:56:19.001Z</time></trkpt><trkpt lat="41.31422414815049" lon="1.6405889983084172"><ele>156.5</ele><time>2026-05-04T16:56:20.001Z</time></trkpt><trkpt lat="41.314334594681306" lon="1.6406167277941266"><ele>156.0</ele><time>2026-05-04T16:56:21.001Z</time></trkpt><trkpt lat="41.314448503272814" lon="1.640652956197232"><ele>156.0</ele><time>2026-05-04T16:56:22.001Z</time></trkpt><trkpt lat="41.314562613705405" lon="1.6406813774947662"><ele>156.0</ele><time>2026-05-04T16:56:23.001Z</time></trkpt><trkpt lat="41.314678592679364" lon="1.6406945562676745"><ele>156.0</ele><time>2026-05-04T16:56:24.001Z</time></trkpt><trkpt lat="41.31479623622897" lon="1.640706875752496"><ele>156.0</ele><time>2026-05-04T16:56:25.001Z</time></trkpt><trkpt lat="41.31491309137806" lon="1.640724584585194"><ele>156.25</ele><time>2026-05-04T16:56:26.001Z</time></trkpt><trkpt lat="41.31502859961271" lon="1.6407399506836697"><ele>156.5</ele><time>2026-05-04T16:56:27.001Z</time></trkpt><trkpt lat="41.31514396839056" lon="1.6407610279321516"><ele>156.75</ele><time>2026-05-04T16:56:28.001Z</time></trkpt><trkpt lat="41.3152596456132" lon="1.6407774519518146"><ele>157.0</ele><time>2026-05-04T16:56:29.001Z</time></trkpt><trkpt lat="41.31537608075339" lon="1.6407940840098156"><ele>157.0</ele><time>2026-05-04T16:56:30.001Z</time></trkpt><trkpt lat="41.315490905243934" lon="1.6408176911461616"><ele>157.0</ele><time>2026-05-04T16:56:31.001Z</time></trkpt><trkpt lat="41.31560623985937" lon="1.6408433275365417"><ele>157.0</ele><time>2026-05-04T16:56:32.001Z</time></trkpt><trkpt lat="41.31571899183451" lon="1.6408716324072021"><ele>157.0</ele><time>2026-05-04T16:56:33.001Z</time></trkpt><trkpt lat="41.31583393533357" lon="1.6409020071768492"><ele>157.75</ele><time>2026-05-04T16:56:34.001Z</time></trkpt><trkpt lat="41.31594615908113" lon="1.6409349207043122"><ele>158.5</ele><time>2026-05-04T16:56:35.001Z</time></trkpt><trkpt lat="41.316059382145106" lon="1.6409695395367505"><ele>159.25</ele><time>2026-05-04T16:56:36.001Z</time></trkpt><trkpt lat="41.3161699899166" lon="1.6410048976284775"><ele>160.0</ele><time>2026-05-04T16:56:37.001Z</time></trkpt><trkpt lat="41.31628365626417" lon="1.6410452337279875"><ele>160.0</ele><time>2026-05-04T16:56:38.001Z</time></trkpt><trkpt lat="41.316397335620614" lon="1.6410841943228542"><ele>160.0</ele><time>2026-05-04T16:56:39.001Z</time></trkpt><trkpt lat="41.31651227232231" lon="1.641127497211311"><ele>160.0</ele><time>2026-05-04T16:56:40.001Z</time></trkpt><trkpt lat="41.31662772863706" lon="1.641175404261672"><ele>160.0</ele><time>2026-05-04T16:56:41.001Z</time></trkpt><trkpt lat="41.3167435107397" lon="1.641227161796721"><ele>160.0</ele><time>2026-05-04T16:56:42.001Z</time></trkpt><trkpt lat="41.31685607098751" lon="1.6412804327508972"><ele>160.0</ele><time>2026-05-04T16:56:43.001Z</time></trkpt><trkpt lat="41.31696888479368" lon="1.6413343850342361"><ele>160.0</ele><time>2026-05-04T16:56:44.001Z</time></trkpt><trkpt lat="41.317081093062285" lon="1.6413895454579328"><ele>160.0</ele><time>2026-05-04T16:56:45.001Z</time></trkpt><trkpt lat="41.31719482082105" lon="1.6414464428122202"><ele>160.25</ele><time>2026-05-04T16:56:46.001Z</time></trkpt><trkpt lat="41.317306299519075" lon="1.641505101417012"><ele>160.5</ele><time>2026-05-04T16:56:47.001Z</time></trkpt><trkpt lat="41.317417849534955" lon="1.6415671189355856"><ele>160.75</ele><time>2026-05-04T16:56:48.001Z</time></trkpt><trkpt lat="41.31752732937355" lon="1.6416324575232688"><ele>161.0</ele><time>2026-05-04T16:56:49.001Z</time></trkpt><trkpt lat="41.31763554972968" lon="1.641697777224854"><ele>161.0</ele><time>2026-05-04T16:56:50.001Z</time></trkpt><trkpt lat="41.31774340477419" lon="1.641762155549159"><ele>161.0</ele><time>2026-05-04T16:56:51.001Z</time></trkpt><trkpt lat="41.317848392700625" lon="1.6418233284343888"><ele>161.0</ele><time>2026-05-04T16:56:52.001Z</time></trkpt><trkpt lat="41.31795268700256" lon="1.6418914751975302"><ele>161.0</ele><time>2026-05-04T16:56:53.001Z</time></trkpt><trkpt lat="41.318055810308344" lon="1.6419616932374823"><ele>160.75</ele><time>2026-05-04T16:56:54.001Z</time></trkpt><trkpt lat="41.318157748053395" lon="1.6420333806646603"><ele>160.5</ele><time>2026-05-04T16:56:55.001Z</time></trkpt><trkpt lat="41.318258716009616" lon="1.642109829090092"><ele>160.25</ele><time>2026-05-04T16:56:56.001Z</time></trkpt><trkpt lat="41.3183579316978" lon="1.6421862935257725"><ele>160.0</ele><time>2026-05-04T16:56:57.001Z</time></trkpt><trkpt lat="41.31845677251719" lon="1.6422635543688155"><ele>160.0</ele><time>2026-05-04T16:56:58.001Z</time></trkpt><trkpt lat="41.31855577897572" lon="1.642337391988947"><ele>160.0</ele><time>2026-05-04T16:56:59.001Z</time></trkpt><trkpt lat="41.31865658625974" lon="1.64240620400079"><ele>160.0</ele><time>2026-05-04T16:57:00.001Z</time></trkpt><trkpt lat="41.31874354810407" lon="1.6424898330492845"><ele>160.0</ele><time>2026-05-04T16:57:01.001Z</time></trkpt><trkpt lat="41.3188354074188" lon="1.6425676853810747"><ele>160.0</ele><time>2026-05-04T16:57:02.001Z</time></trkpt><trkpt lat="41.31892960546016" lon="1.6426480299134787"><ele>160.6</ele><time>2026-05-04T16:57:03.001Z</time></trkpt><trkpt lat="41.319019076918224" lon="1.6427262425669513"><ele>161.2</ele><time>2026-05-04T16:57:04.002Z</time></trkpt><trkpt lat="41.31911125660489" lon="1.6428041326174734"><ele>161.8</ele><time>2026-05-04T16:57:05.002Z</time></trkpt><trkpt lat="41.31920323893994" lon="1.6428812583323746"><ele>162.4</ele><time>2026-05-04T16:57:06.002Z</time></trkpt><trkpt lat="41.31929387496154" lon="1.6429571657107898"><ele>163.0</ele><time>2026-05-04T16:57:07.002Z</time></trkpt><trkpt lat="41.31938407413007" lon="1.6430314130015846"><ele>163.0</ele><time>2026-05-04T16:57:08.002Z</time></trkpt><trkpt lat="41.31946938075944" lon="1.643102774468367"><ele>163.0</ele><time>2026-05-04T16:57:09.002Z</time></trkpt><trkpt lat="41.3195599353083" lon="1.6431763592811368"><ele>163.0</ele><time>2026-05-04T16:57:10.002Z</time></trkpt><trkpt lat="41.31965003856674" lon="1.643250226015908"><ele>163.0</ele><time>2026-05-04T16:57:11.002Z</time></trkpt><trkpt lat="41.3197400265951" lon="1.6433172232838067"><ele>163.0</ele><time>2026-05-04T16:57:12.002Z</time></trkpt><trkpt lat="41.31983259558187" lon="1.6433850276007567"><ele>163.60000000000002</ele><time>2026-05-04T16:57:13.002Z</time></trkpt><trkpt lat="41.31992423135403" lon="1.643452092556056"><ele>164.20000000000002</ele><time>2026-05-04T16:57:14.002Z</time></trkpt><trkpt lat="41.32001846680112" lon="1.6435130436354655"><ele>164.8</ele><time>2026-05-04T16:57:15.002Z</time></trkpt><trkpt lat="41.32011426171004" lon="1.6435722748870247"><ele>165.4</ele><time>2026-05-04T16:57:16.002Z</time></trkpt><trkpt lat="41.32021045282787" lon="1.6436272351655292"><ele>166.0</ele><time>2026-05-04T16:57:17.002Z</time></trkpt><trkpt lat="41.320304805438795" lon="1.6436808434337793"><ele>166.4</ele><time>2026-05-04T16:57:18.002Z</time></trkpt><trkpt lat="41.320402318490615" lon="1.6437310799235167"><ele>166.8</ele><time>2026-05-04T16:57:19.002Z</time></trkpt><trkpt lat="41.320500617829836" lon="1.643777361912782"><ele>167.20000000000002</ele><time>2026-05-04T16:57:20.002Z</time></trkpt><trkpt lat="41.32059741090301" lon="1.643819041329885"><ele>167.60000000000002</ele><time>2026-05-04T16:57:21.002Z</time></trkpt><trkpt lat="41.32069656648726" lon="1.6438626365632205"><ele>168.0</ele><time>2026-05-04T16:57:22.002Z</time></trkpt><trkpt lat="41.32079186679886" lon="1.643901392167786"><ele>168.2</ele><time>2026-05-04T16:57:23.002Z</time></trkpt><trkpt lat="41.32088898867847" lon="1.6439408262690782"><ele>168.4</ele><time>2026-05-04T16:57:24.002Z</time></trkpt><trkpt lat="41.320986979929735" lon="1.643970909290546"><ele>168.6</ele><time>2026-05-04T16:57:25.002Z</time></trkpt><trkpt lat="41.32108897485837" lon="1.643997531468742"><ele>168.79999999999998</ele><time>2026-05-04T16:57:26.002Z</time></trkpt><trkpt lat="41.32118728382118" lon="1.6440217418036724"><ele>169.0</ele><time>2026-05-04T16:57:27.002Z</time></trkpt><trkpt lat="41.32128798143368" lon="1.6440422084849975"><ele>169.0</ele><time>2026-05-04T16:57:28.002Z</time></trkpt><trkpt lat="41.32138572173364" lon="1.6440608559622687"><ele>169.0</ele><time>2026-05-04T16:57:29.001Z</time></trkpt><trkpt lat="41.32148645059173" lon="1.644078766995886"><ele>169.0</ele><time>2026-05-04T16:57:30.001Z</time></trkpt><trkpt lat="41.32158513185501" lon="1.64409490641529"><ele>169.0</ele><time>2026-05-04T16:57:31.001Z</time></trkpt><trkpt lat="41.321687890912415" lon="1.6441074807468963"><ele>169.0</ele><time>2026-05-04T16:57:32.001Z</time></trkpt><trkpt lat="41.32178654795959" lon="1.6441153295286928"><ele>169.6</ele><time>2026-05-04T16:57:33.001Z</time></trkpt><trkpt lat="41.32188580457187" lon="1.644121365835257"><ele>170.2</ele><time>2026-05-04T16:57:34.001Z</time></trkpt><trkpt lat="41.32198599114384" lon="1.6441223051452738"><ele>170.79999999999998</ele><time>2026-05-04T16:57:35.001Z</time></trkpt><trkpt lat="41.32208765662088" lon="1.6441207213891709"><ele>171.39999999999998</ele><time>2026-05-04T16:57:36.001Z</time></trkpt><trkpt lat="41.322184889376814" lon="1.6441168249672329"><ele>172.0</ele><time>2026-05-04T16:57:37.001Z</time></trkpt><trkpt lat="41.322285860526215" lon="1.6441097508349005"><ele>173.0</ele><time>2026-05-04T16:57:38.001Z</time></trkpt><trkpt lat="41.322385989680136" lon="1.6440992695172412"><ele>174.0</ele><time>2026-05-04T16:57:39Z</time></trkpt><trkpt lat="41.32248508211346" lon="1.644091863820464"><ele>175.0</ele><time>2026-05-04T16:57:40.001Z</time></trkpt><trkpt lat="41.322584411854024" lon="1.6440755787036867"><ele>176.0</ele><time>2026-05-04T16:57:41Z</time></trkpt><trkpt lat="41.32268710010104" lon="1.6440583251714151"><ele>177.0</ele><time>2026-05-04T16:57:42Z</time></trkpt><trkpt lat="41.32278461779957" lon="1.6440420588031257"><ele>177.0</ele><time>2026-05-04T16:57:43Z</time></trkpt><trkpt lat="41.322887127367146" lon="1.6440265588459095"><ele>177.0</ele><time>2026-05-04T16:57:44Z</time></trkpt><trkpt lat="41.32298969430571" lon="1.6440129860126533"><ele>177.0</ele><time>2026-05-04T16:57:45Z</time></trkpt><trkpt lat="41.32309208894363" lon="1.643999759136653"><ele>177.0</ele><time>2026-05-04T16:57:46Z</time></trkpt><trkpt lat="41.323196672176856" lon="1.6439829365585867"><ele>177.0</ele><time>2026-05-04T16:57:47Z</time></trkpt><trkpt lat="41.32330053975186" lon="1.6439624139191298"><ele>177.0</ele><time>2026-05-04T16:57:48Z</time></trkpt><trkpt lat="41.32340570343145" lon="1.6439429792692155"><ele>177.0</ele><time>2026-05-04T16:57:49Z</time></trkpt><trkpt lat="41.32351234367081" lon="1.6439307891566224"><ele>177.0</ele><time>2026-05-04T16:57:50Z</time></trkpt><trkpt lat="41.3236223120481" lon="1.6439250933222842"><ele>177.0</ele><time>2026-05-04T16:57:51Z</time></trkpt><trkpt lat="41.32372941674129" lon="1.6439185746717158"><ele>177.0</ele><time>2026-05-04T16:57:52Z</time></trkpt><trkpt lat="41.32384014969528" lon="1.6439158278332093"><ele>177.39999999999998</ele><time>2026-05-04T16:57:53Z</time></trkpt><trkpt lat="41.32394919152809" lon="1.6439128255177304"><ele>177.79999999999998</ele><time>2026-05-04T16:57:54Z</time></trkpt><trkpt lat="41.32406983499672" lon="1.6439265237643597"><ele>178.2</ele><time>2026-05-04T16:57:55Z</time></trkpt><trkpt lat="41.324179377396334" lon="1.6439363051252192"><ele>178.6</ele><time>2026-05-04T16:57:56Z</time></trkpt><trkpt lat="41.32428090339649" lon="1.6439426603021339"><ele>179.0</ele><time>2026-05-04T16:57:57.001Z</time></trkpt><trkpt lat="41.324373535277694" lon="1.643955988787531"><ele>179.0</ele><time>2026-05-04T16:57:58.001Z</time></trkpt><trkpt lat="41.3245104103822" lon="1.643972085733648"><ele>179.0</ele><time>2026-05-04T16:57:59.001Z</time></trkpt><trkpt lat="41.3246187661766" lon="1.6439918346707294"><ele>179.0</ele><time>2026-05-04T16:58:00.001Z</time></trkpt><trkpt lat="41.32472964632496" lon="1.6440174160035776"><ele>179.0</ele><time>2026-05-04T16:58:01.001Z</time></trkpt><trkpt lat="41.32483752497891" lon="1.6440449118894434"><ele>179.25</ele><time>2026-05-04T16:58:02.001Z</time></trkpt><trkpt lat="41.324949478883276" lon="1.6440766611326334"><ele>179.5</ele><time>2026-05-04T16:58:03.001Z</time></trkpt><trkpt lat="41.32506018125097" lon="1.6441138398176376"><ele>179.75</ele><time>2026-05-04T16:58:04.001Z</time></trkpt><trkpt lat="41.325171053581585" lon="1.6441594621195472"><ele>180.0</ele><time>2026-05-04T16:58:05.001Z</time></trkpt><trkpt lat="41.325283499072945" lon="1.6442081246512597"><ele>180.0</ele><time>2026-05-04T16:58:06.001Z</time></trkpt><trkpt lat="41.32539475344015" lon="1.6442591518889176"><ele>180.0</ele><time>2026-05-04T16:58:07.001Z</time></trkpt><trkpt lat="41.32550656679624" lon="1.6443151575915762"><ele>180.0</ele><time>2026-05-04T16:58:08.001Z</time></trkpt><trkpt lat="41.325618858373936" lon="1.644372440576738"><ele>180.0</ele><time>2026-05-04T16:58:09.001Z</time></trkpt><trkpt lat="41.32572724681499" lon="1.6444342440050133"><ele>178.75</ele><time>2026-05-04T16:58:10.001Z</time></trkpt><trkpt lat="41.32583782707453" lon="1.6444964348670776"><ele>177.5</ele><time>2026-05-04T16:58:11.001Z</time></trkpt><trkpt lat="41.325946717504635" lon="1.6445677147096434"><ele>176.25</ele><time>2026-05-04T16:58:12.001Z</time></trkpt><trkpt lat="41.32605578846867" lon="1.6446435087821276"><ele>175.0</ele><time>2026-05-04T16:58:13.001Z</time></trkpt><trkpt lat="41.32616143013544" lon="1.644723444325505"><ele>175.0</ele><time>2026-05-04T16:58:14.001Z</time></trkpt><trkpt lat="41.32626586370564" lon="1.6448071722791664"><ele>175.0</ele><time>2026-05-04T16:58:15.001Z</time></trkpt><trkpt lat="41.32636823478193" lon="1.6448964904022045"><ele>175.0</ele><time>2026-05-04T16:58:16.001Z</time></trkpt><trkpt lat="41.32646955454395" lon="1.6449877530135077"><ele>175.0</ele><time>2026-05-04T16:58:17.001Z</time></trkpt><trkpt lat="41.326568418519585" lon="1.6450840668387523"><ele>174.75</ele><time>2026-05-04T16:58:18.001Z</time></trkpt><trkpt lat="41.326669438532754" lon="1.6451903960369356"><ele>174.5</ele><time>2026-05-04T16:58:19.001Z</time></trkpt><trkpt lat="41.32676714286558" lon="1.6452946315979622"><ele>174.25</ele><time>2026-05-04T16:58:20.001Z</time></trkpt><trkpt lat="41.326862020266105" lon="1.6453951669723397"><ele>174.0</ele><time>2026-05-04T16:58:21.001Z</time></trkpt><trkpt lat="41.326955409536666" lon="1.645501967889918"><ele>174.5</ele><time>2026-05-04T16:58:22.001Z</time></trkpt><trkpt lat="41.32704522202792" lon="1.6456137024131146"><ele>175.0</ele><time>2026-05-04T16:58:23.001Z</time></trkpt><trkpt lat="41.32713056028872" lon="1.645729531687159"><ele>175.5</ele><time>2026-05-04T16:58:24.001Z</time></trkpt><trkpt lat="41.32721227950589" lon="1.645847695312026"><ele>176.0</ele><time>2026-05-04T16:58:25.001Z</time></trkpt><trkpt lat="41.3272914260457" lon="1.6459696268907695"><ele>176.0</ele><time>2026-05-04T16:58:26.001Z</time></trkpt><trkpt lat="41.32736602602415" lon="1.6460943859170254"><ele>176.0</ele><time>2026-05-04T16:58:27.001Z</time></trkpt><trkpt lat="41.32744069807411" lon="1.6462195234009993"><ele>176.0</ele><time>2026-05-04T16:58:28.001Z</time></trkpt><trkpt lat="41.327513296195015" lon="1.646346037653823"><ele>176.0</ele><time>2026-05-04T16:58:29.001Z</time></trkpt><trkpt lat="41.327582740516775" lon="1.6464755445780748"><ele>175.75</ele><time>2026-05-04T16:58:30.001Z</time></trkpt><trkpt lat="41.32764896191087" lon="1.6466090163170783"><ele>175.5</ele><time>2026-05-04T16:58:31.001Z</time></trkpt><trkpt lat="41.32771390971698" lon="1.646743014641442"><ele>175.25</ele><time>2026-05-04T16:58:32.001Z</time></trkpt><trkpt lat="41.32777588131795" lon="1.6468789390634089"><ele>175.0</ele><time>2026-05-04T16:58:33.001Z</time></trkpt><trkpt lat="41.327836537316486" lon="1.647016401819605"><ele>175.5</ele><time>2026-05-04T16:58:34.001Z</time></trkpt><trkpt lat="41.32788826807798" lon="1.6471569587314638"><ele>176.0</ele><time>2026-05-04T16:58:35.001Z</time></trkpt><trkpt lat="41.32793923554369" lon="1.647297594589437"><ele>176.5</ele><time>2026-05-04T16:58:36.001Z</time></trkpt><trkpt lat="41.3279879747531" lon="1.6474437212743793"><ele>177.0</ele><time>2026-05-04T16:58:37.001Z</time></trkpt><trkpt lat="41.32803396072045" lon="1.6475923839088067"><ele>177.25</ele><time>2026-05-04T16:58:38.001Z</time></trkpt><trkpt lat="41.32808049425937" lon="1.6477302129445548"><ele>177.5</ele><time>2026-05-04T16:58:39.001Z</time></trkpt><trkpt lat="41.328128034443935" lon="1.6478802120702023"><ele>177.75</ele><time>2026-05-04T16:58:40.001Z</time></trkpt><trkpt lat="41.32817311967794" lon="1.6480290779548723"><ele>178.0</ele><time>2026-05-04T16:58:41.001Z</time></trkpt><trkpt lat="41.32821453462523" lon="1.648171174845932"><ele>178.75</ele><time>2026-05-04T16:58:42.001Z</time></trkpt><trkpt lat="41.32825239096932" lon="1.6483208961120779"><ele>179.5</ele><time>2026-05-04T16:58:43.001Z</time></trkpt><trkpt lat="41.32829081436174" lon="1.648466675369878"><ele>180.25</ele><time>2026-05-04T16:58:44.001Z</time></trkpt><trkpt lat="41.32833441682573" lon="1.6486157150092104"><ele>181.0</ele><time>2026-05-04T16:58:45.001Z</time></trkpt><trkpt lat="41.3283706598" lon="1.6487635951835136"><ele>181.5</ele><time>2026-05-04T16:58:46.001Z</time></trkpt><trkpt lat="41.328408907481744" lon="1.6489118366957967"><ele>182.0</ele><time>2026-05-04T16:58:47.001Z</time></trkpt><trkpt lat="41.32844824523172" lon="1.649061704582549"><ele>182.5</ele><time>2026-05-04T16:58:48.001Z</time></trkpt><trkpt lat="41.32849158343393" lon="1.6492056002599835"><ele>183.0</ele><time>2026-05-04T16:58:49.001Z</time></trkpt><trkpt lat="41.32853262040677" lon="1.649353667361354"><ele>183.75</ele><time>2026-05-04T16:58:50.001Z</time></trkpt><trkpt lat="41.32857519042196" lon="1.6494976026263044"><ele>184.5</ele><time>2026-05-04T16:58:51.001Z</time></trkpt><trkpt lat="41.328619097751364" lon="1.6496409341562175"><ele>185.25</ele><time>2026-05-04T16:58:52.001Z</time></trkpt><trkpt lat="41.32866303269626" lon="1.6497833083743743"><ele>186.0</ele><time>2026-05-04T16:58:53.001Z</time></trkpt><trkpt lat="41.328708803406236" lon="1.6499239538646635"><ele>186.0</ele><time>2026-05-04T16:58:54.001Z</time></trkpt><trkpt lat="41.32875882382837" lon="1.6500658908277621"><ele>186.0</ele><time>2026-05-04T16:58:55.001Z</time></trkpt><trkpt lat="41.328809216040455" lon="1.6502057144056612"><ele>186.0</ele><time>2026-05-04T16:58:56.001Z</time></trkpt><trkpt lat="41.32885873679463" lon="1.6503472277483573"><ele>186.0</ele><time>2026-05-04T16:58:57.001Z</time></trkpt><trkpt lat="41.32890805625319" lon="1.6504886744067497"><ele>186.25</ele><time>2026-05-04T16:58:58.001Z</time></trkpt><trkpt lat="41.328952927817724" lon="1.6506321543831808"><ele>186.5</ele><time>2026-05-04T16:58:59.001Z</time></trkpt><trkpt lat="41.32900613625019" lon="1.6507698372653412"><ele>186.75</ele><time>2026-05-04T16:59:00.001Z</time></trkpt><trkpt lat="41.32906511786191" lon="1.650907015818974"><ele>187.0</ele><time>2026-05-04T16:59:01.001Z</time></trkpt><trkpt lat="41.32912213546267" lon="1.6510443371064767"><ele>187.75</ele><time>2026-05-04T16:59:02.001Z</time></trkpt><trkpt lat="41.329179952333746" lon="1.651178933444184"><ele>188.5</ele><time>2026-05-04T16:59:03.001Z</time></trkpt><trkpt lat="41.32923730935971" lon="1.6513146321166818"><ele>189.25</ele><time>2026-05-04T16:59:04.001Z</time></trkpt><trkpt lat="41.32929791546142" lon="1.6514475924420178"><ele>190.0</ele><time>2026-05-04T16:59:05.001Z</time></trkpt><trkpt lat="41.32936007916887" lon="1.6515816116090514"><ele>190.0</ele><time>2026-05-04T16:59:06.001Z</time></trkpt><trkpt lat="41.32942492683724" lon="1.6517127501258437"><ele>190.0</ele><time>2026-05-04T16:59:07.001Z</time></trkpt><trkpt lat="41.329490475615216" lon="1.6518424107061738"><ele>190.0</ele><time>2026-05-04T16:59:08.001Z</time></trkpt><trkpt lat="41.32955753250583" lon="1.6519734871715281"><ele>190.0</ele><time>2026-05-04T16:59:09.001Z</time></trkpt><trkpt lat="41.32962218419228" lon="1.6521037434553645"><ele>189.5</ele><time>2026-05-04T16:59:10.001Z</time></trkpt><trkpt lat="41.32969074489236" lon="1.6522323369940997"><ele>189.0</ele><time>2026-05-04T16:59:11.001Z</time></trkpt><trkpt lat="41.32976367648057" lon="1.6523544486052508"><ele>188.5</ele><time>2026-05-04T16:59:12.001Z</time></trkpt><trkpt lat="41.329835443361695" lon="1.6524806767285054"><ele>188.0</ele><time>2026-05-04T16:59:13.001Z</time></trkpt><trkpt lat="41.329908115920716" lon="1.652599939153348"><ele>188.0</ele><time>2026-05-04T16:59:14.001Z</time></trkpt><trkpt lat="41.32998219107816" lon="1.6527197382586445"><ele>188.0</ele><time>2026-05-04T16:59:15.001Z</time></trkpt><trkpt lat="41.3300577259675" lon="1.6528432133106867"><ele>188.0</ele><time>2026-05-04T16:59:16.001Z</time></trkpt><trkpt lat="41.33013107772238" lon="1.6529641667642707"><ele>188.0</ele><time>2026-05-04T16:59:17.001Z</time></trkpt><trkpt lat="41.33020551126907" lon="1.6530837813688555"><ele>188.0</ele><time>2026-05-04T16:59:18.001Z</time></trkpt><trkpt lat="41.33028193037446" lon="1.6532026745355872"><ele>188.0</ele><time>2026-05-04T16:59:19.002Z</time></trkpt><trkpt lat="41.33035816020085" lon="1.6533211962493934"><ele>188.0</ele><time>2026-05-04T16:59:20.002Z</time></trkpt><trkpt lat="41.33043795156331" lon="1.6534329136214128"><ele>188.0</ele><time>2026-05-04T16:59:21.002Z</time></trkpt><trkpt lat="41.33051723771786" lon="1.6535476467402945"><ele>187.5</ele><time>2026-05-04T16:59:22.002Z</time></trkpt><trkpt lat="41.33059556195319" lon="1.6536630321058285"><ele>187.0</ele><time>2026-05-04T16:59:23.002Z</time></trkpt><trkpt lat="41.330675896407406" lon="1.653777171123266"><ele>186.5</ele><time>2026-05-04T16:59:24.002Z</time></trkpt><trkpt lat="41.33075501007691" lon="1.6538945006746033"><ele>186.0</ele><time>2026-05-04T16:59:25.002Z</time></trkpt><trkpt lat="41.330829507871684" lon="1.654015101916247"><ele>186.0</ele><time>2026-05-04T16:59:26.002Z</time></trkpt><trkpt lat="41.330906241797955" lon="1.6541355413206276"><ele>186.0</ele><time>2026-05-04T16:59:27.002Z</time></trkpt><trkpt lat="41.33097979484684" lon="1.6542597468748885"><ele>186.0</ele><time>2026-05-04T16:59:28.002Z</time></trkpt><trkpt lat="41.33105523404284" lon="1.6543855051111287"><ele>186.0</ele><time>2026-05-04T16:59:29.002Z</time></trkpt><trkpt lat="41.33112741760815" lon="1.6545139751454483"><ele>185.75</ele><time>2026-05-04T16:59:30.002Z</time></trkpt><trkpt lat="41.33120031799832" lon="1.6546440448905844"><ele>185.5</ele><time>2026-05-04T16:59:31.002Z</time></trkpt><trkpt lat="41.33126821900574" lon="1.6547763222672092"><ele>185.25</ele><time>2026-05-04T16:59:32.002Z</time></trkpt><trkpt lat="41.331332116848934" lon="1.654915053881153"><ele>185.0</ele><time>2026-05-04T16:59:33.002Z</time></trkpt><trkpt lat="41.331393424467926" lon="1.6550561582180396"><ele>185.0</ele><time>2026-05-04T16:59:34.002Z</time></trkpt><trkpt lat="41.33145239441229" lon="1.6551969413747762"><ele>185.0</ele><time>2026-05-04T16:59:35Z</time></trkpt><trkpt lat="41.33151086438738" lon="1.6553376676477105"><ele>185.0</ele><time>2026-05-04T16:59:36Z</time></trkpt><trkpt lat="41.33156975937044" lon="1.6554802896503293"><ele>185.0</ele><time>2026-05-04T16:59:37Z</time></trkpt><trkpt lat="41.331628635696944" lon="1.655621160808776"><ele>185.0</ele><time>2026-05-04T16:59:38Z</time></trkpt><trkpt lat="41.33168706178631" lon="1.6557595814660164"><ele>185.0</ele><time>2026-05-04T16:59:39Z</time></trkpt><trkpt lat="41.33174326323644" lon="1.6559002536619358"><ele>185.0</ele><time>2026-05-04T16:59:40Z</time></trkpt><trkpt lat="41.33179761832236" lon="1.6560418543965352"><ele>185.0</ele><time>2026-05-04T16:59:41Z</time></trkpt><trkpt lat="41.33185096439295" lon="1.6561828344309286"><ele>184.75</ele><time>2026-05-04T16:59:42Z</time></trkpt><trkpt lat="41.331903133780855" lon="1.6563225503911176"><ele>184.5</ele><time>2026-05-04T16:59:43Z</time></trkpt><trkpt lat="41.33195336482503" lon="1.6564659282402223"><ele>184.25</ele><time>2026-05-04T16:59:44Z</time></trkpt><trkpt lat="41.33199711816783" lon="1.6566138155985335"><ele>184.0</ele><time>2026-05-04T16:59:45Z</time></trkpt><trkpt lat="41.33203931496293" lon="1.6567616857159977"><ele>184.0</ele><time>2026-05-04T16:59:46Z</time></trkpt><trkpt lat="41.3320796764585" lon="1.6569076535458536"><ele>184.0</ele><time>2026-05-04T16:59:47Z</time></trkpt><trkpt lat="41.332120919034246" lon="1.65705640047968"><ele>184.0</ele><time>2026-05-04T16:59:48Z</time></trkpt><trkpt lat="41.33215859067744" lon="1.6572095131127573"><ele>184.0</ele><time>2026-05-04T16:59:49Z</time></trkpt><trkpt lat="41.332193174482676" lon="1.6573595570359305"><ele>183.5</ele><time>2026-05-04T16:59:50Z</time></trkpt><trkpt lat="41.33222460938009" lon="1.6575133428662303"><ele>183.0</ele><time>2026-05-04T16:59:51Z</time></trkpt><trkpt lat="41.33225344217937" lon="1.6576710419536507"><ele>182.5</ele><time>2026-05-04T16:59:52Z</time></trkpt><trkpt lat="41.33228191323115" lon="1.657827812391666"><ele>182.0</ele><time>2026-05-04T16:59:53Z</time></trkpt><trkpt lat="41.332308964361125" lon="1.657976598488332"><ele>182.0</ele><time>2026-05-04T16:59:54Z</time></trkpt><trkpt lat="41.33233833807456" lon="1.6581309674494273"><ele>182.0</ele><time>2026-05-04T16:59:55Z</time></trkpt><trkpt lat="41.33236022575002" lon="1.6582885599945334"><ele>182.0</ele><time>2026-05-04T16:59:56Z</time></trkpt><trkpt lat="41.33237794606106" lon="1.6584442591469644"><ele>182.0</ele><time>2026-05-04T16:59:57Z</time></trkpt><trkpt lat="41.3323962671337" lon="1.6585964169850118"><ele>181.5</ele><time>2026-05-04T16:59:58Z</time></trkpt><trkpt lat="41.33241209308072" lon="1.6587551021278217"><ele>181.0</ele><time>2026-05-04T16:59:59Z</time></trkpt><trkpt lat="41.33242741586421" lon="1.6589124534111912"><ele>180.5</ele><time>2026-05-04T17:00:00Z</time></trkpt><trkpt lat="41.33243841816462" lon="1.6590672107504705"><ele>180.0</ele><time>2026-05-04T17:00:01Z</time></trkpt><trkpt lat="41.33244812765151" lon="1.6592230373768408"><ele>180.0</ele><time>2026-05-04T17:00:02Z</time></trkpt><trkpt lat="41.33245416414343" lon="1.6593749147578618"><ele>180.0</ele><time>2026-05-04T17:00:03Z</time></trkpt><trkpt lat="41.332461980020895" lon="1.6595282853015914"><ele>180.0</ele><time>2026-05-04T17:00:04Z</time></trkpt><trkpt lat="41.332471050912744" lon="1.6596872956213427"><ele>180.0</ele><time>2026-05-04T17:00:05Z</time></trkpt><trkpt lat="41.33247670990175" lon="1.659839964322768"><ele>179.75</ele><time>2026-05-04T17:00:06Z</time></trkpt><trkpt lat="41.3324813469325" lon="1.6599877600033857"><ele>179.5</ele><time>2026-05-04T17:00:07Z</time></trkpt><trkpt lat="41.33248322973625" lon="1.6601412169435574"><ele>179.25</ele><time>2026-05-04T17:00:08Z</time></trkpt><trkpt lat="41.332488199800366" lon="1.6602921923768632"><ele>179.0</ele><time>2026-05-04T17:00:09Z</time></trkpt><trkpt lat="41.332492224635295" lon="1.660443157754517"><ele>179.75</ele><time>2026-05-04T17:00:10Z</time></trkpt><trkpt lat="41.332496861423486" lon="1.6605949821446746"><ele>180.5</ele><time>2026-05-04T17:00:11Z</time></trkpt><trkpt lat="41.33249978282805" lon="1.6607435790619163"><ele>181.25</ele><time>2026-05-04T17:00:12Z</time></trkpt><trkpt lat="41.332505691746185" lon="1.660895506308927"><ele>182.0</ele><time>2026-05-04T17:00:13Z</time></trkpt><trkpt lat="41.3325101010867" lon="1.6610476972709576"><ele>183.25</ele><time>2026-05-04T17:00:14.001Z</time></trkpt><trkpt lat="41.33251412252846" lon="1.6611960777764587"><ele>184.5</ele><time>2026-05-04T17:00:15.001Z</time></trkpt><trkpt lat="41.33252135073825" lon="1.6613484399924852"><ele>185.75</ele><time>2026-05-04T17:00:16.001Z</time></trkpt><trkpt lat="41.332525928480294" lon="1.6614984348619717"><ele>187.0</ele><time>2026-05-04T17:00:17.001Z</time></trkpt><trkpt lat="41.33252854817439" lon="1.6616501720348442"><ele>187.0</ele><time>2026-05-04T17:00:18.001Z</time></trkpt><trkpt lat="41.332536631986216" lon="1.6617994673241"><ele>187.0</ele><time>2026-05-04T17:00:19.001Z</time></trkpt><trkpt lat="41.33254531425613" lon="1.6619510758738685"><ele>187.0</ele><time>2026-05-04T17:00:20.001Z</time></trkpt><trkpt lat="41.33255505493644" lon="1.6621021586670315"><ele>187.0</ele><time>2026-05-04T17:00:21.001Z</time></trkpt><trkpt lat="41.33256519306497" lon="1.6622553318803115"><ele>186.75</ele><time>2026-05-04T17:00:22.001Z</time></trkpt><trkpt lat="41.332574283804334" lon="1.6624073394606123"><ele>186.5</ele><time>2026-05-04T17:00:23.001Z</time></trkpt><trkpt lat="41.33258201810321" lon="1.6625585744548805"><ele>186.25</ele><time>2026-05-04T17:00:24.001Z</time></trkpt><trkpt lat="41.33259209236564" lon="1.6627114908584426"><ele>186.0</ele><time>2026-05-04T17:00:25.001Z</time></trkpt><trkpt lat="41.332602949093946" lon="1.6628628538017802"><ele>186.5</ele><time>2026-05-04T17:00:26.001Z</time></trkpt><trkpt lat="41.332613970888346" lon="1.6630141291541658"><ele>187.0</ele><time>2026-05-04T17:00:27.001Z</time></trkpt><trkpt lat="41.33262968092657" lon="1.663168198699954"><ele>187.5</ele><time>2026-05-04T17:00:28.001Z</time></trkpt><trkpt lat="41.33264356672351" lon="1.6633217631107118"><ele>188.0</ele><time>2026-05-04T17:00:29.001Z</time></trkpt><trkpt lat="41.332656763943135" lon="1.6634737194840514"><ele>188.75</ele><time>2026-05-04T17:00:30.001Z</time></trkpt><trkpt lat="41.33267065255795" lon="1.6636251418608252"><ele>189.5</ele><time>2026-05-04T17:00:31.001Z</time></trkpt><trkpt lat="41.33268778834505" lon="1.663777409022479"><ele>190.25</ele><time>2026-05-04T17:00:32.001Z</time></trkpt><trkpt lat="41.33270407278451" lon="1.6639299294780383"><ele>191.0</ele><time>2026-05-04T17:00:33.001Z</time></trkpt><trkpt lat="41.33272275362198" lon="1.6640804224584684"><ele>191.0</ele><time>2026-05-04T17:00:34.001Z</time></trkpt><trkpt lat="41.332743316989266" lon="1.6642344434566263"><ele>191.0</ele><time>2026-05-04T17:00:35.001Z</time></trkpt><trkpt lat="41.332764097126876" lon="1.6643862519465018"><ele>191.0</ele><time>2026-05-04T17:00:36.001Z</time></trkpt><trkpt lat="41.33277924700689" lon="1.664542323985277"><ele>191.0</ele><time>2026-05-04T17:00:37.001Z</time></trkpt><trkpt lat="41.33279913753214" lon="1.6646953203697612"><ele>190.5</ele><time>2026-05-04T17:00:38.001Z</time></trkpt><trkpt lat="41.33282169990024" lon="1.6648510895221338"><ele>190.0</ele><time>2026-05-04T17:00:39.001Z</time></trkpt><trkpt lat="41.332842241236484" lon="1.665004800771943"><ele>189.5</ele><time>2026-05-04T17:00:40.001Z</time></trkpt><trkpt lat="41.332860886734736" lon="1.6651612905835973"><ele>189.0</ele><time>2026-05-04T17:00:41.001Z</time></trkpt><trkpt lat="41.33288274888828" lon="1.6653110963143642"><ele>188.0</ele><time>2026-05-04T17:00:42.001Z</time></trkpt><trkpt lat="41.33290586035317" lon="1.6654651497014492"><ele>187.0</ele><time>2026-05-04T17:00:43.001Z</time></trkpt><trkpt lat="41.33293005700572" lon="1.6656182242176936"><ele>186.0</ele><time>2026-05-04T17:00:44.001Z</time></trkpt><trkpt lat="41.332953727712585" lon="1.665771373446921"><ele>185.0</ele><time>2026-05-04T17:00:45.001Z</time></trkpt><trkpt lat="41.332977422515455" lon="1.665923881768901"><ele>185.0</ele><time>2026-05-04T17:00:46.001Z</time></trkpt><trkpt lat="41.33300164676497" lon="1.6660758291180107"><ele>185.0</ele><time>2026-05-04T17:00:47.001Z</time></trkpt><trkpt lat="41.33302658273782" lon="1.6662274963637014"><ele>185.0</ele><time>2026-05-04T17:00:48.001Z</time></trkpt><trkpt lat="41.33305196112727" lon="1.6663790589876049"><ele>185.0</ele><time>2026-05-04T17:00:49.001Z</time></trkpt><trkpt lat="41.33307469694491" lon="1.6665320882622765"><ele>185.0</ele><time>2026-05-04T17:00:50.001Z</time></trkpt><trkpt lat="41.333100464528265" lon="1.6666854176671055"><ele>185.0</ele><time>2026-05-04T17:00:51.001Z</time></trkpt><trkpt lat="41.33312110952968" lon="1.6668396373351415"><ele>185.0</ele><time>2026-05-04T17:00:52.001Z</time></trkpt><trkpt lat="41.33314017681806" lon="1.6669952302016589"><ele>185.0</ele><time>2026-05-04T17:00:53.001Z</time></trkpt><trkpt lat="41.3331591366634" lon="1.667152365668764"><ele>185.0</ele><time>2026-05-04T17:00:54.001Z</time></trkpt><trkpt lat="41.333181216819625" lon="1.667311989172404"><ele>185.0</ele><time>2026-05-04T17:00:55.001Z</time></trkpt><trkpt lat="41.333205548352986" lon="1.6674694209256435"><ele>185.0</ele><time>2026-05-04T17:00:56.001Z</time></trkpt><trkpt lat="41.333229586302856" lon="1.667624398226078"><ele>185.0</ele><time>2026-05-04T17:00:57.001Z</time></trkpt><trkpt lat="41.333258861687604" lon="1.6677736884954164"><ele>183.5</ele><time>2026-05-04T17:00:58.001Z</time></trkpt><trkpt lat="41.3332870398711" lon="1.6679280533901077"><ele>182.0</ele><time>2026-05-04T17:00:59.001Z</time></trkpt><trkpt lat="41.33330721501562" lon="1.6680812387765607"><ele>180.5</ele><time>2026-05-04T17:01:00.001Z</time></trkpt><trkpt lat="41.33333107424337" lon="1.6682385303258027"><ele>179.0</ele><time>2026-05-04T17:01:01.001Z</time></trkpt><trkpt lat="41.33335634919513" lon="1.6683954106369194"><ele>179.0</ele><time>2026-05-04T17:01:02.001Z</time></trkpt><trkpt lat="41.333378028867386" lon="1.6685482019119524"><ele>179.0</ele><time>2026-05-04T17:01:03.001Z</time></trkpt><trkpt lat="41.33340318423179" lon="1.6687043049974248"><ele>179.0</ele><time>2026-05-04T17:01:04.001Z</time></trkpt><trkpt lat="41.33342740754184" lon="1.6688573514500955"><ele>179.0</ele><time>2026-05-04T17:01:05.001Z</time></trkpt><trkpt lat="41.33345264244571" lon="1.6690116600543965"><ele>178.75</ele><time>2026-05-04T17:01:06.001Z</time></trkpt><trkpt lat="41.33347477075147" lon="1.6691671669153616"><ele>178.5</ele><time>2026-05-04T17:01:07.001Z</time></trkpt><trkpt lat="41.33349759093816" lon="1.669319609138651"><ele>178.25</ele><time>2026-05-04T17:01:08.001Z</time></trkpt><trkpt lat="41.33352167441334" lon="1.6694729038145366"><ele>178.0</ele><time>2026-05-04T17:01:09.001Z</time></trkpt><trkpt lat="41.333548031843705" lon="1.6696262814864191"><ele>178.0</ele><time>2026-05-04T17:01:10.001Z</time></trkpt><trkpt lat="41.33357234672046" lon="1.6697802715102086"><ele>178.0</ele><time>2026-05-04T17:01:11.001Z</time></trkpt><trkpt lat="41.333597820947354" lon="1.6699351941455352"><ele>178.0</ele><time>2026-05-04T17:01:12.001Z</time></trkpt><trkpt lat="41.33361961368473" lon="1.6700862867660702"><ele>178.0</ele><time>2026-05-04T17:01:13.001Z</time></trkpt><trkpt lat="41.33364213297285" lon="1.6702368407348998"><ele>178.0</ele><time>2026-05-04T17:01:14.001Z</time></trkpt><trkpt lat="41.333661037765225" lon="1.6703883351946225"><ele>178.0</ele><time>2026-05-04T17:01:15.001Z</time></trkpt><trkpt lat="41.333682497910836" lon="1.6705432331139236"><ele>178.0</ele><time>2026-05-04T17:01:16.001Z</time></trkpt><trkpt lat="41.3337054393855" lon="1.6706982302860094"><ele>178.0</ele><time>2026-05-04T17:01:17.001Z</time></trkpt><trkpt lat="41.333727016273045" lon="1.6708557832758288"><ele>178.0</ele><time>2026-05-04T17:01:18.001Z</time></trkpt><trkpt lat="41.333749379114316" lon="1.6710132632889327"><ele>178.0</ele><time>2026-05-04T17:01:19.001Z</time></trkpt><trkpt lat="41.333768177901305" lon="1.6711736762947837"><ele>178.0</ele><time>2026-05-04T17:01:20.001Z</time></trkpt><trkpt lat="41.333786676647065" lon="1.671334187350437"><ele>178.0</ele><time>2026-05-04T17:01:21.001Z</time></trkpt><trkpt lat="41.333809819546005" lon="1.6714967105222107"><ele>177.75</ele><time>2026-05-04T17:01:22.001Z</time></trkpt><trkpt lat="41.33382904335127" lon="1.6716528219600417"><ele>177.5</ele><time>2026-05-04T17:01:23.001Z</time></trkpt><trkpt lat="41.33384900886449" lon="1.6718081886372094"><ele>177.25</ele><time>2026-05-04T17:01:24.001Z</time></trkpt><trkpt lat="41.33386791918577" lon="1.6719668239899899"><ele>177.0</ele><time>2026-05-04T17:01:25.001Z</time></trkpt><trkpt lat="41.33388945925265" lon="1.6721242591723922"><ele>176.75</ele><time>2026-05-04T17:01:26.001Z</time></trkpt><trkpt lat="41.333908486439014" lon="1.6722798048957206"><ele>176.5</ele><time>2026-05-04T17:01:27.001Z</time></trkpt><trkpt lat="41.333922757441236" lon="1.672438400222882"><ele>176.25</ele><time>2026-05-04T17:01:28.001Z</time></trkpt><trkpt lat="41.33393735423599" lon="1.6725918562603013"><ele>176.0</ele><time>2026-05-04T17:01:29.001Z</time></trkpt><trkpt lat="41.33395541473425" lon="1.6727481137164222"><ele>175.5</ele><time>2026-05-04T17:01:30.001Z</time></trkpt><trkpt lat="41.333972408410176" lon="1.672907590067231"><ele>175.0</ele><time>2026-05-04T17:01:31.001Z</time></trkpt><trkpt lat="41.33399381057029" lon="1.6730652853352135"><ele>174.5</ele><time>2026-05-04T17:01:32.001Z</time></trkpt><trkpt lat="41.334010844819176" lon="1.6732198514134435"><ele>174.0</ele><time>2026-05-04T17:01:33.001Z</time></trkpt><trkpt lat="41.33402681265055" lon="1.6733755020843382"><ele>174.0</ele><time>2026-05-04T17:01:34.001Z</time></trkpt><trkpt lat="41.33404237428359" lon="1.67353529841953"><ele>174.0</ele><time>2026-05-04T17:01:35.001Z</time></trkpt><trkpt lat="41.3340559313376" lon="1.673689481751333"><ele>174.0</ele><time>2026-05-04T17:01:36.001Z</time></trkpt><trkpt lat="41.334070675420335" lon="1.6738457377728666"><ele>174.0</ele><time>2026-05-04T17:01:37.002Z</time></trkpt><trkpt lat="41.3340855432085" lon="1.6740019830552235"><ele>174.5</ele><time>2026-05-04T17:01:38.002Z</time></trkpt><trkpt lat="41.33410359845911" lon="1.6741531867858896"><ele>175.0</ele><time>2026-05-04T17:01:39.002Z</time></trkpt><trkpt lat="41.33411539636354" lon="1.674308020589403"><ele>175.5</ele><time>2026-05-04T17:01:40.002Z</time></trkpt><trkpt lat="41.33412745888034" lon="1.6744611505935512"><ele>176.0</ele><time>2026-05-04T17:01:41Z</time></trkpt><trkpt lat="41.33413914034405" lon="1.6746166168833285"><ele>176.25</ele><time>2026-05-04T17:01:42Z</time></trkpt><trkpt lat="41.33415221276022" lon="1.6747713412992302"><ele>176.5</ele><time>2026-05-04T17:01:43Z</time></trkpt><trkpt lat="41.33416623985113" lon="1.6749229628655626"><ele>176.75</ele><time>2026-05-04T17:01:44Z</time></trkpt><trkpt lat="41.334179975890834" lon="1.6750766692523544"><ele>177.0</ele><time>2026-05-04T17:01:45Z</time></trkpt><trkpt lat="41.334193347031146" lon="1.6752295481217092"><ele>177.25</ele><time>2026-05-04T17:01:46Z</time></trkpt><trkpt lat="41.33420321787444" lon="1.6753839189694797"><ele>177.5</ele><time>2026-05-04T17:01:47Z</time></trkpt><trkpt lat="41.33421536588896" lon="1.6755409652432915"><ele>177.75</ele><time>2026-05-04T17:01:48Z</time></trkpt><trkpt lat="41.334224824321204" lon="1.6756963196773695"><ele>178.0</ele><time>2026-05-04T17:01:49Z</time></trkpt><trkpt lat="41.334236485331495" lon="1.6758497015076672"><ele>178.0</ele><time>2026-05-04T17:01:50Z</time></trkpt><trkpt lat="41.33425080265042" lon="1.6760036740785773"><ele>178.0</ele><time>2026-05-04T17:01:51Z</time></trkpt><trkpt lat="41.334258393805776" lon="1.6761643275051912"><ele>178.0</ele><time>2026-05-04T17:01:52Z</time></trkpt><trkpt lat="41.33426287717999" lon="1.6763195894968408"><ele>178.0</ele><time>2026-05-04T17:01:53Z</time></trkpt><trkpt lat="41.33427125731554" lon="1.6764765383768736"><ele>177.75</ele><time>2026-05-04T17:01:54Z</time></trkpt><trkpt lat="41.33428490031839" lon="1.6766283453141042"><ele>177.5</ele><time>2026-05-04T17:01:55Z</time></trkpt><trkpt lat="41.33429672509239" lon="1.6767851456710123"><ele>177.25</ele><time>2026-05-04T17:01:56Z</time></trkpt><trkpt lat="41.33430390469866" lon="1.6769402721882936"><ele>177.0</ele><time>2026-05-04T17:01:57Z</time></trkpt><trkpt lat="41.33430971940251" lon="1.677094754721462"><ele>176.75</ele><time>2026-05-04T17:01:58Z</time></trkpt><trkpt lat="41.334318108366965" lon="1.6772486566577216"><ele>176.5</ele><time>2026-05-04T17:01:59Z</time></trkpt><trkpt lat="41.33431836588727" lon="1.6774035359415989"><ele>176.25</ele><time>2026-05-04T17:02:00Z</time></trkpt><trkpt lat="41.334320677745374" lon="1.6775563177995558"><ele>176.0</ele><time>2026-05-04T17:02:01Z</time></trkpt><trkpt lat="41.33433387031558" lon="1.6777083076574295"><ele>176.0</ele><time>2026-05-04T17:02:02Z</time></trkpt><trkpt lat="41.33434523599353" lon="1.677860254166689"><ele>176.0</ele><time>2026-05-04T17:02:03Z</time></trkpt><trkpt lat="41.33435244600066" lon="1.6780135016137312"><ele>176.0</ele><time>2026-05-04T17:02:04Z</time></trkpt><trkpt lat="41.33435576240488" lon="1.678166441939241"><ele>176.0</ele><time>2026-05-04T17:02:05Z</time></trkpt><trkpt lat="41.33435873997432" lon="1.6783156468472606"><ele>176.0</ele><time>2026-05-04T17:02:06Z</time></trkpt><trkpt lat="41.33436182047237" lon="1.6784703036316793"><ele>176.0</ele><time>2026-05-04T17:02:07Z</time></trkpt><trkpt lat="41.33436547667972" lon="1.678622540148999"><ele>176.0</ele><time>2026-05-04T17:02:08Z</time></trkpt><trkpt lat="41.33437490516316" lon="1.6787597593850483"><ele>176.0</ele><time>2026-05-04T17:02:09Z</time></trkpt><trkpt lat="41.33438118579913" lon="1.6789223232502621"><ele>176.0</ele><time>2026-05-04T17:02:10Z</time></trkpt><trkpt lat="41.33438347378733" lon="1.6790680324758793"><ele>176.0</ele><time>2026-05-04T17:02:11Z</time></trkpt><trkpt lat="41.334386148071815" lon="1.6792174680241396"><ele>176.0</ele><time>2026-05-04T17:02:12Z</time></trkpt><trkpt lat="41.334390729354446" lon="1.6793694101877694"><ele>176.0</ele><time>2026-05-04T17:02:13Z</time></trkpt><trkpt lat="41.33439271200119" lon="1.6795239803805433"><ele>176.20000000000002</ele><time>2026-05-04T17:02:14Z</time></trkpt><trkpt lat="41.334393749040906" lon="1.6796638423133659"><ele>176.4</ele><time>2026-05-04T17:02:15Z</time></trkpt><trkpt lat="41.33439483253819" lon="1.6798039797517201"><ele>176.6</ele><time>2026-05-04T17:02:16Z</time></trkpt><trkpt lat="41.33436057480881" lon="1.679898713743842"><ele>176.8</ele><time>2026-05-04T17:02:17Z</time></trkpt><trkpt lat="41.33425559942818" lon="1.679963275600043"><ele>177.0</ele><time>2026-05-04T17:02:18Z</time></trkpt><trkpt lat="41.33441956077187" lon="1.680262895764744"><ele>177.6</ele><time>2026-05-04T17:02:19Z</time></trkpt><trkpt lat="41.334415486432086" lon="1.6804137585782244"><ele>178.2</ele><time>2026-05-04T17:02:20Z</time></trkpt><trkpt lat="41.33441420220934" lon="1.6805605864379374"><ele>178.8</ele><time>2026-05-04T17:02:21Z</time></trkpt><trkpt lat="41.33441279649686" lon="1.6807070254914778"><ele>179.4</ele><time>2026-05-04T17:02:22Z</time></trkpt><trkpt lat="41.33441633957563" lon="1.680853633499435"><ele>180.0</ele><time>2026-05-04T17:02:23Z</time></trkpt><trkpt lat="41.33441700568341" lon="1.6810003603430332"><ele>180.6</ele><time>2026-05-04T17:02:24Z</time></trkpt><trkpt lat="41.334412194295794" lon="1.681147118749533"><ele>181.2</ele><time>2026-05-04T17:02:25Z</time></trkpt><trkpt lat="41.33440742502247" lon="1.6812935145542893"><ele>181.8</ele><time>2026-05-04T17:02:26Z</time></trkpt><trkpt lat="41.334406163016475" lon="1.6814398735193334"><ele>182.4</ele><time>2026-05-04T17:02:27Z</time></trkpt><trkpt lat="41.33440492281206" lon="1.6815854413000164"><ele>183.0</ele><time>2026-05-04T17:02:28.001Z</time></trkpt><trkpt lat="41.33440631461641" lon="1.6817332007643535"><ele>183.0</ele><time>2026-05-04T17:02:29.001Z</time></trkpt><trkpt lat="41.334404531782795" lon="1.6818768836241391"><ele>183.0</ele><time>2026-05-04T17:02:30.001Z</time></trkpt><trkpt lat="41.334404812792805" lon="1.6820178396544807"><ele>183.0</ele><time>2026-05-04T17:02:31.001Z</time></trkpt><trkpt lat="41.3344028958155" lon="1.68216090948242"><ele>183.0</ele><time>2026-05-04T17:02:32.001Z</time></trkpt><trkpt lat="41.334397980633106" lon="1.6823058865766123"><ele>183.0</ele><time>2026-05-04T17:02:33.001Z</time></trkpt><trkpt lat="41.33439267884083" lon="1.6824528207252276"><ele>183.0</ele><time>2026-05-04T17:02:34.001Z</time></trkpt><trkpt lat="41.3343891480255" lon="1.682600946035521"><ele>183.0</ele><time>2026-05-04T17:02:35.001Z</time></trkpt><trkpt lat="41.33438503248786" lon="1.682747721670619"><ele>183.0</ele><time>2026-05-04T17:02:36.001Z</time></trkpt><trkpt lat="41.3343798460076" lon="1.6828954848215405"><ele>183.0</ele><time>2026-05-04T17:02:37.001Z</time></trkpt><trkpt lat="41.33437613856849" lon="1.6830451023260349"><ele>183.0</ele><time>2026-05-04T17:02:38.001Z</time></trkpt><trkpt lat="41.334368976928765" lon="1.683197606592921"><ele>183.0</ele><time>2026-05-04T17:02:39.001Z</time></trkpt><trkpt lat="41.33436683430752" lon="1.6833494881932523"><ele>183.0</ele><time>2026-05-04T17:02:40.001Z</time></trkpt><trkpt lat="41.33436461792751" lon="1.6835010538169044"><ele>183.0</ele><time>2026-05-04T17:02:41.001Z</time></trkpt><trkpt lat="41.33435818789583" lon="1.6836584226876667"><ele>183.0</ele><time>2026-05-04T17:02:42.001Z</time></trkpt><trkpt lat="41.33435244271458" lon="1.6838160957572823"><ele>184.5</ele><time>2026-05-04T17:02:43.001Z</time></trkpt><trkpt lat="41.33434867246017" lon="1.6839694925188338"><ele>186.0</ele><time>2026-05-04T17:02:44.001Z</time></trkpt><trkpt lat="41.33434535964442" lon="1.6841212877704081"><ele>187.5</ele><time>2026-05-04T17:02:45.001Z</time></trkpt><trkpt lat="41.334340623339116" lon="1.684274233034162"><ele>189.0</ele><time>2026-05-04T17:02:46.001Z</time></trkpt><trkpt lat="41.33433325416329" lon="1.6844275050557254"><ele>189.0</ele><time>2026-05-04T17:02:47.001Z</time></trkpt><trkpt lat="41.334327422138344" lon="1.6845802113987631"><ele>189.0</ele><time>2026-05-04T17:02:48.001Z</time></trkpt><trkpt lat="41.3343209702893" lon="1.6847299185596099"><ele>189.0</ele><time>2026-05-04T17:02:49.001Z</time></trkpt><trkpt lat="41.33431457549841" lon="1.684885109725299"><ele>189.0</ele><time>2026-05-04T17:02:50.001Z</time></trkpt><trkpt lat="41.33430897389119" lon="1.6850403219012677"><ele>189.0</ele><time>2026-05-04T17:02:51.001Z</time></trkpt><trkpt lat="41.33430344190634" lon="1.6851958238375964"><ele>189.0</ele><time>2026-05-04T17:02:52.001Z</time></trkpt><trkpt lat="41.334299938031435" lon="1.6853512662225243"><ele>189.0</ele><time>2026-05-04T17:02:53.001Z</time></trkpt><trkpt lat="41.33429698282747" lon="1.6855032144344178"><ele>189.0</ele><time>2026-05-04T17:02:54.001Z</time></trkpt><trkpt lat="41.334295830099336" lon="1.685658435772237"><ele>189.0</ele><time>2026-05-04T17:02:55.001Z</time></trkpt><trkpt lat="41.334290419406194" lon="1.685810478640357"><ele>189.0</ele><time>2026-05-04T17:02:56.001Z</time></trkpt><trkpt lat="41.33428386094352" lon="1.6859620454757016"><ele>189.0</ele><time>2026-05-04T17:02:57.001Z</time></trkpt><trkpt lat="41.334275558117746" lon="1.6861158208224203"><ele>189.0</ele><time>2026-05-04T17:02:58.001Z</time></trkpt><trkpt lat="41.33426997386809" lon="1.6862700616159474"><ele>189.0</ele><time>2026-05-04T17:02:59.001Z</time></trkpt><trkpt lat="41.33426564095655" lon="1.686425093280723"><ele>189.0</ele><time>2026-05-04T17:03:00.001Z</time></trkpt><trkpt lat="41.3342594267277" lon="1.68657978552611"><ele>189.0</ele><time>2026-05-04T17:03:01.001Z</time></trkpt><trkpt lat="41.33425558715051" lon="1.6867356865268694"><ele>189.0</ele><time>2026-05-04T17:03:02.001Z</time></trkpt><trkpt lat="41.334251175319366" lon="1.6868907894089595"><ele>188.25</ele><time>2026-05-04T17:03:03.001Z</time></trkpt><trkpt lat="41.334245869520394" lon="1.6870485073002666"><ele>187.5</ele><time>2026-05-04T17:03:04.001Z</time></trkpt><trkpt lat="41.3342399722048" lon="1.6872036101419434"><ele>186.75</ele><time>2026-05-04T17:03:05.001Z</time></trkpt><trkpt lat="41.33423422050504" lon="1.687358955232602"><ele>186.0</ele><time>2026-05-04T17:03:06.001Z</time></trkpt><trkpt lat="41.334228836664366" lon="1.6875134807416572"><ele>186.0</ele><time>2026-05-04T17:03:07.001Z</time></trkpt><trkpt lat="41.334222181819676" lon="1.6876690451658427"><ele>186.0</ele><time>2026-05-04T17:03:08.001Z</time></trkpt><trkpt lat="41.334216833399005" lon="1.687824109028841"><ele>186.0</ele><time>2026-05-04T17:03:09.001Z</time></trkpt><trkpt lat="41.33420594994918" lon="1.6879830094524308"><ele>186.0</ele><time>2026-05-04T17:03:10.001Z</time></trkpt><trkpt lat="41.334196426225745" lon="1.68813626308312"><ele>187.25</ele><time>2026-05-04T17:03:11.001Z</time></trkpt><trkpt lat="41.33418613310857" lon="1.6882935054181127"><ele>188.5</ele><time>2026-05-04T17:03:12.001Z</time></trkpt><trkpt lat="41.33417581970547" lon="1.6884506124161602"><ele>189.75</ele><time>2026-05-04T17:03:13.001Z</time></trkpt><trkpt lat="41.33416819060648" lon="1.6886061980636742"><ele>191.0</ele><time>2026-05-04T17:03:14.001Z</time></trkpt><trkpt lat="41.33416291554293" lon="1.6887618343610313"><ele>191.75</ele><time>2026-05-04T17:03:15.001Z</time></trkpt><trkpt lat="41.33415816508274" lon="1.688919176564882"><ele>192.5</ele><time>2026-05-04T17:03:16.001Z</time></trkpt><trkpt lat="41.334151960556056" lon="1.6890769157948233"><ele>193.25</ele><time>2026-05-04T17:03:17.001Z</time></trkpt><trkpt lat="41.33414830426552" lon="1.6892333752897002"><ele>194.0</ele><time>2026-05-04T17:03:18.001Z</time></trkpt><trkpt lat="41.33414741383008" lon="1.6893900283138623"><ele>194.25</ele><time>2026-05-04T17:03:19.001Z</time></trkpt><trkpt lat="41.33414626534101" lon="1.6895513744645299"><ele>194.5</ele><time>2026-05-04T17:03:20.001Z</time></trkpt><trkpt lat="41.33414262468665" lon="1.6897080262094053"><ele>194.75</ele><time>2026-05-04T17:03:21.001Z</time></trkpt><trkpt lat="41.33414190585018" lon="1.6898667888111123"><ele>195.0</ele><time>2026-05-04T17:03:22.001Z</time></trkpt><trkpt lat="41.33413811569561" lon="1.6900208670055303"><ele>195.0</ele><time>2026-05-04T17:03:23.001Z</time></trkpt><trkpt lat="41.33413366935478" lon="1.6901794242172132"><ele>195.0</ele><time>2026-05-04T17:03:24.001Z</time></trkpt><trkpt lat="41.33413225521389" lon="1.6903375973933406"><ele>195.0</ele><time>2026-05-04T17:03:25.001Z</time></trkpt><trkpt lat="41.33413039932816" lon="1.690493578924444"><ele>195.0</ele><time>2026-05-04T17:03:26.001Z</time></trkpt><trkpt lat="41.33412770930494" lon="1.6906498368518872"><ele>194.75</ele><time>2026-05-04T17:03:27.001Z</time></trkpt><trkpt lat="41.334125979887055" lon="1.6908056534451958"><ele>194.5</ele><time>2026-05-04T17:03:28.001Z</time></trkpt><trkpt lat="41.334122122375845" lon="1.6909646524252515"><ele>194.25</ele><time>2026-05-04T17:03:29.001Z</time></trkpt><trkpt lat="41.33412129477658" lon="1.6911201150871875"><ele>194.0</ele><time>2026-05-04T17:03:30.001Z</time></trkpt><trkpt lat="41.33411569482648" lon="1.6912638462666751"><ele>195.0</ele><time>2026-05-04T17:03:31.001Z</time></trkpt><trkpt lat="41.334111345255" lon="1.6914255878621796"><ele>196.0</ele><time>2026-05-04T17:03:32.001Z</time></trkpt><trkpt lat="41.334109645562876" lon="1.6915810264655107"><ele>197.0</ele><time>2026-05-04T17:03:33.001Z</time></trkpt><trkpt lat="41.334108705445004" lon="1.6917354875544826"><ele>198.0</ele><time>2026-05-04T17:03:34.001Z</time></trkpt><trkpt lat="41.334107461653204" lon="1.6918901265324238"><ele>198.5</ele><time>2026-05-04T17:03:35.001Z</time></trkpt><trkpt lat="41.33410298549077" lon="1.6920431978487307"><ele>199.0</ele><time>2026-05-04T17:03:36.001Z</time></trkpt><trkpt lat="41.33410465979971" lon="1.692196270025899"><ele>199.5</ele><time>2026-05-04T17:03:37.001Z</time></trkpt><trkpt lat="41.334104147771036" lon="1.6923498805086687"><ele>200.0</ele><time>2026-05-04T17:03:38.001Z</time></trkpt><trkpt lat="41.334101517401656" lon="1.6925021202231245"><ele>200.0</ele><time>2026-05-04T17:03:39.001Z</time></trkpt><trkpt lat="41.33410283121066" lon="1.6926524197290598"><ele>200.0</ele><time>2026-05-04T17:03:40.001Z</time></trkpt><trkpt lat="41.33410324878401" lon="1.6927982331414253"><ele>200.0</ele><time>2026-05-04T17:03:41.001Z</time></trkpt><trkpt lat="41.334099281312284" lon="1.6929514136230748"><ele>200.0</ele><time>2026-05-04T17:03:42.001Z</time></trkpt><trkpt lat="41.3340997927178" lon="1.6931070995373896"><ele>200.4</ele><time>2026-05-04T17:03:43.001Z</time></trkpt><trkpt lat="41.3340952537627" lon="1.6932521438325256"><ele>200.8</ele><time>2026-05-04T17:03:44.001Z</time></trkpt><trkpt lat="41.33410423495456" lon="1.693403967835956"><ele>201.2</ele><time>2026-05-04T17:03:45.001Z</time></trkpt><trkpt lat="41.33410324106355" lon="1.6935493102142287"><ele>201.6</ele><time>2026-05-04T17:03:46.001Z</time></trkpt><trkpt lat="41.33410698719445" lon="1.6936966146731864"><ele>202.0</ele><time>2026-05-04T17:03:47Z</time></trkpt><trkpt lat="41.3341069289542" lon="1.6938426857261444"><ele>202.6</ele><time>2026-05-04T17:03:48Z</time></trkpt><trkpt lat="41.33411460679845" lon="1.6939849314222375"><ele>203.2</ele><time>2026-05-04T17:03:49Z</time></trkpt><trkpt lat="41.3341103689712" lon="1.6941417188113774"><ele>203.8</ele><time>2026-05-04T17:03:50Z</time></trkpt><trkpt lat="41.33410991531269" lon="1.69428492681443"><ele>204.4</ele><time>2026-05-04T17:03:51Z</time></trkpt><trkpt lat="41.33410693798486" lon="1.694420340079974"><ele>205.0</ele><time>2026-05-04T17:03:52Z</time></trkpt><trkpt lat="41.33410980083432" lon="1.6945762630763344"><ele>205.2</ele><time>2026-05-04T17:03:53Z</time></trkpt><trkpt lat="41.33410575377195" lon="1.694723855107188"><ele>205.4</ele><time>2026-05-04T17:03:54Z</time></trkpt><trkpt lat="41.33410562467594" lon="1.694872062308519"><ele>205.60000000000002</ele><time>2026-05-04T17:03:55Z</time></trkpt><trkpt lat="41.33410501673544" lon="1.6950191473400633"><ele>205.8</ele><time>2026-05-04T17:03:56Z</time></trkpt><trkpt lat="41.334107102038544" lon="1.6951679248252667"><ele>206.0</ele><time>2026-05-04T17:03:57Z</time></trkpt><trkpt lat="41.3341068705899" lon="1.6953164569996118"><ele>205.60000000000002</ele><time>2026-05-04T17:03:58Z</time></trkpt><trkpt lat="41.33410309463192" lon="1.6954622029906596"><ele>205.2</ele><time>2026-05-04T17:03:59Z</time></trkpt><trkpt lat="41.334102053451325" lon="1.695610405028123"><ele>204.8</ele><time>2026-05-04T17:04:00Z</time></trkpt><trkpt lat="41.334098926128355" lon="1.6957526026977934"><ele>204.39999999999998</ele><time>2026-05-04T17:04:01Z</time></trkpt><trkpt lat="41.33410080271454" lon="1.69589812336271"><ele>204.0</ele><time>2026-05-04T17:04:02Z</time></trkpt><trkpt lat="41.334098189621216" lon="1.6960471069991434"><ele>204.2</ele><time>2026-05-04T17:04:03Z</time></trkpt><trkpt lat="41.334097276690414" lon="1.6961944801107078"><ele>204.39999999999998</ele><time>2026-05-04T17:04:04Z</time></trkpt><trkpt lat="41.33409833917848" lon="1.6963440606329965"><ele>204.6</ele><time>2026-05-04T17:04:05Z</time></trkpt><trkpt lat="41.334095998536604" lon="1.6964951191500697"><ele>204.8</ele><time>2026-05-04T17:04:06Z</time></trkpt><trkpt lat="41.33409518817591" lon="1.6966440038218242"><ele>205.0</ele><time>2026-05-04T17:04:07Z</time></trkpt><trkpt lat="41.334062379140065" lon="1.6967538005225704"><ele>205.25</ele><time>2026-05-04T17:04:08Z</time></trkpt><trkpt lat="41.3340864207935" lon="1.6969415234253606"><ele>205.5</ele><time>2026-05-04T17:04:09Z</time></trkpt><trkpt lat="41.33408859036472" lon="1.69708463937326"><ele>205.75</ele><time>2026-05-04T17:04:10Z</time></trkpt><trkpt lat="41.33408495497214" lon="1.6972399968364873"><ele>206.0</ele><time>2026-05-04T17:04:11Z</time></trkpt><trkpt lat="41.33407816077965" lon="1.697395770293698"><ele>206.0</ele><time>2026-05-04T17:04:12Z</time></trkpt><trkpt lat="41.33407574378537" lon="1.6975493052787054"><ele>206.0</ele><time>2026-05-04T17:04:13Z</time></trkpt><trkpt lat="41.33407015839556" lon="1.697704312934881"><ele>206.0</ele><time>2026-05-04T17:04:14Z</time></trkpt><trkpt lat="41.334061000405626" lon="1.6978652571297603"><ele>206.0</ele><time>2026-05-04T17:04:15Z</time></trkpt><trkpt lat="41.334056301396615" lon="1.6980200115015782"><ele>205.25</ele><time>2026-05-04T17:04:16Z</time></trkpt><trkpt lat="41.33405354125218" lon="1.6981777963929685"><ele>204.5</ele><time>2026-05-04T17:04:17Z</time></trkpt><trkpt lat="41.33405203211158" lon="1.6983421710087927"><ele>203.75</ele><time>2026-05-04T17:04:18Z</time></trkpt><trkpt lat="41.33404467886979" lon="1.698501207090782"><ele>203.0</ele><time>2026-05-04T17:04:19Z</time></trkpt><trkpt lat="41.33403874433033" lon="1.6986605697116346"><ele>203.0</ele><time>2026-05-04T17:04:20Z</time></trkpt><trkpt lat="41.33403488647605" lon="1.6988196335440577"><ele>203.0</ele><time>2026-05-04T17:04:21Z</time></trkpt><trkpt lat="41.33402886592863" lon="1.6989797928195478"><ele>203.0</ele><time>2026-05-04T17:04:22Z</time></trkpt><trkpt lat="41.3340239672538" lon="1.6991385696162042"><ele>203.0</ele><time>2026-05-04T17:04:23Z</time></trkpt><trkpt lat="41.33401570501532" lon="1.6992979721371935"><ele>203.0</ele><time>2026-05-04T17:04:24Z</time></trkpt><trkpt lat="41.334013467078314" lon="1.6994577675432565"><ele>203.0</ele><time>2026-05-04T17:04:25Z</time></trkpt><trkpt lat="41.33400886136586" lon="1.6996184882574181"><ele>203.0</ele><time>2026-05-04T17:04:26Z</time></trkpt><trkpt lat="41.3340013563141" lon="1.699774590983555"><ele>203.0</ele><time>2026-05-04T17:04:27Z</time></trkpt><trkpt lat="41.333994726870266" lon="1.69993083376696"><ele>203.0</ele><time>2026-05-04T17:04:28Z</time></trkpt><trkpt lat="41.33399159251201" lon="1.7000912351999509"><ele>203.0</ele><time>2026-05-04T17:04:29Z</time></trkpt><trkpt lat="41.33398565630038" lon="1.700250966017124"><ele>203.0</ele><time>2026-05-04T17:04:30Z</time></trkpt><trkpt lat="41.333982907411325" lon="1.7004084153906525"><ele>203.0</ele><time>2026-05-04T17:04:31Z</time></trkpt><trkpt lat="41.333980888100335" lon="1.7005666562133284"><ele>203.0</ele><time>2026-05-04T17:04:32Z</time></trkpt><trkpt lat="41.33398229106516" lon="1.7007255551096876"><ele>203.0</ele><time>2026-05-04T17:04:33Z</time></trkpt><trkpt lat="41.33398686241609" lon="1.7008821535959158"><ele>203.0</ele><time>2026-05-04T17:04:34Z</time></trkpt><trkpt lat="41.33399402381415" lon="1.7010361979997366"><ele>203.0</ele><time>2026-05-04T17:04:35Z</time></trkpt><trkpt lat="41.3340046845172" lon="1.7011927189701144"><ele>203.0</ele><time>2026-05-04T17:04:36Z</time></trkpt><trkpt lat="41.334015950889075" lon="1.701349904138776"><ele>203.0</ele><time>2026-05-04T17:04:37Z</time></trkpt><trkpt lat="41.33402741130669" lon="1.7015032050652419"><ele>203.0</ele><time>2026-05-04T17:04:38Z</time></trkpt><trkpt lat="41.334039809828525" lon="1.70165935500849"><ele>203.0</ele><time>2026-05-04T17:04:39Z</time></trkpt><trkpt lat="41.334057636458915" lon="1.7018119057917296"><ele>202.75</ele><time>2026-05-04T17:04:40Z</time></trkpt><trkpt lat="41.334081882662666" lon="1.7019715635922108"><ele>202.5</ele><time>2026-05-04T17:04:41Z</time></trkpt><trkpt lat="41.33410233713024" lon="1.7021213359299003"><ele>202.25</ele><time>2026-05-04T17:04:42.001Z</time></trkpt><trkpt lat="41.33412387869751" lon="1.7022756672526387"><ele>202.0</ele><time>2026-05-04T17:04:43.001Z</time></trkpt><trkpt lat="41.334151422797355" lon="1.7024304843281497"><ele>202.0</ele><time>2026-05-04T17:04:44.001Z</time></trkpt><trkpt lat="41.33418825561049" lon="1.7025835914335554"><ele>202.0</ele><time>2026-05-04T17:04:45.001Z</time></trkpt><trkpt lat="41.334227209332916" lon="1.7027397844339605"><ele>202.0</ele><time>2026-05-04T17:04:46.001Z</time></trkpt><trkpt lat="41.33426392399836" lon="1.70288056735228"><ele>202.0</ele><time>2026-05-04T17:04:47.001Z</time></trkpt><trkpt lat="41.33429910830056" lon="1.703033687298882"><ele>202.5</ele><time>2026-05-04T17:04:48.001Z</time></trkpt><trkpt lat="41.334341583948266" lon="1.7031781007954336"><ele>203.0</ele><time>2026-05-04T17:04:49.001Z</time></trkpt><trkpt lat="41.33438920727604" lon="1.7033219056359494"><ele>203.5</ele><time>2026-05-04T17:04:50.001Z</time></trkpt><trkpt lat="41.3344293292668" lon="1.7034647523376927"><ele>204.0</ele><time>2026-05-04T17:04:51.001Z</time></trkpt><trkpt lat="41.33448064191071" lon="1.7036094591313053"><ele>202.75</ele><time>2026-05-04T17:04:52.001Z</time></trkpt><trkpt lat="41.334529976018466" lon="1.703747783125265"><ele>201.5</ele><time>2026-05-04T17:04:53.001Z</time></trkpt><trkpt lat="41.33458421566938" lon="1.7038813920080396"><ele>200.25</ele><time>2026-05-04T17:04:54.001Z</time></trkpt><trkpt lat="41.33464452664162" lon="1.704014759335824"><ele>199.0</ele><time>2026-05-04T17:04:55.001Z</time></trkpt><trkpt lat="41.33469815807494" lon="1.7041451690956881"><ele>199.25</ele><time>2026-05-04T17:04:56.001Z</time></trkpt><trkpt lat="41.33475590491586" lon="1.7042778949561719"><ele>199.5</ele><time>2026-05-04T17:04:57.001Z</time></trkpt><trkpt lat="41.334810138000165" lon="1.7044088874088446"><ele>199.75</ele><time>2026-05-04T17:04:58.001Z</time></trkpt><trkpt lat="41.33486309876756" lon="1.7045290005893596"><ele>200.0</ele><time>2026-05-04T17:04:59.001Z</time></trkpt><trkpt lat="41.33493086631265" lon="1.7046626810147312"><ele>200.0</ele><time>2026-05-04T17:05:00.001Z</time></trkpt><trkpt lat="41.33498785106411" lon="1.7047801459327816"><ele>200.0</ele><time>2026-05-04T17:05:01.001Z</time></trkpt><trkpt lat="41.335059078795716" lon="1.7048971700675966"><ele>200.0</ele><time>2026-05-04T17:05:02.001Z</time></trkpt><trkpt lat="41.335125242936336" lon="1.7050107870549933"><ele>200.0</ele><time>2026-05-04T17:05:03.001Z</time></trkpt><trkpt lat="41.33519390949588" lon="1.7051233987408103"><ele>200.0</ele><time>2026-05-04T17:05:04.001Z</time></trkpt><trkpt lat="41.33525985299045" lon="1.7052367081838562"><ele>200.2</ele><time>2026-05-04T17:05:05.001Z</time></trkpt><trkpt lat="41.33533484310067" lon="1.7053439166523456"><ele>200.4</ele><time>2026-05-04T17:05:06.001Z</time></trkpt><trkpt lat="41.33540814144975" lon="1.7054544165910783"><ele>200.60000000000002</ele><time>2026-05-04T17:05:07.001Z</time></trkpt><trkpt lat="41.33547891007585" lon="1.7055645149475391"><ele>200.8</ele><time>2026-05-04T17:05:08.001Z</time></trkpt><trkpt lat="41.33555673321835" lon="1.7056699169654328"><ele>201.0</ele><time>2026-05-04T17:05:09.001Z</time></trkpt><trkpt lat="41.335630718771945" lon="1.7057780076208313"><ele>201.20000000000002</ele><time>2026-05-04T17:05:10.001Z</time></trkpt><trkpt lat="41.33571279671248" lon="1.7058797673025268"><ele>201.4</ele><time>2026-05-04T17:05:11.001Z</time></trkpt><trkpt lat="41.33580004539178" lon="1.7059790459283246"><ele>201.6</ele><time>2026-05-04T17:05:12.001Z</time></trkpt><trkpt lat="41.335876815872325" lon="1.7060710531681067"><ele>201.8</ele><time>2026-05-04T17:05:13.001Z</time></trkpt><trkpt lat="41.33596870567407" lon="1.70616565920726"><ele>202.0</ele><time>2026-05-04T17:05:14.001Z</time></trkpt><trkpt lat="41.33605969785249" lon="1.7062580654263146"><ele>202.0</ele><time>2026-05-04T17:05:15.001Z</time></trkpt><trkpt lat="41.33615409871355" lon="1.7063523345385547"><ele>202.0</ele><time>2026-05-04T17:05:16.001Z</time></trkpt><trkpt lat="41.33624527140386" lon="1.7064423175557188"><ele>202.0</ele><time>2026-05-04T17:05:17.001Z</time></trkpt><trkpt lat="41.336345568984086" lon="1.706532745826742"><ele>202.0</ele><time>2026-05-04T17:05:18.001Z</time></trkpt><trkpt lat="41.33644340450392" lon="1.7066163873927922"><ele>202.0</ele><time>2026-05-04T17:05:19.001Z</time></trkpt><trkpt lat="41.33654280597951" lon="1.7066986941092321"><ele>202.0</ele><time>2026-05-04T17:05:20.001Z</time></trkpt><trkpt lat="41.33664330747359" lon="1.7067810049183616"><ele>202.0</ele><time>2026-05-04T17:05:21.001Z</time></trkpt><trkpt lat="41.336744880488965" lon="1.7068562751740284"><ele>202.0</ele><time>2026-05-04T17:05:22.001Z</time></trkpt><trkpt lat="41.33684569824767" lon="1.7069294431303415"><ele>202.0</ele><time>2026-05-04T17:05:23.001Z</time></trkpt><trkpt lat="41.33694693249562" lon="1.7070001372769148"><ele>202.0</ele><time>2026-05-04T17:05:24.001Z</time></trkpt><trkpt lat="41.337051045771716" lon="1.7070671505576167"><ele>202.0</ele><time>2026-05-04T17:05:25.001Z</time></trkpt><trkpt lat="41.3371611975945" lon="1.7071347669066697"><ele>202.0</ele><time>2026-05-04T17:05:26.001Z</time></trkpt><trkpt lat="41.33726581423431" lon="1.7071980009854062"><ele>202.5</ele><time>2026-05-04T17:05:27.001Z</time></trkpt><trkpt lat="41.33737590355417" lon="1.7072607421979873"><ele>203.0</ele><time>2026-05-04T17:05:28.001Z</time></trkpt><trkpt lat="41.33748124637183" lon="1.7073192624533107"><ele>203.5</ele><time>2026-05-04T17:05:29.001Z</time></trkpt><trkpt lat="41.337587195061275" lon="1.7073803505804634"><ele>204.0</ele><time>2026-05-04T17:05:30.001Z</time></trkpt><trkpt lat="41.337693563322894" lon="1.7074386469813767"><ele>204.0</ele><time>2026-05-04T17:05:31.001Z</time></trkpt><trkpt lat="41.337806293384766" lon="1.7074995947930884"><ele>204.0</ele><time>2026-05-04T17:05:32.001Z</time></trkpt><trkpt lat="41.33791846414452" lon="1.7075616782947254"><ele>204.0</ele><time>2026-05-04T17:05:33.001Z</time></trkpt><trkpt lat="41.3380287272327" lon="1.7076192231032465"><ele>204.0</ele><time>2026-05-04T17:05:34.001Z</time></trkpt><trkpt lat="41.3381370394063" lon="1.707683320276417"><ele>204.25</ele><time>2026-05-04T17:05:35.001Z</time></trkpt><trkpt lat="41.338247274577796" lon="1.7077460532547861"><ele>204.5</ele><time>2026-05-04T17:05:36.001Z</time></trkpt><trkpt lat="41.33835834845855" lon="1.7078066847585196"><ele>204.75</ele><time>2026-05-04T17:05:37.001Z</time></trkpt><trkpt lat="41.33846799009336" lon="1.7078683368379084"><ele>205.0</ele><time>2026-05-04T17:05:38.001Z</time></trkpt><trkpt lat="41.3385780394146" lon="1.7079288734816482"><ele>205.0</ele><time>2026-05-04T17:05:39.001Z</time></trkpt><trkpt lat="41.33868699474128" lon="1.707985122429061"><ele>205.0</ele><time>2026-05-04T17:05:40.001Z</time></trkpt><trkpt lat="41.338795563990786" lon="1.7080467390161562"><ele>205.0</ele><time>2026-05-04T17:05:41.001Z</time></trkpt><trkpt lat="41.3389035678358" lon="1.7081075890887396"><ele>205.0</ele><time>2026-05-04T17:05:42.001Z</time></trkpt><trkpt lat="41.33901266920193" lon="1.7081658749061728"><ele>205.25</ele><time>2026-05-04T17:05:43.001Z</time></trkpt><trkpt lat="41.33911914659262" lon="1.7082257887655434"><ele>205.5</ele><time>2026-05-04T17:05:44.001Z</time></trkpt><trkpt lat="41.33922514798747" lon="1.708289630766702"><ele>205.75</ele><time>2026-05-04T17:05:45.001Z</time></trkpt><trkpt lat="41.33932794962575" lon="1.708357527362051"><ele>206.0</ele><time>2026-05-04T17:05:46.001Z</time></trkpt><trkpt lat="41.33943527296331" lon="1.7084275941953224"><ele>206.0</ele><time>2026-05-04T17:05:47.001Z</time></trkpt><trkpt lat="41.33954197101259" lon="1.7084985527472274"><ele>206.0</ele><time>2026-05-04T17:05:48.001Z</time></trkpt><trkpt lat="41.3396455941034" lon="1.7085771328965338"><ele>206.0</ele><time>2026-05-04T17:05:49.001Z</time></trkpt><trkpt lat="41.33974944614553" lon="1.7086506308017952"><ele>206.0</ele><time>2026-05-04T17:05:50.001Z</time></trkpt><trkpt lat="41.33985573007886" lon="1.7087180827715998"><ele>205.5</ele><time>2026-05-04T17:05:51.001Z</time></trkpt><trkpt lat="41.33996067112592" lon="1.708797138023363"><ele>205.0</ele><time>2026-05-04T17:05:52.001Z</time></trkpt><trkpt lat="41.34005859080178" lon="1.7088725823357664"><ele>204.5</ele><time>2026-05-04T17:05:53Z</time></trkpt><trkpt lat="41.34016596574186" lon="1.7089478882977802"><ele>204.0</ele><time>2026-05-04T17:05:54Z</time></trkpt><trkpt lat="41.34026800339869" lon="1.709023645022413"><ele>204.0</ele><time>2026-05-04T17:05:55Z</time></trkpt><trkpt lat="41.34037079333805" lon="1.709103771592946"><ele>204.0</ele><time>2026-05-04T17:05:56Z</time></trkpt><trkpt lat="41.34047073235293" lon="1.7091852577911255"><ele>204.0</ele><time>2026-05-04T17:05:57Z</time></trkpt><trkpt lat="41.340571395254145" lon="1.709268378690375"><ele>204.0</ele><time>2026-05-04T17:05:58Z</time></trkpt><trkpt lat="41.3406720356646" lon="1.7093487800430864"><ele>204.75</ele><time>2026-05-04T17:05:59Z</time></trkpt><trkpt lat="41.34077516811635" lon="1.709429585588759"><ele>205.5</ele><time>2026-05-04T17:06:00Z</time></trkpt><trkpt lat="41.34087714912217" lon="1.7095101764119303"><ele>206.25</ele><time>2026-05-04T17:06:01Z</time></trkpt><trkpt lat="41.34097708673738" lon="1.7095889320467301"><ele>207.0</ele><time>2026-05-04T17:06:02Z</time></trkpt><trkpt lat="41.34108023968879" lon="1.7096691153043826"><ele>207.0</ele><time>2026-05-04T17:06:03Z</time></trkpt><trkpt lat="41.34118057691881" lon="1.709748269209651"><ele>207.0</ele><time>2026-05-04T17:06:04Z</time></trkpt><trkpt lat="41.34127993046743" lon="1.7098279493722899"><ele>207.0</ele><time>2026-05-04T17:06:05Z</time></trkpt><trkpt lat="41.34138114599311" lon="1.7099069192800314"><ele>207.0</ele><time>2026-05-04T17:06:06Z</time></trkpt><trkpt lat="41.34148177823768" lon="1.7099882424962232"><ele>207.25</ele><time>2026-05-04T17:06:07Z</time></trkpt><trkpt lat="41.34157928576338" lon="1.7100700437063492"><ele>207.5</ele><time>2026-05-04T17:06:08Z</time></trkpt><trkpt lat="41.34167720459612" lon="1.7101516516450928"><ele>207.75</ele><time>2026-05-04T17:06:09Z</time></trkpt><trkpt lat="41.34178073826756" lon="1.7102291220510801"><ele>208.0</ele><time>2026-05-04T17:06:10Z</time></trkpt><trkpt lat="41.34187770614339" lon="1.7103101727984324"><ele>208.0</ele><time>2026-05-04T17:06:11Z</time></trkpt><trkpt lat="41.34197931745229" lon="1.7103893234036087"><ele>208.0</ele><time>2026-05-04T17:06:12Z</time></trkpt><trkpt lat="41.3420771631628" lon="1.7104686768781137"><ele>208.0</ele><time>2026-05-04T17:06:13Z</time></trkpt><trkpt lat="41.34217560151517" lon="1.710550153360416"><ele>208.0</ele><time>2026-05-04T17:06:14Z</time></trkpt><trkpt lat="41.342275886765904" lon="1.71062998335213"><ele>208.75</ele><time>2026-05-04T17:06:15Z</time></trkpt><trkpt lat="41.34237351889326" lon="1.710708010569366"><ele>209.5</ele><time>2026-05-04T17:06:16Z</time></trkpt><trkpt lat="41.34247538490902" lon="1.710790564400972"><ele>210.25</ele><time>2026-05-04T17:06:17Z</time></trkpt><trkpt lat="41.34257499917518" lon="1.7108703248241723"><ele>211.0</ele><time>2026-05-04T17:06:18Z</time></trkpt><trkpt lat="41.342676161563254" lon="1.7109495733908386"><ele>211.0</ele><time>2026-05-04T17:06:19Z</time></trkpt><trkpt lat="41.34277862709167" lon="1.7110289584791527"><ele>211.0</ele><time>2026-05-04T17:06:20Z</time></trkpt><trkpt lat="41.342880106779376" lon="1.7111090758584249"><ele>211.0</ele><time>2026-05-04T17:06:21Z</time></trkpt><trkpt lat="41.34297797982957" lon="1.7111901501183149"><ele>211.0</ele><time>2026-05-04T17:06:22Z</time></trkpt><trkpt lat="41.343080906590004" lon="1.7112680294871896"><ele>211.5</ele><time>2026-05-04T17:06:23Z</time></trkpt><trkpt lat="41.343174963600255" lon="1.7113554518395748"><ele>212.0</ele><time>2026-05-04T17:06:24Z</time></trkpt><trkpt lat="41.34326032503973" lon="1.7114335676624437"><ele>212.5</ele><time>2026-05-04T17:06:25Z</time></trkpt><trkpt lat="41.343379817930945" lon="1.7115181718573074"><ele>213.0</ele><time>2026-05-04T17:06:26Z</time></trkpt><trkpt lat="41.34347802183041" lon="1.7115993312600557"><ele>213.0</ele><time>2026-05-04T17:06:27Z</time></trkpt><trkpt lat="41.34358230847955" lon="1.7116765259274451"><ele>213.0</ele><time>2026-05-04T17:06:28Z</time></trkpt><trkpt lat="41.3436870248901" lon="1.7117530710551332"><ele>213.0</ele><time>2026-05-04T17:06:29Z</time></trkpt><trkpt lat="41.34378679030251" lon="1.711833311214477"><ele>213.0</ele><time>2026-05-04T17:06:30Z</time></trkpt><trkpt lat="41.34388724944754" lon="1.7119144375371989"><ele>211.75</ele><time>2026-05-04T17:06:31Z</time></trkpt><trkpt lat="41.34398814723235" lon="1.7119941082753916"><ele>210.5</ele><time>2026-05-04T17:06:32Z</time></trkpt><trkpt lat="41.34408993396993" lon="1.712073866468365"><ele>209.25</ele><time>2026-05-04T17:06:33Z</time></trkpt><trkpt lat="41.34418910402773" lon="1.7121532400905395"><ele>208.0</ele><time>2026-05-04T17:06:34Z</time></trkpt><trkpt lat="41.34428743427325" lon="1.7122320458273899"><ele>208.0</ele><time>2026-05-04T17:06:35Z</time></trkpt><trkpt lat="41.34438668531343" lon="1.7123114096107188"><ele>208.0</ele><time>2026-05-04T17:06:36Z</time></trkpt><trkpt lat="41.34448526208864" lon="1.7123905461860107"><ele>208.0</ele><time>2026-05-04T17:06:37Z</time></trkpt><trkpt lat="41.34458548476543" lon="1.7124705337166408"><ele>208.0</ele><time>2026-05-04T17:06:38Z</time></trkpt><trkpt lat="41.34468170213509" lon="1.7125558515826071"><ele>208.5</ele><time>2026-05-04T17:06:39Z</time></trkpt><trkpt lat="41.34478544176845" lon="1.7126241575773142"><ele>209.0</ele><time>2026-05-04T17:06:40Z</time></trkpt><trkpt lat="41.344881413471384" lon="1.712703732070212"><ele>209.5</ele><time>2026-05-04T17:06:41Z</time></trkpt><trkpt lat="41.34498040660084" lon="1.712779716336546"><ele>210.0</ele><time>2026-05-04T17:06:42Z</time></trkpt><trkpt lat="41.34508370273939" lon="1.7128532584327658"><ele>210.0</ele><time>2026-05-04T17:06:43Z</time></trkpt><trkpt lat="41.345182580585934" lon="1.7129300400008267"><ele>210.0</ele><time>2026-05-04T17:06:44Z</time></trkpt><trkpt lat="41.34528235998704" lon="1.7130025231382542"><ele>210.0</ele><time>2026-05-04T17:06:45Z</time></trkpt><trkpt lat="41.34538439206021" lon="1.713078637869853"><ele>210.0</ele><time>2026-05-04T17:06:46Z</time></trkpt><trkpt lat="41.34548245021759" lon="1.7131526686193623"><ele>211.0</ele><time>2026-05-04T17:06:47Z</time></trkpt><trkpt lat="41.34558551682301" lon="1.7132263241534131"><ele>212.0</ele><time>2026-05-04T17:06:48Z</time></trkpt><trkpt lat="41.34568411133253" lon="1.7133016109279775"><ele>213.0</ele><time>2026-05-04T17:06:49Z</time></trkpt><trkpt lat="41.345786507336605" lon="1.713376005093468"><ele>214.0</ele><time>2026-05-04T17:06:50Z</time></trkpt><trkpt lat="41.345887365642895" lon="1.7134485145155862"><ele>214.0</ele><time>2026-05-04T17:06:51Z</time></trkpt><trkpt lat="41.34598353737618" lon="1.7135250461038005"><ele>214.0</ele><time>2026-05-04T17:06:52Z</time></trkpt><trkpt lat="41.34608530097314" lon="1.7135998954989706"><ele>214.0</ele><time>2026-05-04T17:06:53Z</time></trkpt><trkpt lat="41.346184758362554" lon="1.7136749039997163"><ele>214.0</ele><time>2026-05-04T17:06:54Z</time></trkpt><trkpt lat="41.34628459661202" lon="1.7137488735048285"><ele>214.5</ele><time>2026-05-04T17:06:55Z</time></trkpt><trkpt lat="41.346385008420235" lon="1.7138212381542621"><ele>215.0</ele><time>2026-05-04T17:06:56Z</time></trkpt><trkpt lat="41.346486115830736" lon="1.7138955148915116"><ele>215.5</ele><time>2026-05-04T17:06:57.001Z</time></trkpt><trkpt lat="41.34658502616395" lon="1.7139698707761668"><ele>216.0</ele><time>2026-05-04T17:06:58.001Z</time></trkpt><trkpt lat="41.34668439947697" lon="1.7140450218691465"><ele>216.0</ele><time>2026-05-04T17:06:59.001Z</time></trkpt><trkpt lat="41.34678134088659" lon="1.7141181756150325"><ele>216.0</ele><time>2026-05-04T17:07:00.001Z</time></trkpt><trkpt lat="41.34688037936804" lon="1.7141926654914004"><ele>216.0</ele><time>2026-05-04T17:07:01.001Z</time></trkpt><trkpt lat="41.346979671980485" lon="1.7142676595761501"><ele>216.0</ele><time>2026-05-04T17:07:02.001Z</time></trkpt><trkpt lat="41.34708035476528" lon="1.7143421748437564"><ele>216.0</ele><time>2026-05-04T17:07:03.001Z</time></trkpt><trkpt lat="41.34717967453136" lon="1.714414588862812"><ele>216.0</ele><time>2026-05-04T17:07:04.001Z</time></trkpt><trkpt lat="41.34727865534125" lon="1.7144897331501283"><ele>216.0</ele><time>2026-05-04T17:07:05.001Z</time></trkpt><trkpt lat="41.347377102058175" lon="1.7145625904760722"><ele>216.0</ele><time>2026-05-04T17:07:06.001Z</time></trkpt><trkpt lat="41.34747681266042" lon="1.7146365209863172"><ele>216.5</ele><time>2026-05-04T17:07:07.001Z</time></trkpt><trkpt lat="41.34757769271982" lon="1.7147099920118871"><ele>217.0</ele><time>2026-05-04T17:07:08.001Z</time></trkpt><trkpt lat="41.34767687625776" lon="1.7147857668082207"><ele>217.5</ele><time>2026-05-04T17:07:09.001Z</time></trkpt><trkpt lat="41.34777784593874" lon="1.7148599691837811"><ele>218.0</ele><time>2026-05-04T17:07:10.001Z</time></trkpt><trkpt lat="41.3478814492024" lon="1.7149340165598304"><ele>218.0</ele><time>2026-05-04T17:07:11.001Z</time></trkpt><trkpt lat="41.34798292247081" lon="1.7150100115197286"><ele>218.0</ele><time>2026-05-04T17:07:12.001Z</time></trkpt><trkpt lat="41.34808177448419" lon="1.7150921354721418"><ele>218.0</ele><time>2026-05-04T17:07:13.001Z</time></trkpt><trkpt lat="41.348182543853525" lon="1.7151758218057866"><ele>218.0</ele><time>2026-05-04T17:07:14.001Z</time></trkpt><trkpt lat="41.34828149191662" lon="1.7152635870762378"><ele>218.5</ele><time>2026-05-04T17:07:15.001Z</time></trkpt><trkpt lat="41.348380455197514" lon="1.7153536374822993"><ele>219.0</ele><time>2026-05-04T17:07:16.001Z</time></trkpt><trkpt lat="41.34847843920972" lon="1.7154444508582065"><ele>219.5</ele><time>2026-05-04T17:07:17.001Z</time></trkpt><trkpt lat="41.348570688791675" lon="1.7155431936085561"><ele>220.0</ele><time>2026-05-04T17:07:18.001Z</time></trkpt><trkpt lat="41.34865882836781" lon="1.7156497437857543"><ele>220.0</ele><time>2026-05-04T17:07:19.001Z</time></trkpt><trkpt lat="41.34874431578191" lon="1.715760150329859"><ele>220.0</ele><time>2026-05-04T17:07:20.001Z</time></trkpt><trkpt lat="41.34882216177279" lon="1.7158765376989882"><ele>220.0</ele><time>2026-05-04T17:07:21.001Z</time></trkpt><trkpt lat="41.34889453686545" lon="1.7159973603768113"><ele>220.0</ele><time>2026-05-04T17:07:22.001Z</time></trkpt><trkpt lat="41.34896870209385" lon="1.716117028334183"><ele>221.0</ele><time>2026-05-04T17:07:23.001Z</time></trkpt><trkpt lat="41.34903714171682" lon="1.7162395872623173"><ele>222.0</ele><time>2026-05-04T17:07:24.001Z</time></trkpt><trkpt lat="41.34910478079445" lon="1.7163661347289818"><ele>223.0</ele><time>2026-05-04T17:07:25.001Z</time></trkpt><trkpt lat="41.349165141982596" lon="1.7165003299944002"><ele>224.0</ele><time>2026-05-04T17:07:26.001Z</time></trkpt><trkpt lat="41.34921945390948" lon="1.7166383012320936"><ele>224.0</ele><time>2026-05-04T17:07:27.001Z</time></trkpt><trkpt lat="41.34926698693701" lon="1.7167808983559238"><ele>224.0</ele><time>2026-05-04T17:07:28.001Z</time></trkpt><trkpt lat="41.3493117595307" lon="1.7169256306922656"><ele>224.0</ele><time>2026-05-04T17:07:29.001Z</time></trkpt><trkpt lat="41.34935596471863" lon="1.7170730383472832"><ele>224.0</ele><time>2026-05-04T17:07:30.001Z</time></trkpt><trkpt lat="41.34939486446865" lon="1.717223509724233"><ele>224.5</ele><time>2026-05-04T17:07:31.001Z</time></trkpt><trkpt lat="41.34943264645436" lon="1.717374899473318"><ele>225.0</ele><time>2026-05-04T17:07:32.001Z</time></trkpt><trkpt lat="41.34947141960124" lon="1.7175249888137603"><ele>225.5</ele><time>2026-05-04T17:07:33.001Z</time></trkpt><trkpt lat="41.349504620488545" lon="1.7176732249539572"><ele>226.0</ele><time>2026-05-04T17:07:34.001Z</time></trkpt><trkpt lat="41.349540252091735" lon="1.7178242728090665"><ele>226.75</ele><time>2026-05-04T17:07:35.001Z</time></trkpt><trkpt lat="41.34957285341864" lon="1.7179817582142687"><ele>227.5</ele><time>2026-05-04T17:07:36.001Z</time></trkpt><trkpt lat="41.34960674984944" lon="1.7181417975537325"><ele>228.25</ele><time>2026-05-04T17:07:37.001Z</time></trkpt><trkpt lat="41.349631477264026" lon="1.718293383739074"><ele>229.0</ele><time>2026-05-04T17:07:38.001Z</time></trkpt><trkpt lat="41.349656624888574" lon="1.7184522709274945"><ele>228.25</ele><time>2026-05-04T17:07:39.001Z</time></trkpt><trkpt lat="41.349679373188216" lon="1.7185931481914378"><ele>227.5</ele><time>2026-05-04T17:07:40.001Z</time></trkpt><trkpt lat="41.349717010111156" lon="1.718768891437723"><ele>226.75</ele><time>2026-05-04T17:07:41.001Z</time></trkpt><trkpt lat="41.3497618366484" lon="1.7189267131958499"><ele>226.0</ele><time>2026-05-04T17:07:42.001Z</time></trkpt><trkpt lat="41.34979024011953" lon="1.7190781901071495"><ele>226.0</ele><time>2026-05-04T17:07:43.001Z</time></trkpt><trkpt lat="41.349823539610036" lon="1.7192353047880984"><ele>226.0</ele><time>2026-05-04T17:07:44.001Z</time></trkpt><trkpt lat="41.34985027851559" lon="1.7193925048625438"><ele>226.0</ele><time>2026-05-04T17:07:45.001Z</time></trkpt><trkpt lat="41.34988058936576" lon="1.719546461751775"><ele>226.0</ele><time>2026-05-04T17:07:46.001Z</time></trkpt><trkpt lat="41.34990962588704" lon="1.719700011344265"><ele>225.8</ele><time>2026-05-04T17:07:47.001Z</time></trkpt><trkpt lat="41.34994569511999" lon="1.7198469106863161"><ele>225.60000000000002</ele><time>2026-05-04T17:07:48.001Z</time></trkpt><trkpt lat="41.349978018997604" lon="1.7199855802586148"><ele>225.4</ele><time>2026-05-04T17:07:49.001Z</time></trkpt><trkpt lat="41.34998988098752" lon="1.7201142847490096"><ele>225.2</ele><time>2026-05-04T17:07:50.001Z</time></trkpt><trkpt lat="41.349990354027014" lon="1.720239098870019"><ele>225.0</ele><time>2026-05-04T17:07:51.001Z</time></trkpt><trkpt lat="41.35000014249112" lon="1.7203483040170802"><ele>225.0</ele><time>2026-05-04T17:07:52.001Z</time></trkpt><trkpt lat="41.35001534508904" lon="1.7204583970670793"><ele>225.0</ele><time>2026-05-04T17:07:53.001Z</time></trkpt><trkpt lat="41.35002564310496" lon="1.7205622210179932"><ele>225.0</ele><time>2026-05-04T17:07:54.001Z</time></trkpt><trkpt lat="41.35004012656726" lon="1.7206573766843487"><ele>225.0</ele><time>2026-05-04T17:07:55.001Z</time></trkpt><trkpt lat="41.350048421124306" lon="1.7207476810708815"><ele>225.0</ele><time>2026-05-04T17:07:56.001Z</time></trkpt><trkpt lat="41.350060661921795" lon="1.7208965782790007"><ele>225.0</ele><time>2026-05-04T17:07:58.001Z</time></trkpt><trkpt lat="41.35008194454063" lon="1.721020507603257"><ele>225.0</ele><time>2026-05-04T17:07:59.999Z</time></trkpt><trkpt lat="41.35009417223846" lon="1.7211459164802558"><ele>225.0</ele><time>2026-05-04T17:08:01.999Z</time></trkpt><trkpt lat="41.35010421290057" lon="1.721243501450041"><ele>225.0</ele><time>2026-05-04T17:08:03.999Z</time></trkpt><trkpt lat="41.35022112536991" lon="1.721321862406944"><ele>225.0</ele><time>2026-05-04T17:08:55Z</time></trkpt><trkpt lat="41.35013605643824" lon="1.721205064221701"><ele>225.0</ele><time>2026-05-04T17:09:08.001Z</time></trkpt><trkpt lat="41.350132853376216" lon="1.7213015582272169"><ele>225.0</ele><time>2026-05-04T17:10:47.001Z</time></trkpt><trkpt lat="41.35017269029965" lon="1.7213771097909507"><ele>225.0</ele><time>2026-05-04T17:10:50.001Z</time></trkpt><trkpt lat="41.35025010381774" lon="1.7214165460384212"><ele>225.0</ele><time>2026-05-04T17:10:52.001Z</time></trkpt><trkpt lat="41.35031883120806" lon="1.7214434431471821"><ele>225.0</ele><time>2026-05-04T17:10:54.001Z</time></trkpt><trkpt lat="41.35033989288128" lon="1.7215632440828967"><ele>225.0</ele><time>2026-05-04T17:10:57.001Z</time></trkpt><trkpt lat="41.350345964511035" lon="1.721678668982347"><ele>225.0</ele><time>2026-05-04T17:10:59.001Z</time></trkpt><trkpt lat="41.350278869560285" lon="1.7218155480357409"><ele>225.00000000000003</ele><time>2026-05-04T17:11:01.001Z</time></trkpt><trkpt lat="41.35022585683095" lon="1.7218746951668071"><ele>225.0</ele><time>2026-05-04T17:11:02.001Z</time></trkpt><trkpt lat="41.350178928234" lon="1.7219382295450338"><ele>225.00000000000003</ele><time>2026-05-04T17:11:03.001Z</time></trkpt><trkpt lat="41.350140116089165" lon="1.7220219335989864"><ele>225.00000000000003</ele><time>2026-05-04T17:11:04.001Z</time></trkpt><trkpt lat="41.35011398629487" lon="1.7221154959792617"><ele>225.0</ele><time>2026-05-04T17:11:05.001Z</time></trkpt><trkpt lat="41.350093159932946" lon="1.722212933960705"><ele>225.00000000000003</ele><time>2026-05-04T17:11:06.001Z</time></trkpt><trkpt lat="41.3500867096013" lon="1.7223189931759946"><ele>225.00000000000003</ele><time>2026-05-04T17:11:07.001Z</time></trkpt><trkpt lat="41.35010615162201" lon="1.7224216736545916"><ele>224.83333333333334</ele><time>2026-05-04T17:11:08.001Z</time></trkpt><trkpt lat="41.35013050191655" lon="1.7225215308050892"><ele>224.66666666666669</ele><time>2026-05-04T17:11:09.001Z</time></trkpt><trkpt lat="41.35016761001887" lon="1.7226212312445566"><ele>224.5</ele><time>2026-05-04T17:11:10.001Z</time></trkpt><trkpt lat="41.350215520630236" lon="1.7227154793168935"><ele>224.33333333333334</ele><time>2026-05-04T17:11:11.001Z</time></trkpt><trkpt lat="41.350276730973455" lon="1.7227975427196862"><ele>224.16666666666669</ele><time>2026-05-04T17:11:12.001Z</time></trkpt><trkpt lat="41.350350738608874" lon="1.7228630416924247"><ele>224.0</ele><time>2026-05-04T17:11:13.001Z</time></trkpt><trkpt lat="41.35043228254204" lon="1.7229129504302318"><ele>223.6</ele><time>2026-05-04T17:11:14.001Z</time></trkpt><trkpt lat="41.35051762866636" lon="1.722952058697286"><ele>223.2</ele><time>2026-05-04T17:11:15.001Z</time></trkpt><trkpt lat="41.35059793524085" lon="1.7229912469981432"><ele>222.79999999999998</ele><time>2026-05-04T17:11:16.001Z</time></trkpt><trkpt lat="41.35067056311671" lon="1.723057734694079"><ele>222.39999999999998</ele><time>2026-05-04T17:11:17.001Z</time></trkpt><trkpt lat="41.35073028938314" lon="1.7231517064787185"><ele>222.0</ele><time>2026-05-04T17:11:18.001Z</time></trkpt><trkpt lat="41.350773887239434" lon="1.7232621429311032"><ele>222.0</ele><time>2026-05-04T17:11:19.001Z</time></trkpt><trkpt lat="41.35079907536295" lon="1.723389562325445"><ele>222.0</ele><time>2026-05-04T17:11:20.001Z</time></trkpt><trkpt lat="41.35082257859243" lon="1.7235218799646006"><ele>222.0</ele><time>2026-05-04T17:11:21.001Z</time></trkpt><trkpt lat="41.35084815374022" lon="1.7236562774024653"><ele>222.0</ele><time>2026-05-04T17:11:22.001Z</time></trkpt><trkpt lat="41.350882870430574" lon="1.7237810066127464"><ele>222.0</ele><time>2026-05-04T17:11:23.001Z</time></trkpt><trkpt lat="41.35090945751252" lon="1.7239173583465233"><ele>221.6</ele><time>2026-05-04T17:11:24.001Z</time></trkpt><trkpt lat="41.35093739845938" lon="1.7240515241021284"><ele>221.2</ele><time>2026-05-04T17:11:25.001Z</time></trkpt><trkpt lat="41.3509673467962" lon="1.724184684646804"><ele>220.8</ele><time>2026-05-04T17:11:26.001Z</time></trkpt><trkpt lat="41.3509993333788" lon="1.7243179160422686"><ele>220.4</ele><time>2026-05-04T17:11:27.001Z</time></trkpt><trkpt lat="41.35103027570744" lon="1.7244508324882561"><ele>220.0</ele><time>2026-05-04T17:11:28.001Z</time></trkpt><trkpt lat="41.35105994970393" lon="1.7245856522002962"><ele>219.6</ele><time>2026-05-04T17:11:29.001Z</time></trkpt><trkpt lat="41.3510917921338" lon="1.7247186669352512"><ele>219.2</ele><time>2026-05-04T17:11:30.001Z</time></trkpt><trkpt lat="41.35112102431933" lon="1.724851655230075"><ele>218.8</ele><time>2026-05-04T17:11:31.001Z</time></trkpt><trkpt lat="41.35115194490429" lon="1.7249896878024997"><ele>218.4</ele><time>2026-05-04T17:11:32.001Z</time></trkpt><trkpt lat="41.35118477860474" lon="1.7251244245855393"><ele>218.0</ele><time>2026-05-04T17:11:33.001Z</time></trkpt><trkpt lat="41.35121437608583" lon="1.7252587671815707"><ele>217.8</ele><time>2026-05-04T17:11:34.001Z</time></trkpt><trkpt lat="41.35124569226228" lon="1.7253942657670682"><ele>217.60000000000002</ele><time>2026-05-04T17:11:35.001Z</time></trkpt><trkpt lat="41.351274228469904" lon="1.7255292465227423"><ele>217.39999999999998</ele><time>2026-05-04T17:11:36.001Z</time></trkpt><trkpt lat="41.35130849640597" lon="1.7256618073540535"><ele>217.2</ele><time>2026-05-04T17:11:37.001Z</time></trkpt><trkpt lat="41.35133719892627" lon="1.7257945119386855"><ele>217.0</ele><time>2026-05-04T17:11:38.001Z</time></trkpt><trkpt lat="41.3513684956534" lon="1.7259263625699464"><ele>217.6</ele><time>2026-05-04T17:11:39.001Z</time></trkpt><trkpt lat="41.35139977942773" lon="1.726060904760374"><ele>218.2</ele><time>2026-05-04T17:11:40.001Z</time></trkpt><trkpt lat="41.35142778370433" lon="1.7261941307546353"><ele>218.8</ele><time>2026-05-04T17:11:41.001Z</time></trkpt><trkpt lat="41.3514588507319" lon="1.7263255532035628"><ele>219.4</ele><time>2026-05-04T17:11:42.001Z</time></trkpt><trkpt lat="41.35148928961698" lon="1.7264598286240707"><ele>220.0</ele><time>2026-05-04T17:11:43.001Z</time></trkpt><trkpt lat="41.35152387302275" lon="1.7265894057434894"><ele>220.0</ele><time>2026-05-04T17:11:44.001Z</time></trkpt><trkpt lat="41.351553233911744" lon="1.726720964326709"><ele>220.0</ele><time>2026-05-04T17:11:45.001Z</time></trkpt><trkpt lat="41.351580783508524" lon="1.726854281969206"><ele>220.0</ele><time>2026-05-04T17:11:46.001Z</time></trkpt><trkpt lat="41.35161297721996" lon="1.7269892683622767"><ele>220.0</ele><time>2026-05-04T17:11:47.001Z</time></trkpt><trkpt lat="41.351643219578456" lon="1.7271217040194344"><ele>220.0</ele><time>2026-05-04T17:11:48.001Z</time></trkpt><trkpt lat="41.35167469176452" lon="1.727254244097306"><ele>220.0</ele><time>2026-05-04T17:11:49.001Z</time></trkpt><trkpt lat="41.35170608478739" lon="1.7273890740731639"><ele>220.0</ele><time>2026-05-04T17:11:50.001Z</time></trkpt><trkpt lat="41.35173797738991" lon="1.7275254147031651"><ele>220.0</ele><time>2026-05-04T17:11:51.001Z</time></trkpt><trkpt lat="41.3517678905267" lon="1.727661213223413"><ele>220.0</ele><time>2026-05-04T17:11:52.001Z</time></trkpt><trkpt lat="41.35179774371102" lon="1.727797841627152"><ele>220.0</ele><time>2026-05-04T17:11:53.001Z</time></trkpt><trkpt lat="41.35182936899202" lon="1.727929884056515"><ele>220.0</ele><time>2026-05-04T17:11:54.001Z</time></trkpt><trkpt lat="41.35186079506732" lon="1.728065778327439"><ele>220.0</ele><time>2026-05-04T17:11:55.001Z</time></trkpt><trkpt lat="41.351888420395184" lon="1.728202921486227"><ele>220.0</ele><time>2026-05-04T17:11:56.001Z</time></trkpt><trkpt lat="41.3519211420295" lon="1.7283362636845085"><ele>220.0</ele><time>2026-05-04T17:11:57.001Z</time></trkpt><trkpt lat="41.351951967309674" lon="1.7284718201584957"><ele>220.0</ele><time>2026-05-04T17:11:58.001Z</time></trkpt><trkpt lat="41.35198207356052" lon="1.7286068202298004"><ele>220.0</ele><time>2026-05-04T17:11:59.002Z</time></trkpt><trkpt lat="41.35201304012017" lon="1.7287429775649892"><ele>220.0</ele><time>2026-05-04T17:12:00.002Z</time></trkpt><trkpt lat="41.35204427207015" lon="1.7288766686123487"><ele>220.0</ele><time>2026-05-04T17:12:01.002Z</time></trkpt><trkpt lat="41.35207659719193" lon="1.7290102727087924"><ele>220.0</ele><time>2026-05-04T17:12:02.002Z</time></trkpt><trkpt lat="41.352107504056086" lon="1.7291473320870032"><ele>220.0</ele><time>2026-05-04T17:12:03.002Z</time></trkpt><trkpt lat="41.35213815727216" lon="1.7292810323627528"><ele>220.4</ele><time>2026-05-04T17:12:04.002Z</time></trkpt><trkpt lat="41.35216923834292" lon="1.7294164752820662"><ele>220.8</ele><time>2026-05-04T17:12:05.002Z</time></trkpt><trkpt lat="41.35220027020665" lon="1.7295520371617266"><ele>221.2</ele><time>2026-05-04T17:12:06.002Z</time></trkpt><trkpt lat="41.35222863708612" lon="1.7296872875535956"><ele>221.6</ele><time>2026-05-04T17:12:07.002Z</time></trkpt><trkpt lat="41.35225988996669" lon="1.7298261120845242"><ele>222.0</ele><time>2026-05-04T17:12:08.002Z</time></trkpt><trkpt lat="41.35229284701723" lon="1.7299626186169876"><ele>222.39999999999998</ele><time>2026-05-04T17:12:09.002Z</time></trkpt><trkpt lat="41.35232546785447" lon="1.730100198485804"><ele>222.79999999999998</ele><time>2026-05-04T17:12:10.002Z</time></trkpt><trkpt lat="41.352355182953" lon="1.7302387033936388"><ele>223.2</ele><time>2026-05-04T17:12:11Z</time></trkpt><trkpt lat="41.35238642270986" lon="1.7303731731582814"><ele>223.6</ele><time>2026-05-04T17:12:12Z</time></trkpt><trkpt lat="41.35241744794953" lon="1.730511552023792"><ele>224.0</ele><time>2026-05-04T17:12:13Z</time></trkpt><trkpt lat="41.352447432599355" lon="1.7306461616577626"><ele>224.6</ele><time>2026-05-04T17:12:14Z</time></trkpt><trkpt lat="41.35247834520554" lon="1.7307793447456181"><ele>225.2</ele><time>2026-05-04T17:12:15Z</time></trkpt><trkpt lat="41.35250944055367" lon="1.7309142626703882"><ele>225.79999999999998</ele><time>2026-05-04T17:12:16Z</time></trkpt><trkpt lat="41.352540946271716" lon="1.731045725342006"><ele>226.39999999999998</ele><time>2026-05-04T17:12:17Z</time></trkpt><trkpt lat="41.352569879434405" lon="1.7311782414307604"><ele>227.0</ele><time>2026-05-04T17:12:18Z</time></trkpt><trkpt lat="41.352601263976986" lon="1.7313112592511466"><ele>227.2</ele><time>2026-05-04T17:12:19Z</time></trkpt><trkpt lat="41.35263234735617" lon="1.7314427278037179"><ele>227.39999999999998</ele><time>2026-05-04T17:12:20Z</time></trkpt><trkpt lat="41.35266313319901" lon="1.7315731717213854"><ele>227.60000000000002</ele><time>2026-05-04T17:12:21Z</time></trkpt><trkpt lat="41.35269304816786" lon="1.7317047187453307"><ele>227.8</ele><time>2026-05-04T17:12:22Z</time></trkpt><trkpt lat="41.35272417665487" lon="1.731838450482541"><ele>228.0</ele><time>2026-05-04T17:12:23Z</time></trkpt><trkpt lat="41.3527518309321" lon="1.7319702267181512"><ele>228.2</ele><time>2026-05-04T17:12:24Z</time></trkpt><trkpt lat="41.35277699149099" lon="1.732110518923128"><ele>228.4</ele><time>2026-05-04T17:12:25Z</time></trkpt><trkpt lat="41.35279779418989" lon="1.7322517355633886"><ele>228.59999999999997</ele><time>2026-05-04T17:12:26Z</time></trkpt><trkpt lat="41.35281286996732" lon="1.7323937048377018"><ele>228.79999999999998</ele><time>2026-05-04T17:12:27Z</time></trkpt><trkpt lat="41.352822129548294" lon="1.7325364842456736"><ele>229.0</ele><time>2026-05-04T17:12:28Z</time></trkpt><trkpt lat="41.35282053567655" lon="1.7326839131358986"><ele>228.79999999999998</ele><time>2026-05-04T17:12:29Z</time></trkpt><trkpt lat="41.3528166306865" lon="1.7328197137606858"><ele>228.59999999999997</ele><time>2026-05-04T17:12:30Z</time></trkpt><trkpt lat="41.352806583898676" lon="1.7329589041862345"><ele>228.4</ele><time>2026-05-04T17:12:31Z</time></trkpt><trkpt lat="41.35279287678175" lon="1.7330943168308934"><ele>228.2</ele><time>2026-05-04T17:12:32Z</time></trkpt><trkpt lat="41.352782110127215" lon="1.7332296146890989"><ele>228.0</ele><time>2026-05-04T17:12:33Z</time></trkpt><trkpt lat="41.35277197078227" lon="1.7333571322176875"><ele>228.0</ele><time>2026-05-04T17:12:34Z</time></trkpt><trkpt lat="41.35276611265329" lon="1.7334838609862062"><ele>228.0</ele><time>2026-05-04T17:12:35Z</time></trkpt><trkpt lat="41.35276029542923" lon="1.7336134229421578"><ele>228.0</ele><time>2026-05-04T17:12:36Z</time></trkpt><trkpt lat="41.352749207498164" lon="1.7337432544934148"><ele>228.0</ele><time>2026-05-04T17:12:37Z</time></trkpt><trkpt lat="41.352734603875966" lon="1.7338739322674452"><ele>228.0</ele><time>2026-05-04T17:12:38Z</time></trkpt><trkpt lat="41.352737059224886" lon="1.734004007856165"><ele>228.4</ele><time>2026-05-04T17:12:39Z</time></trkpt><trkpt lat="41.3527660957547" lon="1.7341262078953412"><ele>228.8</ele><time>2026-05-04T17:12:40Z</time></trkpt><trkpt lat="41.352810233091745" lon="1.7342432957386809"><ele>229.2</ele><time>2026-05-04T17:12:41Z</time></trkpt><trkpt lat="41.35287067633837" lon="1.7343586904730985"><ele>229.6</ele><time>2026-05-04T17:12:42Z</time></trkpt><trkpt lat="41.35293565162805" lon="1.7344701123384474"><ele>230.0</ele><time>2026-05-04T17:12:43Z</time></trkpt><trkpt lat="41.35299520979421" lon="1.7345822503465136"><ele>230.4</ele><time>2026-05-04T17:12:44Z</time></trkpt><trkpt lat="41.353045263496384" lon="1.734714047649866"><ele>230.8</ele><time>2026-05-04T17:12:45Z</time></trkpt><trkpt lat="41.353090729613186" lon="1.734839419011225"><ele>231.2</ele><time>2026-05-04T17:12:46Z</time></trkpt><trkpt lat="41.35314796218584" lon="1.7349599596118415"><ele>231.6</ele><time>2026-05-04T17:12:47Z</time></trkpt><trkpt lat="41.353218629714966" lon="1.735069011571854"><ele>232.0</ele><time>2026-05-04T17:12:48Z</time></trkpt><trkpt lat="41.35329404553222" lon="1.7351732848059342"><ele>232.6</ele><time>2026-05-04T17:12:49Z</time></trkpt><trkpt lat="41.35336800891299" lon="1.7352794219182166"><ele>233.2</ele><time>2026-05-04T17:12:50Z</time></trkpt><trkpt lat="41.353434951695725" lon="1.7353918017052201"><ele>233.8</ele><time>2026-05-04T17:12:51Z</time></trkpt><trkpt lat="41.35349530345637" lon="1.7355088204297007"><ele>234.4</ele><time>2026-05-04T17:12:52Z</time></trkpt><trkpt lat="41.35354952364072" lon="1.7356333782523645"><ele>235.0</ele><time>2026-05-04T17:12:53.001Z</time></trkpt><trkpt lat="41.353597523140074" lon="1.7357603047550991"><ele>235.0</ele><time>2026-05-04T17:12:54.001Z</time></trkpt><trkpt lat="41.35363794170856" lon="1.7358893410953418"><ele>235.0</ele><time>2026-05-04T17:12:55.001Z</time></trkpt><trkpt lat="41.353673652185655" lon="1.736018107042149"><ele>235.0</ele><time>2026-05-04T17:12:56.001Z</time></trkpt><trkpt lat="41.35370798593228" lon="1.7361482832437762"><ele>235.0</ele><time>2026-05-04T17:12:57.001Z</time></trkpt><trkpt lat="41.35373925329473" lon="1.7362778255666738"><ele>235.0</ele><time>2026-05-04T17:12:58.001Z</time></trkpt><trkpt lat="41.3537671251616" lon="1.7364071027635686"><ele>235.6</ele><time>2026-05-04T17:12:59.001Z</time></trkpt><trkpt lat="41.353797734330875" lon="1.7365351345996356"><ele>236.2</ele><time>2026-05-04T17:13:00.001Z</time></trkpt><trkpt lat="41.353827523002046" lon="1.7366658603446399"><ele>236.8</ele><time>2026-05-04T17:13:01.001Z</time></trkpt><trkpt lat="41.35385564307268" lon="1.736794855495225"><ele>237.4</ele><time>2026-05-04T17:13:02.001Z</time></trkpt><trkpt lat="41.35388773419181" lon="1.7369270054438988"><ele>238.0</ele><time>2026-05-04T17:13:03.001Z</time></trkpt><trkpt lat="41.35392028952259" lon="1.7370586363776994"><ele>238.4</ele><time>2026-05-04T17:13:04.001Z</time></trkpt><trkpt lat="41.35395025088382" lon="1.7371897512937056"><ele>238.8</ele><time>2026-05-04T17:13:05.001Z</time></trkpt><trkpt lat="41.35398069181762" lon="1.7373249151253451"><ele>239.2</ele><time>2026-05-04T17:13:06.001Z</time></trkpt><trkpt lat="41.35401253362226" lon="1.7374603837387839"><ele>239.6</ele><time>2026-05-04T17:13:07.001Z</time></trkpt><trkpt lat="41.35404502253722" lon="1.7375961503506394"><ele>240.0</ele><time>2026-05-04T17:13:08.001Z</time></trkpt><trkpt lat="41.3540751081029" lon="1.7377358624723673"><ele>240.4</ele><time>2026-05-04T17:13:09.001Z</time></trkpt><trkpt lat="41.35410590355556" lon="1.7378757169637873"><ele>240.8</ele><time>2026-05-04T17:13:10.001Z</time></trkpt><trkpt lat="41.35413718886721" lon="1.7380158047715453"><ele>241.2</ele><time>2026-05-04T17:13:11.001Z</time></trkpt><trkpt lat="41.354171670783174" lon="1.7381592752039816"><ele>241.6</ele><time>2026-05-04T17:13:12.001Z</time></trkpt><trkpt lat="41.35420261540349" lon="1.7382947512630165"><ele>242.0</ele><time>2026-05-04T17:13:13.001Z</time></trkpt><trkpt lat="41.35424058194591" lon="1.7384195988662965"><ele>242.0</ele><time>2026-05-04T17:13:14.001Z</time></trkpt><trkpt lat="41.35425536677799" lon="1.7385225400289537"><ele>242.0</ele><time>2026-05-04T17:13:15.001Z</time></trkpt><trkpt lat="41.3542891657777" lon="1.7386703350852308"><ele>242.0</ele><time>2026-05-04T17:13:16.001Z</time></trkpt><trkpt lat="41.35433651205403" lon="1.7388769098555967"><ele>242.0</ele><time>2026-05-04T17:13:17.001Z</time></trkpt><trkpt lat="41.35436672172724" lon="1.739023397298242"><ele>242.0</ele><time>2026-05-04T17:13:18.001Z</time></trkpt><trkpt lat="41.354398719550005" lon="1.73917001819941"><ele>242.0</ele><time>2026-05-04T17:13:19.001Z</time></trkpt><trkpt lat="41.3544326363798" lon="1.7393180370384083"><ele>242.0</ele><time>2026-05-04T17:13:20.001Z</time></trkpt><trkpt lat="41.3544644123289" lon="1.7394584853208421"><ele>242.0</ele><time>2026-05-04T17:13:21.001Z</time></trkpt><trkpt lat="41.35450033162043" lon="1.7396062186045977"><ele>242.0</ele><time>2026-05-04T17:13:22.001Z</time></trkpt><trkpt lat="41.35453334134491" lon="1.7397503868626574"><ele>242.0</ele><time>2026-05-04T17:13:23.001Z</time></trkpt><trkpt lat="41.35456716959636" lon="1.7398969915729356"><ele>242.0</ele><time>2026-05-04T17:13:24.001Z</time></trkpt><trkpt lat="41.35460058448765" lon="1.7400438869579273"><ele>242.0</ele><time>2026-05-04T17:13:25.001Z</time></trkpt><trkpt lat="41.35463316284682" lon="1.7401901380748808"><ele>242.0</ele><time>2026-05-04T17:13:26.001Z</time></trkpt><trkpt lat="41.35466728980898" lon="1.740335829634319"><ele>242.0</ele><time>2026-05-04T17:13:27.001Z</time></trkpt><trkpt lat="41.35469902109752" lon="1.7404807813277978"><ele>242.0</ele><time>2026-05-04T17:13:28.001Z</time></trkpt><trkpt lat="41.35473230333381" lon="1.7406251628552243"><ele>242.0</ele><time>2026-05-04T17:13:29.001Z</time></trkpt><trkpt lat="41.354766284041446" lon="1.7407707931127039"><ele>241.75</ele><time>2026-05-04T17:13:30.001Z</time></trkpt><trkpt lat="41.35479981385019" lon="1.740915766459347"><ele>241.5</ele><time>2026-05-04T17:13:31.001Z</time></trkpt><trkpt lat="41.35483458360936" lon="1.7410619716260067"><ele>241.25</ele><time>2026-05-04T17:13:32.001Z</time></trkpt><trkpt lat="41.35486674952958" lon="1.741206420271146"><ele>241.0</ele><time>2026-05-04T17:13:33.001Z</time></trkpt><trkpt lat="41.35489713588385" lon="1.7413497127850668"><ele>241.0</ele><time>2026-05-04T17:13:34.001Z</time></trkpt><trkpt lat="41.354930088609635" lon="1.741493901827972"><ele>241.0</ele><time>2026-05-04T17:13:35.001Z</time></trkpt><trkpt lat="41.35496115758939" lon="1.7416407319994491"><ele>241.0</ele><time>2026-05-04T17:13:36.001Z</time></trkpt><trkpt lat="41.35499533427605" lon="1.741787480606359"><ele>241.0</ele><time>2026-05-04T17:13:37.001Z</time></trkpt><trkpt lat="41.3550306178798" lon="1.7419331434449503"><ele>240.75</ele><time>2026-05-04T17:13:38.001Z</time></trkpt><trkpt lat="41.355063337907275" lon="1.7420749170570897"><ele>240.5</ele><time>2026-05-04T17:13:39.001Z</time></trkpt><trkpt lat="41.355097036760334" lon="1.7422126659699142"><ele>240.25</ele><time>2026-05-04T17:13:40.001Z</time></trkpt><trkpt lat="41.35513037921301" lon="1.742367680368339"><ele>240.0</ele><time>2026-05-04T17:13:41.001Z</time></trkpt><trkpt lat="41.35515604270334" lon="1.7425123778079439"><ele>240.0</ele><time>2026-05-04T17:13:42.001Z</time></trkpt><trkpt lat="41.35517624271713" lon="1.742661163101948"><ele>240.0</ele><time>2026-05-04T17:13:43.001Z</time></trkpt><trkpt lat="41.3551895814897" lon="1.7427951091037295"><ele>240.0</ele><time>2026-05-04T17:13:44.001Z</time></trkpt><trkpt lat="41.355185527290026" lon="1.7429291847372037"><ele>240.0</ele><time>2026-05-04T17:13:45.001Z</time></trkpt><trkpt lat="41.35516698562273" lon="1.7430676675274974"><ele>240.0</ele><time>2026-05-04T17:13:46.001Z</time></trkpt><trkpt lat="41.35514159769455" lon="1.7432014552235686"><ele>240.2</ele><time>2026-05-04T17:13:47.001Z</time></trkpt><trkpt lat="41.355142779606844" lon="1.7433402021356341"><ele>240.4</ele><time>2026-05-04T17:13:48.001Z</time></trkpt><trkpt lat="41.35517934256003" lon="1.7434697740616072"><ele>240.60000000000002</ele><time>2026-05-04T17:13:49.001Z</time></trkpt><trkpt lat="41.35524615888509" lon="1.743581649921228"><ele>240.8</ele><time>2026-05-04T17:13:50.001Z</time></trkpt><trkpt lat="41.355336159680064" lon="1.7436662596503048"><ele>241.0</ele><time>2026-05-04T17:13:51.001Z</time></trkpt><trkpt lat="41.35542258170749" lon="1.7437525211301217"><ele>240.60000000000002</ele><time>2026-05-04T17:13:52.001Z</time></trkpt><trkpt lat="41.35548692457565" lon="1.7438682966244965"><ele>240.20000000000002</ele><time>2026-05-04T17:13:53.001Z</time></trkpt><trkpt lat="41.35551300152306" lon="1.7440211098984797"><ele>239.79999999999998</ele><time>2026-05-04T17:13:54.001Z</time></trkpt><trkpt lat="41.355538239489086" lon="1.7441667680027337"><ele>239.39999999999998</ele><time>2026-05-04T17:13:55.001Z</time></trkpt><trkpt lat="41.35557026199702" lon="1.7443054248538583"><ele>239.0</ele><time>2026-05-04T17:13:56.001Z</time></trkpt><trkpt lat="41.35560520461691" lon="1.7444435553440742"><ele>240.0</ele><time>2026-05-04T17:13:57.001Z</time></trkpt><trkpt lat="41.35563683517522" lon="1.7445784761994583"><ele>240.99999999999997</ele><time>2026-05-04T17:13:58.001Z</time></trkpt><trkpt lat="41.35566891185689" lon="1.744715917781585"><ele>241.99999999999997</ele><time>2026-05-04T17:13:59.001Z</time></trkpt><trkpt lat="41.35569918658172" lon="1.7448562584516205"><ele>243.0</ele><time>2026-05-04T17:14:00.001Z</time></trkpt><trkpt lat="41.35572955891755" lon="1.7449970372859909"><ele>244.0</ele><time>2026-05-04T17:14:01.001Z</time></trkpt><trkpt lat="41.355759162741776" lon="1.7451388825377303"><ele>243.39999999999998</ele><time>2026-05-04T17:14:02.001Z</time></trkpt><trkpt lat="41.35579044259795" lon="1.7452783383479384"><ele>242.79999999999998</ele><time>2026-05-04T17:14:03.001Z</time></trkpt><trkpt lat="41.35582046121145" lon="1.7454172505694034"><ele>242.20000000000002</ele><time>2026-05-04T17:14:04.001Z</time></trkpt><trkpt lat="41.35585414794544" lon="1.7455545631385418"><ele>241.60000000000002</ele><time>2026-05-04T17:14:05.001Z</time></trkpt><trkpt lat="41.35588415412363" lon="1.7456955109600762"><ele>241.0</ele><time>2026-05-04T17:14:06.001Z</time></trkpt><trkpt lat="41.35591853224941" lon="1.7458339177779683"><ele>241.0</ele><time>2026-05-04T17:14:07.001Z</time></trkpt><trkpt lat="41.355948938403934" lon="1.7459745580933237"><ele>241.00000000000003</ele><time>2026-05-04T17:14:08.001Z</time></trkpt><trkpt lat="41.3559798483703" lon="1.7461125933921062"><ele>241.00000000000003</ele><time>2026-05-04T17:14:09.001Z</time></trkpt><trkpt lat="41.35601322511139" lon="1.7462510790153447"><ele>241.0</ele><time>2026-05-04T17:14:10.001Z</time></trkpt><trkpt lat="41.35604359359592" lon="1.7463918885459575"><ele>241.0</ele><time>2026-05-04T17:14:11.001Z</time></trkpt><trkpt lat="41.35607678995124" lon="1.7465280080199739"><ele>241.0</ele><time>2026-05-04T17:14:12.001Z</time></trkpt><trkpt lat="41.35610621611286" lon="1.746668849026558"><ele>241.00000000000003</ele><time>2026-05-04T17:14:13.001Z</time></trkpt><trkpt lat="41.356136803630044" lon="1.7468073243603919"><ele>241.00000000000003</ele><time>2026-05-04T17:14:14.001Z</time></trkpt><trkpt lat="41.35616945617793" lon="1.746949458661815"><ele>241.0</ele><time>2026-05-04T17:14:15.002Z</time></trkpt><trkpt lat="41.356197510474885" lon="1.747090476925974"><ele>241.0</ele><time>2026-05-04T17:14:16.002Z</time></trkpt><trkpt lat="41.356227229465226" lon="1.747232226905831"><ele>240.60000000000002</ele><time>2026-05-04T17:14:17Z</time></trkpt><trkpt lat="41.35625943852067" lon="1.7473723402485464"><ele>240.20000000000002</ele><time>2026-05-04T17:14:18Z</time></trkpt><trkpt lat="41.35628538281211" lon="1.7475158412380745"><ele>239.79999999999998</ele><time>2026-05-04T17:14:19Z</time></trkpt><trkpt lat="41.35631901108717" lon="1.7476531026011897"><ele>239.39999999999998</ele><time>2026-05-04T17:14:20Z</time></trkpt><trkpt lat="41.35634887587433" lon="1.7477943552545756"><ele>239.0</ele><time>2026-05-04T17:14:21Z</time></trkpt><trkpt lat="41.356382139727366" lon="1.7479351369509242"><ele>240.0</ele><time>2026-05-04T17:14:22Z</time></trkpt><trkpt lat="41.35641217296812" lon="1.748078328089956"><ele>240.99999999999997</ele><time>2026-05-04T17:14:23Z</time></trkpt><trkpt lat="41.356440952041375" lon="1.7482190139344524"><ele>241.99999999999997</ele><time>2026-05-04T17:14:24Z</time></trkpt><trkpt lat="41.35646640142562" lon="1.7483639576935892"><ele>243.0</ele><time>2026-05-04T17:14:25Z</time></trkpt><trkpt lat="41.35648454808858" lon="1.748505890914013"><ele>244.0</ele><time>2026-05-04T17:14:26Z</time></trkpt><trkpt lat="41.356523266692086" lon="1.7486439462826118"><ele>244.0</ele><time>2026-05-04T17:14:27Z</time></trkpt><trkpt lat="41.35656269067404" lon="1.7487830654044385"><ele>244.0</ele><time>2026-05-04T17:14:28Z</time></trkpt><trkpt lat="41.3565998805011" lon="1.7489307429251113"><ele>244.0</ele><time>2026-05-04T17:14:29Z</time></trkpt><trkpt lat="41.356623328761636" lon="1.749075907455571"><ele>244.0</ele><time>2026-05-04T17:14:30Z</time></trkpt><trkpt lat="41.35664820708888" lon="1.7492251133040588"><ele>244.0</ele><time>2026-05-04T17:14:31Z</time></trkpt><trkpt lat="41.35668170389388" lon="1.7493692653838748"><ele>243.99999999999997</ele><time>2026-05-04T17:14:32Z</time></trkpt><trkpt lat="41.35671600043961" lon="1.749505281411633"><ele>243.99999999999997</ele><time>2026-05-04T17:14:33Z</time></trkpt><trkpt lat="41.356755925220845" lon="1.7496436529563302"><ele>244.0</ele><time>2026-05-04T17:14:34Z</time></trkpt><trkpt lat="41.356790379115246" lon="1.7497863404592713"><ele>244.0</ele><time>2026-05-04T17:14:35Z</time></trkpt><trkpt lat="41.35681980001313" lon="1.7499299758415139"><ele>244.0</ele><time>2026-05-04T17:14:36Z</time></trkpt><trkpt lat="41.35685390304543" lon="1.750067845893678"><ele>244.0</ele><time>2026-05-04T17:14:37Z</time></trkpt><trkpt lat="41.35688626492274" lon="1.7502095479088533"><ele>244.0</ele><time>2026-05-04T17:14:38Z</time></trkpt><trkpt lat="41.3569167358267" lon="1.7503638703902196"><ele>244.0</ele><time>2026-05-04T17:14:39Z</time></trkpt><trkpt lat="41.35694071871202" lon="1.7505284762451518"><ele>244.0</ele><time>2026-05-04T17:14:40Z</time></trkpt><trkpt lat="41.356975568863" lon="1.750749601598805"><ele>244.0</ele><time>2026-05-04T17:14:41Z</time></trkpt><trkpt lat="41.3570228947047" lon="1.7509611489661026"><ele>244.0</ele><time>2026-05-04T17:14:42Z</time></trkpt><trkpt lat="41.35709003843174" lon="1.7510659024586153"><ele>244.0</ele><time>2026-05-04T17:14:44Z</time></trkpt><trkpt lat="41.35712211617257" lon="1.7512083791159134"><ele>244.25</ele><time>2026-05-04T17:14:45Z</time></trkpt><trkpt lat="41.35715442759661" lon="1.7513536350041992"><ele>244.5</ele><time>2026-05-04T17:14:46Z</time></trkpt><trkpt lat="41.3571903534106" lon="1.7514957866024914"><ele>244.75</ele><time>2026-05-04T17:14:47Z</time></trkpt><trkpt lat="41.35722668655538" lon="1.7516387880185964"><ele>245.0</ele><time>2026-05-04T17:14:48Z</time></trkpt><trkpt lat="41.357262448529085" lon="1.751787030507695"><ele>245.0</ele><time>2026-05-04T17:14:49Z</time></trkpt><trkpt lat="41.357302108743184" lon="1.7519328826433678"><ele>245.0</ele><time>2026-05-04T17:14:50Z</time></trkpt><trkpt lat="41.357338584131966" lon="1.7520766634892257"><ele>245.0</ele><time>2026-05-04T17:14:51Z</time></trkpt><trkpt lat="41.357375617107714" lon="1.752220750147858"><ele>245.0</ele><time>2026-05-04T17:14:52Z</time></trkpt><trkpt lat="41.35741170226202" lon="1.7523657483375887"><ele>245.0</ele><time>2026-05-04T17:14:53Z</time></trkpt><trkpt lat="41.35744922138076" lon="1.752514624086814"><ele>245.0</ele><time>2026-05-04T17:14:54Z</time></trkpt><trkpt lat="41.357484291243054" lon="1.7526615154868348"><ele>245.0</ele><time>2026-05-04T17:14:55Z</time></trkpt><trkpt lat="41.357516253134406" lon="1.7528079357154538"><ele>245.0</ele><time>2026-05-04T17:14:56Z</time></trkpt><trkpt lat="41.35754677905855" lon="1.7529581729942265"><ele>244.5</ele><time>2026-05-04T17:14:57Z</time></trkpt><trkpt lat="41.35758122906471" lon="1.7531072412101187"><ele>244.0</ele><time>2026-05-04T17:14:58Z</time></trkpt><trkpt lat="41.357607604251385" lon="1.7532560821862673"><ele>243.5</ele><time>2026-05-04T17:14:59Z</time></trkpt><trkpt lat="41.35763304438351" lon="1.7534027588373813"><ele>243.0</ele><time>2026-05-04T17:15:00Z</time></trkpt><trkpt lat="41.357658345976915" lon="1.7535527982155443"><ele>243.0</ele><time>2026-05-04T17:15:01Z</time></trkpt><trkpt lat="41.357681738716515" lon="1.753704332069365"><ele>243.0</ele><time>2026-05-04T17:15:02Z</time></trkpt><trkpt lat="41.35771554853942" lon="1.7538505143523588"><ele>243.0</ele><time>2026-05-04T17:15:03Z</time></trkpt><trkpt lat="41.35774843330839" lon="1.7539957826975887"><ele>243.0</ele><time>2026-05-04T17:15:04Z</time></trkpt><trkpt lat="41.357781240308015" lon="1.7541444999040208"><ele>243.0</ele><time>2026-05-04T17:15:05Z</time></trkpt><trkpt lat="41.35781300010806" lon="1.7542874652023361"><ele>243.0</ele><time>2026-05-04T17:15:06Z</time></trkpt><trkpt lat="41.35784350725012" lon="1.7544317521561599"><ele>243.0</ele><time>2026-05-04T17:15:07Z</time></trkpt><trkpt lat="41.35787875997005" lon="1.7545763963106484"><ele>243.0</ele><time>2026-05-04T17:15:08Z</time></trkpt><trkpt lat="41.35791235083843" lon="1.7547181844985318"><ele>243.25</ele><time>2026-05-04T17:15:09Z</time></trkpt><trkpt lat="41.35794499472513" lon="1.7548632977998875"><ele>243.5</ele><time>2026-05-04T17:15:10Z</time></trkpt><trkpt lat="41.35797810523709" lon="1.7550079193567283"><ele>243.75</ele><time>2026-05-04T17:15:11Z</time></trkpt><trkpt lat="41.35800988627844" lon="1.7551475103362915"><ele>244.0</ele><time>2026-05-04T17:15:12Z</time></trkpt><trkpt lat="41.35804627420603" lon="1.7553003662930884"><ele>245.0</ele><time>2026-05-04T17:15:13.001Z</time></trkpt><trkpt lat="41.35810288388791" lon="1.7555013765167402"><ele>246.0</ele><time>2026-05-04T17:15:14.001Z</time></trkpt><trkpt lat="41.35811418325632" lon="1.7556795547318984"><ele>247.0</ele><time>2026-05-04T17:15:15.001Z</time></trkpt><trkpt lat="41.35818840134506" lon="1.7558528737326355"><ele>248.0</ele><time>2026-05-04T17:15:17.001Z</time></trkpt><trkpt lat="41.35822352912456" lon="1.7560039690703064"><ele>247.25</ele><time>2026-05-04T17:15:18.001Z</time></trkpt><trkpt lat="41.3582588131346" lon="1.756156600448837"><ele>246.5</ele><time>2026-05-04T17:15:19.001Z</time></trkpt><trkpt lat="41.358295615865394" lon="1.7563064855455057"><ele>245.75</ele><time>2026-05-04T17:15:20.001Z</time></trkpt><trkpt lat="41.358331012936844" lon="1.7564550208796779"><ele>245.0</ele><time>2026-05-04T17:15:21.001Z</time></trkpt><trkpt lat="41.35836459978425" lon="1.756600628371246"><ele>245.0</ele><time>2026-05-04T17:15:22.001Z</time></trkpt><trkpt lat="41.358397559501256" lon="1.7567459794814788"><ele>245.0</ele><time>2026-05-04T17:15:23.001Z</time></trkpt><trkpt lat="41.358430876273786" lon="1.7568894625176974"><ele>245.0</ele><time>2026-05-04T17:15:24.001Z</time></trkpt><trkpt lat="41.3584656140544" lon="1.757034429802822"><ele>245.0</ele><time>2026-05-04T17:15:25.001Z</time></trkpt><trkpt lat="41.35849768715744" lon="1.7571791003305695"><ele>244.75</ele><time>2026-05-04T17:15:26.001Z</time></trkpt><trkpt lat="41.35853144326141" lon="1.7573242427713813"><ele>244.5</ele><time>2026-05-04T17:15:27.001Z</time></trkpt><trkpt lat="41.3585653728138" lon="1.7574700178967242"><ele>244.25</ele><time>2026-05-04T17:15:28.001Z</time></trkpt><trkpt lat="41.358598976738314" lon="1.7576175943911476"><ele>244.0</ele><time>2026-05-04T17:15:29.001Z</time></trkpt><trkpt lat="41.35863164224884" lon="1.7577661824087896"><ele>244.5</ele><time>2026-05-04T17:15:30.001Z</time></trkpt><trkpt lat="41.358668549693974" lon="1.7579117892298277"><ele>245.0</ele><time>2026-05-04T17:15:31.001Z</time></trkpt><trkpt lat="41.358699449635175" lon="1.7580593106933258"><ele>245.5</ele><time>2026-05-04T17:15:32.001Z</time></trkpt><trkpt lat="41.35873451746479" lon="1.7582029303328843"><ele>246.0</ele><time>2026-05-04T17:15:33.001Z</time></trkpt><trkpt lat="41.358767127687244" lon="1.758348657079719"><ele>246.0</ele><time>2026-05-04T17:15:34.001Z</time></trkpt><trkpt lat="41.35879866466766" lon="1.758487086988292"><ele>246.00000000000003</ele><time>2026-05-04T17:15:35.001Z</time></trkpt><trkpt lat="41.358834522023216" lon="1.7586387148352842"><ele>246.00000000000003</ele><time>2026-05-04T17:15:36.001Z</time></trkpt><trkpt lat="41.35885988925068" lon="1.7587743109634861"><ele>246.0</ele><time>2026-05-04T17:15:37.001Z</time></trkpt><trkpt lat="41.35888978662831" lon="1.7589108386595635"><ele>246.0</ele><time>2026-05-04T17:15:38.001Z</time></trkpt><trkpt lat="41.35892477962176" lon="1.7590490586218"><ele>246.4</ele><time>2026-05-04T17:15:39.001Z</time></trkpt><trkpt lat="41.35895626013034" lon="1.759187650463085"><ele>246.8</ele><time>2026-05-04T17:15:40.001Z</time></trkpt><trkpt lat="41.35898299280624" lon="1.7593265307153307"><ele>247.20000000000002</ele><time>2026-05-04T17:15:41.001Z</time></trkpt><trkpt lat="41.35901551178598" lon="1.7594626080567208"><ele>247.60000000000002</ele><time>2026-05-04T17:15:42.001Z</time></trkpt><trkpt lat="41.35904731258197" lon="1.759598645847649"><ele>248.0</ele><time>2026-05-04T17:15:43.001Z</time></trkpt><trkpt lat="41.35907655664895" lon="1.7597322958437858"><ele>249.0</ele><time>2026-05-04T17:15:44.001Z</time></trkpt><trkpt lat="41.359109351401855" lon="1.7598646055354727"><ele>250.0</ele><time>2026-05-04T17:15:45.001Z</time></trkpt><trkpt lat="41.35913753942199" lon="1.7600016801271798"><ele>251.0</ele><time>2026-05-04T17:15:46.001Z</time></trkpt><trkpt lat="41.3591540442537" lon="1.7601379766225562"><ele>252.0</ele><time>2026-05-04T17:15:47.001Z</time></trkpt><trkpt lat="41.359161209986375" lon="1.7602772982389696"><ele>253.0</ele><time>2026-05-04T17:15:48.001Z</time></trkpt><trkpt lat="41.35914714792014" lon="1.7604143143170878"><ele>253.2</ele><time>2026-05-04T17:15:49.001Z</time></trkpt><trkpt lat="41.3591212587091" lon="1.760535569332689"><ele>253.4</ele><time>2026-05-04T17:15:50.001Z</time></trkpt><trkpt lat="41.359108326271496" lon="1.760644781898694"><ele>253.59999999999997</ele><time>2026-05-04T17:15:51.001Z</time></trkpt><trkpt lat="41.359126004446395" lon="1.7607666702823623"><ele>253.79999999999998</ele><time>2026-05-04T17:15:52.001Z</time></trkpt><trkpt lat="41.359172650026686" lon="1.7608742069420236"><ele>254.0</ele><time>2026-05-04T17:15:53.001Z</time></trkpt><trkpt lat="41.35924546660614" lon="1.7609519782100327"><ele>254.0</ele><time>2026-05-04T17:15:54.001Z</time></trkpt><trkpt lat="41.35932031663595" lon="1.761022604958125"><ele>253.99999999999997</ele><time>2026-05-04T17:15:55.001Z</time></trkpt><trkpt lat="41.35938783567753" lon="1.7611067099090525"><ele>253.99999999999997</ele><time>2026-05-04T17:15:56.001Z</time></trkpt><trkpt lat="41.35943509090839" lon="1.7612169765741654"><ele>254.0</ele><time>2026-05-04T17:15:57.001Z</time></trkpt><trkpt lat="41.35945946628752" lon="1.7613455937700022"><ele>254.0</ele><time>2026-05-04T17:15:58.001Z</time></trkpt><trkpt lat="41.35948438334283" lon="1.7614690424731332"><ele>254.2</ele><time>2026-05-04T17:15:59.001Z</time></trkpt><trkpt lat="41.359508967656176" lon="1.7615925762501334"><ele>254.39999999999998</ele><time>2026-05-04T17:16:00.001Z</time></trkpt><trkpt lat="41.35953460179538" lon="1.761720989594354"><ele>254.6</ele><time>2026-05-04T17:16:01.001Z</time></trkpt><trkpt lat="41.35955972676779" lon="1.7618506567037082"><ele>254.8</ele><time>2026-05-04T17:16:02.001Z</time></trkpt><trkpt lat="41.359588377198484" lon="1.7619783533006776"><ele>255.0</ele><time>2026-05-04T17:16:03.001Z</time></trkpt><trkpt lat="41.35961914183394" lon="1.76210673479862"><ele>255.2</ele><time>2026-05-04T17:16:04.001Z</time></trkpt><trkpt lat="41.359648975823305" lon="1.762237712453688"><ele>255.4</ele><time>2026-05-04T17:16:05.001Z</time></trkpt><trkpt lat="41.3596786275408" lon="1.7623703950695784"><ele>255.60000000000002</ele><time>2026-05-04T17:16:06.001Z</time></trkpt><trkpt lat="41.35971068518598" lon="1.7625021061624826"><ele>255.8</ele><time>2026-05-04T17:16:07.001Z</time></trkpt><trkpt lat="41.35974151700534" lon="1.7626336617092055"><ele>256.0</ele><time>2026-05-04T17:16:08.001Z</time></trkpt><trkpt lat="41.3597740910334" lon="1.7627678804509619"><ele>257.6</ele><time>2026-05-04T17:16:09.001Z</time></trkpt><trkpt lat="41.35980293187522" lon="1.7629000426605475"><ele>259.20000000000005</ele><time>2026-05-04T17:16:10.001Z</time></trkpt><trkpt lat="41.35983393190794" lon="1.763034192532064"><ele>260.79999999999995</ele><time>2026-05-04T17:16:11.001Z</time></trkpt><trkpt lat="41.35986298869381" lon="1.7631677962809986"><ele>262.4</ele><time>2026-05-04T17:16:12.001Z</time></trkpt><trkpt lat="41.35989290533423" lon="1.7633017769823185"><ele>264.0</ele><time>2026-05-04T17:16:13.001Z</time></trkpt><trkpt lat="41.35992541247474" lon="1.7634335435784076"><ele>264.4</ele><time>2026-05-04T17:16:14.001Z</time></trkpt><trkpt lat="41.359956270183694" lon="1.7635656981529633"><ele>264.79999999999995</ele><time>2026-05-04T17:16:15.001Z</time></trkpt><trkpt lat="41.3599871112597" lon="1.7636968065541425"><ele>265.20000000000005</ele><time>2026-05-04T17:16:16.001Z</time></trkpt><trkpt lat="41.36001928935401" lon="1.7638299704265776"><ele>265.6</ele><time>2026-05-04T17:16:17.001Z</time></trkpt><trkpt lat="41.36004762949765" lon="1.7639638170630956"><ele>266.0</ele><time>2026-05-04T17:16:18.001Z</time></trkpt><trkpt lat="41.360080116076446" lon="1.764096395525872"><ele>266.0</ele><time>2026-05-04T17:16:19.001Z</time></trkpt><trkpt lat="41.36011406552259" lon="1.7642283228924285"><ele>266.0</ele><time>2026-05-04T17:16:20.001Z</time></trkpt><trkpt lat="41.36014145750513" lon="1.764362203323229"><ele>266.0</ele><time>2026-05-04T17:16:21.001Z</time></trkpt><trkpt lat="41.360168349054454" lon="1.7644952061447514"><ele>266.0</ele><time>2026-05-04T17:16:22.001Z</time></trkpt><trkpt lat="41.36020060211698" lon="1.7646260142182588"><ele>266.0</ele><time>2026-05-04T17:16:23Z</time></trkpt><trkpt lat="41.3602340511732" lon="1.7647584873547555"><ele>266.2</ele><time>2026-05-04T17:16:24Z</time></trkpt><trkpt lat="41.3602598667795" lon="1.764892384364718"><ele>266.40000000000003</ele><time>2026-05-04T17:16:25Z</time></trkpt><trkpt lat="41.3602872324471" lon="1.7650260397163757"><ele>266.6</ele><time>2026-05-04T17:16:26Z</time></trkpt><trkpt lat="41.360322467043844" lon="1.7651565357837082"><ele>266.8</ele><time>2026-05-04T17:16:27Z</time></trkpt><trkpt lat="41.36035100860356" lon="1.7652924614271934"><ele>267.0</ele><time>2026-05-04T17:16:28Z</time></trkpt><trkpt lat="41.36038340838504" lon="1.7654263220802513"><ele>267.2</ele><time>2026-05-04T17:16:29Z</time></trkpt><trkpt lat="41.36041359026951" lon="1.7655577099978677"><ele>267.4</ele><time>2026-05-04T17:16:30Z</time></trkpt><trkpt lat="41.3604450353584" lon="1.7656933763025149"><ele>267.6</ele><time>2026-05-04T17:16:31Z</time></trkpt><trkpt lat="41.360476641637156" lon="1.7658279490461901"><ele>267.8</ele><time>2026-05-04T17:16:32Z</time></trkpt><trkpt lat="41.36050292184796" lon="1.7659608417346635"><ele>268.0</ele><time>2026-05-04T17:16:33Z</time></trkpt><trkpt lat="41.36053020752696" lon="1.7660960161734025"><ele>268.6</ele><time>2026-05-04T17:16:34Z</time></trkpt><trkpt lat="41.360563932695676" lon="1.7662283454504042"><ele>269.20000000000005</ele><time>2026-05-04T17:16:35Z</time></trkpt><trkpt lat="41.36059408184422" lon="1.7663662525240482"><ele>269.8</ele><time>2026-05-04T17:16:36Z</time></trkpt><trkpt lat="41.36062335373676" lon="1.7665010093923104"><ele>270.40000000000003</ele><time>2026-05-04T17:16:37Z</time></trkpt><trkpt lat="41.3606570203927" lon="1.7666410249219626"><ele>271.0</ele><time>2026-05-04T17:16:38Z</time></trkpt><trkpt lat="41.36068722333567" lon="1.766775155498485"><ele>271.40000000000003</ele><time>2026-05-04T17:16:39Z</time></trkpt><trkpt lat="41.360717727750206" lon="1.766917512761305"><ele>271.8</ele><time>2026-05-04T17:16:40Z</time></trkpt><trkpt lat="41.36074857245449" lon="1.7670583880698183"><ele>272.20000000000005</ele><time>2026-05-04T17:16:41Z</time></trkpt><trkpt lat="41.3607814882633" lon="1.7672008199757492"><ele>272.6</ele><time>2026-05-04T17:16:42Z</time></trkpt><trkpt lat="41.36081170303797" lon="1.7673386600571248"><ele>273.0</ele><time>2026-05-04T17:16:43Z</time></trkpt><trkpt lat="41.36084573829353" lon="1.7674757907211924"><ele>273.0</ele><time>2026-05-04T17:16:44Z</time></trkpt><trkpt lat="41.3608798464712" lon="1.7676159819574946"><ele>273.0</ele><time>2026-05-04T17:16:45Z</time></trkpt><trkpt lat="41.36090869588419" lon="1.7677548105350784"><ele>273.0</ele><time>2026-05-04T17:16:46Z</time></trkpt><trkpt lat="41.36094103972844" lon="1.7678955607830944"><ele>273.0</ele><time>2026-05-04T17:16:47Z</time></trkpt><trkpt lat="41.360969642367785" lon="1.7680371022657757"><ele>273.0</ele><time>2026-05-04T17:16:48Z</time></trkpt><trkpt lat="41.36099839640355" lon="1.7681840328579737"><ele>273.0</ele><time>2026-05-04T17:16:49Z</time></trkpt><trkpt lat="41.36103662206207" lon="1.7683182744604236"><ele>273.0</ele><time>2026-05-04T17:16:50Z</time></trkpt><trkpt lat="41.36106858788244" lon="1.768457870035176"><ele>273.0</ele><time>2026-05-04T17:16:51Z</time></trkpt><trkpt lat="41.36110007071064" lon="1.7686012402223261"><ele>273.0</ele><time>2026-05-04T17:16:52Z</time></trkpt><trkpt lat="41.36112789905177" lon="1.7687439072106803"><ele>273.0</ele><time>2026-05-04T17:16:53Z</time></trkpt><trkpt lat="41.361159687066824" lon="1.768884582062039"><ele>273.8</ele><time>2026-05-04T17:16:54Z</time></trkpt><trkpt lat="41.36119230054107" lon="1.7690286594634916"><ele>274.6</ele><time>2026-05-04T17:16:55Z</time></trkpt><trkpt lat="41.3612235998844" lon="1.7691676055317753"><ele>275.4</ele><time>2026-05-04T17:16:56Z</time></trkpt><trkpt lat="41.36125664909946" lon="1.7693035186647825"><ele>276.2</ele><time>2026-05-04T17:16:57Z</time></trkpt><trkpt lat="41.361286748947535" lon="1.7694402139821601"><ele>277.0</ele><time>2026-05-04T17:16:58Z</time></trkpt><trkpt lat="41.36131717508123" lon="1.7695777459138464"><ele>277.2</ele><time>2026-05-04T17:16:59Z</time></trkpt><trkpt lat="41.36134731805876" lon="1.7697133870641375"><ele>277.4</ele><time>2026-05-04T17:17:00Z</time></trkpt><trkpt lat="41.3613753946911" lon="1.7698481379283644"><ele>277.6</ele><time>2026-05-04T17:17:01Z</time></trkpt><trkpt lat="41.361404958773704" lon="1.769983725970577"><ele>277.8</ele><time>2026-05-04T17:17:02Z</time></trkpt><trkpt lat="41.361439261460156" lon="1.7701185436949234"><ele>278.0</ele><time>2026-05-04T17:17:03Z</time></trkpt><trkpt lat="41.36146966033535" lon="1.7702535958380097"><ele>279.2</ele><time>2026-05-04T17:17:04Z</time></trkpt><trkpt lat="41.36150341880343" lon="1.7703896012811717"><ele>280.4</ele><time>2026-05-04T17:17:05Z</time></trkpt><trkpt lat="41.36153197207103" lon="1.770523009234628"><ele>281.59999999999997</ele><time>2026-05-04T17:17:06Z</time></trkpt><trkpt lat="41.361562164982686" lon="1.7706610342214946"><ele>282.8</ele><time>2026-05-04T17:17:07Z</time></trkpt><trkpt lat="41.361592645422846" lon="1.7707980601607474"><ele>284.0</ele><time>2026-05-04T17:17:08Z</time></trkpt><trkpt lat="41.36162330358821" lon="1.7709339662013166"><ele>284.4</ele><time>2026-05-04T17:17:09Z</time></trkpt><trkpt lat="41.36165029160075" lon="1.77107428022162"><ele>284.79999999999995</ele><time>2026-05-04T17:17:10Z</time></trkpt><trkpt lat="41.361678133312985" lon="1.7712151990703502"><ele>285.20000000000005</ele><time>2026-05-04T17:17:11Z</time></trkpt><trkpt lat="41.361705520623985" lon="1.7713549679339593"><ele>285.6</ele><time>2026-05-04T17:17:12Z</time></trkpt><trkpt lat="41.36172729727522" lon="1.7714958803568575"><ele>286.0</ele><time>2026-05-04T17:17:13Z</time></trkpt><trkpt lat="41.361742095291056" lon="1.7716414882932665"><ele>286.0</ele><time>2026-05-04T17:17:14Z</time></trkpt><trkpt lat="41.36175336131356" lon="1.7717898219969288"><ele>286.0</ele><time>2026-05-04T17:17:15Z</time></trkpt><trkpt lat="41.36175615458663" lon="1.7719379837217593"><ele>286.0</ele><time>2026-05-04T17:17:16Z</time></trkpt><trkpt lat="41.36173873509405" lon="1.772094302277759"><ele>286.0</ele><time>2026-05-04T17:17:17Z</time></trkpt><trkpt lat="41.36173688261438" lon="1.7722374494281432"><ele>286.0</ele><time>2026-05-04T17:17:18Z</time></trkpt><trkpt lat="41.361722457470165" lon="1.772385231986603"><ele>285.8</ele><time>2026-05-04T17:17:19Z</time></trkpt><trkpt lat="41.361713004680404" lon="1.7725317059996766"><ele>285.6</ele><time>2026-05-04T17:17:20Z</time></trkpt><trkpt lat="41.36169681938993" lon="1.772681261054518"><ele>285.4</ele><time>2026-05-04T17:17:21Z</time></trkpt><trkpt lat="41.361689883005184" lon="1.7728265314544933"><ele>285.2</ele><time>2026-05-04T17:17:22.001Z</time></trkpt><trkpt lat="41.36167490413334" lon="1.772969839974041"><ele>285.0</ele><time>2026-05-04T17:17:23.001Z</time></trkpt><trkpt lat="41.361656761869675" lon="1.7731139616557827"><ele>284.4</ele><time>2026-05-04T17:17:24.001Z</time></trkpt><trkpt lat="41.36163972661858" lon="1.7732586725786428"><ele>283.8</ele><time>2026-05-04T17:17:25.001Z</time></trkpt><trkpt lat="41.36162192024371" lon="1.7734050108367403"><ele>283.2</ele><time>2026-05-04T17:17:26.001Z</time></trkpt><trkpt lat="41.36160395416937" lon="1.7735525968899248"><ele>282.6</ele><time>2026-05-04T17:17:27.001Z</time></trkpt><trkpt lat="41.361594039657376" lon="1.7737015676141608"><ele>282.0</ele><time>2026-05-04T17:17:28.001Z</time></trkpt><trkpt lat="41.36157954620966" lon="1.7738466553665808"><ele>281.4</ele><time>2026-05-04T17:17:29.001Z</time></trkpt><trkpt lat="41.36156860183405" lon="1.773991813741338"><ele>280.79999999999995</ele><time>2026-05-04T17:17:30.001Z</time></trkpt><trkpt lat="41.36155657013413" lon="1.7741373658100175"><ele>280.2</ele><time>2026-05-04T17:17:31.001Z</time></trkpt><trkpt lat="41.36154234684739" lon="1.7742820139531312"><ele>279.59999999999997</ele><time>2026-05-04T17:17:32.001Z</time></trkpt><trkpt lat="41.36152542509686" lon="1.774419778026648"><ele>279.0</ele><time>2026-05-04T17:17:33.001Z</time></trkpt><trkpt lat="41.36150410118513" lon="1.7745483454247732"><ele>279.0</ele><time>2026-05-04T17:17:34.001Z</time></trkpt><trkpt lat="41.36150082445592" lon="1.7746740145390578"><ele>279.0</ele><time>2026-05-04T17:17:35.001Z</time></trkpt><trkpt lat="41.3614908773849" lon="1.7747901566185236"><ele>279.0</ele><time>2026-05-04T17:17:36.001Z</time></trkpt><trkpt lat="41.36146407503548" lon="1.774902297084824"><ele>279.0</ele><time>2026-05-04T17:17:37.001Z</time></trkpt><trkpt lat="41.361453190706406" lon="1.7750138687996175"><ele>279.0</ele><time>2026-05-04T17:17:38.001Z</time></trkpt><trkpt lat="41.361442817044576" lon="1.775115657178087"><ele>279.0</ele><time>2026-05-04T17:17:39.001Z</time></trkpt><trkpt lat="41.361432604492094" lon="1.7752115122674708"><ele>279.0</ele><time>2026-05-04T17:17:40.001Z</time></trkpt><trkpt lat="41.36142294838651" lon="1.7753021442525403"><ele>279.0</ele><time>2026-05-04T17:17:41.001Z</time></trkpt><trkpt lat="41.36141374113887" lon="1.7753885633455904"><ele>279.0</ele><time>2026-05-04T17:17:42.001Z</time></trkpt><trkpt lat="41.36139648858104" lon="1.7755485352868459"><ele>279.0</ele><time>2026-05-04T17:17:44.001Z</time></trkpt><trkpt lat="41.36138700654041" lon="1.7756344475824024"><ele>279.0</ele><time>2026-05-04T17:17:45.001Z</time></trkpt><trkpt lat="41.3613767942553" lon="1.7757269763559502"><ele>279.0</ele><time>2026-05-04T17:17:47.001Z</time></trkpt><trkpt lat="41.361380613796946" lon="1.7758327908286622"><ele>279.5</ele><time>2026-05-04T17:17:50.001Z</time></trkpt><trkpt lat="41.36136238301389" lon="1.7759317905164653"><ele>280.0</ele><time>2026-05-04T17:18:01.001Z</time></trkpt><trkpt lat="41.36134055145163" lon="1.7760863221071395"><ele>280.5</ele><time>2026-05-04T17:18:03.001Z</time></trkpt><trkpt lat="41.36132964336063" lon="1.776181868975403"><ele>281.0</ele><time>2026-05-04T17:18:04.001Z</time></trkpt><trkpt lat="41.361319727565025" lon="1.7762866233235253"><ele>281.5</ele><time>2026-05-04T17:18:05.001Z</time></trkpt><trkpt lat="41.36130245189461" lon="1.7763958174497398"><ele>282.0</ele><time>2026-05-04T17:18:06.001Z</time></trkpt><trkpt lat="41.361288096173205" lon="1.7765122802274766"><ele>282.0</ele><time>2026-05-04T17:18:07.001Z</time></trkpt><trkpt lat="41.36124988924448" lon="1.7766037744693213"><ele>282.0</ele><time>2026-05-04T17:18:08.001Z</time></trkpt><trkpt lat="41.36106782034454" lon="1.776647184748366"><ele>282.0</ele><time>2026-05-04T17:18:10.001Z</time></trkpt><trkpt lat="41.36098328085481" lon="1.776696705366539"><ele>282.0</ele><time>2026-05-04T17:18:11.001Z</time></trkpt><trkpt lat="41.36090799014438" lon="1.7767572992295475"><ele>282.0</ele><time>2026-05-04T17:18:12.001Z</time></trkpt><trkpt lat="41.36082684958182" lon="1.776803081138653"><ele>282.0</ele><time>2026-05-04T17:18:13.001Z</time></trkpt><trkpt lat="41.36074177786145" lon="1.7768541377502352"><ele>282.0</ele><time>2026-05-04T17:18:14.001Z</time></trkpt><trkpt lat="41.36066073268145" lon="1.7769079981633435"><ele>282.0</ele><time>2026-05-04T17:18:15.001Z</time></trkpt><trkpt lat="41.3605749849384" lon="1.776955817326708"><ele>282.0</ele><time>2026-05-04T17:18:16.001Z</time></trkpt><trkpt lat="41.36049029898693" lon="1.7770057025777901"><ele>282.0</ele><time>2026-05-04T17:18:17.001Z</time></trkpt><trkpt lat="41.36040585047579" lon="1.7770543361204019"><ele>282.3333333333333</ele><time>2026-05-04T17:18:18.001Z</time></trkpt><trkpt lat="41.36033350377798" lon="1.7771020515811544"><ele>282.6666666666667</ele><time>2026-05-04T17:18:19.001Z</time></trkpt><trkpt lat="41.360264126744354" lon="1.7771374691670099"><ele>283.0</ele><time>2026-05-04T17:18:20.001Z</time></trkpt><trkpt lat="41.36022819765245" lon="1.777255008812602"><ele>283.33333333333337</ele><time>2026-05-04T17:18:21.001Z</time></trkpt><trkpt lat="41.3602031741902" lon="1.7773763699978264"><ele>283.6666666666667</ele><time>2026-05-04T17:18:22.001Z</time></trkpt><trkpt lat="41.360193909022954" lon="1.7775027278746363"><ele>284.0</ele><time>2026-05-04T17:18:23.001Z</time></trkpt><trkpt lat="41.36019055955405" lon="1.7776353838669936"><ele>283.59999999999997</ele><time>2026-05-04T17:18:24.001Z</time></trkpt><trkpt lat="41.36018422931825" lon="1.7777722614616644"><ele>283.2</ele><time>2026-05-04T17:18:25.001Z</time></trkpt><trkpt lat="41.360163397172194" lon="1.7779093674104585"><ele>282.79999999999995</ele><time>2026-05-04T17:18:26.001Z</time></trkpt><trkpt lat="41.360149303952696" lon="1.7780422922977306"><ele>282.4</ele><time>2026-05-04T17:18:27.001Z</time></trkpt><trkpt lat="41.36012079579095" lon="1.7781712762060615"><ele>282.0</ele><time>2026-05-04T17:18:28.001Z</time></trkpt><trkpt lat="41.36008947474561" lon="1.7783034010988212"><ele>282.0</ele><time>2026-05-04T17:18:29Z</time></trkpt><trkpt lat="41.36005546227945" lon="1.7784312677707215"><ele>282.0</ele><time>2026-05-04T17:18:30Z</time></trkpt><trkpt lat="41.36001313668165" lon="1.7785647947986405"><ele>282.0</ele><time>2026-05-04T17:18:31Z</time></trkpt><trkpt lat="41.35996273635035" lon="1.7786870874499479"><ele>282.0</ele><time>2026-05-04T17:18:32Z</time></trkpt><trkpt lat="41.359936676341405" lon="1.7788294312211517"><ele>282.0</ele><time>2026-05-04T17:18:33Z</time></trkpt><trkpt lat="41.35989773903352" lon="1.7789569305632513"><ele>281.8</ele><time>2026-05-04T17:18:34Z</time></trkpt><trkpt lat="41.35985475427682" lon="1.7790859954319458"><ele>281.6</ele><time>2026-05-04T17:18:35Z</time></trkpt><trkpt lat="41.359814284523615" lon="1.7792159898337934"><ele>281.40000000000003</ele><time>2026-05-04T17:18:36Z</time></trkpt><trkpt lat="41.35977727310211" lon="1.7793429126284417"><ele>281.2</ele><time>2026-05-04T17:18:37Z</time></trkpt><trkpt lat="41.35974408304587" lon="1.7794628099339078"><ele>281.0</ele><time>2026-05-04T17:18:38Z</time></trkpt><trkpt lat="41.359709666693" lon="1.779575951368319"><ele>280.6666666666667</ele><time>2026-05-04T17:18:39Z</time></trkpt><trkpt lat="41.35967224827178" lon="1.779679654707073"><ele>280.33333333333337</ele><time>2026-05-04T17:18:40Z</time></trkpt><trkpt lat="41.35964287446586" lon="1.7797807007608"><ele>280.0</ele><time>2026-05-04T17:18:41Z</time></trkpt><trkpt lat="41.359616130332626" lon="1.7798735405339574"><ele>279.6666666666667</ele><time>2026-05-04T17:18:42Z</time></trkpt><trkpt lat="41.35958432036634" lon="1.779964698473875"><ele>279.3333333333333</ele><time>2026-05-04T17:18:43Z</time></trkpt><trkpt lat="41.35955769788707" lon="1.7800472842609592"><ele>279.0</ele><time>2026-05-04T17:18:44Z</time></trkpt><trkpt lat="41.35949993786501" lon="1.7802029564263846"><ele>278.6666666666667</ele><time>2026-05-04T17:18:46Z</time></trkpt><trkpt lat="41.3594762320527" lon="1.7802925980595699"><ele>278.3333333333333</ele><time>2026-05-04T17:18:47Z</time></trkpt><trkpt lat="41.359443717328446" lon="1.780385918547373"><ele>278.0</ele><time>2026-05-04T17:18:48Z</time></trkpt><trkpt lat="41.359407855339434" lon="1.7804825980228056"><ele>277.66666666666663</ele><time>2026-05-04T17:18:49Z</time></trkpt><trkpt lat="41.35936982201002" lon="1.7805841173836305"><ele>277.3333333333333</ele><time>2026-05-04T17:18:50Z</time></trkpt><trkpt lat="41.359332275963204" lon="1.7806895261753155"><ele>277.0</ele><time>2026-05-04T17:18:51Z</time></trkpt><trkpt lat="41.35929177063493" lon="1.7808042877039623"><ele>277.0</ele><time>2026-05-04T17:18:52Z</time></trkpt><trkpt lat="41.359251808493326" lon="1.7809230898214392"><ele>277.0</ele><time>2026-05-04T17:18:53Z</time></trkpt><trkpt lat="41.359206934163886" lon="1.7810445476582373"><ele>277.0</ele><time>2026-05-04T17:18:54Z</time></trkpt><trkpt lat="41.359164896982236" lon="1.7811682411117435"><ele>277.0</ele><time>2026-05-04T17:18:55Z</time></trkpt><trkpt lat="41.359114939818696" lon="1.7812937433926106"><ele>277.0</ele><time>2026-05-04T17:18:56Z</time></trkpt><trkpt lat="41.35906321325969" lon="1.7814176633032812"><ele>277.0</ele><time>2026-05-04T17:18:57Z</time></trkpt><trkpt lat="41.359002087524864" lon="1.7815363503185278"><ele>277.0</ele><time>2026-05-04T17:18:58Z</time></trkpt><trkpt lat="41.35893634025059" lon="1.7816508177684918"><ele>277.0</ele><time>2026-05-04T17:18:59Z</time></trkpt><trkpt lat="41.35887037609488" lon="1.7817636185918981"><ele>277.0</ele><time>2026-05-04T17:19:00Z</time></trkpt><trkpt lat="41.358803594964414" lon="1.7818791824715896"><ele>277.0</ele><time>2026-05-04T17:19:01Z</time></trkpt><trkpt lat="41.35874681878346" lon="1.7820012784691959"><ele>276.6</ele><time>2026-05-04T17:19:02Z</time></trkpt><trkpt lat="41.358704145021065" lon="1.782134076378583"><ele>276.2</ele><time>2026-05-04T17:19:03Z</time></trkpt><trkpt lat="41.35867077929371" lon="1.7822724914585302"><ele>275.8</ele><time>2026-05-04T17:19:04Z</time></trkpt><trkpt lat="41.35864377566283" lon="1.7824172470670594"><ele>275.4</ele><time>2026-05-04T17:19:05Z</time></trkpt><trkpt lat="41.35860953662375" lon="1.782556829270011"><ele>275.0</ele><time>2026-05-04T17:19:06Z</time></trkpt><trkpt lat="41.35857620713277" lon="1.7827065379942568"><ele>275.0</ele><time>2026-05-04T17:19:07Z</time></trkpt><trkpt lat="41.35854506568774" lon="1.7828524853884917"><ele>275.0</ele><time>2026-05-04T17:19:08Z</time></trkpt><trkpt lat="41.358514935305855" lon="1.782999116791659"><ele>275.0</ele><time>2026-05-04T17:19:09Z</time></trkpt><trkpt lat="41.35847115240347" lon="1.783135495746157"><ele>275.0</ele><time>2026-05-04T17:19:10Z</time></trkpt><trkpt lat="41.358428123928284" lon="1.7832756320531193"><ele>275.0</ele><time>2026-05-04T17:19:11Z</time></trkpt><trkpt lat="41.35837312068743" lon="1.7834146693907225"><ele>275.0</ele><time>2026-05-04T17:19:12Z</time></trkpt><trkpt lat="41.35837125145202" lon="1.783572219601047"><ele>275.0</ele><time>2026-05-04T17:19:13Z</time></trkpt><trkpt lat="41.35833668675575" lon="1.783716079964123"><ele>275.0</ele><time>2026-05-04T17:19:14Z</time></trkpt><trkpt lat="41.358305917935134" lon="1.7838578164387864"><ele>275.2</ele><time>2026-05-04T17:19:15Z</time></trkpt><trkpt lat="41.35827722458679" lon="1.783997436642402"><ele>275.4</ele><time>2026-05-04T17:19:16Z</time></trkpt><trkpt lat="41.35824719911955" lon="1.7841350646505343"><ele>275.6</ele><time>2026-05-04T17:19:17Z</time></trkpt><trkpt lat="41.35822188498201" lon="1.7842789664779977"><ele>275.8</ele><time>2026-05-04T17:19:18Z</time></trkpt><trkpt lat="41.358200468890985" lon="1.7844240324475793"><ele>276.0</ele><time>2026-05-04T17:19:19Z</time></trkpt><trkpt lat="41.35818090534779" lon="1.7845727790137749"><ele>276.25</ele><time>2026-05-04T17:19:20Z</time></trkpt><trkpt lat="41.358166270901485" lon="1.7847183651997767"><ele>276.5</ele><time>2026-05-04T17:19:21Z</time></trkpt><trkpt lat="41.35815423451465" lon="1.7848659336608197"><ele>276.75</ele><time>2026-05-04T17:19:22.001Z</time></trkpt><trkpt lat="41.358140742926906" lon="1.7850171358576776"><ele>277.0</ele><time>2026-05-04T17:19:23.001Z</time></trkpt><trkpt lat="41.35812954450874" lon="1.7851681418661214"><ele>276.25</ele><time>2026-05-04T17:19:24.001Z</time></trkpt><trkpt lat="41.35811644830421" lon="1.7853157497327017"><ele>275.5</ele><time>2026-05-04T17:19:25.001Z</time></trkpt><trkpt lat="41.35810141765653" lon="1.7854604709688293"><ele>274.75</ele><time>2026-05-04T17:19:26.001Z</time></trkpt><trkpt lat="41.35809027382162" lon="1.7856144536543308"><ele>274.0</ele><time>2026-05-04T17:19:27.001Z</time></trkpt><trkpt lat="41.358077317934125" lon="1.7857647926202271"><ele>274.0</ele><time>2026-05-04T17:19:28.001Z</time></trkpt><trkpt lat="41.35806367640127" lon="1.7859184428875408"><ele>274.0</ele><time>2026-05-04T17:19:29.001Z</time></trkpt><trkpt lat="41.358051855478145" lon="1.7860694989267412"><ele>274.0</ele><time>2026-05-04T17:19:30.001Z</time></trkpt><trkpt lat="41.358039845274526" lon="1.7862226416372218"><ele>274.0</ele><time>2026-05-04T17:19:31.001Z</time></trkpt><trkpt lat="41.358029754006324" lon="1.7863717025759847"><ele>274.75</ele><time>2026-05-04T17:19:32.001Z</time></trkpt><trkpt lat="41.35801712424049" lon="1.7865235014764032"><ele>275.5</ele><time>2026-05-04T17:19:33.001Z</time></trkpt><trkpt lat="41.357999251089375" lon="1.7866754650479748"><ele>276.25</ele><time>2026-05-04T17:19:34.001Z</time></trkpt><trkpt lat="41.35798341108544" lon="1.786827317347445"><ele>277.0</ele><time>2026-05-04T17:19:35.001Z</time></trkpt><trkpt lat="41.35796533867987" lon="1.7869767547967772"><ele>277.0</ele><time>2026-05-04T17:19:36.001Z</time></trkpt><trkpt lat="41.357938053799884" lon="1.787122909884564"><ele>277.0</ele><time>2026-05-04T17:19:37.001Z</time></trkpt><trkpt lat="41.357911109658055" lon="1.7872669279050013"><ele>277.0</ele><time>2026-05-04T17:19:38.001Z</time></trkpt><trkpt lat="41.35788100779576" lon="1.7874272294420708"><ele>277.0</ele><time>2026-05-04T17:19:39.001Z</time></trkpt><trkpt lat="41.35784600499061" lon="1.787570591245692"><ele>275.0</ele><time>2026-05-04T17:19:40.001Z</time></trkpt><trkpt lat="41.35780682022358" lon="1.7877121336766082"><ele>273.0</ele><time>2026-05-04T17:19:41.001Z</time></trkpt><trkpt lat="41.35776540840473" lon="1.787847948662192"><ele>271.0</ele><time>2026-05-04T17:19:42.001Z</time></trkpt><trkpt lat="41.357731193629924" lon="1.787991478268027"><ele>269.0</ele><time>2026-05-04T17:19:43.001Z</time></trkpt><trkpt lat="41.35768808517834" lon="1.788136934220643"><ele>269.0</ele><time>2026-05-04T17:19:44.001Z</time></trkpt><trkpt lat="41.357652782399775" lon="1.788286103067871"><ele>269.0</ele><time>2026-05-04T17:19:45.001Z</time></trkpt><trkpt lat="41.357611016490544" lon="1.788428666479054"><ele>269.0</ele><time>2026-05-04T17:19:46.001Z</time></trkpt><trkpt lat="41.35757350423828" lon="1.7885716557127052"><ele>269.0</ele><time>2026-05-04T17:19:47.001Z</time></trkpt><trkpt lat="41.35753989362383" lon="1.7887184371508484"><ele>268.5</ele><time>2026-05-04T17:19:48.001Z</time></trkpt><trkpt lat="41.35750446450997" lon="1.7888561386715223"><ele>268.0</ele><time>2026-05-04T17:19:49.001Z</time></trkpt><trkpt lat="41.35746720671383" lon="1.789000809420658"><ele>267.5</ele><time>2026-05-04T17:19:50.001Z</time></trkpt><trkpt lat="41.3574201153063" lon="1.7891422531431176"><ele>267.0</ele><time>2026-05-04T17:19:51.001Z</time></trkpt><trkpt lat="41.35737596097659" lon="1.789280121980677"><ele>266.6</ele><time>2026-05-04T17:19:52.001Z</time></trkpt><trkpt lat="41.35732564935282" lon="1.7894223465920072"><ele>266.2</ele><time>2026-05-04T17:19:53.001Z</time></trkpt><trkpt lat="41.35725727422645" lon="1.7895449395155487"><ele>265.8</ele><time>2026-05-04T17:19:54.001Z</time></trkpt><trkpt lat="41.357194626343535" lon="1.7896583440539215"><ele>265.4</ele><time>2026-05-04T17:19:55.001Z</time></trkpt><trkpt lat="41.35711632926443" lon="1.7897489024849407"><ele>265.0</ele><time>2026-05-04T17:19:56.001Z</time></trkpt><trkpt lat="41.35701877844447" lon="1.7898493682550822"><ele>265.0</ele><time>2026-05-04T17:19:57.001Z</time></trkpt><trkpt lat="41.356922338867484" lon="1.7899441574565895"><ele>265.0</ele><time>2026-05-04T17:19:58.001Z</time></trkpt><trkpt lat="41.35683086760617" lon="1.7900340633409004"><ele>265.0</ele><time>2026-05-04T17:19:59.001Z</time></trkpt><trkpt lat="41.35674632779138" lon="1.7901175434530043"><ele>265.0</ele><time>2026-05-04T17:20:00.001Z</time></trkpt><trkpt lat="41.35666743293734" lon="1.7902195808951091"><ele>265.0</ele><time>2026-05-04T17:20:01.001Z</time></trkpt><trkpt lat="41.35658243400775" lon="1.790312401512877"><ele>264.0</ele><time>2026-05-04T17:20:02.001Z</time></trkpt><trkpt lat="41.356487173685565" lon="1.790410011493238"><ele>263.0</ele><time>2026-05-04T17:20:03.001Z</time></trkpt><trkpt lat="41.356417921235824" lon="1.7905442373324278"><ele>262.0</ele><time>2026-05-04T17:20:04.001Z</time></trkpt><trkpt lat="41.356342823204045" lon="1.7906665865422593"><ele>261.0</ele><time>2026-05-04T17:20:05.001Z</time></trkpt><trkpt lat="41.356278613303544" lon="1.7907958193606666"><ele>261.0</ele><time>2026-05-04T17:20:06.001Z</time></trkpt><trkpt lat="41.35620912336824" lon="1.7909207539031056"><ele>261.0</ele><time>2026-05-04T17:20:07.001Z</time></trkpt><trkpt lat="41.35613482417897" lon="1.7910418477014076"><ele>261.0</ele><time>2026-05-04T17:20:08.001Z</time></trkpt><trkpt lat="41.35606874587559" lon="1.7911641247181784"><ele>261.0</ele><time>2026-05-04T17:20:09.001Z</time></trkpt><trkpt lat="41.356004378973815" lon="1.79128715459841"><ele>261.25</ele><time>2026-05-04T17:20:10.001Z</time></trkpt><trkpt lat="41.355953195284656" lon="1.7914159248807557"><ele>261.5</ele><time>2026-05-04T17:20:11.001Z</time></trkpt><trkpt lat="41.35592027543511" lon="1.7915629890191827"><ele>261.75</ele><time>2026-05-04T17:20:12.001Z</time></trkpt><trkpt lat="41.35592109449777" lon="1.791725881518561"><ele>262.0</ele><time>2026-05-04T17:20:13.001Z</time></trkpt><trkpt lat="41.35593424080842" lon="1.7918821331876589"><ele>260.75</ele><time>2026-05-04T17:20:14.001Z</time></trkpt><trkpt lat="41.355946681274794" lon="1.7920452972586824"><ele>259.5</ele><time>2026-05-04T17:20:15.001Z</time></trkpt><trkpt lat="41.35594807528997" lon="1.7922050239971143"><ele>258.25</ele><time>2026-05-04T17:20:16.001Z</time></trkpt><trkpt lat="41.35595014886466" lon="1.7923647905281817"><ele>257.0</ele><time>2026-05-04T17:20:17.001Z</time></trkpt><trkpt lat="41.35595678917775" lon="1.792525237326737"><ele>257.0</ele><time>2026-05-04T17:20:18.001Z</time></trkpt><trkpt lat="41.35596136448269" lon="1.7926857524746158"><ele>257.0</ele><time>2026-05-04T17:20:19.001Z</time></trkpt><trkpt lat="41.35596589206843" lon="1.7928484500392268"><ele>257.0</ele><time>2026-05-04T17:20:20.001Z</time></trkpt><trkpt lat="41.35597009489574" lon="1.793007537086182"><ele>257.0</ele><time>2026-05-04T17:20:21.001Z</time></trkpt><trkpt lat="41.3559765448508" lon="1.793165771520527"><ele>257.0</ele><time>2026-05-04T17:20:22.001Z</time></trkpt><trkpt lat="41.35598204012159" lon="1.7933231826065845"><ele>257.0</ele><time>2026-05-04T17:20:23.001Z</time></trkpt><trkpt lat="41.35598240245106" lon="1.7934791107241352"><ele>257.0</ele><time>2026-05-04T17:20:24.001Z</time></trkpt><trkpt lat="41.35598583626179" lon="1.7936310273390923"><ele>257.0</ele><time>2026-05-04T17:20:25.001Z</time></trkpt><trkpt lat="41.35598661231295" lon="1.793784398709336"><ele>256.0</ele><time>2026-05-04T17:20:26.001Z</time></trkpt><trkpt lat="41.355981112122194" lon="1.7939338949581385"><ele>255.0</ele><time>2026-05-04T17:20:27.001Z</time></trkpt><trkpt lat="41.355972246083084" lon="1.7940759453987438"><ele>254.0</ele><time>2026-05-04T17:20:28.001Z</time></trkpt><trkpt lat="41.35595007179251" lon="1.7942249559793526"><ele>253.0</ele><time>2026-05-04T17:20:29.001Z</time></trkpt><trkpt lat="41.35593721943654" lon="1.794370170619109"><ele>252.0</ele><time>2026-05-04T17:20:30.001Z</time></trkpt><trkpt lat="41.35593087518379" lon="1.7945134095256277"><ele>251.0</ele><time>2026-05-04T17:20:31.001Z</time></trkpt><trkpt lat="41.35592142628102" lon="1.7946656959706195"><ele>250.0</ele><time>2026-05-04T17:20:32.001Z</time></trkpt><trkpt lat="41.3558957924855" lon="1.7948084977802148"><ele>249.0</ele><time>2026-05-04T17:20:33.001Z</time></trkpt><trkpt lat="41.35589385626059" lon="1.7949650373039208"><ele>248.0</ele><time>2026-05-04T17:20:34.002Z</time></trkpt><trkpt lat="41.35586364437981" lon="1.7951218833293978"><ele>248.25</ele><time>2026-05-04T17:20:35Z</time></trkpt><trkpt lat="41.35580655098854" lon="1.795299751567497"><ele>248.5</ele><time>2026-05-04T17:20:36Z</time></trkpt><trkpt lat="41.3557835382523" lon="1.7954852005594304"><ele>248.75</ele><time>2026-05-04T17:20:37Z</time></trkpt><trkpt lat="41.355824252244616" lon="1.7955697032286384"><ele>249.0</ele><time>2026-05-04T17:20:38Z</time></trkpt><trkpt lat="41.355804210714034" lon="1.795721097172365"><ele>249.0</ele><time>2026-05-04T17:20:39Z</time></trkpt><trkpt lat="41.35578765029889" lon="1.795860716762433"><ele>248.99999999999997</ele><time>2026-05-04T17:20:40Z</time></trkpt><trkpt lat="41.355758076580415" lon="1.7960168219633539"><ele>248.99999999999997</ele><time>2026-05-04T17:20:41Z</time></trkpt><trkpt lat="41.35573767342356" lon="1.7961581912701488"><ele>249.0</ele><time>2026-05-04T17:20:42Z</time></trkpt><trkpt lat="41.35572559588726" lon="1.7963021931854868"><ele>249.0</ele><time>2026-05-04T17:20:43Z</time></trkpt><trkpt lat="41.3557039038277" lon="1.7964429484196476"><ele>249.25</ele><time>2026-05-04T17:20:44Z</time></trkpt><trkpt lat="41.355670277086524" lon="1.7965968858175065"><ele>249.5</ele><time>2026-05-04T17:20:45Z</time></trkpt><trkpt lat="41.355644797619476" lon="1.7967390446523543"><ele>249.75</ele><time>2026-05-04T17:20:46Z</time></trkpt><trkpt lat="41.35561763718112" lon="1.79688401094489"><ele>250.0</ele><time>2026-05-04T17:20:47Z</time></trkpt><trkpt lat="41.3555855555606" lon="1.797021169227979"><ele>250.0</ele><time>2026-05-04T17:20:48Z</time></trkpt><trkpt lat="41.355553090388064" lon="1.7971582536820618"><ele>250.0</ele><time>2026-05-04T17:20:49Z</time></trkpt><trkpt lat="41.35551493251846" lon="1.797294277012084"><ele>250.0</ele><time>2026-05-04T17:20:50Z</time></trkpt><trkpt lat="41.35547797789753" lon="1.7974292193629082"><ele>250.0</ele><time>2026-05-04T17:20:51Z</time></trkpt><trkpt lat="41.35543946069066" lon="1.7975628854858448"><ele>250.0</ele><time>2026-05-04T17:20:52Z</time></trkpt><trkpt lat="41.35540185036176" lon="1.7976958650534525"><ele>251.0</ele><time>2026-05-04T17:20:53Z</time></trkpt><trkpt lat="41.35536544995801" lon="1.7978305147736091"><ele>252.0</ele><time>2026-05-04T17:20:54Z</time></trkpt><trkpt lat="41.35533082298314" lon="1.7979661081093756"><ele>253.0</ele><time>2026-05-04T17:20:55Z</time></trkpt><trkpt lat="41.355296011827775" lon="1.7980962848657058"><ele>254.0</ele><time>2026-05-04T17:20:56Z</time></trkpt><trkpt lat="41.35526183311016" lon="1.7982257976737959"><ele>255.0</ele><time>2026-05-04T17:20:57Z</time></trkpt><trkpt lat="41.35522712390448" lon="1.798348717855289"><ele>255.0</ele><time>2026-05-04T17:20:58Z</time></trkpt><trkpt lat="41.35519626657801" lon="1.7984771053054005"><ele>255.0</ele><time>2026-05-04T17:20:59Z</time></trkpt><trkpt lat="41.35516566685376" lon="1.798599631116525"><ele>255.0</ele><time>2026-05-04T17:21:00Z</time></trkpt><trkpt lat="41.355132388829745" lon="1.7987186840296039"><ele>255.0</ele><time>2026-05-04T17:21:01Z</time></trkpt><trkpt lat="41.35509473268211" lon="1.7988405600568964"><ele>255.0</ele><time>2026-05-04T17:21:02Z</time></trkpt><trkpt lat="41.35505908450526" lon="1.7989618198558888"><ele>256.2</ele><time>2026-05-04T17:21:03Z</time></trkpt><trkpt lat="41.35502707194418" lon="1.7990824687947795"><ele>257.4</ele><time>2026-05-04T17:21:04Z</time></trkpt><trkpt lat="41.35499627304042" lon="1.7992052923913222"><ele>258.6</ele><time>2026-05-04T17:21:05Z</time></trkpt><trkpt lat="41.354964144104464" lon="1.7993275262439903"><ele>259.8</ele><time>2026-05-04T17:21:06Z</time></trkpt><trkpt lat="41.35493321761131" lon="1.7994491550769451"><ele>261.0</ele><time>2026-05-04T17:21:07Z</time></trkpt><trkpt lat="41.35490404026063" lon="1.799568618373009"><ele>261.8</ele><time>2026-05-04T17:21:08Z</time></trkpt><trkpt lat="41.35487447782316" lon="1.7996855675486365"><ele>262.6</ele><time>2026-05-04T17:21:09Z</time></trkpt><trkpt lat="41.35484466947054" lon="1.799803385482336"><ele>263.4</ele><time>2026-05-04T17:21:10Z</time></trkpt><trkpt lat="41.354807405064136" lon="1.7999167313232145"><ele>264.2</ele><time>2026-05-04T17:21:11Z</time></trkpt><trkpt lat="41.354775343087155" lon="1.8000330047884636"><ele>265.0</ele><time>2026-05-04T17:21:12Z</time></trkpt><trkpt lat="41.354742928842484" lon="1.800150115969215"><ele>265.2</ele><time>2026-05-04T17:21:13Z</time></trkpt><trkpt lat="41.35470877541561" lon="1.8002714794087573"><ele>265.4</ele><time>2026-05-04T17:21:14Z</time></trkpt><trkpt lat="41.3546763277522" lon="1.8003950943466103"><ele>265.6</ele><time>2026-05-04T17:21:15Z</time></trkpt><trkpt lat="41.354644078185856" lon="1.800527320531133"><ele>265.8</ele><time>2026-05-04T17:21:16Z</time></trkpt><trkpt lat="41.35461517594241" lon="1.8006592343841554"><ele>266.0</ele><time>2026-05-04T17:21:17Z</time></trkpt><trkpt lat="41.354579604368055" lon="1.800793550592968"><ele>265.0</ele><time>2026-05-04T17:21:18Z</time></trkpt><trkpt lat="41.35454064891459" lon="1.8009113124600438"><ele>264.0</ele><time>2026-05-04T17:21:19Z</time></trkpt><trkpt lat="41.354485489830644" lon="1.801010663966111"><ele>263.0</ele><time>2026-05-04T17:21:20Z</time></trkpt><trkpt lat="41.354392134866345" lon="1.8010749722444723"><ele>262.0</ele><time>2026-05-04T17:21:21Z</time></trkpt><trkpt lat="41.354285364700026" lon="1.801115130148602"><ele>261.0</ele><time>2026-05-04T17:21:22Z</time></trkpt><trkpt lat="41.35417786151709" lon="1.8011715267153416"><ele>257.6</ele><time>2026-05-04T17:21:23Z</time></trkpt><trkpt lat="41.35406935388701" lon="1.8012268117201178"><ele>254.20000000000002</ele><time>2026-05-04T17:21:24Z</time></trkpt><trkpt lat="41.353968529252626" lon="1.8012631400366506"><ele>250.79999999999998</ele><time>2026-05-04T17:21:25.001Z</time></trkpt><trkpt lat="41.35386194578502" lon="1.801256892353549"><ele>247.39999999999998</ele><time>2026-05-04T17:21:26.001Z</time></trkpt><trkpt lat="41.35375450221491" lon="1.8012357390101414"><ele>244.0</ele><time>2026-05-04T17:21:27.001Z</time></trkpt><trkpt lat="41.35363749371402" lon="1.8012062589731517"><ele>244.0</ele><time>2026-05-04T17:21:28.001Z</time></trkpt><trkpt lat="41.3535279716316" lon="1.8011629949123897"><ele>244.0</ele><time>2026-05-04T17:21:29.001Z</time></trkpt><trkpt lat="41.35341914795469" lon="1.8011166296203116"><ele>244.0</ele><time>2026-05-04T17:21:30.001Z</time></trkpt><trkpt lat="41.35330821626149" lon="1.8010641577388118"><ele>244.0</ele><time>2026-05-04T17:21:31.001Z</time></trkpt><trkpt lat="41.35320037497561" lon="1.801023575192966"><ele>244.0</ele><time>2026-05-04T17:21:32.001Z</time></trkpt><trkpt lat="41.35308887643143" lon="1.8010076366729064"><ele>244.0</ele><time>2026-05-04T17:21:33.001Z</time></trkpt><trkpt lat="41.352963884351794" lon="1.8010166783696036"><ele>244.0</ele><time>2026-05-04T17:21:34.001Z</time></trkpt><trkpt lat="41.352844129201706" lon="1.801032989274789"><ele>244.0</ele><time>2026-05-04T17:21:35.001Z</time></trkpt><trkpt lat="41.35272790145417" lon="1.8010558442720623"><ele>243.75</ele><time>2026-05-04T17:21:36.001Z</time></trkpt><trkpt lat="41.35261193658791" lon="1.8010904951276308"><ele>243.5</ele><time>2026-05-04T17:21:37.001Z</time></trkpt><trkpt lat="41.352500605505675" lon="1.8011565027570529"><ele>243.25</ele><time>2026-05-04T17:21:38.001Z</time></trkpt><trkpt lat="41.35238705055371" lon="1.8011991417936484"><ele>243.0</ele><time>2026-05-04T17:21:39.001Z</time></trkpt><trkpt lat="41.35227771827615" lon="1.801266521354738"><ele>244.0</ele><time>2026-05-04T17:21:40.001Z</time></trkpt><trkpt lat="41.35216815384448" lon="1.8013395279157154"><ele>245.0</ele><time>2026-05-04T17:21:41.001Z</time></trkpt><trkpt lat="41.35206227010046" lon="1.8014082443372883"><ele>246.0</ele><time>2026-05-04T17:21:42.001Z</time></trkpt><trkpt lat="41.351966979940094" lon="1.8014987337635253"><ele>247.0</ele><time>2026-05-04T17:21:43.001Z</time></trkpt><trkpt lat="41.35188603606407" lon="1.8016241800163315"><ele>247.0</ele><time>2026-05-04T17:21:44.001Z</time></trkpt><trkpt lat="41.35181692359404" lon="1.801763402953102"><ele>247.0</ele><time>2026-05-04T17:21:45.001Z</time></trkpt><trkpt lat="41.35175758502024" lon="1.8019090983958188"><ele>247.0</ele><time>2026-05-04T17:21:46.001Z</time></trkpt><trkpt lat="41.35168351363443" lon="1.8020282560678784"><ele>247.0</ele><time>2026-05-04T17:21:47.001Z</time></trkpt><trkpt lat="41.351616472774886" lon="1.8021454963046817"><ele>243.75</ele><time>2026-05-04T17:21:48.001Z</time></trkpt><trkpt lat="41.351535236861174" lon="1.8022542272099522"><ele>240.5</ele><time>2026-05-04T17:21:49.001Z</time></trkpt><trkpt lat="41.35143351015435" lon="1.8023276511367177"><ele>237.25</ele><time>2026-05-04T17:21:50.001Z</time></trkpt><trkpt lat="41.35132760118591" lon="1.8023950363527055"><ele>234.0</ele><time>2026-05-04T17:21:51.001Z</time></trkpt><trkpt lat="41.35122428564284" lon="1.802475390091447"><ele>234.0</ele><time>2026-05-04T17:21:52.001Z</time></trkpt><trkpt lat="41.35110426426545" lon="1.8024980235712569"><ele>234.0</ele><time>2026-05-04T17:21:53.001Z</time></trkpt><trkpt lat="41.350990273441596" lon="1.8025411137635297"><ele>234.0</ele><time>2026-05-04T17:21:54.001Z</time></trkpt><trkpt lat="41.350871826908154" lon="1.8025742482958065"><ele>234.0</ele><time>2026-05-04T17:21:55.001Z</time></trkpt><trkpt lat="41.35075691692606" lon="1.802628561731602"><ele>234.0</ele><time>2026-05-04T17:21:56.001Z</time></trkpt><trkpt lat="41.35064220200607" lon="1.8026547730855855"><ele>234.0</ele><time>2026-05-04T17:21:57.001Z</time></trkpt><trkpt lat="41.350553410018925" lon="1.8027471577790366"><ele>234.0</ele><time>2026-05-04T17:21:58.001Z</time></trkpt><trkpt lat="41.35050983700764" lon="1.8029147582169145"><ele>234.0</ele><time>2026-05-04T17:21:59.001Z</time></trkpt><trkpt lat="41.350515814248986" lon="1.8031035473090913"><ele>233.79999999999998</ele><time>2026-05-04T17:22:00.001Z</time></trkpt><trkpt lat="41.350536048049086" lon="1.8031941530613331"><ele>233.59999999999997</ele><time>2026-05-04T17:22:01.001Z</time></trkpt><trkpt lat="41.350548404029766" lon="1.8033264290443285"><ele>233.4</ele><time>2026-05-04T17:22:02.001Z</time></trkpt><trkpt lat="41.350533338104064" lon="1.8034547660813338"><ele>233.2</ele><time>2026-05-04T17:22:03.001Z</time></trkpt><trkpt lat="41.350517737279056" lon="1.8035738220933304"><ele>233.0</ele><time>2026-05-04T17:22:04.001Z</time></trkpt><trkpt lat="41.350485416426" lon="1.8037218152330248"><ele>232.5</ele><time>2026-05-04T17:22:05.001Z</time></trkpt><trkpt lat="41.35044785414828" lon="1.803967314109567"><ele>232.0</ele><time>2026-05-04T17:22:06.001Z</time></trkpt><trkpt lat="41.35041050008561" lon="1.804211450931061"><ele>231.5</ele><time>2026-05-04T17:22:07.001Z</time></trkpt><trkpt lat="41.350475366624615" lon="1.8042048094874903"><ele>231.0</ele><time>2026-05-04T17:22:08.001Z</time></trkpt><trkpt lat="41.35045518300828" lon="1.8043436555503336"><ele>231.8</ele><time>2026-05-04T17:22:09.001Z</time></trkpt><trkpt lat="41.35043629434413" lon="1.8044849482328442"><ele>232.60000000000002</ele><time>2026-05-04T17:22:10.001Z</time></trkpt><trkpt lat="41.35041333548368" lon="1.804628135803276"><ele>233.4</ele><time>2026-05-04T17:22:11.001Z</time></trkpt><trkpt lat="41.35039042394022" lon="1.804773081735964"><ele>234.2</ele><time>2026-05-04T17:22:12.001Z</time></trkpt><trkpt lat="41.35036583564488" lon="1.8049189283670497"><ele>235.0</ele><time>2026-05-04T17:22:13.001Z</time></trkpt><trkpt lat="41.35034214196532" lon="1.805061097769327"><ele>235.4</ele><time>2026-05-04T17:22:14.001Z</time></trkpt><trkpt lat="41.35031846557085" lon="1.8052025714001367"><ele>235.8</ele><time>2026-05-04T17:22:15.001Z</time></trkpt><trkpt lat="41.350297969138715" lon="1.8053432065794472"><ele>236.2</ele><time>2026-05-04T17:22:16.001Z</time></trkpt><trkpt lat="41.35028102496312" lon="1.8054875864464108"><ele>236.6</ele><time>2026-05-04T17:22:17.001Z</time></trkpt><trkpt lat="41.350270589316715" lon="1.80563548661377"><ele>237.0</ele><time>2026-05-04T17:22:18.001Z</time></trkpt><trkpt lat="41.35026107612406" lon="1.805777279457276"><ele>237.0</ele><time>2026-05-04T17:22:19.001Z</time></trkpt><trkpt lat="41.35025470439376" lon="1.8059237357425464"><ele>237.0</ele><time>2026-05-04T17:22:20.001Z</time></trkpt><trkpt lat="41.35024102745826" lon="1.8060679685597119"><ele>237.0</ele><time>2026-05-04T17:22:21.001Z</time></trkpt><trkpt lat="41.35023467484436" lon="1.8062111899135251"><ele>237.0</ele><time>2026-05-04T17:22:22.001Z</time></trkpt><trkpt lat="41.35022819160545" lon="1.8063549421004033"><ele>237.0</ele><time>2026-05-04T17:22:23.001Z</time></trkpt><trkpt lat="41.35021969963227" lon="1.8064951724289309"><ele>238.0</ele><time>2026-05-04T17:22:24.001Z</time></trkpt><trkpt lat="41.35021135470682" lon="1.8066396849474593"><ele>239.0</ele><time>2026-05-04T17:22:25.001Z</time></trkpt><trkpt lat="41.35020228970724" lon="1.8067822265136753"><ele>240.0</ele><time>2026-05-04T17:22:26.001Z</time></trkpt><trkpt lat="41.35019467870369" lon="1.8069236468490966"><ele>241.0</ele><time>2026-05-04T17:22:27.001Z</time></trkpt><trkpt lat="41.35018057858249" lon="1.807062043938418"><ele>242.0</ele><time>2026-05-04T17:22:28.001Z</time></trkpt><trkpt lat="41.35017189894662" lon="1.807200955976565"><ele>242.8</ele><time>2026-05-04T17:22:29.001Z</time></trkpt><trkpt lat="41.350167583760225" lon="1.8073367327923324"><ele>243.6</ele><time>2026-05-04T17:22:30.001Z</time></trkpt><trkpt lat="41.35018124916506" lon="1.8074759107638263"><ele>244.40000000000003</ele><time>2026-05-04T17:22:31.001Z</time></trkpt><trkpt lat="41.35020989298261" lon="1.807609283291045"><ele>245.20000000000002</ele><time>2026-05-04T17:22:32.001Z</time></trkpt><trkpt lat="41.350255981825846" lon="1.807736800977691"><ele>246.0</ele><time>2026-05-04T17:22:33.001Z</time></trkpt><trkpt lat="41.350305980729374" lon="1.8078569080513718"><ele>247.4</ele><time>2026-05-04T17:22:34.001Z</time></trkpt><trkpt lat="41.35034381983178" lon="1.8079820910434974"><ele>248.8</ele><time>2026-05-04T17:22:35.001Z</time></trkpt><trkpt lat="41.350388502047785" lon="1.8081056352194527"><ele>250.20000000000002</ele><time>2026-05-04T17:22:36.001Z</time></trkpt><trkpt lat="41.35045496653111" lon="1.8082156990193412"><ele>251.60000000000002</ele><time>2026-05-04T17:22:37.002Z</time></trkpt><trkpt lat="41.35052990185072" lon="1.8083163239404327"><ele>253.0</ele><time>2026-05-04T17:22:38.002Z</time></trkpt><trkpt lat="41.35060343944281" lon="1.8084195025178602"><ele>253.8</ele><time>2026-05-04T17:22:39.002Z</time></trkpt><trkpt lat="41.35067391312656" lon="1.8085270836783283"><ele>254.60000000000002</ele><time>2026-05-04T17:22:40.002Z</time></trkpt><trkpt lat="41.35074239585803" lon="1.8086399334347738"><ele>255.39999999999998</ele><time>2026-05-04T17:22:41Z</time></trkpt><trkpt lat="41.35079618432114" lon="1.8087659210777547"><ele>256.2</ele><time>2026-05-04T17:22:42Z</time></trkpt><trkpt lat="41.35082753345004" lon="1.8089034716205707"><ele>257.0</ele><time>2026-05-04T17:22:43Z</time></trkpt><trkpt lat="41.350851394160145" lon="1.8090456330377158"><ele>257.0</ele><time>2026-05-04T17:22:44Z</time></trkpt><trkpt lat="41.35085039324228" lon="1.809189025372692"><ele>257.0</ele><time>2026-05-04T17:22:45Z</time></trkpt><trkpt lat="41.35085552981944" lon="1.8093236940744488"><ele>257.0</ele><time>2026-05-04T17:22:46Z</time></trkpt><trkpt lat="41.35086105786883" lon="1.809461046262268"><ele>257.0</ele><time>2026-05-04T17:22:47Z</time></trkpt><trkpt lat="41.35086889782712" lon="1.8095856633699554"><ele>257.0</ele><time>2026-05-04T17:22:48Z</time></trkpt><trkpt lat="41.350940800254534" lon="1.809730724939481"><ele>257.0</ele><time>2026-05-04T17:22:49Z</time></trkpt><trkpt lat="41.351015498988914" lon="1.8098489873114845"><ele>257.0</ele><time>2026-05-04T17:22:50Z</time></trkpt><trkpt lat="41.351083889589255" lon="1.8099587361856753"><ele>257.0</ele><time>2026-05-04T17:22:51Z</time></trkpt><trkpt lat="41.35112305265378" lon="1.8100893233897613"><ele>257.0</ele><time>2026-05-04T17:22:52Z</time></trkpt><trkpt lat="41.351154883958" lon="1.8102064160937703"><ele>257.0</ele><time>2026-05-04T17:22:53Z</time></trkpt><trkpt lat="41.35115034310996" lon="1.8103558081963254"><ele>257.8</ele><time>2026-05-04T17:22:54Z</time></trkpt><trkpt lat="41.351113651431874" lon="1.8104934758895102"><ele>258.6</ele><time>2026-05-04T17:22:55Z</time></trkpt><trkpt lat="41.35106391207792" lon="1.8106729596588647"><ele>259.40000000000003</ele><time>2026-05-04T17:22:56Z</time></trkpt><trkpt lat="41.35103709099215" lon="1.8107652131070733"><ele>260.2</ele><time>2026-05-04T17:22:57Z</time></trkpt><trkpt lat="41.35099706952906" lon="1.8109021262609564"><ele>261.0</ele><time>2026-05-04T17:22:58Z</time></trkpt><trkpt lat="41.35097168608244" lon="1.8110278950037295"><ele>261.6</ele><time>2026-05-04T17:22:59Z</time></trkpt><trkpt lat="41.35091572239051" lon="1.8111632126182808"><ele>262.20000000000005</ele><time>2026-05-04T17:23:00Z</time></trkpt><trkpt lat="41.350889700406626" lon="1.811280204909352"><ele>262.79999999999995</ele><time>2026-05-04T17:23:01Z</time></trkpt><trkpt lat="41.350883340330505" lon="1.8113948758691365"><ele>263.4</ele><time>2026-05-04T17:23:02Z</time></trkpt><trkpt lat="41.35090189409554" lon="1.8115046344251213"><ele>264.0</ele><time>2026-05-04T17:23:03Z</time></trkpt><trkpt lat="41.35095651579006" lon="1.811610937764121"><ele>264.0</ele><time>2026-05-04T17:23:04Z</time></trkpt><trkpt lat="41.35103327125647" lon="1.8116953472748425"><ele>264.0</ele><time>2026-05-04T17:23:05Z</time></trkpt><trkpt lat="41.35110046123061" lon="1.8117727976007474"><ele>264.0</ele><time>2026-05-04T17:23:06Z</time></trkpt><trkpt lat="41.35116797452904" lon="1.8118552549863294"><ele>264.0</ele><time>2026-05-04T17:23:07Z</time></trkpt><trkpt lat="41.35123082789642" lon="1.81194388241189"><ele>264.0</ele><time>2026-05-04T17:23:08Z</time></trkpt><trkpt lat="41.3512954746066" lon="1.8120279893362308"><ele>264.8</ele><time>2026-05-04T17:23:09Z</time></trkpt><trkpt lat="41.351364777742646" lon="1.8121061967675463"><ele>265.59999999999997</ele><time>2026-05-04T17:23:10Z</time></trkpt><trkpt lat="41.351445602149845" lon="1.8121580993606834"><ele>266.4</ele><time>2026-05-04T17:23:11Z</time></trkpt><trkpt lat="41.35154126442513" lon="1.8121695724585851"><ele>267.2</ele><time>2026-05-04T17:23:12Z</time></trkpt><trkpt lat="41.351634243596614" lon="1.8122005769797513"><ele>268.0</ele><time>2026-05-04T17:23:13Z</time></trkpt><trkpt lat="41.35170373290577" lon="1.8122928151910427"><ele>269.0</ele><time>2026-05-04T17:23:14Z</time></trkpt><trkpt lat="41.35174009328143" lon="1.8123978181573577"><ele>270.0</ele><time>2026-05-04T17:23:15Z</time></trkpt><trkpt lat="41.351743829327205" lon="1.8124956649242328"><ele>271.0</ele><time>2026-05-04T17:23:16Z</time></trkpt><trkpt lat="41.351712299548396" lon="1.8125832742083123"><ele>272.0</ele><time>2026-05-04T17:23:17Z</time></trkpt><trkpt lat="41.35163411084523" lon="1.8126277507751674"><ele>273.0</ele><time>2026-05-04T17:23:18Z</time></trkpt><trkpt lat="41.35155392803976" lon="1.812586214294781"><ele>274.0</ele><time>2026-05-04T17:23:19Z</time></trkpt><trkpt lat="41.351497824862356" lon="1.81253414385645"><ele>274.0</ele><time>2026-05-04T17:23:20Z</time></trkpt><trkpt lat="41.3514264915521" lon="1.8125231991780886"><ele>274.0</ele><time>2026-05-04T17:23:21.001Z</time></trkpt><trkpt lat="41.35135092943233" lon="1.8125260043535967"><ele>274.0</ele><time>2026-05-04T17:23:22.001Z</time></trkpt><trkpt lat="41.351270544311284" lon="1.812537834892981"><ele>274.0</ele><time>2026-05-04T17:23:23.001Z</time></trkpt><trkpt lat="41.35119085505087" lon="1.8125624795324948"><ele>274.0</ele><time>2026-05-04T17:23:24.001Z</time></trkpt><trkpt lat="41.351114847059414" lon="1.812612997717083"><ele>274.0</ele><time>2026-05-04T17:23:25.001Z</time></trkpt><trkpt lat="41.351060003820024" lon="1.8127119017474767"><ele>274.66666666666663</ele><time>2026-05-04T17:23:26.001Z</time></trkpt><trkpt lat="41.35101302315486" lon="1.8128089032009753"><ele>275.3333333333333</ele><time>2026-05-04T17:23:27.001Z</time></trkpt><trkpt lat="41.35097169616622" lon="1.8129090444682419"><ele>276.0</ele><time>2026-05-04T17:23:28.001Z</time></trkpt><trkpt lat="41.35093995436127" lon="1.8130154508592686"><ele>276.6666666666667</ele><time>2026-05-04T17:23:29.001Z</time></trkpt><trkpt lat="41.35092279240586" lon="1.8131248432163745"><ele>277.33333333333337</ele><time>2026-05-04T17:23:30.001Z</time></trkpt><trkpt lat="41.35088670117509" lon="1.813238021310387"><ele>278.0</ele><time>2026-05-04T17:23:31.001Z</time></trkpt><trkpt lat="41.35086178727517" lon="1.8133510123409788"><ele>278.0</ele><time>2026-05-04T17:23:32.001Z</time></trkpt><trkpt lat="41.35084844087157" lon="1.8134706675815515"><ele>278.0</ele><time>2026-05-04T17:23:33.001Z</time></trkpt><trkpt lat="41.35080905417334" lon="1.8135778917501513"><ele>278.0</ele><time>2026-05-04T17:23:34.001Z</time></trkpt><trkpt lat="41.35077224172519" lon="1.8136805484044793"><ele>278.0</ele><time>2026-05-04T17:23:35.001Z</time></trkpt><trkpt lat="41.35071627539899" lon="1.813763214394936"><ele>278.0</ele><time>2026-05-04T17:23:36.001Z</time></trkpt><trkpt lat="41.350632727652965" lon="1.8138087525108963"><ele>278.0</ele><time>2026-05-04T17:23:37.001Z</time></trkpt><trkpt lat="41.35054635807811" lon="1.8137561347095668"><ele>278.5</ele><time>2026-05-04T17:23:38.001Z</time></trkpt><trkpt lat="41.35047148740329" lon="1.8136920398548921"><ele>279.0</ele><time>2026-05-04T17:23:39.001Z</time></trkpt><trkpt lat="41.350402145928435" lon="1.8136202346867227"><ele>279.5</ele><time>2026-05-04T17:23:40.001Z</time></trkpt><trkpt lat="41.35032924236033" lon="1.8135495293986519"><ele>280.0</ele><time>2026-05-04T17:23:41.001Z</time></trkpt><trkpt lat="41.35025723012873" lon="1.813484766414495"><ele>280.5</ele><time>2026-05-04T17:23:42.001Z</time></trkpt><trkpt lat="41.35017646160333" lon="1.8134402148389475"><ele>281.0</ele><time>2026-05-04T17:23:43.001Z</time></trkpt><trkpt lat="41.350102333528014" lon="1.8133771531578524"><ele>281.0</ele><time>2026-05-04T17:23:44.001Z</time></trkpt><trkpt lat="41.350025061800466" lon="1.8133207729393719"><ele>281.0</ele><time>2026-05-04T17:23:45.001Z</time></trkpt><trkpt lat="41.349954455634276" lon="1.8132492788096626"><ele>281.0</ele><time>2026-05-04T17:23:46.001Z</time></trkpt><trkpt lat="41.34985332857137" lon="1.8132463762608606"><ele>281.0</ele><time>2026-05-04T17:23:47.001Z</time></trkpt><trkpt lat="41.34975995353808" lon="1.8132682346539106"><ele>281.0</ele><time>2026-05-04T17:23:48.001Z</time></trkpt><trkpt lat="41.34967173613904" lon="1.8133144580232436"><ele>281.1666666666667</ele><time>2026-05-04T17:23:49.001Z</time></trkpt><trkpt lat="41.349602477142284" lon="1.8133760987005587"><ele>281.33333333333337</ele><time>2026-05-04T17:23:50.001Z</time></trkpt><trkpt lat="41.34952568765678" lon="1.813430629701065"><ele>281.5</ele><time>2026-05-04T17:23:51.001Z</time></trkpt><trkpt lat="41.34943836714894" lon="1.8134688166906934"><ele>281.6666666666667</ele><time>2026-05-04T17:23:52.001Z</time></trkpt><trkpt lat="41.349354877825405" lon="1.8135277175415156"><ele>281.8333333333333</ele><time>2026-05-04T17:23:53.001Z</time></trkpt><trkpt lat="41.34927628930134" lon="1.813591380352814"><ele>282.0</ele><time>2026-05-04T17:23:54.001Z</time></trkpt><trkpt lat="41.34920227944877" lon="1.8136724627934402"><ele>284.2</ele><time>2026-05-04T17:23:55.001Z</time></trkpt><trkpt lat="41.34914169040169" lon="1.813776643748567"><ele>286.4</ele><time>2026-05-04T17:23:56.001Z</time></trkpt><trkpt lat="41.3491151362859" lon="1.8138990833146813"><ele>288.6</ele><time>2026-05-04T17:23:57.001Z</time></trkpt><trkpt lat="41.349094869157824" lon="1.8140216889703384"><ele>290.8</ele><time>2026-05-04T17:23:58.001Z</time></trkpt><trkpt lat="41.34907792390092" lon="1.8141424846659908"><ele>293.0</ele><time>2026-05-04T17:23:59.001Z</time></trkpt><trkpt lat="41.349070178374504" lon="1.8142635240767206"><ele>294.6</ele><time>2026-05-04T17:24:00.001Z</time></trkpt><trkpt lat="41.349061467148644" lon="1.8143859743485122"><ele>296.20000000000005</ele><time>2026-05-04T17:24:01.001Z</time></trkpt><trkpt lat="41.34904356149004" lon="1.8145062999895734"><ele>297.8</ele><time>2026-05-04T17:24:02.001Z</time></trkpt><trkpt lat="41.34902706576563" lon="1.8146313108353955"><ele>299.40000000000003</ele><time>2026-05-04T17:24:03.001Z</time></trkpt><trkpt lat="41.34900762281246" lon="1.814752830771969"><ele>301.0</ele><time>2026-05-04T17:24:04.001Z</time></trkpt><trkpt lat="41.34899493336829" lon="1.814877273817306"><ele>301.0</ele><time>2026-05-04T17:24:05.001Z</time></trkpt><trkpt lat="41.34899625450222" lon="1.8150063277933257"><ele>301.0</ele><time>2026-05-04T17:24:06.001Z</time></trkpt><trkpt lat="41.34900233626117" lon="1.8151347823409176"><ele>301.0</ele><time>2026-05-04T17:24:07.001Z</time></trkpt><trkpt lat="41.349013284470736" lon="1.815261078380213"><ele>301.0</ele><time>2026-05-04T17:24:08.001Z</time></trkpt><trkpt lat="41.34902819887242" lon="1.815384281037923"><ele>301.0</ele><time>2026-05-04T17:24:09.001Z</time></trkpt><trkpt lat="41.349032957523235" lon="1.815517065747767"><ele>301.2</ele><time>2026-05-04T17:24:10.001Z</time></trkpt><trkpt lat="41.34903932684569" lon="1.815640918053118"><ele>301.40000000000003</ele><time>2026-05-04T17:24:11.001Z</time></trkpt><trkpt lat="41.34905727642528" lon="1.8157663830438266"><ele>301.6</ele><time>2026-05-04T17:24:12.001Z</time></trkpt><trkpt lat="41.34906256424958" lon="1.8158943192828685"><ele>301.8</ele><time>2026-05-04T17:24:13.001Z</time></trkpt><trkpt lat="41.34906912168385" lon="1.8160221339236229"><ele>302.0</ele><time>2026-05-04T17:24:14.001Z</time></trkpt><trkpt lat="41.349076524121564" lon="1.816152600479546"><ele>301.2</ele><time>2026-05-04T17:24:15.001Z</time></trkpt><trkpt lat="41.34909418124101" lon="1.8162765302444699"><ele>300.4</ele><time>2026-05-04T17:24:16.001Z</time></trkpt><trkpt lat="41.34910972311158" lon="1.816406622625212"><ele>299.6</ele><time>2026-05-04T17:24:17.001Z</time></trkpt><trkpt lat="41.34912721849012" lon="1.8165387523427985"><ele>298.8</ele><time>2026-05-04T17:24:18.001Z</time></trkpt><trkpt lat="41.34914977368247" lon="1.8166712409330081"><ele>298.0</ele><time>2026-05-04T17:24:19.001Z</time></trkpt><trkpt lat="41.34917220823314" lon="1.8168057130201245"><ele>298.4</ele><time>2026-05-04T17:24:20.001Z</time></trkpt><trkpt lat="41.349199536004015" lon="1.8169416275719648"><ele>298.8</ele><time>2026-05-04T17:24:21.001Z</time></trkpt><trkpt lat="41.34922911351293" lon="1.8170805784296595"><ele>299.2</ele><time>2026-05-04T17:24:22.001Z</time></trkpt><trkpt lat="41.3492609787882" lon="1.8172146645963967"><ele>299.6</ele><time>2026-05-04T17:24:23.001Z</time></trkpt><trkpt lat="41.34930109207345" lon="1.8173474389510271"><ele>300.0</ele><time>2026-05-04T17:24:24.001Z</time></trkpt><trkpt lat="41.34935606085025" lon="1.8174694267927771"><ele>300.0</ele><time>2026-05-04T17:24:25.001Z</time></trkpt><trkpt lat="41.349422236487456" lon="1.8175881616723795"><ele>300.0</ele><time>2026-05-04T17:24:26.001Z</time></trkpt><trkpt lat="41.349500287231166" lon="1.8177021964956617"><ele>300.0</ele><time>2026-05-04T17:24:27.001Z</time></trkpt><trkpt lat="41.34958497584262" lon="1.8177998259582844"><ele>300.0</ele><time>2026-05-04T17:24:28.001Z</time></trkpt><trkpt lat="41.34966410110661" lon="1.8178878875896594"><ele>300.0</ele><time>2026-05-04T17:24:29.001Z</time></trkpt><trkpt lat="41.3497414232594" lon="1.8179605310794442"><ele>300.25</ele><time>2026-05-04T17:24:30.001Z</time></trkpt><trkpt lat="41.34983147457599" lon="1.8181103000327896"><ele>300.5</ele><time>2026-05-04T17:24:31.001Z</time></trkpt><trkpt lat="41.349909745223684" lon="1.8182260857060006"><ele>300.75</ele><time>2026-05-04T17:24:32.001Z</time></trkpt><trkpt lat="41.34998779823233" lon="1.8183471612733"><ele>301.0</ele><time>2026-05-04T17:24:33.001Z</time></trkpt><trkpt lat="41.350061472614705" lon="1.8184926693467"><ele>301.16666666666663</ele><time>2026-05-04T17:24:34.001Z</time></trkpt><trkpt lat="41.35010153116359" lon="1.818628900373854"><ele>301.3333333333333</ele><time>2026-05-04T17:24:35.001Z</time></trkpt><trkpt lat="41.350132042756655" lon="1.8187136660172079"><ele>301.5</ele><time>2026-05-04T17:24:36.001Z</time></trkpt><trkpt lat="41.350157395740254" lon="1.8188302308431"><ele>301.6666666666667</ele><time>2026-05-04T17:24:37.001Z</time></trkpt><trkpt lat="41.35016778240931" lon="1.8189450081799"><ele>301.83333333333337</ele><time>2026-05-04T17:24:38.002Z</time></trkpt><trkpt lat="41.35014326206794" lon="1.819051389349528"><ele>302.0</ele><time>2026-05-04T17:24:39.002Z</time></trkpt><trkpt lat="41.35007759425275" lon="1.819132990645092"><ele>302.0</ele><time>2026-05-04T17:24:40.002Z</time></trkpt><trkpt lat="41.34996800593585" lon="1.819085042739907"><ele>302.0</ele><time>2026-05-04T17:24:41.002Z</time></trkpt><trkpt lat="41.34988095063609" lon="1.8190784758650718"><ele>302.0</ele><time>2026-05-04T17:24:42.002Z</time></trkpt><trkpt lat="41.349786002548406" lon="1.81907173265626"><ele>302.0</ele><time>2026-05-04T17:24:43.002Z</time></trkpt><trkpt lat="41.34968753427862" lon="1.819078415235771"><ele>302.0</ele><time>2026-05-04T17:24:44.002Z</time></trkpt><trkpt lat="41.34958482550664" lon="1.819104959991492"><ele>300.2</ele><time>2026-05-04T17:24:45.002Z</time></trkpt><trkpt lat="41.349494647038085" lon="1.819177434604742"><ele>298.4</ele><time>2026-05-04T17:24:46.002Z</time></trkpt><trkpt lat="41.34943991945214" lon="1.8193010488675454"><ele>296.6</ele><time>2026-05-04T17:24:47Z</time></trkpt><trkpt lat="41.34942183102145" lon="1.8194428377795109"><ele>294.8</ele><time>2026-05-04T17:24:48Z</time></trkpt><trkpt lat="41.34944386106876" lon="1.819578809025527"><ele>293.0</ele><time>2026-05-04T17:24:49Z</time></trkpt><trkpt lat="41.34946233627835" lon="1.8197107637223702"><ele>293.0</ele><time>2026-05-04T17:24:50Z</time></trkpt><trkpt lat="41.349471063230155" lon="1.8198469019248076"><ele>293.0</ele><time>2026-05-04T17:24:51Z</time></trkpt><trkpt lat="41.34947554284542" lon="1.8199931384569041"><ele>293.0</ele><time>2026-05-04T17:24:52Z</time></trkpt><trkpt lat="41.349495812440125" lon="1.8201299327521778"><ele>293.0</ele><time>2026-05-04T17:24:53Z</time></trkpt><trkpt lat="41.34954323384491" lon="1.8202532357837515"><ele>293.0</ele><time>2026-05-04T17:24:54Z</time></trkpt><trkpt lat="41.34961254793086" lon="1.8203631082940204"><ele>292.5</ele><time>2026-05-04T17:24:55Z</time></trkpt><trkpt lat="41.34970566865022" lon="1.8204470186682242"><ele>292.0</ele><time>2026-05-04T17:24:56Z</time></trkpt><trkpt lat="41.349810398568394" lon="1.820498709873128"><ele>291.5</ele><time>2026-05-04T17:24:57Z</time></trkpt><trkpt lat="41.34992079399901" lon="1.8205270330682726"><ele>291.0</ele><time>2026-05-04T17:24:58Z</time></trkpt><trkpt lat="41.350035347919246" lon="1.8205889158449349"><ele>290.25</ele><time>2026-05-04T17:24:59Z</time></trkpt><trkpt lat="41.350148266499446" lon="1.8207254518424414"><ele>289.5</ele><time>2026-05-04T17:25:00Z</time></trkpt><trkpt lat="41.35022677394813" lon="1.8209111761957595"><ele>288.75</ele><time>2026-05-04T17:25:01Z</time></trkpt><trkpt lat="41.350268495211814" lon="1.8210400988403193"><ele>288.0</ele><time>2026-05-04T17:25:03Z</time></trkpt><trkpt lat="41.35032088103378" lon="1.8211716649997012"><ele>288.0</ele><time>2026-05-04T17:25:04Z</time></trkpt><trkpt lat="41.350354563458" lon="1.8213161084082232"><ele>288.0</ele><time>2026-05-04T17:25:05Z</time></trkpt><trkpt lat="41.350401155975085" lon="1.8214464884874226"><ele>288.0</ele><time>2026-05-04T17:25:06Z</time></trkpt><trkpt lat="41.35046420632909" lon="1.821552624133372"><ele>288.0</ele><time>2026-05-04T17:25:07Z</time></trkpt><trkpt lat="41.35055701034487" lon="1.8216337920869263"><ele>288.0</ele><time>2026-05-04T17:25:08Z</time></trkpt><trkpt lat="41.35066585660061" lon="1.8216790950637454"><ele>288.25</ele><time>2026-05-04T17:25:09Z</time></trkpt><trkpt lat="41.35078017206901" lon="1.8217241543005656"><ele>288.5</ele><time>2026-05-04T17:25:10Z</time></trkpt><trkpt lat="41.35089438091676" lon="1.8217628277953"><ele>288.75</ele><time>2026-05-04T17:25:11Z</time></trkpt><trkpt lat="41.35100930321957" lon="1.8218050834451844"><ele>289.0</ele><time>2026-05-04T17:25:12Z</time></trkpt><trkpt lat="41.35112108471408" lon="1.8218470431690694"><ele>289.0</ele><time>2026-05-04T17:25:13Z</time></trkpt><trkpt lat="41.35123348734756" lon="1.8218935030143866"><ele>289.0</ele><time>2026-05-04T17:25:14Z</time></trkpt><trkpt lat="41.35134767321575" lon="1.8219366966751454"><ele>289.0</ele><time>2026-05-04T17:25:15Z</time></trkpt><trkpt lat="41.35145562433076" lon="1.8219715871755011"><ele>289.0</ele><time>2026-05-04T17:25:16Z</time></trkpt><trkpt lat="41.35155228734623" lon="1.8220135640138875"><ele>289.0</ele><time>2026-05-04T17:25:17Z</time></trkpt><trkpt lat="41.351640812070386" lon="1.8220780179202816"><ele>290.0</ele><time>2026-05-04T17:25:18Z</time></trkpt><trkpt lat="41.35170228795997" lon="1.8221850915030406"><ele>291.0</ele><time>2026-05-04T17:25:19Z</time></trkpt><trkpt lat="41.35164402350609" lon="1.8223198376011978"><ele>292.0</ele><time>2026-05-04T17:25:20Z</time></trkpt><trkpt lat="41.3516095421546" lon="1.8224394174463872"><ele>293.0</ele><time>2026-05-04T17:25:21Z</time></trkpt><trkpt lat="41.35157892054974" lon="1.8225808097613814"><ele>294.0</ele><time>2026-05-04T17:25:22Z</time></trkpt><trkpt lat="41.35155475344008" lon="1.8227240636944926"><ele>294.0</ele><time>2026-05-04T17:25:23Z</time></trkpt><trkpt lat="41.35156613143775" lon="1.8228795010060577"><ele>294.0</ele><time>2026-05-04T17:25:24Z</time></trkpt><trkpt lat="41.351577865472244" lon="1.8230322703429234"><ele>294.0</ele><time>2026-05-04T17:25:25Z</time></trkpt><trkpt lat="41.35160285810316" lon="1.8231705950390744"><ele>294.0</ele><time>2026-05-04T17:25:26Z</time></trkpt><trkpt lat="41.35162735910233" lon="1.8233035900717378"><ele>294.0</ele><time>2026-05-04T17:25:27Z</time></trkpt><trkpt lat="41.35169811264019" lon="1.823417959698691"><ele>292.4</ele><time>2026-05-04T17:25:28Z</time></trkpt><trkpt lat="41.35179765742779" lon="1.823493683443502"><ele>290.79999999999995</ele><time>2026-05-04T17:25:29Z</time></trkpt><trkpt lat="41.35189674785531" lon="1.8235614337990627"><ele>289.20000000000005</ele><time>2026-05-04T17:25:30Z</time></trkpt><trkpt lat="41.351980361411755" lon="1.8236481055720597"><ele>287.6</ele><time>2026-05-04T17:25:31Z</time></trkpt><trkpt lat="41.352034285733424" lon="1.8237679003546017"><ele>286.0</ele><time>2026-05-04T17:25:32Z</time></trkpt><trkpt lat="41.35204201049634" lon="1.8239131364386303"><ele>286.0</ele><time>2026-05-04T17:25:33Z</time></trkpt><trkpt lat="41.35196796382808" lon="1.8240367973062814"><ele>286.0</ele><time>2026-05-04T17:25:34.001Z</time></trkpt><trkpt lat="41.351955360890344" lon="1.8241538152334977"><ele>286.0</ele><time>2026-05-04T17:25:35.001Z</time></trkpt><trkpt lat="41.351969992700845" lon="1.8242727773997247"><ele>286.0</ele><time>2026-05-04T17:25:36.001Z</time></trkpt><trkpt lat="41.35201740699744" lon="1.8243864317068288"><ele>286.0</ele><time>2026-05-04T17:25:37.001Z</time></trkpt><trkpt lat="41.35208455267785" lon="1.8244875125743465"><ele>285.8</ele><time>2026-05-04T17:25:38.001Z</time></trkpt><trkpt lat="41.35213964510344" lon="1.8245939257315151"><ele>285.6</ele><time>2026-05-04T17:25:39.001Z</time></trkpt><trkpt lat="41.35215752264062" lon="1.824730918623432"><ele>285.4</ele><time>2026-05-04T17:25:40.001Z</time></trkpt><trkpt lat="41.352138906355044" lon="1.824870867018612"><ele>285.2</ele><time>2026-05-04T17:25:41.001Z</time></trkpt><trkpt lat="41.35206895216934" lon="1.8249824210211556"><ele>285.0</ele><time>2026-05-04T17:25:42.001Z</time></trkpt><trkpt lat="41.35201232250612" lon="1.8251139055653036"><ele>284.6</ele><time>2026-05-04T17:25:43.001Z</time></trkpt><trkpt lat="41.35195634745732" lon="1.8252348641103298"><ele>284.2</ele><time>2026-05-04T17:25:44.001Z</time></trkpt><trkpt lat="41.35190051122859" lon="1.8253536449889047"><ele>283.8</ele><time>2026-05-04T17:25:45.001Z</time></trkpt><trkpt lat="41.35186824421678" lon="1.8254858237707823"><ele>283.4</ele><time>2026-05-04T17:25:46.001Z</time></trkpt><trkpt lat="41.35183898480377" lon="1.8256079568328731"><ele>283.0</ele><time>2026-05-04T17:25:47.001Z</time></trkpt><trkpt lat="41.35183855711092" lon="1.8257477704069884"><ele>283.0</ele><time>2026-05-04T17:25:48.001Z</time></trkpt><trkpt lat="41.35186712049464" lon="1.8258950939607757"><ele>283.0</ele><time>2026-05-04T17:25:49.001Z</time></trkpt><trkpt lat="41.35191777763535" lon="1.8260279620122375"><ele>283.0</ele><time>2026-05-04T17:25:50.001Z</time></trkpt><trkpt lat="41.35195712763769" lon="1.8261679695259216"><ele>283.0</ele><time>2026-05-04T17:25:51.001Z</time></trkpt><trkpt lat="41.352004250514" lon="1.8262973419750363"><ele>283.0</ele><time>2026-05-04T17:25:52.001Z</time></trkpt><trkpt lat="41.352076353939715" lon="1.8263995217584013"><ele>281.8</ele><time>2026-05-04T17:25:53.001Z</time></trkpt><trkpt lat="41.3521700877833" lon="1.8264789059487971"><ele>280.6</ele><time>2026-05-04T17:25:54.001Z</time></trkpt><trkpt lat="41.35227375947125" lon="1.8265344915261363"><ele>279.4</ele><time>2026-05-04T17:25:55.001Z</time></trkpt><trkpt lat="41.35235973919355" lon="1.8266014364703287"><ele>278.2</ele><time>2026-05-04T17:25:56.001Z</time></trkpt><trkpt lat="41.35243398051731" lon="1.8266982481104925"><ele>277.0</ele><time>2026-05-04T17:25:57.001Z</time></trkpt><trkpt lat="41.35247685357612" lon="1.8268194872809722"><ele>279.4</ele><time>2026-05-04T17:25:58.001Z</time></trkpt><trkpt lat="41.352474024009716" lon="1.8269536225304155"><ele>281.79999999999995</ele><time>2026-05-04T17:25:59.001Z</time></trkpt><trkpt lat="41.35239107500303" lon="1.827063430729064"><ele>284.2</ele><time>2026-05-04T17:26:00.001Z</time></trkpt><trkpt lat="41.352357343166155" lon="1.8271958974601137"><ele>286.59999999999997</ele><time>2026-05-04T17:26:01.001Z</time></trkpt><trkpt lat="41.35234595032182" lon="1.8273326622833872"><ele>289.0</ele><time>2026-05-04T17:26:02.001Z</time></trkpt><trkpt lat="41.3523457186364" lon="1.8274778169977903"><ele>289.0</ele><time>2026-05-04T17:26:03.001Z</time></trkpt><trkpt lat="41.352359710766464" lon="1.827619661710789"><ele>289.0</ele><time>2026-05-04T17:26:04.001Z</time></trkpt><trkpt lat="41.35237418465563" lon="1.8277629188433049"><ele>289.0</ele><time>2026-05-04T17:26:05.001Z</time></trkpt><trkpt lat="41.35238468475494" lon="1.827907029377858"><ele>289.0</ele><time>2026-05-04T17:26:06.001Z</time></trkpt><trkpt lat="41.3523920914011" lon="1.828050541370448"><ele>289.0</ele><time>2026-05-04T17:26:07.001Z</time></trkpt><trkpt lat="41.35241003885253" lon="1.828192879511354"><ele>288.4</ele><time>2026-05-04T17:26:08.001Z</time></trkpt><trkpt lat="41.35244646571473" lon="1.8283241084119166"><ele>287.79999999999995</ele><time>2026-05-04T17:26:09.001Z</time></trkpt><trkpt lat="41.35250693307939" lon="1.8284220967067362"><ele>287.20000000000005</ele><time>2026-05-04T17:26:10.001Z</time></trkpt><trkpt lat="41.35257814673364" lon="1.8285040419648342"><ele>286.6</ele><time>2026-05-04T17:26:11.001Z</time></trkpt><trkpt lat="41.35263920091118" lon="1.8285837163064975"><ele>286.0</ele><time>2026-05-04T17:26:12.001Z</time></trkpt><trkpt lat="41.352664943062535" lon="1.8286929466124429"><ele>286.0</ele><time>2026-05-04T17:26:13.001Z</time></trkpt><trkpt lat="41.35261345858835" lon="1.8288129641867463"><ele>286.0</ele><time>2026-05-04T17:26:14.001Z</time></trkpt><trkpt lat="41.35254620008703" lon="1.8289153508948408"><ele>286.0</ele><time>2026-05-04T17:26:15.001Z</time></trkpt><trkpt lat="41.35248263901886" lon="1.8290141730625125"><ele>286.0</ele><time>2026-05-04T17:26:16.001Z</time></trkpt><trkpt lat="41.352425888292146" lon="1.8291175143662406"><ele>286.0</ele><time>2026-05-04T17:26:17.001Z</time></trkpt><trkpt lat="41.35233310280241" lon="1.8291605150132104"><ele>286.0</ele><time>2026-05-04T17:26:18.001Z</time></trkpt><trkpt lat="41.35225082331373" lon="1.829220454469213"><ele>286.0</ele><time>2026-05-04T17:26:19.001Z</time></trkpt><trkpt lat="41.352165696194746" lon="1.8292799276517289"><ele>286.0</ele><time>2026-05-04T17:26:20.001Z</time></trkpt><trkpt lat="41.35209155902103" lon="1.8293500070336572"><ele>286.0</ele><time>2026-05-04T17:26:21.001Z</time></trkpt><trkpt lat="41.352005150726754" lon="1.8293996111421829"><ele>286.0</ele><time>2026-05-04T17:26:22.001Z</time></trkpt><trkpt lat="41.35192098970751" lon="1.82945373350904"><ele>287.2</ele><time>2026-05-04T17:26:23.001Z</time></trkpt><trkpt lat="41.35183554281291" lon="1.8295076149923715"><ele>288.40000000000003</ele><time>2026-05-04T17:26:24.001Z</time></trkpt><trkpt lat="41.35175263365009" lon="1.8295612647633868"><ele>289.6</ele><time>2026-05-04T17:26:25.001Z</time></trkpt><trkpt lat="41.3516754414494" lon="1.8296181038336263"><ele>290.8</ele><time>2026-05-04T17:26:26.001Z</time></trkpt><trkpt lat="41.351595402092045" lon="1.829668951903574"><ele>292.0</ele><time>2026-05-04T17:26:27.001Z</time></trkpt><trkpt lat="41.35151701634306" lon="1.829722826339894"><ele>292.0</ele><time>2026-05-04T17:26:28.001Z</time></trkpt><trkpt lat="41.351430229190115" lon="1.829745534116993"><ele>292.0</ele><time>2026-05-04T17:26:29.001Z</time></trkpt><trkpt lat="41.35134412621648" lon="1.8297517360360542"><ele>292.0</ele><time>2026-05-04T17:26:30.001Z</time></trkpt><trkpt lat="41.35126026175584" lon="1.8297141464816846"><ele>292.0</ele><time>2026-05-04T17:26:31.001Z</time></trkpt><trkpt lat="41.35117319257802" lon="1.8296776975576161"><ele>292.0</ele><time>2026-05-04T17:26:32.001Z</time></trkpt><trkpt lat="41.35111660924821" lon="1.8295820985225408"><ele>292.0</ele><time>2026-05-04T17:26:33.001Z</time></trkpt><trkpt lat="41.35106285955859" lon="1.8294901221458393"><ele>293.66666666666663</ele><time>2026-05-04T17:26:34.001Z</time></trkpt><trkpt lat="41.35100635808217" lon="1.829400631435329"><ele>295.3333333333333</ele><time>2026-05-04T17:26:35.001Z</time></trkpt><trkpt lat="41.35097939411351" lon="1.8292865891721675"><ele>297.0</ele><time>2026-05-04T17:26:36.001Z</time></trkpt><trkpt lat="41.350949048983" lon="1.8291816282188635"><ele>298.6666666666667</ele><time>2026-05-04T17:26:37.001Z</time></trkpt><trkpt lat="41.350909653815435" lon="1.8290828158107708"><ele>300.33333333333337</ele><time>2026-05-04T17:26:38.001Z</time></trkpt><trkpt lat="41.35086246110544" lon="1.8289920766411636"><ele>302.0</ele><time>2026-05-04T17:26:39.001Z</time></trkpt><trkpt lat="41.350802187923016" lon="1.8289100336908182"><ele>302.0</ele><time>2026-05-04T17:26:40.001Z</time></trkpt><trkpt lat="41.35073398840173" lon="1.8288394916292372"><ele>302.0</ele><time>2026-05-04T17:26:41.001Z</time></trkpt><trkpt lat="41.35066308468247" lon="1.8287790506991541"><ele>302.0</ele><time>2026-05-04T17:26:42.001Z</time></trkpt><trkpt lat="41.350590824851494" lon="1.8287195981935265"><ele>302.0</ele><time>2026-05-04T17:26:43.001Z</time></trkpt><trkpt lat="41.35051755334497" lon="1.8286662267656242"><ele>302.0</ele><time>2026-05-04T17:26:44.001Z</time></trkpt><trkpt lat="41.35044043102577" lon="1.8286161168749726"><ele>302.0</ele><time>2026-05-04T17:26:45.001Z</time></trkpt><trkpt lat="41.35036589915559" lon="1.8285589847579375"><ele>303.0</ele><time>2026-05-04T17:26:46.001Z</time></trkpt><trkpt lat="41.350291858649875" lon="1.82849769504223"><ele>304.0</ele><time>2026-05-04T17:26:47.002Z</time></trkpt><trkpt lat="41.35022109631451" lon="1.8284323606864528"><ele>305.0</ele><time>2026-05-04T17:26:48.002Z</time></trkpt><trkpt lat="41.35015123535257" lon="1.8283688869253942"><ele>306.0</ele><time>2026-05-04T17:26:49.002Z</time></trkpt><trkpt lat="41.35008061566688" lon="1.8283047907410845"><ele>307.0</ele><time>2026-05-04T17:26:50.002Z</time></trkpt><trkpt lat="41.350007233856495" lon="1.8282459965950875"><ele>308.0</ele><time>2026-05-04T17:26:51.002Z</time></trkpt><trkpt lat="41.34993187065982" lon="1.8281971240773367"><ele>308.0</ele><time>2026-05-04T17:26:52.002Z</time></trkpt><trkpt lat="41.34985357180851" lon="1.828152934385172"><ele>308.0</ele><time>2026-05-04T17:26:53Z</time></trkpt><trkpt lat="41.349768493611364" lon="1.8281292306912744"><ele>308.0</ele><time>2026-05-04T17:26:54Z</time></trkpt><trkpt lat="41.34968081717185" lon="1.8281200662317352"><ele>308.0</ele><time>2026-05-04T17:26:55Z</time></trkpt><trkpt lat="41.349593443592205" lon="1.8281251609524436"><ele>308.0</ele><time>2026-05-04T17:26:56Z</time></trkpt><trkpt lat="41.349502550588305" lon="1.8281196425524715"><ele>308.0</ele><time>2026-05-04T17:26:57Z</time></trkpt><trkpt lat="41.34942270626324" lon="1.8281784704662356"><ele>307.8</ele><time>2026-05-04T17:26:58Z</time></trkpt><trkpt lat="41.3493419497922" lon="1.8282351669240118"><ele>307.6</ele><time>2026-05-04T17:26:59Z</time></trkpt><trkpt lat="41.349275796413096" lon="1.8283167927983581"><ele>307.4</ele><time>2026-05-04T17:27:00Z</time></trkpt><trkpt lat="41.34924359418538" lon="1.828440955654495"><ele>307.2</ele><time>2026-05-04T17:27:01Z</time></trkpt><trkpt lat="41.349214094747786" lon="1.8285641237109038"><ele>307.0</ele><time>2026-05-04T17:27:02Z</time></trkpt><trkpt lat="41.349216258631046" lon="1.8287029861601998"><ele>307.0</ele><time>2026-05-04T17:27:03Z</time></trkpt><trkpt lat="41.34923050185949" lon="1.828842748603622"><ele>307.0</ele><time>2026-05-04T17:27:04Z</time></trkpt><trkpt lat="41.34925186836921" lon="1.8289801874550449"><ele>307.0</ele><time>2026-05-04T17:27:05Z</time></trkpt><trkpt lat="41.34926451592874" lon="1.8291264116787176"><ele>307.0</ele><time>2026-05-04T17:27:06Z</time></trkpt><trkpt lat="41.34926601535464" lon="1.829272486733294"><ele>307.0</ele><time>2026-05-04T17:27:07Z</time></trkpt><trkpt lat="41.34924668068072" lon="1.8294194931140415"><ele>307.2</ele><time>2026-05-04T17:27:08Z</time></trkpt><trkpt lat="41.34920147348229" lon="1.829555652596818"><ele>307.4</ele><time>2026-05-04T17:27:09Z</time></trkpt><trkpt lat="41.34916271525182" lon="1.8296894361979"><ele>307.6</ele><time>2026-05-04T17:27:10Z</time></trkpt><trkpt lat="41.349120692456445" lon="1.8298245507451365"><ele>307.8</ele><time>2026-05-04T17:27:11Z</time></trkpt><trkpt lat="41.34909285669556" lon="1.8299631157527527"><ele>308.0</ele><time>2026-05-04T17:27:12Z</time></trkpt><trkpt lat="41.349055022971285" lon="1.830100864063201"><ele>308.2</ele><time>2026-05-04T17:27:13Z</time></trkpt><trkpt lat="41.349016220598486" lon="1.8302352696899518"><ele>308.4</ele><time>2026-05-04T17:27:14Z</time></trkpt><trkpt lat="41.348990014164386" lon="1.8303751459501445"><ele>308.59999999999997</ele><time>2026-05-04T17:27:15Z</time></trkpt><trkpt lat="41.34898934622644" lon="1.8305191123683955"><ele>308.8</ele><time>2026-05-04T17:27:16Z</time></trkpt><trkpt lat="41.34902063243465" lon="1.8306604545494511"><ele>309.0</ele><time>2026-05-04T17:27:17Z</time></trkpt><trkpt lat="41.34906226451063" lon="1.8308111236217806"><ele>309.0</ele><time>2026-05-04T17:27:18Z</time></trkpt><trkpt lat="41.34910459769107" lon="1.8309428534383403"><ele>309.0</ele><time>2026-05-04T17:27:19Z</time></trkpt><trkpt lat="41.34916653895274" lon="1.8310687335887044"><ele>309.0</ele><time>2026-05-04T17:27:20Z</time></trkpt><trkpt lat="41.34923585428453" lon="1.8311867088765452"><ele>309.0</ele><time>2026-05-04T17:27:21Z</time></trkpt><trkpt lat="41.34931132113288" lon="1.8312962835784388"><ele>309.0</ele><time>2026-05-04T17:27:22Z</time></trkpt><trkpt lat="41.34939471795446" lon="1.831401611387535"><ele>307.8</ele><time>2026-05-04T17:27:23Z</time></trkpt><trkpt lat="41.34948024394919" lon="1.8314950942622856"><ele>306.59999999999997</ele><time>2026-05-04T17:27:24Z</time></trkpt><trkpt lat="41.34955761155339" lon="1.8316031569960574"><ele>305.4</ele><time>2026-05-04T17:27:25Z</time></trkpt><trkpt lat="41.34959176117539" lon="1.831746388838094"><ele>304.2</ele><time>2026-05-04T17:27:26Z</time></trkpt><trkpt lat="41.34962013241693" lon="1.831886751932283"><ele>303.0</ele><time>2026-05-04T17:27:27Z</time></trkpt><trkpt lat="41.3496523210983" lon="1.8320388627635131"><ele>301.6</ele><time>2026-05-04T17:27:28Z</time></trkpt><trkpt lat="41.34969283984236" lon="1.8321761148010915"><ele>300.20000000000005</ele><time>2026-05-04T17:27:29Z</time></trkpt><trkpt lat="41.34973738616721" lon="1.832308595256691"><ele>298.8</ele><time>2026-05-04T17:27:30.001Z</time></trkpt><trkpt lat="41.34979919707521" lon="1.832429344527259"><ele>297.40000000000003</ele><time>2026-05-04T17:27:31.001Z</time></trkpt><trkpt lat="41.34987322703391" lon="1.8325468745164568"><ele>296.0</ele><time>2026-05-04T17:27:32.001Z</time></trkpt><trkpt lat="41.34992110653402" lon="1.8326729068993466"><ele>298.8</ele><time>2026-05-04T17:27:33.001Z</time></trkpt><trkpt lat="41.349954424773834" lon="1.832810965275371"><ele>301.6</ele><time>2026-05-04T17:27:34.001Z</time></trkpt><trkpt lat="41.349958823221044" lon="1.8329520692511032"><ele>304.4</ele><time>2026-05-04T17:27:35.001Z</time></trkpt><trkpt lat="41.34991250449991" lon="1.8330747440815578"><ele>307.2</ele><time>2026-05-04T17:27:36.001Z</time></trkpt><trkpt lat="41.349864026539" lon="1.8332121197224711"><ele>310.0</ele><time>2026-05-04T17:27:37.001Z</time></trkpt><trkpt lat="41.349803067145665" lon="1.833332567482653"><ele>310.0</ele><time>2026-05-04T17:27:38.001Z</time></trkpt><trkpt lat="41.349725256576946" lon="1.8334343887920643"><ele>310.0</ele><time>2026-05-04T17:27:39.001Z</time></trkpt><trkpt lat="41.34964227497392" lon="1.8335367827056694"><ele>310.0</ele><time>2026-05-04T17:27:40.001Z</time></trkpt><trkpt lat="41.349547142546434" lon="1.833616823807098"><ele>310.0</ele><time>2026-05-04T17:27:41.001Z</time></trkpt><trkpt lat="41.3494489742836" lon="1.8336948797301695"><ele>310.0</ele><time>2026-05-04T17:27:42.001Z</time></trkpt><trkpt lat="41.34935328568206" lon="1.8337709084787177"><ele>308.6</ele><time>2026-05-04T17:27:43.001Z</time></trkpt><trkpt lat="41.34925902299965" lon="1.8338458043811194"><ele>307.2</ele><time>2026-05-04T17:27:44.001Z</time></trkpt><trkpt lat="41.34917438257196" lon="1.8339142018065373"><ele>305.8</ele><time>2026-05-04T17:27:45.001Z</time></trkpt><trkpt lat="41.34910476614805" lon="1.8340044746905944"><ele>304.4</ele><time>2026-05-04T17:27:46.001Z</time></trkpt><trkpt lat="41.34903699076763" lon="1.8341003471973882"><ele>303.0</ele><time>2026-05-04T17:27:47.001Z</time></trkpt><trkpt lat="41.349007962792506" lon="1.8342280000239293"><ele>302.8</ele><time>2026-05-04T17:27:48.001Z</time></trkpt><trkpt lat="41.34900094863173" lon="1.8343662020566571"><ele>302.6</ele><time>2026-05-04T17:27:49.001Z</time></trkpt><trkpt lat="41.348997972553406" lon="1.8344876743638698"><ele>302.4</ele><time>2026-05-04T17:27:50.001Z</time></trkpt><trkpt lat="41.34903183847573" lon="1.834610828289859"><ele>302.2</ele><time>2026-05-04T17:27:51.001Z</time></trkpt><trkpt lat="41.349071898502345" lon="1.8347166311008862"><ele>302.0</ele><time>2026-05-04T17:27:52.001Z</time></trkpt><trkpt lat="41.34914679622207" lon="1.8347762041050455"><ele>302.0</ele><time>2026-05-04T17:27:53.001Z</time></trkpt><trkpt lat="41.34924305698421" lon="1.8348032198180597"><ele>302.0</ele><time>2026-05-04T17:27:54.001Z</time></trkpt><trkpt lat="41.34934992302057" lon="1.8347895651708839"><ele>302.0</ele><time>2026-05-04T17:27:55.001Z</time></trkpt><trkpt lat="41.34946122600745" lon="1.8347722902834847"><ele>302.0</ele><time>2026-05-04T17:27:56.001Z</time></trkpt><trkpt lat="41.34957206664655" lon="1.8347717230357972"><ele>302.0</ele><time>2026-05-04T17:27:57.001Z</time></trkpt><trkpt lat="41.34968322709338" lon="1.8347768629775978"><ele>302.2</ele><time>2026-05-04T17:27:58.001Z</time></trkpt><trkpt lat="41.34978871284179" lon="1.8347759340178"><ele>302.4</ele><time>2026-05-04T17:27:59.001Z</time></trkpt><trkpt lat="41.34989564946265" lon="1.8347521696597784"><ele>302.6</ele><time>2026-05-04T17:28:00.001Z</time></trkpt><trkpt lat="41.349994536143456" lon="1.834735776889559"><ele>302.8</ele><time>2026-05-04T17:28:01.001Z</time></trkpt><trkpt lat="41.35008206510454" lon="1.8347364864876796"><ele>303.0</ele><time>2026-05-04T17:28:02.001Z</time></trkpt><trkpt lat="41.35015424663592" lon="1.8347784753892828"><ele>303.0</ele><time>2026-05-04T17:28:03.001Z</time></trkpt><trkpt lat="41.35020790809155" lon="1.834864768095833"><ele>303.0</ele><time>2026-05-04T17:28:04.001Z</time></trkpt><trkpt lat="41.35021622541046" lon="1.8349871747594004"><ele>303.0</ele><time>2026-05-04T17:28:05.001Z</time></trkpt><trkpt lat="41.35017483897571" lon="1.8350854129360585"><ele>303.0</ele><time>2026-05-04T17:28:06.001Z</time></trkpt><trkpt lat="41.35012501788266" lon="1.8351749267829862"><ele>303.0</ele><time>2026-05-04T17:28:07.001Z</time></trkpt><trkpt lat="41.350016016654195" lon="1.83519673445321"><ele>302.0</ele><time>2026-05-04T17:28:08.001Z</time></trkpt><trkpt lat="41.34993711209343" lon="1.835277207796285"><ele>301.0</ele><time>2026-05-04T17:28:09.001Z</time></trkpt><trkpt lat="41.34984281583182" lon="1.835335919903167"><ele>300.0</ele><time>2026-05-04T17:28:10.001Z</time></trkpt><trkpt lat="41.34975084121081" lon="1.8354037474251912"><ele>299.0</ele><time>2026-05-04T17:28:11.001Z</time></trkpt><trkpt lat="41.34965974356562" lon="1.8354822093718097"><ele>298.0</ele><time>2026-05-04T17:28:12.001Z</time></trkpt><trkpt lat="41.34956316868559" lon="1.8355491281283651"><ele>298.0</ele><time>2026-05-04T17:28:13.001Z</time></trkpt><trkpt lat="41.34946575344884" lon="1.8356241003588774"><ele>298.0</ele><time>2026-05-04T17:28:14.001Z</time></trkpt><trkpt lat="41.34937280303801" lon="1.835703415571564"><ele>298.0</ele><time>2026-05-04T17:28:15.001Z</time></trkpt><trkpt lat="41.34928590221055" lon="1.8357981748637602"><ele>298.0</ele><time>2026-05-04T17:28:16.001Z</time></trkpt><trkpt lat="41.349203671714726" lon="1.8358944451727548"><ele>298.0</ele><time>2026-05-04T17:28:17.001Z</time></trkpt><trkpt lat="41.349121948634306" lon="1.8359929944914697"><ele>299.2</ele><time>2026-05-04T17:28:18.001Z</time></trkpt><trkpt lat="41.34904128101351" lon="1.8360937687930698"><ele>300.4</ele><time>2026-05-04T17:28:19.001Z</time></trkpt><trkpt lat="41.34895751795188" lon="1.8361935356353531"><ele>301.59999999999997</ele><time>2026-05-04T17:28:20.001Z</time></trkpt><trkpt lat="41.348871689288465" lon="1.8362881538006606"><ele>302.8</ele><time>2026-05-04T17:28:21.001Z</time></trkpt><trkpt lat="41.34878903165466" lon="1.8363849077348067"><ele>304.0</ele><time>2026-05-04T17:28:22.001Z</time></trkpt><trkpt lat="41.34870552111936" lon="1.836482386198038"><ele>301.4</ele><time>2026-05-04T17:28:23.001Z</time></trkpt><trkpt lat="41.34862155352463" lon="1.8365809344968678"><ele>298.79999999999995</ele><time>2026-05-04T17:28:24.001Z</time></trkpt><trkpt lat="41.34853843429672" lon="1.8366725694139896"><ele>296.20000000000005</ele><time>2026-05-04T17:28:25.001Z</time></trkpt><trkpt lat="41.34845584114148" lon="1.8367716659757027"><ele>293.6</ele><time>2026-05-04T17:28:26.001Z</time></trkpt><trkpt lat="41.34837584070743" lon="1.836869224813116"><ele>291.0</ele><time>2026-05-04T17:28:27.001Z</time></trkpt><trkpt lat="41.34829354995074" lon="1.8369628311780526"><ele>291.0</ele><time>2026-05-04T17:28:28.001Z</time></trkpt><trkpt lat="41.34822708409495" lon="1.8370741872881626"><ele>291.0</ele><time>2026-05-04T17:28:29.001Z</time></trkpt><trkpt lat="41.348150426848036" lon="1.8371817265451869"><ele>291.0</ele><time>2026-05-04T17:28:30.001Z</time></trkpt><trkpt lat="41.34807545512101" lon="1.8372925221306766"><ele>291.0</ele><time>2026-05-04T17:28:31.001Z</time></trkpt><trkpt lat="41.34799549307554" lon="1.837399273588726"><ele>291.0</ele><time>2026-05-04T17:28:32.001Z</time></trkpt><trkpt lat="41.34792210323145" lon="1.8375065365234593"><ele>288.75</ele><time>2026-05-04T17:28:33.001Z</time></trkpt><trkpt lat="41.347846900119904" lon="1.8376134448950316"><ele>286.5</ele><time>2026-05-04T17:28:34.001Z</time></trkpt><trkpt lat="41.34777352284106" lon="1.8377295550979396"><ele>284.25</ele><time>2026-05-04T17:28:35.001Z</time></trkpt><trkpt lat="41.34772119807112" lon="1.8378742100141634"><ele>282.0</ele><time>2026-05-04T17:28:36.001Z</time></trkpt><trkpt lat="41.34768733620818" lon="1.8380238310120103"><ele>280.8</ele><time>2026-05-04T17:28:37.001Z</time></trkpt><trkpt lat="41.34767963333624" lon="1.8381732663144772"><ele>279.6</ele><time>2026-05-04T17:28:38.001Z</time></trkpt><trkpt lat="41.34768404902739" lon="1.8383214094241394"><ele>278.40000000000003</ele><time>2026-05-04T17:28:39.001Z</time></trkpt><trkpt lat="41.34769684576459" lon="1.8384706518877698"><ele>277.2</ele><time>2026-05-04T17:28:40.001Z</time></trkpt><trkpt lat="41.347739507897565" lon="1.8386082757356124"><ele>276.0</ele><time>2026-05-04T17:28:41.001Z</time></trkpt><trkpt lat="41.3478229534526" lon="1.8387230560536778"><ele>275.0</ele><time>2026-05-04T17:28:42.001Z</time></trkpt><trkpt lat="41.34790507113829" lon="1.8388339334929038"><ele>274.0</ele><time>2026-05-04T17:28:43.001Z</time></trkpt><trkpt lat="41.348005161388826" lon="1.8389259805211933"><ele>273.0</ele><time>2026-05-04T17:28:44.001Z</time></trkpt><trkpt lat="41.34808843539399" lon="1.8390169429062329"><ele>272.0</ele><time>2026-05-04T17:28:45.001Z</time></trkpt><trkpt lat="41.34814240875632" lon="1.8391364131979866"><ele>274.0</ele><time>2026-05-04T17:28:46.001Z</time></trkpt><trkpt lat="41.34820380053432" lon="1.8392603523015916"><ele>276.0</ele><time>2026-05-04T17:28:47.001Z</time></trkpt><trkpt lat="41.34818527409385" lon="1.839429460441406"><ele>278.0</ele><time>2026-05-04T17:28:48.001Z</time></trkpt><trkpt lat="41.34819083225729" lon="1.8395789546632606"><ele>280.0</ele><time>2026-05-04T17:28:49.002Z</time></trkpt><trkpt lat="41.3482030378394" lon="1.8397139837298804"><ele>280.2</ele><time>2026-05-04T17:28:50.002Z</time></trkpt><trkpt lat="41.34814077291309" lon="1.8398203785009932"><ele>280.4</ele><time>2026-05-04T17:28:51.002Z</time></trkpt><trkpt lat="41.348073502767356" lon="1.8399169307728822"><ele>280.6</ele><time>2026-05-04T17:28:52.002Z</time></trkpt><trkpt lat="41.347976776846245" lon="1.8399721367951023"><ele>280.8</ele><time>2026-05-04T17:28:53.002Z</time></trkpt><trkpt lat="41.34787038365342" lon="1.8399950927802533"><ele>281.0</ele><time>2026-05-04T17:28:54.002Z</time></trkpt><trkpt lat="41.34775907776899" lon="1.8399829588301078"><ele>281.0</ele><time>2026-05-04T17:28:55.002Z</time></trkpt><trkpt lat="41.347651576961425" lon="1.8399534519123026"><ele>281.0</ele><time>2026-05-04T17:28:56.002Z</time></trkpt><trkpt lat="41.34755460225102" lon="1.8398767869586852"><ele>281.0</ele><time>2026-05-04T17:28:57.002Z</time></trkpt><trkpt lat="41.347458965071056" lon="1.839811624232041"><ele>281.0</ele><time>2026-05-04T17:28:58.002Z</time></trkpt><trkpt lat="41.34735563377975" lon="1.8397678813081124"><ele>281.0</ele><time>2026-05-04T17:28:59.001Z</time></trkpt><trkpt lat="41.347244893532654" lon="1.839748530247102"><ele>279.0</ele><time>2026-05-04T17:29:00.001Z</time></trkpt><trkpt lat="41.347127250261785" lon="1.8397542616760285"><ele>277.0</ele><time>2026-05-04T17:29:01.001Z</time></trkpt><trkpt lat="41.34700989714704" lon="1.839796593066825"><ele>275.0</ele><time>2026-05-04T17:29:02.001Z</time></trkpt><trkpt lat="41.34691635488962" lon="1.8398727851753844"><ele>273.0</ele><time>2026-05-04T17:29:03Z</time></trkpt><trkpt lat="41.34682524246424" lon="1.8399597239273877"><ele>273.0</ele><time>2026-05-04T17:29:04Z</time></trkpt><trkpt lat="41.346733344896094" lon="1.8400387101119013"><ele>273.0</ele><time>2026-05-04T17:29:05Z</time></trkpt><trkpt lat="41.34664427047679" lon="1.8401303657284187"><ele>273.0</ele><time>2026-05-04T17:29:06Z</time></trkpt><trkpt lat="41.34657345717507" lon="1.840241544522443"><ele>273.0</ele><time>2026-05-04T17:29:07Z</time></trkpt><trkpt lat="41.34653823660378" lon="1.8403586825867728"><ele>273.0</ele><time>2026-05-04T17:29:08Z</time></trkpt><trkpt lat="41.34648723258635" lon="1.8405470029036812"><ele>274.8</ele><time>2026-05-04T17:29:09Z</time></trkpt><trkpt lat="41.346463696292766" lon="1.8406952258453195"><ele>276.6</ele><time>2026-05-04T17:29:10Z</time></trkpt><trkpt lat="41.34643545426607" lon="1.840837328720817"><ele>278.4</ele><time>2026-05-04T17:29:11Z</time></trkpt><trkpt lat="41.34638926021787" lon="1.8409644616103342"><ele>280.2</ele><time>2026-05-04T17:29:12Z</time></trkpt><trkpt lat="41.346303238100006" lon="1.8410309613688465"><ele>282.0</ele><time>2026-05-04T17:29:13Z</time></trkpt><trkpt lat="41.34620563046908" lon="1.8410533408308392"><ele>282.6</ele><time>2026-05-04T17:29:14Z</time></trkpt><trkpt lat="41.34610640679471" lon="1.8409825839696636"><ele>283.2</ele><time>2026-05-04T17:29:15Z</time></trkpt><trkpt lat="41.34600989834687" lon="1.8409267585049787"><ele>283.8</ele><time>2026-05-04T17:29:16Z</time></trkpt><trkpt lat="41.34590772982084" lon="1.8408836748960975"><ele>284.4</ele><time>2026-05-04T17:29:17Z</time></trkpt><trkpt lat="41.34581001428938" lon="1.8408280373649186"><ele>285.0</ele><time>2026-05-04T17:29:18Z</time></trkpt><trkpt lat="41.3457037393996" lon="1.8407926448965741"><ele>282.25</ele><time>2026-05-04T17:29:19Z</time></trkpt><trkpt lat="41.34559127254009" lon="1.8407828357696698"><ele>279.5</ele><time>2026-05-04T17:29:20Z</time></trkpt><trkpt lat="41.34547504572812" lon="1.8408017775791685"><ele>276.75</ele><time>2026-05-04T17:29:21Z</time></trkpt><trkpt lat="41.34536918536206" lon="1.8408611093878102"><ele>274.0</ele><time>2026-05-04T17:29:22Z</time></trkpt><trkpt lat="41.34526412566577" lon="1.8409241332618231"><ele>275.25</ele><time>2026-05-04T17:29:23Z</time></trkpt><trkpt lat="41.34515848904731" lon="1.840982442516421"><ele>276.5</ele><time>2026-05-04T17:29:24Z</time></trkpt><trkpt lat="41.345046997843866" lon="1.8410337761733726"><ele>277.75</ele><time>2026-05-04T17:29:25Z</time></trkpt><trkpt lat="41.34493438733327" lon="1.8410893496931575"><ele>279.0</ele><time>2026-05-04T17:29:26Z</time></trkpt><trkpt lat="41.344824472504314" lon="1.8411402910017285"><ele>279.0</ele><time>2026-05-04T17:29:27Z</time></trkpt><trkpt lat="41.34471715246679" lon="1.8411915858761683"><ele>279.0</ele><time>2026-05-04T17:29:28Z</time></trkpt><trkpt lat="41.34461259953638" lon="1.841240981644595"><ele>279.0</ele><time>2026-05-04T17:29:29Z</time></trkpt><trkpt lat="41.34450953350426" lon="1.841286211473847"><ele>279.0</ele><time>2026-05-04T17:29:30Z</time></trkpt><trkpt lat="41.34440539778647" lon="1.8413275284094652"><ele>279.0</ele><time>2026-05-04T17:29:31Z</time></trkpt><trkpt lat="41.344310089470504" lon="1.8413671939602434"><ele>277.59999999999997</ele><time>2026-05-04T17:29:32Z</time></trkpt><trkpt lat="41.344223377985614" lon="1.8414124905044496"><ele>276.2</ele><time>2026-05-04T17:29:33Z</time></trkpt><trkpt lat="41.34415773493974" lon="1.8414855562873003"><ele>274.79999999999995</ele><time>2026-05-04T17:29:34Z</time></trkpt><trkpt lat="41.34411933251149" lon="1.8415996821646643"><ele>273.4</ele><time>2026-05-04T17:29:35Z</time></trkpt><trkpt lat="41.344108772549724" lon="1.8417354917723832"><ele>272.0</ele><time>2026-05-04T17:29:36.001Z</time></trkpt><trkpt lat="41.344145474223126" lon="1.8418695084394485"><ele>270.6</ele><time>2026-05-04T17:29:37.001Z</time></trkpt><trkpt lat="41.344207108997516" lon="1.8419851705557406"><ele>269.2</ele><time>2026-05-04T17:29:38.001Z</time></trkpt><trkpt lat="41.344278746947175" lon="1.8420955080938977"><ele>267.8</ele><time>2026-05-04T17:29:39.001Z</time></trkpt><trkpt lat="41.34434196680542" lon="1.8422125985691837"><ele>266.4</ele><time>2026-05-04T17:29:40.001Z</time></trkpt><trkpt lat="41.34440590878853" lon="1.842335400478545"><ele>265.0</ele><time>2026-05-04T17:29:41.001Z</time></trkpt><trkpt lat="41.34446924660838" lon="1.8424570931133317"><ele>265.0</ele><time>2026-05-04T17:29:42.001Z</time></trkpt><trkpt lat="41.34453619062309" lon="1.8425862803250799"><ele>265.0</ele><time>2026-05-04T17:29:43.001Z</time></trkpt><trkpt lat="41.34460206047709" lon="1.8427056950394312"><ele>265.0</ele><time>2026-05-04T17:29:44.001Z</time></trkpt><trkpt lat="41.34466821212205" lon="1.842833959973499"><ele>265.0</ele><time>2026-05-04T17:29:45.001Z</time></trkpt><trkpt lat="41.3447306192918" lon="1.8429591425246097"><ele>264.4</ele><time>2026-05-04T17:29:46.001Z</time></trkpt><trkpt lat="41.344795640182376" lon="1.8430737606176917"><ele>263.8</ele><time>2026-05-04T17:29:47.001Z</time></trkpt><trkpt lat="41.344856112274584" lon="1.8432042726401343"><ele>263.2</ele><time>2026-05-04T17:29:48.001Z</time></trkpt><trkpt lat="41.344908758618764" lon="1.8433378191218799"><ele>262.6</ele><time>2026-05-04T17:29:49.001Z</time></trkpt><trkpt lat="41.34497984124942" lon="1.8434546462528743"><ele>262.0</ele><time>2026-05-04T17:29:50.001Z</time></trkpt><trkpt lat="41.345058258118485" lon="1.8435617391453871"><ele>262.0</ele><time>2026-05-04T17:29:51.001Z</time></trkpt><trkpt lat="41.345146229884655" lon="1.843654384502811"><ele>262.0</ele><time>2026-05-04T17:29:52.001Z</time></trkpt><trkpt lat="41.34523785545345" lon="1.8437447897437038"><ele>262.0</ele><time>2026-05-04T17:29:53.001Z</time></trkpt><trkpt lat="41.3453286069732" lon="1.84383047221029"><ele>262.0</ele><time>2026-05-04T17:29:54.001Z</time></trkpt><trkpt lat="41.34541571029388" lon="1.843925827136943"><ele>262.0</ele><time>2026-05-04T17:29:55.001Z</time></trkpt><trkpt lat="41.345503027869974" lon="1.8440188284361887"><ele>262.0</ele><time>2026-05-04T17:29:56.001Z</time></trkpt><trkpt lat="41.34559240232798" lon="1.8441081877425511"><ele>262.0</ele><time>2026-05-04T17:29:57.001Z</time></trkpt><trkpt lat="41.34567966169625" lon="1.8442009263054078"><ele>262.0</ele><time>2026-05-04T17:29:58.001Z</time></trkpt><trkpt lat="41.34576359113073" lon="1.8443000663799345"><ele>262.0</ele><time>2026-05-04T17:29:59.001Z</time></trkpt><trkpt lat="41.34585229698105" lon="1.8443954356488967"><ele>262.0</ele><time>2026-05-04T17:30:00.001Z</time></trkpt><trkpt lat="41.34593669610783" lon="1.844484817236233"><ele>262.0</ele><time>2026-05-04T17:30:01.001Z</time></trkpt><trkpt lat="41.346025889233275" lon="1.8445706296954625"><ele>262.0</ele><time>2026-05-04T17:30:02.001Z</time></trkpt><trkpt lat="41.34611691918249" lon="1.8446476099553326"><ele>262.0</ele><time>2026-05-04T17:30:03.001Z</time></trkpt><trkpt lat="41.34621458289281" lon="1.8447084071516966"><ele>262.0</ele><time>2026-05-04T17:30:04.001Z</time></trkpt><trkpt lat="41.34631238698561" lon="1.8447476351482714"><ele>262.4</ele><time>2026-05-04T17:30:05.001Z</time></trkpt><trkpt lat="41.34641543089998" lon="1.8447760223707748"><ele>262.79999999999995</ele><time>2026-05-04T17:30:06.001Z</time></trkpt><trkpt lat="41.346515063122496" lon="1.8447956358688804"><ele>263.2</ele><time>2026-05-04T17:30:07.001Z</time></trkpt><trkpt lat="41.34661461828834" lon="1.8448136682574618"><ele>263.59999999999997</ele><time>2026-05-04T17:30:08.001Z</time></trkpt><trkpt lat="41.34671064864749" lon="1.8448360339920042"><ele>264.0</ele><time>2026-05-04T17:30:09.001Z</time></trkpt><trkpt lat="41.346802593318294" lon="1.8448723569281953"><ele>264.0</ele><time>2026-05-04T17:30:10.001Z</time></trkpt><trkpt lat="41.34688378942565" lon="1.8449528243293924"><ele>264.0</ele><time>2026-05-04T17:30:11.001Z</time></trkpt><trkpt lat="41.34693536022219" lon="1.8450731800792353"><ele>264.0</ele><time>2026-05-04T17:30:12.001Z</time></trkpt><trkpt lat="41.34694741941526" lon="1.8452121710683214"><ele>264.0</ele><time>2026-05-04T17:30:13.001Z</time></trkpt><trkpt lat="41.34692566293125" lon="1.84535252754267"><ele>264.0</ele><time>2026-05-04T17:30:14.001Z</time></trkpt><trkpt lat="41.346907458758295" lon="1.845490792055207"><ele>263.59999999999997</ele><time>2026-05-04T17:30:15.001Z</time></trkpt><trkpt lat="41.346892797341006" lon="1.845632486626051"><ele>263.2</ele><time>2026-05-04T17:30:16.001Z</time></trkpt><trkpt lat="41.346881774779106" lon="1.8457749687411318"><ele>262.79999999999995</ele><time>2026-05-04T17:30:17.001Z</time></trkpt><trkpt lat="41.34686822622882" lon="1.8459205448972567"><ele>262.4</ele><time>2026-05-04T17:30:18.001Z</time></trkpt><trkpt lat="41.346852980024785" lon="1.8460656185466011"><ele>262.0</ele><time>2026-05-04T17:30:19.001Z</time></trkpt><trkpt lat="41.34683564034769" lon="1.8462118995311176"><ele>262.0</ele><time>2026-05-04T17:30:20.001Z</time></trkpt><trkpt lat="41.34681935418326" lon="1.8463560075111234"><ele>262.0</ele><time>2026-05-04T17:30:21.001Z</time></trkpt><trkpt lat="41.34680619051656" lon="1.8464994344604222"><ele>262.0</ele><time>2026-05-04T17:30:22.001Z</time></trkpt><trkpt lat="41.34679521919586" lon="1.846642202996083"><ele>262.0</ele><time>2026-05-04T17:30:23.001Z</time></trkpt><trkpt lat="41.34678186950141" lon="1.8467822843781523"><ele>262.0</ele><time>2026-05-04T17:30:24.001Z</time></trkpt><trkpt lat="41.346768761247894" lon="1.8469213103510875"><ele>262.8</ele><time>2026-05-04T17:30:25.001Z</time></trkpt><trkpt lat="41.34675515850351" lon="1.8470566035076985"><ele>263.6</ele><time>2026-05-04T17:30:26.001Z</time></trkpt><trkpt lat="41.34673747566436" lon="1.8471911323500143"><ele>264.40000000000003</ele><time>2026-05-04T17:30:27.001Z</time></trkpt><trkpt lat="41.34671529143165" lon="1.847323518264058"><ele>265.2</ele><time>2026-05-04T17:30:28.001Z</time></trkpt><trkpt lat="41.34668834970315" lon="1.8474517788304219"><ele>266.0</ele><time>2026-05-04T17:30:29.001Z</time></trkpt><trkpt lat="41.346659012930125" lon="1.847577725044266"><ele>266.8</ele><time>2026-05-04T17:30:30.001Z</time></trkpt><trkpt lat="41.346627654728806" lon="1.8477062010111853"><ele>267.6</ele><time>2026-05-04T17:30:31.001Z</time></trkpt><trkpt lat="41.3465938049108" lon="1.8478364437013648"><ele>268.4</ele><time>2026-05-04T17:30:32.001Z</time></trkpt><trkpt lat="41.34656400346313" lon="1.8479681297288018"><ele>269.2</ele><time>2026-05-04T17:30:33.001Z</time></trkpt><trkpt lat="41.34653487079506" lon="1.848103176257219"><ele>270.0</ele><time>2026-05-04T17:30:34.001Z</time></trkpt><trkpt lat="41.34651529267078" lon="1.8482423738437985"><ele>270.0</ele><time>2026-05-04T17:30:35.001Z</time></trkpt><trkpt lat="41.346503818133456" lon="1.8483844424649576"><ele>270.0</ele><time>2026-05-04T17:30:36.001Z</time></trkpt><trkpt lat="41.34649861519338" lon="1.8485276203868575"><ele>270.0</ele><time>2026-05-04T17:30:37.001Z</time></trkpt><trkpt lat="41.346494918072075" lon="1.8486734178192838"><ele>270.0</ele><time>2026-05-04T17:30:38.001Z</time></trkpt><trkpt lat="41.34648881712153" lon="1.8488185839567457"><ele>270.0</ele><time>2026-05-04T17:30:39.001Z</time></trkpt><trkpt lat="41.346478699480436" lon="1.8489613471838249"><ele>270.2</ele><time>2026-05-04T17:30:40.001Z</time></trkpt><trkpt lat="41.34646819623305" lon="1.8491049394956922"><ele>270.4</ele><time>2026-05-04T17:30:41.001Z</time></trkpt><trkpt lat="41.346455492152266" lon="1.849247939006478"><ele>270.6</ele><time>2026-05-04T17:30:42.001Z</time></trkpt><trkpt lat="41.346440854456965" lon="1.8493904326037967"><ele>270.8</ele><time>2026-05-04T17:30:43.001Z</time></trkpt><trkpt lat="41.34642296272692" lon="1.8495333711769397"><ele>271.0</ele><time>2026-05-04T17:30:44.001Z</time></trkpt><trkpt lat="41.34640424608" lon="1.8496762595531562"><ele>271.40000000000003</ele><time>2026-05-04T17:30:45.001Z</time></trkpt><trkpt lat="41.34639522297439" lon="1.8498194539658095"><ele>271.8</ele><time>2026-05-04T17:30:46.001Z</time></trkpt><trkpt lat="41.346376259447496" lon="1.849963204978578"><ele>272.20000000000005</ele><time>2026-05-04T17:30:47.001Z</time></trkpt><trkpt lat="41.34635948694342" lon="1.850102246302607"><ele>272.6</ele><time>2026-05-04T17:30:48.001Z</time></trkpt><trkpt lat="41.3463484065927" lon="1.8502431066869898"><ele>273.0</ele><time>2026-05-04T17:30:49.001Z</time></trkpt><trkpt lat="41.346333357029486" lon="1.8503868253688136"><ele>271.6</ele><time>2026-05-04T17:30:50.001Z</time></trkpt><trkpt lat="41.346319433210454" lon="1.8505290631549527"><ele>270.20000000000005</ele><time>2026-05-04T17:30:51.001Z</time></trkpt><trkpt lat="41.34629961739822" lon="1.8506758290029035"><ele>268.8</ele><time>2026-05-04T17:30:52.001Z</time></trkpt><trkpt lat="41.3462819249527" lon="1.8508213778454683"><ele>267.40000000000003</ele><time>2026-05-04T17:30:53.001Z</time></trkpt><trkpt lat="41.34626259699063" lon="1.8509674880045228"><ele>266.0</ele><time>2026-05-04T17:30:54.001Z</time></trkpt><trkpt lat="41.346242870143215" lon="1.8511138827438816"><ele>266.0</ele><time>2026-05-04T17:30:55.001Z</time></trkpt><trkpt lat="41.34622184816433" lon="1.8512568685358024"><ele>266.0</ele><time>2026-05-04T17:30:56.001Z</time></trkpt><trkpt lat="41.3461984640975" lon="1.8513999984404508"><ele>266.0</ele><time>2026-05-04T17:30:57.001Z</time></trkpt><trkpt lat="41.34618713437274" lon="1.8515440709643651"><ele>266.0</ele><time>2026-05-04T17:30:58.001Z</time></trkpt><trkpt lat="41.34617177705564" lon="1.851686007743815"><ele>266.0</ele><time>2026-05-04T17:30:59.001Z</time></trkpt><trkpt lat="41.34615073291358" lon="1.8518289031967345"><ele>266.8</ele><time>2026-05-04T17:31:00.001Z</time></trkpt><trkpt lat="41.346132696509294" lon="1.8519705291458506"><ele>267.6</ele><time>2026-05-04T17:31:01.001Z</time></trkpt><trkpt lat="41.34612774896895" lon="1.852110884878356"><ele>268.4</ele><time>2026-05-04T17:31:02.001Z</time></trkpt><trkpt lat="41.34611286449685" lon="1.8522540772805067"><ele>269.2</ele><time>2026-05-04T17:31:03.001Z</time></trkpt><trkpt lat="41.346097592082785" lon="1.8523967539508923"><ele>270.0</ele><time>2026-05-04T17:31:04.001Z</time></trkpt><trkpt lat="41.346086050094854" lon="1.8525410896997532"><ele>270.2</ele><time>2026-05-04T17:31:05Z</time></trkpt><trkpt lat="41.34607262888305" lon="1.8526816773064996"><ele>270.4</ele><time>2026-05-04T17:31:06Z</time></trkpt><trkpt lat="41.346060129480726" lon="1.8528250891715785"><ele>270.6</ele><time>2026-05-04T17:31:07Z</time></trkpt><trkpt lat="41.34604114873382" lon="1.852973364656243"><ele>270.8</ele><time>2026-05-04T17:31:08Z</time></trkpt><trkpt lat="41.34601336693465" lon="1.8531107673967218"><ele>271.0</ele><time>2026-05-04T17:31:09Z</time></trkpt><trkpt lat="41.34601532117293" lon="1.8532621550812722"><ele>271.0</ele><time>2026-05-04T17:31:10Z</time></trkpt><trkpt lat="41.3460094437149" lon="1.8534098800378656"><ele>271.0</ele><time>2026-05-04T17:31:11Z</time></trkpt><trkpt lat="41.34601729731251" lon="1.8535599102827593"><ele>271.0</ele><time>2026-05-04T17:31:12Z</time></trkpt><trkpt lat="41.3460506077702" lon="1.8537154548802894"><ele>271.0</ele><time>2026-05-04T17:31:13Z</time></trkpt><trkpt lat="41.34607885895121" lon="1.853881995078771"><ele>271.0</ele><time>2026-05-04T17:31:14Z</time></trkpt><trkpt lat="41.346098770772926" lon="1.8541018501061077"><ele>271.0</ele><time>2026-05-04T17:31:15Z</time></trkpt><trkpt lat="41.34611924903042" lon="1.8543463252102286"><ele>271.0</ele><time>2026-05-04T17:31:16Z</time></trkpt><trkpt lat="41.34620979372638" lon="1.8545722845619552"><ele>270.0</ele><time>2026-05-04T17:31:17Z</time></trkpt><trkpt lat="41.34622506179783" lon="1.8544517758613275"><ele>269.0</ele><time>2026-05-04T17:31:18Z</time></trkpt><trkpt lat="41.346271030869644" lon="1.854600371369453"><ele>268.0</ele><time>2026-05-04T17:31:19Z</time></trkpt><trkpt lat="41.34632583284159" lon="1.854744631895413"><ele>267.0</ele><time>2026-05-04T17:31:20Z</time></trkpt><trkpt lat="41.346386785794415" lon="1.854878183939976"><ele>267.0</ele><time>2026-05-04T17:31:21Z</time></trkpt><trkpt lat="41.34645110219765" lon="1.8550143868004394"><ele>267.0</ele><time>2026-05-04T17:31:22Z</time></trkpt><trkpt lat="41.34651035387802" lon="1.855150413542791"><ele>267.0</ele><time>2026-05-04T17:31:23Z</time></trkpt><trkpt lat="41.34656736356287" lon="1.8552804709055273"><ele>267.0</ele><time>2026-05-04T17:31:24Z</time></trkpt><trkpt lat="41.34662169314669" lon="1.8554063137535965"><ele>268.8</ele><time>2026-05-04T17:31:25Z</time></trkpt><trkpt lat="41.346683243804925" lon="1.8555250420953986"><ele>270.6</ele><time>2026-05-04T17:31:26Z</time></trkpt><trkpt lat="41.34675139830866" lon="1.8556386651808439"><ele>272.40000000000003</ele><time>2026-05-04T17:31:27Z</time></trkpt><trkpt lat="41.3468189311061" lon="1.8557522511339946"><ele>274.2</ele><time>2026-05-04T17:31:28Z</time></trkpt><trkpt lat="41.34688378278359" lon="1.855858200392005"><ele>276.0</ele><time>2026-05-04T17:31:29Z</time></trkpt><trkpt lat="41.34693120354344" lon="1.855978106264467"><ele>277.40000000000003</ele><time>2026-05-04T17:31:30Z</time></trkpt><trkpt lat="41.346972118856705" lon="1.8561014324017082"><ele>278.8</ele><time>2026-05-04T17:31:31Z</time></trkpt><trkpt lat="41.34700000225252" lon="1.8562314563931777"><ele>280.20000000000005</ele><time>2026-05-04T17:31:32Z</time></trkpt><trkpt lat="41.34701332775885" lon="1.8563604642187315"><ele>281.6</ele><time>2026-05-04T17:31:33Z</time></trkpt><trkpt lat="41.347015887201884" lon="1.8564876899225593"><ele>283.0</ele><time>2026-05-04T17:31:34Z</time></trkpt><trkpt lat="41.34701130960087" lon="1.8566176290214143"><ele>283.0</ele><time>2026-05-04T17:31:35Z</time></trkpt><trkpt lat="41.34699936100793" lon="1.856742856941494"><ele>283.0</ele><time>2026-05-04T17:31:36Z</time></trkpt><trkpt lat="41.346972109372246" lon="1.8568559961931943"><ele>283.0</ele><time>2026-05-04T17:31:37Z</time></trkpt><trkpt lat="41.34693537015883" lon="1.8569718377082622"><ele>283.0</ele><time>2026-05-04T17:31:38Z</time></trkpt><trkpt lat="41.34689814367309" lon="1.8570828146515315"><ele>283.0</ele><time>2026-05-04T17:31:39Z</time></trkpt><trkpt lat="41.346852340580384" lon="1.8571976089499236"><ele>282.4</ele><time>2026-05-04T17:31:40Z</time></trkpt><trkpt lat="41.34677820188597" lon="1.857272681239164"><ele>281.8</ele><time>2026-05-04T17:31:41Z</time></trkpt><trkpt lat="41.3467124237977" lon="1.8573833427248794"><ele>281.2</ele><time>2026-05-04T17:31:42Z</time></trkpt><trkpt lat="41.34663095191461" lon="1.8574608757323865"><ele>280.6</ele><time>2026-05-04T17:31:43Z</time></trkpt><trkpt lat="41.346551967357655" lon="1.8575411059678946"><ele>280.0</ele><time>2026-05-04T17:31:44Z</time></trkpt><trkpt lat="41.34647472367136" lon="1.8576185234559106"><ele>279.6</ele><time>2026-05-04T17:31:45Z</time></trkpt><trkpt lat="41.34639346682234" lon="1.8576947972792615"><ele>279.2</ele><time>2026-05-04T17:31:46Z</time></trkpt><trkpt lat="41.34631144155546" lon="1.857775193502599"><ele>278.8</ele><time>2026-05-04T17:31:47Z</time></trkpt><trkpt lat="41.34622938212357" lon="1.8578571088981914"><ele>278.4</ele><time>2026-05-04T17:31:48Z</time></trkpt><trkpt lat="41.346143713312316" lon="1.8579364677863481"><ele>278.0</ele><time>2026-05-04T17:31:49Z</time></trkpt><trkpt lat="41.346056146474325" lon="1.8580124634732351"><ele>278.8</ele><time>2026-05-04T17:31:50Z</time></trkpt><trkpt lat="41.34596898105596" lon="1.858086294785912"><ele>279.6</ele><time>2026-05-04T17:31:51Z</time></trkpt><trkpt lat="41.3458815174795" lon="1.858157279852866"><ele>280.4</ele><time>2026-05-04T17:31:52Z</time></trkpt><trkpt lat="41.34578215972406" lon="1.8581763099668123"><ele>281.2</ele><time>2026-05-04T17:31:53Z</time></trkpt><trkpt lat="41.345671792246854" lon="1.8581927303399928"><ele>282.0</ele><time>2026-05-04T17:31:54.001Z</time></trkpt><trkpt lat="41.345564023161565" lon="1.8581885493297146"><ele>281.0</ele><time>2026-05-04T17:31:55.001Z</time></trkpt><trkpt lat="41.34545655828945" lon="1.8581417661563455"><ele>280.0</ele><time>2026-05-04T17:31:56.001Z</time></trkpt><trkpt lat="41.34537481571989" lon="1.8580336750995732"><ele>279.0</ele><time>2026-05-04T17:31:57.001Z</time></trkpt><trkpt lat="41.34529274622054" lon="1.857916175628775"><ele>278.0</ele><time>2026-05-04T17:31:58.001Z</time></trkpt><trkpt lat="41.345205743098965" lon="1.857799471542412"><ele>278.0</ele><time>2026-05-04T17:31:59.001Z</time></trkpt><trkpt lat="41.345147899909975" lon="1.8576271457340148"><ele>278.0</ele><time>2026-05-04T17:32:00.001Z</time></trkpt><trkpt lat="41.34508225228256" lon="1.8575436746024532"><ele>278.0</ele><time>2026-05-04T17:32:01.001Z</time></trkpt><trkpt lat="41.34496741875223" lon="1.8574964977441402"><ele>278.0</ele><time>2026-05-04T17:32:02.001Z</time></trkpt><trkpt lat="41.34485512088747" lon="1.8574320969410263"><ele>280.5</ele><time>2026-05-04T17:32:03.001Z</time></trkpt><trkpt lat="41.344745096745534" lon="1.8573714297839277"><ele>283.0</ele><time>2026-05-04T17:32:04.001Z</time></trkpt><trkpt lat="41.34464023357318" lon="1.8573549220789576"><ele>285.5</ele><time>2026-05-04T17:32:05.001Z</time></trkpt><trkpt lat="41.344529648348654" lon="1.8573413951714808"><ele>288.0</ele><time>2026-05-04T17:32:06.001Z</time></trkpt><trkpt lat="41.34441629369605" lon="1.8573189455203174"><ele>288.0</ele><time>2026-05-04T17:32:07.001Z</time></trkpt><trkpt lat="41.34429919468306" lon="1.8573178959674057"><ele>288.0</ele><time>2026-05-04T17:32:08.001Z</time></trkpt><trkpt lat="41.3441898112495" lon="1.857344261826704"><ele>288.0</ele><time>2026-05-04T17:32:09.001Z</time></trkpt><trkpt lat="41.34408038941314" lon="1.8573585327775963"><ele>288.0</ele><time>2026-05-04T17:32:10.001Z</time></trkpt><trkpt lat="41.343978517686615" lon="1.8574106892832944"><ele>288.0</ele><time>2026-05-04T17:32:11.001Z</time></trkpt><trkpt lat="41.34387645456482" lon="1.8574610270392973"><ele>288.0</ele><time>2026-05-04T17:32:12.001Z</time></trkpt><trkpt lat="41.34377452623831" lon="1.8575281464418605"><ele>288.0</ele><time>2026-05-04T17:32:13.001Z</time></trkpt><trkpt lat="41.343674135759656" lon="1.8575886550541965"><ele>288.0</ele><time>2026-05-04T17:32:14.001Z</time></trkpt><trkpt lat="41.34357515829389" lon="1.857660029847796"><ele>288.0</ele><time>2026-05-04T17:32:15.001Z</time></trkpt><trkpt lat="41.34348603920763" lon="1.8577309518497354"><ele>288.0</ele><time>2026-05-04T17:32:16.001Z</time></trkpt><trkpt lat="41.34339199723194" lon="1.857811858116418"><ele>288.0</ele><time>2026-05-04T17:32:17.001Z</time></trkpt><trkpt lat="41.34330830504232" lon="1.857911170799009"><ele>288.0</ele><time>2026-05-04T17:32:18.001Z</time></trkpt><trkpt lat="41.34321920403617" lon="1.8580092411690055"><ele>288.0</ele><time>2026-05-04T17:32:19.001Z</time></trkpt><trkpt lat="41.34314669545552" lon="1.8581207234361607"><ele>288.0</ele><time>2026-05-04T17:32:20.001Z</time></trkpt><trkpt lat="41.3430748342954" lon="1.85822084588038"><ele>288.0</ele><time>2026-05-04T17:32:21.001Z</time></trkpt><trkpt lat="41.343002742860584" lon="1.858326692968956"><ele>288.0</ele><time>2026-05-04T17:32:22.001Z</time></trkpt><trkpt lat="41.34292915625908" lon="1.858428702600528"><ele>288.0</ele><time>2026-05-04T17:32:23.001Z</time></trkpt><trkpt lat="41.34285818081548" lon="1.8585366895824966"><ele>288.0</ele><time>2026-05-04T17:32:24.001Z</time></trkpt><trkpt lat="41.342781562604934" lon="1.8586421454667172"><ele>288.0</ele><time>2026-05-04T17:32:25.001Z</time></trkpt><trkpt lat="41.3427085076549" lon="1.8587437707762944"><ele>288.0</ele><time>2026-05-04T17:32:26.001Z</time></trkpt><trkpt lat="41.34263000573578" lon="1.8588361170843786"><ele>288.0</ele><time>2026-05-04T17:32:27.001Z</time></trkpt><trkpt lat="41.342541109109014" lon="1.8589083545024572"><ele>288.0</ele><time>2026-05-04T17:32:28.001Z</time></trkpt><trkpt lat="41.34244742035629" lon="1.8589187148048127"><ele>288.0</ele><time>2026-05-04T17:32:29.001Z</time></trkpt><trkpt lat="41.34235896627721" lon="1.8589212644718143"><ele>288.0</ele><time>2026-05-04T17:32:30.001Z</time></trkpt><trkpt lat="41.34229217881583" lon="1.858801259893319"><ele>288.0</ele><time>2026-05-04T17:32:31.001Z</time></trkpt><trkpt lat="41.342236577187144" lon="1.8586886203777009"><ele>288.0</ele><time>2026-05-04T17:32:32.001Z</time></trkpt><trkpt lat="41.34215811610786" lon="1.8585974021527585"><ele>288.0</ele><time>2026-05-04T17:32:33.001Z</time></trkpt><trkpt lat="41.34206724920495" lon="1.8585304731164285"><ele>288.0</ele><time>2026-05-04T17:32:34.001Z</time></trkpt><trkpt lat="41.34195385026454" lon="1.8585229717843892"><ele>288.0</ele><time>2026-05-04T17:32:35.001Z</time></trkpt><trkpt lat="41.341839083184496" lon="1.8585506391728015"><ele>288.0</ele><time>2026-05-04T17:32:36.001Z</time></trkpt><trkpt lat="41.34173520653563" lon="1.8586010145277327"><ele>288.0</ele><time>2026-05-04T17:32:37.001Z</time></trkpt><trkpt lat="41.34163260341448" lon="1.858669724945623"><ele>288.0</ele><time>2026-05-04T17:32:38.001Z</time></trkpt><trkpt lat="41.34153040229237" lon="1.8587534555179008"><ele>288.0</ele><time>2026-05-04T17:32:39.001Z</time></trkpt><trkpt lat="41.341437324062916" lon="1.8588336846280449"><ele>288.0</ele><time>2026-05-04T17:32:40.001Z</time></trkpt><trkpt lat="41.3413438580021" lon="1.858921491552655"><ele>289.0</ele><time>2026-05-04T17:32:41.001Z</time></trkpt><trkpt lat="41.341246181077" lon="1.8590014253992946"><ele>290.0</ele><time>2026-05-04T17:32:42.001Z</time></trkpt><trkpt lat="41.34115010711084" lon="1.8590827748431331"><ele>291.0</ele><time>2026-05-04T17:32:43.001Z</time></trkpt><trkpt lat="41.34105482730771" lon="1.8591656012936035"><ele>292.0</ele><time>2026-05-04T17:32:44.001Z</time></trkpt><trkpt lat="41.340965008657044" lon="1.8592492804808858"><ele>293.4</ele><time>2026-05-04T17:32:45.001Z</time></trkpt><trkpt lat="41.34086860606968" lon="1.8593141823309216"><ele>294.79999999999995</ele><time>2026-05-04T17:32:46.001Z</time></trkpt><trkpt lat="41.340781259815344" lon="1.8593910723532106"><ele>296.2</ele><time>2026-05-04T17:32:47.001Z</time></trkpt><trkpt lat="41.34069043006963" lon="1.8594961972154584"><ele>297.59999999999997</ele><time>2026-05-04T17:32:48.001Z</time></trkpt><trkpt lat="41.34060234598401" lon="1.8595784343055353"><ele>299.0</ele><time>2026-05-04T17:32:49.001Z</time></trkpt><trkpt lat="41.340524321292705" lon="1.8596775605562514"><ele>299.25</ele><time>2026-05-04T17:32:50.001Z</time></trkpt><trkpt lat="41.34045916549225" lon="1.85979879591494"><ele>299.5</ele><time>2026-05-04T17:32:51.001Z</time></trkpt><trkpt lat="41.34038625349188" lon="1.859918140300213"><ele>299.75</ele><time>2026-05-04T17:32:52.001Z</time></trkpt><trkpt lat="41.340316822211214" lon="1.8600399013507845"><ele>300.0</ele><time>2026-05-04T17:32:53.001Z</time></trkpt><trkpt lat="41.34020329569549" lon="1.8600677509835601"><ele>300.0</ele><time>2026-05-04T17:32:54.001Z</time></trkpt><trkpt lat="41.34011301578597" lon="1.8600534819503387"><ele>300.0</ele><time>2026-05-04T17:32:55.001Z</time></trkpt><trkpt lat="41.340024462570724" lon="1.860005384077472"><ele>300.0</ele><time>2026-05-04T17:32:56.001Z</time></trkpt><trkpt lat="41.33992929351861" lon="1.8599592163065446"><ele>300.0</ele><time>2026-05-04T17:32:57.001Z</time></trkpt><trkpt lat="41.33983302683381" lon="1.8599283947091394"><ele>300.0</ele><time>2026-05-04T17:32:58.001Z</time></trkpt><trkpt lat="41.3397447491166" lon="1.8598794883811962"><ele>300.4</ele><time>2026-05-04T17:32:59.001Z</time></trkpt><trkpt lat="41.33965487542429" lon="1.8598299285713702"><ele>300.8</ele><time>2026-05-04T17:33:00.001Z</time></trkpt><trkpt lat="41.33956079104658" lon="1.8597870994637804"><ele>301.2</ele><time>2026-05-04T17:33:01.001Z</time></trkpt><trkpt lat="41.33946984359767" lon="1.8597333863852086"><ele>301.6</ele><time>2026-05-04T17:33:02.001Z</time></trkpt><trkpt lat="41.339374987429586" lon="1.8596877118804485"><ele>302.0</ele><time>2026-05-04T17:33:03.001Z</time></trkpt><trkpt lat="41.33927767417524" lon="1.8596550114338117"><ele>302.0</ele><time>2026-05-04T17:33:04.001Z</time></trkpt><trkpt lat="41.33917548391144" lon="1.8596325087408823"><ele>302.0</ele><time>2026-05-04T17:33:05.001Z</time></trkpt><trkpt lat="41.33907470414179" lon="1.8596533192123457"><ele>302.0</ele><time>2026-05-04T17:33:06.001Z</time></trkpt><trkpt lat="41.33897183414516" lon="1.859687742399121"><ele>302.0</ele><time>2026-05-04T17:33:07.001Z</time></trkpt><trkpt lat="41.33887801613064" lon="1.8597535191239805"><ele>302.0</ele><time>2026-05-04T17:33:08.001Z</time></trkpt><trkpt lat="41.33878869902469" lon="1.8598385972279257"><ele>302.0</ele><time>2026-05-04T17:33:09.001Z</time></trkpt><trkpt lat="41.338709090455914" lon="1.8599369011276572"><ele>302.0</ele><time>2026-05-04T17:33:10.001Z</time></trkpt><trkpt lat="41.338636543377646" lon="1.8600476806348225"><ele>302.0</ele><time>2026-05-04T17:33:11Z</time></trkpt><trkpt lat="41.33856892022334" lon="1.8601608296587053"><ele>302.0</ele><time>2026-05-04T17:33:12Z</time></trkpt><trkpt lat="41.33849542630373" lon="1.860272435729216"><ele>302.0</ele><time>2026-05-04T17:33:13Z</time></trkpt><trkpt lat="41.33842260703492" lon="1.8603829865042671"><ele>302.0</ele><time>2026-05-04T17:33:14Z</time></trkpt><trkpt lat="41.338349321979486" lon="1.8604955716376277"><ele>302.0</ele><time>2026-05-04T17:33:15Z</time></trkpt><trkpt lat="41.33828323620131" lon="1.860609592360643"><ele>302.0</ele><time>2026-05-04T17:33:16Z</time></trkpt><trkpt lat="41.33823119376376" lon="1.8607415708331387"><ele>302.0</ele><time>2026-05-04T17:33:17Z</time></trkpt><trkpt lat="41.33818229847067" lon="1.8608809389407623"><ele>302.0</ele><time>2026-05-04T17:33:18Z</time></trkpt><trkpt lat="41.33814226623017" lon="1.8610183410086671"><ele>301.0</ele><time>2026-05-04T17:33:19Z</time></trkpt><trkpt lat="41.33808660017373" lon="1.8611556070528539"><ele>300.0</ele><time>2026-05-04T17:33:20Z</time></trkpt><trkpt lat="41.33802186796201" lon="1.8613022490434925"><ele>299.0</ele><time>2026-05-04T17:33:21Z</time></trkpt><trkpt lat="41.337964262608665" lon="1.8614136231573961"><ele>298.0</ele><time>2026-05-04T17:33:22Z</time></trkpt><trkpt lat="41.33788549242807" lon="1.8615304614840869"><ele>298.0</ele><time>2026-05-04T17:33:23Z</time></trkpt><trkpt lat="41.337822387168785" lon="1.8616341988717038"><ele>298.0</ele><time>2026-05-04T17:33:24Z</time></trkpt><trkpt lat="41.33774194234692" lon="1.861752263370995"><ele>298.0</ele><time>2026-05-04T17:33:25Z</time></trkpt><trkpt lat="41.33766634120464" lon="1.8618583996230975"><ele>298.0</ele><time>2026-05-04T17:33:26Z</time></trkpt><trkpt lat="41.33758596866614" lon="1.8619785965152724"><ele>301.4</ele><time>2026-05-04T17:33:27Z</time></trkpt><trkpt lat="41.33750771191452" lon="1.8620923442917214"><ele>304.8</ele><time>2026-05-04T17:33:28Z</time></trkpt><trkpt lat="41.33743501271585" lon="1.8621912052602008"><ele>308.2</ele><time>2026-05-04T17:33:29Z</time></trkpt><trkpt lat="41.33736741081409" lon="1.8622976611801978"><ele>311.6</ele><time>2026-05-04T17:33:30Z</time></trkpt><trkpt lat="41.33730159598766" lon="1.8624148114561838"><ele>315.0</ele><time>2026-05-04T17:33:31Z</time></trkpt><trkpt lat="41.33723036297578" lon="1.8625272824584609"><ele>314.0</ele><time>2026-05-04T17:33:32Z</time></trkpt><trkpt lat="41.337162999248335" lon="1.8626383885587503"><ele>313.0</ele><time>2026-05-04T17:33:33Z</time></trkpt><trkpt lat="41.33709395271416" lon="1.8627522787097297"><ele>312.0</ele><time>2026-05-04T17:33:34Z</time></trkpt><trkpt lat="41.33702482798511" lon="1.862866033429901"><ele>311.0</ele><time>2026-05-04T17:33:35Z</time></trkpt><trkpt lat="41.336960509610144" lon="1.8629782380522224"><ele>310.0</ele><time>2026-05-04T17:33:36Z</time></trkpt><trkpt lat="41.33688854536577" lon="1.863078595697265"><ele>310.0</ele><time>2026-05-04T17:33:37Z</time></trkpt><trkpt lat="41.336810739354775" lon="1.8631693087185528"><ele>310.0</ele><time>2026-05-04T17:33:38Z</time></trkpt><trkpt lat="41.336718496846245" lon="1.8632340201846853"><ele>310.0</ele><time>2026-05-04T17:33:39Z</time></trkpt><trkpt lat="41.336619763954864" lon="1.8633041270266062"><ele>310.0</ele><time>2026-05-04T17:33:40Z</time></trkpt><trkpt lat="41.33651371536691" lon="1.8633422600502254"><ele>310.0</ele><time>2026-05-04T17:33:41Z</time></trkpt><trkpt lat="41.33640471034003" lon="1.8633571928738657"><ele>309.25</ele><time>2026-05-04T17:33:42Z</time></trkpt><trkpt lat="41.33629471681029" lon="1.8633554222178437"><ele>308.5</ele><time>2026-05-04T17:33:43Z</time></trkpt><trkpt lat="41.33618118987978" lon="1.8633580458787764"><ele>307.75</ele><time>2026-05-04T17:33:44Z</time></trkpt><trkpt lat="41.33606959113113" lon="1.8633326425511478"><ele>307.0</ele><time>2026-05-04T17:33:45Z</time></trkpt><trkpt lat="41.33596126093514" lon="1.8632785900653994"><ele>307.0</ele><time>2026-05-04T17:33:46Z</time></trkpt><trkpt lat="41.33586385596582" lon="1.8632120098239142"><ele>307.0</ele><time>2026-05-04T17:33:47Z</time></trkpt><trkpt lat="41.33576945273482" lon="1.8631398759567326"><ele>307.0</ele><time>2026-05-04T17:33:48Z</time></trkpt><trkpt lat="41.33567690711406" lon="1.8630644560105014"><ele>307.0</ele><time>2026-05-04T17:33:49Z</time></trkpt><trkpt lat="41.33558526257713" lon="1.862990631713137"><ele>307.0</ele><time>2026-05-04T17:33:50Z</time></trkpt><trkpt lat="41.33549411277601" lon="1.8629189151181083"><ele>307.4</ele><time>2026-05-04T17:33:51Z</time></trkpt><trkpt lat="41.33540253263155" lon="1.8628499681386963"><ele>307.79999999999995</ele><time>2026-05-04T17:33:52Z</time></trkpt><trkpt lat="41.335313303979746" lon="1.862775501276195"><ele>308.2</ele><time>2026-05-04T17:33:53Z</time></trkpt><trkpt lat="41.33522081412333" lon="1.8627078293813655"><ele>308.59999999999997</ele><time>2026-05-04T17:33:54Z</time></trkpt><trkpt lat="41.33512671442689" lon="1.8626403253291497"><ele>309.0</ele><time>2026-05-04T17:33:55Z</time></trkpt><trkpt lat="41.33502848998623" lon="1.8625786625961964"><ele>308.59999999999997</ele><time>2026-05-04T17:33:56Z</time></trkpt><trkpt lat="41.334925009626176" lon="1.8625462123341312"><ele>308.2</ele><time>2026-05-04T17:33:57Z</time></trkpt><trkpt lat="41.33481812380967" lon="1.8625312806550052"><ele>307.79999999999995</ele><time>2026-05-04T17:33:58Z</time></trkpt><trkpt lat="41.3347125992721" lon="1.8625487322431211"><ele>307.4</ele><time>2026-05-04T17:33:59Z</time></trkpt><trkpt lat="41.33460478161722" lon="1.8625860917557269"><ele>307.0</ele><time>2026-05-04T17:34:00Z</time></trkpt><trkpt lat="41.33450405228543" lon="1.862642510269904"><ele>307.0</ele><time>2026-05-04T17:34:01Z</time></trkpt><trkpt lat="41.33440952311584" lon="1.8627148767801869"><ele>307.0</ele><time>2026-05-04T17:34:02Z</time></trkpt><trkpt lat="41.33432794467302" lon="1.8628087804565436"><ele>307.0</ele><time>2026-05-04T17:34:03Z</time></trkpt><trkpt lat="41.33425912215466" lon="1.8629204730753628"><ele>307.0</ele><time>2026-05-04T17:34:04Z</time></trkpt><trkpt lat="41.334207484988475" lon="1.8630468998036063"><ele>307.0</ele><time>2026-05-04T17:34:05Z</time></trkpt><trkpt lat="41.33417113931599" lon="1.863181639328641"><ele>307.0</ele><time>2026-05-04T17:34:06Z</time></trkpt><trkpt lat="41.3341494180008" lon="1.8633230346149021"><ele>307.0</ele><time>2026-05-04T17:34:07Z</time></trkpt><trkpt lat="41.33413586805505" lon="1.8634674792756578"><ele>307.0</ele><time>2026-05-04T17:34:08Z</time></trkpt><trkpt lat="41.3341358582153" lon="1.8636115195404792"><ele>307.0</ele><time>2026-05-04T17:34:09Z</time></trkpt><trkpt lat="41.33414953064054" lon="1.8637535251767787"><ele>307.0</ele><time>2026-05-04T17:34:10Z</time></trkpt><trkpt lat="41.33416902730636" lon="1.8638983977730619"><ele>307.0</ele><time>2026-05-04T17:34:11Z</time></trkpt><trkpt lat="41.334195701650586" lon="1.8640399301471033"><ele>307.0</ele><time>2026-05-04T17:34:12Z</time></trkpt><trkpt lat="41.33423040355548" lon="1.8641783572222967"><ele>307.0</ele><time>2026-05-04T17:34:13Z</time></trkpt><trkpt lat="41.334268429489555" lon="1.8643155929039381"><ele>307.0</ele><time>2026-05-04T17:34:14Z</time></trkpt><trkpt lat="41.3343164801383" lon="1.8644637522469971"><ele>307.0</ele><time>2026-05-04T17:34:15Z</time></trkpt><trkpt lat="41.33438623390609" lon="1.8646577813272893"><ele>307.0</ele><time>2026-05-04T17:34:16Z</time></trkpt><trkpt lat="41.33449088624798" lon="1.8648683373715713"><ele>307.0</ele><time>2026-05-04T17:34:17Z</time></trkpt><trkpt lat="41.334555208036186" lon="1.8649658895433199"><ele>307.0</ele><time>2026-05-04T17:34:19Z</time></trkpt><trkpt lat="41.33462579841717" lon="1.8650859437832887"><ele>307.0</ele><time>2026-05-04T17:34:20Z</time></trkpt><trkpt lat="41.33470034573679" lon="1.8652026586442607"><ele>307.0</ele><time>2026-05-04T17:34:21.001Z</time></trkpt><trkpt lat="41.33476824338252" lon="1.865329053861495"><ele>307.0</ele><time>2026-05-04T17:34:22.001Z</time></trkpt><trkpt lat="41.33482694468228" lon="1.865455835910331"><ele>307.0</ele><time>2026-05-04T17:34:23.001Z</time></trkpt><trkpt lat="41.334871006388255" lon="1.865595306034756"><ele>309.2</ele><time>2026-05-04T17:34:24.001Z</time></trkpt><trkpt lat="41.3349032388332" lon="1.8657380809246886"><ele>311.4</ele><time>2026-05-04T17:34:25.001Z</time></trkpt><trkpt lat="41.334907975329635" lon="1.8658889759221835"><ele>313.6</ele><time>2026-05-04T17:34:26.001Z</time></trkpt><trkpt lat="41.33493665781933" lon="1.8660325533447946"><ele>315.8</ele><time>2026-05-04T17:34:27.001Z</time></trkpt><trkpt lat="41.334951900561386" lon="1.8661782820501742"><ele>318.0</ele><time>2026-05-04T17:34:28.001Z</time></trkpt><trkpt lat="41.33496267709782" lon="1.8663291375626956"><ele>318.0</ele><time>2026-05-04T17:34:29.001Z</time></trkpt><trkpt lat="41.33496678246639" lon="1.8664758884737267"><ele>318.0</ele><time>2026-05-04T17:34:30.001Z</time></trkpt><trkpt lat="41.33497216576786" lon="1.8666231129578597"><ele>318.0</ele><time>2026-05-04T17:34:31.001Z</time></trkpt><trkpt lat="41.334976427782024" lon="1.866766265273317"><ele>318.0</ele><time>2026-05-04T17:34:32.001Z</time></trkpt><trkpt lat="41.3349783319035" lon="1.8669087224062881"><ele>318.0</ele><time>2026-05-04T17:34:33.001Z</time></trkpt><trkpt lat="41.33498067168823" lon="1.8670494163121802"><ele>317.8</ele><time>2026-05-04T17:34:34.001Z</time></trkpt><trkpt lat="41.3349800489072" lon="1.867192820069012"><ele>317.6</ele><time>2026-05-04T17:34:35.001Z</time></trkpt><trkpt lat="41.33494725656591" lon="1.8673313921417638"><ele>317.4</ele><time>2026-05-04T17:34:36.001Z</time></trkpt><trkpt lat="41.334923107517966" lon="1.8674736771202556"><ele>317.2</ele><time>2026-05-04T17:34:37.001Z</time></trkpt><trkpt lat="41.3348922906622" lon="1.8676208716658422"><ele>317.0</ele><time>2026-05-04T17:34:38.001Z</time></trkpt><trkpt lat="41.33486187213645" lon="1.867762104785556"><ele>317.5</ele><time>2026-05-04T17:34:39.001Z</time></trkpt><trkpt lat="41.3348299902449" lon="1.86791259692355"><ele>318.0</ele><time>2026-05-04T17:34:40.001Z</time></trkpt><trkpt lat="41.33480273055829" lon="1.8680711011999152"><ele>318.5</ele><time>2026-05-04T17:34:41.001Z</time></trkpt><trkpt lat="41.334772171127376" lon="1.8682185464438084"><ele>319.0</ele><time>2026-05-04T17:34:42.001Z</time></trkpt><trkpt lat="41.33474558909463" lon="1.868363996132936"><ele>316.75</ele><time>2026-05-04T17:34:43.001Z</time></trkpt><trkpt lat="41.334714093345966" lon="1.868508619281688"><ele>314.5</ele><time>2026-05-04T17:34:44.001Z</time></trkpt><trkpt lat="41.33468530676389" lon="1.868655139000097"><ele>312.25</ele><time>2026-05-04T17:34:45.001Z</time></trkpt><trkpt lat="41.334652881044654" lon="1.868803690614927"><ele>310.0</ele><time>2026-05-04T17:34:46.001Z</time></trkpt><trkpt lat="41.33461353335505" lon="1.8689509512408875"><ele>310.0</ele><time>2026-05-04T17:34:47.001Z</time></trkpt><trkpt lat="41.334572683005526" lon="1.8690944553741533"><ele>310.0</ele><time>2026-05-04T17:34:48.001Z</time></trkpt><trkpt lat="41.33451707397172" lon="1.8692321772688423"><ele>310.0</ele><time>2026-05-04T17:34:49.001Z</time></trkpt><trkpt lat="41.33445412307423" lon="1.8693599889354389"><ele>310.0</ele><time>2026-05-04T17:34:50.001Z</time></trkpt><trkpt lat="41.33438739988129" lon="1.8694843043717675"><ele>312.0</ele><time>2026-05-04T17:34:51.001Z</time></trkpt><trkpt lat="41.33432182034387" lon="1.8696004568682103"><ele>314.0</ele><time>2026-05-04T17:34:52.001Z</time></trkpt><trkpt lat="41.33425354753081" lon="1.8697289006420887"><ele>316.0</ele><time>2026-05-04T17:34:53.001Z</time></trkpt><trkpt lat="41.3341816729259" lon="1.8698515341718709"><ele>318.0</ele><time>2026-05-04T17:34:54.001Z</time></trkpt><trkpt lat="41.334109644835216" lon="1.8699693926754746"><ele>318.0</ele><time>2026-05-04T17:34:55.001Z</time></trkpt><trkpt lat="41.33403998698424" lon="1.8700898947741647"><ele>318.0</ele><time>2026-05-04T17:34:56.001Z</time></trkpt><trkpt lat="41.333979837658624" lon="1.8702188125169028"><ele>318.0</ele><time>2026-05-04T17:34:57.001Z</time></trkpt><trkpt lat="41.333926722889586" lon="1.8703545659067906"><ele>318.0</ele><time>2026-05-04T17:34:58.001Z</time></trkpt><trkpt lat="41.33388351133183" lon="1.8704988517400292"><ele>316.5</ele><time>2026-05-04T17:34:59.001Z</time></trkpt><trkpt lat="41.33385198832982" lon="1.8706493730218174"><ele>315.0</ele><time>2026-05-04T17:35:00.001Z</time></trkpt><trkpt lat="41.33383376006463" lon="1.870800634281272"><ele>313.5</ele><time>2026-05-04T17:35:01.001Z</time></trkpt><trkpt lat="41.33381900695534" lon="1.8709514660916244"><ele>312.0</ele><time>2026-05-04T17:35:02.001Z</time></trkpt><trkpt lat="41.33379145059697" lon="1.8710937776128926"><ele>312.0</ele><time>2026-05-04T17:35:03.001Z</time></trkpt><trkpt lat="41.333784738240375" lon="1.8712426421728476"><ele>312.0</ele><time>2026-05-04T17:35:04.001Z</time></trkpt><trkpt lat="41.33377446311478" lon="1.8713933656056247"><ele>312.0</ele><time>2026-05-04T17:35:05.001Z</time></trkpt><trkpt lat="41.33378612717003" lon="1.8715402836288892"><ele>312.0</ele><time>2026-05-04T17:35:06.001Z</time></trkpt><trkpt lat="41.333845377688135" lon="1.871672330659836"><ele>312.75</ele><time>2026-05-04T17:35:07.001Z</time></trkpt><trkpt lat="41.33393587472635" lon="1.8717890739978043"><ele>313.5</ele><time>2026-05-04T17:35:08.001Z</time></trkpt><trkpt lat="41.33402359336552" lon="1.871893179430879"><ele>314.25</ele><time>2026-05-04T17:35:09.001Z</time></trkpt><trkpt lat="41.334107823748454" lon="1.8720042484623838"><ele>315.0</ele><time>2026-05-04T17:35:10.001Z</time></trkpt><trkpt lat="41.33419359471261" lon="1.872113846933489"><ele>315.0</ele><time>2026-05-04T17:35:11.001Z</time></trkpt><trkpt lat="41.33428217861199" lon="1.872217841842762"><ele>315.0</ele><time>2026-05-04T17:35:12.001Z</time></trkpt><trkpt lat="41.33438397972546" lon="1.8722838709110505"><ele>315.0</ele><time>2026-05-04T17:35:13.001Z</time></trkpt><trkpt lat="41.33447800752182" lon="1.8723811105297408"><ele>315.0</ele><time>2026-05-04T17:35:14.001Z</time></trkpt><trkpt lat="41.3345738203073" lon="1.8724745070420608"><ele>315.0</ele><time>2026-05-04T17:35:15.001Z</time></trkpt><trkpt lat="41.334673079904725" lon="1.8725551222042993"><ele>315.0</ele><time>2026-05-04T17:35:16.001Z</time></trkpt><trkpt lat="41.334774862381096" lon="1.8726307529194468"><ele>315.0</ele><time>2026-05-04T17:35:17Z</time></trkpt><trkpt lat="41.33486995486609" lon="1.8727184809218878"><ele>315.0</ele><time>2026-05-04T17:35:18Z</time></trkpt><trkpt lat="41.33495175604278" lon="1.8728300196061343"><ele>316.75</ele><time>2026-05-04T17:35:19Z</time></trkpt><trkpt lat="41.335017635246544" lon="1.8729576627384408"><ele>318.5</ele><time>2026-05-04T17:35:20Z</time></trkpt><trkpt lat="41.3350747155915" lon="1.8730958070567334"><ele>320.25</ele><time>2026-05-04T17:35:21Z</time></trkpt><trkpt lat="41.335118296940756" lon="1.8732391492591962"><ele>322.0</ele><time>2026-05-04T17:35:22Z</time></trkpt><trkpt lat="41.33516199113892" lon="1.8733805870966374"><ele>323.0</ele><time>2026-05-04T17:35:23Z</time></trkpt><trkpt lat="41.3351962380094" lon="1.8735304078455999"><ele>324.0</ele><time>2026-05-04T17:35:24Z</time></trkpt><trkpt lat="41.33522222372861" lon="1.8736793641181617"><ele>325.0</ele><time>2026-05-04T17:35:25Z</time></trkpt><trkpt lat="41.33524084864102" lon="1.8738313958321056"><ele>326.0</ele><time>2026-05-04T17:35:26Z</time></trkpt><trkpt lat="41.33525885266569" lon="1.8739799486802742"><ele>326.0</ele><time>2026-05-04T17:35:27Z</time></trkpt><trkpt lat="41.33528206927204" lon="1.8741198166150397"><ele>326.0</ele><time>2026-05-04T17:35:28Z</time></trkpt><trkpt lat="41.33529226226029" lon="1.8742397990798572"><ele>326.0</ele><time>2026-05-04T17:35:29Z</time></trkpt><trkpt lat="41.33530481017099" lon="1.8743816975896352"><ele>326.0</ele><time>2026-05-04T17:35:30Z</time></trkpt><trkpt lat="41.33530322641636" lon="1.8745587347709607"><ele>326.0</ele><time>2026-05-04T17:35:31Z</time></trkpt><trkpt lat="41.33530889498847" lon="1.8747035664264033"><ele>326.6</ele><time>2026-05-04T17:35:32Z</time></trkpt><trkpt lat="41.33527943072137" lon="1.8748452611084079"><ele>327.20000000000005</ele><time>2026-05-04T17:35:33Z</time></trkpt><trkpt lat="41.33525231508727" lon="1.8749816025647572"><ele>327.79999999999995</ele><time>2026-05-04T17:35:34Z</time></trkpt><trkpt lat="41.335255452294426" lon="1.8751135817034414"><ele>328.4</ele><time>2026-05-04T17:35:35Z</time></trkpt><trkpt lat="41.33525406760153" lon="1.8752456805285231"><ele>329.0</ele><time>2026-05-04T17:35:36Z</time></trkpt><trkpt lat="41.335257303133226" lon="1.8753773254821857"><ele>329.6</ele><time>2026-05-04T17:35:37Z</time></trkpt><trkpt lat="41.33527359126335" lon="1.875510752454772"><ele>330.2</ele><time>2026-05-04T17:35:38Z</time></trkpt><trkpt lat="41.335298250818965" lon="1.875638383913737"><ele>330.8</ele><time>2026-05-04T17:35:39Z</time></trkpt><trkpt lat="41.335329186057486" lon="1.8757622927895234"><ele>331.40000000000003</ele><time>2026-05-04T17:35:40Z</time></trkpt><trkpt lat="41.3353676614863" lon="1.8758808351189935"><ele>332.0</ele><time>2026-05-04T17:35:41Z</time></trkpt><trkpt lat="41.33540384382283" lon="1.8760035659996803"><ele>333.0</ele><time>2026-05-04T17:35:42Z</time></trkpt><trkpt lat="41.335435427749665" lon="1.8761208892479369"><ele>334.0</ele><time>2026-05-04T17:35:43Z</time></trkpt><trkpt lat="41.33546009380419" lon="1.876244623972866"><ele>335.0</ele><time>2026-05-04T17:35:44Z</time></trkpt><trkpt lat="41.335461944511884" lon="1.8763769606722536"><ele>336.0</ele><time>2026-05-04T17:35:45Z</time></trkpt><trkpt lat="41.335396467197796" lon="1.8764891748283503"><ele>337.0</ele><time>2026-05-04T17:35:46Z</time></trkpt><trkpt lat="41.33533616740545" lon="1.8765835321510709"><ele>337.0</ele><time>2026-05-04T17:35:47Z</time></trkpt><trkpt lat="41.33526703483531" lon="1.876666623725918"><ele>337.0</ele><time>2026-05-04T17:35:48Z</time></trkpt><trkpt lat="41.33520289031504" lon="1.87674798657736"><ele>337.0</ele><time>2026-05-04T17:35:49Z</time></trkpt><trkpt lat="41.33513274556322" lon="1.8768461609530658"><ele>337.0</ele><time>2026-05-04T17:35:50Z</time></trkpt><trkpt lat="41.335048662262544" lon="1.8769237539060637"><ele>337.0</ele><time>2026-05-04T17:35:51Z</time></trkpt><trkpt lat="41.33496593667259" lon="1.8770019577209023"><ele>337.0</ele><time>2026-05-04T17:35:52Z</time></trkpt><trkpt lat="41.33488342396692" lon="1.8770985984568425"><ele>337.0</ele><time>2026-05-04T17:35:53Z</time></trkpt><trkpt lat="41.33478729394889" lon="1.8771804236993288"><ele>337.0</ele><time>2026-05-04T17:35:54Z</time></trkpt><trkpt lat="41.33469465945071" lon="1.8772618021811927"><ele>337.0</ele><time>2026-05-04T17:35:55Z</time></trkpt><trkpt lat="41.334602379522444" lon="1.8773368169174245"><ele>337.0</ele><time>2026-05-04T17:35:56Z</time></trkpt><trkpt lat="41.3345345095805" lon="1.877384084611099"><ele>337.0</ele><time>2026-05-04T17:35:57Z</time></trkpt><trkpt lat="41.33447342968402" lon="1.8774636310767532"><ele>337.0</ele><time>2026-05-04T17:35:58Z</time></trkpt><trkpt lat="41.33437023761012" lon="1.8776667459473522"><ele>337.0</ele><time>2026-05-04T17:35:59Z</time></trkpt><trkpt lat="41.3343220121576" lon="1.8778233520962984"><ele>337.0</ele><time>2026-05-04T17:36:00Z</time></trkpt><trkpt lat="41.33431254785659" lon="1.8779841481379287"><ele>337.0</ele><time>2026-05-04T17:36:01Z</time></trkpt><trkpt lat="41.33433337113678" lon="1.8781355587220832"><ele>337.0</ele><time>2026-05-04T17:36:02Z</time></trkpt><trkpt lat="41.3343695419372" lon="1.8782912761145114"><ele>337.0</ele><time>2026-05-04T17:36:03Z</time></trkpt><trkpt lat="41.33438784082622" lon="1.8784403801037004"><ele>337.0</ele><time>2026-05-04T17:36:04Z</time></trkpt><trkpt lat="41.33440023454709" lon="1.8785961393214654"><ele>337.25</ele><time>2026-05-04T17:36:05Z</time></trkpt><trkpt lat="41.334414924440104" lon="1.8787493796623889"><ele>337.5</ele><time>2026-05-04T17:36:06Z</time></trkpt><trkpt lat="41.33442729347927" lon="1.878902736627132"><ele>337.75</ele><time>2026-05-04T17:36:07Z</time></trkpt><trkpt lat="41.334443595021305" lon="1.879055157615391"><ele>338.0</ele><time>2026-05-04T17:36:08Z</time></trkpt><trkpt lat="41.33445175402516" lon="1.879209855622853"><ele>337.25</ele><time>2026-05-04T17:36:09Z</time></trkpt><trkpt lat="41.334461265008116" lon="1.879362006360414"><ele>336.5</ele><time>2026-05-04T17:36:10Z</time></trkpt><trkpt lat="41.33448232828366" lon="1.8795088919672138"><ele>335.75</ele><time>2026-05-04T17:36:11Z</time></trkpt><trkpt lat="41.33450019144748" lon="1.8796644211168394"><ele>335.0</ele><time>2026-05-04T17:36:12Z</time></trkpt><trkpt lat="41.33453330345932" lon="1.879813444118434"><ele>335.0</ele><time>2026-05-04T17:36:13Z</time></trkpt><trkpt lat="41.3345876868833" lon="1.8799509651199948"><ele>335.0</ele><time>2026-05-04T17:36:14Z</time></trkpt><trkpt lat="41.33465631919178" lon="1.8800787608856993"><ele>335.0</ele><time>2026-05-04T17:36:15Z</time></trkpt><trkpt lat="41.33473153862292" lon="1.880201069558857"><ele>335.0</ele><time>2026-05-04T17:36:16Z</time></trkpt><trkpt lat="41.33478366964042" lon="1.8803376189062435"><ele>335.5</ele><time>2026-05-04T17:36:17.001Z</time></trkpt><trkpt lat="41.334825382462085" lon="1.880480053061601"><ele>336.0</ele><time>2026-05-04T17:36:18.001Z</time></trkpt><trkpt lat="41.33479187712747" lon="1.8806370071319414"><ele>336.5</ele><time>2026-05-04T17:36:19.001Z</time></trkpt><trkpt lat="41.33474918323521" lon="1.880775479504632"><ele>337.0</ele><time>2026-05-04T17:36:20.001Z</time></trkpt><trkpt lat="41.334710438213044" lon="1.880910842324475"><ele>336.6</ele><time>2026-05-04T17:36:21.001Z</time></trkpt><trkpt lat="41.33467598782784" lon="1.8810339295934786"><ele>336.20000000000005</ele><time>2026-05-04T17:36:22.001Z</time></trkpt><trkpt lat="41.33463379378254" lon="1.8811541018849098"><ele>335.8</ele><time>2026-05-04T17:36:23.001Z</time></trkpt><trkpt lat="41.33459766750678" lon="1.8812797455558266"><ele>335.4</ele><time>2026-05-04T17:36:24.001Z</time></trkpt><trkpt lat="41.334559825680635" lon="1.881399754494724"><ele>335.0</ele><time>2026-05-04T17:36:25.001Z</time></trkpt><trkpt lat="41.33452369613915" lon="1.881518412744263"><ele>335.0</ele><time>2026-05-04T17:36:26.001Z</time></trkpt><trkpt lat="41.33449040518071" lon="1.881634880182353"><ele>335.0</ele><time>2026-05-04T17:36:27.001Z</time></trkpt><trkpt lat="41.33446024113281" lon="1.8817544834689248"><ele>335.0</ele><time>2026-05-04T17:36:28.001Z</time></trkpt><trkpt lat="41.33442486532473" lon="1.8818686176786454"><ele>335.0</ele><time>2026-05-04T17:36:29.001Z</time></trkpt><trkpt lat="41.33439967127199" lon="1.88198868578148"><ele>335.0</ele><time>2026-05-04T17:36:30.001Z</time></trkpt><trkpt lat="41.3343820684019" lon="1.8821132527965472"><ele>334.8</ele><time>2026-05-04T17:36:31.001Z</time></trkpt><trkpt lat="41.33436072206672" lon="1.882232690922885"><ele>334.6</ele><time>2026-05-04T17:36:32.001Z</time></trkpt><trkpt lat="41.334370901636014" lon="1.8823601776189365"><ele>334.4</ele><time>2026-05-04T17:36:33.001Z</time></trkpt><trkpt lat="41.33437843139769" lon="1.882491799220265"><ele>334.2</ele><time>2026-05-04T17:36:34.001Z</time></trkpt><trkpt lat="41.334393715570904" lon="1.8826203435006785"><ele>334.0</ele><time>2026-05-04T17:36:35.001Z</time></trkpt><trkpt lat="41.33442173070794" lon="1.882742704814506"><ele>334.0</ele><time>2026-05-04T17:36:36.001Z</time></trkpt><trkpt lat="41.33446899882006" lon="1.882856488995208"><ele>334.0</ele><time>2026-05-04T17:36:37.001Z</time></trkpt><trkpt lat="41.33453900728909" lon="1.8829569557764234"><ele>334.0</ele><time>2026-05-04T17:36:38.001Z</time></trkpt><trkpt lat="41.334614235226404" lon="1.883049154566532"><ele>334.0</ele><time>2026-05-04T17:36:39.001Z</time></trkpt><trkpt lat="41.334698705017416" lon="1.8831317704921156"><ele>334.0</ele><time>2026-05-04T17:36:40.001Z</time></trkpt><trkpt lat="41.3347854484735" lon="1.883209125171222"><ele>335.0</ele><time>2026-05-04T17:36:41.001Z</time></trkpt><trkpt lat="41.33487829321606" lon="1.883284316839309"><ele>336.0</ele><time>2026-05-04T17:36:42.001Z</time></trkpt><trkpt lat="41.334970519366614" lon="1.8833639758341698"><ele>337.0</ele><time>2026-05-04T17:36:43.001Z</time></trkpt><trkpt lat="41.33506247844175" lon="1.8834426515310438"><ele>338.0</ele><time>2026-05-04T17:36:44.001Z</time></trkpt><trkpt lat="41.33515619849789" lon="1.883520423952728"><ele>339.0</ele><time>2026-05-04T17:36:45.001Z</time></trkpt><trkpt lat="41.3352493256896" lon="1.883602994442563"><ele>339.0</ele><time>2026-05-04T17:36:46.001Z</time></trkpt><trkpt lat="41.3353356825124" lon="1.8836979759899994"><ele>339.0</ele><time>2026-05-04T17:36:47.001Z</time></trkpt><trkpt lat="41.335419925193214" lon="1.883792961855399"><ele>339.0</ele><time>2026-05-04T17:36:48.001Z</time></trkpt><trkpt lat="41.335494670508844" lon="1.88391557232181"><ele>339.0</ele><time>2026-05-04T17:36:49.001Z</time></trkpt><trkpt lat="41.33555428921636" lon="1.884029725888334"><ele>339.0</ele><time>2026-05-04T17:36:50.001Z</time></trkpt><trkpt lat="41.33561710417795" lon="1.8841467128220737"><ele>340.4</ele><time>2026-05-04T17:36:51.001Z</time></trkpt><trkpt lat="41.33568090742316" lon="1.884269893721242"><ele>341.79999999999995</ele><time>2026-05-04T17:36:52.001Z</time></trkpt><trkpt lat="41.33573449796755" lon="1.8843962949120336"><ele>343.20000000000005</ele><time>2026-05-04T17:36:53.001Z</time></trkpt><trkpt lat="41.335786895962265" lon="1.8845457886897963"><ele>344.6</ele><time>2026-05-04T17:36:54.001Z</time></trkpt><trkpt lat="41.335828997550784" lon="1.8846650713868793"><ele>346.0</ele><time>2026-05-04T17:36:55.001Z</time></trkpt><trkpt lat="41.335883013370896" lon="1.8847973704435281"><ele>346.0</ele><time>2026-05-04T17:36:56.001Z</time></trkpt><trkpt lat="41.33592961919591" lon="1.8849579846491515"><ele>346.0</ele><time>2026-05-04T17:36:57.001Z</time></trkpt><trkpt lat="41.33596757306622" lon="1.8851615415506298"><ele>346.0</ele><time>2026-05-04T17:36:58.001Z</time></trkpt><trkpt lat="41.336004662542955" lon="1.8853691543936186"><ele>346.0</ele><time>2026-05-04T17:36:59.001Z</time></trkpt><trkpt lat="41.33604375889409" lon="1.8855075801781105"><ele>345.8</ele><time>2026-05-04T17:37:01.001Z</time></trkpt><trkpt lat="41.33603758022219" lon="1.885652313288536"><ele>345.6</ele><time>2026-05-04T17:37:02.001Z</time></trkpt><trkpt lat="41.336022152830154" lon="1.8857998943607557"><ele>345.4</ele><time>2026-05-04T17:37:03.001Z</time></trkpt><trkpt lat="41.33600279586677" lon="1.8859435343419935"><ele>345.2</ele><time>2026-05-04T17:37:04.001Z</time></trkpt><trkpt lat="41.335984532760165" lon="1.8860885531500209"><ele>345.0</ele><time>2026-05-04T17:37:05.001Z</time></trkpt><trkpt lat="41.33598399523129" lon="1.8862341578800645"><ele>344.6</ele><time>2026-05-04T17:37:06.001Z</time></trkpt><trkpt lat="41.335971471561045" lon="1.8863841388405678"><ele>344.2</ele><time>2026-05-04T17:37:07.001Z</time></trkpt><trkpt lat="41.33598497629922" lon="1.8865274063617623"><ele>343.79999999999995</ele><time>2026-05-04T17:37:08.001Z</time></trkpt><trkpt lat="41.33601703237829" lon="1.88667201610707"><ele>343.4</ele><time>2026-05-04T17:37:09.001Z</time></trkpt><trkpt lat="41.3360686112241" lon="1.8868047442476221"><ele>343.0</ele><time>2026-05-04T17:37:10.001Z</time></trkpt><trkpt lat="41.33613816628965" lon="1.8869164986844564"><ele>342.75</ele><time>2026-05-04T17:37:11.001Z</time></trkpt><trkpt lat="41.336227748785696" lon="1.8870036373841568"><ele>342.5</ele><time>2026-05-04T17:37:12.001Z</time></trkpt><trkpt lat="41.336331678346696" lon="1.8870691985230292"><ele>342.25</ele><time>2026-05-04T17:37:13.001Z</time></trkpt><trkpt lat="41.33643670876345" lon="1.8871448589552453"><ele>342.0</ele><time>2026-05-04T17:37:14.001Z</time></trkpt><trkpt lat="41.33654368607786" lon="1.887213206555218"><ele>342.25</ele><time>2026-05-04T17:37:15.001Z</time></trkpt><trkpt lat="41.33664376895576" lon="1.8872923671511987"><ele>342.5</ele><time>2026-05-04T17:37:16.001Z</time></trkpt><trkpt lat="41.336740763272374" lon="1.8873863924589365"><ele>342.75</ele><time>2026-05-04T17:37:17.001Z</time></trkpt><trkpt lat="41.3368238360948" lon="1.887497022319399"><ele>343.0</ele><time>2026-05-04T17:37:18.001Z</time></trkpt><trkpt lat="41.33689528251068" lon="1.8876151448112297"><ele>343.0</ele><time>2026-05-04T17:37:19.001Z</time></trkpt><trkpt lat="41.33694042756871" lon="1.8877549422503823"><ele>343.0</ele><time>2026-05-04T17:37:20.001Z</time></trkpt><trkpt lat="41.336988253179285" lon="1.8878912609787084"><ele>343.0</ele><time>2026-05-04T17:37:21.001Z</time></trkpt><trkpt lat="41.33703718797459" lon="1.8880384704711493"><ele>343.0</ele><time>2026-05-04T17:37:22.001Z</time></trkpt><trkpt lat="41.33707191886431" lon="1.888183795853475"><ele>343.0</ele><time>2026-05-04T17:37:23Z</time></trkpt><trkpt lat="41.337109151389996" lon="1.8883315047534064"><ele>343.0</ele><time>2026-05-04T17:37:24Z</time></trkpt><trkpt lat="41.3371481069" lon="1.8884753419645364"><ele>343.0</ele><time>2026-05-04T17:37:25Z</time></trkpt><trkpt lat="41.337188028358554" lon="1.8886167088284043"><ele>343.0</ele><time>2026-05-04T17:37:26Z</time></trkpt><trkpt lat="41.3372227262025" lon="1.8887586944539763"><ele>345.5</ele><time>2026-05-04T17:37:27Z</time></trkpt><trkpt lat="41.33725864714537" lon="1.8889039297837804"><ele>348.0</ele><time>2026-05-04T17:37:28Z</time></trkpt><trkpt lat="41.33729605090951" lon="1.8890308973449086"><ele>350.5</ele><time>2026-05-04T17:37:29Z</time></trkpt><trkpt lat="41.33733203463775" lon="1.8891604174778573"><ele>353.0</ele><time>2026-05-04T17:37:30Z</time></trkpt><trkpt lat="41.33738291057769" lon="1.8893268813341613"><ele>353.25</ele><time>2026-05-04T17:37:31Z</time></trkpt><trkpt lat="41.33741570968631" lon="1.8895072616824282"><ele>353.5</ele><time>2026-05-04T17:37:32Z</time></trkpt><trkpt lat="41.3374552230587" lon="1.8896581630916847"><ele>353.75</ele><time>2026-05-04T17:37:33Z</time></trkpt><trkpt lat="41.337487219943334" lon="1.8897506552375398"><ele>354.0</ele><time>2026-05-04T17:37:34Z</time></trkpt><trkpt lat="41.33751378156215" lon="1.8898981890089392"><ele>354.0</ele><time>2026-05-04T17:37:35Z</time></trkpt><trkpt lat="41.33755724853306" lon="1.8900375272543282"><ele>354.0</ele><time>2026-05-04T17:37:36Z</time></trkpt><trkpt lat="41.33759463314963" lon="1.8901811752373903"><ele>354.0</ele><time>2026-05-04T17:37:37Z</time></trkpt><trkpt lat="41.337627508432035" lon="1.8903284801885303"><ele>354.0</ele><time>2026-05-04T17:37:38Z</time></trkpt><trkpt lat="41.33766582028135" lon="1.8904697996971065"><ele>353.5</ele><time>2026-05-04T17:37:39Z</time></trkpt><trkpt lat="41.33769903204653" lon="1.8906171524123652"><ele>353.0</ele><time>2026-05-04T17:37:40Z</time></trkpt><trkpt lat="41.33772921528352" lon="1.8907615857877471"><ele>352.5</ele><time>2026-05-04T17:37:41Z</time></trkpt><trkpt lat="41.33775703818019" lon="1.8909023133221408"><ele>352.0</ele><time>2026-05-04T17:37:42Z</time></trkpt><trkpt lat="41.33775607881195" lon="1.8910557145645919"><ele>351.75</ele><time>2026-05-04T17:37:43Z</time></trkpt><trkpt lat="41.33771083852709" lon="1.8912264885244894"><ele>351.5</ele><time>2026-05-04T17:37:44Z</time></trkpt><trkpt lat="41.337711421056085" lon="1.8913783970057059"><ele>351.25</ele><time>2026-05-04T17:37:45Z</time></trkpt><trkpt lat="41.337753333425965" lon="1.891515101501165"><ele>351.0</ele><time>2026-05-04T17:37:46Z</time></trkpt><trkpt lat="41.337773664585534" lon="1.8916584382508252"><ele>350.75</ele><time>2026-05-04T17:37:47Z</time></trkpt><trkpt lat="41.33776533484821" lon="1.8917940649345182"><ele>350.5</ele><time>2026-05-04T17:37:48Z</time></trkpt><trkpt lat="41.33777102998038" lon="1.8919414853671677"><ele>350.25</ele><time>2026-05-04T17:37:49Z</time></trkpt><trkpt lat="41.337791545558076" lon="1.8921429667628693"><ele>350.0</ele><time>2026-05-04T17:37:50Z</time></trkpt><trkpt lat="41.33780474256411" lon="1.8922593754734238"><ele>350.0</ele><time>2026-05-04T17:37:51Z</time></trkpt><trkpt lat="41.33777984420795" lon="1.8924092057695165"><ele>350.0</ele><time>2026-05-04T17:37:52Z</time></trkpt><trkpt lat="41.337815715352086" lon="1.8925425945881609"><ele>350.0</ele><time>2026-05-04T17:37:53Z</time></trkpt><trkpt lat="41.33786322182154" lon="1.8926742065386313"><ele>350.0</ele><time>2026-05-04T17:37:54Z</time></trkpt><trkpt lat="41.337997585375646" lon="1.8927979197815228"><ele>352.75</ele><time>2026-05-04T17:37:55Z</time></trkpt><trkpt lat="41.33806869743997" lon="1.892914025529272"><ele>355.5</ele><time>2026-05-04T17:37:56Z</time></trkpt><trkpt lat="41.33813550216907" lon="1.8930349711051564"><ele>358.25</ele><time>2026-05-04T17:37:57Z</time></trkpt><trkpt lat="41.33820426431759" lon="1.8931593575158574"><ele>361.0</ele><time>2026-05-04T17:37:58Z</time></trkpt><trkpt lat="41.33827256803502" lon="1.8932838165365844"><ele>361.0</ele><time>2026-05-04T17:37:59Z</time></trkpt><trkpt lat="41.33833779607481" lon="1.893404750091064"><ele>361.0</ele><time>2026-05-04T17:38:00Z</time></trkpt><trkpt lat="41.338400165623604" lon="1.8935280871721607"><ele>361.0</ele><time>2026-05-04T17:38:01Z</time></trkpt><trkpt lat="41.33846255551596" lon="1.893650401596344"><ele>361.0</ele><time>2026-05-04T17:38:02Z</time></trkpt><trkpt lat="41.338525556268124" lon="1.8937757956836117"><ele>361.0</ele><time>2026-05-04T17:38:03Z</time></trkpt><trkpt lat="41.33858497893127" lon="1.8939013173632004"><ele>359.75</ele><time>2026-05-04T17:38:04Z</time></trkpt><trkpt lat="41.338646909346714" lon="1.8940276429305785"><ele>358.5</ele><time>2026-05-04T17:38:05Z</time></trkpt><trkpt lat="41.338712002738426" lon="1.8941551754666048"><ele>357.25</ele><time>2026-05-04T17:38:06Z</time></trkpt><trkpt lat="41.33877597951802" lon="1.894276203890237"><ele>356.0</ele><time>2026-05-04T17:38:07Z</time></trkpt><trkpt lat="41.338814654420275" lon="1.894417100070773"><ele>355.6</ele><time>2026-05-04T17:38:08Z</time></trkpt><trkpt lat="41.33884934191829" lon="1.8945561173213563"><ele>355.20000000000005</ele><time>2026-05-04T17:38:09Z</time></trkpt><trkpt lat="41.3388718586473" lon="1.8947008284692652"><ele>354.79999999999995</ele><time>2026-05-04T17:38:10Z</time></trkpt><trkpt lat="41.33888930457673" lon="1.894848880490141"><ele>354.4</ele><time>2026-05-04T17:38:11Z</time></trkpt><trkpt lat="41.33890300533119" lon="1.8949992307855457"><ele>354.0</ele><time>2026-05-04T17:38:12Z</time></trkpt><trkpt lat="41.33891257872197" lon="1.8951543842433607"><ele>353.79999999999995</ele><time>2026-05-04T17:38:13Z</time></trkpt><trkpt lat="41.3389109393894" lon="1.895299683377738"><ele>353.59999999999997</ele><time>2026-05-04T17:38:14Z</time></trkpt><trkpt lat="41.338892866707084" lon="1.8954477608838443"><ele>353.4</ele><time>2026-05-04T17:38:15.001Z</time></trkpt><trkpt lat="41.338872457616205" lon="1.8955902758343681"><ele>353.2</ele><time>2026-05-04T17:38:16.001Z</time></trkpt><trkpt lat="41.33884749816876" lon="1.8957304345333328"><ele>353.0</ele><time>2026-05-04T17:38:17.001Z</time></trkpt><trkpt lat="41.33881548496704" lon="1.895868010441224"><ele>353.75</ele><time>2026-05-04T17:38:18.001Z</time></trkpt><trkpt lat="41.33878690798037" lon="1.8960176895316412"><ele>354.5</ele><time>2026-05-04T17:38:19.001Z</time></trkpt><trkpt lat="41.33874430530735" lon="1.8961524812520676"><ele>355.25</ele><time>2026-05-04T17:38:20.001Z</time></trkpt><trkpt lat="41.33868791659542" lon="1.8962880530203627"><ele>356.0</ele><time>2026-05-04T17:38:21.001Z</time></trkpt><trkpt lat="41.338639523310384" lon="1.8964283924600216"><ele>356.0</ele><time>2026-05-04T17:38:22.001Z</time></trkpt><trkpt lat="41.33858858675065" lon="1.896564578890324"><ele>356.0</ele><time>2026-05-04T17:38:23.001Z</time></trkpt><trkpt lat="41.338532908231564" lon="1.8966938106973175"><ele>356.0</ele><time>2026-05-04T17:38:24.001Z</time></trkpt><trkpt lat="41.33847046495325" lon="1.8968239823669686"><ele>356.0</ele><time>2026-05-04T17:38:25.001Z</time></trkpt><trkpt lat="41.338416161181605" lon="1.8969574361960637"><ele>357.25</ele><time>2026-05-04T17:38:26.001Z</time></trkpt><trkpt lat="41.338358940063806" lon="1.897087679194008"><ele>358.5</ele><time>2026-05-04T17:38:27.001Z</time></trkpt><trkpt lat="41.338300987125315" lon="1.8972208820896632"><ele>359.75</ele><time>2026-05-04T17:38:28.001Z</time></trkpt><trkpt lat="41.33824072406388" lon="1.89734784467988"><ele>361.0</ele><time>2026-05-04T17:38:29.001Z</time></trkpt><trkpt lat="41.33817778623616" lon="1.897476387155671"><ele>360.75</ele><time>2026-05-04T17:38:30.001Z</time></trkpt><trkpt lat="41.338109827160956" lon="1.8975991993789691"><ele>360.5</ele><time>2026-05-04T17:38:31.001Z</time></trkpt><trkpt lat="41.33803212280865" lon="1.8977294467969994"><ele>360.25</ele><time>2026-05-04T17:38:32.001Z</time></trkpt><trkpt lat="41.33795870970066" lon="1.8978501067706168"><ele>360.0</ele><time>2026-05-04T17:38:33.001Z</time></trkpt><trkpt lat="41.33788949316582" lon="1.8979749316452106"><ele>359.0</ele><time>2026-05-04T17:38:34.001Z</time></trkpt><trkpt lat="41.33781646338395" lon="1.898085323802055"><ele>358.0</ele><time>2026-05-04T17:38:35.001Z</time></trkpt><trkpt lat="41.33774600114452" lon="1.898201902663245"><ele>357.0</ele><time>2026-05-04T17:38:36.001Z</time></trkpt><trkpt lat="41.337676411063704" lon="1.8983239196574975"><ele>356.0</ele><time>2026-05-04T17:38:37.001Z</time></trkpt><trkpt lat="41.33760232970081" lon="1.8984438003129287"><ele>356.0</ele><time>2026-05-04T17:38:38.001Z</time></trkpt><trkpt lat="41.337528118873124" lon="1.8985529592487589"><ele>356.0</ele><time>2026-05-04T17:38:39.001Z</time></trkpt><trkpt lat="41.337455796917084" lon="1.8986597380127854"><ele>356.0</ele><time>2026-05-04T17:38:40.001Z</time></trkpt><trkpt lat="41.33739094531003" lon="1.8987604066578307"><ele>356.0</ele><time>2026-05-04T17:38:41.001Z</time></trkpt><trkpt lat="41.33732744708908" lon="1.898863391872956"><ele>356.0</ele><time>2026-05-04T17:38:42.001Z</time></trkpt><trkpt lat="41.33727189375366" lon="1.8989726530726303"><ele>356.0</ele><time>2026-05-04T17:38:43.001Z</time></trkpt><trkpt lat="41.33721998379871" lon="1.899079684964678"><ele>356.0</ele><time>2026-05-04T17:38:44.001Z</time></trkpt><trkpt lat="41.33718213023167" lon="1.8992031099129738"><ele>356.0</ele><time>2026-05-04T17:38:45.001Z</time></trkpt><trkpt lat="41.33715663022754" lon="1.899319284581734"><ele>356.0</ele><time>2026-05-04T17:38:46.001Z</time></trkpt><trkpt lat="41.33713661931811" lon="1.8994242323298964"><ele>356.0</ele><time>2026-05-04T17:38:47.001Z</time></trkpt><trkpt lat="41.33709496542349" lon="1.8995163707377896"><ele>356.0</ele><time>2026-05-04T17:38:48.001Z</time></trkpt><trkpt lat="41.337027510385525" lon="1.8995775655729479"><ele>355.4</ele><time>2026-05-04T17:38:49.001Z</time></trkpt><trkpt lat="41.33697351367929" lon="1.8997046856602713"><ele>354.8</ele><time>2026-05-04T17:38:51.001Z</time></trkpt><trkpt lat="41.33695278452567" lon="1.899872970956282"><ele>354.2</ele><time>2026-05-04T17:38:52.001Z</time></trkpt><trkpt lat="41.33699427971311" lon="1.89997468655988"><ele>353.59999999999997</ele><time>2026-05-04T17:38:53.001Z</time></trkpt><trkpt lat="41.33703550036753" lon="1.9000799619484403"><ele>353.0</ele><time>2026-05-04T17:38:54.001Z</time></trkpt><trkpt lat="41.337039467683084" lon="1.9001998700637066"><ele>353.0</ele><time>2026-05-04T17:38:55.001Z</time></trkpt><trkpt lat="41.337016397579525" lon="1.9003255065492555"><ele>353.0</ele><time>2026-05-04T17:38:56.001Z</time></trkpt><trkpt lat="41.33699491187534" lon="1.9004516285580453"><ele>353.0</ele><time>2026-05-04T17:38:57.001Z</time></trkpt><trkpt lat="41.33697233694124" lon="1.900579105132293"><ele>353.0</ele><time>2026-05-04T17:38:58.001Z</time></trkpt><trkpt lat="41.33695424991628" lon="1.9007086345358355"><ele>353.0</ele><time>2026-05-04T17:38:59.001Z</time></trkpt><trkpt lat="41.336928484929906" lon="1.9008396808330699"><ele>353.2</ele><time>2026-05-04T17:39:00.001Z</time></trkpt><trkpt lat="41.3369152142714" lon="1.9009777835561634"><ele>353.4</ele><time>2026-05-04T17:39:01.001Z</time></trkpt><trkpt lat="41.336896295182214" lon="1.9011185824719574"><ele>353.59999999999997</ele><time>2026-05-04T17:39:02.001Z</time></trkpt><trkpt lat="41.33687277056776" lon="1.901259284748341"><ele>353.79999999999995</ele><time>2026-05-04T17:39:03.001Z</time></trkpt><trkpt lat="41.33685108613261" lon="1.9014001138732468"><ele>354.0</ele><time>2026-05-04T17:39:04.001Z</time></trkpt><trkpt lat="41.336829769463606" lon="1.9015419114000984"><ele>354.0</ele><time>2026-05-04T17:39:05.001Z</time></trkpt><trkpt lat="41.33680757843416" lon="1.9016879150656931"><ele>354.0</ele><time>2026-05-04T17:39:06.001Z</time></trkpt><trkpt lat="41.33678692374663" lon="1.9018343430338043"><ele>354.0</ele><time>2026-05-04T17:39:07.001Z</time></trkpt><trkpt lat="41.33676394283956" lon="1.9019822074723618"><ele>354.0</ele><time>2026-05-04T17:39:08.001Z</time></trkpt><trkpt lat="41.33674756113331" lon="1.9021280193480614"><ele>354.0</ele><time>2026-05-04T17:39:09.001Z</time></trkpt><trkpt lat="41.33672597033425" lon="1.9022735823633878"><ele>354.2</ele><time>2026-05-04T17:39:10.001Z</time></trkpt><trkpt lat="41.336700981490985" lon="1.9024177453108786"><ele>354.4</ele><time>2026-05-04T17:39:11.001Z</time></trkpt><trkpt lat="41.3366782301894" lon="1.9025606636020567"><ele>354.6</ele><time>2026-05-04T17:39:12.001Z</time></trkpt><trkpt lat="41.336660001264065" lon="1.9027066199546259"><ele>354.8</ele><time>2026-05-04T17:39:13.001Z</time></trkpt><trkpt lat="41.33663875930724" lon="1.9028523681999872"><ele>355.0</ele><time>2026-05-04T17:39:14.001Z</time></trkpt><trkpt lat="41.336605529598216" lon="1.9029934081949877"><ele>354.4</ele><time>2026-05-04T17:39:15.001Z</time></trkpt><trkpt lat="41.33655372235036" lon="1.9031206962819252"><ele>353.8</ele><time>2026-05-04T17:39:16.001Z</time></trkpt><trkpt lat="41.336496533041434" lon="1.9032329814711086"><ele>353.20000000000005</ele><time>2026-05-04T17:39:17.001Z</time></trkpt><trkpt lat="41.33643513182916" lon="1.9033233378215602"><ele>352.6</ele><time>2026-05-04T17:39:18.001Z</time></trkpt><trkpt lat="41.33636928558814" lon="1.9033924445088513"><ele>352.0</ele><time>2026-05-04T17:39:19.001Z</time></trkpt><trkpt lat="41.33628106841337" lon="1.9034146750815975"><ele>352.0</ele><time>2026-05-04T17:39:20.001Z</time></trkpt><trkpt lat="41.33618530846159" lon="1.90340901267438"><ele>352.0</ele><time>2026-05-04T17:39:21.001Z</time></trkpt><trkpt lat="41.33609272299573" lon="1.9034123559016054"><ele>352.0</ele><time>2026-05-04T17:39:22.001Z</time></trkpt><trkpt lat="41.3360051417006" lon="1.903455024848111"><ele>352.0</ele><time>2026-05-04T17:39:23.001Z</time></trkpt><trkpt lat="41.33591195672153" lon="1.9035131818056958"><ele>352.0</ele><time>2026-05-04T17:39:24.001Z</time></trkpt><trkpt lat="41.33581172577526" lon="1.9035507457108314"><ele>352.40000000000003</ele><time>2026-05-04T17:39:25.001Z</time></trkpt><trkpt lat="41.33570326153877" lon="1.9035784087667595"><ele>352.8</ele><time>2026-05-04T17:39:26.001Z</time></trkpt><trkpt lat="41.33559625709789" lon="1.9036049747965735"><ele>353.2</ele><time>2026-05-04T17:39:27.001Z</time></trkpt><trkpt lat="41.33548817940976" lon="1.9036343644484193"><ele>353.6</ele><time>2026-05-04T17:39:28.001Z</time></trkpt><trkpt lat="41.335376139988384" lon="1.9036676150029008"><ele>354.0</ele><time>2026-05-04T17:39:29Z</time></trkpt><trkpt lat="41.33527448317075" lon="1.9037170633852145"><ele>354.0</ele><time>2026-05-04T17:39:30Z</time></trkpt><trkpt lat="41.33515815010932" lon="1.9037619326357216"><ele>354.0</ele><time>2026-05-04T17:39:31Z</time></trkpt><trkpt lat="41.33505241977533" lon="1.9038046070398102"><ele>354.0</ele><time>2026-05-04T17:39:32Z</time></trkpt><trkpt lat="41.33494524253389" lon="1.9038597750841253"><ele>354.0</ele><time>2026-05-04T17:39:33Z</time></trkpt><trkpt lat="41.33483656412838" lon="1.903915751512304"><ele>354.0</ele><time>2026-05-04T17:39:34Z</time></trkpt><trkpt lat="41.334734092815374" lon="1.9039744905249327"><ele>354.0</ele><time>2026-05-04T17:39:35Z</time></trkpt><trkpt lat="41.33463327111574" lon="1.9040383373020697"><ele>354.0</ele><time>2026-05-04T17:39:36Z</time></trkpt><trkpt lat="41.33452933454441" lon="1.9041004359067497"><ele>354.0</ele><time>2026-05-04T17:39:37Z</time></trkpt><trkpt lat="41.33443121169438" lon="1.904167633148634"><ele>354.0</ele><time>2026-05-04T17:39:38Z</time></trkpt><trkpt lat="41.334323792174736" lon="1.9042467823120508"><ele>354.4</ele><time>2026-05-04T17:39:39Z</time></trkpt><trkpt lat="41.33423692160314" lon="1.904319064720163"><ele>354.79999999999995</ele><time>2026-05-04T17:39:40Z</time></trkpt><trkpt lat="41.3341331018249" lon="1.9044056707375026"><ele>355.20000000000005</ele><time>2026-05-04T17:39:41Z</time></trkpt><trkpt lat="41.33404050899909" lon="1.9044826614113197"><ele>355.6</ele><time>2026-05-04T17:39:42Z</time></trkpt><trkpt lat="41.33394687848461" lon="1.9045704961343584"><ele>356.0</ele><time>2026-05-04T17:39:43Z</time></trkpt><trkpt lat="41.33385381582769" lon="1.9046601274628747"><ele>356.0</ele><time>2026-05-04T17:39:44Z</time></trkpt><trkpt lat="41.333764058990894" lon="1.9047514479163674"><ele>356.0</ele><time>2026-05-04T17:39:45Z</time></trkpt><trkpt lat="41.333673645223996" lon="1.904846393655618"><ele>356.0</ele><time>2026-05-04T17:39:46Z</time></trkpt><trkpt lat="41.333587377660486" lon="1.9049417198570968"><ele>356.0</ele><time>2026-05-04T17:39:47Z</time></trkpt><trkpt lat="41.333501568791604" lon="1.9050439375662498"><ele>356.5</ele><time>2026-05-04T17:39:48Z</time></trkpt><trkpt lat="41.33341580368575" lon="1.9051469734913131"><ele>357.0</ele><time>2026-05-04T17:39:49Z</time></trkpt><trkpt lat="41.333333803480755" lon="1.9052502362555697"><ele>357.5</ele><time>2026-05-04T17:39:50Z</time></trkpt><trkpt lat="41.333251915051626" lon="1.9053576967114976"><ele>358.0</ele><time>2026-05-04T17:39:51Z</time></trkpt><trkpt lat="41.33317471817457" lon="1.9054723568510032"><ele>358.0</ele><time>2026-05-04T17:39:52Z</time></trkpt><trkpt lat="41.33309353583669" lon="1.9055817098292622"><ele>358.0</ele><time>2026-05-04T17:39:53Z</time></trkpt><trkpt lat="41.33301322242893" lon="1.9056876199197663"><ele>358.0</ele><time>2026-05-04T17:39:54Z</time></trkpt><trkpt lat="41.3329321054437" lon="1.905796615753507"><ele>358.0</ele><time>2026-05-04T17:39:55Z</time></trkpt><trkpt lat="41.33285364832591" lon="1.9059051783987415"><ele>357.25</ele><time>2026-05-04T17:39:56Z</time></trkpt><trkpt lat="41.33277144438887" lon="1.9060140342825385"><ele>356.5</ele><time>2026-05-04T17:39:57Z</time></trkpt><trkpt lat="41.33269015536706" lon="1.906122537502986"><ele>355.75</ele><time>2026-05-04T17:39:58Z</time></trkpt><trkpt lat="41.3326106960426" lon="1.9062292999872046"><ele>355.0</ele><time>2026-05-04T17:39:59Z</time></trkpt><trkpt lat="41.332530752268354" lon="1.906337766887699"><ele>355.0</ele><time>2026-05-04T17:40:00Z</time></trkpt><trkpt lat="41.33245090186021" lon="1.9064452902397662"><ele>355.0</ele><time>2026-05-04T17:40:01Z</time></trkpt><trkpt lat="41.332368972502486" lon="1.9065525030153125"><ele>355.0</ele><time>2026-05-04T17:40:02Z</time></trkpt><trkpt lat="41.33228982345971" lon="1.9066577326502492"><ele>355.0</ele><time>2026-05-04T17:40:03Z</time></trkpt><trkpt lat="41.33220684486241" lon="1.9067685091391355"><ele>356.0</ele><time>2026-05-04T17:40:04Z</time></trkpt><trkpt lat="41.33213717415418" lon="1.906861895455393"><ele>357.0</ele><time>2026-05-04T17:40:05Z</time></trkpt><trkpt lat="41.332061769972825" lon="1.9069675934671761"><ele>358.0</ele><time>2026-05-04T17:40:06Z</time></trkpt><trkpt lat="41.33197471702809" lon="1.9070768158374363"><ele>359.0</ele><time>2026-05-04T17:40:07Z</time></trkpt><trkpt lat="41.331894173007576" lon="1.907185363921266"><ele>360.0</ele><time>2026-05-04T17:40:08Z</time></trkpt><trkpt lat="41.331816095549954" lon="1.9072896007391096"><ele>360.0</ele><time>2026-05-04T17:40:09Z</time></trkpt><trkpt lat="41.331738394964255" lon="1.9073939367212311"><ele>360.0</ele><time>2026-05-04T17:40:10Z</time></trkpt><trkpt lat="41.33165967734826" lon="1.9074980530489782"><ele>360.0</ele><time>2026-05-04T17:40:11Z</time></trkpt><trkpt lat="41.33158155918739" lon="1.9076019881349233"><ele>360.0</ele><time>2026-05-04T17:40:12Z</time></trkpt><trkpt lat="41.33150262608948" lon="1.9077060213013162"><ele>360.0</ele><time>2026-05-04T17:40:13Z</time></trkpt><trkpt lat="41.33142488202627" lon="1.9078079790695945"><ele>360.4</ele><time>2026-05-04T17:40:14.001Z</time></trkpt><trkpt lat="41.33134706456646" lon="1.9079141220901739"><ele>360.8</ele><time>2026-05-04T17:40:15.001Z</time></trkpt><trkpt lat="41.33126840765906" lon="1.9080155291701004"><ele>361.20000000000005</ele><time>2026-05-04T17:40:16.001Z</time></trkpt><trkpt lat="41.33118948119829" lon="1.9081216310762719"><ele>361.6</ele><time>2026-05-04T17:40:17.001Z</time></trkpt><trkpt lat="41.331112897570314" lon="1.9082288405581385"><ele>362.0</ele><time>2026-05-04T17:40:18.001Z</time></trkpt><trkpt lat="41.331034656029" lon="1.9083348652520877"><ele>362.0</ele><time>2026-05-04T17:40:19.001Z</time></trkpt><trkpt lat="41.330958631077976" lon="1.908440574896704"><ele>362.0</ele><time>2026-05-04T17:40:20.001Z</time></trkpt><trkpt lat="41.33087872924941" lon="1.9085435110668465"><ele>362.0</ele><time>2026-05-04T17:40:21.001Z</time></trkpt><trkpt lat="41.33080008375548" lon="1.9086490638367437"><ele>362.0</ele><time>2026-05-04T17:40:22.001Z</time></trkpt><trkpt lat="41.33072251218107" lon="1.9087552752800543"><ele>362.0</ele><time>2026-05-04T17:40:23.001Z</time></trkpt><trkpt lat="41.330643474866356" lon="1.9088556698937376"><ele>362.0</ele><time>2026-05-04T17:40:24.001Z</time></trkpt><trkpt lat="41.33056582782732" lon="1.9089587642636963"><ele>362.0</ele><time>2026-05-04T17:40:25.001Z</time></trkpt><trkpt lat="41.33048669206806" lon="1.9090592781072546"><ele>362.0</ele><time>2026-05-04T17:40:26.001Z</time></trkpt><trkpt lat="41.33041163663994" lon="1.9091635364897444"><ele>362.0</ele><time>2026-05-04T17:40:27.001Z</time></trkpt><trkpt lat="41.330335994810625" lon="1.9092707434174145"><ele>362.0</ele><time>2026-05-04T17:40:28.001Z</time></trkpt><trkpt lat="41.33026054044658" lon="1.909372610335823"><ele>363.0</ele><time>2026-05-04T17:40:29.001Z</time></trkpt><trkpt lat="41.33018455835755" lon="1.9094733728753437"><ele>364.0</ele><time>2026-05-04T17:40:30.001Z</time></trkpt><trkpt lat="41.33010974071877" lon="1.909577988963814"><ele>365.0</ele><time>2026-05-04T17:40:31.001Z</time></trkpt><trkpt lat="41.330034675367706" lon="1.9096842732462551"><ele>366.0</ele><time>2026-05-04T17:40:32.001Z</time></trkpt><trkpt lat="41.329958643690695" lon="1.9097865484972516"><ele>367.0</ele><time>2026-05-04T17:40:33.001Z</time></trkpt><trkpt lat="41.329886040535605" lon="1.9098924448336922"><ele>367.0</ele><time>2026-05-04T17:40:34.001Z</time></trkpt><trkpt lat="41.32981562138048" lon="1.910004859090461"><ele>367.0</ele><time>2026-05-04T17:40:35.001Z</time></trkpt><trkpt lat="41.329747378938926" lon="1.9101150393478017"><ele>367.0</ele><time>2026-05-04T17:40:36.001Z</time></trkpt><trkpt lat="41.329680295801595" lon="1.9102249414151524"><ele>367.0</ele><time>2026-05-04T17:40:37.001Z</time></trkpt><trkpt lat="41.32961690344319" lon="1.9103353267669303"><ele>367.0</ele><time>2026-05-04T17:40:38.001Z</time></trkpt><trkpt lat="41.32955158218574" lon="1.9104476923295084"><ele>368.40000000000003</ele><time>2026-05-04T17:40:39.001Z</time></trkpt><trkpt lat="41.32949245521392" lon="1.9105666605492329"><ele>369.8</ele><time>2026-05-04T17:40:40.001Z</time></trkpt><trkpt lat="41.32942445318368" lon="1.9106823523161065"><ele>371.2</ele><time>2026-05-04T17:40:41.001Z</time></trkpt><trkpt lat="41.32937028606516" lon="1.910800163410964"><ele>372.6</ele><time>2026-05-04T17:40:42.001Z</time></trkpt><trkpt lat="41.32931037732465" lon="1.9109224319907951"><ele>374.0</ele><time>2026-05-04T17:40:43.001Z</time></trkpt><trkpt lat="41.32924650939564" lon="1.9110440473971204"><ele>374.0</ele><time>2026-05-04T17:40:44.001Z</time></trkpt><trkpt lat="41.32919783385518" lon="1.9111666786044794"><ele>374.0</ele><time>2026-05-04T17:40:45.001Z</time></trkpt><trkpt lat="41.32914727170221" lon="1.9112944408144428"><ele>374.0</ele><time>2026-05-04T17:40:46.001Z</time></trkpt><trkpt lat="41.32909458797858" lon="1.9114200355610447"><ele>374.0</ele><time>2026-05-04T17:40:47.001Z</time></trkpt><trkpt lat="41.329041499796396" lon="1.9115446986907192"><ele>374.0</ele><time>2026-05-04T17:40:48.001Z</time></trkpt><trkpt lat="41.328996562392746" lon="1.9116702210163512"><ele>374.0</ele><time>2026-05-04T17:40:49.001Z</time></trkpt><trkpt lat="41.32895258689679" lon="1.911808861595901"><ele>374.0</ele><time>2026-05-04T17:40:50.001Z</time></trkpt><trkpt lat="41.32890906325818" lon="1.9119432403225711"><ele>374.0</ele><time>2026-05-04T17:40:51.001Z</time></trkpt><trkpt lat="41.32886930431891" lon="1.9120755054981855"><ele>374.0</ele><time>2026-05-04T17:40:52.001Z</time></trkpt><trkpt lat="41.32883175561492" lon="1.9122143058294387"><ele>374.0</ele><time>2026-05-04T17:40:53.001Z</time></trkpt><trkpt lat="41.328795561658794" lon="1.9123483815769806"><ele>374.6</ele><time>2026-05-04T17:40:54.001Z</time></trkpt><trkpt lat="41.32876351055356" lon="1.9124882582828326"><ele>375.2</ele><time>2026-05-04T17:40:55.001Z</time></trkpt><trkpt lat="41.32873132571113" lon="1.9126259273106765"><ele>375.8</ele><time>2026-05-04T17:40:56.001Z</time></trkpt><trkpt lat="41.328703044296205" lon="1.9127656968900777"><ele>376.40000000000003</ele><time>2026-05-04T17:40:57.001Z</time></trkpt><trkpt lat="41.3286725803258" lon="1.9129037972608238"><ele>377.0</ele><time>2026-05-04T17:40:58.001Z</time></trkpt><trkpt lat="41.328646160126006" lon="1.9130433923641859"><ele>377.0</ele><time>2026-05-04T17:40:59.001Z</time></trkpt><trkpt lat="41.32861817081583" lon="1.9131842147785132"><ele>377.0</ele><time>2026-05-04T17:41:00.001Z</time></trkpt><trkpt lat="41.328595473330154" lon="1.9133243633527732"><ele>377.0</ele><time>2026-05-04T17:41:01.001Z</time></trkpt><trkpt lat="41.32857702671671" lon="1.9134664775171097"><ele>377.0</ele><time>2026-05-04T17:41:02.001Z</time></trkpt><trkpt lat="41.328558489104495" lon="1.9135935505136978"><ele>377.0</ele><time>2026-05-04T17:41:03.001Z</time></trkpt><trkpt lat="41.32854079895762" lon="1.913748074097615"><ele>377.0</ele><time>2026-05-04T17:41:04.001Z</time></trkpt><trkpt lat="41.32852721976045" lon="1.9138953078448948"><ele>377.0</ele><time>2026-05-04T17:41:05.001Z</time></trkpt><trkpt lat="41.32851505474133" lon="1.9140483607114802"><ele>377.0</ele><time>2026-05-04T17:41:06.001Z</time></trkpt><trkpt lat="41.328502472148855" lon="1.9142018603621638"><ele>377.0</ele><time>2026-05-04T17:41:07.001Z</time></trkpt><trkpt lat="41.328494766116684" lon="1.9143489370523032"><ele>377.20000000000005</ele><time>2026-05-04T17:41:08.001Z</time></trkpt><trkpt lat="41.328486496945594" lon="1.9144983500754968"><ele>377.4</ele><time>2026-05-04T17:41:09.001Z</time></trkpt><trkpt lat="41.32848292832651" lon="1.9146498254629696"><ele>377.6</ele><time>2026-05-04T17:41:10.001Z</time></trkpt><trkpt lat="41.32848238526336" lon="1.9147962580451146"><ele>377.79999999999995</ele><time>2026-05-04T17:41:11.001Z</time></trkpt><trkpt lat="41.328482887011475" lon="1.9149446500720186"><ele>378.0</ele><time>2026-05-04T17:41:12.001Z</time></trkpt><trkpt lat="41.32848678940235" lon="1.9150934963137944"><ele>377.5</ele><time>2026-05-04T17:41:13.001Z</time></trkpt><trkpt lat="41.328494050362856" lon="1.915247163804849"><ele>377.0</ele><time>2026-05-04T17:41:14.001Z</time></trkpt><trkpt lat="41.32850258372498" lon="1.9153977755631129"><ele>376.5</ele><time>2026-05-04T17:41:15.001Z</time></trkpt><trkpt lat="41.32851480120097" lon="1.915551555581174"><ele>376.0</ele><time>2026-05-04T17:41:16.001Z</time></trkpt><trkpt lat="41.32852615968281" lon="1.91570310782973"><ele>376.0</ele><time>2026-05-04T17:41:17.001Z</time></trkpt><trkpt lat="41.32854348837049" lon="1.9158570545745277"><ele>376.0</ele><time>2026-05-04T17:41:18.001Z</time></trkpt><trkpt lat="41.32856097472043" lon="1.9160096003939742"><ele>376.0</ele><time>2026-05-04T17:41:19.001Z</time></trkpt><trkpt lat="41.32857946765412" lon="1.9161591071952426"><ele>376.0</ele><time>2026-05-04T17:41:20.001Z</time></trkpt><trkpt lat="41.32859839668546" lon="1.916313596529634"><ele>375.0</ele><time>2026-05-04T17:41:21.001Z</time></trkpt><trkpt lat="41.328619014639486" lon="1.9164685359796472"><ele>374.0</ele><time>2026-05-04T17:41:22.001Z</time></trkpt><trkpt lat="41.328640745386664" lon="1.9166203562542519"><ele>373.0</ele><time>2026-05-04T17:41:23.001Z</time></trkpt><trkpt lat="41.32866315152657" lon="1.9167715548259303"><ele>372.0</ele><time>2026-05-04T17:41:24.001Z</time></trkpt><trkpt lat="41.32868507621494" lon="1.9169201003458471"><ele>371.25</ele><time>2026-05-04T17:41:25.001Z</time></trkpt><trkpt lat="41.32870789312307" lon="1.9170737387365477"><ele>370.5</ele><time>2026-05-04T17:41:26.001Z</time></trkpt><trkpt lat="41.32872582031964" lon="1.9172219032207858"><ele>369.75</ele><time>2026-05-04T17:41:27.001Z</time></trkpt><trkpt lat="41.32874532909462" lon="1.9173747169693096"><ele>369.0</ele><time>2026-05-04T17:41:28.001Z</time></trkpt><trkpt lat="41.32876611357626" lon="1.917526582542215"><ele>369.5</ele><time>2026-05-04T17:41:29.001Z</time></trkpt><trkpt lat="41.32878321158957" lon="1.917675629528816"><ele>370.0</ele><time>2026-05-04T17:41:30.001Z</time></trkpt><trkpt lat="41.32879856306075" lon="1.9178235432126571"><ele>370.5</ele><time>2026-05-04T17:41:31.001Z</time></trkpt><trkpt lat="41.32881477821196" lon="1.9179807816886587"><ele>371.0</ele><time>2026-05-04T17:41:32.001Z</time></trkpt><trkpt lat="41.32882912379149" lon="1.9181350432964779"><ele>371.0</ele><time>2026-05-04T17:41:33.001Z</time></trkpt><trkpt lat="41.32883875461733" lon="1.9182878176707097"><ele>371.0</ele><time>2026-05-04T17:41:34.001Z</time></trkpt><trkpt lat="41.32884613237431" lon="1.9184429671016323"><ele>371.0</ele><time>2026-05-04T17:41:35Z</time></trkpt><trkpt lat="41.3288535909108" lon="1.9185983900480426"><ele>371.0</ele><time>2026-05-04T17:41:36Z</time></trkpt><trkpt lat="41.32885765110125" lon="1.9187582529345535"><ele>371.0</ele><time>2026-05-04T17:41:37Z</time></trkpt><trkpt lat="41.32885949488021" lon="1.9189137096461377"><ele>371.0</ele><time>2026-05-04T17:41:38Z</time></trkpt><trkpt lat="41.32885696906929" lon="1.9190686161987551"><ele>371.0</ele><time>2026-05-04T17:41:39Z</time></trkpt><trkpt lat="41.328857604391196" lon="1.9192113589030344"><ele>371.0</ele><time>2026-05-04T17:41:40Z</time></trkpt><trkpt lat="41.32886011888472" lon="1.9193559728363419"><ele>371.0</ele><time>2026-05-04T17:41:41Z</time></trkpt><trkpt lat="41.328860763618124" lon="1.9194985801177311"><ele>371.0</ele><time>2026-05-04T17:41:42Z</time></trkpt><trkpt lat="41.32885906803727" lon="1.9196297090193513"><ele>371.0</ele><time>2026-05-04T17:41:43Z</time></trkpt><trkpt lat="41.32885802667128" lon="1.9197514383881804"><ele>371.0</ele><time>2026-05-04T17:41:44Z</time></trkpt><trkpt lat="41.32884863313821" lon="1.9198645820342213"><ele>371.0</ele><time>2026-05-04T17:41:45Z</time></trkpt><trkpt lat="41.32882157930335" lon="1.9199730490563935"><ele>371.0</ele><time>2026-05-04T17:41:46Z</time></trkpt><trkpt lat="41.32877964368099" lon="1.92007716011683"><ele>371.0</ele><time>2026-05-04T17:41:47Z</time></trkpt><trkpt lat="41.32874291369729" lon="1.9201799093531973"><ele>371.0</ele><time>2026-05-04T17:41:48Z</time></trkpt><trkpt lat="41.32872955919953" lon="1.9202903573669943"><ele>371.0</ele><time>2026-05-04T17:41:49Z</time></trkpt><trkpt lat="41.328724856644754" lon="1.9204159757438373"><ele>371.0</ele><time>2026-05-04T17:41:50Z</time></trkpt><trkpt lat="41.32879422494316" lon="1.9205338775952925"><ele>371.0</ele><time>2026-05-04T17:41:51Z</time></trkpt><trkpt lat="41.3288339584188" lon="1.9206554400225695"><ele>371.0</ele><time>2026-05-04T17:41:52Z</time></trkpt><trkpt lat="41.32888912717345" lon="1.9207579537736583"><ele>371.0</ele><time>2026-05-04T17:41:53Z</time></trkpt><trkpt lat="41.32886623146188" lon="1.920923333228045"><ele>371.0</ele><time>2026-05-04T17:41:54Z</time></trkpt><trkpt lat="41.32885498409052" lon="1.921066498290076"><ele>371.0</ele><time>2026-05-04T17:41:55Z</time></trkpt><trkpt lat="41.32884713009014" lon="1.9212062349162564"><ele>371.0</ele><time>2026-05-04T17:41:56Z</time></trkpt><trkpt lat="41.328846018978126" lon="1.9213518138903127"><ele>371.0</ele><time>2026-05-04T17:41:57Z</time></trkpt><trkpt lat="41.32884661181332" lon="1.9214967654359643"><ele>371.0</ele><time>2026-05-04T17:41:58Z</time></trkpt><trkpt lat="41.32884455390959" lon="1.9216458466599142"><ele>371.0</ele><time>2026-05-04T17:41:59Z</time></trkpt><trkpt lat="41.32884668944362" lon="1.9217898195280216"><ele>371.0</ele><time>2026-05-04T17:42:00Z</time></trkpt><trkpt lat="41.32885127541409" lon="1.9219363734990647"><ele>371.0</ele><time>2026-05-04T17:42:01Z</time></trkpt><trkpt lat="41.328849792569564" lon="1.922081012629847"><ele>371.0</ele><time>2026-05-04T17:42:02Z</time></trkpt><trkpt lat="41.32884683323766" lon="1.9222272429731424"><ele>371.0</ele><time>2026-05-04T17:42:03Z</time></trkpt><trkpt lat="41.32884329513822" lon="1.9223727528653143"><ele>371.0</ele><time>2026-05-04T17:42:04Z</time></trkpt><trkpt lat="41.3288432815968" lon="1.9225184599219503"><ele>371.0</ele><time>2026-05-04T17:42:05Z</time></trkpt><trkpt lat="41.32884380258745" lon="1.922662482391352"><ele>371.0</ele><time>2026-05-04T17:42:06Z</time></trkpt><trkpt lat="41.32883942129754" lon="1.922805368694426"><ele>371.0</ele><time>2026-05-04T17:42:07Z</time></trkpt><trkpt lat="41.328834895087454" lon="1.9229483733690698"><ele>371.0</ele><time>2026-05-04T17:42:08Z</time></trkpt><trkpt lat="41.32882834843086" lon="1.9230926857790764"><ele>371.0</ele><time>2026-05-04T17:42:09Z</time></trkpt><trkpt lat="41.32882377608034" lon="1.923239888659332"><ele>371.0</ele><time>2026-05-04T17:42:10Z</time></trkpt><trkpt lat="41.32881708134208" lon="1.9233821431965181"><ele>371.0</ele><time>2026-05-04T17:42:11Z</time></trkpt><trkpt lat="41.328807317054626" lon="1.9235283997250592"><ele>371.0</ele><time>2026-05-04T17:42:12Z</time></trkpt><trkpt lat="41.32879475475117" lon="1.9236713919228159"><ele>371.0</ele><time>2026-05-04T17:42:13Z</time></trkpt><trkpt lat="41.328785870741946" lon="1.9238172768252928"><ele>371.0</ele><time>2026-05-04T17:42:14Z</time></trkpt><trkpt lat="41.32877490951741" lon="1.9239621971999281"><ele>371.0</ele><time>2026-05-04T17:42:15Z</time></trkpt><trkpt lat="41.32875969800646" lon="1.924107426901881"><ele>371.0</ele><time>2026-05-04T17:42:16Z</time></trkpt><trkpt lat="41.32874382450708" lon="1.9242510078742268"><ele>371.20000000000005</ele><time>2026-05-04T17:42:17.001Z</time></trkpt><trkpt lat="41.32872717221984" lon="1.924395395111738"><ele>371.40000000000003</ele><time>2026-05-04T17:42:18.001Z</time></trkpt><trkpt lat="41.32870892060331" lon="1.9245394607577355"><ele>371.6</ele><time>2026-05-04T17:42:19.001Z</time></trkpt><trkpt lat="41.32869044895046" lon="1.92468292143328"><ele>371.8</ele><time>2026-05-04T17:42:20.001Z</time></trkpt><trkpt lat="41.32866800141747" lon="1.924828903605165"><ele>372.0</ele><time>2026-05-04T17:42:21.001Z</time></trkpt><trkpt lat="41.32864606517517" lon="1.9249725562658344"><ele>372.20000000000005</ele><time>2026-05-04T17:42:22.001Z</time></trkpt><trkpt lat="41.32862333547637" lon="1.9251169358664928"><ele>372.4</ele><time>2026-05-04T17:42:23.001Z</time></trkpt><trkpt lat="41.32859981455495" lon="1.9252590185226968"><ele>372.6</ele><time>2026-05-04T17:42:24.001Z</time></trkpt><trkpt lat="41.3285748617324" lon="1.9253992109304936"><ele>372.79999999999995</ele><time>2026-05-04T17:42:25.001Z</time></trkpt><trkpt lat="41.32854832682126" lon="1.9255417000975295"><ele>373.0</ele><time>2026-05-04T17:42:26.001Z</time></trkpt><trkpt lat="41.32852214954835" lon="1.9256805489925362"><ele>373.0</ele><time>2026-05-04T17:42:27.001Z</time></trkpt><trkpt lat="41.32849644483966" lon="1.925812599626976"><ele>373.0</ele><time>2026-05-04T17:42:28.001Z</time></trkpt><trkpt lat="41.328470839007245" lon="1.9259333831271166"><ele>373.0</ele><time>2026-05-04T17:42:29.001Z</time></trkpt><trkpt lat="41.328446192406304" lon="1.9260442803371047"><ele>373.0</ele><time>2026-05-04T17:42:30.001Z</time></trkpt><trkpt lat="41.32842082485663" lon="1.926145445045365"><ele>373.0</ele><time>2026-05-04T17:42:31.001Z</time></trkpt><trkpt lat="41.3283766642802" lon="1.9262384487760462"><ele>373.0</ele><time>2026-05-04T17:42:32.001Z</time></trkpt><trkpt lat="41.32831572539356" lon="1.9263159668724739"><ele>373.59999999999997</ele><time>2026-05-04T17:42:33.001Z</time></trkpt><trkpt lat="41.328226062297425" lon="1.9263700954156324"><ele>374.2</ele><time>2026-05-04T17:42:34.001Z</time></trkpt><trkpt lat="41.328170089567685" lon="1.9264493603843031"><ele>374.8</ele><time>2026-05-04T17:42:35.001Z</time></trkpt><trkpt lat="41.32812884538077" lon="1.9265559491893751"><ele>375.4</ele><time>2026-05-04T17:42:36.001Z</time></trkpt><trkpt lat="41.32813841373412" lon="1.92669222509915"><ele>376.0</ele><time>2026-05-04T17:42:37.001Z</time></trkpt><trkpt lat="41.328176384831124" lon="1.9268194085982933"><ele>376.20000000000005</ele><time>2026-05-04T17:42:38.001Z</time></trkpt><trkpt lat="41.328199074413035" lon="1.9269464437149446"><ele>376.40000000000003</ele><time>2026-05-04T17:42:39.001Z</time></trkpt><trkpt lat="41.3282166613032" lon="1.9270750000393215"><ele>376.6</ele><time>2026-05-04T17:42:40.001Z</time></trkpt><trkpt lat="41.328260173329454" lon="1.9271843621486637"><ele>376.8</ele><time>2026-05-04T17:42:41.001Z</time></trkpt><trkpt lat="41.32817963825345" lon="1.9273392626860013"><ele>377.0</ele><time>2026-05-04T17:42:42.001Z</time></trkpt><trkpt lat="41.32814888894421" lon="1.927472695705324"><ele>377.0</ele><time>2026-05-04T17:42:43.001Z</time></trkpt><trkpt lat="41.32812069770208" lon="1.9276051486116534"><ele>377.0</ele><time>2026-05-04T17:42:44.001Z</time></trkpt><trkpt lat="41.32810295186759" lon="1.9277438509835698"><ele>377.0</ele><time>2026-05-04T17:42:45.001Z</time></trkpt><trkpt lat="41.32808009800037" lon="1.9278836308184928"><ele>377.0</ele><time>2026-05-04T17:42:46.001Z</time></trkpt><trkpt lat="41.32806148605632" lon="1.9280259098501011"><ele>377.0</ele><time>2026-05-04T17:42:47.001Z</time></trkpt><trkpt lat="41.328043796093304" lon="1.9281703143748388"><ele>379.0</ele><time>2026-05-04T17:42:48.001Z</time></trkpt><trkpt lat="41.328029516896116" lon="1.9283136853393954"><ele>381.0</ele><time>2026-05-04T17:42:49.001Z</time></trkpt><trkpt lat="41.32801406067238" lon="1.9284592476991858"><ele>383.0</ele><time>2026-05-04T17:42:50.001Z</time></trkpt><trkpt lat="41.32800147928359" lon="1.928606285812102"><ele>385.0</ele><time>2026-05-04T17:42:51.001Z</time></trkpt><trkpt lat="41.32799017137632" lon="1.9287572052990016"><ele>387.0</ele><time>2026-05-04T17:42:52.001Z</time></trkpt><trkpt lat="41.32797565759481" lon="1.9289004002482997"><ele>387.75</ele><time>2026-05-04T17:42:53.001Z</time></trkpt><trkpt lat="41.32798330937079" lon="1.9290474234907604"><ele>388.5</ele><time>2026-05-04T17:42:54.001Z</time></trkpt><trkpt lat="41.32797142137021" lon="1.9291913257231617"><ele>389.25</ele><time>2026-05-04T17:42:55.001Z</time></trkpt><trkpt lat="41.32796108221839" lon="1.9293692208973225"><ele>390.0</ele><time>2026-05-04T17:42:56.001Z</time></trkpt><trkpt lat="41.327949866081376" lon="1.9295622051684502"><ele>388.5</ele><time>2026-05-04T17:42:57.001Z</time></trkpt><trkpt lat="41.327941199716236" lon="1.9297107153489466"><ele>387.0</ele><time>2026-05-04T17:42:58.001Z</time></trkpt><trkpt lat="41.32788546864728" lon="1.9298811080640106"><ele>385.5</ele><time>2026-05-04T17:43:00.001Z</time></trkpt><trkpt lat="41.327910208529154" lon="1.9300729685738254"><ele>384.0</ele><time>2026-05-04T17:43:01.001Z</time></trkpt><trkpt lat="41.32789926075635" lon="1.9302286859130517"><ele>382.0</ele><time>2026-05-04T17:43:02.001Z</time></trkpt><trkpt lat="41.327892580449806" lon="1.9303791277892697"><ele>380.0</ele><time>2026-05-04T17:43:03.001Z</time></trkpt><trkpt lat="41.32788239000998" lon="1.9305305384415803"><ele>378.0</ele><time>2026-05-04T17:43:04.001Z</time></trkpt><trkpt lat="41.327875202653985" lon="1.9306843595152232"><ele>376.0</ele><time>2026-05-04T17:43:05.001Z</time></trkpt><trkpt lat="41.32786560626622" lon="1.930837579415119"><ele>377.5</ele><time>2026-05-04T17:43:06.001Z</time></trkpt><trkpt lat="41.32786012882249" lon="1.930989227892432"><ele>379.0</ele><time>2026-05-04T17:43:07.001Z</time></trkpt><trkpt lat="41.327852572003835" lon="1.9311415283957372"><ele>380.5</ele><time>2026-05-04T17:43:08.001Z</time></trkpt><trkpt lat="41.327843093407296" lon="1.9312958445507284"><ele>382.0</ele><time>2026-05-04T17:43:09.001Z</time></trkpt><trkpt lat="41.32783084283647" lon="1.9314511709027324"><ele>382.0</ele><time>2026-05-04T17:43:10.001Z</time></trkpt><trkpt lat="41.32782403927021" lon="1.931604511546738"><ele>382.0</ele><time>2026-05-04T17:43:11.001Z</time></trkpt><trkpt lat="41.32781617258838" lon="1.9317576742201286"><ele>382.0</ele><time>2026-05-04T17:43:12.001Z</time></trkpt><trkpt lat="41.32780494757045" lon="1.9319146425412503"><ele>382.0</ele><time>2026-05-04T17:43:13.001Z</time></trkpt><trkpt lat="41.32779385295565" lon="1.9320702359540978"><ele>383.5</ele><time>2026-05-04T17:43:14.001Z</time></trkpt><trkpt lat="41.327786702975715" lon="1.9322251717305938"><ele>385.0</ele><time>2026-05-04T17:43:15.001Z</time></trkpt><trkpt lat="41.32777425729399" lon="1.9323803380869153"><ele>386.5</ele><time>2026-05-04T17:43:16.001Z</time></trkpt><trkpt lat="41.32776761538152" lon="1.9325347069119485"><ele>388.0</ele><time>2026-05-04T17:43:17.001Z</time></trkpt><trkpt lat="41.32775983079515" lon="1.932687390675996"><ele>388.75</ele><time>2026-05-04T17:43:18.001Z</time></trkpt><trkpt lat="41.32775526476261" lon="1.9328415426793422"><ele>389.5</ele><time>2026-05-04T17:43:19.001Z</time></trkpt><trkpt lat="41.32775024824069" lon="1.9329939942932912"><ele>390.25</ele><time>2026-05-04T17:43:20.001Z</time></trkpt><trkpt lat="41.32775243884837" lon="1.933146779233021"><ele>391.0</ele><time>2026-05-04T17:43:21.001Z</time></trkpt><trkpt lat="41.32775946997788" lon="1.9332999187263138"><ele>391.25</ele><time>2026-05-04T17:43:22.001Z</time></trkpt><trkpt lat="41.32777157180021" lon="1.933452546046303"><ele>391.5</ele><time>2026-05-04T17:43:23.001Z</time></trkpt><trkpt lat="41.32779079039923" lon="1.9336031508829679"><ele>391.75</ele><time>2026-05-04T17:43:24.001Z</time></trkpt><trkpt lat="41.32781456696134" lon="1.9337558509409027"><ele>392.0</ele><time>2026-05-04T17:43:25.001Z</time></trkpt><trkpt lat="41.327844626208424" lon="1.9339037129698422"><ele>392.0</ele><time>2026-05-04T17:43:26.001Z</time></trkpt><trkpt lat="41.32787928126341" lon="1.934051183642471"><ele>392.0</ele><time>2026-05-04T17:43:27.001Z</time></trkpt><trkpt lat="41.3279181897229" lon="1.9341939563093795"><ele>392.0</ele><time>2026-05-04T17:43:28.001Z</time></trkpt><trkpt lat="41.32795870382049" lon="1.934340236966679"><ele>392.0</ele><time>2026-05-04T17:43:29.001Z</time></trkpt><trkpt lat="41.32799916897695" lon="1.9344854495743797"><ele>391.25</ele><time>2026-05-04T17:43:30.001Z</time></trkpt><trkpt lat="41.328041048198536" lon="1.934630798421036"><ele>390.5</ele><time>2026-05-04T17:43:31.001Z</time></trkpt><trkpt lat="41.32808397247959" lon="1.934775294340019"><ele>389.75</ele><time>2026-05-04T17:43:32.001Z</time></trkpt><trkpt lat="41.328125008198" lon="1.934921649869993"><ele>389.0</ele><time>2026-05-04T17:43:33.001Z</time></trkpt><trkpt lat="41.32816194220295" lon="1.9350685952540005"><ele>389.0</ele><time>2026-05-04T17:43:34.001Z</time></trkpt><trkpt lat="41.32819777639399" lon="1.9352117400111262"><ele>389.0</ele><time>2026-05-04T17:43:35.001Z</time></trkpt><trkpt lat="41.32822741012353" lon="1.9353597958585307"><ele>389.0</ele><time>2026-05-04T17:43:36.001Z</time></trkpt><trkpt lat="41.32825140633169" lon="1.9355122864692693"><ele>389.0</ele><time>2026-05-04T17:43:37.001Z</time></trkpt><trkpt lat="41.32826933805786" lon="1.9356636704526868"><ele>389.0</ele><time>2026-05-04T17:43:38.001Z</time></trkpt><trkpt lat="41.32828451440383" lon="1.9358107460413896"><ele>389.0</ele><time>2026-05-04T17:43:39.001Z</time></trkpt><trkpt lat="41.32828795462088" lon="1.935963802714781"><ele>389.0</ele><time>2026-05-04T17:43:40.001Z</time></trkpt><trkpt lat="41.32827623421336" lon="1.9361164346415953"><ele>389.0</ele><time>2026-05-04T17:43:41Z</time></trkpt><trkpt lat="41.3282191169272" lon="1.936273081422326"><ele>389.2</ele><time>2026-05-04T17:43:42Z</time></trkpt><trkpt lat="41.32821841466074" lon="1.9364280936792209"><ele>389.4</ele><time>2026-05-04T17:43:43Z</time></trkpt><trkpt lat="41.32821036344006" lon="1.936566262162539"><ele>389.6</ele><time>2026-05-04T17:43:44Z</time></trkpt><trkpt lat="41.32824308919085" lon="1.9366955454144823"><ele>389.8</ele><time>2026-05-04T17:43:45Z</time></trkpt><trkpt lat="41.32825918618972" lon="1.9368228967551386"><ele>390.0</ele><time>2026-05-04T17:43:46Z</time></trkpt><trkpt lat="41.3282437792444" lon="1.9369733782071354"><ele>390.2</ele><time>2026-05-04T17:43:47Z</time></trkpt><trkpt lat="41.32822746195582" lon="1.937110937537937"><ele>390.4</ele><time>2026-05-04T17:43:48Z</time></trkpt><trkpt lat="41.32822308452865" lon="1.9372481487817002"><ele>390.6</ele><time>2026-05-04T17:43:49Z</time></trkpt><trkpt lat="41.328217610138516" lon="1.9373738204995383"><ele>390.8</ele><time>2026-05-04T17:43:50Z</time></trkpt><trkpt lat="41.32820663416181" lon="1.9374926480133416"><ele>391.0</ele><time>2026-05-04T17:43:51Z</time></trkpt><trkpt lat="41.32819533289765" lon="1.9376071683846576"><ele>391.00000000000006</ele><time>2026-05-04T17:43:52Z</time></trkpt><trkpt lat="41.32817136549303" lon="1.937718036846571"><ele>391.0</ele><time>2026-05-04T17:43:53Z</time></trkpt><trkpt lat="41.3281239611577" lon="1.9378122930311616"><ele>391.0</ele><time>2026-05-04T17:43:54Z</time></trkpt><trkpt lat="41.32807191947225" lon="1.9379099688436499"><ele>391.0</ele><time>2026-05-04T17:43:55Z</time></trkpt><trkpt lat="41.328047255145115" lon="1.9380238106492387"><ele>391.00000000000006</ele><time>2026-05-04T17:43:56Z</time></trkpt><trkpt lat="41.32806486355469" lon="1.938134615594566"><ele>391.0</ele><time>2026-05-04T17:43:57Z</time></trkpt><trkpt lat="41.32810369019872" lon="1.9382508339378641"><ele>391.0</ele><time>2026-05-04T17:43:58Z</time></trkpt><trkpt lat="41.32818238507176" lon="1.938275031265574"><ele>391.0</ele><time>2026-05-04T17:43:59Z</time></trkpt><trkpt lat="41.32818566565883" lon="1.9384803822525576"><ele>391.0</ele><time>2026-05-04T17:44:00Z</time></trkpt><trkpt lat="41.3281939258816" lon="1.9386235710443385"><ele>391.0</ele><time>2026-05-04T17:44:01Z</time></trkpt><trkpt lat="41.32819913237663" lon="1.9387635430485133"><ele>391.0</ele><time>2026-05-04T17:44:02Z</time></trkpt><trkpt lat="41.32820684846403" lon="1.9389061186003167"><ele>391.4</ele><time>2026-05-04T17:44:03Z</time></trkpt><trkpt lat="41.32821200306513" lon="1.9390493260407815"><ele>391.8</ele><time>2026-05-04T17:44:04Z</time></trkpt><trkpt lat="41.328212431531355" lon="1.9391947911292422"><ele>392.2</ele><time>2026-05-04T17:44:05Z</time></trkpt><trkpt lat="41.32820787814607" lon="1.9393374632744644"><ele>392.59999999999997</ele><time>2026-05-04T17:44:06Z</time></trkpt><trkpt lat="41.328200980255495" lon="1.9394822997562327"><ele>393.0</ele><time>2026-05-04T17:44:07Z</time></trkpt><trkpt lat="41.328188157487375" lon="1.9396259962817806"><ele>393.0</ele><time>2026-05-04T17:44:08Z</time></trkpt><trkpt lat="41.328172801874956" lon="1.939770407867368"><ele>393.0</ele><time>2026-05-04T17:44:09Z</time></trkpt><trkpt lat="41.32815380839244" lon="1.9399139538310786"><ele>393.0</ele><time>2026-05-04T17:44:10Z</time></trkpt><trkpt lat="41.32813457360421" lon="1.9400552551075987"><ele>393.0</ele><time>2026-05-04T17:44:11Z</time></trkpt><trkpt lat="41.32811824172927" lon="1.9401953578019364"><ele>393.0</ele><time>2026-05-04T17:44:12Z</time></trkpt><trkpt lat="41.32810079112957" lon="1.9403382797707618"><ele>392.79999999999995</ele><time>2026-05-04T17:44:13Z</time></trkpt><trkpt lat="41.32808536608813" lon="1.940482276607454"><ele>392.6</ele><time>2026-05-04T17:44:14Z</time></trkpt><trkpt lat="41.32806676368677" lon="1.9406250909482312"><ele>392.4</ele><time>2026-05-04T17:44:15Z</time></trkpt><trkpt lat="41.328048500169736" lon="1.940769379276347"><ele>392.20000000000005</ele><time>2026-05-04T17:44:16Z</time></trkpt><trkpt lat="41.328030871999985" lon="1.9409101223578684"><ele>392.0</ele><time>2026-05-04T17:44:17Z</time></trkpt><trkpt lat="41.328015536287225" lon="1.9410503261103769"><ele>392.6</ele><time>2026-05-04T17:44:18Z</time></trkpt><trkpt lat="41.32799804884626" lon="1.9411898116545854"><ele>393.20000000000005</ele><time>2026-05-04T17:44:19Z</time></trkpt><trkpt lat="41.3279812707495" lon="1.941329108528235"><ele>393.8</ele><time>2026-05-04T17:44:20Z</time></trkpt><trkpt lat="41.327962372605256" lon="1.941469288982955"><ele>394.4</ele><time>2026-05-04T17:44:21Z</time></trkpt><trkpt lat="41.32794550125096" lon="1.941604837141794"><ele>395.0</ele><time>2026-05-04T17:44:22Z</time></trkpt><trkpt lat="41.32792808312294" lon="1.9417408696082088"><ele>395.8</ele><time>2026-05-04T17:44:23Z</time></trkpt><trkpt lat="41.32791266760751" lon="1.9418743769447055"><ele>396.6</ele><time>2026-05-04T17:44:24Z</time></trkpt><trkpt lat="41.32789687436199" lon="1.9420100250668917"><ele>397.4</ele><time>2026-05-04T17:44:25Z</time></trkpt><trkpt lat="41.327881912237196" lon="1.942145880149643"><ele>398.2</ele><time>2026-05-04T17:44:26Z</time></trkpt><trkpt lat="41.3278666713054" lon="1.942279559099921"><ele>399.0</ele><time>2026-05-04T17:44:27Z</time></trkpt><trkpt lat="41.32784761491616" lon="1.9424146078981925"><ele>399.6</ele><time>2026-05-04T17:44:28Z</time></trkpt><trkpt lat="41.32783095099898" lon="1.942549276119973"><ele>400.2</ele><time>2026-05-04T17:44:29Z</time></trkpt><trkpt lat="41.327811880681175" lon="1.94268119449739"><ele>400.8</ele><time>2026-05-04T17:44:30Z</time></trkpt><trkpt lat="41.3277943592536" lon="1.942814472513233"><ele>401.40000000000003</ele><time>2026-05-04T17:44:31Z</time></trkpt><trkpt lat="41.32777726419556" lon="1.9429468096901317"><ele>402.0</ele><time>2026-05-04T17:44:32Z</time></trkpt><trkpt lat="41.32776053868994" lon="1.9430798769639954"><ele>402.0</ele><time>2026-05-04T17:44:33Z</time></trkpt><trkpt lat="41.327745315484094" lon="1.9432135828024772"><ele>402.0</ele><time>2026-05-04T17:44:34Z</time></trkpt><trkpt lat="41.32773065838687" lon="1.943347462422691"><ele>402.0</ele><time>2026-05-04T17:44:35Z</time></trkpt><trkpt lat="41.32771276340583" lon="1.943481116373155"><ele>402.0</ele><time>2026-05-04T17:44:36Z</time></trkpt><trkpt lat="41.32769569860109" lon="1.9436140749057385"><ele>402.0</ele><time>2026-05-04T17:44:37Z</time></trkpt><trkpt lat="41.32767971891302" lon="1.9437474375224613"><ele>402.6</ele><time>2026-05-04T17:44:38Z</time></trkpt><trkpt lat="41.32766252798329" lon="1.943883200200551"><ele>403.20000000000005</ele><time>2026-05-04T17:44:39Z</time></trkpt><trkpt lat="41.32764117831555" lon="1.944019395583339"><ele>403.8</ele><time>2026-05-04T17:44:40Z</time></trkpt><trkpt lat="41.32761858341081" lon="1.9441539153919414"><ele>404.4</ele><time>2026-05-04T17:44:41Z</time></trkpt><trkpt lat="41.3275925705799" lon="1.9442883105606865"><ele>405.0</ele><time>2026-05-04T17:44:42Z</time></trkpt><trkpt lat="41.327563756522615" lon="1.94442303540687"><ele>405.2</ele><time>2026-05-04T17:44:43.001Z</time></trkpt><trkpt lat="41.32753136745444" lon="1.9445555974363813"><ele>405.4</ele><time>2026-05-04T17:44:44.001Z</time></trkpt><trkpt lat="41.3274970207793" lon="1.9446868719321202"><ele>405.6</ele><time>2026-05-04T17:44:45.001Z</time></trkpt><trkpt lat="41.32746086307341" lon="1.9448169696868591"><ele>405.8</ele><time>2026-05-04T17:44:46.001Z</time></trkpt><trkpt lat="41.32742032350476" lon="1.944946569254802"><ele>406.0</ele><time>2026-05-04T17:44:47.001Z</time></trkpt><trkpt lat="41.32737828835276" lon="1.9450696289214002"><ele>406.8</ele><time>2026-05-04T17:44:48.001Z</time></trkpt><trkpt lat="41.32733404098405" lon="1.9451928070899447"><ele>407.6</ele><time>2026-05-04T17:44:49.001Z</time></trkpt><trkpt lat="41.32729104606665" lon="1.9453197383512049"><ele>408.4</ele><time>2026-05-04T17:44:50.001Z</time></trkpt><trkpt lat="41.32724658768853" lon="1.9454450525171851"><ele>409.2</ele><time>2026-05-04T17:44:51.001Z</time></trkpt><trkpt lat="41.327201506984956" lon="1.9455682743856262"><ele>410.0</ele><time>2026-05-04T17:44:52.001Z</time></trkpt><trkpt lat="41.3271549985943" lon="1.9456833717780977"><ele>410.16666666666663</ele><time>2026-05-04T17:44:53.001Z</time></trkpt><trkpt lat="41.32711550354491" lon="1.9457875861180407"><ele>410.3333333333333</ele><time>2026-05-04T17:44:54.001Z</time></trkpt><trkpt lat="41.32707814187256" lon="1.9458864774875082"><ele>410.5</ele><time>2026-05-04T17:44:55.001Z</time></trkpt><trkpt lat="41.32704047999722" lon="1.945987717206336"><ele>410.66666666666663</ele><time>2026-05-04T17:44:56.001Z</time></trkpt><trkpt lat="41.32700089867706" lon="1.9460870858461432"><ele>410.8333333333333</ele><time>2026-05-04T17:44:57.001Z</time></trkpt><trkpt lat="41.32694092000369" lon="1.9461746245905556"><ele>411.0</ele><time>2026-05-04T17:44:58.001Z</time></trkpt><trkpt lat="41.326867362778145" lon="1.9462365240151658"><ele>411.0</ele><time>2026-05-04T17:44:59.001Z</time></trkpt><trkpt lat="41.326801743616016" lon="1.9463103953289558"><ele>411.0</ele><time>2026-05-04T17:45:00.001Z</time></trkpt><trkpt lat="41.32675727867392" lon="1.946415765079294"><ele>411.0</ele><time>2026-05-04T17:45:01.001Z</time></trkpt><trkpt lat="41.32673570546033" lon="1.9465394788540422"><ele>411.0</ele><time>2026-05-04T17:45:02.001Z</time></trkpt><trkpt lat="41.326724832844576" lon="1.9466659182612438"><ele>411.0</ele><time>2026-05-04T17:45:03.001Z</time></trkpt><trkpt lat="41.32669036949331" lon="1.946784224136747"><ele>411.4</ele><time>2026-05-04T17:45:04.001Z</time></trkpt><trkpt lat="41.32662165188224" lon="1.9468855437350119"><ele>411.8</ele><time>2026-05-04T17:45:05.001Z</time></trkpt><trkpt lat="41.32654382383599" lon="1.9469755572494472"><ele>412.2</ele><time>2026-05-04T17:45:06.001Z</time></trkpt><trkpt lat="41.32645661047534" lon="1.9470519481396595"><ele>412.59999999999997</ele><time>2026-05-04T17:45:07.001Z</time></trkpt><trkpt lat="41.32635921648242" lon="1.9471058318522156"><ele>413.0</ele><time>2026-05-04T17:45:08.001Z</time></trkpt><trkpt lat="41.326255688954596" lon="1.9471385851549625"><ele>413.0</ele><time>2026-05-04T17:45:09.001Z</time></trkpt><trkpt lat="41.32615714607317" lon="1.947182724377086"><ele>413.0</ele><time>2026-05-04T17:45:10.001Z</time></trkpt><trkpt lat="41.32606627418092" lon="1.947241203441646"><ele>413.0</ele><time>2026-05-04T17:45:11.001Z</time></trkpt><trkpt lat="41.32596954116297" lon="1.947295549994677"><ele>413.0</ele><time>2026-05-04T17:45:12.001Z</time></trkpt><trkpt lat="41.32589348078542" lon="1.9473952108538783"><ele>413.0</ele><time>2026-05-04T17:45:13.001Z</time></trkpt><trkpt lat="41.32581245887261" lon="1.9474860851837452"><ele>415.0</ele><time>2026-05-04T17:45:14.001Z</time></trkpt><trkpt lat="41.32572072045937" lon="1.9475766232401786"><ele>417.0</ele><time>2026-05-04T17:45:15.001Z</time></trkpt><trkpt lat="41.325659640121785" lon="1.947699335020592"><ele>419.0</ele><time>2026-05-04T17:45:16.001Z</time></trkpt><trkpt lat="41.325585112244184" lon="1.9478086499222511"><ele>421.0</ele><time>2026-05-04T17:45:17.001Z</time></trkpt><trkpt lat="41.325518134272016" lon="1.947923500576067"><ele>423.0</ele><time>2026-05-04T17:45:18.001Z</time></trkpt><trkpt lat="41.325456986800006" lon="1.948043642841993"><ele>423.0</ele><time>2026-05-04T17:45:19.001Z</time></trkpt><trkpt lat="41.32539744636362" lon="1.9481641892094057"><ele>423.0</ele><time>2026-05-04T17:45:20.001Z</time></trkpt><trkpt lat="41.32534502115113" lon="1.9482890350741795"><ele>423.0</ele><time>2026-05-04T17:45:21.001Z</time></trkpt><trkpt lat="41.32528008350158" lon="1.9484004751851745"><ele>423.0</ele><time>2026-05-04T17:45:22.001Z</time></trkpt><trkpt lat="41.325222056259" lon="1.9485072483088481"><ele>423.0</ele><time>2026-05-04T17:45:23.001Z</time></trkpt><trkpt lat="41.32515228863228" lon="1.9486058808666198"><ele>418.4</ele><time>2026-05-04T17:45:24.001Z</time></trkpt><trkpt lat="41.32507201693765" lon="1.9487047211220763"><ele>413.79999999999995</ele><time>2026-05-04T17:45:25.001Z</time></trkpt><trkpt lat="41.32498473795008" lon="1.9487995349987421"><ele>409.2</ele><time>2026-05-04T17:45:26.001Z</time></trkpt><trkpt lat="41.32489596735878" lon="1.948890843276415"><ele>404.6</ele><time>2026-05-04T17:45:27.001Z</time></trkpt><trkpt lat="41.32480738692941" lon="1.948988679992039"><ele>400.0</ele><time>2026-05-04T17:45:28.001Z</time></trkpt><trkpt lat="41.324705907204304" lon="1.9490466570120706"><ele>400.0</ele><time>2026-05-04T17:45:29.001Z</time></trkpt><trkpt lat="41.32460045016868" lon="1.9490905128682419"><ele>400.0</ele><time>2026-05-04T17:45:30.001Z</time></trkpt><trkpt lat="41.32448940217071" lon="1.9490887055868915"><ele>400.0</ele><time>2026-05-04T17:45:31.001Z</time></trkpt><trkpt lat="41.324382163618154" lon="1.9490813628670363"><ele>400.0</ele><time>2026-05-04T17:45:32.001Z</time></trkpt><trkpt lat="41.32427456274785" lon="1.9490684891287668"><ele>400.0</ele><time>2026-05-04T17:45:33.001Z</time></trkpt><trkpt lat="41.32416295331381" lon="1.9490581417499888"><ele>400.0</ele><time>2026-05-04T17:45:34.001Z</time></trkpt><trkpt lat="41.32405538551267" lon="1.9490553109337783"><ele>400.0</ele><time>2026-05-04T17:45:35.001Z</time></trkpt><trkpt lat="41.32394777098436" lon="1.9490687685146086"><ele>400.0</ele><time>2026-05-04T17:45:36.001Z</time></trkpt><trkpt lat="41.32383731843043" lon="1.9490933883360344"><ele>400.0</ele><time>2026-05-04T17:45:37.001Z</time></trkpt><trkpt lat="41.323732347424986" lon="1.9491320398344636"><ele>400.0</ele><time>2026-05-04T17:45:38.001Z</time></trkpt><trkpt lat="41.32363092836007" lon="1.9491699418405077"><ele>393.0</ele><time>2026-05-04T17:45:39.001Z</time></trkpt><trkpt lat="41.32353016794983" lon="1.949212545242569"><ele>386.0</ele><time>2026-05-04T17:45:40.001Z</time></trkpt><trkpt lat="41.323421078390496" lon="1.9492617302597544"><ele>379.0</ele><time>2026-05-04T17:45:41.001Z</time></trkpt><trkpt lat="41.3233167715576" lon="1.9493101894391898"><ele>372.0</ele><time>2026-05-04T17:45:42.001Z</time></trkpt><trkpt lat="41.323209451074966" lon="1.9493585674442628"><ele>365.0</ele><time>2026-05-04T17:45:43.001Z</time></trkpt><trkpt lat="41.32310599608053" lon="1.9494017706472893"><ele>367.6</ele><time>2026-05-04T17:45:44.001Z</time></trkpt><trkpt lat="41.32300371552704" lon="1.9494423058149803"><ele>370.2</ele><time>2026-05-04T17:45:45.001Z</time></trkpt><trkpt lat="41.32290425613073" lon="1.9494758312278202"><ele>372.79999999999995</ele><time>2026-05-04T17:45:46.001Z</time></trkpt><trkpt lat="41.32280515518753" lon="1.9495042606458444"><ele>375.4</ele><time>2026-05-04T17:45:47Z</time></trkpt><trkpt lat="41.32271176883051" lon="1.9495310704444822"><ele>378.0</ele><time>2026-05-04T17:45:48Z</time></trkpt><trkpt lat="41.322619886629965" lon="1.9495585301170653"><ele>378.0</ele><time>2026-05-04T17:45:49Z</time></trkpt><trkpt lat="41.322539371422586" lon="1.9495987830268127"><ele>378.0</ele><time>2026-05-04T17:45:50Z</time></trkpt><trkpt lat="41.32247635029033" lon="1.9496712220664794"><ele>378.0</ele><time>2026-05-04T17:45:51Z</time></trkpt><trkpt lat="41.3224435632425" lon="1.9497847727454645"><ele>378.0</ele><time>2026-05-04T17:45:52Z</time></trkpt><trkpt lat="41.322518804048045" lon="1.9499197323332456"><ele>378.0</ele><time>2026-05-04T17:45:54Z</time></trkpt><trkpt lat="41.32259543533811" lon="1.94994108145523"><ele>378.0</ele><time>2026-05-04T17:45:55Z</time></trkpt><trkpt lat="41.322665579445825" lon="1.9499127743447209"><ele>378.0</ele><time>2026-05-04T17:45:56Z</time></trkpt><trkpt lat="41.3227380848325" lon="1.9498573721554273"><ele>378.0</ele><time>2026-05-04T17:45:57Z</time></trkpt><trkpt lat="41.32282049885885" lon="1.949810804683887"><ele>378.0</ele><time>2026-05-04T17:45:58Z</time></trkpt><trkpt lat="41.322908660163506" lon="1.9497634188221307"><ele>378.0</ele><time>2026-05-04T17:45:59Z</time></trkpt><trkpt lat="41.32300149867796" lon="1.949724934678676"><ele>378.0</ele><time>2026-05-04T17:46:00Z</time></trkpt><trkpt lat="41.32310311991434" lon="1.9497038097172839"><ele>375.4</ele><time>2026-05-04T17:46:01Z</time></trkpt><trkpt lat="41.323210231372364" lon="1.9496909991864033"><ele>372.79999999999995</ele><time>2026-05-04T17:46:02Z</time></trkpt><trkpt lat="41.323318901967006" lon="1.9496738419902961"><ele>370.2</ele><time>2026-05-04T17:46:03Z</time></trkpt><trkpt lat="41.32342669039702" lon="1.9496571887901915"><ele>367.6</ele><time>2026-05-04T17:46:04Z</time></trkpt><trkpt lat="41.32353364382199" lon="1.9496346979868655"><ele>365.0</ele><time>2026-05-04T17:46:05Z</time></trkpt><trkpt lat="41.32363895961435" lon="1.9496171460448128"><ele>365.0</ele><time>2026-05-04T17:46:06Z</time></trkpt><trkpt lat="41.32374035514261" lon="1.949591694463021"><ele>365.0</ele><time>2026-05-04T17:46:07Z</time></trkpt><trkpt lat="41.32384284270937" lon="1.949575924641675"><ele>365.0</ele><time>2026-05-04T17:46:08Z</time></trkpt><trkpt lat="41.32394632835803" lon="1.9495624930986997"><ele>365.0</ele><time>2026-05-04T17:46:09Z</time></trkpt><trkpt lat="41.3240541828573" lon="1.9495733851311408"><ele>365.0</ele><time>2026-05-04T17:46:10Z</time></trkpt><trkpt lat="41.324163096287954" lon="1.9496124818591458"><ele>364.4</ele><time>2026-05-04T17:46:11Z</time></trkpt><trkpt lat="41.32426101554224" lon="1.9496701982914733"><ele>363.8</ele><time>2026-05-04T17:46:12Z</time></trkpt><trkpt lat="41.324359473358015" lon="1.9497222709201953"><ele>363.20000000000005</ele><time>2026-05-04T17:46:13Z</time></trkpt><trkpt lat="41.324459368501664" lon="1.9497707302976162"><ele>362.6</ele><time>2026-05-04T17:46:14Z</time></trkpt><trkpt lat="41.32456358978376" lon="1.9498028432139327"><ele>362.0</ele><time>2026-05-04T17:46:15Z</time></trkpt><trkpt lat="41.3246680644661" lon="1.9498117161273725"><ele>361.0</ele><time>2026-05-04T17:46:16Z</time></trkpt><trkpt lat="41.324775236138755" lon="1.9497902381881895"><ele>360.0</ele><time>2026-05-04T17:46:17Z</time></trkpt><trkpt lat="41.32488842015261" lon="1.949754640916757"><ele>359.0</ele><time>2026-05-04T17:46:18Z</time></trkpt><trkpt lat="41.32499745299702" lon="1.9497165388504998"><ele>358.0</ele><time>2026-05-04T17:46:19Z</time></trkpt><trkpt lat="41.32510454748027" lon="1.949658828671841"><ele>358.0</ele><time>2026-05-04T17:46:20Z</time></trkpt><trkpt lat="41.32522673142163" lon="1.9496240858282017"><ele>358.0</ele><time>2026-05-04T17:46:21Z</time></trkpt><trkpt lat="41.32536200531752" lon="1.9495971755740111"><ele>358.0</ele><time>2026-05-04T17:46:22Z</time></trkpt><trkpt lat="41.325412653403376" lon="1.9495142097400235"><ele>358.0</ele><time>2026-05-04T17:46:23Z</time></trkpt><trkpt lat="41.325513708740345" lon="1.9494708161409808"><ele>358.0</ele><time>2026-05-04T17:46:24Z</time></trkpt><trkpt lat="41.325616033239626" lon="1.949428537265345"><ele>356.5</ele><time>2026-05-04T17:46:25Z</time></trkpt><trkpt lat="41.32571019609449" lon="1.9493861916929094"><ele>355.0</ele><time>2026-05-04T17:46:26Z</time></trkpt><trkpt lat="41.3257924228775" lon="1.949348675180318"><ele>353.5</ele><time>2026-05-04T17:46:27Z</time></trkpt><trkpt lat="41.32587142878675" lon="1.9493320577984667"><ele>352.0</ele><time>2026-05-04T17:46:28Z</time></trkpt><trkpt lat="41.325946245531405" lon="1.9493704889896282"><ele>350.5</ele><time>2026-05-04T17:46:29Z</time></trkpt><trkpt lat="41.32600478986123" lon="1.949450412457741"><ele>349.0</ele><time>2026-05-04T17:46:30Z</time></trkpt><trkpt lat="41.326016960299164" lon="1.9495580534405763"><ele>349.0</ele><time>2026-05-04T17:46:31Z</time></trkpt><trkpt lat="41.325969752752" lon="1.9496582673761889"><ele>349.0</ele><time>2026-05-04T17:46:32Z</time></trkpt><trkpt lat="41.325866450111846" lon="1.9496835347045598"><ele>349.0</ele><time>2026-05-04T17:46:33Z</time></trkpt><trkpt lat="41.32577651603924" lon="1.9496825175323198"><ele>349.0</ele><time>2026-05-04T17:46:34Z</time></trkpt><trkpt lat="41.32567372413966" lon="1.9496873347742056"><ele>349.0</ele><time>2026-05-04T17:46:35Z</time></trkpt><trkpt lat="41.32556769700557" lon="1.9496941392610032"><ele>351.25</ele><time>2026-05-04T17:46:36Z</time></trkpt><trkpt lat="41.3254580544489" lon="1.949704380228611"><ele>353.5</ele><time>2026-05-04T17:46:37Z</time></trkpt><trkpt lat="41.32536022263426" lon="1.9497921101070763"><ele>355.75</ele><time>2026-05-04T17:46:38Z</time></trkpt><trkpt lat="41.32526123390207" lon="1.9498714311625478"><ele>358.0</ele><time>2026-05-04T17:46:39Z</time></trkpt><trkpt lat="41.325161482254046" lon="1.949948278929448"><ele>358.0</ele><time>2026-05-04T17:46:40Z</time></trkpt><trkpt lat="41.325067807448455" lon="1.9500416257048392"><ele>358.0</ele><time>2026-05-04T17:46:41Z</time></trkpt><trkpt lat="41.324978968493326" lon="1.9501292346968293"><ele>358.0</ele><time>2026-05-04T17:46:42Z</time></trkpt><trkpt lat="41.324889820967776" lon="1.9502151316426501"><ele>358.0</ele><time>2026-05-04T17:46:43Z</time></trkpt><trkpt lat="41.32479900480076" lon="1.9503025327506662"><ele>351.79999999999995</ele><time>2026-05-04T17:46:44Z</time></trkpt><trkpt lat="41.32470116000337" lon="1.9503780980195957"><ele>345.6</ele><time>2026-05-04T17:46:45Z</time></trkpt><trkpt lat="41.32459645639201" lon="1.9504116835647556"><ele>339.4</ele><time>2026-05-04T17:46:46Z</time></trkpt><trkpt lat="41.32448356609838" lon="1.950400504814265"><ele>333.20000000000005</ele><time>2026-05-04T17:46:47Z</time></trkpt><trkpt lat="41.324376287670255" lon="1.9503643348426458"><ele>327.0</ele><time>2026-05-04T17:46:48Z</time></trkpt><trkpt lat="41.32426172553543" lon="1.95034063233479"><ele>327.0</ele><time>2026-05-04T17:46:49.001Z</time></trkpt><trkpt lat="41.32414541301483" lon="1.9503498721898835"><ele>327.0</ele><time>2026-05-04T17:46:50.001Z</time></trkpt><trkpt lat="41.324036066592264" lon="1.9503311469343478"><ele>327.0</ele><time>2026-05-04T17:46:51.001Z</time></trkpt><trkpt lat="41.32392420758983" lon="1.950340069598809"><ele>327.0</ele><time>2026-05-04T17:46:52.001Z</time></trkpt><trkpt lat="41.32381288123168" lon="1.9503514806052045"><ele>327.0</ele><time>2026-05-04T17:46:53.001Z</time></trkpt><trkpt lat="41.32370147525457" lon="1.9503632588261273"><ele>327.0</ele><time>2026-05-04T17:46:54.001Z</time></trkpt><trkpt lat="41.3235936021798" lon="1.9503937882327465"><ele>327.0</ele><time>2026-05-04T17:46:55.001Z</time></trkpt><trkpt lat="41.32348867407822" lon="1.9504330138201336"><ele>327.0</ele><time>2026-05-04T17:46:56.001Z</time></trkpt><trkpt lat="41.32338364663798" lon="1.9504872851088295"><ele>327.0</ele><time>2026-05-04T17:46:57.001Z</time></trkpt><trkpt lat="41.32328096634921" lon="1.9505455382952919"><ele>327.0</ele><time>2026-05-04T17:46:58.001Z</time></trkpt><trkpt lat="41.32317689428674" lon="1.9506077902387386"><ele>327.0</ele><time>2026-05-04T17:46:59.001Z</time></trkpt><trkpt lat="41.32306798214736" lon="1.9506733065080708"><ele>327.0</ele><time>2026-05-04T17:47:00.001Z</time></trkpt><trkpt lat="41.32296254347269" lon="1.9507324984240195"><ele>327.0</ele><time>2026-05-04T17:47:01.001Z</time></trkpt><trkpt lat="41.32285835738843" lon="1.9507822182212624"><ele>329.0</ele><time>2026-05-04T17:47:02.001Z</time></trkpt><trkpt lat="41.32274728287183" lon="1.9508194584143728"><ele>331.0</ele><time>2026-05-04T17:47:03.001Z</time></trkpt><trkpt lat="41.32262917697968" lon="1.9508512326445966"><ele>333.0</ele><time>2026-05-04T17:47:04.001Z</time></trkpt><trkpt lat="41.322522945373144" lon="1.950880994611998"><ele>335.0</ele><time>2026-05-04T17:47:05.001Z</time></trkpt><trkpt lat="41.32240388848864" lon="1.9509070729151414"><ele>334.2</ele><time>2026-05-04T17:47:06.001Z</time></trkpt><trkpt lat="41.32228929293234" lon="1.950918171900071"><ele>333.4</ele><time>2026-05-04T17:47:07.001Z</time></trkpt><trkpt lat="41.32218932350567" lon="1.9509279693302803"><ele>332.6</ele><time>2026-05-04T17:47:08.001Z</time></trkpt><trkpt lat="41.322090245810244" lon="1.9509476238839538"><ele>331.8</ele><time>2026-05-04T17:47:09.001Z</time></trkpt><trkpt lat="41.32198789076313" lon="1.9510048055988258"><ele>331.0</ele><time>2026-05-04T17:47:10.001Z</time></trkpt><trkpt lat="41.32189060440468" lon="1.951080324779998"><ele>331.0</ele><time>2026-05-04T17:47:11.001Z</time></trkpt><trkpt lat="41.32180366408377" lon="1.9511846068454477"><ele>331.0</ele><time>2026-05-04T17:47:12.001Z</time></trkpt><trkpt lat="41.321735860631506" lon="1.9513019354149135"><ele>331.0</ele><time>2026-05-04T17:47:13.001Z</time></trkpt><trkpt lat="41.321698417933035" lon="1.9514349122917836"><ele>331.0</ele><time>2026-05-04T17:47:14.001Z</time></trkpt><trkpt lat="41.321677747231945" lon="1.951580086380844"><ele>331.0</ele><time>2026-05-04T17:47:15.001Z</time></trkpt><trkpt lat="41.321683220051604" lon="1.9517291487916497"><ele>327.2</ele><time>2026-05-04T17:47:16.001Z</time></trkpt><trkpt lat="41.32171775955014" lon="1.9518736892052566"><ele>323.40000000000003</ele><time>2026-05-04T17:47:17.001Z</time></trkpt><trkpt lat="41.321762247817524" lon="1.9520183384848784"><ele>319.6</ele><time>2026-05-04T17:47:18.001Z</time></trkpt><trkpt lat="41.321731313927565" lon="1.9521531750575725"><ele>315.8</ele><time>2026-05-04T17:47:19.001Z</time></trkpt><trkpt lat="41.321660913818945" lon="1.952264489727187"><ele>312.0</ele><time>2026-05-04T17:47:20.001Z</time></trkpt><trkpt lat="41.3215821711669" lon="1.952368392504355"><ele>312.0</ele><time>2026-05-04T17:47:21.001Z</time></trkpt><trkpt lat="41.32149214152024" lon="1.9524673068332565"><ele>312.0</ele><time>2026-05-04T17:47:22.001Z</time></trkpt><trkpt lat="41.32140098509915" lon="1.952570737130433"><ele>312.0</ele><time>2026-05-04T17:47:23.001Z</time></trkpt><trkpt lat="41.32131518201079" lon="1.9526678645830147"><ele>312.0</ele><time>2026-05-04T17:47:24.001Z</time></trkpt><trkpt lat="41.32123784478579" lon="1.9527892648186091"><ele>311.6</ele><time>2026-05-04T17:47:25.001Z</time></trkpt><trkpt lat="41.32119093919666" lon="1.9529117567003316"><ele>311.2</ele><time>2026-05-04T17:47:26.001Z</time></trkpt><trkpt lat="41.321145469517866" lon="1.953045541434779"><ele>310.8</ele><time>2026-05-04T17:47:27.001Z</time></trkpt><trkpt lat="41.32109462521531" lon="1.9531719519131319"><ele>310.4</ele><time>2026-05-04T17:47:28.001Z</time></trkpt><trkpt lat="41.3210493043312" lon="1.9532998389639311"><ele>310.0</ele><time>2026-05-04T17:47:29.001Z</time></trkpt><trkpt lat="41.320982368194855" lon="1.9534067388335363"><ele>304.6</ele><time>2026-05-04T17:47:30.001Z</time></trkpt><trkpt lat="41.32089261510036" lon="1.9534732385538158"><ele>299.2</ele><time>2026-05-04T17:47:31.001Z</time></trkpt><trkpt lat="41.32078482938369" lon="1.953498148007943"><ele>293.8</ele><time>2026-05-04T17:47:32.001Z</time></trkpt><trkpt lat="41.32067656953601" lon="1.9534848577721686"><ele>288.4</ele><time>2026-05-04T17:47:33.001Z</time></trkpt><trkpt lat="41.320559838674775" lon="1.9534765574954356"><ele>283.0</ele><time>2026-05-04T17:47:34.001Z</time></trkpt><trkpt lat="41.320442320937765" lon="1.9534666756172068"><ele>282.0</ele><time>2026-05-04T17:47:35.001Z</time></trkpt><trkpt lat="41.32033419805653" lon="1.9534517946509475"><ele>281.0</ele><time>2026-05-04T17:47:36.001Z</time></trkpt><trkpt lat="41.320228652724026" lon="1.9534258570793774"><ele>280.0</ele><time>2026-05-04T17:47:37.001Z</time></trkpt><trkpt lat="41.32012936867306" lon="1.9533757736237625"><ele>279.0</ele><time>2026-05-04T17:47:38.001Z</time></trkpt><trkpt lat="41.32006179045109" lon="1.9532888000629203"><ele>278.0</ele><time>2026-05-04T17:47:39.001Z</time></trkpt><trkpt lat="41.31998885027646" lon="1.9531783095436734"><ele>282.2</ele><time>2026-05-04T17:47:40.001Z</time></trkpt><trkpt lat="41.319907336084846" lon="1.9530868962313992"><ele>286.4</ele><time>2026-05-04T17:47:41.001Z</time></trkpt><trkpt lat="41.31981444006979" lon="1.9530130972697888"><ele>290.59999999999997</ele><time>2026-05-04T17:47:42.001Z</time></trkpt><trkpt lat="41.31971029816487" lon="1.9529714770113233"><ele>294.8</ele><time>2026-05-04T17:47:43.001Z</time></trkpt><trkpt lat="41.31960633980225" lon="1.9529642027468448"><ele>299.0</ele><time>2026-05-04T17:47:44.001Z</time></trkpt><trkpt lat="41.31949950471459" lon="1.9529782140613223"><ele>300.8</ele><time>2026-05-04T17:47:45.001Z</time></trkpt><trkpt lat="41.31940309754972" lon="1.9530622293620703"><ele>302.59999999999997</ele><time>2026-05-04T17:47:46.001Z</time></trkpt><trkpt lat="41.31936023059191" lon="1.9532135256183973"><ele>304.4</ele><time>2026-05-04T17:47:47.001Z</time></trkpt><trkpt lat="41.31933435352681" lon="1.9533456928421509"><ele>306.2</ele><time>2026-05-04T17:47:48.001Z</time></trkpt><trkpt lat="41.31932183630129" lon="1.9534846108527855"><ele>308.0</ele><time>2026-05-04T17:47:49.001Z</time></trkpt><trkpt lat="41.31930592757048" lon="1.9536284417586707"><ele>308.0</ele><time>2026-05-04T17:47:50.001Z</time></trkpt><trkpt lat="41.31928129343489" lon="1.9537739196230084"><ele>308.0</ele><time>2026-05-04T17:47:51.001Z</time></trkpt><trkpt lat="41.31924941565939" lon="1.9539180813800994"><ele>308.0</ele><time>2026-05-04T17:47:52.001Z</time></trkpt><trkpt lat="41.31923413295897" lon="1.9540585852605077"><ele>308.0</ele><time>2026-05-04T17:47:53Z</time></trkpt><trkpt lat="41.319217199686655" lon="1.9541996503463894"><ele>308.0</ele><time>2026-05-04T17:47:54Z</time></trkpt><trkpt lat="41.31921835438541" lon="1.9543347374109077"><ele>306.0</ele><time>2026-05-04T17:47:55Z</time></trkpt><trkpt lat="41.31924275702012" lon="1.9544652268677805"><ele>304.0</ele><time>2026-05-04T17:47:56Z</time></trkpt><trkpt lat="41.31927155525271" lon="1.9545891026662006"><ele>302.0</ele><time>2026-05-04T17:47:57Z</time></trkpt><trkpt lat="41.31928532036202" lon="1.9547169171877847"><ele>300.0</ele><time>2026-05-04T17:47:58Z</time></trkpt><trkpt lat="41.319265175949965" lon="1.954850013923138"><ele>298.0</ele><time>2026-05-04T17:47:59Z</time></trkpt><trkpt lat="41.31922321836705" lon="1.954981587558198"><ele>297.8</ele><time>2026-05-04T17:48:00Z</time></trkpt><trkpt lat="41.31918661621705" lon="1.9551132310840234"><ele>297.6</ele><time>2026-05-04T17:48:01Z</time></trkpt><trkpt lat="41.31915462563245" lon="1.9552484829571328"><ele>297.4</ele><time>2026-05-04T17:48:02Z</time></trkpt><trkpt lat="41.31915487108867" lon="1.955387284854513"><ele>297.2</ele><time>2026-05-04T17:48:03Z</time></trkpt><trkpt lat="41.319189980407415" lon="1.955519259933767"><ele>297.0</ele><time>2026-05-04T17:48:04Z</time></trkpt><trkpt lat="41.3192389533719" lon="1.9556391186338982"><ele>297.0</ele><time>2026-05-04T17:48:05Z</time></trkpt><trkpt lat="41.319292117899224" lon="1.9557574534628535"><ele>297.0</ele><time>2026-05-04T17:48:06Z</time></trkpt><trkpt lat="41.319343751417215" lon="1.955873218189126"><ele>297.0</ele><time>2026-05-04T17:48:07Z</time></trkpt><trkpt lat="41.31939193519414" lon="1.955995311119393"><ele>297.0</ele><time>2026-05-04T17:48:08Z</time></trkpt><trkpt lat="41.3194350289108" lon="1.9561213469799603"><ele>297.0</ele><time>2026-05-04T17:48:09Z</time></trkpt><trkpt lat="41.31945626996765" lon="1.9562568834207124"><ele>296.0</ele><time>2026-05-04T17:48:10Z</time></trkpt><trkpt lat="41.31945806211422" lon="1.9563926745218325"><ele>295.0</ele><time>2026-05-04T17:48:11Z</time></trkpt><trkpt lat="41.31944108623286" lon="1.9565279884513773"><ele>294.0</ele><time>2026-05-04T17:48:12Z</time></trkpt><trkpt lat="41.31940062202367" lon="1.9566487356182198"><ele>293.0</ele><time>2026-05-04T17:48:13Z</time></trkpt><trkpt lat="41.31930811467279" lon="1.956723755185692"><ele>292.0</ele><time>2026-05-04T17:48:14Z</time></trkpt><trkpt lat="41.31923625799351" lon="1.9568160277641062"><ele>289.6</ele><time>2026-05-04T17:48:15Z</time></trkpt><trkpt lat="41.319171576652025" lon="1.956929420697629"><ele>287.2</ele><time>2026-05-04T17:48:16Z</time></trkpt><trkpt lat="41.31910505455945" lon="1.9570410018550835"><ele>284.8</ele><time>2026-05-04T17:48:17Z</time></trkpt><trkpt lat="41.31906243878866" lon="1.957170819943462"><ele>282.4</ele><time>2026-05-04T17:48:18Z</time></trkpt><trkpt lat="41.319040146953135" lon="1.9573064380536982"><ele>280.0</ele><time>2026-05-04T17:48:19Z</time></trkpt><trkpt lat="41.319039838892174" lon="1.9574501005690572"><ele>278.6</ele><time>2026-05-04T17:48:20Z</time></trkpt><trkpt lat="41.31902496041421" lon="1.9575904549912684"><ele>277.2</ele><time>2026-05-04T17:48:21Z</time></trkpt><trkpt lat="41.3190069182368" lon="1.9577171213955749"><ele>275.8</ele><time>2026-05-04T17:48:22Z</time></trkpt><trkpt lat="41.31898500464151" lon="1.9578347804190612"><ele>274.4</ele><time>2026-05-04T17:48:23Z</time></trkpt><trkpt lat="41.31891974800289" lon="1.9579041714262653"><ele>273.0</ele><time>2026-05-04T17:48:24Z</time></trkpt><trkpt lat="41.31883639789156" lon="1.9579282608634194"><ele>273.1666666666667</ele><time>2026-05-04T17:48:25Z</time></trkpt><trkpt lat="41.31876218652556" lon="1.9578967445574513"><ele>273.3333333333333</ele><time>2026-05-04T17:48:26Z</time></trkpt><trkpt lat="41.318714732532825" lon="1.9578074674177268"><ele>273.5</ele><time>2026-05-04T17:48:27Z</time></trkpt><trkpt lat="41.31866621654176" lon="1.9577239196357434"><ele>273.66666666666663</ele><time>2026-05-04T17:48:28Z</time></trkpt><trkpt lat="41.318608375964345" lon="1.9576429965395667"><ele>273.8333333333333</ele><time>2026-05-04T17:48:29Z</time></trkpt><trkpt lat="41.31857047409555" lon="1.9575369143156707"><ele>274.0</ele><time>2026-05-04T17:48:30Z</time></trkpt><trkpt lat="41.318537453971096" lon="1.957422985168691"><ele>274.0</ele><time>2026-05-04T17:48:31Z</time></trkpt><trkpt lat="41.31850388287968" lon="1.9573046265474443"><ele>274.0</ele><time>2026-05-04T17:48:32Z</time></trkpt><trkpt lat="41.31847861723474" lon="1.9571770634848238"><ele>274.0</ele><time>2026-05-04T17:48:33Z</time></trkpt><trkpt lat="41.318445156827096" lon="1.9570521880571818"><ele>274.0</ele><time>2026-05-04T17:48:34Z</time></trkpt><trkpt lat="41.318395394912294" lon="1.9569356665646065"><ele>274.0</ele><time>2026-05-04T17:48:35Z</time></trkpt><trkpt lat="41.31833227738219" lon="1.956826462415882"><ele>274.0</ele><time>2026-05-04T17:48:36Z</time></trkpt><trkpt lat="41.31826182560876" lon="1.956721031234278"><ele>274.0</ele><time>2026-05-04T17:48:37Z</time></trkpt><trkpt lat="41.31819024706538" lon="1.9566169415173265"><ele>274.0</ele><time>2026-05-04T17:48:38Z</time></trkpt><trkpt lat="41.318117671989775" lon="1.9565139920577366"><ele>274.0</ele><time>2026-05-04T17:48:39Z</time></trkpt><trkpt lat="41.318042513074694" lon="1.9564154413969148"><ele>274.0</ele><time>2026-05-04T17:48:40Z</time></trkpt><trkpt lat="41.317960765005736" lon="1.956328339661978"><ele>275.4</ele><time>2026-05-04T17:48:41Z</time></trkpt><trkpt lat="41.31787869552874" lon="1.9562431740904718"><ele>276.79999999999995</ele><time>2026-05-04T17:48:42Z</time></trkpt><trkpt lat="41.31780444033171" lon="1.9561414549554674"><ele>278.20000000000005</ele><time>2026-05-04T17:48:43Z</time></trkpt><trkpt lat="41.31776098211881" lon="1.9560105122640996"><ele>279.6</ele><time>2026-05-04T17:48:44Z</time></trkpt><trkpt lat="41.31769899818637" lon="1.9558985036088292"><ele>281.0</ele><time>2026-05-04T17:48:45Z</time></trkpt><trkpt lat="41.31763992601513" lon="1.9557886870051582"><ele>281.0</ele><time>2026-05-04T17:48:46Z</time></trkpt><trkpt lat="41.317566286698714" lon="1.9556983694472723"><ele>281.0</ele><time>2026-05-04T17:48:47Z</time></trkpt><trkpt lat="41.31748505350568" lon="1.9556052387694434"><ele>281.0</ele><time>2026-05-04T17:48:48Z</time></trkpt><trkpt lat="41.31740772685889" lon="1.9555061243383838"><ele>281.0</ele><time>2026-05-04T17:48:49Z</time></trkpt><trkpt lat="41.31731679300092" lon="1.9554323197214063"><ele>281.0</ele><time>2026-05-04T17:48:50.001Z</time></trkpt><trkpt lat="41.317232641413675" lon="1.9553617242028745"><ele>282.2</ele><time>2026-05-04T17:48:51.001Z</time></trkpt><trkpt lat="41.317152703102195" lon="1.9552828195679577"><ele>283.40000000000003</ele><time>2026-05-04T17:48:52.001Z</time></trkpt><trkpt lat="41.31709333302863" lon="1.9551613987797365"><ele>284.6</ele><time>2026-05-04T17:48:53.001Z</time></trkpt><trkpt lat="41.31703929408462" lon="1.9550712006858537"><ele>285.8</ele><time>2026-05-04T17:48:54.001Z</time></trkpt><trkpt lat="41.31698480466559" lon="1.9549744714449095"><ele>287.0</ele><time>2026-05-04T17:48:55.001Z</time></trkpt><trkpt lat="41.31691901670019" lon="1.9548973477867617"><ele>287.0</ele><time>2026-05-04T17:48:56.001Z</time></trkpt><trkpt lat="41.31684776165876" lon="1.9548426718467982"><ele>287.0</ele><time>2026-05-04T17:48:57.001Z</time></trkpt><trkpt lat="41.316769589513235" lon="1.9548253901151769"><ele>287.0</ele><time>2026-05-04T17:48:58.001Z</time></trkpt><trkpt lat="41.31670545461939" lon="1.9548302334392076"><ele>287.0</ele><time>2026-05-04T17:48:59.001Z</time></trkpt><trkpt lat="41.31663550267898" lon="1.9549122410326107"><ele>287.0</ele><time>2026-05-04T17:49:00.001Z</time></trkpt><trkpt lat="41.316583303808535" lon="1.9550122684773799"><ele>287.0</ele><time>2026-05-04T17:49:01.001Z</time></trkpt><trkpt lat="41.316518755631996" lon="1.9551254700239202"><ele>289.0</ele><time>2026-05-04T17:49:02.001Z</time></trkpt><trkpt lat="41.31648761384566" lon="1.9552513122652586"><ele>291.0</ele><time>2026-05-04T17:49:03.001Z</time></trkpt><trkpt lat="41.316440442381456" lon="1.9553748864776324"><ele>293.0</ele><time>2026-05-04T17:49:04.001Z</time></trkpt><trkpt lat="41.31639276545527" lon="1.9555068504085595"><ele>295.0</ele><time>2026-05-04T17:49:05.001Z</time></trkpt><trkpt lat="41.316338530923716" lon="1.9556390571660216"><ele>297.0</ele><time>2026-05-04T17:49:06.001Z</time></trkpt><trkpt lat="41.31631193109497" lon="1.9557835962165906"><ele>293.4</ele><time>2026-05-04T17:49:07.001Z</time></trkpt><trkpt lat="41.31628706733988" lon="1.955918896222364"><ele>289.79999999999995</ele><time>2026-05-04T17:49:08.001Z</time></trkpt><trkpt lat="41.31625060715584" lon="1.9560524865449491"><ele>286.2</ele><time>2026-05-04T17:49:09.001Z</time></trkpt><trkpt lat="41.31620474326981" lon="1.9561857143446708"><ele>282.59999999999997</ele><time>2026-05-04T17:49:10.001Z</time></trkpt><trkpt lat="41.316152357199385" lon="1.9563155024593415"><ele>279.0</ele><time>2026-05-04T17:49:11.001Z</time></trkpt><trkpt lat="41.31609199092632" lon="1.9564428980274673"><ele>279.0</ele><time>2026-05-04T17:49:12.001Z</time></trkpt><trkpt lat="41.316028210196514" lon="1.9565629786861345"><ele>279.0</ele><time>2026-05-04T17:49:13.001Z</time></trkpt><trkpt lat="41.31596764648483" lon="1.9566841788577762"><ele>279.0</ele><time>2026-05-04T17:49:14.001Z</time></trkpt><trkpt lat="41.31590356584707" lon="1.9568018231994329"><ele>279.0</ele><time>2026-05-04T17:49:15.001Z</time></trkpt><trkpt lat="41.315846706235355" lon="1.9569204685764479"><ele>279.0</ele><time>2026-05-04T17:49:16.001Z</time></trkpt><trkpt lat="41.31578501103392" lon="1.957037810012251"><ele>275.8</ele><time>2026-05-04T17:49:17.001Z</time></trkpt><trkpt lat="41.31572755901182" lon="1.9571559263736173"><ele>272.59999999999997</ele><time>2026-05-04T17:49:18.001Z</time></trkpt><trkpt lat="41.31566209797629" lon="1.9572824202630026"><ele>269.4</ele><time>2026-05-04T17:49:19.001Z</time></trkpt><trkpt lat="41.31561283162866" lon="1.9574203459059352"><ele>266.2</ele><time>2026-05-04T17:49:20.001Z</time></trkpt><trkpt lat="41.31558652989562" lon="1.9575620204484379"><ele>263.0</ele><time>2026-05-04T17:49:21.001Z</time></trkpt><trkpt lat="41.315587175577576" lon="1.9577071223076432"><ele>262.2</ele><time>2026-05-04T17:49:22.001Z</time></trkpt><trkpt lat="41.315602441934594" lon="1.9578493770410146"><ele>261.4</ele><time>2026-05-04T17:49:23.001Z</time></trkpt><trkpt lat="41.31564321136753" lon="1.95798226334492"><ele>260.59999999999997</ele><time>2026-05-04T17:49:24.001Z</time></trkpt><trkpt lat="41.31569343299358" lon="1.9580997716827626"><ele>259.8</ele><time>2026-05-04T17:49:25.001Z</time></trkpt><trkpt lat="41.315755205896714" lon="1.9582042284624754"><ele>259.0</ele><time>2026-05-04T17:49:26.001Z</time></trkpt><trkpt lat="41.3158021165867" lon="1.9583247981120229"><ele>258.0</ele><time>2026-05-04T17:49:27.001Z</time></trkpt><trkpt lat="41.31582611535482" lon="1.9584742573994949"><ele>257.0</ele><time>2026-05-04T17:49:28.001Z</time></trkpt><trkpt lat="41.3157958123095" lon="1.9586196880313418"><ele>256.0</ele><time>2026-05-04T17:49:29.001Z</time></trkpt><trkpt lat="41.31577874877807" lon="1.9587650349794614"><ele>255.0</ele><time>2026-05-04T17:49:30.001Z</time></trkpt><trkpt lat="41.31576596869176" lon="1.9589142930324714"><ele>255.0</ele><time>2026-05-04T17:49:31.001Z</time></trkpt><trkpt lat="41.315745398232735" lon="1.9590576633223622"><ele>255.0</ele><time>2026-05-04T17:49:32.001Z</time></trkpt><trkpt lat="41.31573195382898" lon="1.959201550166211"><ele>255.0</ele><time>2026-05-04T17:49:33.001Z</time></trkpt><trkpt lat="41.31571425189516" lon="1.9593364084348175"><ele>255.0</ele><time>2026-05-04T17:49:34.001Z</time></trkpt><trkpt lat="41.31567900197028" lon="1.9594596581550223"><ele>255.0</ele><time>2026-05-04T17:49:35.001Z</time></trkpt><trkpt lat="41.315630233229946" lon="1.9595718436411431"><ele>255.6</ele><time>2026-05-04T17:49:36.001Z</time></trkpt><trkpt lat="41.31554617281659" lon="1.9596306382056756"><ele>256.2</ele><time>2026-05-04T17:49:37.001Z</time></trkpt><trkpt lat="41.31545022513635" lon="1.959684665656109"><ele>256.8</ele><time>2026-05-04T17:49:38.001Z</time></trkpt><trkpt lat="41.31534842536129" lon="1.959723840788014"><ele>257.4</ele><time>2026-05-04T17:49:39.001Z</time></trkpt><trkpt lat="41.31525864197518" lon="1.959813634812452"><ele>258.0</ele><time>2026-05-04T17:49:40.001Z</time></trkpt><trkpt lat="41.31516201198788" lon="1.9599088275847472"><ele>255.4</ele><time>2026-05-04T17:49:41.001Z</time></trkpt><trkpt lat="41.3151167742678" lon="1.9600438063851204"><ele>252.8</ele><time>2026-05-04T17:49:42.001Z</time></trkpt><trkpt lat="41.315072470599226" lon="1.960175700197615"><ele>250.2</ele><time>2026-05-04T17:49:43.001Z</time></trkpt><trkpt lat="41.31502950831568" lon="1.960321322656721"><ele>247.6</ele><time>2026-05-04T17:49:44.001Z</time></trkpt><trkpt lat="41.31498579391765" lon="1.9604235794877403"><ele>245.0</ele><time>2026-05-04T17:49:45.001Z</time></trkpt><trkpt lat="41.31493706675904" lon="1.960563071219253"><ele>245.0</ele><time>2026-05-04T17:49:46.001Z</time></trkpt><trkpt lat="41.31487804346245" lon="1.9606974036839975"><ele>245.0</ele><time>2026-05-04T17:49:47.001Z</time></trkpt><trkpt lat="41.314831363492544" lon="1.9608282957323997"><ele>245.0</ele><time>2026-05-04T17:49:48.001Z</time></trkpt><trkpt lat="41.314797356029885" lon="1.9609541127312342"><ele>245.0</ele><time>2026-05-04T17:49:49.001Z</time></trkpt><trkpt lat="41.31478482265499" lon="1.9610669705029387"><ele>245.0</ele><time>2026-05-04T17:49:50.001Z</time></trkpt><trkpt lat="41.314777116908616" lon="1.9611611247892697"><ele>245.33333333333334</ele><time>2026-05-04T17:49:51.001Z</time></trkpt><trkpt lat="41.314795533989816" lon="1.9612443527954473"><ele>245.66666666666669</ele><time>2026-05-04T17:49:52.001Z</time></trkpt><trkpt lat="41.31516521401604" lon="1.9613268658071317"><ele>246.0</ele><time>2026-05-04T17:49:53.001Z</time></trkpt><trkpt lat="41.3147482118665" lon="1.9617261415552834"><ele>246.0</ele><time>2026-05-04T17:49:54.001Z</time></trkpt><trkpt lat="41.314745967063985" lon="1.9618760581357806"><ele>246.00000000000003</ele><time>2026-05-04T17:49:55.001Z</time></trkpt><trkpt lat="41.314732184948" lon="1.9620258212790187"><ele>246.00000000000003</ele><time>2026-05-04T17:49:56.001Z</time></trkpt><trkpt lat="41.314723338868596" lon="1.9621727076479132"><ele>246.0</ele><time>2026-05-04T17:49:57.001Z</time></trkpt><trkpt lat="41.31471917708553" lon="1.9623228193482196"><ele>246.0</ele><time>2026-05-04T17:49:58.001Z</time></trkpt><trkpt lat="41.3147181742062" lon="1.9624674436325495"><ele>246.20000000000002</ele><time>2026-05-04T17:49:59Z</time></trkpt><trkpt lat="41.31471152265573" lon="1.9626119836929439"><ele>246.40000000000003</ele><time>2026-05-04T17:50:00Z</time></trkpt><trkpt lat="41.31470026547137" lon="1.962755458190051"><ele>246.6</ele><time>2026-05-04T17:50:01Z</time></trkpt><trkpt lat="41.314704527663935" lon="1.9628986771115784"><ele>246.8</ele><time>2026-05-04T17:50:02Z</time></trkpt><trkpt lat="41.31473778833039" lon="1.9630351585296268"><ele>247.0</ele><time>2026-05-04T17:50:03Z</time></trkpt><trkpt lat="41.31475751484989" lon="1.9631666169805104"><ele>247.0</ele><time>2026-05-04T17:50:04Z</time></trkpt><trkpt lat="41.31477864607142" lon="1.96330174124159"><ele>247.0</ele><time>2026-05-04T17:50:05Z</time></trkpt><trkpt lat="41.314771836159316" lon="1.9634480181616079"><ele>247.0</ele><time>2026-05-04T17:50:06Z</time></trkpt><trkpt lat="41.31476623674883" lon="1.9636035091740793"><ele>247.0</ele><time>2026-05-04T17:50:07Z</time></trkpt><trkpt lat="41.31474193208905" lon="1.9637510056349299"><ele>247.0</ele><time>2026-05-04T17:50:08Z</time></trkpt><trkpt lat="41.31471471780721" lon="1.9638887353136338"><ele>239.6</ele><time>2026-05-04T17:50:09Z</time></trkpt><trkpt lat="41.31469382005185" lon="1.9640402599421403"><ele>232.2</ele><time>2026-05-04T17:50:10Z</time></trkpt><trkpt lat="41.314663154433426" lon="1.9641827718158447"><ele>224.8</ele><time>2026-05-04T17:50:11Z</time></trkpt><trkpt lat="41.31463152977034" lon="1.9643183284264816"><ele>217.4</ele><time>2026-05-04T17:50:12Z</time></trkpt><trkpt lat="41.314617376727924" lon="1.9644602497770132"><ele>210.0</ele><time>2026-05-04T17:50:13Z</time></trkpt><trkpt lat="41.31460762951496" lon="1.964604918278184"><ele>210.0</ele><time>2026-05-04T17:50:14Z</time></trkpt><trkpt lat="41.31461362417614" lon="1.9647408614811241"><ele>210.0</ele><time>2026-05-04T17:50:15Z</time></trkpt><trkpt lat="41.31463480094849" lon="1.9648648595093106"><ele>210.0</ele><time>2026-05-04T17:50:16Z</time></trkpt><trkpt lat="41.3146648309924" lon="1.9649878174361013"><ele>210.0</ele><time>2026-05-04T17:50:17Z</time></trkpt><trkpt lat="41.314671285981824" lon="1.965102904003544"><ele>210.0</ele><time>2026-05-04T17:50:18Z</time></trkpt><trkpt lat="41.31465349828799" lon="1.9652255246692287"><ele>212.0</ele><time>2026-05-04T17:50:19Z</time></trkpt><trkpt lat="41.31461116276483" lon="1.965343629976653"><ele>214.0</ele><time>2026-05-04T17:50:20Z</time></trkpt><trkpt lat="41.314551491112795" lon="1.9654552698956589"><ele>216.0</ele><time>2026-05-04T17:50:21Z</time></trkpt><trkpt lat="41.314480949785754" lon="1.9655598559829133"><ele>218.0</ele><time>2026-05-04T17:50:22Z</time></trkpt><trkpt lat="41.31440603688307" lon="1.965670194548888"><ele>220.0</ele><time>2026-05-04T17:50:23Z</time></trkpt><trkpt lat="41.314338688278745" lon="1.9657927597351057"><ele>222.0</ele><time>2026-05-04T17:50:24Z</time></trkpt><trkpt lat="41.31426153789277" lon="1.965899420573833"><ele>224.0</ele><time>2026-05-04T17:50:25Z</time></trkpt><trkpt lat="41.314186411047665" lon="1.9660007724908453"><ele>226.0</ele><time>2026-05-04T17:50:26Z</time></trkpt><trkpt lat="41.31411192464636" lon="1.9661060632699983"><ele>228.0</ele><time>2026-05-04T17:50:27Z</time></trkpt><trkpt lat="41.314037500239685" lon="1.9662087342518135"><ele>230.0</ele><time>2026-05-04T17:50:28Z</time></trkpt><trkpt lat="41.31397065677247" lon="1.9663133094843372"><ele>225.6</ele><time>2026-05-04T17:50:29Z</time></trkpt><trkpt lat="41.31390381514094" lon="1.9664135578131012"><ele>221.2</ele><time>2026-05-04T17:50:30Z</time></trkpt><trkpt lat="41.31383973818248" lon="1.9665113093524496"><ele>216.8</ele><time>2026-05-04T17:50:31Z</time></trkpt><trkpt lat="41.313781539080324" lon="1.9666179158491741"><ele>212.4</ele><time>2026-05-04T17:50:32Z</time></trkpt><trkpt lat="41.31373708419726" lon="1.9667425661171543"><ele>208.0</ele><time>2026-05-04T17:50:33Z</time></trkpt><trkpt lat="41.31369922893893" lon="1.9668789563388578"><ele>208.0</ele><time>2026-05-04T17:50:34Z</time></trkpt><trkpt lat="41.31367555890405" lon="1.9670199107275939"><ele>208.0</ele><time>2026-05-04T17:50:35Z</time></trkpt><trkpt lat="41.31364940818264" lon="1.9671636307040845"><ele>208.0</ele><time>2026-05-04T17:50:36Z</time></trkpt><trkpt lat="41.313646406536" lon="1.9673111844424522"><ele>208.0</ele><time>2026-05-04T17:50:37Z</time></trkpt><trkpt lat="41.31365608870476" lon="1.9674586838478734"><ele>208.0</ele><time>2026-05-04T17:50:38Z</time></trkpt><trkpt lat="41.31366751046697" lon="1.9676076261325246"><ele>206.75</ele><time>2026-05-04T17:50:39Z</time></trkpt><trkpt lat="41.31366857835407" lon="1.96775781499777"><ele>205.5</ele><time>2026-05-04T17:50:40Z</time></trkpt><trkpt lat="41.31365957352594" lon="1.9679107154865536"><ele>204.25</ele><time>2026-05-04T17:50:41Z</time></trkpt><trkpt lat="41.31362992200705" lon="1.9680632779833442"><ele>203.0</ele><time>2026-05-04T17:50:42Z</time></trkpt><trkpt lat="41.313572848395545" lon="1.9681975468809867"><ele>203.0</ele><time>2026-05-04T17:50:43Z</time></trkpt><trkpt lat="41.31351864167254" lon="1.9683371570575547"><ele>203.0</ele><time>2026-05-04T17:50:44Z</time></trkpt><trkpt lat="41.313474403862095" lon="1.9684789127963018"><ele>203.0</ele><time>2026-05-04T17:50:45Z</time></trkpt><trkpt lat="41.313421915724184" lon="1.968613320267835"><ele>203.0</ele><time>2026-05-04T17:50:46Z</time></trkpt><trkpt lat="41.31336233264" lon="1.968750086292773"><ele>200.75</ele><time>2026-05-04T17:50:47Z</time></trkpt><trkpt lat="41.31331140405864" lon="1.9688956373408482"><ele>198.5</ele><time>2026-05-04T17:50:48Z</time></trkpt><trkpt lat="41.31323933418077" lon="1.9690366039635652"><ele>196.25</ele><time>2026-05-04T17:50:49Z</time></trkpt><trkpt lat="41.31318878648193" lon="1.9691848087939499"><ele>194.0</ele><time>2026-05-04T17:50:50Z</time></trkpt><trkpt lat="41.31312801742894" lon="1.9693317405694024"><ele>192.0</ele><time>2026-05-04T17:50:51Z</time></trkpt><trkpt lat="41.31306108034218" lon="1.9694814144295796"><ele>190.0</ele><time>2026-05-04T17:50:52Z</time></trkpt><trkpt lat="41.31300390942361" lon="1.9696274055857428"><ele>188.0</ele><time>2026-05-04T17:50:53Z</time></trkpt><trkpt lat="41.31294746222834" lon="1.9697705072216916"><ele>186.0</ele><time>2026-05-04T17:50:54Z</time></trkpt><trkpt lat="41.31287868490652" lon="1.9699129953967556"><ele>185.75</ele><time>2026-05-04T17:50:55.001Z</time></trkpt><trkpt lat="41.31282203847633" lon="1.9700528305965077"><ele>185.5</ele><time>2026-05-04T17:50:56.001Z</time></trkpt><trkpt lat="41.31276932150556" lon="1.9701949439718691"><ele>185.25</ele><time>2026-05-04T17:50:57.001Z</time></trkpt><trkpt lat="41.312712526180135" lon="1.9703361591490338"><ele>185.0</ele><time>2026-05-04T17:50:58.001Z</time></trkpt><trkpt lat="41.31265630103641" lon="1.9704727297381572"><ele>185.0</ele><time>2026-05-04T17:50:59.001Z</time></trkpt><trkpt lat="41.31259704661348" lon="1.9706102714863405"><ele>185.0</ele><time>2026-05-04T17:51:00.001Z</time></trkpt><trkpt lat="41.31253523669764" lon="1.970747904841103"><ele>185.0</ele><time>2026-05-04T17:51:01.001Z</time></trkpt><trkpt lat="41.31247471846529" lon="1.970892450397835"><ele>185.0</ele><time>2026-05-04T17:51:02.001Z</time></trkpt><trkpt lat="41.312412095125524" lon="1.9710183618491586"><ele>185.0</ele><time>2026-05-04T17:51:03.001Z</time></trkpt><trkpt lat="41.31234889852297" lon="1.9711511987588406"><ele>185.0</ele><time>2026-05-04T17:51:04.001Z</time></trkpt><trkpt lat="41.312287229703465" lon="1.9713015118712103"><ele>185.0</ele><time>2026-05-04T17:51:05.001Z</time></trkpt><trkpt lat="41.31222308513168" lon="1.9714256866508229"><ele>185.0</ele><time>2026-05-04T17:51:06.001Z</time></trkpt><trkpt lat="41.31216845894189" lon="1.971559817970862"><ele>181.25</ele><time>2026-05-04T17:51:07.001Z</time></trkpt><trkpt lat="41.31210561525175" lon="1.971696315071718"><ele>177.5</ele><time>2026-05-04T17:51:08.001Z</time></trkpt><trkpt lat="41.312047084496676" lon="1.971829436923274"><ele>173.75</ele><time>2026-05-04T17:51:09.001Z</time></trkpt><trkpt lat="41.31199483270475" lon="1.9719673033010887"><ele>170.0</ele><time>2026-05-04T17:51:10.001Z</time></trkpt><trkpt lat="41.31194512422774" lon="1.9721056661619671"><ele>170.0</ele><time>2026-05-04T17:51:11.001Z</time></trkpt><trkpt lat="41.31190629171715" lon="1.9722488385690002"><ele>170.0</ele><time>2026-05-04T17:51:12.001Z</time></trkpt><trkpt lat="41.31185709663122" lon="1.9723955813726302"><ele>170.0</ele><time>2026-05-04T17:51:13.001Z</time></trkpt><trkpt lat="41.31181313307324" lon="1.9725290835847717"><ele>170.0</ele><time>2026-05-04T17:51:14.001Z</time></trkpt><trkpt lat="41.31175392978117" lon="1.972647038939467"><ele>171.8</ele><time>2026-05-04T17:51:15.001Z</time></trkpt><trkpt lat="41.311674330375595" lon="1.9727452985600757"><ele>173.6</ele><time>2026-05-04T17:51:16.001Z</time></trkpt><trkpt lat="41.311571419236" lon="1.9728180450179618"><ele>175.39999999999998</ele><time>2026-05-04T17:51:17.001Z</time></trkpt><trkpt lat="41.311467973582516" lon="1.9728602765365513"><ele>177.2</ele><time>2026-05-04T17:51:18.001Z</time></trkpt><trkpt lat="41.311391964898064" lon="1.9729176965911195"><ele>179.0</ele><time>2026-05-04T17:51:19.001Z</time></trkpt><trkpt lat="41.31132988782944" lon="1.9730107143375408"><ele>172.75</ele><time>2026-05-04T17:51:20.001Z</time></trkpt><trkpt lat="41.31126881202306" lon="1.9731427951601428"><ele>166.5</ele><time>2026-05-04T17:51:21.001Z</time></trkpt><trkpt lat="41.31124082707909" lon="1.9732924734421868"><ele>160.25</ele><time>2026-05-04T17:51:22.001Z</time></trkpt><trkpt lat="41.311214067333864" lon="1.9734386624757023"><ele>154.0</ele><time>2026-05-04T17:51:23.001Z</time></trkpt><trkpt lat="41.31117960020224" lon="1.9735970243713539"><ele>154.0</ele><time>2026-05-04T17:51:24.001Z</time></trkpt><trkpt lat="41.31115559341851" lon="1.9737523624802"><ele>154.0</ele><time>2026-05-04T17:51:25.001Z</time></trkpt><trkpt lat="41.31112586864636" lon="1.97392437165024"><ele>154.0</ele><time>2026-05-04T17:51:26.001Z</time></trkpt><trkpt lat="41.31111353370003" lon="1.9740405522256506"><ele>154.0</ele><time>2026-05-04T17:51:27.001Z</time></trkpt><trkpt lat="41.3110799739392" lon="1.9741945435513857"><ele>156.75</ele><time>2026-05-04T17:51:28.001Z</time></trkpt><trkpt lat="41.311055052373064" lon="1.974339273747892"><ele>159.5</ele><time>2026-05-04T17:51:29.001Z</time></trkpt><trkpt lat="41.311030213779674" lon="1.9744905282108047"><ele>162.25</ele><time>2026-05-04T17:51:30.001Z</time></trkpt><trkpt lat="41.31099375301418" lon="1.9746263352541567"><ele>165.0</ele><time>2026-05-04T17:51:31.001Z</time></trkpt><trkpt lat="41.310948430126736" lon="1.97476822646819"><ele>165.0</ele><time>2026-05-04T17:51:32.001Z</time></trkpt><trkpt lat="41.31088198806857" lon="1.9748947340838723"><ele>165.0</ele><time>2026-05-04T17:51:33.001Z</time></trkpt><trkpt lat="41.31078579142705" lon="1.974980803695446"><ele>165.0</ele><time>2026-05-04T17:51:34.001Z</time></trkpt><trkpt lat="41.31069038138488" lon="1.9750533156675698"><ele>165.0</ele><time>2026-05-04T17:51:35.001Z</time></trkpt><trkpt lat="41.310592323995344" lon="1.9751341428142164"><ele>163.0</ele><time>2026-05-04T17:51:36.001Z</time></trkpt><trkpt lat="41.31048171825128" lon="1.9751829168122672"><ele>161.0</ele><time>2026-05-04T17:51:37.001Z</time></trkpt><trkpt lat="41.310375119838845" lon="1.9752576523623793"><ele>159.0</ele><time>2026-05-04T17:51:38.001Z</time></trkpt><trkpt lat="41.31028056613927" lon="1.9753329063130334"><ele>157.0</ele><time>2026-05-04T17:51:39.001Z</time></trkpt><trkpt lat="41.310204178666446" lon="1.9753939296660905"><ele>155.0</ele><time>2026-05-04T17:51:40.001Z</time></trkpt><trkpt lat="41.310078228961466" lon="1.9755857079464145"><ele>155.0</ele><time>2026-05-04T17:51:42.001Z</time></trkpt><trkpt lat="41.30998943645859" lon="1.9757882812543561"><ele>155.0</ele><time>2026-05-04T17:51:43.001Z</time></trkpt><trkpt lat="41.30989542818526" lon="1.9759899708789905"><ele>155.0</ele><time>2026-05-04T17:51:44.001Z</time></trkpt><trkpt lat="41.309823184767865" lon="1.9761757764700396"><ele>154.0</ele><time>2026-05-04T17:51:45.001Z</time></trkpt><trkpt lat="41.3098149811818" lon="1.9763033398631484"><ele>153.0</ele><time>2026-05-04T17:51:46.001Z</time></trkpt><trkpt lat="41.30981573648571" lon="1.9764291375741592"><ele>152.0</ele><time>2026-05-04T17:51:47.001Z</time></trkpt><trkpt lat="41.30978254778798" lon="1.976590023296867"><ele>151.0</ele><time>2026-05-04T17:51:48.001Z</time></trkpt><trkpt lat="41.309754469429" lon="1.976747058044222"><ele>150.0</ele><time>2026-05-04T17:51:49.001Z</time></trkpt><trkpt lat="41.309725360939844" lon="1.976902988122621"><ele>144.5</ele><time>2026-05-04T17:51:50.001Z</time></trkpt><trkpt lat="41.309693319053885" lon="1.9770625215506452"><ele>139.0</ele><time>2026-05-04T17:51:51.001Z</time></trkpt><trkpt lat="41.30965420089617" lon="1.9772252827345793"><ele>133.5</ele><time>2026-05-04T17:51:52.001Z</time></trkpt><trkpt lat="41.30961457064618" lon="1.9773819753947695"><ele>128.0</ele><time>2026-05-04T17:51:53.001Z</time></trkpt><trkpt lat="41.30957701135155" lon="1.9775392408823556"><ele>127.25</ele><time>2026-05-04T17:51:54.001Z</time></trkpt><trkpt lat="41.30954201801647" lon="1.9776977008187253"><ele>126.5</ele><time>2026-05-04T17:51:55.001Z</time></trkpt><trkpt lat="41.30950849708241" lon="1.9778576551845903"><ele>125.75</ele><time>2026-05-04T17:51:56.001Z</time></trkpt><trkpt lat="41.3094708518482" lon="1.9780159485913043"><ele>125.0</ele><time>2026-05-04T17:51:57.001Z</time></trkpt><trkpt lat="41.30943600161528" lon="1.9781742011328285"><ele>125.0</ele><time>2026-05-04T17:51:58.001Z</time></trkpt><trkpt lat="41.30940212692092" lon="1.9783324844249721"><ele>125.0</ele><time>2026-05-04T17:51:59.001Z</time></trkpt><trkpt lat="41.309368801525814" lon="1.978490000238848"><ele>125.0</ele><time>2026-05-04T17:52:00.001Z</time></trkpt><trkpt lat="41.30932933256278" lon="1.978647245971931"><ele>125.0</ele><time>2026-05-04T17:52:01.001Z</time></trkpt><trkpt lat="41.30929672943703" lon="1.9788053937061565"><ele>125.0</ele><time>2026-05-04T17:52:02.001Z</time></trkpt><trkpt lat="41.309291847605095" lon="1.9789643101288106"><ele>125.0</ele><time>2026-05-04T17:52:03.001Z</time></trkpt><trkpt lat="41.30928925581901" lon="1.9791385233116203"><ele>125.0</ele><time>2026-05-04T17:52:04.001Z</time></trkpt><trkpt lat="41.30931282410242" lon="1.9793222105700914"><ele>125.0</ele><time>2026-05-04T17:52:05Z</time></trkpt><trkpt lat="41.309331226463634" lon="1.9794543267446856"><ele>125.6</ele><time>2026-05-04T17:52:06Z</time></trkpt><trkpt lat="41.30933022369679" lon="1.9796043342816563"><ele>126.2</ele><time>2026-05-04T17:52:07Z</time></trkpt><trkpt lat="41.30933881996778" lon="1.979757083700255"><ele>126.80000000000001</ele><time>2026-05-04T17:52:08Z</time></trkpt><trkpt lat="41.30931633291837" lon="1.979884917042917"><ele>127.4</ele><time>2026-05-04T17:52:09Z</time></trkpt><trkpt lat="41.30927305514844" lon="1.980010828935443"><ele>128.0</ele><time>2026-05-04T17:52:10Z</time></trkpt><trkpt lat="41.3091903892404" lon="1.9801183366695514"><ele>129.75</ele><time>2026-05-04T17:52:11Z</time></trkpt><trkpt lat="41.30909643143783" lon="1.9801968111998742"><ele>131.5</ele><time>2026-05-04T17:52:12Z</time></trkpt><trkpt lat="41.30900163306298" lon="1.980288101545466"><ele>133.25</ele><time>2026-05-04T17:52:13Z</time></trkpt><trkpt lat="41.30889413774102" lon="1.9803575823642863"><ele>135.0</ele><time>2026-05-04T17:52:14Z</time></trkpt><trkpt lat="41.30881274843161" lon="1.9804699136836212"><ele>130.8</ele><time>2026-05-04T17:52:15Z</time></trkpt><trkpt lat="41.30875034817385" lon="1.9805825930742411"><ele>126.6</ele><time>2026-05-04T17:52:16Z</time></trkpt><trkpt lat="41.308693448788304" lon="1.9806980785323482"><ele>122.4</ele><time>2026-05-04T17:52:17Z</time></trkpt><trkpt lat="41.30867675410093" lon="1.9808444662812679"><ele>118.2</ele><time>2026-05-04T17:52:18Z</time></trkpt><trkpt lat="41.30869076756407" lon="1.980987832708076"><ele>114.0</ele><time>2026-05-04T17:52:19Z</time></trkpt><trkpt lat="41.30874652904478" lon="1.981117979596987"><ele>114.0</ele><time>2026-05-04T17:52:20Z</time></trkpt><trkpt lat="41.30879018524479" lon="1.981247468697729"><ele>114.0</ele><time>2026-05-04T17:52:21Z</time></trkpt><trkpt lat="41.3087759103769" lon="1.9813813790771841"><ele>114.0</ele><time>2026-05-04T17:52:22Z</time></trkpt><trkpt lat="41.30873423546393" lon="1.9815035106542187"><ele>114.0</ele><time>2026-05-04T17:52:23Z</time></trkpt><trkpt lat="41.30865753083397" lon="1.9815895645686619"><ele>114.0</ele><time>2026-05-04T17:52:24Z</time></trkpt><trkpt lat="41.30856267336252" lon="1.9816743394102905"><ele>113.2</ele><time>2026-05-04T17:52:25Z</time></trkpt><trkpt lat="41.308480990594674" lon="1.981758682825977"><ele>112.4</ele><time>2026-05-04T17:52:26Z</time></trkpt><trkpt lat="41.308416452087585" lon="1.981866228220709"><ele>111.6</ele><time>2026-05-04T17:52:27Z</time></trkpt><trkpt lat="41.30836727583203" lon="1.9819774964803085"><ele>110.8</ele><time>2026-05-04T17:52:28Z</time></trkpt><trkpt lat="41.30831678021296" lon="1.9820945502788823"><ele>110.0</ele><time>2026-05-04T17:52:29Z</time></trkpt><trkpt lat="41.30830711384949" lon="1.982225970040771"><ele>110.0</ele><time>2026-05-04T17:52:30Z</time></trkpt><trkpt lat="41.30834569361154" lon="1.9823489174298048"><ele>110.0</ele><time>2026-05-04T17:52:31Z</time></trkpt><trkpt lat="41.308393816660335" lon="1.9824519023377056"><ele>110.0</ele><time>2026-05-04T17:52:32Z</time></trkpt><trkpt lat="41.30846606574175" lon="1.982539590437761"><ele>110.0</ele><time>2026-05-04T17:52:33Z</time></trkpt><trkpt lat="41.30855361179421" lon="1.9826212054536008"><ele>110.0</ele><time>2026-05-04T17:52:34Z</time></trkpt><trkpt lat="41.308636331842294" lon="1.9827071925369082"><ele>110.16666666666666</ele><time>2026-05-04T17:52:35Z</time></trkpt><trkpt lat="41.308706317670584" lon="1.9827979047213315"><ele>110.33333333333333</ele><time>2026-05-04T17:52:36Z</time></trkpt><trkpt lat="41.30875689734936" lon="1.9828973839655881"><ele>110.5</ele><time>2026-05-04T17:52:37Z</time></trkpt><trkpt lat="41.30878621921709" lon="1.983005558589383"><ele>110.66666666666666</ele><time>2026-05-04T17:52:38Z</time></trkpt><trkpt lat="41.30878273696934" lon="1.9831159924680917"><ele>110.83333333333333</ele><time>2026-05-04T17:52:39Z</time></trkpt><trkpt lat="41.308763039447214" lon="1.983217478960586"><ele>111.0</ele><time>2026-05-04T17:52:40Z</time></trkpt><trkpt lat="41.30869821466859" lon="1.9832517775715905"><ele>111.0</ele><time>2026-05-04T17:52:43Z</time></trkpt><trkpt lat="41.30864594053289" lon="1.9833137813017874"><ele>111.0</ele><time>2026-05-04T17:52:56Z</time></trkpt><trkpt lat="41.30857113740578" lon="1.9833081418603271"><ele>111.0</ele><time>2026-05-04T17:52:59Z</time></trkpt><trkpt lat="41.30847646076015" lon="1.9833183564579073"><ele>111.0</ele><time>2026-05-04T17:53:01Z</time></trkpt><trkpt lat="41.30841280508646" lon="1.983325429439188"><ele>111.0</ele><time>2026-05-04T17:53:02Z</time></trkpt><trkpt lat="41.308338324646776" lon="1.9833277478947962"><ele>111.0</ele><time>2026-05-04T17:53:03Z</time></trkpt><trkpt lat="41.30825465361216" lon="1.9833394683715648"><ele>109.0</ele><time>2026-05-04T17:53:04Z</time></trkpt><trkpt lat="41.30816675940172" lon="1.9833557866778238"><ele>107.0</ele><time>2026-05-04T17:53:05.001Z</time></trkpt><trkpt lat="41.308080061259766" lon="1.9833928706453097"><ele>105.0</ele><time>2026-05-04T17:53:06.001Z</time></trkpt><trkpt lat="41.30799007923038" lon="1.9834404863091168"><ele>103.0</ele><time>2026-05-04T17:53:07.001Z</time></trkpt><trkpt lat="41.307904341951065" lon="1.9835024199685745"><ele>101.0</ele><time>2026-05-04T17:53:08.001Z</time></trkpt><trkpt lat="41.30782585735669" lon="1.9835659210753736"><ele>101.0</ele><time>2026-05-04T17:53:09.001Z</time></trkpt><trkpt lat="41.30774212005782" lon="1.9836269255824226"><ele>101.0</ele><time>2026-05-04T17:53:10.001Z</time></trkpt><trkpt lat="41.30766303601275" lon="1.9837001572440192"><ele>101.0</ele><time>2026-05-04T17:53:11.001Z</time></trkpt><trkpt lat="41.30758954691598" lon="1.9837786955866215"><ele>101.0</ele><time>2026-05-04T17:53:12.001Z</time></trkpt><trkpt lat="41.30752886874933" lon="1.9838682203141973"><ele>101.0</ele><time>2026-05-04T17:53:13.001Z</time></trkpt><trkpt lat="41.307463144364824" lon="1.9839508724092443"><ele>101.0</ele><time>2026-05-04T17:53:14.001Z</time></trkpt><trkpt lat="41.30742292084329" lon="1.9840611870171736"><ele>101.0</ele><time>2026-05-04T17:53:15.001Z</time></trkpt><trkpt lat="41.30739666707562" lon="1.9841942713014828"><ele>101.0</ele><time>2026-05-04T17:53:16.001Z</time></trkpt><trkpt lat="41.3074004045564" lon="1.9843309057333385"><ele>101.0</ele><time>2026-05-04T17:53:17.001Z</time></trkpt><trkpt lat="41.307390533797836" lon="1.9844659937199343"><ele>101.0</ele><time>2026-05-04T17:53:18.001Z</time></trkpt><trkpt lat="41.30738585205467" lon="1.9846018185664804"><ele>101.0</ele><time>2026-05-04T17:53:19.001Z</time></trkpt><trkpt lat="41.30738568355008" lon="1.9847342316130927"><ele>101.0</ele><time>2026-05-04T17:53:20.001Z</time></trkpt><trkpt lat="41.30738032309951" lon="1.9848660038625918"><ele>101.0</ele><time>2026-05-04T17:53:21.001Z</time></trkpt><trkpt lat="41.30736624704294" lon="1.9849996525373557"><ele>101.0</ele><time>2026-05-04T17:53:22.001Z</time></trkpt><trkpt lat="41.30734542297604" lon="1.9851363250699807"><ele>101.0</ele><time>2026-05-04T17:53:23.001Z</time></trkpt><trkpt lat="41.30731509253845" lon="1.9852724745743582"><ele>101.0</ele><time>2026-05-04T17:53:24.001Z</time></trkpt><trkpt lat="41.3072837991796" lon="1.9854070352619002"><ele>101.0</ele><time>2026-05-04T17:53:25.001Z</time></trkpt><trkpt lat="41.3072504160479" lon="1.985543839952691"><ele>101.0</ele><time>2026-05-04T17:53:26.001Z</time></trkpt><trkpt lat="41.307221760939264" lon="1.9856832489612004"><ele>101.0</ele><time>2026-05-04T17:53:27.001Z</time></trkpt><trkpt lat="41.307192743215595" lon="1.985819183580031"><ele>101.0</ele><time>2026-05-04T17:53:28.001Z</time></trkpt><trkpt lat="41.30715808650024" lon="1.985959120513171"><ele>96.0</ele><time>2026-05-04T17:53:29.001Z</time></trkpt><trkpt lat="41.30713736435717" lon="1.9861048283266423"><ele>91.0</ele><time>2026-05-04T17:53:30.001Z</time></trkpt><trkpt lat="41.307124239144386" lon="1.9862487711175631"><ele>86.0</ele><time>2026-05-04T17:53:31.001Z</time></trkpt><trkpt lat="41.307115815597335" lon="1.9863919659122626"><ele>81.0</ele><time>2026-05-04T17:53:32.001Z</time></trkpt><trkpt lat="41.30711091381448" lon="1.9865291785063006"><ele>76.0</ele><time>2026-05-04T17:53:33.001Z</time></trkpt><trkpt lat="41.3071049533166" lon="1.9866638258749805"><ele>75.8</ele><time>2026-05-04T17:53:34.001Z</time></trkpt><trkpt lat="41.307095376951246" lon="1.986793877004911"><ele>75.6</ele><time>2026-05-04T17:53:35.001Z</time></trkpt><trkpt lat="41.30707972223374" lon="1.986919070091381"><ele>75.4</ele><time>2026-05-04T17:53:36.001Z</time></trkpt><trkpt lat="41.30705417209784" lon="1.9870477689512072"><ele>75.2</ele><time>2026-05-04T17:53:37.001Z</time></trkpt><trkpt lat="41.30701339768547" lon="1.9871683759679493"><ele>75.0</ele><time>2026-05-04T17:53:38.001Z</time></trkpt><trkpt lat="41.30695450836087" lon="1.987287460344734"><ele>75.0</ele><time>2026-05-04T17:53:39.001Z</time></trkpt><trkpt lat="41.30687474332094" lon="1.9873819954376644"><ele>75.0</ele><time>2026-05-04T17:53:40.001Z</time></trkpt><trkpt lat="41.30680801945751" lon="1.987488228645142"><ele>75.0</ele><time>2026-05-04T17:53:41.001Z</time></trkpt><trkpt lat="41.30676049232486" lon="1.9876145060898462"><ele>75.0</ele><time>2026-05-04T17:53:42.001Z</time></trkpt><trkpt lat="41.30671311099736" lon="1.987736904251506"><ele>75.0</ele><time>2026-05-04T17:53:43.001Z</time></trkpt><trkpt lat="41.306674740869106" lon="1.9878692634585073"><ele>74.8</ele><time>2026-05-04T17:53:44.001Z</time></trkpt><trkpt lat="41.306645434229274" lon="1.9880038706722043"><ele>74.6</ele><time>2026-05-04T17:53:45.001Z</time></trkpt><trkpt lat="41.306623046373545" lon="1.9881431430800771"><ele>74.4</ele><time>2026-05-04T17:53:46.001Z</time></trkpt><trkpt lat="41.30660500266969" lon="1.9882808310739728"><ele>74.2</ele><time>2026-05-04T17:53:47.001Z</time></trkpt><trkpt lat="41.30659959239706" lon="1.9884180999794658"><ele>74.0</ele><time>2026-05-04T17:53:48.001Z</time></trkpt><trkpt lat="41.30661087072927" lon="1.9885522849648813"><ele>72.8</ele><time>2026-05-04T17:53:49.001Z</time></trkpt><trkpt lat="41.306636520498735" lon="1.988675857463593"><ele>71.60000000000001</ele><time>2026-05-04T17:53:50.001Z</time></trkpt><trkpt lat="41.306678318241" lon="1.9887884298891996"><ele>70.4</ele><time>2026-05-04T17:53:51.001Z</time></trkpt><trkpt lat="41.306733254147204" lon="1.9888930252785408"><ele>69.2</ele><time>2026-05-04T17:53:52.001Z</time></trkpt><trkpt lat="41.30680739844926" lon="1.9889910423886954"><ele>68.0</ele><time>2026-05-04T17:53:53.001Z</time></trkpt><trkpt lat="41.30689049516204" lon="1.9890815841115996"><ele>68.0</ele><time>2026-05-04T17:53:54.001Z</time></trkpt><trkpt lat="41.30698104420289" lon="1.9891642492317827"><ele>68.0</ele><time>2026-05-04T17:53:55.001Z</time></trkpt><trkpt lat="41.30707302722038" lon="1.989245425392125"><ele>68.0</ele><time>2026-05-04T17:53:56.001Z</time></trkpt><trkpt lat="41.307164006197134" lon="1.9893370602624367"><ele>68.0</ele><time>2026-05-04T17:53:57.001Z</time></trkpt><trkpt lat="41.30725542320873" lon="1.9894250488150809"><ele>68.0</ele><time>2026-05-04T17:53:58.001Z</time></trkpt><trkpt lat="41.30734127740349" lon="1.9895128424200728"><ele>67.0</ele><time>2026-05-04T17:53:59.001Z</time></trkpt><trkpt lat="41.307426875151585" lon="1.9895986762612077"><ele>66.0</ele><time>2026-05-04T17:54:00.001Z</time></trkpt><trkpt lat="41.307506478276466" lon="1.9896833306705977"><ele>65.0</ele><time>2026-05-04T17:54:01.001Z</time></trkpt><trkpt lat="41.30756962762485" lon="1.9897700717336153"><ele>64.0</ele><time>2026-05-04T17:54:02.001Z</time></trkpt><trkpt lat="41.3076290201756" lon="1.9898506309355373"><ele>63.0</ele><time>2026-05-04T17:54:03.001Z</time></trkpt><trkpt lat="41.3076700611137" lon="1.9899385253001505"><ele>61.857142857142854</ele><time>2026-05-04T17:54:04.001Z</time></trkpt><trkpt lat="41.307702333048596" lon="1.9900287992718855"><ele>60.714285714285715</ele><time>2026-05-04T17:54:05.001Z</time></trkpt><trkpt lat="41.307718822285736" lon="1.9901184208419485"><ele>59.57142857142857</ele><time>2026-05-04T17:54:06.001Z</time></trkpt><trkpt lat="41.30771951661297" lon="1.9902153717930926"><ele>58.42857142857143</ele><time>2026-05-04T17:54:07.001Z</time></trkpt><trkpt lat="41.307705472049236" lon="1.9903094330290967"><ele>57.285714285714285</ele><time>2026-05-04T17:54:08.001Z</time></trkpt><trkpt lat="41.30767453443019" lon="1.9903958739527805"><ele>56.14285714285714</ele><time>2026-05-04T17:54:09.001Z</time></trkpt><trkpt lat="41.307634493787766" lon="1.9904713690046754"><ele>55.0</ele><time>2026-05-04T17:54:10.001Z</time></trkpt><trkpt lat="41.30760426566222" lon="1.990553739635872"><ele>54.99999999999999</ele><time>2026-05-04T17:54:11Z</time></trkpt><trkpt lat="41.30755473134752" lon="1.9906237967251692"><ele>55.0</ele><time>2026-05-04T17:54:12Z</time></trkpt><trkpt lat="41.30756975356308" lon="1.9907473885061466"><ele>55.0</ele><time>2026-05-04T17:54:13Z</time></trkpt><trkpt lat="41.30757987451338" lon="1.9908508024368492"><ele>55.0</ele><time>2026-05-04T17:54:14Z</time></trkpt><trkpt lat="41.3075969004826" lon="1.9909507963438087"><ele>54.99999999999999</ele><time>2026-05-04T17:54:15Z</time></trkpt><trkpt lat="41.30761143637872" lon="1.9910559796750231"><ele>55.0</ele><time>2026-05-04T17:54:16Z</time></trkpt><trkpt lat="41.30760947459173" lon="1.991168839483544"><ele>54.49999999999999</ele><time>2026-05-04T17:54:17Z</time></trkpt><trkpt lat="41.30759456586844" lon="1.9912820135504685"><ele>54.0</ele><time>2026-05-04T17:54:18Z</time></trkpt><trkpt lat="41.307571982381724" lon="1.9913917433457429"><ele>53.5</ele><time>2026-05-04T17:54:19Z</time></trkpt><trkpt lat="41.307539851024195" lon="1.9914970118665243"><ele>53.0</ele><time>2026-05-04T17:54:20Z</time></trkpt><trkpt lat="41.30750761661903" lon="1.9916047335671623"><ele>52.49999999999999</ele><time>2026-05-04T17:54:21Z</time></trkpt><trkpt lat="41.30747313198917" lon="1.9917174911361515"><ele>52.0</ele><time>2026-05-04T17:54:22Z</time></trkpt><trkpt lat="41.307434216636224" lon="1.9918309998621713"><ele>51.6</ele><time>2026-05-04T17:54:23Z</time></trkpt><trkpt lat="41.30738997419433" lon="1.9919512940017112"><ele>51.2</ele><time>2026-05-04T17:54:24Z</time></trkpt><trkpt lat="41.30734868620813" lon="1.992074245055464"><ele>50.8</ele><time>2026-05-04T17:54:25Z</time></trkpt><trkpt lat="41.30730497637894" lon="1.9922002317178273"><ele>50.4</ele><time>2026-05-04T17:54:26Z</time></trkpt><trkpt lat="41.30726186518623" lon="1.9923269203027556"><ele>50.0</ele><time>2026-05-04T17:54:27Z</time></trkpt><trkpt lat="41.30721507213893" lon="1.9924476791807237"><ele>48.4</ele><time>2026-05-04T17:54:28Z</time></trkpt><trkpt lat="41.307160471633786" lon="1.9925668361534101"><ele>46.8</ele><time>2026-05-04T17:54:29Z</time></trkpt><trkpt lat="41.30710235312653" lon="1.9926829217024944"><ele>45.2</ele><time>2026-05-04T17:54:30Z</time></trkpt><trkpt lat="41.30704478129171" lon="1.9927881137663588"><ele>43.6</ele><time>2026-05-04T17:54:31Z</time></trkpt><trkpt lat="41.30698813690412" lon="1.9928829912312582"><ele>42.0</ele><time>2026-05-04T17:54:32Z</time></trkpt><trkpt lat="41.30693342090048" lon="1.9929687305112327"><ele>42.0</ele><time>2026-05-04T17:54:33Z</time></trkpt><trkpt lat="41.30688393337184" lon="1.9930501276902055"><ele>42.0</ele><time>2026-05-04T17:54:34Z</time></trkpt><trkpt lat="41.30682557668281" lon="1.9931172637367958"><ele>42.0</ele><time>2026-05-04T17:54:35Z</time></trkpt><trkpt lat="41.30675756892399" lon="1.9931812711803552"><ele>42.0</ele><time>2026-05-04T17:54:36Z</time></trkpt><trkpt lat="41.3066873297773" lon="1.993236993753415"><ele>42.0</ele><time>2026-05-04T17:54:37Z</time></trkpt><trkpt lat="41.306622002595866" lon="1.9932972100030302"><ele>42.0</ele><time>2026-05-04T17:54:38Z</time></trkpt><trkpt lat="41.30655644583163" lon="1.99335233586028"><ele>41.57142857142857</ele><time>2026-05-04T17:54:39Z</time></trkpt><trkpt lat="41.306491647546146" lon="1.9934079769294029"><ele>41.14285714285714</ele><time>2026-05-04T17:54:40Z</time></trkpt><trkpt lat="41.3064264531158" lon="1.9934560599268476"><ele>40.714285714285715</ele><time>2026-05-04T17:54:41Z</time></trkpt><trkpt lat="41.306362258082366" lon="1.993487439314694"><ele>40.285714285714285</ele><time>2026-05-04T17:54:42Z</time></trkpt><trkpt lat="41.30629140221633" lon="1.9934917804525718"><ele>39.857142857142854</ele><time>2026-05-04T17:54:43Z</time></trkpt><trkpt lat="41.30622515484496" lon="1.9935022460581753"><ele>39.42857142857143</ele><time>2026-05-04T17:54:44Z</time></trkpt><trkpt lat="41.306144691483865" lon="1.9935123014203322"><ele>39.0</ele><time>2026-05-04T17:54:45Z</time></trkpt><trkpt lat="41.30609193705977" lon="1.993594082473262"><ele>38.666666666666664</ele><time>2026-05-04T17:54:46Z</time></trkpt><trkpt lat="41.3060438176119" lon="1.9936636582896219"><ele>38.333333333333336</ele><time>2026-05-04T17:54:47Z</time></trkpt><trkpt lat="41.30596836716502" lon="1.993709390973712"><ele>38.0</ele><time>2026-05-04T17:54:48Z</time></trkpt><trkpt lat="41.30588424813802" lon="1.9937483192519865"><ele>37.66666666666667</ele><time>2026-05-04T17:54:49Z</time></trkpt><trkpt lat="41.30579759612418" lon="1.9937877817464582"><ele>37.333333333333336</ele><time>2026-05-04T17:54:50Z</time></trkpt><trkpt lat="41.30570584177732" lon="1.9938298349343413"><ele>37.0</ele><time>2026-05-04T17:54:51Z</time></trkpt><trkpt lat="41.30561695823905" lon="1.993874588469282"><ele>36.0</ele><time>2026-05-04T17:54:52Z</time></trkpt><trkpt lat="41.30552778953782" lon="1.9939107674447094"><ele>35.0</ele><time>2026-05-04T17:54:53Z</time></trkpt><trkpt lat="41.30544255701754" lon="1.9939551246428404"><ele>34.0</ele><time>2026-05-04T17:54:54Z</time></trkpt><trkpt lat="41.30535922109121" lon="1.9939989591888647"><ele>33.0</ele><time>2026-05-04T17:54:55Z</time></trkpt><trkpt lat="41.30528185259736" lon="1.9940424151230371"><ele>32.0</ele><time>2026-05-04T17:54:56Z</time></trkpt><trkpt lat="41.3052100904322" lon="1.9940770549379752"><ele>31.0</ele><time>2026-05-04T17:54:57Z</time></trkpt><trkpt lat="41.305110771987714" lon="1.9941198422953519"><ele>31.0</ele><time>2026-05-04T17:54:59Z</time></trkpt><trkpt lat="41.305018801476194" lon="1.994153252878775"><ele>31.0</ele><time>2026-05-04T17:55:02Z</time></trkpt><trkpt lat="41.30494868088745" lon="1.994194253171805"><ele>31.0</ele><time>2026-05-04T17:55:04Z</time></trkpt><trkpt lat="41.30488196336629" lon="1.994228917069102"><ele>31.0</ele><time>2026-05-04T17:55:07Z</time></trkpt><trkpt lat="41.30479116501073" lon="1.994263880222835"><ele>31.0</ele><time>2026-05-04T17:55:10Z</time></trkpt><trkpt lat="41.304681722552694" lon="1.9943298582963935"><ele>30.833333333333336</ele><time>2026-05-04T17:55:12.001Z</time></trkpt><trkpt lat="41.30461182234135" lon="1.9943584176702889"><ele>30.666666666666668</ele><time>2026-05-04T17:55:13.001Z</time></trkpt><trkpt lat="41.30453855895122" lon="1.9943894333762382"><ele>30.5</ele><time>2026-05-04T17:55:14.001Z</time></trkpt><trkpt lat="41.30446440312473" lon="1.994434620510085"><ele>30.333333333333336</ele><time>2026-05-04T17:55:15.001Z</time></trkpt><trkpt lat="41.30438270037473" lon="1.9944789611791844"><ele>30.166666666666668</ele><time>2026-05-04T17:55:16.001Z</time></trkpt><trkpt lat="41.30429614424145" lon="1.9945244841730911"><ele>30.0</ele><time>2026-05-04T17:55:17.001Z</time></trkpt><trkpt lat="41.30420449072464" lon="1.9945707325656041"><ele>30.0</ele><time>2026-05-04T17:55:18.001Z</time></trkpt><trkpt lat="41.30411097821422" lon="1.994620589536346"><ele>30.0</ele><time>2026-05-04T17:55:19.001Z</time></trkpt><trkpt lat="41.30401787118417" lon="1.9946729969782642"><ele>30.0</ele><time>2026-05-04T17:55:20.001Z</time></trkpt><trkpt lat="41.303928208256096" lon="1.9947277890936181"><ele>30.0</ele><time>2026-05-04T17:55:21.001Z</time></trkpt><trkpt lat="41.30383897308082" lon="1.9947865427340252"><ele>30.0</ele><time>2026-05-04T17:55:22.001Z</time></trkpt><trkpt lat="41.3037533471165" lon="1.994849384578326"><ele>30.0</ele><time>2026-05-04T17:55:23.001Z</time></trkpt><trkpt lat="41.30367744416046" lon="1.994909909797119"><ele>30.0</ele><time>2026-05-04T17:55:24.001Z</time></trkpt><trkpt lat="41.30360457942225" lon="1.9949666681908962"><ele>30.0</ele><time>2026-05-04T17:55:25.001Z</time></trkpt><trkpt lat="41.303536445240375" lon="1.9950238651921224"><ele>30.0</ele><time>2026-05-04T17:55:26.001Z</time></trkpt><trkpt lat="41.30347391733454" lon="1.9950779072973024"><ele>30.0</ele><time>2026-05-04T17:55:27.001Z</time></trkpt><trkpt lat="41.30341764855743" lon="1.9951344678776766"><ele>30.0</ele><time>2026-05-04T17:55:28.001Z</time></trkpt><trkpt lat="41.3033656670853" lon="1.9951885276677082"><ele>29.666666666666668</ele><time>2026-05-04T17:55:29.001Z</time></trkpt><trkpt lat="41.30327299747722" lon="1.9952778062332235"><ele>29.333333333333336</ele><time>2026-05-04T17:55:31.001Z</time></trkpt><trkpt lat="41.3031815930213" lon="1.9953800627158729"><ele>29.0</ele><time>2026-05-04T17:55:33.001Z</time></trkpt><trkpt lat="41.30313189604886" lon="1.9954432792623285"><ele>28.666666666666668</ele><time>2026-05-04T17:55:34.001Z</time></trkpt><trkpt lat="41.303081765716776" lon="1.9955037918424097"><ele>28.333333333333336</ele><time>2026-05-04T17:55:35.001Z</time></trkpt><trkpt lat="41.30302705465851" lon="1.995566463844608"><ele>28.0</ele><time>2026-05-04T17:55:36.001Z</time></trkpt><trkpt lat="41.30297609057365" lon="1.9956310604150422"><ele>27.833333333333336</ele><time>2026-05-04T17:55:37.001Z</time></trkpt><trkpt lat="41.302920997493075" lon="1.9956975735456353"><ele>27.666666666666668</ele><time>2026-05-04T17:55:38.001Z</time></trkpt><trkpt lat="41.30286975497666" lon="1.9957627304867402"><ele>27.5</ele><time>2026-05-04T17:55:39.001Z</time></trkpt><trkpt lat="41.3028147237803" lon="1.9958303886881827"><ele>27.333333333333336</ele><time>2026-05-04T17:55:40.001Z</time></trkpt><trkpt lat="41.30275246681132" lon="1.9958890444901962"><ele>27.166666666666668</ele><time>2026-05-04T17:55:41.001Z</time></trkpt><trkpt lat="41.30268226714996" lon="1.9959326145711025"><ele>27.0</ele><time>2026-05-04T17:55:42.001Z</time></trkpt><trkpt lat="41.30260381700613" lon="1.9959580728127673"><ele>27.0</ele><time>2026-05-04T17:55:43.001Z</time></trkpt><trkpt lat="41.30252266436406" lon="1.9959688169856253"><ele>27.0</ele><time>2026-05-04T17:55:44.001Z</time></trkpt><trkpt lat="41.30244961789822" lon="1.995996880250162"><ele>27.0</ele><time>2026-05-04T17:55:45.001Z</time></trkpt><trkpt lat="41.302393793895554" lon="1.996062098974711"><ele>27.0</ele><time>2026-05-04T17:55:46.001Z</time></trkpt><trkpt lat="41.3023628140357" lon="1.9961538719530114"><ele>27.0</ele><time>2026-05-04T17:55:47.001Z</time></trkpt><trkpt lat="41.30235410806072" lon="1.9962544689246364"><ele>27.0</ele><time>2026-05-04T17:55:48.001Z</time></trkpt><trkpt lat="41.302346042657696" lon="1.996357205577169"><ele>27.0</ele><time>2026-05-04T17:55:49.001Z</time></trkpt><trkpt lat="41.302311496402616" lon="1.9964462612319362"><ele>27.0</ele><time>2026-05-04T17:55:50.001Z</time></trkpt><trkpt lat="41.30224179561863" lon="1.996498702294021"><ele>27.0</ele><time>2026-05-04T17:55:51.001Z</time></trkpt><trkpt lat="41.30218942248229" lon="1.9965760079993764"><ele>27.0</ele><time>2026-05-04T17:55:52.001Z</time></trkpt><trkpt lat="41.30212354635987" lon="1.9966424108081458"><ele>27.0</ele><time>2026-05-04T17:55:53.001Z</time></trkpt><trkpt lat="41.30206209526539" lon="1.996713660858487"><ele>27.0</ele><time>2026-05-04T17:55:54.001Z</time></trkpt><trkpt lat="41.301995463157844" lon="1.9967904766849638"><ele>27.200000000000003</ele><time>2026-05-04T17:55:55.001Z</time></trkpt><trkpt lat="41.301928751631976" lon="1.9968688836220116"><ele>27.400000000000002</ele><time>2026-05-04T17:55:56.001Z</time></trkpt><trkpt lat="41.30186198614432" lon="1.996952705753539"><ele>27.599999999999998</ele><time>2026-05-04T17:55:57.001Z</time></trkpt><trkpt lat="41.301788322510944" lon="1.9970358811123186"><ele>27.799999999999997</ele><time>2026-05-04T17:55:58.001Z</time></trkpt><trkpt lat="41.301716696120195" lon="1.997119088325277"><ele>28.0</ele><time>2026-05-04T17:55:59.001Z</time></trkpt><trkpt lat="41.30164451050147" lon="1.9972092577071092"><ele>28.0</ele><time>2026-05-04T17:56:00.001Z</time></trkpt><trkpt lat="41.30156631831109" lon="1.997293393503675"><ele>27.999999999999996</ele><time>2026-05-04T17:56:01.001Z</time></trkpt><trkpt lat="41.301495232179704" lon="1.9973841371509737"><ele>27.999999999999996</ele><time>2026-05-04T17:56:02.001Z</time></trkpt><trkpt lat="41.30142022100463" lon="1.9974714161531333"><ele>28.0</ele><time>2026-05-04T17:56:03.001Z</time></trkpt><trkpt lat="41.301347893697155" lon="1.9975517871432822"><ele>28.0</ele><time>2026-05-04T17:56:04.001Z</time></trkpt><trkpt lat="41.301282112764206" lon="1.9976311927140449"><ele>28.000000000000004</ele><time>2026-05-04T17:56:05.001Z</time></trkpt><trkpt lat="41.30121802198351" lon="1.9977008998383932"><ele>28.0</ele><time>2026-05-04T17:56:06.001Z</time></trkpt><trkpt lat="41.30115542899393" lon="1.9977707817260255"><ele>28.0</ele><time>2026-05-04T17:56:07.001Z</time></trkpt><trkpt lat="41.30109162922307" lon="1.997849666582363"><ele>28.0</ele><time>2026-05-04T17:56:08.001Z</time></trkpt><trkpt lat="41.3010275464487" lon="1.9979316314569293"><ele>28.000000000000004</ele><time>2026-05-04T17:56:09.001Z</time></trkpt><trkpt lat="41.300957943863075" lon="1.9980137307389643"><ele>28.0</ele><time>2026-05-04T17:56:10.001Z</time></trkpt><trkpt lat="41.30088892274683" lon="1.9980950541130775"><ele>28.0</ele><time>2026-05-04T17:56:11.001Z</time></trkpt><trkpt lat="41.30081618074532" lon="1.9981863066941126"><ele>27.999999999999996</ele><time>2026-05-04T17:56:12.001Z</time></trkpt><trkpt lat="41.30074199396069" lon="1.9982732739018707"><ele>27.999999999999996</ele><time>2026-05-04T17:56:13.001Z</time></trkpt><trkpt lat="41.300674867486336" lon="1.9983598099023248"><ele>28.0</ele><time>2026-05-04T17:56:14.001Z</time></trkpt><trkpt lat="41.300610526308105" lon="1.998437428342391"><ele>28.0</ele><time>2026-05-04T17:56:15.001Z</time></trkpt><trkpt lat="41.30054846584132" lon="1.9985130600918488"><ele>27.500000000000004</ele><time>2026-05-04T17:56:16.001Z</time></trkpt><trkpt lat="41.300490277852134" lon="1.9985846075975755"><ele>27.0</ele><time>2026-05-04T17:56:17Z</time></trkpt><trkpt lat="41.300433729892205" lon="1.9986545589691618"><ele>26.5</ele><time>2026-05-04T17:56:18Z</time></trkpt><trkpt lat="41.300385428791955" lon="1.9987168707032184"><ele>26.0</ele><time>2026-05-04T17:56:19Z</time></trkpt><trkpt lat="41.30030069882456" lon="1.998795003612235"><ele>25.500000000000004</ele><time>2026-05-04T17:56:21Z</time></trkpt><trkpt lat="41.30021125017218" lon="1.9988396995316846"><ele>25.0</ele><time>2026-05-04T17:56:23Z</time></trkpt><trkpt lat="41.30014337269283" lon="1.998950656052768"><ele>25.000000000000004</ele><time>2026-05-04T17:56:25Z</time></trkpt><trkpt lat="41.30008554867602" lon="1.9990811876631804"><ele>25.0</ele><time>2026-05-04T17:56:27Z</time></trkpt><trkpt lat="41.30004546609085" lon="1.999154868224956"><ele>25.0</ele><time>2026-05-04T17:56:28Z</time></trkpt><trkpt lat="41.29999666687348" lon="1.9992264268981312"><ele>25.0</ele><time>2026-05-04T17:56:29Z</time></trkpt><trkpt lat="41.29994538298563" lon="1.9993017862134688"><ele>25.000000000000004</ele><time>2026-05-04T17:56:30Z</time></trkpt><trkpt lat="41.29989192837296" lon="1.9993805708969719"><ele>25.0</ele><time>2026-05-04T17:56:31Z</time></trkpt><trkpt lat="41.29983587035563" lon="1.9994614894371443"><ele>23.8</ele><time>2026-05-04T17:56:32Z</time></trkpt><trkpt lat="41.29978299235085" lon="1.9995466529267136"><ele>22.6</ele><time>2026-05-04T17:56:33Z</time></trkpt><trkpt lat="41.29973083560971" lon="1.9996388760324146"><ele>21.4</ele><time>2026-05-04T17:56:34Z</time></trkpt><trkpt lat="41.2996778966499" lon="1.999738358369233"><ele>20.2</ele><time>2026-05-04T17:56:35Z</time></trkpt><trkpt lat="41.29962428678025" lon="1.999839910023044"><ele>19.0</ele><time>2026-05-04T17:56:36Z</time></trkpt><trkpt lat="41.29957007881709" lon="1.9999453950537986"><ele>19.0</ele><time>2026-05-04T17:56:37Z</time></trkpt><trkpt lat="41.29951888253403" lon="2.0000579068372932"><ele>19.0</ele><time>2026-05-04T17:56:38Z</time></trkpt><trkpt lat="41.29947360586356" lon="2.000178182313395"><ele>19.0</ele><time>2026-05-04T17:56:39Z</time></trkpt><trkpt lat="41.29942683139009" lon="2.0003019433147347"><ele>19.0</ele><time>2026-05-04T17:56:40Z</time></trkpt><trkpt lat="41.29937814286111" lon="2.0004284386000832"><ele>19.0</ele><time>2026-05-04T17:56:41Z</time></trkpt><trkpt lat="41.299321752882186" lon="2.000548576359408"><ele>19.0</ele><time>2026-05-04T17:56:42Z</time></trkpt><trkpt lat="41.29927529937235" lon="2.000680602263675"><ele>19.0</ele><time>2026-05-04T17:56:43Z</time></trkpt><trkpt lat="41.29923387120484" lon="2.0008147675153563"><ele>19.0</ele><time>2026-05-04T17:56:44Z</time></trkpt><trkpt lat="41.299191402436556" lon="2.000948011411279"><ele>19.0</ele><time>2026-05-04T17:56:45Z</time></trkpt><trkpt lat="41.29914798419968" lon="2.0010850395944435"><ele>19.0</ele><time>2026-05-04T17:56:46Z</time></trkpt><trkpt lat="41.29910790708241" lon="2.0012215474938033"><ele>18.4</ele><time>2026-05-04T17:56:47Z</time></trkpt><trkpt lat="41.29906978526754" lon="2.001356393083106"><ele>17.799999999999997</ele><time>2026-05-04T17:56:48Z</time></trkpt><trkpt lat="41.29903098007411" lon="2.001494576486412"><ele>17.200000000000003</ele><time>2026-05-04T17:56:49Z</time></trkpt><trkpt lat="41.29899533949716" lon="2.001633064198244"><ele>16.6</ele><time>2026-05-04T17:56:50Z</time></trkpt><trkpt lat="41.29895803306727" lon="2.0017736179530594"><ele>16.0</ele><time>2026-05-04T17:56:51Z</time></trkpt><trkpt lat="41.298923201714786" lon="2.0019129011696313"><ele>16.400000000000002</ele><time>2026-05-04T17:56:52Z</time></trkpt><trkpt lat="41.2988910633498" lon="2.0020515137760437"><ele>16.8</ele><time>2026-05-04T17:56:53Z</time></trkpt><trkpt lat="41.29885651793219" lon="2.00218836384326"><ele>17.200000000000003</ele><time>2026-05-04T17:56:54Z</time></trkpt><trkpt lat="41.298822386156374" lon="2.00232293674556"><ele>17.6</ele><time>2026-05-04T17:56:55Z</time></trkpt><trkpt lat="41.29878630947429" lon="2.002457645010215"><ele>18.0</ele><time>2026-05-04T17:56:56Z</time></trkpt><trkpt lat="41.29874884589617" lon="2.0025860019795947"><ele>16.4</ele><time>2026-05-04T17:56:57Z</time></trkpt><trkpt lat="41.29870817933154" lon="2.0027122390862857"><ele>14.8</ele><time>2026-05-04T17:56:58Z</time></trkpt><trkpt lat="41.298665436912096" lon="2.002833883403755"><ele>13.2</ele><time>2026-05-04T17:56:59Z</time></trkpt><trkpt lat="41.29861847756972" lon="2.0029510662731083"><ele>11.6</ele><time>2026-05-04T17:57:00Z</time></trkpt><trkpt lat="41.2985692530725" lon="2.0030660824578246"><ele>10.0</ele><time>2026-05-04T17:57:01Z</time></trkpt><trkpt lat="41.29851681234724" lon="2.0031761131615813"><ele>10.0</ele><time>2026-05-04T17:57:02Z</time></trkpt><trkpt lat="41.29846067037278" lon="2.003284727344813"><ele>10.0</ele><time>2026-05-04T17:57:03Z</time></trkpt><trkpt lat="41.29840042980738" lon="2.0033932315821286"><ele>10.0</ele><time>2026-05-04T17:57:04Z</time></trkpt><trkpt lat="41.298334346063015" lon="2.0034995382057645"><ele>10.0</ele><time>2026-05-04T17:57:05Z</time></trkpt><trkpt lat="41.298264632024065" lon="2.0036019282609008"><ele>10.0</ele><time>2026-05-04T17:57:06Z</time></trkpt><trkpt lat="41.298192305484115" lon="2.0037031080985415"><ele>9.6</ele><time>2026-05-04T17:57:07.001Z</time></trkpt><trkpt lat="41.298101853165676" lon="2.0037818110815846"><ele>9.2</ele><time>2026-05-04T17:57:08.001Z</time></trkpt><trkpt lat="41.29802209857067" lon="2.0038755336588028"><ele>8.8</ele><time>2026-05-04T17:57:09.001Z</time></trkpt><trkpt lat="41.29793800614436" lon="2.003967020475549"><ele>8.4</ele><time>2026-05-04T17:57:10.001Z</time></trkpt><trkpt lat="41.29785035494699" lon="2.004055719652317"><ele>8.0</ele><time>2026-05-04T17:57:11.001Z</time></trkpt><trkpt lat="41.29775932649433" lon="2.004142263179591"><ele>8.200000000000001</ele><time>2026-05-04T17:57:12.001Z</time></trkpt><trkpt lat="41.29766639002977" lon="2.004226144259768"><ele>8.4</ele><time>2026-05-04T17:57:13.001Z</time></trkpt><trkpt lat="41.29758551213585" lon="2.004325084017068"><ele>8.600000000000001</ele><time>2026-05-04T17:57:14.001Z</time></trkpt><trkpt lat="41.29749438773168" lon="2.0044007941383604"><ele>8.8</ele><time>2026-05-04T17:57:15.001Z</time></trkpt><trkpt lat="41.297401303755805" lon="2.0044762313691615"><ele>9.0</ele><time>2026-05-04T17:57:16.001Z</time></trkpt><trkpt lat="41.29730750847593" lon="2.0045513164150104"><ele>8.4</ele><time>2026-05-04T17:57:17.001Z</time></trkpt><trkpt lat="41.29721597885666" lon="2.0046301516067997"><ele>7.800000000000001</ele><time>2026-05-04T17:57:18.001Z</time></trkpt><trkpt lat="41.297124289197164" lon="2.0047081238017364"><ele>7.199999999999999</ele><time>2026-05-04T17:57:19.001Z</time></trkpt><trkpt lat="41.297030593563655" lon="2.0047857091954184"><ele>6.6</ele><time>2026-05-04T17:57:20.001Z</time></trkpt><trkpt lat="41.296938561811686" lon="2.0048652720566564"><ele>6.0</ele><time>2026-05-04T17:57:21.001Z</time></trkpt><trkpt lat="41.29684574958332" lon="2.0049445511522186"><ele>6.75</ele><time>2026-05-04T17:57:22.001Z</time></trkpt><trkpt lat="41.29675000063171" lon="2.0050210322860282"><ele>7.5</ele><time>2026-05-04T17:57:23.001Z</time></trkpt><trkpt lat="41.29665330463285" lon="2.005100093343827"><ele>8.25</ele><time>2026-05-04T17:57:24.001Z</time></trkpt><trkpt lat="41.296558286813536" lon="2.0051812932761743"><ele>9.0</ele><time>2026-05-04T17:57:25.001Z</time></trkpt><trkpt lat="41.29646378914701" lon="2.0052600574374018"><ele>8.25</ele><time>2026-05-04T17:57:26.001Z</time></trkpt><trkpt lat="41.296367262945786" lon="2.0053385937815764"><ele>7.5</ele><time>2026-05-04T17:57:27.001Z</time></trkpt><trkpt lat="41.29627152000762" lon="2.0054197259781215"><ele>6.75</ele><time>2026-05-04T17:57:28.001Z</time></trkpt><trkpt lat="41.2961773280073" lon="2.0054990842189073"><ele>6.0</ele><time>2026-05-04T17:57:29.001Z</time></trkpt><trkpt lat="41.296080385332104" lon="2.005580664245668"><ele>6.0</ele><time>2026-05-04T17:57:30.001Z</time></trkpt><trkpt lat="41.29599606635678" lon="2.0056634073521304"><ele>6.0</ele><time>2026-05-04T17:57:31.001Z</time></trkpt><trkpt lat="41.29591566419647" lon="2.005745313718044"><ele>6.0</ele><time>2026-05-04T17:57:32.001Z</time></trkpt><trkpt lat="41.2958410296741" lon="2.0058065399041136"><ele>6.0</ele><time>2026-05-04T17:57:33.001Z</time></trkpt><trkpt lat="41.29575957511239" lon="2.0058489464975273"><ele>6.0</ele><time>2026-05-04T17:57:34.001Z</time></trkpt><trkpt lat="41.29567459727877" lon="2.0058641075718477"><ele>6.0</ele><time>2026-05-04T17:57:35.001Z</time></trkpt><trkpt lat="41.295556140669774" lon="2.0060514905733347"><ele>6.0</ele><time>2026-05-04T17:57:36.001Z</time></trkpt><trkpt lat="41.29542817658617" lon="2.0061565719964367"><ele>6.0</ele><time>2026-05-04T17:57:37.001Z</time></trkpt><trkpt lat="41.29533059992066" lon="2.0062395259801944"><ele>6.0</ele><time>2026-05-04T17:57:38.001Z</time></trkpt><trkpt lat="41.29523689223384" lon="2.0063232724981885"><ele>6.0</ele><time>2026-05-04T17:57:39.001Z</time></trkpt><trkpt lat="41.295139217701646" lon="2.0064063102373666"><ele>6.0</ele><time>2026-05-04T17:57:40.001Z</time></trkpt><trkpt lat="41.29504016838825" lon="2.0064869607326554"><ele>6.0</ele><time>2026-05-04T17:57:41.001Z</time></trkpt><trkpt lat="41.29494591117259" lon="2.0065691677018807"><ele>6.0</ele><time>2026-05-04T17:57:42.001Z</time></trkpt><trkpt lat="41.294846967761714" lon="2.0066522899920076"><ele>6.0</ele><time>2026-05-04T17:57:43.001Z</time></trkpt><trkpt lat="41.294746312565486" lon="2.006738974983702"><ele>6.0</ele><time>2026-05-04T17:57:44.001Z</time></trkpt><trkpt lat="41.29464816606173" lon="2.006822171055181"><ele>6.0</ele><time>2026-05-04T17:57:45.001Z</time></trkpt><trkpt lat="41.29454997029412" lon="2.0069050393594225"><ele>5.5</ele><time>2026-05-04T17:57:46.001Z</time></trkpt><trkpt lat="41.2944552490283" lon="2.006988183310744"><ele>5.0</ele><time>2026-05-04T17:57:47.001Z</time></trkpt><trkpt lat="41.29436046414197" lon="2.0070712102172106"><ele>4.5</ele><time>2026-05-04T17:57:48.001Z</time></trkpt><trkpt lat="41.294264428846404" lon="2.0071551617697403"><ele>4.0</ele><time>2026-05-04T17:57:49.001Z</time></trkpt><trkpt lat="41.2941625840164" lon="2.0072409704253555"><ele>4.0</ele><time>2026-05-04T17:57:50.001Z</time></trkpt><trkpt lat="41.29406259140213" lon="2.0073251380649744"><ele>4.0</ele><time>2026-05-04T17:57:51.001Z</time></trkpt><trkpt lat="41.293963700459216" lon="2.007407743824513"><ele>4.0</ele><time>2026-05-04T17:57:52.001Z</time></trkpt><trkpt lat="41.29386822926168" lon="2.007489660066802"><ele>4.0</ele><time>2026-05-04T17:57:53.001Z</time></trkpt><trkpt lat="41.293773314034794" lon="2.0075767495341186"><ele>4.5</ele><time>2026-05-04T17:57:54.001Z</time></trkpt><trkpt lat="41.29367853862307" lon="2.007660237140314"><ele>5.0</ele><time>2026-05-04T17:57:55.001Z</time></trkpt><trkpt lat="41.293580486345334" lon="2.0077497813564547"><ele>5.5</ele><time>2026-05-04T17:57:56.001Z</time></trkpt><trkpt lat="41.29348166679112" lon="2.0078398819818832"><ele>6.0</ele><time>2026-05-04T17:57:57.001Z</time></trkpt><trkpt lat="41.29338762107435" lon="2.007926942167062"><ele>6.0</ele><time>2026-05-04T17:57:58.001Z</time></trkpt><trkpt lat="41.29329008062595" lon="2.0080166188834228"><ele>6.0</ele><time>2026-05-04T17:57:59.001Z</time></trkpt><trkpt lat="41.29319664588984" lon="2.0080953403994064"><ele>6.0</ele><time>2026-05-04T17:58:00.001Z</time></trkpt><trkpt lat="41.293102284925155" lon="2.008180981071188"><ele>6.0</ele><time>2026-05-04T17:58:01.001Z</time></trkpt><trkpt lat="41.293009537590024" lon="2.008265375807568"><ele>5.75</ele><time>2026-05-04T17:58:02.001Z</time></trkpt><trkpt lat="41.29292268974525" lon="2.0083562462340643"><ele>5.5</ele><time>2026-05-04T17:58:03.001Z</time></trkpt><trkpt lat="41.29282003815752" lon="2.0084398095926708"><ele>5.25</ele><time>2026-05-04T17:58:04.001Z</time></trkpt><trkpt lat="41.29270533504303" lon="2.0085177886294123"><ele>5.0</ele><time>2026-05-04T17:58:05.001Z</time></trkpt><trkpt lat="41.29265825585749" lon="2.008622985598849"><ele>5.0</ele><time>2026-05-04T17:58:06.001Z</time></trkpt><trkpt lat="41.29257440840506" lon="2.0087072125699126"><ele>5.0</ele><time>2026-05-04T17:58:07.001Z</time></trkpt><trkpt lat="41.292489033349746" lon="2.0087915388019972"><ele>5.0</ele><time>2026-05-04T17:58:08.001Z</time></trkpt><trkpt lat="41.29240124047467" lon="2.008876808147791"><ele>5.0</ele><time>2026-05-04T17:58:09.001Z</time></trkpt><trkpt lat="41.292315638525885" lon="2.0089667735468266"><ele>5.0</ele><time>2026-05-04T17:58:10.001Z</time></trkpt><trkpt lat="41.2922250439972" lon="2.009054633807195"><ele>5.25</ele><time>2026-05-04T17:58:11.001Z</time></trkpt><trkpt lat="41.29213592207803" lon="2.0091460655616586"><ele>5.5</ele><time>2026-05-04T17:58:12.001Z</time></trkpt><trkpt lat="41.29204852988533" lon="2.009238454984969"><ele>5.75</ele><time>2026-05-04T17:58:13.001Z</time></trkpt><trkpt lat="41.291955478621716" lon="2.00932569860397"><ele>6.0</ele><time>2026-05-04T17:58:14.001Z</time></trkpt><trkpt lat="41.29186014196005" lon="2.009417382033629"><ele>6.0</ele><time>2026-05-04T17:58:15.001Z</time></trkpt><trkpt lat="41.29176608797841" lon="2.0095183981398472"><ele>6.0</ele><time>2026-05-04T17:58:16.001Z</time></trkpt><trkpt lat="41.29168060137471" lon="2.0096092639760386"><ele>6.0</ele><time>2026-05-04T17:58:17.001Z</time></trkpt><trkpt lat="41.291586465397415" lon="2.0097114509968437"><ele>6.0</ele><time>2026-05-04T17:58:18.001Z</time></trkpt><trkpt lat="41.291492616366455" lon="2.0098098193989826"><ele>6.0</ele><time>2026-05-04T17:58:19.001Z</time></trkpt><trkpt lat="41.291400933104754" lon="2.009900481000474"><ele>6.0</ele><time>2026-05-04T17:58:20.001Z</time></trkpt><trkpt lat="41.29130495483126" lon="2.0099993112538357"><ele>6.0</ele><time>2026-05-04T17:58:21.001Z</time></trkpt><trkpt lat="41.29120905529716" lon="2.0100881747310444"><ele>6.0</ele><time>2026-05-04T17:58:22.001Z</time></trkpt><trkpt lat="41.2911183101464" lon="2.0101804301625563"><ele>6.0</ele><time>2026-05-04T17:58:23Z</time></trkpt><trkpt lat="41.291029723950054" lon="2.0102710223345186"><ele>6.0</ele><time>2026-05-04T17:58:24Z</time></trkpt><trkpt lat="41.290927597968" lon="2.010360582581507"><ele>6.0</ele><time>2026-05-04T17:58:25Z</time></trkpt><trkpt lat="41.29083647067845" lon="2.0104514978319763"><ele>6.0</ele><time>2026-05-04T17:58:26Z</time></trkpt><trkpt lat="41.290744287973844" lon="2.01053046040818"><ele>6.0</ele><time>2026-05-04T17:58:27Z</time></trkpt><trkpt lat="41.290654963918364" lon="2.010610650983579"><ele>6.0</ele><time>2026-05-04T17:58:28Z</time></trkpt><trkpt lat="41.290566017654434" lon="2.010685310832192"><ele>6.0</ele><time>2026-05-04T17:58:29Z</time></trkpt><trkpt lat="41.29048178279666" lon="2.0107568507466738"><ele>6.0</ele><time>2026-05-04T17:58:30Z</time></trkpt><trkpt lat="41.29040219870552" lon="2.010825302303806"><ele>6.0</ele><time>2026-05-04T17:58:31Z</time></trkpt><trkpt lat="41.29032326191469" lon="2.0108850009694694"><ele>6.0</ele><time>2026-05-04T17:58:32Z</time></trkpt><trkpt lat="41.29025499629644" lon="2.0109458423047832"><ele>6.0</ele><time>2026-05-04T17:58:33Z</time></trkpt><trkpt lat="41.290178877971556" lon="2.010972854652984"><ele>6.0</ele><time>2026-05-04T17:58:34Z</time></trkpt><trkpt lat="41.29010320539372" lon="2.0109702145327946"><ele>6.0</ele><time>2026-05-04T17:58:35Z</time></trkpt><trkpt lat="41.290004509561896" lon="2.0108912494944375"><ele>6.0</ele><time>2026-05-04T17:58:36Z</time></trkpt><trkpt lat="41.2899453976675" lon="2.0107954780697597"><ele>6.0</ele><time>2026-05-04T17:58:37Z</time></trkpt><trkpt lat="41.28989699865922" lon="2.0106876603228048"><ele>6.0</ele><time>2026-05-04T17:58:38Z</time></trkpt><trkpt lat="41.2898330566922" lon="2.0105929426551"><ele>6.0</ele><time>2026-05-04T17:58:39Z</time></trkpt><trkpt lat="41.28976129905775" lon="2.010501707935124"><ele>6.0</ele><time>2026-05-04T17:58:40Z</time></trkpt><trkpt lat="41.28970112922918" lon="2.010428604402946"><ele>6.0</ele><time>2026-05-04T17:58:41Z</time></trkpt><trkpt lat="41.289647908336825" lon="2.01036653148572"><ele>6.0</ele><time>2026-05-04T17:58:42Z</time></trkpt><trkpt lat="41.28958648021361" lon="2.010328146974206"><ele>6.0</ele><time>2026-05-04T17:58:43Z</time></trkpt><trkpt lat="41.28952092449767" lon="2.0103202490858947"><ele>5.833333333333333</ele><time>2026-05-04T17:58:44Z</time></trkpt><trkpt lat="41.2894328487301" lon="2.0103932137314704"><ele>5.666666666666667</ele><time>2026-05-04T17:58:46Z</time></trkpt><trkpt lat="41.28944263276508" lon="2.010483821697996"><ele>5.5</ele><time>2026-05-04T17:58:47Z</time></trkpt><trkpt lat="41.28951006404216" lon="2.0106276995615167"><ele>5.333333333333334</ele><time>2026-05-04T17:58:49Z</time></trkpt><trkpt lat="41.289528162605954" lon="2.010719540769779"><ele>5.166666666666667</ele><time>2026-05-04T17:58:50Z</time></trkpt><trkpt lat="41.28956457030527" lon="2.0108033320762275"><ele>5.0</ele><time>2026-05-04T17:58:51Z</time></trkpt><trkpt lat="41.2896068291759" lon="2.0108893050689898"><ele>5.0</ele><time>2026-05-04T17:58:52Z</time></trkpt><trkpt lat="41.289641835418195" lon="2.0109908542653496"><ele>5.0</ele><time>2026-05-04T17:58:53Z</time></trkpt><trkpt lat="41.289675794292584" lon="2.011103239028479"><ele>5.0</ele><time>2026-05-04T17:58:54Z</time></trkpt><trkpt lat="41.28971332248137" lon="2.0112134287990586"><ele>5.0</ele><time>2026-05-04T17:58:55Z</time></trkpt><trkpt lat="41.289752415292966" lon="2.0113322548571353"><ele>5.0</ele><time>2026-05-04T17:58:56Z</time></trkpt><trkpt lat="41.28979425631158" lon="2.011455085766553"><ele>5.2</ele><time>2026-05-04T17:58:57Z</time></trkpt><trkpt lat="41.289840564712016" lon="2.011579857149853"><ele>5.4</ele><time>2026-05-04T17:58:58Z</time></trkpt><trkpt lat="41.28989092533327" lon="2.0117058593193913"><ele>5.6</ele><time>2026-05-04T17:58:59Z</time></trkpt><trkpt lat="41.28994273486557" lon="2.011834893811822"><ele>5.8</ele><time>2026-05-04T17:59:00Z</time></trkpt><trkpt lat="41.28999605439052" lon="2.011965476894589"><ele>6.0</ele><time>2026-05-04T17:59:01Z</time></trkpt><trkpt lat="41.29005190933193" lon="2.0120962482330857"><ele>5.25</ele><time>2026-05-04T17:59:02Z</time></trkpt><trkpt lat="41.2901111284603" lon="2.012231240126974"><ele>4.5</ele><time>2026-05-04T17:59:03Z</time></trkpt><trkpt lat="41.290172023613216" lon="2.012348254548213"><ele>3.75</ele><time>2026-05-04T17:59:04Z</time></trkpt><trkpt lat="41.290231963583516" lon="2.0124743585885025"><ele>3.0</ele><time>2026-05-04T17:59:05Z</time></trkpt><trkpt lat="41.29029559664923" lon="2.012601618662212"><ele>3.0</ele><time>2026-05-04T17:59:06Z</time></trkpt><trkpt lat="41.29036438126085" lon="2.012713951183002"><ele>3.0</ele><time>2026-05-04T17:59:07Z</time></trkpt><trkpt lat="41.290424981065655" lon="2.012842116715152"><ele>3.0</ele><time>2026-05-04T17:59:08Z</time></trkpt><trkpt lat="41.29047858721427" lon="2.012974441855583"><ele>3.0</ele><time>2026-05-04T17:59:09Z</time></trkpt><trkpt lat="41.290530296614804" lon="2.0131066363951544"><ele>3.0</ele><time>2026-05-04T17:59:10.001Z</time></trkpt><trkpt lat="41.290586091863126" lon="2.0132481704308938"><ele>3.2</ele><time>2026-05-04T17:59:11.001Z</time></trkpt><trkpt lat="41.29064434090362" lon="2.0133706184957156"><ele>3.4</ele><time>2026-05-04T17:59:12.001Z</time></trkpt><trkpt lat="41.29070354742037" lon="2.013495863927081"><ele>3.6000000000000005</ele><time>2026-05-04T17:59:13.001Z</time></trkpt><trkpt lat="41.29076029884882" lon="2.01361797076218"><ele>3.8000000000000003</ele><time>2026-05-04T17:59:14.001Z</time></trkpt><trkpt lat="41.29081359773848" lon="2.0137376791219626"><ele>4.0</ele><time>2026-05-04T17:59:15.001Z</time></trkpt><trkpt lat="41.29087087786141" lon="2.0138545799331284"><ele>4.0</ele><time>2026-05-04T17:59:16.001Z</time></trkpt><trkpt lat="41.29092941466159" lon="2.013967832308635"><ele>4.0</ele><time>2026-05-04T17:59:17.001Z</time></trkpt><trkpt lat="41.290984259411275" lon="2.014073643188644"><ele>4.0</ele><time>2026-05-04T17:59:18.001Z</time></trkpt><trkpt lat="41.291034979511316" lon="2.014171210412221"><ele>4.0</ele><time>2026-05-04T17:59:19.001Z</time></trkpt><trkpt lat="41.291095461312146" lon="2.01425792325433"><ele>4.0</ele><time>2026-05-04T17:59:20.001Z</time></trkpt><trkpt lat="41.29112043595641" lon="2.0143557994566743"><ele>4.166666666666666</ele><time>2026-05-04T17:59:21.001Z</time></trkpt><trkpt lat="41.29115273925669" lon="2.014446769741768"><ele>4.333333333333333</ele><time>2026-05-04T17:59:22.001Z</time></trkpt><trkpt lat="41.29117312673754" lon="2.014538267737931"><ele>4.5</ele><time>2026-05-04T17:59:23.001Z</time></trkpt><trkpt lat="41.29120460251197" lon="2.01463187283149"><ele>4.666666666666667</ele><time>2026-05-04T17:59:24.001Z</time></trkpt><trkpt lat="41.29115232907836" lon="2.0147489981606057"><ele>4.833333333333334</ele><time>2026-05-04T17:59:25.001Z</time></trkpt><trkpt lat="41.2911237985197" lon="2.0148442294915787"><ele>5.0</ele><time>2026-05-04T17:59:26.001Z</time></trkpt><trkpt lat="41.291017612366" lon="2.0148954127933725"><ele>5.0</ele><time>2026-05-04T17:59:27.001Z</time></trkpt><trkpt lat="41.29092945175723" lon="2.014940272195565"><ele>5.0</ele><time>2026-05-04T17:59:28.001Z</time></trkpt><trkpt lat="41.290856292486914" lon="2.015006981243891"><ele>5.0</ele><time>2026-05-04T17:59:29.001Z</time></trkpt><trkpt lat="41.29075362196595" lon="2.0150265552406803"><ele>5.0</ele><time>2026-05-04T17:59:30.001Z</time></trkpt><trkpt lat="41.29066277038129" lon="2.0150694412240147"><ele>5.0</ele><time>2026-05-04T17:59:31.001Z</time></trkpt><trkpt lat="41.290567019734375" lon="2.01511132308276"><ele>4.8</ele><time>2026-05-04T17:59:32.001Z</time></trkpt><trkpt lat="41.29046606623357" lon="2.0151528401452596"><ele>4.6</ele><time>2026-05-04T17:59:33.001Z</time></trkpt><trkpt lat="41.2903663271338" lon="2.0151856503730206"><ele>4.4</ele><time>2026-05-04T17:59:34.001Z</time></trkpt><trkpt lat="41.29026811950323" lon="2.0152276378577776"><ele>4.2</ele><time>2026-05-04T17:59:35.001Z</time></trkpt><trkpt lat="41.290166346120394" lon="2.015271584380227"><ele>4.0</ele><time>2026-05-04T17:59:36.001Z</time></trkpt><trkpt lat="41.29007243990187" lon="2.015308790638337"><ele>4.0</ele><time>2026-05-04T17:59:37.001Z</time></trkpt><trkpt lat="41.28997595179799" lon="2.0153509605567486"><ele>4.0</ele><time>2026-05-04T17:59:38.001Z</time></trkpt><trkpt lat="41.28988005766541" lon="2.0153863052966745"><ele>4.0</ele><time>2026-05-04T17:59:39.001Z</time></trkpt><trkpt lat="41.289785619571546" lon="2.015421352822678"><ele>4.0</ele><time>2026-05-04T17:59:40.001Z</time></trkpt><trkpt lat="41.289683899187594" lon="2.0154643148619282"><ele>4.0</ele><time>2026-05-04T17:59:41.001Z</time></trkpt><trkpt lat="41.28958731448308" lon="2.0155055342930592"><ele>4.2</ele><time>2026-05-04T17:59:42.001Z</time></trkpt><trkpt lat="41.28949019329273" lon="2.0155465180895353"><ele>4.4</ele><time>2026-05-04T17:59:43.001Z</time></trkpt><trkpt lat="41.28939005453831" lon="2.0155878224029324"><ele>4.6</ele><time>2026-05-04T17:59:44.001Z</time></trkpt><trkpt lat="41.2892938355652" lon="2.0156228432861605"><ele>4.8</ele><time>2026-05-04T17:59:45.001Z</time></trkpt><trkpt lat="41.28919297336318" lon="2.015647504746917"><ele>5.0</ele><time>2026-05-04T17:59:46.001Z</time></trkpt><trkpt lat="41.28908852560507" lon="2.0157022043837327"><ele>5.0</ele><time>2026-05-04T17:59:47.001Z</time></trkpt><trkpt lat="41.28899049566626" lon="2.0157398382803104"><ele>5.0</ele><time>2026-05-04T17:59:48.001Z</time></trkpt><trkpt lat="41.2888977628118" lon="2.015779502881976"><ele>5.0</ele><time>2026-05-04T17:59:49.001Z</time></trkpt><trkpt lat="41.288806074513836" lon="2.0158176938313157"><ele>5.0</ele><time>2026-05-04T17:59:50.001Z</time></trkpt><trkpt lat="41.28871494267975" lon="2.0158567497434148"><ele>5.0</ele><time>2026-05-04T17:59:51.001Z</time></trkpt><trkpt lat="41.288628104755524" lon="2.015889377132133"><ele>4.833333333333334</ele><time>2026-05-04T17:59:52.001Z</time></trkpt><trkpt lat="41.28854218824898" lon="2.0159252005881823"><ele>4.666666666666667</ele><time>2026-05-04T17:59:53.001Z</time></trkpt><trkpt lat="41.28846189800092" lon="2.015955228910232"><ele>4.5</ele><time>2026-05-04T17:59:54.001Z</time></trkpt><trkpt lat="41.28838672572316" lon="2.0159770111345106"><ele>4.333333333333333</ele><time>2026-05-04T17:59:55.001Z</time></trkpt><trkpt lat="41.28831664089766" lon="2.0160059687858873"><ele>4.166666666666666</ele><time>2026-05-04T17:59:56.001Z</time></trkpt><trkpt lat="41.288252120833434" lon="2.0160391537090225"><ele>4.0</ele><time>2026-05-04T17:59:57.001Z</time></trkpt><trkpt lat="41.28818462927988" lon="2.016067189964642"><ele>3.9999999999999996</ele><time>2026-05-04T17:59:58.001Z</time></trkpt><trkpt lat="41.288114693744454" lon="2.0160647453683063"><ele>4.0</ele><time>2026-05-04T17:59:59.001Z</time></trkpt><trkpt lat="41.28805041943948" lon="2.016057803183677"><ele>4.0</ele><time>2026-05-04T18:00:00.001Z</time></trkpt><trkpt lat="41.287942248250715" lon="2.0161315419832033"><ele>4.0</ele><time>2026-05-04T18:00:02.001Z</time></trkpt><trkpt lat="41.287882153126255" lon="2.016195139654919"><ele>3.9999999999999996</ele><time>2026-05-04T18:00:03.001Z</time></trkpt><trkpt lat="41.287803252866766" lon="2.016233069875054"><ele>4.0</ele><time>2026-05-04T18:00:04.001Z</time></trkpt><trkpt lat="41.287718387560865" lon="2.016259079663035"><ele>4.0</ele><time>2026-05-04T18:00:05.001Z</time></trkpt><trkpt lat="41.28763228539163" lon="2.0162929921257704"><ele>4.0</ele><time>2026-05-04T18:00:06.001Z</time></trkpt><trkpt lat="41.28754227791969" lon="2.0163315247670504"><ele>4.0</ele><time>2026-05-04T18:00:07.001Z</time></trkpt><trkpt lat="41.28744975668197" lon="2.0163652266842336"><ele>4.0</ele><time>2026-05-04T18:00:08.001Z</time></trkpt><trkpt lat="41.287357288689506" lon="2.016406930012135"><ele>4.0</ele><time>2026-05-04T18:00:09.001Z</time></trkpt><trkpt lat="41.28726455719735" lon="2.0164480163045364"><ele>3.8000000000000003</ele><time>2026-05-04T18:00:10.001Z</time></trkpt><trkpt lat="41.28716611628646" lon="2.0164862709056903"><ele>3.6000000000000005</ele><time>2026-05-04T18:00:11.001Z</time></trkpt><trkpt lat="41.287071382796604" lon="2.0165263629873165"><ele>3.4</ele><time>2026-05-04T18:00:12.001Z</time></trkpt><trkpt lat="41.28697102954629" lon="2.0165662309095107"><ele>3.2</ele><time>2026-05-04T18:00:13.001Z</time></trkpt><trkpt lat="41.28687808866105" lon="2.016611370057465"><ele>3.0</ele><time>2026-05-04T18:00:14.001Z</time></trkpt><trkpt lat="41.28679267419628" lon="2.01663943549752"><ele>3.0</ele><time>2026-05-04T18:00:15.001Z</time></trkpt><trkpt lat="41.286704078742844" lon="2.016676288204587"><ele>3.0</ele><time>2026-05-04T18:00:16.001Z</time></trkpt><trkpt lat="41.28661399843162" lon="2.016718895583303"><ele>3.0</ele><time>2026-05-04T18:00:17.001Z</time></trkpt><trkpt lat="41.28652297501886" lon="2.016756814857389"><ele>3.0</ele><time>2026-05-04T18:00:18.001Z</time></trkpt><trkpt lat="41.28642824225677" lon="2.01679203269922"><ele>3.0</ele><time>2026-05-04T18:00:19.001Z</time></trkpt><trkpt lat="41.286334235714804" lon="2.0168312759682814"><ele>3.2</ele><time>2026-05-04T18:00:20.001Z</time></trkpt><trkpt lat="41.286238426843724" lon="2.016871578310447"><ele>3.4</ele><time>2026-05-04T18:00:21.001Z</time></trkpt><trkpt lat="41.28614203231953" lon="2.016910625251215"><ele>3.6000000000000005</ele><time>2026-05-04T18:00:22.001Z</time></trkpt><trkpt lat="41.28604292978454" lon="2.016948035476283"><ele>3.8000000000000003</ele><time>2026-05-04T18:00:23.001Z</time></trkpt><trkpt lat="41.28594367920829" lon="2.0169850219680976"><ele>4.0</ele><time>2026-05-04T18:00:24.001Z</time></trkpt><trkpt lat="41.285843185051604" lon="2.0170240809458573"><ele>4.0</ele><time>2026-05-04T18:00:25.001Z</time></trkpt><trkpt lat="41.28574499336375" lon="2.017057193693029"><ele>4.0</ele><time>2026-05-04T18:00:26.001Z</time></trkpt><trkpt lat="41.28564542825523" lon="2.017096695212988"><ele>4.0</ele><time>2026-05-04T18:00:27.001Z</time></trkpt><trkpt lat="41.285541788100694" lon="2.0171411594136184"><ele>4.0</ele><time>2026-05-04T18:00:28.001Z</time></trkpt><trkpt lat="41.28544402934218" lon="2.0171828868561317"><ele>4.0</ele><time>2026-05-04T18:00:29Z</time></trkpt><trkpt lat="41.2853429233376" lon="2.017227903880944"><ele>4.0</ele><time>2026-05-04T18:00:30Z</time></trkpt><trkpt lat="41.2852400420229" lon="2.017271623855877"><ele>4.0</ele><time>2026-05-04T18:00:31Z</time></trkpt><trkpt lat="41.28513910428531" lon="2.017315623080376"><ele>4.0</ele><time>2026-05-04T18:00:32Z</time></trkpt><trkpt lat="41.28503521238524" lon="2.017356221567225"><ele>4.0</ele><time>2026-05-04T18:00:33Z</time></trkpt><trkpt lat="41.28493854056335" lon="2.01738952083239"><ele>4.0</ele><time>2026-05-04T18:00:34Z</time></trkpt><trkpt lat="41.28483676910904" lon="2.017428600756112"><ele>4.2</ele><time>2026-05-04T18:00:35Z</time></trkpt><trkpt lat="41.284737502084056" lon="2.0174742149961533"><ele>4.4</ele><time>2026-05-04T18:00:36Z</time></trkpt><trkpt lat="41.28463476878639" lon="2.0175150621368148"><ele>4.6</ele><time>2026-05-04T18:00:37Z</time></trkpt><trkpt lat="41.284535285029605" lon="2.0175564087245648"><ele>4.8</ele><time>2026-05-04T18:00:38Z</time></trkpt><trkpt lat="41.28443081201171" lon="2.0176014034257888"><ele>5.0</ele><time>2026-05-04T18:00:39Z</time></trkpt><trkpt lat="41.28432726982227" lon="2.0176461838294464"><ele>5.0</ele><time>2026-05-04T18:00:40Z</time></trkpt><trkpt lat="41.284223459321915" lon="2.0176921398212504"><ele>5.0</ele><time>2026-05-04T18:00:41Z</time></trkpt><trkpt lat="41.284119516128655" lon="2.017731841955221"><ele>5.0</ele><time>2026-05-04T18:00:42Z</time></trkpt><trkpt lat="41.28401524575867" lon="2.017770404931571"><ele>5.0</ele><time>2026-05-04T18:00:43Z</time></trkpt><trkpt lat="41.28391311299083" lon="2.017810692390733"><ele>5.0</ele><time>2026-05-04T18:00:44Z</time></trkpt><trkpt lat="41.283810493869964" lon="2.0178529585460967"><ele>4.8</ele><time>2026-05-04T18:00:45Z</time></trkpt><trkpt lat="41.283708921395316" lon="2.017894910004814"><ele>4.6</ele><time>2026-05-04T18:00:46Z</time></trkpt><trkpt lat="41.28360862260208" lon="2.017935633088415"><ele>4.4</ele><time>2026-05-04T18:00:47Z</time></trkpt><trkpt lat="41.28351029714089" lon="2.017982406671516"><ele>4.2</ele><time>2026-05-04T18:00:48Z</time></trkpt><trkpt lat="41.283408037031755" lon="2.0180234441516935"><ele>4.0</ele><time>2026-05-04T18:00:49Z</time></trkpt><trkpt lat="41.2833050534097" lon="2.0180643216166994"><ele>4.0</ele><time>2026-05-04T18:00:50Z</time></trkpt><trkpt lat="41.283201867034926" lon="2.0181061000767624"><ele>4.0</ele><time>2026-05-04T18:00:51Z</time></trkpt><trkpt lat="41.28310072293595" lon="2.018148980449647"><ele>4.0</ele><time>2026-05-04T18:00:52Z</time></trkpt><trkpt lat="41.28299973261147" lon="2.0181918960095846"><ele>4.0</ele><time>2026-05-04T18:00:53Z</time></trkpt><trkpt lat="41.28290019784449" lon="2.0182365339433557"><ele>4.0</ele><time>2026-05-04T18:00:54Z</time></trkpt><trkpt lat="41.282797321466155" lon="2.0182758129777705"><ele>4.0</ele><time>2026-05-04T18:00:55Z</time></trkpt><trkpt lat="41.282699505309076" lon="2.018320308514044"><ele>4.0</ele><time>2026-05-04T18:00:56Z</time></trkpt><trkpt lat="41.28259712808949" lon="2.0183624444967747"><ele>4.0</ele><time>2026-05-04T18:00:57Z</time></trkpt><trkpt lat="41.28249458698323" lon="2.018404922221606"><ele>4.0</ele><time>2026-05-04T18:00:58Z</time></trkpt><trkpt lat="41.282395723416556" lon="2.018443534362987"><ele>4.0</ele><time>2026-05-04T18:00:59Z</time></trkpt><trkpt lat="41.282292071968435" lon="2.0184900094140263"><ele>3.6</ele><time>2026-05-04T18:01:00Z</time></trkpt><trkpt lat="41.282198217650716" lon="2.0185313502366817"><ele>3.2</ele><time>2026-05-04T18:01:01Z</time></trkpt><trkpt lat="41.28209805675901" lon="2.0185689927333343"><ele>2.8000000000000003</ele><time>2026-05-04T18:01:02Z</time></trkpt><trkpt lat="41.28199431547577" lon="2.0186130049028996"><ele>2.4000000000000004</ele><time>2026-05-04T18:01:03Z</time></trkpt><trkpt lat="41.28189428607471" lon="2.0186532789248974"><ele>2.0</ele><time>2026-05-04T18:01:04Z</time></trkpt><trkpt lat="41.28179486272329" lon="2.01869247192253"><ele>2.0</ele><time>2026-05-04T18:01:05Z</time></trkpt><trkpt lat="41.28169495752451" lon="2.018733968742874"><ele>2.0</ele><time>2026-05-04T18:01:06Z</time></trkpt><trkpt lat="41.28159327664421" lon="2.0187793653223687"><ele>2.0</ele><time>2026-05-04T18:01:07Z</time></trkpt><trkpt lat="41.28149192041146" lon="2.0188197503160006"><ele>2.0</ele><time>2026-05-04T18:01:08Z</time></trkpt><trkpt lat="41.281392118689865" lon="2.018860065095439"><ele>2.0</ele><time>2026-05-04T18:01:09Z</time></trkpt><trkpt lat="41.2812894964244" lon="2.0188982283770143"><ele>2.2</ele><time>2026-05-04T18:01:10Z</time></trkpt><trkpt lat="41.28118730695942" lon="2.018940800587473"><ele>2.4000000000000004</ele><time>2026-05-04T18:01:11Z</time></trkpt><trkpt lat="41.28108817055659" lon="2.0189844574547973"><ele>2.5999999999999996</ele><time>2026-05-04T18:01:12Z</time></trkpt><trkpt lat="41.280985382544245" lon="2.019028344181226"><ele>2.8</ele><time>2026-05-04T18:01:13Z</time></trkpt><trkpt lat="41.280885266772" lon="2.019065016681517"><ele>3.0</ele><time>2026-05-04T18:01:14Z</time></trkpt><trkpt lat="41.280783211169265" lon="2.0191008962225117"><ele>3.0</ele><time>2026-05-04T18:01:15Z</time></trkpt><trkpt lat="41.28068122757527" lon="2.019141471411536"><ele>3.0</ele><time>2026-05-04T18:01:16Z</time></trkpt><trkpt lat="41.280580699433244" lon="2.019171943988314"><ele>3.0</ele><time>2026-05-04T18:01:17Z</time></trkpt><trkpt lat="41.28047859805725" lon="2.0192006081218663"><ele>3.0</ele><time>2026-05-04T18:01:18Z</time></trkpt><trkpt lat="41.28037438848487" lon="2.0192361696993903"><ele>3.0</ele><time>2026-05-04T18:01:19Z</time></trkpt><trkpt lat="41.28027187390361" lon="2.019264662617614"><ele>3.2</ele><time>2026-05-04T18:01:20Z</time></trkpt><trkpt lat="41.28016904176823" lon="2.0192985803677623"><ele>3.4</ele><time>2026-05-04T18:01:21Z</time></trkpt><trkpt lat="41.28006524342691" lon="2.0193370341226657"><ele>3.6000000000000005</ele><time>2026-05-04T18:01:22Z</time></trkpt><trkpt lat="41.279961655982824" lon="2.019368685322821"><ele>3.8000000000000003</ele><time>2026-05-04T18:01:23Z</time></trkpt><trkpt lat="41.279857944589736" lon="2.0193983199616556"><ele>4.0</ele><time>2026-05-04T18:01:24Z</time></trkpt><trkpt lat="41.27975249493442" lon="2.0194260971631666"><ele>4.4</ele><time>2026-05-04T18:01:25Z</time></trkpt><trkpt lat="41.27964722764036" lon="2.0194484177136265"><ele>4.800000000000001</ele><time>2026-05-04T18:01:26.001Z</time></trkpt><trkpt lat="41.279540209807834" lon="2.0194705979142697"><ele>5.199999999999999</ele><time>2026-05-04T18:01:27.001Z</time></trkpt><trkpt lat="41.2794372128195" lon="2.019489868138402"><ele>5.6</ele><time>2026-05-04T18:01:28.001Z</time></trkpt><trkpt lat="41.27933001490198" lon="2.0195134981392524"><ele>6.0</ele><time>2026-05-04T18:01:29.001Z</time></trkpt><trkpt lat="41.2792239264791" lon="2.0195305218570008"><ele>6.0</ele><time>2026-05-04T18:01:30.001Z</time></trkpt><trkpt lat="41.279116548235635" lon="2.0195501891624015"><ele>6.0</ele><time>2026-05-04T18:01:31.001Z</time></trkpt><trkpt lat="41.279008747367996" lon="2.0195681150309546"><ele>6.0</ele><time>2026-05-04T18:01:32.001Z</time></trkpt><trkpt lat="41.27890953841707" lon="2.0195643203089095"><ele>6.0</ele><time>2026-05-04T18:01:33.001Z</time></trkpt><trkpt lat="41.27879830907339" lon="2.0195879386349276"><ele>6.0</ele><time>2026-05-04T18:01:34.001Z</time></trkpt><trkpt lat="41.27869317273997" lon="2.0196027857970043"><ele>6.0</ele><time>2026-05-04T18:01:35.001Z</time></trkpt><trkpt lat="41.278585850103816" lon="2.0196107334826214"><ele>6.0</ele><time>2026-05-04T18:01:36.001Z</time></trkpt><trkpt lat="41.27847860198099" lon="2.0196257513023403"><ele>6.0</ele><time>2026-05-04T18:01:37.001Z</time></trkpt><trkpt lat="41.27837829290279" lon="2.019630505498586"><ele>6.0</ele><time>2026-05-04T18:01:38.001Z</time></trkpt><trkpt lat="41.278265893473915" lon="2.0196431394227305"><ele>6.0</ele><time>2026-05-04T18:01:39.001Z</time></trkpt><trkpt lat="41.278160412212436" lon="2.0196508568448306"><ele>5.3999999999999995</ele><time>2026-05-04T18:01:40.001Z</time></trkpt><trkpt lat="41.27805140013322" lon="2.019657041803505"><ele>4.8</ele><time>2026-05-04T18:01:41.001Z</time></trkpt><trkpt lat="41.277942728403765" lon="2.01965578413788"><ele>4.199999999999999</ele><time>2026-05-04T18:01:42.001Z</time></trkpt><trkpt lat="41.27783601117913" lon="2.019658862214431"><ele>3.5999999999999996</ele><time>2026-05-04T18:01:43.001Z</time></trkpt><trkpt lat="41.277735243323164" lon="2.0196596891484484"><ele>3.0</ele><time>2026-05-04T18:01:44.001Z</time></trkpt><trkpt lat="41.27762643742732" lon="2.0196623121657384"><ele>3.0</ele><time>2026-05-04T18:01:45.001Z</time></trkpt><trkpt lat="41.277520816313434" lon="2.0196601493804307"><ele>3.0</ele><time>2026-05-04T18:01:46.001Z</time></trkpt><trkpt lat="41.27741352648399" lon="2.019663953260141"><ele>3.0</ele><time>2026-05-04T18:01:47.001Z</time></trkpt><trkpt lat="41.277306811568415" lon="2.0196614505488113"><ele>3.0</ele><time>2026-05-04T18:01:48.001Z</time></trkpt><trkpt lat="41.27719809529732" lon="2.0196652164016498"><ele>3.0</ele><time>2026-05-04T18:01:49.001Z</time></trkpt><trkpt lat="41.2770917238954" lon="2.0196663134116553"><ele>3.0</ele><time>2026-05-04T18:01:50.001Z</time></trkpt><trkpt lat="41.276985447910306" lon="2.01966811036609"><ele>3.0</ele><time>2026-05-04T18:01:51.001Z</time></trkpt><trkpt lat="41.27687401065016" lon="2.0196758766636145"><ele>3.0</ele><time>2026-05-04T18:01:52.001Z</time></trkpt><trkpt lat="41.27676904044949" lon="2.019672016043217"><ele>3.0</ele><time>2026-05-04T18:01:53.001Z</time></trkpt><trkpt lat="41.276660843503564" lon="2.0196721008065475"><ele>3.0</ele><time>2026-05-04T18:01:54.001Z</time></trkpt><trkpt lat="41.276552852061435" lon="2.019671369875693"><ele>3.0</ele><time>2026-05-04T18:01:55.001Z</time></trkpt><trkpt lat="41.27644652486559" lon="2.0196714065076047"><ele>3.0</ele><time>2026-05-04T18:01:56.001Z</time></trkpt><trkpt lat="41.276338954866794" lon="2.0196729737968777"><ele>3.0</ele><time>2026-05-04T18:01:57.001Z</time></trkpt><trkpt lat="41.27623182505057" lon="2.019671183578358"><ele>3.0</ele><time>2026-05-04T18:01:58.001Z</time></trkpt><trkpt lat="41.27612532813167" lon="2.0196725398598567"><ele>3.0</ele><time>2026-05-04T18:01:59.001Z</time></trkpt><trkpt lat="41.276019124131196" lon="2.019672987344332"><ele>3.4</ele><time>2026-05-04T18:02:00.001Z</time></trkpt><trkpt lat="41.27591403803098" lon="2.0196739378391424"><ele>3.8</ele><time>2026-05-04T18:02:01.001Z</time></trkpt><trkpt lat="41.275803839185905" lon="2.01967458358984"><ele>4.2</ele><time>2026-05-04T18:02:02.001Z</time></trkpt><trkpt lat="41.27570032219069" lon="2.0196743671985087"><ele>4.6</ele><time>2026-05-04T18:02:03.001Z</time></trkpt><trkpt lat="41.27559643403212" lon="2.019676053031013"><ele>5.0</ele><time>2026-05-04T18:02:04.001Z</time></trkpt><trkpt lat="41.275487640950026" lon="2.0196773589522636"><ele>4.2</ele><time>2026-05-04T18:02:05.001Z</time></trkpt><trkpt lat="41.27538148823466" lon="2.019672655478751"><ele>3.4</ele><time>2026-05-04T18:02:06.001Z</time></trkpt><trkpt lat="41.275280580568214" lon="2.0196700712176874"><ele>2.6</ele><time>2026-05-04T18:02:07.001Z</time></trkpt><trkpt lat="41.27517405055513" lon="2.019676339864382"><ele>1.8</ele><time>2026-05-04T18:02:08.001Z</time></trkpt><trkpt lat="41.275069410896776" lon="2.019680386094198"><ele>1.0</ele><time>2026-05-04T18:02:09.001Z</time></trkpt><trkpt lat="41.27496146438694" lon="2.019684874926124"><ele>1.0</ele><time>2026-05-04T18:02:10.001Z</time></trkpt><trkpt lat="41.27485895398972" lon="2.0196854778404134"><ele>1.0</ele><time>2026-05-04T18:02:11.001Z</time></trkpt><trkpt lat="41.27475129601678" lon="2.0196857202391962"><ele>1.0</ele><time>2026-05-04T18:02:12.001Z</time></trkpt><trkpt lat="41.27465007741828" lon="2.0196884623240443"><ele>1.0</ele><time>2026-05-04T18:02:13.001Z</time></trkpt><trkpt lat="41.274543407307256" lon="2.0196884007387936"><ele>1.0</ele><time>2026-05-04T18:02:14.001Z</time></trkpt><trkpt lat="41.27443783199624" lon="2.019689604021637"><ele>1.6</ele><time>2026-05-04T18:02:15.001Z</time></trkpt><trkpt lat="41.274331856725205" lon="2.0196906149590514"><ele>2.2</ele><time>2026-05-04T18:02:16.001Z</time></trkpt><trkpt lat="41.27423018109404" lon="2.0196888875563292"><ele>2.8000000000000003</ele><time>2026-05-04T18:02:17.001Z</time></trkpt><trkpt lat="41.274122712999485" lon="2.0196907869340346"><ele>3.4000000000000004</ele><time>2026-05-04T18:02:18.001Z</time></trkpt><trkpt lat="41.274014086993404" lon="2.0196950656167725"><ele>4.0</ele><time>2026-05-04T18:02:19.001Z</time></trkpt><trkpt lat="41.273908497994334" lon="2.019695527712483"><ele>5.0</ele><time>2026-05-04T18:02:20.001Z</time></trkpt><trkpt lat="41.273805970200684" lon="2.0196958268251195"><ele>6.0</ele><time>2026-05-04T18:02:21.001Z</time></trkpt><trkpt lat="41.27369683624842" lon="2.019704060454477"><ele>7.0</ele><time>2026-05-04T18:02:22.001Z</time></trkpt><trkpt lat="41.27359196087216" lon="2.01970903423145"><ele>8.0</ele><time>2026-05-04T18:02:23.001Z</time></trkpt><trkpt lat="41.27348763491383" lon="2.0197049687428352"><ele>9.0</ele><time>2026-05-04T18:02:24.001Z</time></trkpt><trkpt lat="41.27338265520863" lon="2.019697040028928"><ele>9.0</ele><time>2026-05-04T18:02:25.001Z</time></trkpt><trkpt lat="41.27328289226051" lon="2.019670228738834"><ele>9.0</ele><time>2026-05-04T18:02:26.001Z</time></trkpt><trkpt lat="41.27318036121342" lon="2.0196985203988707"><ele>9.0</ele><time>2026-05-04T18:02:27.001Z</time></trkpt><trkpt lat="41.27308054506358" lon="2.0197018727181795"><ele>9.0</ele><time>2026-05-04T18:02:28.001Z</time></trkpt><trkpt lat="41.27298680834038" lon="2.0197031667505496"><ele>9.0</ele><time>2026-05-04T18:02:29.001Z</time></trkpt><trkpt lat="41.27290215614492" lon="2.019699284080906"><ele>8.571428571428573</ele><time>2026-05-04T18:02:30.001Z</time></trkpt><trkpt lat="41.272821522392306" lon="2.0196975143251117"><ele>8.142857142857142</ele><time>2026-05-04T18:02:31.001Z</time></trkpt><trkpt lat="41.27274620801429" lon="2.0196921969208987"><ele>7.714285714285714</ele><time>2026-05-04T18:02:32.001Z</time></trkpt><trkpt lat="41.27267796950891" lon="2.0196836059199"><ele>7.2857142857142865</ele><time>2026-05-04T18:02:33.001Z</time></trkpt><trkpt lat="41.27260894675444" lon="2.0196768068061366"><ele>6.857142857142858</ele><time>2026-05-04T18:02:34.001Z</time></trkpt><trkpt lat="41.27253858945072" lon="2.019672672179191"><ele>6.428571428571428</ele><time>2026-05-04T18:02:35Z</time></trkpt><trkpt lat="41.27246497790445" lon="2.019638233763457"><ele>6.0</ele><time>2026-05-04T18:02:36Z</time></trkpt><trkpt lat="41.272382882703425" lon="2.0196785306403338"><ele>6.0</ele><time>2026-05-04T18:02:37Z</time></trkpt><trkpt lat="41.272302840898526" lon="2.019693248702055"><ele>6.0</ele><time>2026-05-04T18:02:38Z</time></trkpt><trkpt lat="41.27222203895312" lon="2.019696407026809"><ele>6.0</ele><time>2026-05-04T18:02:39Z</time></trkpt><trkpt lat="41.27213452565279" lon="2.019695207545121"><ele>6.0</ele><time>2026-05-04T18:02:40Z</time></trkpt><trkpt lat="41.27204377964622" lon="2.019691740588919"><ele>6.0</ele><time>2026-05-04T18:02:41Z</time></trkpt><trkpt lat="41.27195048126356" lon="2.0196932787949673"><ele>6.0</ele><time>2026-05-04T18:02:42Z</time></trkpt><trkpt lat="41.271857532275035" lon="2.019694245829838"><ele>6.0</ele><time>2026-05-04T18:02:43Z</time></trkpt><trkpt lat="41.271765572248356" lon="2.0196908668023137"><ele>6.0</ele><time>2026-05-04T18:02:44Z</time></trkpt><trkpt lat="41.27167417198531" lon="2.019690313674863"><ele>6.0</ele><time>2026-05-04T18:02:45Z</time></trkpt><trkpt lat="41.27158400339371" lon="2.019689202486451"><ele>6.0</ele><time>2026-05-04T18:02:46Z</time></trkpt><trkpt lat="41.271494786249065" lon="2.019688766723386"><ele>6.0</ele><time>2026-05-04T18:02:47Z</time></trkpt><trkpt lat="41.27140470315296" lon="2.0196891321103836"><ele>6.0</ele><time>2026-05-04T18:02:48Z</time></trkpt><trkpt lat="41.2713150885012" lon="2.0196907407564466"><ele>6.0</ele><time>2026-05-04T18:02:49Z</time></trkpt><trkpt lat="41.27122281578805" lon="2.019690939475202"><ele>6.0</ele><time>2026-05-04T18:02:50Z</time></trkpt><trkpt lat="41.27113121859043" lon="2.0196867210779845"><ele>6.0</ele><time>2026-05-04T18:02:51Z</time></trkpt><trkpt lat="41.271041529971306" lon="2.019683203395641"><ele>6.0</ele><time>2026-05-04T18:02:52Z</time></trkpt><trkpt lat="41.27095108446527" lon="2.019686419057466"><ele>6.0</ele><time>2026-05-04T18:02:53Z</time></trkpt><trkpt lat="41.27085746962676" lon="2.019686918298335"><ele>6.0</ele><time>2026-05-04T18:02:54Z</time></trkpt><trkpt lat="41.27075978752469" lon="2.019689377818049"><ele>6.0</ele><time>2026-05-04T18:02:55Z</time></trkpt><trkpt lat="41.27066236672251" lon="2.0196902360938522"><ele>6.0</ele><time>2026-05-04T18:02:56Z</time></trkpt><trkpt lat="41.270566563864186" lon="2.0196891140985347"><ele>6.0</ele><time>2026-05-04T18:02:57Z</time></trkpt><trkpt lat="41.27047358626168" lon="2.019687884236451"><ele>6.5</ele><time>2026-05-04T18:02:58Z</time></trkpt><trkpt lat="41.270381327046806" lon="2.0196879846225753"><ele>7.0</ele><time>2026-05-04T18:02:59Z</time></trkpt><trkpt lat="41.270293447560206" lon="2.019688038354738"><ele>7.5</ele><time>2026-05-04T18:03:00Z</time></trkpt><trkpt lat="41.27020974799101" lon="2.0196886253717152"><ele>8.0</ele><time>2026-05-04T18:03:01Z</time></trkpt><trkpt lat="41.270133660721235" lon="2.0196882542718395"><ele>8.5</ele><time>2026-05-04T18:03:02Z</time></trkpt><trkpt lat="41.27006783964289" lon="2.019687788368815"><ele>9.0</ele><time>2026-05-04T18:03:03Z</time></trkpt><trkpt lat="41.27000478432455" lon="2.019688299659689"><ele>9.0</ele><time>2026-05-04T18:03:04Z</time></trkpt><trkpt lat="41.26988619821222" lon="2.019688897133637"><ele>9.0</ele><time>2026-05-04T18:03:06Z</time></trkpt><trkpt lat="41.26976173042196" lon="2.0196983707406146"><ele>9.0</ele><time>2026-05-04T18:03:08Z</time></trkpt><trkpt lat="41.269638390438985" lon="2.019676474686921"><ele>9.0</ele><time>2026-05-04T18:03:10Z</time></trkpt><trkpt lat="41.269583680372996" lon="2.0196236499770834"><ele>9.0</ele><time>2026-05-04T18:03:11Z</time></trkpt><trkpt lat="41.269543993747526" lon="2.0195510315352916"><ele>9.4</ele><time>2026-05-04T18:03:12Z</time></trkpt><trkpt lat="41.26949796086098" lon="2.0193169742472166"><ele>9.8</ele><time>2026-05-04T18:03:15Z</time></trkpt><trkpt lat="41.269485302484085" lon="2.0192238655560018"><ele>10.200000000000001</ele><time>2026-05-04T18:03:16Z</time></trkpt><trkpt lat="41.269473780020135" lon="2.019119306886974"><ele>10.600000000000001</ele><time>2026-05-04T18:03:17Z</time></trkpt><trkpt lat="41.26946337941078" lon="2.019004396676453"><ele>11.0</ele><time>2026-05-04T18:03:18Z</time></trkpt><trkpt lat="41.26945339744284" lon="2.018880965587844"><ele>11.0</ele><time>2026-05-04T18:03:19Z</time></trkpt><trkpt lat="41.269442984897466" lon="2.0187522716336312"><ele>11.0</ele><time>2026-05-04T18:03:20Z</time></trkpt><trkpt lat="41.26943252991492" lon="2.018622922272582"><ele>11.0</ele><time>2026-05-04T18:03:21Z</time></trkpt><trkpt lat="41.269420970679555" lon="2.0184985055708444"><ele>11.0</ele><time>2026-05-04T18:03:22Z</time></trkpt><trkpt lat="41.26941203787777" lon="2.0183780020847015"><ele>11.0</ele><time>2026-05-04T18:03:23Z</time></trkpt><trkpt lat="41.26940323939613" lon="2.018266462361721"><ele>10.666666666666666</ele><time>2026-05-04T18:03:24Z</time></trkpt><trkpt lat="41.26939389341869" lon="2.01815916906627"><ele>10.333333333333332</ele><time>2026-05-04T18:03:25Z</time></trkpt><trkpt lat="41.269385821101345" lon="2.0180555304176298"><ele>10.0</ele><time>2026-05-04T18:03:26Z</time></trkpt><trkpt lat="41.269377159033986" lon="2.017954778825137"><ele>9.666666666666666</ele><time>2026-05-04T18:03:27Z</time></trkpt><trkpt lat="41.269373768011135" lon="2.01785956536857"><ele>9.333333333333334</ele><time>2026-05-04T18:03:28Z</time></trkpt><trkpt lat="41.2693513191505" lon="2.0177766432493383"><ele>9.0</ele><time>2026-05-04T18:03:29Z</time></trkpt><trkpt lat="41.26946733465507" lon="2.017627667241837"><ele>9.000000000000002</ele><time>2026-05-04T18:03:31Z</time></trkpt><trkpt lat="41.269530929175716" lon="2.0175898956759672"><ele>9.0</ele><time>2026-05-04T18:03:32Z</time></trkpt><trkpt lat="41.26960399310769" lon="2.017576814038387"><ele>9.0</ele><time>2026-05-04T18:03:33Z</time></trkpt><trkpt lat="41.26967730825977" lon="2.017581712901392"><ele>9.0</ele><time>2026-05-04T18:03:34.001Z</time></trkpt><trkpt lat="41.26975288028521" lon="2.017598706735216"><ele>9.0</ele><time>2026-05-04T18:03:35.001Z</time></trkpt><trkpt lat="41.26982826726586" lon="2.017625417537986"><ele>9.000000000000002</ele><time>2026-05-04T18:03:36.001Z</time></trkpt><trkpt lat="41.269893004206345" lon="2.017676376839917"><ele>9.0</ele><time>2026-05-04T18:03:37.001Z</time></trkpt><trkpt lat="41.26993533212254" lon="2.017753362156795"><ele>9.0</ele><time>2026-05-04T18:03:38.001Z</time></trkpt><trkpt lat="41.26995910751224" lon="2.0178469457671584"><ele>9.0</ele><time>2026-05-04T18:03:39.001Z</time></trkpt><trkpt lat="41.26996664232759" lon="2.0179501044997328"><ele>9.0</ele><time>2026-05-04T18:03:40.001Z</time></trkpt><trkpt lat="41.26996990540007" lon="2.0180579219208203"><ele>9.0</ele><time>2026-05-04T18:03:41.001Z</time></trkpt><trkpt lat="41.26998034007137" lon="2.018172071209034"><ele>9.0</ele><time>2026-05-04T18:03:42.001Z</time></trkpt><trkpt lat="41.26999237045676" lon="2.018291120176352"><ele>9.0</ele><time>2026-05-04T18:03:43.001Z</time></trkpt><trkpt lat="41.27000772790672" lon="2.0184157413013053"><ele>9.0</ele><time>2026-05-04T18:03:44.001Z</time></trkpt><trkpt lat="41.270021803968916" lon="2.018547832182278"><ele>9.0</ele><time>2026-05-04T18:03:45.001Z</time></trkpt><trkpt lat="41.270033156854346" lon="2.018681516613473"><ele>9.0</ele><time>2026-05-04T18:03:46.001Z</time></trkpt><trkpt lat="41.2700457585928" lon="2.018815387429316"><ele>9.0</ele><time>2026-05-04T18:03:47.001Z</time></trkpt><trkpt lat="41.27006148360417" lon="2.0189509563931094"><ele>9.0</ele><time>2026-05-04T18:03:48.001Z</time></trkpt><trkpt lat="41.270079168141486" lon="2.0190872224568945"><ele>9.0</ele><time>2026-05-04T18:03:49.001Z</time></trkpt><trkpt lat="41.270095385574976" lon="2.0192238133062173"><ele>9.0</ele><time>2026-05-04T18:03:50.001Z</time></trkpt><trkpt lat="41.27011202149811" lon="2.019362543271473"><ele>9.0</ele><time>2026-05-04T18:03:51.001Z</time></trkpt><trkpt lat="41.27012629493673" lon="2.019504974781205"><ele>9.0</ele><time>2026-05-04T18:03:52.001Z</time></trkpt><trkpt lat="41.270142148163686" lon="2.019648080638068"><ele>9.0</ele><time>2026-05-04T18:03:53.001Z</time></trkpt><trkpt lat="41.27016004013754" lon="2.0197900442614674"><ele>9.0</ele><time>2026-05-04T18:03:54.001Z</time></trkpt><trkpt lat="41.27017487569714" lon="2.01993362427172"><ele>9.0</ele><time>2026-05-04T18:03:55.001Z</time></trkpt><trkpt lat="41.27018998049184" lon="2.0200765438823405"><ele>9.0</ele><time>2026-05-04T18:03:56.001Z</time></trkpt><trkpt lat="41.2701993921407" lon="2.0202176442594286"><ele>9.0</ele><time>2026-05-04T18:03:57.001Z</time></trkpt><trkpt lat="41.270210026244825" lon="2.02035905772368"><ele>9.0</ele><time>2026-05-04T18:03:58.001Z</time></trkpt><trkpt lat="41.270222055803366" lon="2.020503916823292"><ele>8.8</ele><time>2026-05-04T18:03:59.001Z</time></trkpt><trkpt lat="41.27023656970293" lon="2.0206427615542975"><ele>8.600000000000001</ele><time>2026-05-04T18:04:00.001Z</time></trkpt><trkpt lat="41.270250935433964" lon="2.020782725332653"><ele>8.4</ele><time>2026-05-04T18:04:01.001Z</time></trkpt><trkpt lat="41.2702607671501" lon="2.020927683422103"><ele>8.200000000000001</ele><time>2026-05-04T18:04:02.001Z</time></trkpt><trkpt lat="41.270274433590906" lon="2.0210694944756598"><ele>8.0</ele><time>2026-05-04T18:04:03.001Z</time></trkpt><trkpt lat="41.270287963242104" lon="2.0212101091192487"><ele>8.0</ele><time>2026-05-04T18:04:04.001Z</time></trkpt><trkpt lat="41.2703035796627" lon="2.021350605922132"><ele>8.0</ele><time>2026-05-04T18:04:05.001Z</time></trkpt><trkpt lat="41.27031535888054" lon="2.0214935586772924"><ele>8.0</ele><time>2026-05-04T18:04:06.001Z</time></trkpt><trkpt lat="41.27033008630348" lon="2.021630903269505"><ele>8.0</ele><time>2026-05-04T18:04:07.001Z</time></trkpt><trkpt lat="41.27034556004794" lon="2.0217698207106003"><ele>8.0</ele><time>2026-05-04T18:04:08.001Z</time></trkpt><trkpt lat="41.270360813389544" lon="2.021913442316855"><ele>7.800000000000001</ele><time>2026-05-04T18:04:09.001Z</time></trkpt><trkpt lat="41.270376927054706" lon="2.0220534966467363"><ele>7.6000000000000005</ele><time>2026-05-04T18:04:10.001Z</time></trkpt><trkpt lat="41.270392923827714" lon="2.0221911285957104"><ele>7.3999999999999995</ele><time>2026-05-04T18:04:11.001Z</time></trkpt><trkpt lat="41.27040687945397" lon="2.0223311859028437"><ele>7.199999999999999</ele><time>2026-05-04T18:04:12.001Z</time></trkpt><trkpt lat="41.27041815075793" lon="2.0224701192276373"><ele>7.0</ele><time>2026-05-04T18:04:13.001Z</time></trkpt><trkpt lat="41.27043323559499" lon="2.02260778246325"><ele>7.3999999999999995</ele><time>2026-05-04T18:04:14.001Z</time></trkpt><trkpt lat="41.27045011529613" lon="2.022746459406699"><ele>7.799999999999999</ele><time>2026-05-04T18:04:15.001Z</time></trkpt><trkpt lat="41.27046737642567" lon="2.02288290394107"><ele>8.2</ele><time>2026-05-04T18:04:16.001Z</time></trkpt><trkpt lat="41.270484534105194" lon="2.0230236789030642"><ele>8.6</ele><time>2026-05-04T18:04:17.001Z</time></trkpt><trkpt lat="41.27052082883424" lon="2.0231569717870648"><ele>9.0</ele><time>2026-05-04T18:04:18.001Z</time></trkpt><trkpt lat="41.2705164091536" lon="2.0233089522022447"><ele>8.8</ele><time>2026-05-04T18:04:19.001Z</time></trkpt><trkpt lat="41.27053409468108" lon="2.0234519892244323"><ele>8.600000000000001</ele><time>2026-05-04T18:04:20.001Z</time></trkpt><trkpt lat="41.27054849432433" lon="2.0235934091925007"><ele>8.4</ele><time>2026-05-04T18:04:21.001Z</time></trkpt><trkpt lat="41.27056616074246" lon="2.0237334207856934"><ele>8.200000000000001</ele><time>2026-05-04T18:04:22.001Z</time></trkpt><trkpt lat="41.27058392441388" lon="2.023877902945808"><ele>8.0</ele><time>2026-05-04T18:04:23.001Z</time></trkpt><trkpt lat="41.27060117964477" lon="2.0240211304413633"><ele>8.8</ele><time>2026-05-04T18:04:24.001Z</time></trkpt><trkpt lat="41.270618333428864" lon="2.024164500152606"><ele>9.600000000000001</ele><time>2026-05-04T18:04:25.001Z</time></trkpt><trkpt lat="41.270640283926035" lon="2.0243099377698046"><ele>10.399999999999999</ele><time>2026-05-04T18:04:26.001Z</time></trkpt><trkpt lat="41.27065679736306" lon="2.0244544883243916"><ele>11.2</ele><time>2026-05-04T18:04:27.001Z</time></trkpt><trkpt lat="41.27067299952673" lon="2.0246015492861824"><ele>12.0</ele><time>2026-05-04T18:04:28.001Z</time></trkpt><trkpt lat="41.27068250593871" lon="2.0247449805346065"><ele>12.0</ele><time>2026-05-04T18:04:29.001Z</time></trkpt><trkpt lat="41.27069054167316" lon="2.0248899884051936"><ele>12.0</ele><time>2026-05-04T18:04:30.001Z</time></trkpt><trkpt lat="41.27069969655461" lon="2.0250371381144547"><ele>12.0</ele><time>2026-05-04T18:04:31.001Z</time></trkpt><trkpt lat="41.27071349611046" lon="2.025178020987303"><ele>12.0</ele><time>2026-05-04T18:04:32.001Z</time></trkpt><trkpt lat="41.270726921554335" lon="2.025319534252091"><ele>12.0</ele><time>2026-05-04T18:04:33.001Z</time></trkpt><trkpt lat="41.27073900549786" lon="2.0254621849958876"><ele>11.8</ele><time>2026-05-04T18:04:34.001Z</time></trkpt><trkpt lat="41.27075470214808" lon="2.025606182071935"><ele>11.6</ele><time>2026-05-04T18:04:35.001Z</time></trkpt><trkpt lat="41.27076635254739" lon="2.0257530862132325"><ele>11.4</ele><time>2026-05-04T18:04:36.001Z</time></trkpt><trkpt lat="41.270778209871715" lon="2.025893428237478"><ele>11.200000000000001</ele><time>2026-05-04T18:04:37.001Z</time></trkpt><trkpt lat="41.270790825721" lon="2.0260364570340945"><ele>11.0</ele><time>2026-05-04T18:04:38.001Z</time></trkpt><trkpt lat="41.27080576265226" lon="2.0261742057037866"><ele>10.8</ele><time>2026-05-04T18:04:39.001Z</time></trkpt><trkpt lat="41.270820436792235" lon="2.0263159255302052"><ele>10.600000000000001</ele><time>2026-05-04T18:04:40.001Z</time></trkpt><trkpt lat="41.27083450824295" lon="2.026456830090649"><ele>10.4</ele><time>2026-05-04T18:04:41Z</time></trkpt><trkpt lat="41.27084571727369" lon="2.026600159736668"><ele>10.2</ele><time>2026-05-04T18:04:42Z</time></trkpt><trkpt lat="41.270861353945364" lon="2.0267423981565487"><ele>10.0</ele><time>2026-05-04T18:04:43Z</time></trkpt><trkpt lat="41.27087653169503" lon="2.0268837657139223"><ele>10.0</ele><time>2026-05-04T18:04:44Z</time></trkpt><trkpt lat="41.27088603361228" lon="2.0270268047233566"><ele>10.0</ele><time>2026-05-04T18:04:45Z</time></trkpt><trkpt lat="41.270902224557716" lon="2.0271711608534733"><ele>10.0</ele><time>2026-05-04T18:04:46Z</time></trkpt><trkpt lat="41.27091453251685" lon="2.0273170114202057"><ele>10.0</ele><time>2026-05-04T18:04:47Z</time></trkpt><trkpt lat="41.27092502382038" lon="2.02745838131404"><ele>10.0</ele><time>2026-05-04T18:04:48Z</time></trkpt><trkpt lat="41.27093971991452" lon="2.027606290297582"><ele>10.2</ele><time>2026-05-04T18:04:49Z</time></trkpt><trkpt lat="41.2709520221019" lon="2.0277497059842053"><ele>10.4</ele><time>2026-05-04T18:04:50Z</time></trkpt><trkpt lat="41.2709644352759" lon="2.0278958926504824"><ele>10.600000000000001</ele><time>2026-05-04T18:04:51Z</time></trkpt><trkpt lat="41.27097455945163" lon="2.028041622193778"><ele>10.8</ele><time>2026-05-04T18:04:52Z</time></trkpt><trkpt lat="41.27098481960307" lon="2.028185201556807"><ele>11.0</ele><time>2026-05-04T18:04:53Z</time></trkpt><trkpt lat="41.27099888924416" lon="2.0283317417277194"><ele>10.600000000000001</ele><time>2026-05-04T18:04:54Z</time></trkpt><trkpt lat="41.27101392805006" lon="2.0284728145279165"><ele>10.200000000000001</ele><time>2026-05-04T18:04:55Z</time></trkpt><trkpt lat="41.271027163683044" lon="2.0286194337125774"><ele>9.8</ele><time>2026-05-04T18:04:56Z</time></trkpt><trkpt lat="41.2710460792209" lon="2.0287642594243196"><ele>9.4</ele><time>2026-05-04T18:04:57Z</time></trkpt><trkpt lat="41.271059507554014" lon="2.028911028616994"><ele>9.0</ele><time>2026-05-04T18:04:58Z</time></trkpt><trkpt lat="41.27107282282785" lon="2.0290534050209854"><ele>8.8</ele><time>2026-05-04T18:04:59Z</time></trkpt><trkpt lat="41.2710891371938" lon="2.029195741064278"><ele>8.600000000000001</ele><time>2026-05-04T18:05:00Z</time></trkpt><trkpt lat="41.27109929157355" lon="2.0293425965853333"><ele>8.4</ele><time>2026-05-04T18:05:01Z</time></trkpt><trkpt lat="41.27111252403414" lon="2.029486569453403"><ele>8.200000000000001</ele><time>2026-05-04T18:05:02Z</time></trkpt><trkpt lat="41.271127121167225" lon="2.0296331701036774"><ele>8.0</ele><time>2026-05-04T18:05:03Z</time></trkpt><trkpt lat="41.27114037590949" lon="2.029781084664933"><ele>8.0</ele><time>2026-05-04T18:05:04Z</time></trkpt><trkpt lat="41.271150551110225" lon="2.0299291616329116"><ele>8.0</ele><time>2026-05-04T18:05:05Z</time></trkpt><trkpt lat="41.271166369391885" lon="2.0300735572064688"><ele>8.0</ele><time>2026-05-04T18:05:06Z</time></trkpt><trkpt lat="41.2711787947217" lon="2.0302216351506615"><ele>8.0</ele><time>2026-05-04T18:05:07Z</time></trkpt><trkpt lat="41.27119304797363" lon="2.03036535783769"><ele>8.0</ele><time>2026-05-04T18:05:08Z</time></trkpt><trkpt lat="41.27120929129376" lon="2.0305100426034004"><ele>8.0</ele><time>2026-05-04T18:05:09Z</time></trkpt><trkpt lat="41.271219546864806" lon="2.0306573335399607"><ele>8.0</ele><time>2026-05-04T18:05:10Z</time></trkpt><trkpt lat="41.27123249594683" lon="2.0308022701995614"><ele>8.0</ele><time>2026-05-04T18:05:11Z</time></trkpt><trkpt lat="41.271247296344946" lon="2.0309496907518456"><ele>8.0</ele><time>2026-05-04T18:05:12Z</time></trkpt><trkpt lat="41.27125828047789" lon="2.031093086328089"><ele>8.0</ele><time>2026-05-04T18:05:13Z</time></trkpt><trkpt lat="41.27127117198563" lon="2.0312381414592955"><ele>8.200000000000001</ele><time>2026-05-04T18:05:14Z</time></trkpt><trkpt lat="41.27128729040928" lon="2.0313823415726873"><ele>8.4</ele><time>2026-05-04T18:05:15Z</time></trkpt><trkpt lat="41.27130032490639" lon="2.031526395799837"><ele>8.600000000000001</ele><time>2026-05-04T18:05:16Z</time></trkpt><trkpt lat="41.27131589030677" lon="2.0316713554774535"><ele>8.8</ele><time>2026-05-04T18:05:17Z</time></trkpt><trkpt lat="41.27132651438938" lon="2.031816083209856"><ele>9.0</ele><time>2026-05-04T18:05:18Z</time></trkpt><trkpt lat="41.27133806932468" lon="2.031961824315758"><ele>9.0</ele><time>2026-05-04T18:05:19Z</time></trkpt><trkpt lat="41.27135823002504" lon="2.0321037182989024"><ele>9.0</ele><time>2026-05-04T18:05:20Z</time></trkpt><trkpt lat="41.27137449741324" lon="2.0322473406476376"><ele>9.0</ele><time>2026-05-04T18:05:21Z</time></trkpt><trkpt lat="41.271385307608675" lon="2.03239300363352"><ele>9.0</ele><time>2026-05-04T18:05:22Z</time></trkpt><trkpt lat="41.27139632468786" lon="2.0325401778821828"><ele>9.0</ele><time>2026-05-04T18:05:23Z</time></trkpt><trkpt lat="41.271409367890236" lon="2.03268512116096"><ele>9.0</ele><time>2026-05-04T18:05:24Z</time></trkpt><trkpt lat="41.27142305380887" lon="2.032829097993945"><ele>9.0</ele><time>2026-05-04T18:05:25Z</time></trkpt><trkpt lat="41.27143843991609" lon="2.032976330673444"><ele>9.0</ele><time>2026-05-04T18:05:26Z</time></trkpt><trkpt lat="41.271454335354406" lon="2.033119187698749"><ele>9.0</ele><time>2026-05-04T18:05:27Z</time></trkpt><trkpt lat="41.27146645875198" lon="2.0332630583871363"><ele>9.0</ele><time>2026-05-04T18:05:28.001Z</time></trkpt><trkpt lat="41.27147839790144" lon="2.0334045829449057"><ele>9.0</ele><time>2026-05-04T18:05:29.001Z</time></trkpt><trkpt lat="41.27149209737692" lon="2.0335487700026467"><ele>9.0</ele><time>2026-05-04T18:05:30.001Z</time></trkpt><trkpt lat="41.27150572822167" lon="2.0336946423140145"><ele>9.0</ele><time>2026-05-04T18:05:31.001Z</time></trkpt><trkpt lat="41.27151972458185" lon="2.033839389373047"><ele>9.0</ele><time>2026-05-04T18:05:32.001Z</time></trkpt><trkpt lat="41.27152258455131" lon="2.033980716017947"><ele>9.0</ele><time>2026-05-04T18:05:33.001Z</time></trkpt><trkpt lat="41.27154092749218" lon="2.034125124244928"><ele>9.0</ele><time>2026-05-04T18:05:34.001Z</time></trkpt><trkpt lat="41.27155370765355" lon="2.0342674393341276"><ele>9.0</ele><time>2026-05-04T18:05:35.001Z</time></trkpt><trkpt lat="41.27156311852135" lon="2.034412948202547"><ele>9.0</ele><time>2026-05-04T18:05:36.001Z</time></trkpt><trkpt lat="41.271575024663484" lon="2.034552650063647"><ele>9.0</ele><time>2026-05-04T18:05:37.001Z</time></trkpt><trkpt lat="41.271588384246456" lon="2.0346991536565615"><ele>9.0</ele><time>2026-05-04T18:05:38.001Z</time></trkpt><trkpt lat="41.27160097672266" lon="2.0348434407903757"><ele>8.6</ele><time>2026-05-04T18:05:39.001Z</time></trkpt><trkpt lat="41.27161543507371" lon="2.0349864720957567"><ele>8.2</ele><time>2026-05-04T18:05:40.001Z</time></trkpt><trkpt lat="41.27163045421357" lon="2.0351299242186998"><ele>7.799999999999999</ele><time>2026-05-04T18:05:41.001Z</time></trkpt><trkpt lat="41.27163991564745" lon="2.0352734439221094"><ele>7.3999999999999995</ele><time>2026-05-04T18:05:42.001Z</time></trkpt><trkpt lat="41.27165174402191" lon="2.0354172867840754"><ele>7.0</ele><time>2026-05-04T18:05:43.001Z</time></trkpt><trkpt lat="41.27166519139318" lon="2.0355584446543538"><ele>7.0</ele><time>2026-05-04T18:05:44.001Z</time></trkpt><trkpt lat="41.27167898499151" lon="2.0357011021737144"><ele>6.999999999999999</ele><time>2026-05-04T18:05:45.001Z</time></trkpt><trkpt lat="41.27169112497246" lon="2.035845456076249"><ele>6.999999999999999</ele><time>2026-05-04T18:05:46.001Z</time></trkpt><trkpt lat="41.27170422922038" lon="2.035985851284718"><ele>7.0</ele><time>2026-05-04T18:05:47.001Z</time></trkpt><trkpt lat="41.271718009656695" lon="2.0361308071635147"><ele>7.0</ele><time>2026-05-04T18:05:48.001Z</time></trkpt><trkpt lat="41.271730853176926" lon="2.0362736238468604"><ele>7.199999999999999</ele><time>2026-05-04T18:05:49.001Z</time></trkpt><trkpt lat="41.271739335261216" lon="2.0364144120751457"><ele>7.3999999999999995</ele><time>2026-05-04T18:05:50.001Z</time></trkpt><trkpt lat="41.27175712642572" lon="2.036561055273953"><ele>7.6000000000000005</ele><time>2026-05-04T18:05:51.001Z</time></trkpt><trkpt lat="41.27177185267407" lon="2.0367008333399865"><ele>7.800000000000001</ele><time>2026-05-04T18:05:52.001Z</time></trkpt><trkpt lat="41.271783427901276" lon="2.036842420041123"><ele>8.0</ele><time>2026-05-04T18:05:53.001Z</time></trkpt><trkpt lat="41.27179833816505" lon="2.036983456797021"><ele>8.0</ele><time>2026-05-04T18:05:54.001Z</time></trkpt><trkpt lat="41.27181015142702" lon="2.037128017968877"><ele>8.0</ele><time>2026-05-04T18:05:55.001Z</time></trkpt><trkpt lat="41.271821855941454" lon="2.037263272227947"><ele>8.0</ele><time>2026-05-04T18:05:56.001Z</time></trkpt><trkpt lat="41.271838116657456" lon="2.0374077278501215"><ele>8.0</ele><time>2026-05-04T18:05:57.001Z</time></trkpt><trkpt lat="41.27185076929605" lon="2.0375519413626093"><ele>8.0</ele><time>2026-05-04T18:05:58.001Z</time></trkpt><trkpt lat="41.27186155620936" lon="2.0376979873897603"><ele>8.25</ele><time>2026-05-04T18:05:59.001Z</time></trkpt><trkpt lat="41.27187182106181" lon="2.037848048753753"><ele>8.5</ele><time>2026-05-04T18:06:00.001Z</time></trkpt><trkpt lat="41.27188047444884" lon="2.0379971008570066"><ele>8.75</ele><time>2026-05-04T18:06:01.001Z</time></trkpt><trkpt lat="41.271889935300045" lon="2.0381476947813315"><ele>9.0</ele><time>2026-05-04T18:06:02.001Z</time></trkpt><trkpt lat="41.271900386930625" lon="2.038302815775696"><ele>9.75</ele><time>2026-05-04T18:06:03.001Z</time></trkpt><trkpt lat="41.2719124802869" lon="2.038453017538347"><ele>10.5</ele><time>2026-05-04T18:06:04.001Z</time></trkpt><trkpt lat="41.271924772128074" lon="2.0386073659541224"><ele>11.25</ele><time>2026-05-04T18:06:05.001Z</time></trkpt><trkpt lat="41.27194270627511" lon="2.038765569500429"><ele>12.0</ele><time>2026-05-04T18:06:06.001Z</time></trkpt><trkpt lat="41.271958014427966" lon="2.038923044027646"><ele>12.0</ele><time>2026-05-04T18:06:07.001Z</time></trkpt><trkpt lat="41.27197739087237" lon="2.039081137148469"><ele>12.0</ele><time>2026-05-04T18:06:08.001Z</time></trkpt><trkpt lat="41.2719979097768" lon="2.0392402319983525"><ele>12.0</ele><time>2026-05-04T18:06:09.001Z</time></trkpt><trkpt lat="41.27201867116119" lon="2.0394019857791967"><ele>12.0</ele><time>2026-05-04T18:06:10.001Z</time></trkpt><trkpt lat="41.27204019073648" lon="2.039562945984122"><ele>11.5</ele><time>2026-05-04T18:06:11.001Z</time></trkpt><trkpt lat="41.272043878063236" lon="2.0397199628400284"><ele>11.0</ele><time>2026-05-04T18:06:12.001Z</time></trkpt><trkpt lat="41.27207175031812" lon="2.0398847993851885"><ele>10.5</ele><time>2026-05-04T18:06:13.001Z</time></trkpt><trkpt lat="41.27209947995551" lon="2.040047345059118"><ele>10.0</ele><time>2026-05-04T18:06:14.001Z</time></trkpt><trkpt lat="41.27212431544371" lon="2.0402064422908652"><ele>9.75</ele><time>2026-05-04T18:06:15.001Z</time></trkpt><trkpt lat="41.27212911459401" lon="2.0403615202351912"><ele>9.5</ele><time>2026-05-04T18:06:16.001Z</time></trkpt><trkpt lat="41.272163724948705" lon="2.0405270890641782"><ele>9.25</ele><time>2026-05-04T18:06:17.001Z</time></trkpt><trkpt lat="41.27219601863538" lon="2.0406796105859724"><ele>9.0</ele><time>2026-05-04T18:06:18.001Z</time></trkpt><trkpt lat="41.27222520072958" lon="2.040824709490837"><ele>9.0</ele><time>2026-05-04T18:06:19.001Z</time></trkpt><trkpt lat="41.27223322457592" lon="2.0409770764139576"><ele>9.0</ele><time>2026-05-04T18:06:20.001Z</time></trkpt><trkpt lat="41.27226431325372" lon="2.041107414317568"><ele>9.0</ele><time>2026-05-04T18:06:21.001Z</time></trkpt><trkpt lat="41.27231239670997" lon="2.0412489117544586"><ele>9.0</ele><time>2026-05-04T18:06:22.001Z</time></trkpt><trkpt lat="41.27234171772124" lon="2.0413809051387197"><ele>9.0</ele><time>2026-05-04T18:06:23.001Z</time></trkpt><trkpt lat="41.27237195060137" lon="2.0415044589946683"><ele>8.833333333333334</ele><time>2026-05-04T18:06:24.001Z</time></trkpt><trkpt lat="41.27239879891523" lon="2.041628310879204"><ele>8.666666666666666</ele><time>2026-05-04T18:06:25.001Z</time></trkpt><trkpt lat="41.2724263197475" lon="2.041750139159082"><ele>8.5</ele><time>2026-05-04T18:06:26.001Z</time></trkpt><trkpt lat="41.27245317766107" lon="2.041866622601682"><ele>8.333333333333332</ele><time>2026-05-04T18:06:27.001Z</time></trkpt><trkpt lat="41.272477069874775" lon="2.0419740149484693"><ele>8.166666666666666</ele><time>2026-05-04T18:06:28.001Z</time></trkpt><trkpt lat="41.27249551589174" lon="2.0420710793427075"><ele>8.0</ele><time>2026-05-04T18:06:29.001Z</time></trkpt><trkpt lat="41.27251800313126" lon="2.0421594633411613"><ele>7.833333333333333</ele><time>2026-05-04T18:06:30.001Z</time></trkpt><trkpt lat="41.27253504546198" lon="2.042245020694365"><ele>7.666666666666666</ele><time>2026-05-04T18:06:31.001Z</time></trkpt><trkpt lat="41.272555081651745" lon="2.0423827543967"><ele>7.5</ele><time>2026-05-04T18:06:33.001Z</time></trkpt><trkpt lat="41.27259312373756" lon="2.0424725776223296"><ele>7.333333333333334</ele><time>2026-05-04T18:06:35.001Z</time></trkpt><trkpt lat="41.27248030736954" lon="2.042521784645292"><ele>7.166666666666667</ele><time>2026-05-04T18:06:36.001Z</time></trkpt><trkpt lat="41.272431735245966" lon="2.0426028096325535"><ele>7.0</ele><time>2026-05-04T18:06:38.001Z</time></trkpt><trkpt lat="41.272367189168364" lon="2.042686479674681"><ele>7.0</ele><time>2026-05-04T18:06:41.001Z</time></trkpt><trkpt lat="41.272313969276404" lon="2.0427914595488015"><ele>7.0</ele><time>2026-05-04T18:06:47Z</time></trkpt><trkpt lat="41.27225010517691" lon="2.042857687720304"><ele>10.0</ele><time>2026-05-04T18:06:49Z</time></trkpt><trkpt lat="41.27225701915713" lon="2.0429440481808867"><ele>10.0</ele><time>2026-05-04T18:06:52Z</time></trkpt></trkseg></trk></gpx>